<?xml version="1.0" encoding="UTF-8" standalone="no" ?>
<gpx xmlns="http://www.topografix.com/GPX/1/1" xmlns:xsi="http://www.w3.org/2001/XMLSchema-instance" xsi:schemaLocation="http://www.topografix.com/GPX/1/1 http://www.topografix.com/GPX/1/1/gpx.xsd" version="1.1" creator="VisuGPX - https://www.visugpx.com">
  <metadata>
    <name>Champ Bernard 2021_08_14</name>
  </metadata>
  <trk>
    <name><![CDATA[Champ Bernard 2021_08_14_1]]></name>
    <trkseg>
      <trkpt lat="49.7537" lon="4.82188">
        <ele>201</ele>
        <time>2021-08-14T06:39:10.000Z</time>
      </trkpt>
      <trkpt lat="49.7537" lon="4.82188">
        <ele>201</ele>
        <time>2021-08-14T06:39:11.000Z</time>
      </trkpt>
      <trkpt lat="49.75371" lon="4.82187">
        <ele>201</ele>
        <time>2021-08-14T06:39:12.000Z</time>
      </trkpt>
      <trkpt lat="49.75371" lon="4.82185">
        <ele>201</ele>
        <time>2021-08-14T06:39:13.000Z</time>
      </trkpt>
      <trkpt lat="49.75372" lon="4.82183">
        <ele>201</ele>
        <time>2021-08-14T06:39:14.000Z</time>
      </trkpt>
      <trkpt lat="49.75373" lon="4.8218">
        <ele>201</ele>
        <time>2021-08-14T06:39:15.000Z</time>
      </trkpt>
      <trkpt lat="49.75375" lon="4.82179">
        <ele>201</ele>
        <time>2021-08-14T06:39:16.000Z</time>
      </trkpt>
      <trkpt lat="49.75377" lon="4.82178">
        <ele>201</ele>
        <time>2021-08-14T06:39:17.000Z</time>
      </trkpt>
      <trkpt lat="49.75379" lon="4.82178">
        <ele>200</ele>
        <time>2021-08-14T06:39:18.000Z</time>
      </trkpt>
      <trkpt lat="49.75382" lon="4.82178">
        <ele>200</ele>
        <time>2021-08-14T06:39:19.000Z</time>
      </trkpt>
      <trkpt lat="49.75386" lon="4.82179">
        <ele>200</ele>
        <time>2021-08-14T06:39:20.000Z</time>
      </trkpt>
      <trkpt lat="49.75389" lon="4.8218">
        <ele>199</ele>
        <time>2021-08-14T06:39:21.000Z</time>
      </trkpt>
      <trkpt lat="49.75393" lon="4.82182">
        <ele>199</ele>
        <time>2021-08-14T06:39:22.000Z</time>
      </trkpt>
      <trkpt lat="49.75398" lon="4.82184">
        <ele>198</ele>
        <time>2021-08-14T06:39:23.000Z</time>
      </trkpt>
      <trkpt lat="49.75403" lon="4.82186">
        <ele>197</ele>
        <time>2021-08-14T06:39:24.000Z</time>
      </trkpt>
      <trkpt lat="49.75408" lon="4.82189">
        <ele>197</ele>
        <time>2021-08-14T06:39:25.000Z</time>
      </trkpt>
      <trkpt lat="49.75412" lon="4.82192">
        <ele>196</ele>
        <time>2021-08-14T06:39:26.000Z</time>
      </trkpt>
      <trkpt lat="49.75417" lon="4.82194">
        <ele>195</ele>
        <time>2021-08-14T06:39:27.000Z</time>
      </trkpt>
      <trkpt lat="49.75422" lon="4.82197">
        <ele>195</ele>
        <time>2021-08-14T06:39:28.000Z</time>
      </trkpt>
      <trkpt lat="49.75426" lon="4.82202">
        <ele>194</ele>
        <time>2021-08-14T06:39:29.000Z</time>
      </trkpt>
      <trkpt lat="49.75429" lon="4.82207">
        <ele>194</ele>
        <time>2021-08-14T06:39:30.000Z</time>
      </trkpt>
      <trkpt lat="49.75433" lon="4.82212">
        <ele>193</ele>
        <time>2021-08-14T06:39:31.000Z</time>
      </trkpt>
      <trkpt lat="49.75436" lon="4.82216">
        <ele>193</ele>
        <time>2021-08-14T06:39:32.000Z</time>
      </trkpt>
      <trkpt lat="49.7544" lon="4.82218">
        <ele>192</ele>
        <time>2021-08-14T06:39:33.000Z</time>
      </trkpt>
      <trkpt lat="49.75445" lon="4.82219">
        <ele>192</ele>
        <time>2021-08-14T06:39:34.000Z</time>
      </trkpt>
      <trkpt lat="49.7545" lon="4.82221">
        <ele>191</ele>
        <time>2021-08-14T06:39:35.000Z</time>
      </trkpt>
      <trkpt lat="49.75455" lon="4.82225">
        <ele>191</ele>
        <time>2021-08-14T06:39:36.000Z</time>
      </trkpt>
      <trkpt lat="49.7546" lon="4.8223">
        <ele>191</ele>
        <time>2021-08-14T06:39:37.000Z</time>
      </trkpt>
      <trkpt lat="49.75465" lon="4.82235">
        <ele>190</ele>
        <time>2021-08-14T06:39:38.000Z</time>
      </trkpt>
      <trkpt lat="49.75469" lon="4.8224">
        <ele>190</ele>
        <time>2021-08-14T06:39:39.000Z</time>
      </trkpt>
      <trkpt lat="49.75474" lon="4.82246">
        <ele>190</ele>
        <time>2021-08-14T06:39:40.000Z</time>
      </trkpt>
      <trkpt lat="49.75479" lon="4.8225">
        <ele>189</ele>
        <time>2021-08-14T06:39:41.000Z</time>
      </trkpt>
      <trkpt lat="49.75484" lon="4.82254">
        <ele>189</ele>
        <time>2021-08-14T06:39:42.000Z</time>
      </trkpt>
      <trkpt lat="49.75489" lon="4.82257">
        <ele>189</ele>
        <time>2021-08-14T06:39:43.000Z</time>
      </trkpt>
      <trkpt lat="49.75494" lon="4.8226">
        <ele>189</ele>
        <time>2021-08-14T06:39:44.000Z</time>
      </trkpt>
      <trkpt lat="49.75499" lon="4.82263">
        <ele>189</ele>
        <time>2021-08-14T06:39:45.000Z</time>
      </trkpt>
      <trkpt lat="49.75504" lon="4.82266">
        <ele>188</ele>
        <time>2021-08-14T06:39:46.000Z</time>
      </trkpt>
      <trkpt lat="49.75509" lon="4.82269">
        <ele>188</ele>
        <time>2021-08-14T06:39:47.000Z</time>
      </trkpt>
      <trkpt lat="49.75514" lon="4.82271">
        <ele>188</ele>
        <time>2021-08-14T06:39:48.000Z</time>
      </trkpt>
      <trkpt lat="49.75519" lon="4.82274">
        <ele>188</ele>
        <time>2021-08-14T06:39:49.000Z</time>
      </trkpt>
      <trkpt lat="49.75523" lon="4.82277">
        <ele>188</ele>
        <time>2021-08-14T06:39:50.000Z</time>
      </trkpt>
      <trkpt lat="49.75528" lon="4.82279">
        <ele>188</ele>
        <time>2021-08-14T06:39:51.000Z</time>
      </trkpt>
      <trkpt lat="49.75533" lon="4.82279">
        <ele>188</ele>
        <time>2021-08-14T06:39:52.000Z</time>
      </trkpt>
      <trkpt lat="49.75538" lon="4.82277">
        <ele>188</ele>
        <time>2021-08-14T06:39:53.000Z</time>
      </trkpt>
      <trkpt lat="49.75541" lon="4.82273">
        <ele>188</ele>
        <time>2021-08-14T06:39:54.000Z</time>
      </trkpt>
      <trkpt lat="49.75545" lon="4.82269">
        <ele>188</ele>
        <time>2021-08-14T06:39:55.000Z</time>
      </trkpt>
      <trkpt lat="49.75547" lon="4.82264">
        <ele>188</ele>
        <time>2021-08-14T06:39:56.000Z</time>
      </trkpt>
      <trkpt lat="49.75549" lon="4.82259">
        <ele>188</ele>
        <time>2021-08-14T06:39:57.000Z</time>
      </trkpt>
      <trkpt lat="49.7555" lon="4.82254">
        <ele>188</ele>
        <time>2021-08-14T06:39:58.000Z</time>
      </trkpt>
      <trkpt lat="49.7555" lon="4.82249">
        <ele>188</ele>
        <time>2021-08-14T06:39:59.000Z</time>
      </trkpt>
      <trkpt lat="49.75547" lon="4.82244">
        <ele>188</ele>
        <time>2021-08-14T06:40:00.000Z</time>
      </trkpt>
      <trkpt lat="49.75544" lon="4.82238">
        <ele>188</ele>
        <time>2021-08-14T06:40:01.000Z</time>
      </trkpt>
      <trkpt lat="49.75541" lon="4.82233">
        <ele>188</ele>
        <time>2021-08-14T06:40:02.000Z</time>
      </trkpt>
      <trkpt lat="49.75538" lon="4.82227">
        <ele>188</ele>
        <time>2021-08-14T06:40:03.000Z</time>
      </trkpt>
      <trkpt lat="49.75535" lon="4.82221">
        <ele>188</ele>
        <time>2021-08-14T06:40:04.000Z</time>
      </trkpt>
      <trkpt lat="49.75532" lon="4.82215">
        <ele>188</ele>
        <time>2021-08-14T06:40:05.000Z</time>
      </trkpt>
      <trkpt lat="49.75529" lon="4.8221">
        <ele>188</ele>
        <time>2021-08-14T06:40:06.000Z</time>
      </trkpt>
      <trkpt lat="49.75526" lon="4.82204">
        <ele>188</ele>
        <time>2021-08-14T06:40:07.000Z</time>
      </trkpt>
      <trkpt lat="49.75523" lon="4.82197">
        <ele>188</ele>
        <time>2021-08-14T06:40:08.000Z</time>
      </trkpt>
      <trkpt lat="49.75521" lon="4.82191">
        <ele>188</ele>
        <time>2021-08-14T06:40:09.000Z</time>
      </trkpt>
      <trkpt lat="49.75518" lon="4.82184">
        <ele>189</ele>
        <time>2021-08-14T06:40:10.000Z</time>
      </trkpt>
      <trkpt lat="49.75516" lon="4.82178">
        <ele>189</ele>
        <time>2021-08-14T06:40:11.000Z</time>
      </trkpt>
      <trkpt lat="49.75512" lon="4.82172">
        <ele>189</ele>
        <time>2021-08-14T06:40:12.000Z</time>
      </trkpt>
      <trkpt lat="49.75508" lon="4.82166">
        <ele>189</ele>
        <time>2021-08-14T06:40:13.000Z</time>
      </trkpt>
      <trkpt lat="49.75504" lon="4.82161">
        <ele>189</ele>
        <time>2021-08-14T06:40:14.000Z</time>
      </trkpt>
      <trkpt lat="49.755" lon="4.82155">
        <ele>189</ele>
        <time>2021-08-14T06:40:15.000Z</time>
      </trkpt>
      <trkpt lat="49.75496" lon="4.82149">
        <ele>189</ele>
        <time>2021-08-14T06:40:16.000Z</time>
      </trkpt>
      <trkpt lat="49.75492" lon="4.82143">
        <ele>189</ele>
        <time>2021-08-14T06:40:17.000Z</time>
      </trkpt>
      <trkpt lat="49.75488" lon="4.82138">
        <ele>189</ele>
        <time>2021-08-14T06:40:18.000Z</time>
      </trkpt>
      <trkpt lat="49.75485" lon="4.82132">
        <ele>189</ele>
        <time>2021-08-14T06:40:19.000Z</time>
      </trkpt>
      <trkpt lat="49.75481" lon="4.82126">
        <ele>189</ele>
        <time>2021-08-14T06:40:20.000Z</time>
      </trkpt>
      <trkpt lat="49.75477" lon="4.82121">
        <ele>189</ele>
        <time>2021-08-14T06:40:21.000Z</time>
      </trkpt>
      <trkpt lat="49.75473" lon="4.82115">
        <ele>189</ele>
        <time>2021-08-14T06:40:22.000Z</time>
      </trkpt>
      <trkpt lat="49.7547" lon="4.8211">
        <ele>189</ele>
        <time>2021-08-14T06:40:23.000Z</time>
      </trkpt>
      <trkpt lat="49.75465" lon="4.82105">
        <ele>189</ele>
        <time>2021-08-14T06:40:24.000Z</time>
      </trkpt>
      <trkpt lat="49.75461" lon="4.82101">
        <ele>189</ele>
        <time>2021-08-14T06:40:25.000Z</time>
      </trkpt>
      <trkpt lat="49.75456" lon="4.82097">
        <ele>189</ele>
        <time>2021-08-14T06:40:26.000Z</time>
      </trkpt>
      <trkpt lat="49.75452" lon="4.82094">
        <ele>189</ele>
        <time>2021-08-14T06:40:27.000Z</time>
      </trkpt>
      <trkpt lat="49.75448" lon="4.8209">
        <ele>189</ele>
        <time>2021-08-14T06:40:28.000Z</time>
      </trkpt>
      <trkpt lat="49.75444" lon="4.82086">
        <ele>189</ele>
        <time>2021-08-14T06:40:29.000Z</time>
      </trkpt>
      <trkpt lat="49.7544" lon="4.82081">
        <ele>189</ele>
        <time>2021-08-14T06:40:30.000Z</time>
      </trkpt>
      <trkpt lat="49.75437" lon="4.82077">
        <ele>189</ele>
        <time>2021-08-14T06:40:31.000Z</time>
      </trkpt>
      <trkpt lat="49.75433" lon="4.82073">
        <ele>190</ele>
        <time>2021-08-14T06:40:32.000Z</time>
      </trkpt>
      <trkpt lat="49.75429" lon="4.82069">
        <ele>190</ele>
        <time>2021-08-14T06:40:33.000Z</time>
      </trkpt>
      <trkpt lat="49.75425" lon="4.82066">
        <ele>190</ele>
        <time>2021-08-14T06:40:34.000Z</time>
      </trkpt>
      <trkpt lat="49.75421" lon="4.82062">
        <ele>190</ele>
        <time>2021-08-14T06:40:35.000Z</time>
      </trkpt>
      <trkpt lat="49.75418" lon="4.82059">
        <ele>190</ele>
        <time>2021-08-14T06:40:36.000Z</time>
      </trkpt>
      <trkpt lat="49.75414" lon="4.82056">
        <ele>190</ele>
        <time>2021-08-14T06:40:37.000Z</time>
      </trkpt>
      <trkpt lat="49.7541" lon="4.82052">
        <ele>190</ele>
        <time>2021-08-14T06:40:38.000Z</time>
      </trkpt>
      <trkpt lat="49.75406" lon="4.82049">
        <ele>190</ele>
        <time>2021-08-14T06:40:39.000Z</time>
      </trkpt>
      <trkpt lat="49.75403" lon="4.82046">
        <ele>190</ele>
        <time>2021-08-14T06:40:40.000Z</time>
      </trkpt>
      <trkpt lat="49.75399" lon="4.82042">
        <ele>190</ele>
        <time>2021-08-14T06:40:41.000Z</time>
      </trkpt>
      <trkpt lat="49.75395" lon="4.82039">
        <ele>190</ele>
        <time>2021-08-14T06:40:42.000Z</time>
      </trkpt>
      <trkpt lat="49.75391" lon="4.82036">
        <ele>190</ele>
        <time>2021-08-14T06:40:43.000Z</time>
      </trkpt>
      <trkpt lat="49.75388" lon="4.82033">
        <ele>190</ele>
        <time>2021-08-14T06:40:44.000Z</time>
      </trkpt>
      <trkpt lat="49.75384" lon="4.8203">
        <ele>190</ele>
        <time>2021-08-14T06:40:45.000Z</time>
      </trkpt>
      <trkpt lat="49.7538" lon="4.82027">
        <ele>190</ele>
        <time>2021-08-14T06:40:46.000Z</time>
      </trkpt>
      <trkpt lat="49.75376" lon="4.82025">
        <ele>191</ele>
        <time>2021-08-14T06:40:47.000Z</time>
      </trkpt>
      <trkpt lat="49.75372" lon="4.82023">
        <ele>191</ele>
        <time>2021-08-14T06:40:48.000Z</time>
      </trkpt>
      <trkpt lat="49.75369" lon="4.82021">
        <ele>191</ele>
        <time>2021-08-14T06:40:49.000Z</time>
      </trkpt>
      <trkpt lat="49.75365" lon="4.82019">
        <ele>191</ele>
        <time>2021-08-14T06:40:50.000Z</time>
      </trkpt>
      <trkpt lat="49.75361" lon="4.82018">
        <ele>191</ele>
        <time>2021-08-14T06:40:51.000Z</time>
      </trkpt>
      <trkpt lat="49.75358" lon="4.82016">
        <ele>191</ele>
        <time>2021-08-14T06:40:52.000Z</time>
      </trkpt>
      <trkpt lat="49.75354" lon="4.82013">
        <ele>191</ele>
        <time>2021-08-14T06:40:53.000Z</time>
      </trkpt>
      <trkpt lat="49.7535" lon="4.82011">
        <ele>191</ele>
        <time>2021-08-14T06:40:54.000Z</time>
      </trkpt>
      <trkpt lat="49.75347" lon="4.82008">
        <ele>191</ele>
        <time>2021-08-14T06:40:55.000Z</time>
      </trkpt>
      <trkpt lat="49.75344" lon="4.82006">
        <ele>191</ele>
        <time>2021-08-14T06:40:56.000Z</time>
      </trkpt>
      <trkpt lat="49.7534" lon="4.82005">
        <ele>191</ele>
        <time>2021-08-14T06:40:57.000Z</time>
      </trkpt>
      <trkpt lat="49.75337" lon="4.82002">
        <ele>191</ele>
        <time>2021-08-14T06:40:58.000Z</time>
      </trkpt>
      <trkpt lat="49.75333" lon="4.82">
        <ele>191</ele>
        <time>2021-08-14T06:40:59.000Z</time>
      </trkpt>
      <trkpt lat="49.75329" lon="4.81998">
        <ele>192</ele>
        <time>2021-08-14T06:41:00.000Z</time>
      </trkpt>
      <trkpt lat="49.75326" lon="4.81995">
        <ele>192</ele>
        <time>2021-08-14T06:41:01.000Z</time>
      </trkpt>
      <trkpt lat="49.75322" lon="4.81993">
        <ele>192</ele>
        <time>2021-08-14T06:41:02.000Z</time>
      </trkpt>
      <trkpt lat="49.75319" lon="4.81991">
        <ele>192</ele>
        <time>2021-08-14T06:41:03.000Z</time>
      </trkpt>
      <trkpt lat="49.75316" lon="4.81988">
        <ele>192</ele>
        <time>2021-08-14T06:41:04.000Z</time>
      </trkpt>
      <trkpt lat="49.75313" lon="4.81986">
        <ele>192</ele>
        <time>2021-08-14T06:41:05.000Z</time>
      </trkpt>
      <trkpt lat="49.7531" lon="4.81984">
        <ele>192</ele>
        <time>2021-08-14T06:41:06.000Z</time>
      </trkpt>
      <trkpt lat="49.75307" lon="4.81982">
        <ele>193</ele>
        <time>2021-08-14T06:41:07.000Z</time>
      </trkpt>
      <trkpt lat="49.75303" lon="4.8198">
        <ele>193</ele>
        <time>2021-08-14T06:41:08.000Z</time>
      </trkpt>
      <trkpt lat="49.753" lon="4.81978">
        <ele>193</ele>
        <time>2021-08-14T06:41:09.000Z</time>
      </trkpt>
      <trkpt lat="49.75297" lon="4.81975">
        <ele>193</ele>
        <time>2021-08-14T06:41:10.000Z</time>
      </trkpt>
      <trkpt lat="49.75294" lon="4.81973">
        <ele>193</ele>
        <time>2021-08-14T06:41:11.000Z</time>
      </trkpt>
      <trkpt lat="49.75291" lon="4.8197">
        <ele>194</ele>
        <time>2021-08-14T06:41:12.000Z</time>
      </trkpt>
      <trkpt lat="49.75287" lon="4.81968">
        <ele>194</ele>
        <time>2021-08-14T06:41:13.000Z</time>
      </trkpt>
      <trkpt lat="49.75284" lon="4.81965">
        <ele>194</ele>
        <time>2021-08-14T06:41:14.000Z</time>
      </trkpt>
      <trkpt lat="49.75281" lon="4.81963">
        <ele>194</ele>
        <time>2021-08-14T06:41:15.000Z</time>
      </trkpt>
      <trkpt lat="49.75277" lon="4.8196">
        <ele>194</ele>
        <time>2021-08-14T06:41:16.000Z</time>
      </trkpt>
      <trkpt lat="49.75274" lon="4.81958">
        <ele>195</ele>
        <time>2021-08-14T06:41:17.000Z</time>
      </trkpt>
      <trkpt lat="49.75271" lon="4.81955">
        <ele>195</ele>
        <time>2021-08-14T06:41:18.000Z</time>
      </trkpt>
      <trkpt lat="49.75267" lon="4.81952">
        <ele>195</ele>
        <time>2021-08-14T06:41:19.000Z</time>
      </trkpt>
      <trkpt lat="49.75264" lon="4.81949">
        <ele>195</ele>
        <time>2021-08-14T06:41:20.000Z</time>
      </trkpt>
      <trkpt lat="49.75261" lon="4.81945">
        <ele>195</ele>
        <time>2021-08-14T06:41:21.000Z</time>
      </trkpt>
      <trkpt lat="49.75258" lon="4.81942">
        <ele>196</ele>
        <time>2021-08-14T06:41:22.000Z</time>
      </trkpt>
      <trkpt lat="49.75256" lon="4.81938">
        <ele>196</ele>
        <time>2021-08-14T06:41:23.000Z</time>
      </trkpt>
      <trkpt lat="49.75253" lon="4.81934">
        <ele>196</ele>
        <time>2021-08-14T06:41:24.000Z</time>
      </trkpt>
      <trkpt lat="49.75251" lon="4.8193">
        <ele>196</ele>
        <time>2021-08-14T06:41:25.000Z</time>
      </trkpt>
      <trkpt lat="49.75248" lon="4.81926">
        <ele>196</ele>
        <time>2021-08-14T06:41:26.000Z</time>
      </trkpt>
      <trkpt lat="49.75246" lon="4.81922">
        <ele>196</ele>
        <time>2021-08-14T06:41:27.000Z</time>
      </trkpt>
      <trkpt lat="49.75244" lon="4.81918">
        <ele>196</ele>
        <time>2021-08-14T06:41:28.000Z</time>
      </trkpt>
      <trkpt lat="49.75241" lon="4.81914">
        <ele>196</ele>
        <time>2021-08-14T06:41:29.000Z</time>
      </trkpt>
      <trkpt lat="49.75238" lon="4.81911">
        <ele>196</ele>
        <time>2021-08-14T06:41:30.000Z</time>
      </trkpt>
      <trkpt lat="49.75235" lon="4.81908">
        <ele>197</ele>
        <time>2021-08-14T06:41:31.000Z</time>
      </trkpt>
      <trkpt lat="49.75232" lon="4.81905">
        <ele>197</ele>
        <time>2021-08-14T06:41:32.000Z</time>
      </trkpt>
      <trkpt lat="49.75229" lon="4.81902">
        <ele>197</ele>
        <time>2021-08-14T06:41:33.000Z</time>
      </trkpt>
      <trkpt lat="49.75226" lon="4.81899">
        <ele>197</ele>
        <time>2021-08-14T06:41:34.000Z</time>
      </trkpt>
      <trkpt lat="49.75223" lon="4.81896">
        <ele>197</ele>
        <time>2021-08-14T06:41:35.000Z</time>
      </trkpt>
      <trkpt lat="49.7522" lon="4.81893">
        <ele>197</ele>
        <time>2021-08-14T06:41:36.000Z</time>
      </trkpt>
      <trkpt lat="49.75217" lon="4.81889">
        <ele>197</ele>
        <time>2021-08-14T06:41:37.000Z</time>
      </trkpt>
      <trkpt lat="49.75215" lon="4.81886">
        <ele>197</ele>
        <time>2021-08-14T06:41:38.000Z</time>
      </trkpt>
      <trkpt lat="49.75212" lon="4.81882">
        <ele>197</ele>
        <time>2021-08-14T06:41:39.000Z</time>
      </trkpt>
      <trkpt lat="49.75209" lon="4.81879">
        <ele>197</ele>
        <time>2021-08-14T06:41:40.000Z</time>
      </trkpt>
      <trkpt lat="49.75206" lon="4.81875">
        <ele>198</ele>
        <time>2021-08-14T06:41:41.000Z</time>
      </trkpt>
      <trkpt lat="49.75203" lon="4.81871">
        <ele>198</ele>
        <time>2021-08-14T06:41:42.000Z</time>
      </trkpt>
      <trkpt lat="49.752" lon="4.81867">
        <ele>198</ele>
        <time>2021-08-14T06:41:43.000Z</time>
      </trkpt>
      <trkpt lat="49.75197" lon="4.81863">
        <ele>198</ele>
        <time>2021-08-14T06:41:44.000Z</time>
      </trkpt>
      <trkpt lat="49.75195" lon="4.81859">
        <ele>198</ele>
        <time>2021-08-14T06:41:45.000Z</time>
      </trkpt>
      <trkpt lat="49.75192" lon="4.81855">
        <ele>198</ele>
        <time>2021-08-14T06:41:46.000Z</time>
      </trkpt>
      <trkpt lat="49.75189" lon="4.8185">
        <ele>198</ele>
        <time>2021-08-14T06:41:47.000Z</time>
      </trkpt>
      <trkpt lat="49.75187" lon="4.81846">
        <ele>198</ele>
        <time>2021-08-14T06:41:48.000Z</time>
      </trkpt>
      <trkpt lat="49.75184" lon="4.81841">
        <ele>198</ele>
        <time>2021-08-14T06:41:49.000Z</time>
      </trkpt>
      <trkpt lat="49.75182" lon="4.81837">
        <ele>198</ele>
        <time>2021-08-14T06:41:50.000Z</time>
      </trkpt>
      <trkpt lat="49.75179" lon="4.81832">
        <ele>198</ele>
        <time>2021-08-14T06:41:51.000Z</time>
      </trkpt>
      <trkpt lat="49.75176" lon="4.81828">
        <ele>198</ele>
        <time>2021-08-14T06:41:52.000Z</time>
      </trkpt>
      <trkpt lat="49.75174" lon="4.81823">
        <ele>198</ele>
        <time>2021-08-14T06:41:53.000Z</time>
      </trkpt>
      <trkpt lat="49.75172" lon="4.81818">
        <ele>198</ele>
        <time>2021-08-14T06:41:54.000Z</time>
      </trkpt>
      <trkpt lat="49.75169" lon="4.81814">
        <ele>198</ele>
        <time>2021-08-14T06:41:55.000Z</time>
      </trkpt>
      <trkpt lat="49.75167" lon="4.8181">
        <ele>198</ele>
        <time>2021-08-14T06:41:56.000Z</time>
      </trkpt>
      <trkpt lat="49.75164" lon="4.81806">
        <ele>198</ele>
        <time>2021-08-14T06:41:57.000Z</time>
      </trkpt>
      <trkpt lat="49.75161" lon="4.81802">
        <ele>198</ele>
        <time>2021-08-14T06:41:58.000Z</time>
      </trkpt>
      <trkpt lat="49.75159" lon="4.81798">
        <ele>198</ele>
        <time>2021-08-14T06:41:59.000Z</time>
      </trkpt>
      <trkpt lat="49.75156" lon="4.81793">
        <ele>198</ele>
        <time>2021-08-14T06:42:00.000Z</time>
      </trkpt>
      <trkpt lat="49.75154" lon="4.81789">
        <ele>198</ele>
        <time>2021-08-14T06:42:01.000Z</time>
      </trkpt>
      <trkpt lat="49.75151" lon="4.81785">
        <ele>198</ele>
        <time>2021-08-14T06:42:02.000Z</time>
      </trkpt>
      <trkpt lat="49.75149" lon="4.8178">
        <ele>198</ele>
        <time>2021-08-14T06:42:03.000Z</time>
      </trkpt>
      <trkpt lat="49.75146" lon="4.81775">
        <ele>198</ele>
        <time>2021-08-14T06:42:04.000Z</time>
      </trkpt>
      <trkpt lat="49.75144" lon="4.81771">
        <ele>198</ele>
        <time>2021-08-14T06:42:05.000Z</time>
      </trkpt>
      <trkpt lat="49.75141" lon="4.81766">
        <ele>198</ele>
        <time>2021-08-14T06:42:06.000Z</time>
      </trkpt>
      <trkpt lat="49.75138" lon="4.81761">
        <ele>198</ele>
        <time>2021-08-14T06:42:07.000Z</time>
      </trkpt>
      <trkpt lat="49.75136" lon="4.81755">
        <ele>198</ele>
        <time>2021-08-14T06:42:08.000Z</time>
      </trkpt>
      <trkpt lat="49.75134" lon="4.81748">
        <ele>198</ele>
        <time>2021-08-14T06:42:09.000Z</time>
      </trkpt>
      <trkpt lat="49.75133" lon="4.81741">
        <ele>198</ele>
        <time>2021-08-14T06:42:10.000Z</time>
      </trkpt>
      <trkpt lat="49.75131" lon="4.81736">
        <ele>198</ele>
        <time>2021-08-14T06:42:11.000Z</time>
      </trkpt>
      <trkpt lat="49.75129" lon="4.8173">
        <ele>198</ele>
        <time>2021-08-14T06:42:12.000Z</time>
      </trkpt>
      <trkpt lat="49.75127" lon="4.81724">
        <ele>199</ele>
        <time>2021-08-14T06:42:13.000Z</time>
      </trkpt>
      <trkpt lat="49.75125" lon="4.81718">
        <ele>199</ele>
        <time>2021-08-14T06:42:14.000Z</time>
      </trkpt>
      <trkpt lat="49.75123" lon="4.81712">
        <ele>199</ele>
        <time>2021-08-14T06:42:15.000Z</time>
      </trkpt>
      <trkpt lat="49.75121" lon="4.81706">
        <ele>199</ele>
        <time>2021-08-14T06:42:16.000Z</time>
      </trkpt>
      <trkpt lat="49.75119" lon="4.817">
        <ele>199</ele>
        <time>2021-08-14T06:42:17.000Z</time>
      </trkpt>
      <trkpt lat="49.75117" lon="4.81694">
        <ele>200</ele>
        <time>2021-08-14T06:42:18.000Z</time>
      </trkpt>
      <trkpt lat="49.75116" lon="4.81687">
        <ele>200</ele>
        <time>2021-08-14T06:42:19.000Z</time>
      </trkpt>
      <trkpt lat="49.75115" lon="4.81681">
        <ele>200</ele>
        <time>2021-08-14T06:42:20.000Z</time>
      </trkpt>
      <trkpt lat="49.75114" lon="4.81674">
        <ele>200</ele>
        <time>2021-08-14T06:42:21.000Z</time>
      </trkpt>
      <trkpt lat="49.75114" lon="4.81667">
        <ele>200</ele>
        <time>2021-08-14T06:42:22.000Z</time>
      </trkpt>
      <trkpt lat="49.75113" lon="4.8166">
        <ele>200</ele>
        <time>2021-08-14T06:42:23.000Z</time>
      </trkpt>
      <trkpt lat="49.75113" lon="4.81652">
        <ele>200</ele>
        <time>2021-08-14T06:42:24.000Z</time>
      </trkpt>
      <trkpt lat="49.75113" lon="4.81645">
        <ele>201</ele>
        <time>2021-08-14T06:42:25.000Z</time>
      </trkpt>
      <trkpt lat="49.75112" lon="4.81638">
        <ele>201</ele>
        <time>2021-08-14T06:42:26.000Z</time>
      </trkpt>
      <trkpt lat="49.75112" lon="4.81631">
        <ele>201</ele>
        <time>2021-08-14T06:42:27.000Z</time>
      </trkpt>
      <trkpt lat="49.75112" lon="4.81623">
        <ele>201</ele>
        <time>2021-08-14T06:42:28.000Z</time>
      </trkpt>
      <trkpt lat="49.75112" lon="4.81616">
        <ele>201</ele>
        <time>2021-08-14T06:42:29.000Z</time>
      </trkpt>
      <trkpt lat="49.75112" lon="4.81608">
        <ele>201</ele>
        <time>2021-08-14T06:42:30.000Z</time>
      </trkpt>
      <trkpt lat="49.75112" lon="4.816">
        <ele>201</ele>
        <time>2021-08-14T06:42:31.000Z</time>
      </trkpt>
      <trkpt lat="49.75112" lon="4.81592">
        <ele>201</ele>
        <time>2021-08-14T06:42:32.000Z</time>
      </trkpt>
      <trkpt lat="49.75112" lon="4.81585">
        <ele>201</ele>
        <time>2021-08-14T06:42:33.000Z</time>
      </trkpt>
      <trkpt lat="49.75112" lon="4.81577">
        <ele>201</ele>
        <time>2021-08-14T06:42:34.000Z</time>
      </trkpt>
      <trkpt lat="49.75113" lon="4.8157">
        <ele>202</ele>
        <time>2021-08-14T06:42:35.000Z</time>
      </trkpt>
      <trkpt lat="49.75113" lon="4.81562">
        <ele>202</ele>
        <time>2021-08-14T06:42:36.000Z</time>
      </trkpt>
      <trkpt lat="49.75114" lon="4.81555">
        <ele>202</ele>
        <time>2021-08-14T06:42:37.000Z</time>
      </trkpt>
      <trkpt lat="49.75115" lon="4.81547">
        <ele>201</ele>
        <time>2021-08-14T06:42:38.000Z</time>
      </trkpt>
      <trkpt lat="49.75117" lon="4.8154">
        <ele>201</ele>
        <time>2021-08-14T06:42:39.000Z</time>
      </trkpt>
      <trkpt lat="49.75118" lon="4.81533">
        <ele>202</ele>
        <time>2021-08-14T06:42:40.000Z</time>
      </trkpt>
      <trkpt lat="49.75119" lon="4.81526">
        <ele>202</ele>
        <time>2021-08-14T06:42:41.000Z</time>
      </trkpt>
      <trkpt lat="49.75121" lon="4.81519">
        <ele>202</ele>
        <time>2021-08-14T06:42:42.000Z</time>
      </trkpt>
      <trkpt lat="49.75122" lon="4.81512">
        <ele>202</ele>
        <time>2021-08-14T06:42:43.000Z</time>
      </trkpt>
      <trkpt lat="49.75124" lon="4.81505">
        <ele>202</ele>
        <time>2021-08-14T06:42:44.000Z</time>
      </trkpt>
      <trkpt lat="49.75125" lon="4.81498">
        <ele>202</ele>
        <time>2021-08-14T06:42:45.000Z</time>
      </trkpt>
      <trkpt lat="49.75127" lon="4.81492">
        <ele>202</ele>
        <time>2021-08-14T06:42:46.000Z</time>
      </trkpt>
      <trkpt lat="49.75129" lon="4.81485">
        <ele>202</ele>
        <time>2021-08-14T06:42:47.000Z</time>
      </trkpt>
      <trkpt lat="49.75131" lon="4.81478">
        <ele>202</ele>
        <time>2021-08-14T06:42:48.000Z</time>
      </trkpt>
      <trkpt lat="49.75132" lon="4.81472">
        <ele>202</ele>
        <time>2021-08-14T06:42:49.000Z</time>
      </trkpt>
      <trkpt lat="49.75134" lon="4.81466">
        <ele>202</ele>
        <time>2021-08-14T06:42:50.000Z</time>
      </trkpt>
      <trkpt lat="49.75135" lon="4.8146">
        <ele>202</ele>
        <time>2021-08-14T06:42:51.000Z</time>
      </trkpt>
      <trkpt lat="49.75137" lon="4.81454">
        <ele>202</ele>
        <time>2021-08-14T06:42:52.000Z</time>
      </trkpt>
      <trkpt lat="49.75138" lon="4.81448">
        <ele>202</ele>
        <time>2021-08-14T06:42:53.000Z</time>
      </trkpt>
      <trkpt lat="49.75139" lon="4.81442">
        <ele>202</ele>
        <time>2021-08-14T06:42:54.000Z</time>
      </trkpt>
      <trkpt lat="49.7514" lon="4.81437">
        <ele>202</ele>
        <time>2021-08-14T06:42:55.000Z</time>
      </trkpt>
      <trkpt lat="49.75141" lon="4.81432">
        <ele>202</ele>
        <time>2021-08-14T06:42:56.000Z</time>
      </trkpt>
      <trkpt lat="49.75141" lon="4.81427">
        <ele>202</ele>
        <time>2021-08-14T06:42:57.000Z</time>
      </trkpt>
      <trkpt lat="49.75142" lon="4.81422">
        <ele>202</ele>
        <time>2021-08-14T06:42:58.000Z</time>
      </trkpt>
      <trkpt lat="49.75143" lon="4.81418">
        <ele>202</ele>
        <time>2021-08-14T06:42:59.000Z</time>
      </trkpt>
      <trkpt lat="49.75144" lon="4.81413">
        <ele>202</ele>
        <time>2021-08-14T06:43:00.000Z</time>
      </trkpt>
      <trkpt lat="49.75144" lon="4.81409">
        <ele>203</ele>
        <time>2021-08-14T06:43:01.000Z</time>
      </trkpt>
      <trkpt lat="49.75145" lon="4.81405">
        <ele>203</ele>
        <time>2021-08-14T06:43:02.000Z</time>
      </trkpt>
      <trkpt lat="49.75145" lon="4.81401">
        <ele>203</ele>
        <time>2021-08-14T06:43:03.000Z</time>
      </trkpt>
      <trkpt lat="49.75146" lon="4.81397">
        <ele>203</ele>
        <time>2021-08-14T06:43:04.000Z</time>
      </trkpt>
      <trkpt lat="49.75146" lon="4.81392">
        <ele>203</ele>
        <time>2021-08-14T06:43:05.000Z</time>
      </trkpt>
      <trkpt lat="49.75146" lon="4.81388">
        <ele>203</ele>
        <time>2021-08-14T06:43:06.000Z</time>
      </trkpt>
      <trkpt lat="49.75147" lon="4.81383">
        <ele>204</ele>
        <time>2021-08-14T06:43:07.000Z</time>
      </trkpt>
      <trkpt lat="49.75147" lon="4.81379">
        <ele>204</ele>
        <time>2021-08-14T06:43:08.000Z</time>
      </trkpt>
      <trkpt lat="49.75147" lon="4.81375">
        <ele>204</ele>
        <time>2021-08-14T06:43:09.000Z</time>
      </trkpt>
      <trkpt lat="49.75147" lon="4.81371">
        <ele>204</ele>
        <time>2021-08-14T06:43:10.000Z</time>
      </trkpt>
      <trkpt lat="49.75147" lon="4.81367">
        <ele>204</ele>
        <time>2021-08-14T06:43:11.000Z</time>
      </trkpt>
      <trkpt lat="49.75147" lon="4.81363">
        <ele>205</ele>
        <time>2021-08-14T06:43:12.000Z</time>
      </trkpt>
      <trkpt lat="49.75147" lon="4.81359">
        <ele>205</ele>
        <time>2021-08-14T06:43:13.000Z</time>
      </trkpt>
      <trkpt lat="49.75148" lon="4.81355">
        <ele>205</ele>
        <time>2021-08-14T06:43:14.000Z</time>
      </trkpt>
      <trkpt lat="49.75148" lon="4.81351">
        <ele>205</ele>
        <time>2021-08-14T06:43:15.000Z</time>
      </trkpt>
      <trkpt lat="49.75147" lon="4.81348">
        <ele>205</ele>
        <time>2021-08-14T06:43:16.000Z</time>
      </trkpt>
      <trkpt lat="49.75148" lon="4.81344">
        <ele>206</ele>
        <time>2021-08-14T06:43:17.000Z</time>
      </trkpt>
      <trkpt lat="49.75148" lon="4.8134">
        <ele>206</ele>
        <time>2021-08-14T06:43:18.000Z</time>
      </trkpt>
      <trkpt lat="49.75147" lon="4.81336">
        <ele>206</ele>
        <time>2021-08-14T06:43:19.000Z</time>
      </trkpt>
      <trkpt lat="49.75147" lon="4.81332">
        <ele>206</ele>
        <time>2021-08-14T06:43:20.000Z</time>
      </trkpt>
      <trkpt lat="49.75147" lon="4.81328">
        <ele>206</ele>
        <time>2021-08-14T06:43:21.000Z</time>
      </trkpt>
      <trkpt lat="49.75147" lon="4.81323">
        <ele>207</ele>
        <time>2021-08-14T06:43:22.000Z</time>
      </trkpt>
      <trkpt lat="49.75146" lon="4.81319">
        <ele>207</ele>
        <time>2021-08-14T06:43:23.000Z</time>
      </trkpt>
      <trkpt lat="49.75146" lon="4.81315">
        <ele>207</ele>
        <time>2021-08-14T06:43:24.000Z</time>
      </trkpt>
      <trkpt lat="49.75145" lon="4.81311">
        <ele>208</ele>
        <time>2021-08-14T06:43:25.000Z</time>
      </trkpt>
      <trkpt lat="49.75145" lon="4.81307">
        <ele>208</ele>
        <time>2021-08-14T06:43:26.000Z</time>
      </trkpt>
      <trkpt lat="49.75144" lon="4.81303">
        <ele>208</ele>
        <time>2021-08-14T06:43:27.000Z</time>
      </trkpt>
      <trkpt lat="49.75144" lon="4.81299">
        <ele>208</ele>
        <time>2021-08-14T06:43:28.000Z</time>
      </trkpt>
      <trkpt lat="49.75144" lon="4.81296">
        <ele>209</ele>
        <time>2021-08-14T06:43:29.000Z</time>
      </trkpt>
      <trkpt lat="49.75143" lon="4.81292">
        <ele>209</ele>
        <time>2021-08-14T06:43:30.000Z</time>
      </trkpt>
      <trkpt lat="49.75142" lon="4.81289">
        <ele>209</ele>
        <time>2021-08-14T06:43:31.000Z</time>
      </trkpt>
      <trkpt lat="49.75141" lon="4.81285">
        <ele>210</ele>
        <time>2021-08-14T06:43:32.000Z</time>
      </trkpt>
      <trkpt lat="49.75141" lon="4.81281">
        <ele>210</ele>
        <time>2021-08-14T06:43:33.000Z</time>
      </trkpt>
      <trkpt lat="49.7514" lon="4.81277">
        <ele>210</ele>
        <time>2021-08-14T06:43:34.000Z</time>
      </trkpt>
      <trkpt lat="49.75139" lon="4.81273">
        <ele>210</ele>
        <time>2021-08-14T06:43:35.000Z</time>
      </trkpt>
      <trkpt lat="49.75138" lon="4.81269">
        <ele>211</ele>
        <time>2021-08-14T06:43:36.000Z</time>
      </trkpt>
      <trkpt lat="49.75138" lon="4.81265">
        <ele>211</ele>
        <time>2021-08-14T06:43:37.000Z</time>
      </trkpt>
      <trkpt lat="49.75137" lon="4.81261">
        <ele>211</ele>
        <time>2021-08-14T06:43:38.000Z</time>
      </trkpt>
      <trkpt lat="49.75136" lon="4.81258">
        <ele>211</ele>
        <time>2021-08-14T06:43:39.000Z</time>
      </trkpt>
      <trkpt lat="49.75135" lon="4.81254">
        <ele>212</ele>
        <time>2021-08-14T06:43:40.000Z</time>
      </trkpt>
      <trkpt lat="49.75134" lon="4.81251">
        <ele>212</ele>
        <time>2021-08-14T06:43:41.000Z</time>
      </trkpt>
      <trkpt lat="49.75132" lon="4.81247">
        <ele>212</ele>
        <time>2021-08-14T06:43:42.000Z</time>
      </trkpt>
      <trkpt lat="49.75131" lon="4.81243">
        <ele>212</ele>
        <time>2021-08-14T06:43:43.000Z</time>
      </trkpt>
      <trkpt lat="49.7513" lon="4.8124">
        <ele>212</ele>
        <time>2021-08-14T06:43:44.000Z</time>
      </trkpt>
      <trkpt lat="49.75129" lon="4.81236">
        <ele>213</ele>
        <time>2021-08-14T06:43:45.000Z</time>
      </trkpt>
      <trkpt lat="49.75129" lon="4.81233">
        <ele>213</ele>
        <time>2021-08-14T06:43:46.000Z</time>
      </trkpt>
      <trkpt lat="49.75128" lon="4.8123">
        <ele>213</ele>
        <time>2021-08-14T06:43:47.000Z</time>
      </trkpt>
      <trkpt lat="49.75128" lon="4.81226">
        <ele>213</ele>
        <time>2021-08-14T06:43:48.000Z</time>
      </trkpt>
      <trkpt lat="49.75127" lon="4.81223">
        <ele>213</ele>
        <time>2021-08-14T06:43:49.000Z</time>
      </trkpt>
      <trkpt lat="49.75126" lon="4.81219">
        <ele>213</ele>
        <time>2021-08-14T06:43:50.000Z</time>
      </trkpt>
      <trkpt lat="49.75125" lon="4.81216">
        <ele>213</ele>
        <time>2021-08-14T06:43:51.000Z</time>
      </trkpt>
      <trkpt lat="49.75125" lon="4.81212">
        <ele>213</ele>
        <time>2021-08-14T06:43:52.000Z</time>
      </trkpt>
      <trkpt lat="49.75124" lon="4.81208">
        <ele>213</ele>
        <time>2021-08-14T06:43:53.000Z</time>
      </trkpt>
      <trkpt lat="49.75123" lon="4.81204">
        <ele>213</ele>
        <time>2021-08-14T06:43:54.000Z</time>
      </trkpt>
      <trkpt lat="49.75123" lon="4.812">
        <ele>214</ele>
        <time>2021-08-14T06:43:55.000Z</time>
      </trkpt>
      <trkpt lat="49.75122" lon="4.81196">
        <ele>214</ele>
        <time>2021-08-14T06:43:56.000Z</time>
      </trkpt>
      <trkpt lat="49.75122" lon="4.81193">
        <ele>214</ele>
        <time>2021-08-14T06:43:57.000Z</time>
      </trkpt>
      <trkpt lat="49.75121" lon="4.81189">
        <ele>214</ele>
        <time>2021-08-14T06:43:58.000Z</time>
      </trkpt>
      <trkpt lat="49.75121" lon="4.81185">
        <ele>214</ele>
        <time>2021-08-14T06:43:59.000Z</time>
      </trkpt>
      <trkpt lat="49.7512" lon="4.81181">
        <ele>214</ele>
        <time>2021-08-14T06:44:00.000Z</time>
      </trkpt>
      <trkpt lat="49.7512" lon="4.81178">
        <ele>214</ele>
        <time>2021-08-14T06:44:01.000Z</time>
      </trkpt>
      <trkpt lat="49.75119" lon="4.81175">
        <ele>214</ele>
        <time>2021-08-14T06:44:02.000Z</time>
      </trkpt>
      <trkpt lat="49.75118" lon="4.81171">
        <ele>214</ele>
        <time>2021-08-14T06:44:03.000Z</time>
      </trkpt>
      <trkpt lat="49.75117" lon="4.81168">
        <ele>214</ele>
        <time>2021-08-14T06:44:04.000Z</time>
      </trkpt>
      <trkpt lat="49.75117" lon="4.81165">
        <ele>214</ele>
        <time>2021-08-14T06:44:05.000Z</time>
      </trkpt>
      <trkpt lat="49.75116" lon="4.81161">
        <ele>214</ele>
        <time>2021-08-14T06:44:06.000Z</time>
      </trkpt>
      <trkpt lat="49.75115" lon="4.81157">
        <ele>214</ele>
        <time>2021-08-14T06:44:07.000Z</time>
      </trkpt>
      <trkpt lat="49.75115" lon="4.81153">
        <ele>214</ele>
        <time>2021-08-14T06:44:08.000Z</time>
      </trkpt>
      <trkpt lat="49.75114" lon="4.81149">
        <ele>214</ele>
        <time>2021-08-14T06:44:09.000Z</time>
      </trkpt>
      <trkpt lat="49.75113" lon="4.81146">
        <ele>215</ele>
        <time>2021-08-14T06:44:10.000Z</time>
      </trkpt>
      <trkpt lat="49.75113" lon="4.81142">
        <ele>215</ele>
        <time>2021-08-14T06:44:11.000Z</time>
      </trkpt>
      <trkpt lat="49.75112" lon="4.81138">
        <ele>215</ele>
        <time>2021-08-14T06:44:12.000Z</time>
      </trkpt>
      <trkpt lat="49.75111" lon="4.81135">
        <ele>215</ele>
        <time>2021-08-14T06:44:13.000Z</time>
      </trkpt>
      <trkpt lat="49.7511" lon="4.81131">
        <ele>215</ele>
        <time>2021-08-14T06:44:14.000Z</time>
      </trkpt>
      <trkpt lat="49.75109" lon="4.81127">
        <ele>215</ele>
        <time>2021-08-14T06:44:15.000Z</time>
      </trkpt>
      <trkpt lat="49.75108" lon="4.81124">
        <ele>215</ele>
        <time>2021-08-14T06:44:16.000Z</time>
      </trkpt>
      <trkpt lat="49.75107" lon="4.8112">
        <ele>215</ele>
        <time>2021-08-14T06:44:17.000Z</time>
      </trkpt>
      <trkpt lat="49.75106" lon="4.81116">
        <ele>215</ele>
        <time>2021-08-14T06:44:18.000Z</time>
      </trkpt>
      <trkpt lat="49.75104" lon="4.81111">
        <ele>215</ele>
        <time>2021-08-14T06:44:19.000Z</time>
      </trkpt>
      <trkpt lat="49.75103" lon="4.81107">
        <ele>215</ele>
        <time>2021-08-14T06:44:20.000Z</time>
      </trkpt>
      <trkpt lat="49.75102" lon="4.81102">
        <ele>215</ele>
        <time>2021-08-14T06:44:21.000Z</time>
      </trkpt>
      <trkpt lat="49.75101" lon="4.81098">
        <ele>216</ele>
        <time>2021-08-14T06:44:22.000Z</time>
      </trkpt>
      <trkpt lat="49.75099" lon="4.81094">
        <ele>216</ele>
        <time>2021-08-14T06:44:23.000Z</time>
      </trkpt>
      <trkpt lat="49.75098" lon="4.8109">
        <ele>216</ele>
        <time>2021-08-14T06:44:24.000Z</time>
      </trkpt>
      <trkpt lat="49.75097" lon="4.81086">
        <ele>216</ele>
        <time>2021-08-14T06:44:25.000Z</time>
      </trkpt>
      <trkpt lat="49.75096" lon="4.81081">
        <ele>216</ele>
        <time>2021-08-14T06:44:26.000Z</time>
      </trkpt>
      <trkpt lat="49.75095" lon="4.81076">
        <ele>216</ele>
        <time>2021-08-14T06:44:27.000Z</time>
      </trkpt>
      <trkpt lat="49.75094" lon="4.81072">
        <ele>216</ele>
        <time>2021-08-14T06:44:28.000Z</time>
      </trkpt>
      <trkpt lat="49.75092" lon="4.81067">
        <ele>216</ele>
        <time>2021-08-14T06:44:29.000Z</time>
      </trkpt>
      <trkpt lat="49.75091" lon="4.81062">
        <ele>216</ele>
        <time>2021-08-14T06:44:30.000Z</time>
      </trkpt>
      <trkpt lat="49.7509" lon="4.81057">
        <ele>216</ele>
        <time>2021-08-14T06:44:31.000Z</time>
      </trkpt>
      <trkpt lat="49.75088" lon="4.81051">
        <ele>216</ele>
        <time>2021-08-14T06:44:32.000Z</time>
      </trkpt>
      <trkpt lat="49.75087" lon="4.81046">
        <ele>216</ele>
        <time>2021-08-14T06:44:33.000Z</time>
      </trkpt>
      <trkpt lat="49.75085" lon="4.8104">
        <ele>216</ele>
        <time>2021-08-14T06:44:34.000Z</time>
      </trkpt>
      <trkpt lat="49.75084" lon="4.81033">
        <ele>216</ele>
        <time>2021-08-14T06:44:35.000Z</time>
      </trkpt>
      <trkpt lat="49.75083" lon="4.81027">
        <ele>216</ele>
        <time>2021-08-14T06:44:36.000Z</time>
      </trkpt>
      <trkpt lat="49.75082" lon="4.81021">
        <ele>216</ele>
        <time>2021-08-14T06:44:37.000Z</time>
      </trkpt>
      <trkpt lat="49.7508" lon="4.81016">
        <ele>216</ele>
        <time>2021-08-14T06:44:38.000Z</time>
      </trkpt>
      <trkpt lat="49.75079" lon="4.8101">
        <ele>216</ele>
        <time>2021-08-14T06:44:39.000Z</time>
      </trkpt>
      <trkpt lat="49.75078" lon="4.81005">
        <ele>216</ele>
        <time>2021-08-14T06:44:40.000Z</time>
      </trkpt>
      <trkpt lat="49.75077" lon="4.81">
        <ele>217</ele>
        <time>2021-08-14T06:44:41.000Z</time>
      </trkpt>
      <trkpt lat="49.75075" lon="4.80995">
        <ele>217</ele>
        <time>2021-08-14T06:44:42.000Z</time>
      </trkpt>
      <trkpt lat="49.75074" lon="4.80989">
        <ele>217</ele>
        <time>2021-08-14T06:44:43.000Z</time>
      </trkpt>
      <trkpt lat="49.75073" lon="4.80984">
        <ele>217</ele>
        <time>2021-08-14T06:44:44.000Z</time>
      </trkpt>
      <trkpt lat="49.75072" lon="4.80977">
        <ele>217</ele>
        <time>2021-08-14T06:44:45.000Z</time>
      </trkpt>
      <trkpt lat="49.7507" lon="4.80971">
        <ele>217</ele>
        <time>2021-08-14T06:44:46.000Z</time>
      </trkpt>
      <trkpt lat="49.75068" lon="4.80964">
        <ele>218</ele>
        <time>2021-08-14T06:44:47.000Z</time>
      </trkpt>
      <trkpt lat="49.75067" lon="4.80956">
        <ele>218</ele>
        <time>2021-08-14T06:44:48.000Z</time>
      </trkpt>
      <trkpt lat="49.75065" lon="4.80948">
        <ele>218</ele>
        <time>2021-08-14T06:44:49.000Z</time>
      </trkpt>
      <trkpt lat="49.75063" lon="4.8094">
        <ele>218</ele>
        <time>2021-08-14T06:44:50.000Z</time>
      </trkpt>
      <trkpt lat="49.75062" lon="4.80931">
        <ele>218</ele>
        <time>2021-08-14T06:44:51.000Z</time>
      </trkpt>
      <trkpt lat="49.75061" lon="4.80921">
        <ele>218</ele>
        <time>2021-08-14T06:44:52.000Z</time>
      </trkpt>
      <trkpt lat="49.7506" lon="4.8091">
        <ele>218</ele>
        <time>2021-08-14T06:44:53.000Z</time>
      </trkpt>
      <trkpt lat="49.75059" lon="4.809">
        <ele>218</ele>
        <time>2021-08-14T06:44:54.000Z</time>
      </trkpt>
      <trkpt lat="49.75058" lon="4.80889">
        <ele>218</ele>
        <time>2021-08-14T06:44:55.000Z</time>
      </trkpt>
      <trkpt lat="49.75057" lon="4.80878">
        <ele>218</ele>
        <time>2021-08-14T06:44:56.000Z</time>
      </trkpt>
      <trkpt lat="49.75056" lon="4.80866">
        <ele>218</ele>
        <time>2021-08-14T06:44:57.000Z</time>
      </trkpt>
      <trkpt lat="49.75056" lon="4.80855">
        <ele>218</ele>
        <time>2021-08-14T06:44:58.000Z</time>
      </trkpt>
      <trkpt lat="49.75055" lon="4.80843">
        <ele>218</ele>
        <time>2021-08-14T06:44:59.000Z</time>
      </trkpt>
      <trkpt lat="49.75055" lon="4.80831">
        <ele>217</ele>
        <time>2021-08-14T06:45:00.000Z</time>
      </trkpt>
      <trkpt lat="49.75055" lon="4.80818">
        <ele>217</ele>
        <time>2021-08-14T06:45:01.000Z</time>
      </trkpt>
      <trkpt lat="49.75056" lon="4.80804">
        <ele>217</ele>
        <time>2021-08-14T06:45:02.000Z</time>
      </trkpt>
      <trkpt lat="49.75058" lon="4.80791">
        <ele>217</ele>
        <time>2021-08-14T06:45:03.000Z</time>
      </trkpt>
      <trkpt lat="49.7506" lon="4.80778">
        <ele>217</ele>
        <time>2021-08-14T06:45:04.000Z</time>
      </trkpt>
      <trkpt lat="49.75062" lon="4.80765">
        <ele>216</ele>
        <time>2021-08-14T06:45:05.000Z</time>
      </trkpt>
      <trkpt lat="49.75065" lon="4.80753">
        <ele>216</ele>
        <time>2021-08-14T06:45:06.000Z</time>
      </trkpt>
      <trkpt lat="49.75069" lon="4.8074">
        <ele>216</ele>
        <time>2021-08-14T06:45:07.000Z</time>
      </trkpt>
      <trkpt lat="49.75074" lon="4.80729">
        <ele>215</ele>
        <time>2021-08-14T06:45:08.000Z</time>
      </trkpt>
      <trkpt lat="49.75082" lon="4.80719">
        <ele>215</ele>
        <time>2021-08-14T06:45:09.000Z</time>
      </trkpt>
      <trkpt lat="49.7509" lon="4.80712">
        <ele>215</ele>
        <time>2021-08-14T06:45:10.000Z</time>
      </trkpt>
      <trkpt lat="49.75098" lon="4.80706">
        <ele>214</ele>
        <time>2021-08-14T06:45:11.000Z</time>
      </trkpt>
      <trkpt lat="49.75106" lon="4.807">
        <ele>214</ele>
        <time>2021-08-14T06:45:12.000Z</time>
      </trkpt>
      <trkpt lat="49.75114" lon="4.80696">
        <ele>213</ele>
        <time>2021-08-14T06:45:13.000Z</time>
      </trkpt>
      <trkpt lat="49.75122" lon="4.80692">
        <ele>213</ele>
        <time>2021-08-14T06:45:14.000Z</time>
      </trkpt>
      <trkpt lat="49.7513" lon="4.8069">
        <ele>212</ele>
        <time>2021-08-14T06:45:15.000Z</time>
      </trkpt>
      <trkpt lat="49.75138" lon="4.8069">
        <ele>212</ele>
        <time>2021-08-14T06:45:16.000Z</time>
      </trkpt>
      <trkpt lat="49.75146" lon="4.8069">
        <ele>212</ele>
        <time>2021-08-14T06:45:17.000Z</time>
      </trkpt>
      <trkpt lat="49.75153" lon="4.80691">
        <ele>211</ele>
        <time>2021-08-14T06:45:18.000Z</time>
      </trkpt>
      <trkpt lat="49.75159" lon="4.80691">
        <ele>211</ele>
        <time>2021-08-14T06:45:19.000Z</time>
      </trkpt>
      <trkpt lat="49.75166" lon="4.80691">
        <ele>211</ele>
        <time>2021-08-14T06:45:20.000Z</time>
      </trkpt>
      <trkpt lat="49.75173" lon="4.80691">
        <ele>210</ele>
        <time>2021-08-14T06:45:21.000Z</time>
      </trkpt>
      <trkpt lat="49.75179" lon="4.8069">
        <ele>210</ele>
        <time>2021-08-14T06:45:22.000Z</time>
      </trkpt>
      <trkpt lat="49.75185" lon="4.8069">
        <ele>209</ele>
        <time>2021-08-14T06:45:23.000Z</time>
      </trkpt>
      <trkpt lat="49.75191" lon="4.8069">
        <ele>209</ele>
        <time>2021-08-14T06:45:24.000Z</time>
      </trkpt>
      <trkpt lat="49.75197" lon="4.8069">
        <ele>208</ele>
        <time>2021-08-14T06:45:25.000Z</time>
      </trkpt>
      <trkpt lat="49.75203" lon="4.8069">
        <ele>208</ele>
        <time>2021-08-14T06:45:26.000Z</time>
      </trkpt>
      <trkpt lat="49.75209" lon="4.8069">
        <ele>208</ele>
        <time>2021-08-14T06:45:27.000Z</time>
      </trkpt>
      <trkpt lat="49.75215" lon="4.8069">
        <ele>207</ele>
        <time>2021-08-14T06:45:28.000Z</time>
      </trkpt>
      <trkpt lat="49.75221" lon="4.8069">
        <ele>207</ele>
        <time>2021-08-14T06:45:29.000Z</time>
      </trkpt>
      <trkpt lat="49.75226" lon="4.80691">
        <ele>207</ele>
        <time>2021-08-14T06:45:30.000Z</time>
      </trkpt>
      <trkpt lat="49.75232" lon="4.80693">
        <ele>207</ele>
        <time>2021-08-14T06:45:31.000Z</time>
      </trkpt>
      <trkpt lat="49.75236" lon="4.80694">
        <ele>206</ele>
        <time>2021-08-14T06:45:32.000Z</time>
      </trkpt>
      <trkpt lat="49.75241" lon="4.80696">
        <ele>206</ele>
        <time>2021-08-14T06:45:33.000Z</time>
      </trkpt>
      <trkpt lat="49.75246" lon="4.80697">
        <ele>206</ele>
        <time>2021-08-14T06:45:34.000Z</time>
      </trkpt>
      <trkpt lat="49.7525" lon="4.80697">
        <ele>206</ele>
        <time>2021-08-14T06:45:35.000Z</time>
      </trkpt>
      <trkpt lat="49.75254" lon="4.80697">
        <ele>206</ele>
        <time>2021-08-14T06:45:36.000Z</time>
      </trkpt>
      <trkpt lat="49.75258" lon="4.80695">
        <ele>206</ele>
        <time>2021-08-14T06:45:37.000Z</time>
      </trkpt>
      <trkpt lat="49.75262" lon="4.80694">
        <ele>206</ele>
        <time>2021-08-14T06:45:38.000Z</time>
      </trkpt>
      <trkpt lat="49.75265" lon="4.80692">
        <ele>206</ele>
        <time>2021-08-14T06:45:39.000Z</time>
      </trkpt>
      <trkpt lat="49.75268" lon="4.8069">
        <ele>206</ele>
        <time>2021-08-14T06:45:40.000Z</time>
      </trkpt>
      <trkpt lat="49.7527" lon="4.80688">
        <ele>206</ele>
        <time>2021-08-14T06:45:41.000Z</time>
      </trkpt>
      <trkpt lat="49.75273" lon="4.80686">
        <ele>206</ele>
        <time>2021-08-14T06:45:42.000Z</time>
      </trkpt>
      <trkpt lat="49.75277" lon="4.80684">
        <ele>206</ele>
        <time>2021-08-14T06:45:43.000Z</time>
      </trkpt>
      <trkpt lat="49.7528" lon="4.80682">
        <ele>206</ele>
        <time>2021-08-14T06:45:44.000Z</time>
      </trkpt>
      <trkpt lat="49.75283" lon="4.80681">
        <ele>206</ele>
        <time>2021-08-14T06:45:45.000Z</time>
      </trkpt>
      <trkpt lat="49.75286" lon="4.8068">
        <ele>206</ele>
        <time>2021-08-14T06:45:46.000Z</time>
      </trkpt>
      <trkpt lat="49.75288" lon="4.80678">
        <ele>206</ele>
        <time>2021-08-14T06:45:47.000Z</time>
      </trkpt>
      <trkpt lat="49.7529" lon="4.80676">
        <ele>206</ele>
        <time>2021-08-14T06:45:48.000Z</time>
      </trkpt>
      <trkpt lat="49.75292" lon="4.80675">
        <ele>206</ele>
        <time>2021-08-14T06:45:49.000Z</time>
      </trkpt>
      <trkpt lat="49.75295" lon="4.80674">
        <ele>206</ele>
        <time>2021-08-14T06:45:50.000Z</time>
      </trkpt>
      <trkpt lat="49.75298" lon="4.80673">
        <ele>207</ele>
        <time>2021-08-14T06:45:51.000Z</time>
      </trkpt>
      <trkpt lat="49.753" lon="4.80671">
        <ele>207</ele>
        <time>2021-08-14T06:45:52.000Z</time>
      </trkpt>
      <trkpt lat="49.75302" lon="4.80671">
        <ele>207</ele>
        <time>2021-08-14T06:45:53.000Z</time>
      </trkpt>
      <trkpt lat="49.75305" lon="4.8067">
        <ele>207</ele>
        <time>2021-08-14T06:45:54.000Z</time>
      </trkpt>
      <trkpt lat="49.75308" lon="4.8067">
        <ele>207</ele>
        <time>2021-08-14T06:45:55.000Z</time>
      </trkpt>
      <trkpt lat="49.75311" lon="4.8067">
        <ele>207</ele>
        <time>2021-08-14T06:45:56.000Z</time>
      </trkpt>
      <trkpt lat="49.75314" lon="4.80669">
        <ele>207</ele>
        <time>2021-08-14T06:45:57.000Z</time>
      </trkpt>
      <trkpt lat="49.75317" lon="4.80669">
        <ele>207</ele>
        <time>2021-08-14T06:45:58.000Z</time>
      </trkpt>
      <trkpt lat="49.7532" lon="4.80669">
        <ele>207</ele>
        <time>2021-08-14T06:45:59.000Z</time>
      </trkpt>
      <trkpt lat="49.75323" lon="4.80669">
        <ele>208</ele>
        <time>2021-08-14T06:46:00.000Z</time>
      </trkpt>
      <trkpt lat="49.75326" lon="4.8067">
        <ele>208</ele>
        <time>2021-08-14T06:46:01.000Z</time>
      </trkpt>
      <trkpt lat="49.75329" lon="4.8067">
        <ele>208</ele>
        <time>2021-08-14T06:46:02.000Z</time>
      </trkpt>
      <trkpt lat="49.75333" lon="4.80672">
        <ele>208</ele>
        <time>2021-08-14T06:46:03.000Z</time>
      </trkpt>
      <trkpt lat="49.75336" lon="4.80672">
        <ele>208</ele>
        <time>2021-08-14T06:46:04.000Z</time>
      </trkpt>
      <trkpt lat="49.7534" lon="4.80672">
        <ele>209</ele>
        <time>2021-08-14T06:46:05.000Z</time>
      </trkpt>
      <trkpt lat="49.75343" lon="4.80673">
        <ele>209</ele>
        <time>2021-08-14T06:46:06.000Z</time>
      </trkpt>
      <trkpt lat="49.75346" lon="4.80673">
        <ele>209</ele>
        <time>2021-08-14T06:46:07.000Z</time>
      </trkpt>
      <trkpt lat="49.75349" lon="4.80674">
        <ele>209</ele>
        <time>2021-08-14T06:46:08.000Z</time>
      </trkpt>
      <trkpt lat="49.75352" lon="4.80675">
        <ele>210</ele>
        <time>2021-08-14T06:46:09.000Z</time>
      </trkpt>
      <trkpt lat="49.75355" lon="4.80676">
        <ele>210</ele>
        <time>2021-08-14T06:46:10.000Z</time>
      </trkpt>
      <trkpt lat="49.75359" lon="4.80677">
        <ele>210</ele>
        <time>2021-08-14T06:46:11.000Z</time>
      </trkpt>
      <trkpt lat="49.75362" lon="4.80678">
        <ele>211</ele>
        <time>2021-08-14T06:46:12.000Z</time>
      </trkpt>
      <trkpt lat="49.75364" lon="4.80678">
        <ele>211</ele>
        <time>2021-08-14T06:46:13.000Z</time>
      </trkpt>
      <trkpt lat="49.75367" lon="4.80678">
        <ele>211</ele>
        <time>2021-08-14T06:46:14.000Z</time>
      </trkpt>
      <trkpt lat="49.75369" lon="4.80679">
        <ele>211</ele>
        <time>2021-08-14T06:46:15.000Z</time>
      </trkpt>
      <trkpt lat="49.75371" lon="4.80679">
        <ele>212</ele>
        <time>2021-08-14T06:46:16.000Z</time>
      </trkpt>
      <trkpt lat="49.75373" lon="4.8068">
        <ele>212</ele>
        <time>2021-08-14T06:46:17.000Z</time>
      </trkpt>
      <trkpt lat="49.75375" lon="4.80681">
        <ele>212</ele>
        <time>2021-08-14T06:46:18.000Z</time>
      </trkpt>
      <trkpt lat="49.75376" lon="4.80682">
        <ele>213</ele>
        <time>2021-08-14T06:46:19.000Z</time>
      </trkpt>
      <trkpt lat="49.75378" lon="4.80684">
        <ele>213</ele>
        <time>2021-08-14T06:46:20.000Z</time>
      </trkpt>
      <trkpt lat="49.7538" lon="4.80685">
        <ele>213</ele>
        <time>2021-08-14T06:46:21.000Z</time>
      </trkpt>
      <trkpt lat="49.75383" lon="4.80686">
        <ele>213</ele>
        <time>2021-08-14T06:46:22.000Z</time>
      </trkpt>
      <trkpt lat="49.75385" lon="4.80687">
        <ele>214</ele>
        <time>2021-08-14T06:46:23.000Z</time>
      </trkpt>
      <trkpt lat="49.75386" lon="4.80687">
        <ele>214</ele>
        <time>2021-08-14T06:46:24.000Z</time>
      </trkpt>
      <trkpt lat="49.75388" lon="4.80688">
        <ele>214</ele>
        <time>2021-08-14T06:46:25.000Z</time>
      </trkpt>
      <trkpt lat="49.75389" lon="4.80689">
        <ele>214</ele>
        <time>2021-08-14T06:46:26.000Z</time>
      </trkpt>
      <trkpt lat="49.7539" lon="4.8069">
        <ele>214</ele>
        <time>2021-08-14T06:46:27.000Z</time>
      </trkpt>
      <trkpt lat="49.75392" lon="4.80691">
        <ele>215</ele>
        <time>2021-08-14T06:46:28.000Z</time>
      </trkpt>
      <trkpt lat="49.75394" lon="4.80692">
        <ele>215</ele>
        <time>2021-08-14T06:46:29.000Z</time>
      </trkpt>
      <trkpt lat="49.75396" lon="4.80693">
        <ele>215</ele>
        <time>2021-08-14T06:46:30.000Z</time>
      </trkpt>
      <trkpt lat="49.75399" lon="4.80695">
        <ele>215</ele>
        <time>2021-08-14T06:46:31.000Z</time>
      </trkpt>
      <trkpt lat="49.75402" lon="4.80695">
        <ele>215</ele>
        <time>2021-08-14T06:46:32.000Z</time>
      </trkpt>
      <trkpt lat="49.75404" lon="4.80696">
        <ele>216</ele>
        <time>2021-08-14T06:46:33.000Z</time>
      </trkpt>
      <trkpt lat="49.75407" lon="4.80697">
        <ele>216</ele>
        <time>2021-08-14T06:46:34.000Z</time>
      </trkpt>
      <trkpt lat="49.7541" lon="4.80697">
        <ele>216</ele>
        <time>2021-08-14T06:46:35.000Z</time>
      </trkpt>
      <trkpt lat="49.75412" lon="4.80698">
        <ele>216</ele>
        <time>2021-08-14T06:46:36.000Z</time>
      </trkpt>
      <trkpt lat="49.75415" lon="4.80699">
        <ele>216</ele>
        <time>2021-08-14T06:46:37.000Z</time>
      </trkpt>
      <trkpt lat="49.75418" lon="4.807">
        <ele>216</ele>
        <time>2021-08-14T06:46:38.000Z</time>
      </trkpt>
      <trkpt lat="49.75421" lon="4.807">
        <ele>216</ele>
        <time>2021-08-14T06:46:39.000Z</time>
      </trkpt>
      <trkpt lat="49.75424" lon="4.80701">
        <ele>217</ele>
        <time>2021-08-14T06:46:40.000Z</time>
      </trkpt>
      <trkpt lat="49.75426" lon="4.80702">
        <ele>217</ele>
        <time>2021-08-14T06:46:41.000Z</time>
      </trkpt>
      <trkpt lat="49.75429" lon="4.80704">
        <ele>217</ele>
        <time>2021-08-14T06:46:42.000Z</time>
      </trkpt>
      <trkpt lat="49.75432" lon="4.80705">
        <ele>217</ele>
        <time>2021-08-14T06:46:43.000Z</time>
      </trkpt>
      <trkpt lat="49.75435" lon="4.80707">
        <ele>217</ele>
        <time>2021-08-14T06:46:44.000Z</time>
      </trkpt>
      <trkpt lat="49.75438" lon="4.80709">
        <ele>217</ele>
        <time>2021-08-14T06:46:45.000Z</time>
      </trkpt>
      <trkpt lat="49.7544" lon="4.80711">
        <ele>217</ele>
        <time>2021-08-14T06:46:46.000Z</time>
      </trkpt>
      <trkpt lat="49.75443" lon="4.80714">
        <ele>217</ele>
        <time>2021-08-14T06:46:47.000Z</time>
      </trkpt>
      <trkpt lat="49.75445" lon="4.80716">
        <ele>218</ele>
        <time>2021-08-14T06:46:48.000Z</time>
      </trkpt>
      <trkpt lat="49.75447" lon="4.80717">
        <ele>218</ele>
        <time>2021-08-14T06:46:49.000Z</time>
      </trkpt>
      <trkpt lat="49.7545" lon="4.80719">
        <ele>218</ele>
        <time>2021-08-14T06:46:50.000Z</time>
      </trkpt>
      <trkpt lat="49.75453" lon="4.80721">
        <ele>218</ele>
        <time>2021-08-14T06:46:51.000Z</time>
      </trkpt>
      <trkpt lat="49.75456" lon="4.80723">
        <ele>218</ele>
        <time>2021-08-14T06:46:52.000Z</time>
      </trkpt>
      <trkpt lat="49.75459" lon="4.80726">
        <ele>218</ele>
        <time>2021-08-14T06:46:53.000Z</time>
      </trkpt>
      <trkpt lat="49.75461" lon="4.80728">
        <ele>218</ele>
        <time>2021-08-14T06:46:54.000Z</time>
      </trkpt>
      <trkpt lat="49.75463" lon="4.8073">
        <ele>218</ele>
        <time>2021-08-14T06:46:55.000Z</time>
      </trkpt>
      <trkpt lat="49.75466" lon="4.8073">
        <ele>218</ele>
        <time>2021-08-14T06:46:56.000Z</time>
      </trkpt>
      <trkpt lat="49.75468" lon="4.80732">
        <ele>218</ele>
        <time>2021-08-14T06:46:57.000Z</time>
      </trkpt>
      <trkpt lat="49.7547" lon="4.80733">
        <ele>219</ele>
        <time>2021-08-14T06:46:58.000Z</time>
      </trkpt>
      <trkpt lat="49.75473" lon="4.80735">
        <ele>219</ele>
        <time>2021-08-14T06:46:59.000Z</time>
      </trkpt>
      <trkpt lat="49.75476" lon="4.80737">
        <ele>219</ele>
        <time>2021-08-14T06:47:00.000Z</time>
      </trkpt>
      <trkpt lat="49.75478" lon="4.80739">
        <ele>219</ele>
        <time>2021-08-14T06:47:01.000Z</time>
      </trkpt>
      <trkpt lat="49.7548" lon="4.80741">
        <ele>220</ele>
        <time>2021-08-14T06:47:02.000Z</time>
      </trkpt>
      <trkpt lat="49.75482" lon="4.80743">
        <ele>220</ele>
        <time>2021-08-14T06:47:03.000Z</time>
      </trkpt>
      <trkpt lat="49.75484" lon="4.80745">
        <ele>220</ele>
        <time>2021-08-14T06:47:04.000Z</time>
      </trkpt>
      <trkpt lat="49.75487" lon="4.80748">
        <ele>220</ele>
        <time>2021-08-14T06:47:05.000Z</time>
      </trkpt>
      <trkpt lat="49.75489" lon="4.80751">
        <ele>220</ele>
        <time>2021-08-14T06:47:06.000Z</time>
      </trkpt>
      <trkpt lat="49.75491" lon="4.80753">
        <ele>221</ele>
        <time>2021-08-14T06:47:07.000Z</time>
      </trkpt>
      <trkpt lat="49.75493" lon="4.80755">
        <ele>221</ele>
        <time>2021-08-14T06:47:08.000Z</time>
      </trkpt>
      <trkpt lat="49.75494" lon="4.80757">
        <ele>221</ele>
        <time>2021-08-14T06:47:09.000Z</time>
      </trkpt>
      <trkpt lat="49.75496" lon="4.80759">
        <ele>222</ele>
        <time>2021-08-14T06:47:10.000Z</time>
      </trkpt>
      <trkpt lat="49.75498" lon="4.8076">
        <ele>222</ele>
        <time>2021-08-14T06:47:11.000Z</time>
      </trkpt>
      <trkpt lat="49.755" lon="4.80762">
        <ele>222</ele>
        <time>2021-08-14T06:47:12.000Z</time>
      </trkpt>
      <trkpt lat="49.75503" lon="4.80764">
        <ele>223</ele>
        <time>2021-08-14T06:47:13.000Z</time>
      </trkpt>
      <trkpt lat="49.75506" lon="4.80766">
        <ele>223</ele>
        <time>2021-08-14T06:47:14.000Z</time>
      </trkpt>
      <trkpt lat="49.75509" lon="4.80768">
        <ele>223</ele>
        <time>2021-08-14T06:47:15.000Z</time>
      </trkpt>
      <trkpt lat="49.75512" lon="4.8077">
        <ele>224</ele>
        <time>2021-08-14T06:47:16.000Z</time>
      </trkpt>
      <trkpt lat="49.75515" lon="4.80773">
        <ele>224</ele>
        <time>2021-08-14T06:47:17.000Z</time>
      </trkpt>
      <trkpt lat="49.75517" lon="4.80775">
        <ele>225</ele>
        <time>2021-08-14T06:47:18.000Z</time>
      </trkpt>
      <trkpt lat="49.7552" lon="4.80778">
        <ele>225</ele>
        <time>2021-08-14T06:47:19.000Z</time>
      </trkpt>
      <trkpt lat="49.75523" lon="4.8078">
        <ele>225</ele>
        <time>2021-08-14T06:47:20.000Z</time>
      </trkpt>
      <trkpt lat="49.75527" lon="4.80783">
        <ele>226</ele>
        <time>2021-08-14T06:47:21.000Z</time>
      </trkpt>
      <trkpt lat="49.75529" lon="4.80785">
        <ele>226</ele>
        <time>2021-08-14T06:47:22.000Z</time>
      </trkpt>
      <trkpt lat="49.75532" lon="4.80788">
        <ele>226</ele>
        <time>2021-08-14T06:47:23.000Z</time>
      </trkpt>
      <trkpt lat="49.75534" lon="4.80792">
        <ele>227</ele>
        <time>2021-08-14T06:47:24.000Z</time>
      </trkpt>
      <trkpt lat="49.75537" lon="4.80794">
        <ele>227</ele>
        <time>2021-08-14T06:47:25.000Z</time>
      </trkpt>
      <trkpt lat="49.75539" lon="4.80797">
        <ele>227</ele>
        <time>2021-08-14T06:47:26.000Z</time>
      </trkpt>
      <trkpt lat="49.75541" lon="4.80799">
        <ele>227</ele>
        <time>2021-08-14T06:47:27.000Z</time>
      </trkpt>
      <trkpt lat="49.75544" lon="4.80802">
        <ele>227</ele>
        <time>2021-08-14T06:47:28.000Z</time>
      </trkpt>
      <trkpt lat="49.75546" lon="4.80804">
        <ele>228</ele>
        <time>2021-08-14T06:47:29.000Z</time>
      </trkpt>
      <trkpt lat="49.75548" lon="4.80806">
        <ele>228</ele>
        <time>2021-08-14T06:47:30.000Z</time>
      </trkpt>
      <trkpt lat="49.7555" lon="4.80808">
        <ele>228</ele>
        <time>2021-08-14T06:47:31.000Z</time>
      </trkpt>
      <trkpt lat="49.75552" lon="4.80811">
        <ele>228</ele>
        <time>2021-08-14T06:47:32.000Z</time>
      </trkpt>
      <trkpt lat="49.75554" lon="4.80813">
        <ele>229</ele>
        <time>2021-08-14T06:47:33.000Z</time>
      </trkpt>
      <trkpt lat="49.75556" lon="4.80816">
        <ele>229</ele>
        <time>2021-08-14T06:47:34.000Z</time>
      </trkpt>
      <trkpt lat="49.75558" lon="4.80818">
        <ele>229</ele>
        <time>2021-08-14T06:47:35.000Z</time>
      </trkpt>
      <trkpt lat="49.75559" lon="4.8082">
        <ele>229</ele>
        <time>2021-08-14T06:47:36.000Z</time>
      </trkpt>
      <trkpt lat="49.75561" lon="4.80821">
        <ele>229</ele>
        <time>2021-08-14T06:47:37.000Z</time>
      </trkpt>
      <trkpt lat="49.75563" lon="4.80822">
        <ele>229</ele>
        <time>2021-08-14T06:47:38.000Z</time>
      </trkpt>
      <trkpt lat="49.75565" lon="4.80823">
        <ele>230</ele>
        <time>2021-08-14T06:47:39.000Z</time>
      </trkpt>
      <trkpt lat="49.75567" lon="4.80824">
        <ele>230</ele>
        <time>2021-08-14T06:47:40.000Z</time>
      </trkpt>
      <trkpt lat="49.75569" lon="4.80826">
        <ele>230</ele>
        <time>2021-08-14T06:47:41.000Z</time>
      </trkpt>
      <trkpt lat="49.75571" lon="4.80827">
        <ele>230</ele>
        <time>2021-08-14T06:47:42.000Z</time>
      </trkpt>
      <trkpt lat="49.75573" lon="4.80828">
        <ele>231</ele>
        <time>2021-08-14T06:47:43.000Z</time>
      </trkpt>
      <trkpt lat="49.75577" lon="4.80829">
        <ele>231</ele>
        <time>2021-08-14T06:47:44.000Z</time>
      </trkpt>
      <trkpt lat="49.7558" lon="4.80831">
        <ele>231</ele>
        <time>2021-08-14T06:47:45.000Z</time>
      </trkpt>
      <trkpt lat="49.75582" lon="4.80832">
        <ele>231</ele>
        <time>2021-08-14T06:47:46.000Z</time>
      </trkpt>
      <trkpt lat="49.75585" lon="4.80834">
        <ele>231</ele>
        <time>2021-08-14T06:47:47.000Z</time>
      </trkpt>
      <trkpt lat="49.75587" lon="4.80835">
        <ele>232</ele>
        <time>2021-08-14T06:47:48.000Z</time>
      </trkpt>
      <trkpt lat="49.75589" lon="4.80835">
        <ele>232</ele>
        <time>2021-08-14T06:47:49.000Z</time>
      </trkpt>
      <trkpt lat="49.75591" lon="4.80837">
        <ele>232</ele>
        <time>2021-08-14T06:47:50.000Z</time>
      </trkpt>
      <trkpt lat="49.75594" lon="4.80838">
        <ele>233</ele>
        <time>2021-08-14T06:47:51.000Z</time>
      </trkpt>
      <trkpt lat="49.75598" lon="4.80839">
        <ele>233</ele>
        <time>2021-08-14T06:47:52.000Z</time>
      </trkpt>
      <trkpt lat="49.756" lon="4.8084">
        <ele>233</ele>
        <time>2021-08-14T06:47:53.000Z</time>
      </trkpt>
      <trkpt lat="49.75604" lon="4.80841">
        <ele>234</ele>
        <time>2021-08-14T06:47:54.000Z</time>
      </trkpt>
      <trkpt lat="49.75607" lon="4.80842">
        <ele>234</ele>
        <time>2021-08-14T06:47:55.000Z</time>
      </trkpt>
      <trkpt lat="49.7561" lon="4.80844">
        <ele>234</ele>
        <time>2021-08-14T06:47:56.000Z</time>
      </trkpt>
      <trkpt lat="49.75613" lon="4.80846">
        <ele>234</ele>
        <time>2021-08-14T06:47:57.000Z</time>
      </trkpt>
      <trkpt lat="49.75617" lon="4.80847">
        <ele>235</ele>
        <time>2021-08-14T06:47:58.000Z</time>
      </trkpt>
      <trkpt lat="49.7562" lon="4.80848">
        <ele>235</ele>
        <time>2021-08-14T06:47:59.000Z</time>
      </trkpt>
      <trkpt lat="49.75624" lon="4.80849">
        <ele>235</ele>
        <time>2021-08-14T06:48:00.000Z</time>
      </trkpt>
      <trkpt lat="49.75627" lon="4.8085">
        <ele>235</ele>
        <time>2021-08-14T06:48:01.000Z</time>
      </trkpt>
      <trkpt lat="49.7563" lon="4.80852">
        <ele>235</ele>
        <time>2021-08-14T06:48:02.000Z</time>
      </trkpt>
      <trkpt lat="49.75633" lon="4.80853">
        <ele>235</ele>
        <time>2021-08-14T06:48:03.000Z</time>
      </trkpt>
      <trkpt lat="49.75636" lon="4.80854">
        <ele>236</ele>
        <time>2021-08-14T06:48:04.000Z</time>
      </trkpt>
      <trkpt lat="49.75639" lon="4.80856">
        <ele>236</ele>
        <time>2021-08-14T06:48:05.000Z</time>
      </trkpt>
      <trkpt lat="49.75642" lon="4.80857">
        <ele>236</ele>
        <time>2021-08-14T06:48:06.000Z</time>
      </trkpt>
      <trkpt lat="49.75645" lon="4.80858">
        <ele>236</ele>
        <time>2021-08-14T06:48:07.000Z</time>
      </trkpt>
      <trkpt lat="49.75648" lon="4.80859">
        <ele>236</ele>
        <time>2021-08-14T06:48:08.000Z</time>
      </trkpt>
      <trkpt lat="49.75651" lon="4.8086">
        <ele>237</ele>
        <time>2021-08-14T06:48:09.000Z</time>
      </trkpt>
      <trkpt lat="49.75654" lon="4.80861">
        <ele>237</ele>
        <time>2021-08-14T06:48:10.000Z</time>
      </trkpt>
      <trkpt lat="49.75657" lon="4.80861">
        <ele>237</ele>
        <time>2021-08-14T06:48:11.000Z</time>
      </trkpt>
      <trkpt lat="49.75661" lon="4.80862">
        <ele>237</ele>
        <time>2021-08-14T06:48:12.000Z</time>
      </trkpt>
      <trkpt lat="49.75664" lon="4.80863">
        <ele>237</ele>
        <time>2021-08-14T06:48:13.000Z</time>
      </trkpt>
      <trkpt lat="49.75667" lon="4.80865">
        <ele>238</ele>
        <time>2021-08-14T06:48:14.000Z</time>
      </trkpt>
      <trkpt lat="49.75669" lon="4.80866">
        <ele>238</ele>
        <time>2021-08-14T06:48:15.000Z</time>
      </trkpt>
      <trkpt lat="49.75672" lon="4.80866">
        <ele>238</ele>
        <time>2021-08-14T06:48:16.000Z</time>
      </trkpt>
      <trkpt lat="49.75674" lon="4.80867">
        <ele>238</ele>
        <time>2021-08-14T06:48:17.000Z</time>
      </trkpt>
      <trkpt lat="49.75676" lon="4.80867">
        <ele>239</ele>
        <time>2021-08-14T06:48:18.000Z</time>
      </trkpt>
      <trkpt lat="49.75678" lon="4.80868">
        <ele>239</ele>
        <time>2021-08-14T06:48:19.000Z</time>
      </trkpt>
      <trkpt lat="49.75681" lon="4.8087">
        <ele>239</ele>
        <time>2021-08-14T06:48:20.000Z</time>
      </trkpt>
      <trkpt lat="49.75683" lon="4.80871">
        <ele>239</ele>
        <time>2021-08-14T06:48:21.000Z</time>
      </trkpt>
      <trkpt lat="49.75686" lon="4.80872">
        <ele>240</ele>
        <time>2021-08-14T06:48:22.000Z</time>
      </trkpt>
      <trkpt lat="49.75689" lon="4.80874">
        <ele>240</ele>
        <time>2021-08-14T06:48:23.000Z</time>
      </trkpt>
      <trkpt lat="49.75692" lon="4.80876">
        <ele>240</ele>
        <time>2021-08-14T06:48:24.000Z</time>
      </trkpt>
      <trkpt lat="49.75696" lon="4.80877">
        <ele>240</ele>
        <time>2021-08-14T06:48:25.000Z</time>
      </trkpt>
      <trkpt lat="49.757" lon="4.80878">
        <ele>240</ele>
        <time>2021-08-14T06:48:26.000Z</time>
      </trkpt>
      <trkpt lat="49.75704" lon="4.80879">
        <ele>241</ele>
        <time>2021-08-14T06:48:27.000Z</time>
      </trkpt>
      <trkpt lat="49.75707" lon="4.8088">
        <ele>241</ele>
        <time>2021-08-14T06:48:28.000Z</time>
      </trkpt>
      <trkpt lat="49.75711" lon="4.80881">
        <ele>241</ele>
        <time>2021-08-14T06:48:29.000Z</time>
      </trkpt>
      <trkpt lat="49.75714" lon="4.80882">
        <ele>242</ele>
        <time>2021-08-14T06:48:30.000Z</time>
      </trkpt>
      <trkpt lat="49.75717" lon="4.80883">
        <ele>242</ele>
        <time>2021-08-14T06:48:31.000Z</time>
      </trkpt>
      <trkpt lat="49.75721" lon="4.80883">
        <ele>242</ele>
        <time>2021-08-14T06:48:32.000Z</time>
      </trkpt>
      <trkpt lat="49.75724" lon="4.80884">
        <ele>242</ele>
        <time>2021-08-14T06:48:33.000Z</time>
      </trkpt>
      <trkpt lat="49.75729" lon="4.80883">
        <ele>243</ele>
        <time>2021-08-14T06:48:34.000Z</time>
      </trkpt>
      <trkpt lat="49.75733" lon="4.80884">
        <ele>243</ele>
        <time>2021-08-14T06:48:35.000Z</time>
      </trkpt>
      <trkpt lat="49.75736" lon="4.80885">
        <ele>243</ele>
        <time>2021-08-14T06:48:36.000Z</time>
      </trkpt>
      <trkpt lat="49.75739" lon="4.80886">
        <ele>244</ele>
        <time>2021-08-14T06:48:37.000Z</time>
      </trkpt>
      <trkpt lat="49.75742" lon="4.80886">
        <ele>244</ele>
        <time>2021-08-14T06:48:38.000Z</time>
      </trkpt>
      <trkpt lat="49.75744" lon="4.80887">
        <ele>244</ele>
        <time>2021-08-14T06:48:39.000Z</time>
      </trkpt>
      <trkpt lat="49.75747" lon="4.80887">
        <ele>244</ele>
        <time>2021-08-14T06:48:40.000Z</time>
      </trkpt>
      <trkpt lat="49.7575" lon="4.80887">
        <ele>245</ele>
        <time>2021-08-14T06:48:41.000Z</time>
      </trkpt>
      <trkpt lat="49.75753" lon="4.80888">
        <ele>245</ele>
        <time>2021-08-14T06:48:42.000Z</time>
      </trkpt>
      <trkpt lat="49.75757" lon="4.80889">
        <ele>245</ele>
        <time>2021-08-14T06:48:43.000Z</time>
      </trkpt>
      <trkpt lat="49.7576" lon="4.8089">
        <ele>245</ele>
        <time>2021-08-14T06:48:44.000Z</time>
      </trkpt>
      <trkpt lat="49.75763" lon="4.8089">
        <ele>246</ele>
        <time>2021-08-14T06:48:45.000Z</time>
      </trkpt>
      <trkpt lat="49.75766" lon="4.8089">
        <ele>246</ele>
        <time>2021-08-14T06:48:46.000Z</time>
      </trkpt>
      <trkpt lat="49.75769" lon="4.8089">
        <ele>246</ele>
        <time>2021-08-14T06:48:47.000Z</time>
      </trkpt>
      <trkpt lat="49.75772" lon="4.80891">
        <ele>246</ele>
        <time>2021-08-14T06:48:48.000Z</time>
      </trkpt>
      <trkpt lat="49.75776" lon="4.80891">
        <ele>246</ele>
        <time>2021-08-14T06:48:49.000Z</time>
      </trkpt>
      <trkpt lat="49.75779" lon="4.80892">
        <ele>247</ele>
        <time>2021-08-14T06:48:50.000Z</time>
      </trkpt>
      <trkpt lat="49.75782" lon="4.80892">
        <ele>247</ele>
        <time>2021-08-14T06:48:51.000Z</time>
      </trkpt>
      <trkpt lat="49.75785" lon="4.80893">
        <ele>247</ele>
        <time>2021-08-14T06:48:52.000Z</time>
      </trkpt>
      <trkpt lat="49.75788" lon="4.80894">
        <ele>247</ele>
        <time>2021-08-14T06:48:53.000Z</time>
      </trkpt>
      <trkpt lat="49.7579" lon="4.80894">
        <ele>247</ele>
        <time>2021-08-14T06:48:54.000Z</time>
      </trkpt>
      <trkpt lat="49.75793" lon="4.80895">
        <ele>247</ele>
        <time>2021-08-14T06:48:55.000Z</time>
      </trkpt>
      <trkpt lat="49.75795" lon="4.80895">
        <ele>248</ele>
        <time>2021-08-14T06:48:56.000Z</time>
      </trkpt>
      <trkpt lat="49.75798" lon="4.80895">
        <ele>248</ele>
        <time>2021-08-14T06:48:57.000Z</time>
      </trkpt>
      <trkpt lat="49.75802" lon="4.80896">
        <ele>248</ele>
        <time>2021-08-14T06:48:58.000Z</time>
      </trkpt>
      <trkpt lat="49.75805" lon="4.80897">
        <ele>248</ele>
        <time>2021-08-14T06:48:59.000Z</time>
      </trkpt>
      <trkpt lat="49.75808" lon="4.80898">
        <ele>248</ele>
        <time>2021-08-14T06:49:00.000Z</time>
      </trkpt>
      <trkpt lat="49.75811" lon="4.80899">
        <ele>248</ele>
        <time>2021-08-14T06:49:01.000Z</time>
      </trkpt>
      <trkpt lat="49.75813" lon="4.80901">
        <ele>248</ele>
        <time>2021-08-14T06:49:02.000Z</time>
      </trkpt>
      <trkpt lat="49.75815" lon="4.80902">
        <ele>249</ele>
        <time>2021-08-14T06:49:03.000Z</time>
      </trkpt>
      <trkpt lat="49.75818" lon="4.80904">
        <ele>249</ele>
        <time>2021-08-14T06:49:04.000Z</time>
      </trkpt>
      <trkpt lat="49.7582" lon="4.80905">
        <ele>249</ele>
        <time>2021-08-14T06:49:05.000Z</time>
      </trkpt>
      <trkpt lat="49.75823" lon="4.80907">
        <ele>249</ele>
        <time>2021-08-14T06:49:06.000Z</time>
      </trkpt>
      <trkpt lat="49.75825" lon="4.80908">
        <ele>249</ele>
        <time>2021-08-14T06:49:07.000Z</time>
      </trkpt>
      <trkpt lat="49.75827" lon="4.8091">
        <ele>249</ele>
        <time>2021-08-14T06:49:08.000Z</time>
      </trkpt>
      <trkpt lat="49.75829" lon="4.80912">
        <ele>250</ele>
        <time>2021-08-14T06:49:09.000Z</time>
      </trkpt>
      <trkpt lat="49.75831" lon="4.80913">
        <ele>250</ele>
        <time>2021-08-14T06:49:10.000Z</time>
      </trkpt>
      <trkpt lat="49.75832" lon="4.80914">
        <ele>250</ele>
        <time>2021-08-14T06:49:11.000Z</time>
      </trkpt>
      <trkpt lat="49.75834" lon="4.80915">
        <ele>250</ele>
        <time>2021-08-14T06:49:12.000Z</time>
      </trkpt>
      <trkpt lat="49.75836" lon="4.80917">
        <ele>250</ele>
        <time>2021-08-14T06:49:13.000Z</time>
      </trkpt>
      <trkpt lat="49.75838" lon="4.80919">
        <ele>250</ele>
        <time>2021-08-14T06:49:14.000Z</time>
      </trkpt>
      <trkpt lat="49.7584" lon="4.80921">
        <ele>250</ele>
        <time>2021-08-14T06:49:15.000Z</time>
      </trkpt>
      <trkpt lat="49.75843" lon="4.80924">
        <ele>250</ele>
        <time>2021-08-14T06:49:16.000Z</time>
      </trkpt>
      <trkpt lat="49.75845" lon="4.80926">
        <ele>250</ele>
        <time>2021-08-14T06:49:17.000Z</time>
      </trkpt>
      <trkpt lat="49.75847" lon="4.80928">
        <ele>250</ele>
        <time>2021-08-14T06:49:18.000Z</time>
      </trkpt>
      <trkpt lat="49.75849" lon="4.80931">
        <ele>250</ele>
        <time>2021-08-14T06:49:19.000Z</time>
      </trkpt>
      <trkpt lat="49.75851" lon="4.80933">
        <ele>250</ele>
        <time>2021-08-14T06:49:20.000Z</time>
      </trkpt>
      <trkpt lat="49.75852" lon="4.80936">
        <ele>250</ele>
        <time>2021-08-14T06:49:21.000Z</time>
      </trkpt>
      <trkpt lat="49.75853" lon="4.80939">
        <ele>250</ele>
        <time>2021-08-14T06:49:22.000Z</time>
      </trkpt>
      <trkpt lat="49.75855" lon="4.80941">
        <ele>250</ele>
        <time>2021-08-14T06:49:23.000Z</time>
      </trkpt>
      <trkpt lat="49.75857" lon="4.80943">
        <ele>250</ele>
        <time>2021-08-14T06:49:24.000Z</time>
      </trkpt>
      <trkpt lat="49.75858" lon="4.80946">
        <ele>250</ele>
        <time>2021-08-14T06:49:25.000Z</time>
      </trkpt>
      <trkpt lat="49.75861" lon="4.80948">
        <ele>250</ele>
        <time>2021-08-14T06:49:26.000Z</time>
      </trkpt>
      <trkpt lat="49.75863" lon="4.8095">
        <ele>250</ele>
        <time>2021-08-14T06:49:27.000Z</time>
      </trkpt>
      <trkpt lat="49.75865" lon="4.80953">
        <ele>250</ele>
        <time>2021-08-14T06:49:28.000Z</time>
      </trkpt>
      <trkpt lat="49.75867" lon="4.80956">
        <ele>250</ele>
        <time>2021-08-14T06:49:29.000Z</time>
      </trkpt>
      <trkpt lat="49.75869" lon="4.80958">
        <ele>250</ele>
        <time>2021-08-14T06:49:30.000Z</time>
      </trkpt>
      <trkpt lat="49.7587" lon="4.80959">
        <ele>250</ele>
        <time>2021-08-14T06:49:31.000Z</time>
      </trkpt>
      <trkpt lat="49.75872" lon="4.80961">
        <ele>250</ele>
        <time>2021-08-14T06:49:32.000Z</time>
      </trkpt>
      <trkpt lat="49.75875" lon="4.80964">
        <ele>250</ele>
        <time>2021-08-14T06:49:33.000Z</time>
      </trkpt>
      <trkpt lat="49.75877" lon="4.80966">
        <ele>250</ele>
        <time>2021-08-14T06:49:34.000Z</time>
      </trkpt>
      <trkpt lat="49.75879" lon="4.80969">
        <ele>250</ele>
        <time>2021-08-14T06:49:35.000Z</time>
      </trkpt>
      <trkpt lat="49.75881" lon="4.80973">
        <ele>250</ele>
        <time>2021-08-14T06:49:36.000Z</time>
      </trkpt>
      <trkpt lat="49.75884" lon="4.80976">
        <ele>250</ele>
        <time>2021-08-14T06:49:37.000Z</time>
      </trkpt>
      <trkpt lat="49.75886" lon="4.8098">
        <ele>250</ele>
        <time>2021-08-14T06:49:38.000Z</time>
      </trkpt>
      <trkpt lat="49.75888" lon="4.80983">
        <ele>250</ele>
        <time>2021-08-14T06:49:39.000Z</time>
      </trkpt>
      <trkpt lat="49.75891" lon="4.80988">
        <ele>250</ele>
        <time>2021-08-14T06:49:40.000Z</time>
      </trkpt>
      <trkpt lat="49.75894" lon="4.80991">
        <ele>250</ele>
        <time>2021-08-14T06:49:41.000Z</time>
      </trkpt>
      <trkpt lat="49.75896" lon="4.80995">
        <ele>250</ele>
        <time>2021-08-14T06:49:42.000Z</time>
      </trkpt>
      <trkpt lat="49.75899" lon="4.80997">
        <ele>250</ele>
        <time>2021-08-14T06:49:43.000Z</time>
      </trkpt>
      <trkpt lat="49.75901" lon="4.81">
        <ele>250</ele>
        <time>2021-08-14T06:49:44.000Z</time>
      </trkpt>
      <trkpt lat="49.75902" lon="4.81003">
        <ele>250</ele>
        <time>2021-08-14T06:49:45.000Z</time>
      </trkpt>
      <trkpt lat="49.75904" lon="4.81006">
        <ele>250</ele>
        <time>2021-08-14T06:49:46.000Z</time>
      </trkpt>
      <trkpt lat="49.75906" lon="4.81009">
        <ele>250</ele>
        <time>2021-08-14T06:49:47.000Z</time>
      </trkpt>
      <trkpt lat="49.75907" lon="4.81011">
        <ele>250</ele>
        <time>2021-08-14T06:49:48.000Z</time>
      </trkpt>
      <trkpt lat="49.75909" lon="4.81015">
        <ele>250</ele>
        <time>2021-08-14T06:49:49.000Z</time>
      </trkpt>
      <trkpt lat="49.75912" lon="4.81018">
        <ele>250</ele>
        <time>2021-08-14T06:49:50.000Z</time>
      </trkpt>
      <trkpt lat="49.75914" lon="4.81022">
        <ele>250</ele>
        <time>2021-08-14T06:49:51.000Z</time>
      </trkpt>
      <trkpt lat="49.75916" lon="4.81026">
        <ele>250</ele>
        <time>2021-08-14T06:49:52.000Z</time>
      </trkpt>
      <trkpt lat="49.75918" lon="4.81029">
        <ele>251</ele>
        <time>2021-08-14T06:49:53.000Z</time>
      </trkpt>
      <trkpt lat="49.7592" lon="4.81032">
        <ele>251</ele>
        <time>2021-08-14T06:49:54.000Z</time>
      </trkpt>
      <trkpt lat="49.75922" lon="4.81035">
        <ele>251</ele>
        <time>2021-08-14T06:49:55.000Z</time>
      </trkpt>
      <trkpt lat="49.75924" lon="4.81038">
        <ele>251</ele>
        <time>2021-08-14T06:49:56.000Z</time>
      </trkpt>
      <trkpt lat="49.75926" lon="4.8104">
        <ele>251</ele>
        <time>2021-08-14T06:49:57.000Z</time>
      </trkpt>
      <trkpt lat="49.75928" lon="4.81042">
        <ele>251</ele>
        <time>2021-08-14T06:49:58.000Z</time>
      </trkpt>
      <trkpt lat="49.75931" lon="4.81045">
        <ele>252</ele>
        <time>2021-08-14T06:49:59.000Z</time>
      </trkpt>
      <trkpt lat="49.75933" lon="4.81049">
        <ele>252</ele>
        <time>2021-08-14T06:50:00.000Z</time>
      </trkpt>
      <trkpt lat="49.75935" lon="4.81053">
        <ele>252</ele>
        <time>2021-08-14T06:50:01.000Z</time>
      </trkpt>
      <trkpt lat="49.75937" lon="4.81057">
        <ele>252</ele>
        <time>2021-08-14T06:50:02.000Z</time>
      </trkpt>
      <trkpt lat="49.75939" lon="4.81061">
        <ele>252</ele>
        <time>2021-08-14T06:50:03.000Z</time>
      </trkpt>
      <trkpt lat="49.75942" lon="4.81063">
        <ele>252</ele>
        <time>2021-08-14T06:50:04.000Z</time>
      </trkpt>
      <trkpt lat="49.75944" lon="4.81066">
        <ele>253</ele>
        <time>2021-08-14T06:50:05.000Z</time>
      </trkpt>
      <trkpt lat="49.75946" lon="4.8107">
        <ele>253</ele>
        <time>2021-08-14T06:50:06.000Z</time>
      </trkpt>
      <trkpt lat="49.75947" lon="4.81073">
        <ele>253</ele>
        <time>2021-08-14T06:50:07.000Z</time>
      </trkpt>
      <trkpt lat="49.75949" lon="4.81076">
        <ele>253</ele>
        <time>2021-08-14T06:50:08.000Z</time>
      </trkpt>
      <trkpt lat="49.7595" lon="4.81079">
        <ele>253</ele>
        <time>2021-08-14T06:50:09.000Z</time>
      </trkpt>
      <trkpt lat="49.75952" lon="4.81083">
        <ele>253</ele>
        <time>2021-08-14T06:50:10.000Z</time>
      </trkpt>
      <trkpt lat="49.75954" lon="4.81087">
        <ele>254</ele>
        <time>2021-08-14T06:50:11.000Z</time>
      </trkpt>
      <trkpt lat="49.75955" lon="4.8109">
        <ele>254</ele>
        <time>2021-08-14T06:50:12.000Z</time>
      </trkpt>
      <trkpt lat="49.75957" lon="4.81094">
        <ele>254</ele>
        <time>2021-08-14T06:50:13.000Z</time>
      </trkpt>
      <trkpt lat="49.75958" lon="4.81097">
        <ele>254</ele>
        <time>2021-08-14T06:50:14.000Z</time>
      </trkpt>
      <trkpt lat="49.7596" lon="4.811">
        <ele>254</ele>
        <time>2021-08-14T06:50:15.000Z</time>
      </trkpt>
      <trkpt lat="49.75962" lon="4.81102">
        <ele>254</ele>
        <time>2021-08-14T06:50:16.000Z</time>
      </trkpt>
      <trkpt lat="49.75964" lon="4.81105">
        <ele>254</ele>
        <time>2021-08-14T06:50:17.000Z</time>
      </trkpt>
      <trkpt lat="49.75966" lon="4.81109">
        <ele>254</ele>
        <time>2021-08-14T06:50:18.000Z</time>
      </trkpt>
      <trkpt lat="49.75968" lon="4.81112">
        <ele>254</ele>
        <time>2021-08-14T06:50:19.000Z</time>
      </trkpt>
      <trkpt lat="49.7597" lon="4.81115">
        <ele>254</ele>
        <time>2021-08-14T06:50:20.000Z</time>
      </trkpt>
      <trkpt lat="49.75972" lon="4.81119">
        <ele>255</ele>
        <time>2021-08-14T06:50:21.000Z</time>
      </trkpt>
      <trkpt lat="49.75975" lon="4.81122">
        <ele>255</ele>
        <time>2021-08-14T06:50:22.000Z</time>
      </trkpt>
      <trkpt lat="49.75977" lon="4.81125">
        <ele>255</ele>
        <time>2021-08-14T06:50:23.000Z</time>
      </trkpt>
      <trkpt lat="49.7598" lon="4.81128">
        <ele>255</ele>
        <time>2021-08-14T06:50:24.000Z</time>
      </trkpt>
      <trkpt lat="49.75982" lon="4.81131">
        <ele>255</ele>
        <time>2021-08-14T06:50:25.000Z</time>
      </trkpt>
      <trkpt lat="49.75985" lon="4.81134">
        <ele>255</ele>
        <time>2021-08-14T06:50:26.000Z</time>
      </trkpt>
      <trkpt lat="49.75987" lon="4.81136">
        <ele>256</ele>
        <time>2021-08-14T06:50:27.000Z</time>
      </trkpt>
      <trkpt lat="49.75989" lon="4.81139">
        <ele>256</ele>
        <time>2021-08-14T06:50:28.000Z</time>
      </trkpt>
      <trkpt lat="49.75991" lon="4.81142">
        <ele>256</ele>
        <time>2021-08-14T06:50:29.000Z</time>
      </trkpt>
      <trkpt lat="49.75993" lon="4.81144">
        <ele>256</ele>
        <time>2021-08-14T06:50:30.000Z</time>
      </trkpt>
      <trkpt lat="49.75996" lon="4.81147">
        <ele>256</ele>
        <time>2021-08-14T06:50:31.000Z</time>
      </trkpt>
      <trkpt lat="49.75998" lon="4.8115">
        <ele>257</ele>
        <time>2021-08-14T06:50:32.000Z</time>
      </trkpt>
      <trkpt lat="49.76001" lon="4.81153">
        <ele>257</ele>
        <time>2021-08-14T06:50:33.000Z</time>
      </trkpt>
      <trkpt lat="49.76003" lon="4.81156">
        <ele>257</ele>
        <time>2021-08-14T06:50:34.000Z</time>
      </trkpt>
      <trkpt lat="49.76005" lon="4.81158">
        <ele>257</ele>
        <time>2021-08-14T06:50:35.000Z</time>
      </trkpt>
      <trkpt lat="49.76007" lon="4.81161">
        <ele>257</ele>
        <time>2021-08-14T06:50:36.000Z</time>
      </trkpt>
      <trkpt lat="49.76009" lon="4.81163">
        <ele>257</ele>
        <time>2021-08-14T06:50:37.000Z</time>
      </trkpt>
      <trkpt lat="49.76011" lon="4.81166">
        <ele>257</ele>
        <time>2021-08-14T06:50:38.000Z</time>
      </trkpt>
      <trkpt lat="49.76014" lon="4.81169">
        <ele>257</ele>
        <time>2021-08-14T06:50:39.000Z</time>
      </trkpt>
      <trkpt lat="49.76016" lon="4.81172">
        <ele>258</ele>
        <time>2021-08-14T06:50:40.000Z</time>
      </trkpt>
      <trkpt lat="49.76019" lon="4.81175">
        <ele>258</ele>
        <time>2021-08-14T06:50:41.000Z</time>
      </trkpt>
      <trkpt lat="49.76021" lon="4.81178">
        <ele>258</ele>
        <time>2021-08-14T06:50:42.000Z</time>
      </trkpt>
      <trkpt lat="49.76023" lon="4.81182">
        <ele>258</ele>
        <time>2021-08-14T06:50:43.000Z</time>
      </trkpt>
      <trkpt lat="49.76026" lon="4.81184">
        <ele>258</ele>
        <time>2021-08-14T06:50:44.000Z</time>
      </trkpt>
      <trkpt lat="49.76029" lon="4.81187">
        <ele>258</ele>
        <time>2021-08-14T06:50:45.000Z</time>
      </trkpt>
      <trkpt lat="49.76031" lon="4.8119">
        <ele>258</ele>
        <time>2021-08-14T06:50:46.000Z</time>
      </trkpt>
      <trkpt lat="49.76033" lon="4.81192">
        <ele>259</ele>
        <time>2021-08-14T06:50:47.000Z</time>
      </trkpt>
      <trkpt lat="49.76036" lon="4.81194">
        <ele>259</ele>
        <time>2021-08-14T06:50:48.000Z</time>
      </trkpt>
      <trkpt lat="49.76039" lon="4.81196">
        <ele>259</ele>
        <time>2021-08-14T06:50:49.000Z</time>
      </trkpt>
      <trkpt lat="49.76041" lon="4.81199">
        <ele>259</ele>
        <time>2021-08-14T06:50:50.000Z</time>
      </trkpt>
      <trkpt lat="49.76043" lon="4.81203">
        <ele>259</ele>
        <time>2021-08-14T06:50:51.000Z</time>
      </trkpt>
      <trkpt lat="49.76044" lon="4.81206">
        <ele>259</ele>
        <time>2021-08-14T06:50:52.000Z</time>
      </trkpt>
      <trkpt lat="49.76046" lon="4.81209">
        <ele>259</ele>
        <time>2021-08-14T06:50:53.000Z</time>
      </trkpt>
      <trkpt lat="49.76047" lon="4.81212">
        <ele>259</ele>
        <time>2021-08-14T06:50:54.000Z</time>
      </trkpt>
      <trkpt lat="49.76049" lon="4.81215">
        <ele>259</ele>
        <time>2021-08-14T06:50:55.000Z</time>
      </trkpt>
      <trkpt lat="49.76052" lon="4.81218">
        <ele>260</ele>
        <time>2021-08-14T06:50:56.000Z</time>
      </trkpt>
      <trkpt lat="49.76054" lon="4.81221">
        <ele>260</ele>
        <time>2021-08-14T06:50:57.000Z</time>
      </trkpt>
      <trkpt lat="49.76056" lon="4.81224">
        <ele>260</ele>
        <time>2021-08-14T06:50:58.000Z</time>
      </trkpt>
      <trkpt lat="49.76058" lon="4.81226">
        <ele>260</ele>
        <time>2021-08-14T06:50:59.000Z</time>
      </trkpt>
      <trkpt lat="49.7606" lon="4.81229">
        <ele>260</ele>
        <time>2021-08-14T06:51:00.000Z</time>
      </trkpt>
      <trkpt lat="49.76061" lon="4.81232">
        <ele>260</ele>
        <time>2021-08-14T06:51:01.000Z</time>
      </trkpt>
      <trkpt lat="49.76063" lon="4.81235">
        <ele>260</ele>
        <time>2021-08-14T06:51:02.000Z</time>
      </trkpt>
      <trkpt lat="49.76065" lon="4.81238">
        <ele>260</ele>
        <time>2021-08-14T06:51:03.000Z</time>
      </trkpt>
      <trkpt lat="49.76067" lon="4.81241">
        <ele>261</ele>
        <time>2021-08-14T06:51:04.000Z</time>
      </trkpt>
      <trkpt lat="49.7607" lon="4.81244">
        <ele>261</ele>
        <time>2021-08-14T06:51:05.000Z</time>
      </trkpt>
      <trkpt lat="49.76072" lon="4.81247">
        <ele>261</ele>
        <time>2021-08-14T06:51:06.000Z</time>
      </trkpt>
      <trkpt lat="49.76074" lon="4.8125">
        <ele>261</ele>
        <time>2021-08-14T06:51:07.000Z</time>
      </trkpt>
      <trkpt lat="49.76077" lon="4.81253">
        <ele>262</ele>
        <time>2021-08-14T06:51:08.000Z</time>
      </trkpt>
      <trkpt lat="49.76079" lon="4.81256">
        <ele>262</ele>
        <time>2021-08-14T06:51:09.000Z</time>
      </trkpt>
      <trkpt lat="49.76082" lon="4.81259">
        <ele>262</ele>
        <time>2021-08-14T06:51:10.000Z</time>
      </trkpt>
      <trkpt lat="49.76084" lon="4.81261">
        <ele>262</ele>
        <time>2021-08-14T06:51:11.000Z</time>
      </trkpt>
      <trkpt lat="49.76087" lon="4.81263">
        <ele>262</ele>
        <time>2021-08-14T06:51:12.000Z</time>
      </trkpt>
      <trkpt lat="49.7609" lon="4.81264">
        <ele>263</ele>
        <time>2021-08-14T06:51:13.000Z</time>
      </trkpt>
      <trkpt lat="49.76093" lon="4.81266">
        <ele>263</ele>
        <time>2021-08-14T06:51:14.000Z</time>
      </trkpt>
      <trkpt lat="49.76096" lon="4.81268">
        <ele>263</ele>
        <time>2021-08-14T06:51:15.000Z</time>
      </trkpt>
      <trkpt lat="49.76099" lon="4.8127">
        <ele>263</ele>
        <time>2021-08-14T06:51:16.000Z</time>
      </trkpt>
      <trkpt lat="49.76101" lon="4.81272">
        <ele>264</ele>
        <time>2021-08-14T06:51:17.000Z</time>
      </trkpt>
      <trkpt lat="49.76103" lon="4.81275">
        <ele>264</ele>
        <time>2021-08-14T06:51:18.000Z</time>
      </trkpt>
      <trkpt lat="49.76105" lon="4.81277">
        <ele>264</ele>
        <time>2021-08-14T06:51:19.000Z</time>
      </trkpt>
      <trkpt lat="49.76107" lon="4.81279">
        <ele>264</ele>
        <time>2021-08-14T06:51:20.000Z</time>
      </trkpt>
      <trkpt lat="49.76108" lon="4.8128">
        <ele>265</ele>
        <time>2021-08-14T06:51:21.000Z</time>
      </trkpt>
      <trkpt lat="49.7611" lon="4.81282">
        <ele>265</ele>
        <time>2021-08-14T06:51:22.000Z</time>
      </trkpt>
      <trkpt lat="49.76112" lon="4.81284">
        <ele>265</ele>
        <time>2021-08-14T06:51:23.000Z</time>
      </trkpt>
      <trkpt lat="49.76114" lon="4.81286">
        <ele>265</ele>
        <time>2021-08-14T06:51:24.000Z</time>
      </trkpt>
      <trkpt lat="49.76116" lon="4.81288">
        <ele>265</ele>
        <time>2021-08-14T06:51:25.000Z</time>
      </trkpt>
      <trkpt lat="49.76117" lon="4.81289">
        <ele>266</ele>
        <time>2021-08-14T06:51:26.000Z</time>
      </trkpt>
      <trkpt lat="49.76119" lon="4.8129">
        <ele>266</ele>
        <time>2021-08-14T06:51:27.000Z</time>
      </trkpt>
      <trkpt lat="49.76121" lon="4.8129">
        <ele>266</ele>
        <time>2021-08-14T06:51:28.000Z</time>
      </trkpt>
      <trkpt lat="49.76124" lon="4.81291">
        <ele>266</ele>
        <time>2021-08-14T06:51:29.000Z</time>
      </trkpt>
      <trkpt lat="49.76126" lon="4.81293">
        <ele>266</ele>
        <time>2021-08-14T06:51:30.000Z</time>
      </trkpt>
      <trkpt lat="49.76128" lon="4.81295">
        <ele>266</ele>
        <time>2021-08-14T06:51:31.000Z</time>
      </trkpt>
      <trkpt lat="49.76129" lon="4.81297">
        <ele>267</ele>
        <time>2021-08-14T06:51:32.000Z</time>
      </trkpt>
      <trkpt lat="49.76131" lon="4.81299">
        <ele>267</ele>
        <time>2021-08-14T06:51:33.000Z</time>
      </trkpt>
      <trkpt lat="49.76133" lon="4.81302">
        <ele>267</ele>
        <time>2021-08-14T06:51:34.000Z</time>
      </trkpt>
      <trkpt lat="49.76134" lon="4.81304">
        <ele>267</ele>
        <time>2021-08-14T06:51:35.000Z</time>
      </trkpt>
      <trkpt lat="49.76134" lon="4.81307">
        <ele>267</ele>
        <time>2021-08-14T06:51:36.000Z</time>
      </trkpt>
      <trkpt lat="49.76135" lon="4.8131">
        <ele>267</ele>
        <time>2021-08-14T06:51:37.000Z</time>
      </trkpt>
      <trkpt lat="49.76136" lon="4.81313">
        <ele>267</ele>
        <time>2021-08-14T06:51:38.000Z</time>
      </trkpt>
      <trkpt lat="49.76137" lon="4.81317">
        <ele>267</ele>
        <time>2021-08-14T06:51:39.000Z</time>
      </trkpt>
      <trkpt lat="49.76137" lon="4.81321">
        <ele>267</ele>
        <time>2021-08-14T06:51:40.000Z</time>
      </trkpt>
      <trkpt lat="49.76138" lon="4.81324">
        <ele>268</ele>
        <time>2021-08-14T06:51:41.000Z</time>
      </trkpt>
      <trkpt lat="49.76138" lon="4.81328">
        <ele>268</ele>
        <time>2021-08-14T06:51:42.000Z</time>
      </trkpt>
      <trkpt lat="49.76138" lon="4.81331">
        <ele>268</ele>
        <time>2021-08-14T06:51:43.000Z</time>
      </trkpt>
      <trkpt lat="49.76137" lon="4.81335">
        <ele>268</ele>
        <time>2021-08-14T06:51:44.000Z</time>
      </trkpt>
      <trkpt lat="49.76137" lon="4.81338">
        <ele>268</ele>
        <time>2021-08-14T06:51:45.000Z</time>
      </trkpt>
      <trkpt lat="49.76136" lon="4.81341">
        <ele>268</ele>
        <time>2021-08-14T06:51:46.000Z</time>
      </trkpt>
      <trkpt lat="49.76137" lon="4.81343">
        <ele>268</ele>
        <time>2021-08-14T06:51:47.000Z</time>
      </trkpt>
      <trkpt lat="49.76137" lon="4.81346">
        <ele>268</ele>
        <time>2021-08-14T06:51:48.000Z</time>
      </trkpt>
      <trkpt lat="49.76136" lon="4.81349">
        <ele>268</ele>
        <time>2021-08-14T06:51:49.000Z</time>
      </trkpt>
      <trkpt lat="49.76136" lon="4.81351">
        <ele>268</ele>
        <time>2021-08-14T06:51:50.000Z</time>
      </trkpt>
      <trkpt lat="49.76135" lon="4.81354">
        <ele>268</ele>
        <time>2021-08-14T06:51:51.000Z</time>
      </trkpt>
      <trkpt lat="49.76134" lon="4.81357">
        <ele>268</ele>
        <time>2021-08-14T06:51:52.000Z</time>
      </trkpt>
      <trkpt lat="49.76134" lon="4.8136">
        <ele>268</ele>
        <time>2021-08-14T06:51:53.000Z</time>
      </trkpt>
      <trkpt lat="49.76134" lon="4.81364">
        <ele>268</ele>
        <time>2021-08-14T06:51:54.000Z</time>
      </trkpt>
      <trkpt lat="49.76134" lon="4.81367">
        <ele>268</ele>
        <time>2021-08-14T06:51:55.000Z</time>
      </trkpt>
      <trkpt lat="49.76133" lon="4.8137">
        <ele>268</ele>
        <time>2021-08-14T06:51:56.000Z</time>
      </trkpt>
      <trkpt lat="49.76133" lon="4.81371">
        <ele>268</ele>
        <time>2021-08-14T06:51:57.000Z</time>
      </trkpt>
      <trkpt lat="49.76133" lon="4.81374">
        <ele>268</ele>
        <time>2021-08-14T06:51:58.000Z</time>
      </trkpt>
      <trkpt lat="49.76133" lon="4.81376">
        <ele>269</ele>
        <time>2021-08-14T06:51:59.000Z</time>
      </trkpt>
      <trkpt lat="49.76132" lon="4.81379">
        <ele>269</ele>
        <time>2021-08-14T06:52:00.000Z</time>
      </trkpt>
      <trkpt lat="49.76132" lon="4.81383">
        <ele>269</ele>
        <time>2021-08-14T06:52:01.000Z</time>
      </trkpt>
      <trkpt lat="49.76132" lon="4.81387">
        <ele>269</ele>
        <time>2021-08-14T06:52:02.000Z</time>
      </trkpt>
      <trkpt lat="49.76131" lon="4.8139">
        <ele>269</ele>
        <time>2021-08-14T06:52:03.000Z</time>
      </trkpt>
      <trkpt lat="49.76131" lon="4.81394">
        <ele>269</ele>
        <time>2021-08-14T06:52:04.000Z</time>
      </trkpt>
      <trkpt lat="49.76131" lon="4.81397">
        <ele>269</ele>
        <time>2021-08-14T06:52:05.000Z</time>
      </trkpt>
      <trkpt lat="49.76131" lon="4.81401">
        <ele>269</ele>
        <time>2021-08-14T06:52:06.000Z</time>
      </trkpt>
      <trkpt lat="49.76131" lon="4.81404">
        <ele>269</ele>
        <time>2021-08-14T06:52:07.000Z</time>
      </trkpt>
      <trkpt lat="49.76131" lon="4.81408">
        <ele>269</ele>
        <time>2021-08-14T06:52:08.000Z</time>
      </trkpt>
      <trkpt lat="49.76131" lon="4.81412">
        <ele>270</ele>
        <time>2021-08-14T06:52:09.000Z</time>
      </trkpt>
      <trkpt lat="49.76132" lon="4.81415">
        <ele>270</ele>
        <time>2021-08-14T06:52:10.000Z</time>
      </trkpt>
      <trkpt lat="49.76132" lon="4.81418">
        <ele>270</ele>
        <time>2021-08-14T06:52:11.000Z</time>
      </trkpt>
      <trkpt lat="49.76132" lon="4.81421">
        <ele>270</ele>
        <time>2021-08-14T06:52:12.000Z</time>
      </trkpt>
      <trkpt lat="49.76133" lon="4.81424">
        <ele>270</ele>
        <time>2021-08-14T06:52:13.000Z</time>
      </trkpt>
      <trkpt lat="49.76135" lon="4.81426">
        <ele>269</ele>
        <time>2021-08-14T06:52:14.000Z</time>
      </trkpt>
      <trkpt lat="49.76137" lon="4.81428">
        <ele>269</ele>
        <time>2021-08-14T06:52:15.000Z</time>
      </trkpt>
      <trkpt lat="49.76139" lon="4.81429">
        <ele>269</ele>
        <time>2021-08-14T06:52:16.000Z</time>
      </trkpt>
      <trkpt lat="49.76141" lon="4.8143">
        <ele>269</ele>
        <time>2021-08-14T06:52:17.000Z</time>
      </trkpt>
      <trkpt lat="49.76144" lon="4.81431">
        <ele>269</ele>
        <time>2021-08-14T06:52:18.000Z</time>
      </trkpt>
      <trkpt lat="49.76146" lon="4.81433">
        <ele>269</ele>
        <time>2021-08-14T06:52:19.000Z</time>
      </trkpt>
      <trkpt lat="49.76148" lon="4.81434">
        <ele>269</ele>
        <time>2021-08-14T06:52:20.000Z</time>
      </trkpt>
      <trkpt lat="49.76151" lon="4.81435">
        <ele>269</ele>
        <time>2021-08-14T06:52:21.000Z</time>
      </trkpt>
      <trkpt lat="49.76153" lon="4.81436">
        <ele>269</ele>
        <time>2021-08-14T06:52:22.000Z</time>
      </trkpt>
      <trkpt lat="49.76157" lon="4.81436">
        <ele>269</ele>
        <time>2021-08-14T06:52:23.000Z</time>
      </trkpt>
      <trkpt lat="49.7616" lon="4.81437">
        <ele>269</ele>
        <time>2021-08-14T06:52:24.000Z</time>
      </trkpt>
      <trkpt lat="49.76163" lon="4.81438">
        <ele>269</ele>
        <time>2021-08-14T06:52:25.000Z</time>
      </trkpt>
      <trkpt lat="49.76166" lon="4.81439">
        <ele>269</ele>
        <time>2021-08-14T06:52:26.000Z</time>
      </trkpt>
      <trkpt lat="49.7617" lon="4.8144">
        <ele>270</ele>
        <time>2021-08-14T06:52:27.000Z</time>
      </trkpt>
      <trkpt lat="49.76173" lon="4.81441">
        <ele>270</ele>
        <time>2021-08-14T06:52:28.000Z</time>
      </trkpt>
      <trkpt lat="49.76176" lon="4.81441">
        <ele>270</ele>
        <time>2021-08-14T06:52:29.000Z</time>
      </trkpt>
      <trkpt lat="49.76178" lon="4.81441">
        <ele>270</ele>
        <time>2021-08-14T06:52:30.000Z</time>
      </trkpt>
      <trkpt lat="49.76179" lon="4.81441">
        <ele>270</ele>
        <time>2021-08-14T06:52:31.000Z</time>
      </trkpt>
      <trkpt lat="49.76181" lon="4.81439">
        <ele>271</ele>
        <time>2021-08-14T06:52:32.000Z</time>
      </trkpt>
      <trkpt lat="49.76182" lon="4.81436">
        <ele>271</ele>
        <time>2021-08-14T06:52:33.000Z</time>
      </trkpt>
      <trkpt lat="49.76183" lon="4.81433">
        <ele>271</ele>
        <time>2021-08-14T06:52:34.000Z</time>
      </trkpt>
      <trkpt lat="49.76185" lon="4.8143">
        <ele>271</ele>
        <time>2021-08-14T06:52:35.000Z</time>
      </trkpt>
      <trkpt lat="49.76186" lon="4.81425">
        <ele>271</ele>
        <time>2021-08-14T06:52:36.000Z</time>
      </trkpt>
      <trkpt lat="49.76188" lon="4.81418">
        <ele>271</ele>
        <time>2021-08-14T06:52:37.000Z</time>
      </trkpt>
      <trkpt lat="49.76187" lon="4.81411">
        <ele>271</ele>
        <time>2021-08-14T06:52:38.000Z</time>
      </trkpt>
      <trkpt lat="49.76188" lon="4.81403">
        <ele>270</ele>
        <time>2021-08-14T06:52:39.000Z</time>
      </trkpt>
      <trkpt lat="49.76189" lon="4.81396">
        <ele>270</ele>
        <time>2021-08-14T06:52:40.000Z</time>
      </trkpt>
      <trkpt lat="49.7619" lon="4.81387">
        <ele>270</ele>
        <time>2021-08-14T06:52:41.000Z</time>
      </trkpt>
      <trkpt lat="49.76191" lon="4.81378">
        <ele>270</ele>
        <time>2021-08-14T06:52:42.000Z</time>
      </trkpt>
      <trkpt lat="49.76191" lon="4.81369">
        <ele>270</ele>
        <time>2021-08-14T06:52:43.000Z</time>
      </trkpt>
      <trkpt lat="49.76191" lon="4.81359">
        <ele>269</ele>
        <time>2021-08-14T06:52:44.000Z</time>
      </trkpt>
      <trkpt lat="49.76192" lon="4.81349">
        <ele>269</ele>
        <time>2021-08-14T06:52:45.000Z</time>
      </trkpt>
      <trkpt lat="49.76192" lon="4.8134">
        <ele>269</ele>
        <time>2021-08-14T06:52:46.000Z</time>
      </trkpt>
      <trkpt lat="49.76193" lon="4.81329">
        <ele>269</ele>
        <time>2021-08-14T06:52:47.000Z</time>
      </trkpt>
      <trkpt lat="49.76193" lon="4.81319">
        <ele>269</ele>
        <time>2021-08-14T06:52:48.000Z</time>
      </trkpt>
      <trkpt lat="49.76192" lon="4.8131">
        <ele>268</ele>
        <time>2021-08-14T06:52:49.000Z</time>
      </trkpt>
      <trkpt lat="49.76192" lon="4.81302">
        <ele>268</ele>
        <time>2021-08-14T06:52:50.000Z</time>
      </trkpt>
      <trkpt lat="49.76191" lon="4.81296">
        <ele>268</ele>
        <time>2021-08-14T06:52:51.000Z</time>
      </trkpt>
      <trkpt lat="49.7619" lon="4.8129">
        <ele>268</ele>
        <time>2021-08-14T06:52:52.000Z</time>
      </trkpt>
      <trkpt lat="49.7619" lon="4.81284">
        <ele>268</ele>
        <time>2021-08-14T06:52:53.000Z</time>
      </trkpt>
      <trkpt lat="49.76189" lon="4.81279">
        <ele>268</ele>
        <time>2021-08-14T06:52:54.000Z</time>
      </trkpt>
      <trkpt lat="49.76189" lon="4.81273">
        <ele>268</ele>
        <time>2021-08-14T06:52:55.000Z</time>
      </trkpt>
      <trkpt lat="49.7619" lon="4.81268">
        <ele>268</ele>
        <time>2021-08-14T06:52:56.000Z</time>
      </trkpt>
      <trkpt lat="49.7619" lon="4.81264">
        <ele>268</ele>
        <time>2021-08-14T06:52:57.000Z</time>
      </trkpt>
      <trkpt lat="49.7619" lon="4.81258">
        <ele>268</ele>
        <time>2021-08-14T06:52:58.000Z</time>
      </trkpt>
      <trkpt lat="49.7619" lon="4.81252">
        <ele>268</ele>
        <time>2021-08-14T06:52:59.000Z</time>
      </trkpt>
      <trkpt lat="49.7619" lon="4.81246">
        <ele>268</ele>
        <time>2021-08-14T06:53:00.000Z</time>
      </trkpt>
      <trkpt lat="49.7619" lon="4.81239">
        <ele>268</ele>
        <time>2021-08-14T06:53:01.000Z</time>
      </trkpt>
      <trkpt lat="49.76191" lon="4.81233">
        <ele>268</ele>
        <time>2021-08-14T06:53:02.000Z</time>
      </trkpt>
      <trkpt lat="49.76191" lon="4.81227">
        <ele>268</ele>
        <time>2021-08-14T06:53:03.000Z</time>
      </trkpt>
      <trkpt lat="49.76191" lon="4.81221">
        <ele>268</ele>
        <time>2021-08-14T06:53:04.000Z</time>
      </trkpt>
      <trkpt lat="49.76191" lon="4.81215">
        <ele>268</ele>
        <time>2021-08-14T06:53:05.000Z</time>
      </trkpt>
      <trkpt lat="49.76192" lon="4.8121">
        <ele>268</ele>
        <time>2021-08-14T06:53:06.000Z</time>
      </trkpt>
      <trkpt lat="49.76193" lon="4.81205">
        <ele>268</ele>
        <time>2021-08-14T06:53:07.000Z</time>
      </trkpt>
      <trkpt lat="49.76193" lon="4.81199">
        <ele>268</ele>
        <time>2021-08-14T06:53:08.000Z</time>
      </trkpt>
      <trkpt lat="49.76194" lon="4.81194">
        <ele>267</ele>
        <time>2021-08-14T06:53:09.000Z</time>
      </trkpt>
      <trkpt lat="49.76195" lon="4.81188">
        <ele>267</ele>
        <time>2021-08-14T06:53:10.000Z</time>
      </trkpt>
      <trkpt lat="49.76195" lon="4.81182">
        <ele>267</ele>
        <time>2021-08-14T06:53:11.000Z</time>
      </trkpt>
      <trkpt lat="49.76195" lon="4.81176">
        <ele>267</ele>
        <time>2021-08-14T06:53:12.000Z</time>
      </trkpt>
      <trkpt lat="49.76195" lon="4.8117">
        <ele>267</ele>
        <time>2021-08-14T06:53:13.000Z</time>
      </trkpt>
      <trkpt lat="49.76195" lon="4.81164">
        <ele>267</ele>
        <time>2021-08-14T06:53:14.000Z</time>
      </trkpt>
      <trkpt lat="49.76195" lon="4.81158">
        <ele>267</ele>
        <time>2021-08-14T06:53:15.000Z</time>
      </trkpt>
      <trkpt lat="49.76196" lon="4.81152">
        <ele>267</ele>
        <time>2021-08-14T06:53:16.000Z</time>
      </trkpt>
      <trkpt lat="49.76196" lon="4.81145">
        <ele>267</ele>
        <time>2021-08-14T06:53:17.000Z</time>
      </trkpt>
      <trkpt lat="49.76196" lon="4.81139">
        <ele>267</ele>
        <time>2021-08-14T06:53:18.000Z</time>
      </trkpt>
      <trkpt lat="49.76196" lon="4.81133">
        <ele>267</ele>
        <time>2021-08-14T06:53:19.000Z</time>
      </trkpt>
      <trkpt lat="49.76195" lon="4.81127">
        <ele>267</ele>
        <time>2021-08-14T06:53:20.000Z</time>
      </trkpt>
      <trkpt lat="49.76195" lon="4.81121">
        <ele>267</ele>
        <time>2021-08-14T06:53:21.000Z</time>
      </trkpt>
      <trkpt lat="49.76194" lon="4.81114">
        <ele>267</ele>
        <time>2021-08-14T06:53:22.000Z</time>
      </trkpt>
      <trkpt lat="49.76194" lon="4.81106">
        <ele>267</ele>
        <time>2021-08-14T06:53:23.000Z</time>
      </trkpt>
      <trkpt lat="49.76194" lon="4.81098">
        <ele>267</ele>
        <time>2021-08-14T06:53:24.000Z</time>
      </trkpt>
      <trkpt lat="49.76194" lon="4.8109">
        <ele>267</ele>
        <time>2021-08-14T06:53:25.000Z</time>
      </trkpt>
      <trkpt lat="49.76194" lon="4.81081">
        <ele>267</ele>
        <time>2021-08-14T06:53:26.000Z</time>
      </trkpt>
      <trkpt lat="49.76195" lon="4.81072">
        <ele>266</ele>
        <time>2021-08-14T06:53:27.000Z</time>
      </trkpt>
      <trkpt lat="49.76196" lon="4.81063">
        <ele>266</ele>
        <time>2021-08-14T06:53:28.000Z</time>
      </trkpt>
      <trkpt lat="49.76196" lon="4.81055">
        <ele>266</ele>
        <time>2021-08-14T06:53:29.000Z</time>
      </trkpt>
      <trkpt lat="49.76196" lon="4.81046">
        <ele>266</ele>
        <time>2021-08-14T06:53:30.000Z</time>
      </trkpt>
      <trkpt lat="49.76197" lon="4.81037">
        <ele>266</ele>
        <time>2021-08-14T06:53:31.000Z</time>
      </trkpt>
      <trkpt lat="49.76197" lon="4.81029">
        <ele>266</ele>
        <time>2021-08-14T06:53:32.000Z</time>
      </trkpt>
      <trkpt lat="49.76197" lon="4.81022">
        <ele>266</ele>
        <time>2021-08-14T06:53:33.000Z</time>
      </trkpt>
      <trkpt lat="49.76197" lon="4.81014">
        <ele>266</ele>
        <time>2021-08-14T06:53:34.000Z</time>
      </trkpt>
      <trkpt lat="49.76197" lon="4.81008">
        <ele>266</ele>
        <time>2021-08-14T06:53:35.000Z</time>
      </trkpt>
      <trkpt lat="49.76198" lon="4.81001">
        <ele>266</ele>
        <time>2021-08-14T06:53:36.000Z</time>
      </trkpt>
      <trkpt lat="49.76199" lon="4.80995">
        <ele>266</ele>
        <time>2021-08-14T06:53:37.000Z</time>
      </trkpt>
      <trkpt lat="49.76199" lon="4.80988">
        <ele>266</ele>
        <time>2021-08-14T06:53:38.000Z</time>
      </trkpt>
      <trkpt lat="49.76199" lon="4.80982">
        <ele>266</ele>
        <time>2021-08-14T06:53:39.000Z</time>
      </trkpt>
      <trkpt lat="49.76199" lon="4.80975">
        <ele>266</ele>
        <time>2021-08-14T06:53:40.000Z</time>
      </trkpt>
      <trkpt lat="49.762" lon="4.80969">
        <ele>266</ele>
        <time>2021-08-14T06:53:41.000Z</time>
      </trkpt>
      <trkpt lat="49.762" lon="4.80963">
        <ele>266</ele>
        <time>2021-08-14T06:53:42.000Z</time>
      </trkpt>
      <trkpt lat="49.76201" lon="4.80958">
        <ele>266</ele>
        <time>2021-08-14T06:53:43.000Z</time>
      </trkpt>
      <trkpt lat="49.76201" lon="4.80953">
        <ele>266</ele>
        <time>2021-08-14T06:53:44.000Z</time>
      </trkpt>
      <trkpt lat="49.76201" lon="4.80947">
        <ele>266</ele>
        <time>2021-08-14T06:53:45.000Z</time>
      </trkpt>
      <trkpt lat="49.762" lon="4.80941">
        <ele>266</ele>
        <time>2021-08-14T06:53:46.000Z</time>
      </trkpt>
      <trkpt lat="49.76199" lon="4.80934">
        <ele>266</ele>
        <time>2021-08-14T06:53:47.000Z</time>
      </trkpt>
      <trkpt lat="49.76199" lon="4.80927">
        <ele>266</ele>
        <time>2021-08-14T06:53:48.000Z</time>
      </trkpt>
      <trkpt lat="49.762" lon="4.8092">
        <ele>266</ele>
        <time>2021-08-14T06:53:49.000Z</time>
      </trkpt>
      <trkpt lat="49.76202" lon="4.80914">
        <ele>266</ele>
        <time>2021-08-14T06:53:50.000Z</time>
      </trkpt>
      <trkpt lat="49.76205" lon="4.80911">
        <ele>266</ele>
        <time>2021-08-14T06:53:51.000Z</time>
      </trkpt>
      <trkpt lat="49.76209" lon="4.80908">
        <ele>266</ele>
        <time>2021-08-14T06:53:52.000Z</time>
      </trkpt>
      <trkpt lat="49.76213" lon="4.80907">
        <ele>266</ele>
        <time>2021-08-14T06:53:53.000Z</time>
      </trkpt>
      <trkpt lat="49.76217" lon="4.80908">
        <ele>266</ele>
        <time>2021-08-14T06:53:54.000Z</time>
      </trkpt>
      <trkpt lat="49.7622" lon="4.80908">
        <ele>266</ele>
        <time>2021-08-14T06:53:55.000Z</time>
      </trkpt>
      <trkpt lat="49.76222" lon="4.80909">
        <ele>266</ele>
        <time>2021-08-14T06:53:56.000Z</time>
      </trkpt>
      <trkpt lat="49.76225" lon="4.8091">
        <ele>266</ele>
        <time>2021-08-14T06:53:57.000Z</time>
      </trkpt>
      <trkpt lat="49.76227" lon="4.80911">
        <ele>266</ele>
        <time>2021-08-14T06:53:58.000Z</time>
      </trkpt>
      <trkpt lat="49.7623" lon="4.80912">
        <ele>266</ele>
        <time>2021-08-14T06:53:59.000Z</time>
      </trkpt>
      <trkpt lat="49.76233" lon="4.80913">
        <ele>267</ele>
        <time>2021-08-14T06:54:00.000Z</time>
      </trkpt>
      <trkpt lat="49.76235" lon="4.80914">
        <ele>267</ele>
        <time>2021-08-14T06:54:01.000Z</time>
      </trkpt>
      <trkpt lat="49.76238" lon="4.80915">
        <ele>267</ele>
        <time>2021-08-14T06:54:02.000Z</time>
      </trkpt>
      <trkpt lat="49.7624" lon="4.80916">
        <ele>267</ele>
        <time>2021-08-14T06:54:03.000Z</time>
      </trkpt>
      <trkpt lat="49.76243" lon="4.80917">
        <ele>267</ele>
        <time>2021-08-14T06:54:04.000Z</time>
      </trkpt>
      <trkpt lat="49.76245" lon="4.80918">
        <ele>267</ele>
        <time>2021-08-14T06:54:05.000Z</time>
      </trkpt>
      <trkpt lat="49.76248" lon="4.80919">
        <ele>267</ele>
        <time>2021-08-14T06:54:06.000Z</time>
      </trkpt>
      <trkpt lat="49.7625" lon="4.8092">
        <ele>268</ele>
        <time>2021-08-14T06:54:07.000Z</time>
      </trkpt>
      <trkpt lat="49.76252" lon="4.80921">
        <ele>268</ele>
        <time>2021-08-14T06:54:08.000Z</time>
      </trkpt>
      <trkpt lat="49.76255" lon="4.80922">
        <ele>268</ele>
        <time>2021-08-14T06:54:09.000Z</time>
      </trkpt>
      <trkpt lat="49.76257" lon="4.80923">
        <ele>268</ele>
        <time>2021-08-14T06:54:10.000Z</time>
      </trkpt>
      <trkpt lat="49.7626" lon="4.80924">
        <ele>268</ele>
        <time>2021-08-14T06:54:11.000Z</time>
      </trkpt>
      <trkpt lat="49.76262" lon="4.80925">
        <ele>268</ele>
        <time>2021-08-14T06:54:12.000Z</time>
      </trkpt>
      <trkpt lat="49.76264" lon="4.80926">
        <ele>268</ele>
        <time>2021-08-14T06:54:13.000Z</time>
      </trkpt>
      <trkpt lat="49.76266" lon="4.80927">
        <ele>268</ele>
        <time>2021-08-14T06:54:14.000Z</time>
      </trkpt>
      <trkpt lat="49.76269" lon="4.80928">
        <ele>269</ele>
        <time>2021-08-14T06:54:15.000Z</time>
      </trkpt>
      <trkpt lat="49.76271" lon="4.80929">
        <ele>269</ele>
        <time>2021-08-14T06:54:16.000Z</time>
      </trkpt>
      <trkpt lat="49.76274" lon="4.8093">
        <ele>269</ele>
        <time>2021-08-14T06:54:17.000Z</time>
      </trkpt>
      <trkpt lat="49.76276" lon="4.80931">
        <ele>269</ele>
        <time>2021-08-14T06:54:18.000Z</time>
      </trkpt>
      <trkpt lat="49.76278" lon="4.80932">
        <ele>269</ele>
        <time>2021-08-14T06:54:19.000Z</time>
      </trkpt>
      <trkpt lat="49.7628" lon="4.80933">
        <ele>270</ele>
        <time>2021-08-14T06:54:20.000Z</time>
      </trkpt>
      <trkpt lat="49.76283" lon="4.80934">
        <ele>270</ele>
        <time>2021-08-14T06:54:21.000Z</time>
      </trkpt>
      <trkpt lat="49.76285" lon="4.80935">
        <ele>270</ele>
        <time>2021-08-14T06:54:22.000Z</time>
      </trkpt>
      <trkpt lat="49.76288" lon="4.80936">
        <ele>270</ele>
        <time>2021-08-14T06:54:23.000Z</time>
      </trkpt>
      <trkpt lat="49.7629" lon="4.80937">
        <ele>270</ele>
        <time>2021-08-14T06:54:24.000Z</time>
      </trkpt>
      <trkpt lat="49.76292" lon="4.80938">
        <ele>270</ele>
        <time>2021-08-14T06:54:25.000Z</time>
      </trkpt>
      <trkpt lat="49.76295" lon="4.80939">
        <ele>271</ele>
        <time>2021-08-14T06:54:26.000Z</time>
      </trkpt>
      <trkpt lat="49.76297" lon="4.8094">
        <ele>271</ele>
        <time>2021-08-14T06:54:27.000Z</time>
      </trkpt>
      <trkpt lat="49.76299" lon="4.8094">
        <ele>271</ele>
        <time>2021-08-14T06:54:28.000Z</time>
      </trkpt>
      <trkpt lat="49.76301" lon="4.80939">
        <ele>271</ele>
        <time>2021-08-14T06:54:29.000Z</time>
      </trkpt>
      <trkpt lat="49.76303" lon="4.80938">
        <ele>271</ele>
        <time>2021-08-14T06:54:30.000Z</time>
      </trkpt>
      <trkpt lat="49.76305" lon="4.80936">
        <ele>271</ele>
        <time>2021-08-14T06:54:31.000Z</time>
      </trkpt>
      <trkpt lat="49.76306" lon="4.80934">
        <ele>271</ele>
        <time>2021-08-14T06:54:32.000Z</time>
      </trkpt>
      <trkpt lat="49.76307" lon="4.8093">
        <ele>271</ele>
        <time>2021-08-14T06:54:33.000Z</time>
      </trkpt>
      <trkpt lat="49.76308" lon="4.80925">
        <ele>271</ele>
        <time>2021-08-14T06:54:34.000Z</time>
      </trkpt>
      <trkpt lat="49.76308" lon="4.80919">
        <ele>271</ele>
        <time>2021-08-14T06:54:35.000Z</time>
      </trkpt>
      <trkpt lat="49.7631" lon="4.80914">
        <ele>272</ele>
        <time>2021-08-14T06:54:36.000Z</time>
      </trkpt>
      <trkpt lat="49.7631" lon="4.80909">
        <ele>272</ele>
        <time>2021-08-14T06:54:37.000Z</time>
      </trkpt>
      <trkpt lat="49.76311" lon="4.80904">
        <ele>272</ele>
        <time>2021-08-14T06:54:38.000Z</time>
      </trkpt>
      <trkpt lat="49.76311" lon="4.80898">
        <ele>272</ele>
        <time>2021-08-14T06:54:39.000Z</time>
      </trkpt>
      <trkpt lat="49.76311" lon="4.80892">
        <ele>272</ele>
        <time>2021-08-14T06:54:40.000Z</time>
      </trkpt>
      <trkpt lat="49.76312" lon="4.80887">
        <ele>272</ele>
        <time>2021-08-14T06:54:41.000Z</time>
      </trkpt>
      <trkpt lat="49.76312" lon="4.80882">
        <ele>272</ele>
        <time>2021-08-14T06:54:42.000Z</time>
      </trkpt>
      <trkpt lat="49.76313" lon="4.80876">
        <ele>272</ele>
        <time>2021-08-14T06:54:43.000Z</time>
      </trkpt>
      <trkpt lat="49.76314" lon="4.80871">
        <ele>272</ele>
        <time>2021-08-14T06:54:44.000Z</time>
      </trkpt>
      <trkpt lat="49.76314" lon="4.80865">
        <ele>272</ele>
        <time>2021-08-14T06:54:45.000Z</time>
      </trkpt>
      <trkpt lat="49.76315" lon="4.8086">
        <ele>272</ele>
        <time>2021-08-14T06:54:46.000Z</time>
      </trkpt>
      <trkpt lat="49.76315" lon="4.80854">
        <ele>272</ele>
        <time>2021-08-14T06:54:47.000Z</time>
      </trkpt>
      <trkpt lat="49.76315" lon="4.80849">
        <ele>272</ele>
        <time>2021-08-14T06:54:48.000Z</time>
      </trkpt>
      <trkpt lat="49.76315" lon="4.80844">
        <ele>272</ele>
        <time>2021-08-14T06:54:49.000Z</time>
      </trkpt>
      <trkpt lat="49.76315" lon="4.80838">
        <ele>272</ele>
        <time>2021-08-14T06:54:50.000Z</time>
      </trkpt>
      <trkpt lat="49.76315" lon="4.80832">
        <ele>272</ele>
        <time>2021-08-14T06:54:51.000Z</time>
      </trkpt>
      <trkpt lat="49.76314" lon="4.80826">
        <ele>272</ele>
        <time>2021-08-14T06:54:52.000Z</time>
      </trkpt>
      <trkpt lat="49.76314" lon="4.8082">
        <ele>272</ele>
        <time>2021-08-14T06:54:53.000Z</time>
      </trkpt>
      <trkpt lat="49.76314" lon="4.80814">
        <ele>272</ele>
        <time>2021-08-14T06:54:54.000Z</time>
      </trkpt>
      <trkpt lat="49.76313" lon="4.80808">
        <ele>272</ele>
        <time>2021-08-14T06:54:55.000Z</time>
      </trkpt>
      <trkpt lat="49.76313" lon="4.80802">
        <ele>272</ele>
        <time>2021-08-14T06:54:56.000Z</time>
      </trkpt>
      <trkpt lat="49.76312" lon="4.80795">
        <ele>272</ele>
        <time>2021-08-14T06:54:57.000Z</time>
      </trkpt>
      <trkpt lat="49.76312" lon="4.80789">
        <ele>272</ele>
        <time>2021-08-14T06:54:58.000Z</time>
      </trkpt>
      <trkpt lat="49.76312" lon="4.80783">
        <ele>272</ele>
        <time>2021-08-14T06:54:59.000Z</time>
      </trkpt>
      <trkpt lat="49.76313" lon="4.80777">
        <ele>272</ele>
        <time>2021-08-14T06:55:00.000Z</time>
      </trkpt>
      <trkpt lat="49.76313" lon="4.80771">
        <ele>272</ele>
        <time>2021-08-14T06:55:01.000Z</time>
      </trkpt>
      <trkpt lat="49.76313" lon="4.80765">
        <ele>272</ele>
        <time>2021-08-14T06:55:02.000Z</time>
      </trkpt>
      <trkpt lat="49.76314" lon="4.80759">
        <ele>272</ele>
        <time>2021-08-14T06:55:03.000Z</time>
      </trkpt>
      <trkpt lat="49.76315" lon="4.80754">
        <ele>272</ele>
        <time>2021-08-14T06:55:04.000Z</time>
      </trkpt>
      <trkpt lat="49.76316" lon="4.8075">
        <ele>272</ele>
        <time>2021-08-14T06:55:05.000Z</time>
      </trkpt>
      <trkpt lat="49.76317" lon="4.80745">
        <ele>272</ele>
        <time>2021-08-14T06:55:06.000Z</time>
      </trkpt>
      <trkpt lat="49.76318" lon="4.8074">
        <ele>272</ele>
        <time>2021-08-14T06:55:07.000Z</time>
      </trkpt>
      <trkpt lat="49.7632" lon="4.80736">
        <ele>272</ele>
        <time>2021-08-14T06:55:08.000Z</time>
      </trkpt>
      <trkpt lat="49.76321" lon="4.80731">
        <ele>272</ele>
        <time>2021-08-14T06:55:09.000Z</time>
      </trkpt>
      <trkpt lat="49.76323" lon="4.80727">
        <ele>273</ele>
        <time>2021-08-14T06:55:10.000Z</time>
      </trkpt>
      <trkpt lat="49.76326" lon="4.80722">
        <ele>273</ele>
        <time>2021-08-14T06:55:11.000Z</time>
      </trkpt>
      <trkpt lat="49.76328" lon="4.80717">
        <ele>273</ele>
        <time>2021-08-14T06:55:12.000Z</time>
      </trkpt>
      <trkpt lat="49.7633" lon="4.80713">
        <ele>273</ele>
        <time>2021-08-14T06:55:13.000Z</time>
      </trkpt>
      <trkpt lat="49.76333" lon="4.80708">
        <ele>273</ele>
        <time>2021-08-14T06:55:14.000Z</time>
      </trkpt>
      <trkpt lat="49.76335" lon="4.80704">
        <ele>273</ele>
        <time>2021-08-14T06:55:15.000Z</time>
      </trkpt>
      <trkpt lat="49.76338" lon="4.80699">
        <ele>273</ele>
        <time>2021-08-14T06:55:16.000Z</time>
      </trkpt>
      <trkpt lat="49.7634" lon="4.80695">
        <ele>273</ele>
        <time>2021-08-14T06:55:17.000Z</time>
      </trkpt>
      <trkpt lat="49.76343" lon="4.80691">
        <ele>272</ele>
        <time>2021-08-14T06:55:18.000Z</time>
      </trkpt>
      <trkpt lat="49.76345" lon="4.80687">
        <ele>272</ele>
        <time>2021-08-14T06:55:19.000Z</time>
      </trkpt>
      <trkpt lat="49.76348" lon="4.80683">
        <ele>272</ele>
        <time>2021-08-14T06:55:20.000Z</time>
      </trkpt>
      <trkpt lat="49.7635" lon="4.80678">
        <ele>272</ele>
        <time>2021-08-14T06:55:21.000Z</time>
      </trkpt>
      <trkpt lat="49.76353" lon="4.80674">
        <ele>272</ele>
        <time>2021-08-14T06:55:22.000Z</time>
      </trkpt>
      <trkpt lat="49.76356" lon="4.8067">
        <ele>272</ele>
        <time>2021-08-14T06:55:23.000Z</time>
      </trkpt>
      <trkpt lat="49.76359" lon="4.80665">
        <ele>272</ele>
        <time>2021-08-14T06:55:24.000Z</time>
      </trkpt>
      <trkpt lat="49.76362" lon="4.80661">
        <ele>272</ele>
        <time>2021-08-14T06:55:25.000Z</time>
      </trkpt>
      <trkpt lat="49.76366" lon="4.80656">
        <ele>272</ele>
        <time>2021-08-14T06:55:26.000Z</time>
      </trkpt>
      <trkpt lat="49.7637" lon="4.80653">
        <ele>272</ele>
        <time>2021-08-14T06:55:27.000Z</time>
      </trkpt>
      <trkpt lat="49.76373" lon="4.8065">
        <ele>272</ele>
        <time>2021-08-14T06:55:28.000Z</time>
      </trkpt>
      <trkpt lat="49.76377" lon="4.80646">
        <ele>272</ele>
        <time>2021-08-14T06:55:29.000Z</time>
      </trkpt>
      <trkpt lat="49.7638" lon="4.80643">
        <ele>272</ele>
        <time>2021-08-14T06:55:30.000Z</time>
      </trkpt>
      <trkpt lat="49.76384" lon="4.8064">
        <ele>272</ele>
        <time>2021-08-14T06:55:31.000Z</time>
      </trkpt>
      <trkpt lat="49.76388" lon="4.80636">
        <ele>273</ele>
        <time>2021-08-14T06:55:32.000Z</time>
      </trkpt>
      <trkpt lat="49.76392" lon="4.80633">
        <ele>273</ele>
        <time>2021-08-14T06:55:33.000Z</time>
      </trkpt>
      <trkpt lat="49.76396" lon="4.8063">
        <ele>273</ele>
        <time>2021-08-14T06:55:34.000Z</time>
      </trkpt>
      <trkpt lat="49.764" lon="4.80627">
        <ele>273</ele>
        <time>2021-08-14T06:55:35.000Z</time>
      </trkpt>
      <trkpt lat="49.76404" lon="4.80624">
        <ele>273</ele>
        <time>2021-08-14T06:55:36.000Z</time>
      </trkpt>
      <trkpt lat="49.76408" lon="4.80621">
        <ele>273</ele>
        <time>2021-08-14T06:55:37.000Z</time>
      </trkpt>
      <trkpt lat="49.76412" lon="4.80619">
        <ele>273</ele>
        <time>2021-08-14T06:55:38.000Z</time>
      </trkpt>
      <trkpt lat="49.76417" lon="4.80616">
        <ele>273</ele>
        <time>2021-08-14T06:55:39.000Z</time>
      </trkpt>
      <trkpt lat="49.76421" lon="4.80613">
        <ele>273</ele>
        <time>2021-08-14T06:55:40.000Z</time>
      </trkpt>
      <trkpt lat="49.76425" lon="4.80611">
        <ele>273</ele>
        <time>2021-08-14T06:55:41.000Z</time>
      </trkpt>
      <trkpt lat="49.76429" lon="4.80608">
        <ele>273</ele>
        <time>2021-08-14T06:55:42.000Z</time>
      </trkpt>
      <trkpt lat="49.76433" lon="4.80605">
        <ele>273</ele>
        <time>2021-08-14T06:55:43.000Z</time>
      </trkpt>
      <trkpt lat="49.76438" lon="4.80602">
        <ele>273</ele>
        <time>2021-08-14T06:55:44.000Z</time>
      </trkpt>
      <trkpt lat="49.76442" lon="4.80598">
        <ele>273</ele>
        <time>2021-08-14T06:55:45.000Z</time>
      </trkpt>
      <trkpt lat="49.76447" lon="4.80595">
        <ele>273</ele>
        <time>2021-08-14T06:55:46.000Z</time>
      </trkpt>
      <trkpt lat="49.76451" lon="4.80592">
        <ele>273</ele>
        <time>2021-08-14T06:55:47.000Z</time>
      </trkpt>
      <trkpt lat="49.76455" lon="4.80588">
        <ele>273</ele>
        <time>2021-08-14T06:55:48.000Z</time>
      </trkpt>
      <trkpt lat="49.76459" lon="4.80585">
        <ele>273</ele>
        <time>2021-08-14T06:55:49.000Z</time>
      </trkpt>
      <trkpt lat="49.76463" lon="4.80582">
        <ele>273</ele>
        <time>2021-08-14T06:55:50.000Z</time>
      </trkpt>
      <trkpt lat="49.76467" lon="4.80578">
        <ele>273</ele>
        <time>2021-08-14T06:55:51.000Z</time>
      </trkpt>
      <trkpt lat="49.76471" lon="4.80574">
        <ele>273</ele>
        <time>2021-08-14T06:55:52.000Z</time>
      </trkpt>
      <trkpt lat="49.76475" lon="4.80571">
        <ele>273</ele>
        <time>2021-08-14T06:55:53.000Z</time>
      </trkpt>
      <trkpt lat="49.76479" lon="4.80567">
        <ele>273</ele>
        <time>2021-08-14T06:55:54.000Z</time>
      </trkpt>
      <trkpt lat="49.76482" lon="4.80565">
        <ele>273</ele>
        <time>2021-08-14T06:55:55.000Z</time>
      </trkpt>
      <trkpt lat="49.76486" lon="4.80563">
        <ele>273</ele>
        <time>2021-08-14T06:55:56.000Z</time>
      </trkpt>
      <trkpt lat="49.76489" lon="4.8056">
        <ele>273</ele>
        <time>2021-08-14T06:55:57.000Z</time>
      </trkpt>
      <trkpt lat="49.76493" lon="4.80556">
        <ele>273</ele>
        <time>2021-08-14T06:55:58.000Z</time>
      </trkpt>
      <trkpt lat="49.76496" lon="4.80552">
        <ele>273</ele>
        <time>2021-08-14T06:55:59.000Z</time>
      </trkpt>
      <trkpt lat="49.765" lon="4.80549">
        <ele>273</ele>
        <time>2021-08-14T06:56:00.000Z</time>
      </trkpt>
      <trkpt lat="49.76504" lon="4.80545">
        <ele>273</ele>
        <time>2021-08-14T06:56:01.000Z</time>
      </trkpt>
      <trkpt lat="49.76507" lon="4.80541">
        <ele>273</ele>
        <time>2021-08-14T06:56:02.000Z</time>
      </trkpt>
      <trkpt lat="49.76511" lon="4.80537">
        <ele>273</ele>
        <time>2021-08-14T06:56:03.000Z</time>
      </trkpt>
      <trkpt lat="49.76515" lon="4.80533">
        <ele>273</ele>
        <time>2021-08-14T06:56:04.000Z</time>
      </trkpt>
      <trkpt lat="49.76518" lon="4.8053">
        <ele>273</ele>
        <time>2021-08-14T06:56:05.000Z</time>
      </trkpt>
      <trkpt lat="49.76521" lon="4.80526">
        <ele>273</ele>
        <time>2021-08-14T06:56:06.000Z</time>
      </trkpt>
      <trkpt lat="49.76524" lon="4.80523">
        <ele>273</ele>
        <time>2021-08-14T06:56:07.000Z</time>
      </trkpt>
      <trkpt lat="49.76527" lon="4.80522">
        <ele>273</ele>
        <time>2021-08-14T06:56:08.000Z</time>
      </trkpt>
      <trkpt lat="49.76528" lon="4.80522">
        <ele>273</ele>
        <time>2021-08-14T06:56:09.000Z</time>
      </trkpt>
      <trkpt lat="49.76529" lon="4.80521">
        <ele>274</ele>
        <time>2021-08-14T06:56:10.000Z</time>
      </trkpt>
      <trkpt lat="49.76529" lon="4.80521">
        <ele>274</ele>
        <time>2021-08-14T06:56:11.000Z</time>
      </trkpt>
      <trkpt lat="49.7653" lon="4.80521">
        <ele>274</ele>
        <time>2021-08-14T06:56:12.000Z</time>
      </trkpt>
      <trkpt lat="49.76533" lon="4.8052">
        <ele>274</ele>
        <time>2021-08-14T06:56:13.000Z</time>
      </trkpt>
      <trkpt lat="49.76536" lon="4.8052">
        <ele>274</ele>
        <time>2021-08-14T06:56:14.000Z</time>
      </trkpt>
      <trkpt lat="49.7654" lon="4.8052">
        <ele>274</ele>
        <time>2021-08-14T06:56:15.000Z</time>
      </trkpt>
      <trkpt lat="49.76542" lon="4.80519">
        <ele>274</ele>
        <time>2021-08-14T06:56:16.000Z</time>
      </trkpt>
      <trkpt lat="49.76545" lon="4.80518">
        <ele>274</ele>
        <time>2021-08-14T06:56:17.000Z</time>
      </trkpt>
      <trkpt lat="49.76548" lon="4.80517">
        <ele>275</ele>
        <time>2021-08-14T06:56:18.000Z</time>
      </trkpt>
      <trkpt lat="49.7655" lon="4.80515">
        <ele>275</ele>
        <time>2021-08-14T06:56:19.000Z</time>
      </trkpt>
      <trkpt lat="49.76553" lon="4.80513">
        <ele>275</ele>
        <time>2021-08-14T06:56:20.000Z</time>
      </trkpt>
      <trkpt lat="49.76556" lon="4.80512">
        <ele>275</ele>
        <time>2021-08-14T06:56:21.000Z</time>
      </trkpt>
      <trkpt lat="49.76558" lon="4.80511">
        <ele>275</ele>
        <time>2021-08-14T06:56:22.000Z</time>
      </trkpt>
      <trkpt lat="49.76561" lon="4.8051">
        <ele>275</ele>
        <time>2021-08-14T06:56:23.000Z</time>
      </trkpt>
      <trkpt lat="49.76564" lon="4.80509">
        <ele>276</ele>
        <time>2021-08-14T06:56:24.000Z</time>
      </trkpt>
      <trkpt lat="49.76567" lon="4.80507">
        <ele>276</ele>
        <time>2021-08-14T06:56:25.000Z</time>
      </trkpt>
      <trkpt lat="49.7657" lon="4.80506">
        <ele>276</ele>
        <time>2021-08-14T06:56:26.000Z</time>
      </trkpt>
      <trkpt lat="49.76573" lon="4.80504">
        <ele>276</ele>
        <time>2021-08-14T06:56:27.000Z</time>
      </trkpt>
      <trkpt lat="49.76575" lon="4.80504">
        <ele>276</ele>
        <time>2021-08-14T06:56:28.000Z</time>
      </trkpt>
      <trkpt lat="49.76578" lon="4.80502">
        <ele>276</ele>
        <time>2021-08-14T06:56:29.000Z</time>
      </trkpt>
      <trkpt lat="49.7658" lon="4.80501">
        <ele>277</ele>
        <time>2021-08-14T06:56:30.000Z</time>
      </trkpt>
      <trkpt lat="49.76582" lon="4.80499">
        <ele>277</ele>
        <time>2021-08-14T06:56:31.000Z</time>
      </trkpt>
      <trkpt lat="49.76584" lon="4.80498">
        <ele>277</ele>
        <time>2021-08-14T06:56:32.000Z</time>
      </trkpt>
      <trkpt lat="49.76586" lon="4.80497">
        <ele>277</ele>
        <time>2021-08-14T06:56:33.000Z</time>
      </trkpt>
      <trkpt lat="49.76589" lon="4.80495">
        <ele>277</ele>
        <time>2021-08-14T06:56:34.000Z</time>
      </trkpt>
      <trkpt lat="49.76592" lon="4.80494">
        <ele>277</ele>
        <time>2021-08-14T06:56:35.000Z</time>
      </trkpt>
      <trkpt lat="49.76594" lon="4.80492">
        <ele>278</ele>
        <time>2021-08-14T06:56:36.000Z</time>
      </trkpt>
      <trkpt lat="49.76597" lon="4.80491">
        <ele>278</ele>
        <time>2021-08-14T06:56:37.000Z</time>
      </trkpt>
      <trkpt lat="49.76599" lon="4.8049">
        <ele>278</ele>
        <time>2021-08-14T06:56:38.000Z</time>
      </trkpt>
      <trkpt lat="49.76602" lon="4.80489">
        <ele>278</ele>
        <time>2021-08-14T06:56:39.000Z</time>
      </trkpt>
      <trkpt lat="49.76605" lon="4.80488">
        <ele>278</ele>
        <time>2021-08-14T06:56:40.000Z</time>
      </trkpt>
      <trkpt lat="49.76608" lon="4.80487">
        <ele>279</ele>
        <time>2021-08-14T06:56:41.000Z</time>
      </trkpt>
      <trkpt lat="49.76611" lon="4.80486">
        <ele>279</ele>
        <time>2021-08-14T06:56:42.000Z</time>
      </trkpt>
      <trkpt lat="49.76614" lon="4.80485">
        <ele>279</ele>
        <time>2021-08-14T06:56:43.000Z</time>
      </trkpt>
      <trkpt lat="49.76616" lon="4.80484">
        <ele>279</ele>
        <time>2021-08-14T06:56:44.000Z</time>
      </trkpt>
      <trkpt lat="49.76619" lon="4.80484">
        <ele>279</ele>
        <time>2021-08-14T06:56:45.000Z</time>
      </trkpt>
      <trkpt lat="49.76622" lon="4.80482">
        <ele>279</ele>
        <time>2021-08-14T06:56:46.000Z</time>
      </trkpt>
      <trkpt lat="49.76624" lon="4.8048">
        <ele>280</ele>
        <time>2021-08-14T06:56:47.000Z</time>
      </trkpt>
      <trkpt lat="49.76627" lon="4.80479">
        <ele>280</ele>
        <time>2021-08-14T06:56:48.000Z</time>
      </trkpt>
      <trkpt lat="49.7663" lon="4.80478">
        <ele>280</ele>
        <time>2021-08-14T06:56:49.000Z</time>
      </trkpt>
      <trkpt lat="49.76633" lon="4.80477">
        <ele>280</ele>
        <time>2021-08-14T06:56:50.000Z</time>
      </trkpt>
      <trkpt lat="49.76637" lon="4.80477">
        <ele>280</ele>
        <time>2021-08-14T06:56:51.000Z</time>
      </trkpt>
      <trkpt lat="49.76641" lon="4.80477">
        <ele>281</ele>
        <time>2021-08-14T06:56:52.000Z</time>
      </trkpt>
      <trkpt lat="49.76645" lon="4.80477">
        <ele>281</ele>
        <time>2021-08-14T06:56:53.000Z</time>
      </trkpt>
      <trkpt lat="49.76649" lon="4.80477">
        <ele>281</ele>
        <time>2021-08-14T06:56:54.000Z</time>
      </trkpt>
      <trkpt lat="49.76654" lon="4.80477">
        <ele>281</ele>
        <time>2021-08-14T06:56:55.000Z</time>
      </trkpt>
      <trkpt lat="49.76659" lon="4.80478">
        <ele>282</ele>
        <time>2021-08-14T06:56:56.000Z</time>
      </trkpt>
      <trkpt lat="49.76663" lon="4.80479">
        <ele>282</ele>
        <time>2021-08-14T06:56:57.000Z</time>
      </trkpt>
      <trkpt lat="49.76668" lon="4.8048">
        <ele>282</ele>
        <time>2021-08-14T06:56:58.000Z</time>
      </trkpt>
      <trkpt lat="49.76672" lon="4.80481">
        <ele>282</ele>
        <time>2021-08-14T06:56:59.000Z</time>
      </trkpt>
      <trkpt lat="49.76676" lon="4.80481">
        <ele>282</ele>
        <time>2021-08-14T06:57:00.000Z</time>
      </trkpt>
      <trkpt lat="49.7668" lon="4.80481">
        <ele>282</ele>
        <time>2021-08-14T06:57:01.000Z</time>
      </trkpt>
      <trkpt lat="49.76684" lon="4.8048">
        <ele>282</ele>
        <time>2021-08-14T06:57:02.000Z</time>
      </trkpt>
      <trkpt lat="49.76689" lon="4.80479">
        <ele>282</ele>
        <time>2021-08-14T06:57:03.000Z</time>
      </trkpt>
      <trkpt lat="49.76693" lon="4.80478">
        <ele>282</ele>
        <time>2021-08-14T06:57:04.000Z</time>
      </trkpt>
      <trkpt lat="49.76697" lon="4.80477">
        <ele>282</ele>
        <time>2021-08-14T06:57:05.000Z</time>
      </trkpt>
      <trkpt lat="49.76701" lon="4.80475">
        <ele>282</ele>
        <time>2021-08-14T06:57:06.000Z</time>
      </trkpt>
      <trkpt lat="49.76706" lon="4.80474">
        <ele>282</ele>
        <time>2021-08-14T06:57:07.000Z</time>
      </trkpt>
      <trkpt lat="49.7671" lon="4.80472">
        <ele>282</ele>
        <time>2021-08-14T06:57:08.000Z</time>
      </trkpt>
      <trkpt lat="49.76714" lon="4.80471">
        <ele>282</ele>
        <time>2021-08-14T06:57:09.000Z</time>
      </trkpt>
      <trkpt lat="49.76719" lon="4.8047">
        <ele>282</ele>
        <time>2021-08-14T06:57:10.000Z</time>
      </trkpt>
      <trkpt lat="49.76723" lon="4.80468">
        <ele>282</ele>
        <time>2021-08-14T06:57:11.000Z</time>
      </trkpt>
      <trkpt lat="49.76728" lon="4.80467">
        <ele>282</ele>
        <time>2021-08-14T06:57:12.000Z</time>
      </trkpt>
      <trkpt lat="49.76732" lon="4.80466">
        <ele>282</ele>
        <time>2021-08-14T06:57:13.000Z</time>
      </trkpt>
      <trkpt lat="49.76736" lon="4.80465">
        <ele>282</ele>
        <time>2021-08-14T06:57:14.000Z</time>
      </trkpt>
      <trkpt lat="49.7674" lon="4.80463">
        <ele>282</ele>
        <time>2021-08-14T06:57:15.000Z</time>
      </trkpt>
      <trkpt lat="49.76744" lon="4.80461">
        <ele>281</ele>
        <time>2021-08-14T06:57:16.000Z</time>
      </trkpt>
      <trkpt lat="49.76747" lon="4.8046">
        <ele>281</ele>
        <time>2021-08-14T06:57:17.000Z</time>
      </trkpt>
      <trkpt lat="49.76751" lon="4.80459">
        <ele>281</ele>
        <time>2021-08-14T06:57:18.000Z</time>
      </trkpt>
      <trkpt lat="49.76754" lon="4.80458">
        <ele>281</ele>
        <time>2021-08-14T06:57:19.000Z</time>
      </trkpt>
      <trkpt lat="49.76759" lon="4.80457">
        <ele>281</ele>
        <time>2021-08-14T06:57:20.000Z</time>
      </trkpt>
      <trkpt lat="49.76763" lon="4.80457">
        <ele>281</ele>
        <time>2021-08-14T06:57:21.000Z</time>
      </trkpt>
      <trkpt lat="49.76767" lon="4.80456">
        <ele>281</ele>
        <time>2021-08-14T06:57:22.000Z</time>
      </trkpt>
      <trkpt lat="49.76772" lon="4.80455">
        <ele>281</ele>
        <time>2021-08-14T06:57:23.000Z</time>
      </trkpt>
      <trkpt lat="49.76776" lon="4.80455">
        <ele>281</ele>
        <time>2021-08-14T06:57:24.000Z</time>
      </trkpt>
      <trkpt lat="49.76779" lon="4.80454">
        <ele>281</ele>
        <time>2021-08-14T06:57:25.000Z</time>
      </trkpt>
      <trkpt lat="49.76783" lon="4.80452">
        <ele>281</ele>
        <time>2021-08-14T06:57:26.000Z</time>
      </trkpt>
      <trkpt lat="49.76787" lon="4.80451">
        <ele>281</ele>
        <time>2021-08-14T06:57:27.000Z</time>
      </trkpt>
      <trkpt lat="49.76792" lon="4.80449">
        <ele>281</ele>
        <time>2021-08-14T06:57:28.000Z</time>
      </trkpt>
      <trkpt lat="49.76796" lon="4.80447">
        <ele>281</ele>
        <time>2021-08-14T06:57:29.000Z</time>
      </trkpt>
      <trkpt lat="49.768" lon="4.80445">
        <ele>281</ele>
        <time>2021-08-14T06:57:30.000Z</time>
      </trkpt>
      <trkpt lat="49.76804" lon="4.80443">
        <ele>281</ele>
        <time>2021-08-14T06:57:31.000Z</time>
      </trkpt>
      <trkpt lat="49.76808" lon="4.8044">
        <ele>282</ele>
        <time>2021-08-14T06:57:32.000Z</time>
      </trkpt>
      <trkpt lat="49.76812" lon="4.80438">
        <ele>282</ele>
        <time>2021-08-14T06:57:33.000Z</time>
      </trkpt>
      <trkpt lat="49.76817" lon="4.80435">
        <ele>282</ele>
        <time>2021-08-14T06:57:34.000Z</time>
      </trkpt>
      <trkpt lat="49.7682" lon="4.80432">
        <ele>282</ele>
        <time>2021-08-14T06:57:35.000Z</time>
      </trkpt>
      <trkpt lat="49.76824" lon="4.80429">
        <ele>282</ele>
        <time>2021-08-14T06:57:36.000Z</time>
      </trkpt>
      <trkpt lat="49.76828" lon="4.80426">
        <ele>282</ele>
        <time>2021-08-14T06:57:37.000Z</time>
      </trkpt>
      <trkpt lat="49.76831" lon="4.80424">
        <ele>282</ele>
        <time>2021-08-14T06:57:38.000Z</time>
      </trkpt>
      <trkpt lat="49.76834" lon="4.80422">
        <ele>282</ele>
        <time>2021-08-14T06:57:39.000Z</time>
      </trkpt>
      <trkpt lat="49.76836" lon="4.8042">
        <ele>282</ele>
        <time>2021-08-14T06:57:40.000Z</time>
      </trkpt>
      <trkpt lat="49.76839" lon="4.80416">
        <ele>283</ele>
        <time>2021-08-14T06:57:41.000Z</time>
      </trkpt>
      <trkpt lat="49.76843" lon="4.80413">
        <ele>283</ele>
        <time>2021-08-14T06:57:42.000Z</time>
      </trkpt>
      <trkpt lat="49.76846" lon="4.80411">
        <ele>283</ele>
        <time>2021-08-14T06:57:43.000Z</time>
      </trkpt>
      <trkpt lat="49.7685" lon="4.80409">
        <ele>283</ele>
        <time>2021-08-14T06:57:44.000Z</time>
      </trkpt>
      <trkpt lat="49.76855" lon="4.80406">
        <ele>283</ele>
        <time>2021-08-14T06:57:45.000Z</time>
      </trkpt>
      <trkpt lat="49.76859" lon="4.80404">
        <ele>282</ele>
        <time>2021-08-14T06:57:46.000Z</time>
      </trkpt>
      <trkpt lat="49.76864" lon="4.80402">
        <ele>283</ele>
        <time>2021-08-14T06:57:47.000Z</time>
      </trkpt>
      <trkpt lat="49.76868" lon="4.80399">
        <ele>283</ele>
        <time>2021-08-14T06:57:48.000Z</time>
      </trkpt>
      <trkpt lat="49.76872" lon="4.80397">
        <ele>283</ele>
        <time>2021-08-14T06:57:49.000Z</time>
      </trkpt>
      <trkpt lat="49.76876" lon="4.80394">
        <ele>283</ele>
        <time>2021-08-14T06:57:50.000Z</time>
      </trkpt>
      <trkpt lat="49.7688" lon="4.80391">
        <ele>283</ele>
        <time>2021-08-14T06:57:51.000Z</time>
      </trkpt>
      <trkpt lat="49.76883" lon="4.80388">
        <ele>283</ele>
        <time>2021-08-14T06:57:52.000Z</time>
      </trkpt>
      <trkpt lat="49.76886" lon="4.80386">
        <ele>283</ele>
        <time>2021-08-14T06:57:53.000Z</time>
      </trkpt>
      <trkpt lat="49.7689" lon="4.80383">
        <ele>283</ele>
        <time>2021-08-14T06:57:54.000Z</time>
      </trkpt>
      <trkpt lat="49.76894" lon="4.80379">
        <ele>283</ele>
        <time>2021-08-14T06:57:55.000Z</time>
      </trkpt>
      <trkpt lat="49.76898" lon="4.80374">
        <ele>283</ele>
        <time>2021-08-14T06:57:56.000Z</time>
      </trkpt>
      <trkpt lat="49.76901" lon="4.8037">
        <ele>283</ele>
        <time>2021-08-14T06:57:57.000Z</time>
      </trkpt>
      <trkpt lat="49.76905" lon="4.80365">
        <ele>283</ele>
        <time>2021-08-14T06:57:58.000Z</time>
      </trkpt>
      <trkpt lat="49.76909" lon="4.80359">
        <ele>283</ele>
        <time>2021-08-14T06:57:59.000Z</time>
      </trkpt>
      <trkpt lat="49.76912" lon="4.80354">
        <ele>283</ele>
        <time>2021-08-14T06:58:00.000Z</time>
      </trkpt>
      <trkpt lat="49.76916" lon="4.80349">
        <ele>283</ele>
        <time>2021-08-14T06:58:01.000Z</time>
      </trkpt>
      <trkpt lat="49.76919" lon="4.80345">
        <ele>283</ele>
        <time>2021-08-14T06:58:02.000Z</time>
      </trkpt>
      <trkpt lat="49.76923" lon="4.80341">
        <ele>283</ele>
        <time>2021-08-14T06:58:03.000Z</time>
      </trkpt>
      <trkpt lat="49.76927" lon="4.80338">
        <ele>283</ele>
        <time>2021-08-14T06:58:04.000Z</time>
      </trkpt>
      <trkpt lat="49.7693" lon="4.80335">
        <ele>283</ele>
        <time>2021-08-14T06:58:05.000Z</time>
      </trkpt>
      <trkpt lat="49.76933" lon="4.80333">
        <ele>283</ele>
        <time>2021-08-14T06:58:06.000Z</time>
      </trkpt>
      <trkpt lat="49.76935" lon="4.8033">
        <ele>284</ele>
        <time>2021-08-14T06:58:07.000Z</time>
      </trkpt>
      <trkpt lat="49.76938" lon="4.80328">
        <ele>284</ele>
        <time>2021-08-14T06:58:08.000Z</time>
      </trkpt>
      <trkpt lat="49.76941" lon="4.80325">
        <ele>284</ele>
        <time>2021-08-14T06:58:09.000Z</time>
      </trkpt>
      <trkpt lat="49.76943" lon="4.80323">
        <ele>284</ele>
        <time>2021-08-14T06:58:10.000Z</time>
      </trkpt>
      <trkpt lat="49.76945" lon="4.8032">
        <ele>284</ele>
        <time>2021-08-14T06:58:11.000Z</time>
      </trkpt>
      <trkpt lat="49.76947" lon="4.80318">
        <ele>284</ele>
        <time>2021-08-14T06:58:12.000Z</time>
      </trkpt>
      <trkpt lat="49.76949" lon="4.80315">
        <ele>284</ele>
        <time>2021-08-14T06:58:13.000Z</time>
      </trkpt>
      <trkpt lat="49.76951" lon="4.80313">
        <ele>284</ele>
        <time>2021-08-14T06:58:14.000Z</time>
      </trkpt>
      <trkpt lat="49.76952" lon="4.8031">
        <ele>284</ele>
        <time>2021-08-14T06:58:15.000Z</time>
      </trkpt>
      <trkpt lat="49.76954" lon="4.80307">
        <ele>284</ele>
        <time>2021-08-14T06:58:16.000Z</time>
      </trkpt>
      <trkpt lat="49.76956" lon="4.80305">
        <ele>284</ele>
        <time>2021-08-14T06:58:17.000Z</time>
      </trkpt>
      <trkpt lat="49.76958" lon="4.80302">
        <ele>285</ele>
        <time>2021-08-14T06:58:18.000Z</time>
      </trkpt>
      <trkpt lat="49.76959" lon="4.803">
        <ele>285</ele>
        <time>2021-08-14T06:58:19.000Z</time>
      </trkpt>
      <trkpt lat="49.76961" lon="4.80297">
        <ele>285</ele>
        <time>2021-08-14T06:58:20.000Z</time>
      </trkpt>
      <trkpt lat="49.76963" lon="4.80294">
        <ele>285</ele>
        <time>2021-08-14T06:58:21.000Z</time>
      </trkpt>
      <trkpt lat="49.76965" lon="4.80291">
        <ele>285</ele>
        <time>2021-08-14T06:58:22.000Z</time>
      </trkpt>
      <trkpt lat="49.76966" lon="4.80288">
        <ele>285</ele>
        <time>2021-08-14T06:58:23.000Z</time>
      </trkpt>
      <trkpt lat="49.76968" lon="4.80286">
        <ele>285</ele>
        <time>2021-08-14T06:58:24.000Z</time>
      </trkpt>
      <trkpt lat="49.7697" lon="4.80284">
        <ele>285</ele>
        <time>2021-08-14T06:58:25.000Z</time>
      </trkpt>
      <trkpt lat="49.76972" lon="4.80282">
        <ele>285</ele>
        <time>2021-08-14T06:58:26.000Z</time>
      </trkpt>
      <trkpt lat="49.76974" lon="4.80279">
        <ele>285</ele>
        <time>2021-08-14T06:58:27.000Z</time>
      </trkpt>
      <trkpt lat="49.76976" lon="4.80277">
        <ele>285</ele>
        <time>2021-08-14T06:58:28.000Z</time>
      </trkpt>
      <trkpt lat="49.76978" lon="4.80274">
        <ele>286</ele>
        <time>2021-08-14T06:58:29.000Z</time>
      </trkpt>
      <trkpt lat="49.7698" lon="4.80271">
        <ele>286</ele>
        <time>2021-08-14T06:58:30.000Z</time>
      </trkpt>
      <trkpt lat="49.76982" lon="4.80268">
        <ele>286</ele>
        <time>2021-08-14T06:58:31.000Z</time>
      </trkpt>
      <trkpt lat="49.76985" lon="4.80266">
        <ele>286</ele>
        <time>2021-08-14T06:58:32.000Z</time>
      </trkpt>
      <trkpt lat="49.76987" lon="4.80263">
        <ele>286</ele>
        <time>2021-08-14T06:58:33.000Z</time>
      </trkpt>
      <trkpt lat="49.76989" lon="4.80261">
        <ele>286</ele>
        <time>2021-08-14T06:58:34.000Z</time>
      </trkpt>
      <trkpt lat="49.76992" lon="4.80258">
        <ele>286</ele>
        <time>2021-08-14T06:58:35.000Z</time>
      </trkpt>
      <trkpt lat="49.76993" lon="4.80256">
        <ele>287</ele>
        <time>2021-08-14T06:58:36.000Z</time>
      </trkpt>
      <trkpt lat="49.76995" lon="4.80253">
        <ele>287</ele>
        <time>2021-08-14T06:58:37.000Z</time>
      </trkpt>
      <trkpt lat="49.76998" lon="4.80251">
        <ele>287</ele>
        <time>2021-08-14T06:58:38.000Z</time>
      </trkpt>
      <trkpt lat="49.77" lon="4.80248">
        <ele>288</ele>
        <time>2021-08-14T06:58:39.000Z</time>
      </trkpt>
      <trkpt lat="49.77001" lon="4.80246">
        <ele>288</ele>
        <time>2021-08-14T06:58:40.000Z</time>
      </trkpt>
      <trkpt lat="49.77003" lon="4.80243">
        <ele>288</ele>
        <time>2021-08-14T06:58:41.000Z</time>
      </trkpt>
      <trkpt lat="49.77005" lon="4.8024">
        <ele>289</ele>
        <time>2021-08-14T06:58:42.000Z</time>
      </trkpt>
      <trkpt lat="49.77007" lon="4.80237">
        <ele>289</ele>
        <time>2021-08-14T06:58:43.000Z</time>
      </trkpt>
      <trkpt lat="49.77008" lon="4.80234">
        <ele>289</ele>
        <time>2021-08-14T06:58:44.000Z</time>
      </trkpt>
      <trkpt lat="49.7701" lon="4.80231">
        <ele>290</ele>
        <time>2021-08-14T06:58:45.000Z</time>
      </trkpt>
      <trkpt lat="49.77012" lon="4.80229">
        <ele>290</ele>
        <time>2021-08-14T06:58:46.000Z</time>
      </trkpt>
      <trkpt lat="49.77013" lon="4.80226">
        <ele>291</ele>
        <time>2021-08-14T06:58:47.000Z</time>
      </trkpt>
      <trkpt lat="49.77015" lon="4.80224">
        <ele>291</ele>
        <time>2021-08-14T06:58:48.000Z</time>
      </trkpt>
      <trkpt lat="49.77017" lon="4.80222">
        <ele>291</ele>
        <time>2021-08-14T06:58:49.000Z</time>
      </trkpt>
      <trkpt lat="49.77019" lon="4.80219">
        <ele>292</ele>
        <time>2021-08-14T06:58:50.000Z</time>
      </trkpt>
      <trkpt lat="49.77022" lon="4.80217">
        <ele>292</ele>
        <time>2021-08-14T06:58:51.000Z</time>
      </trkpt>
      <trkpt lat="49.77024" lon="4.80215">
        <ele>293</ele>
        <time>2021-08-14T06:58:52.000Z</time>
      </trkpt>
      <trkpt lat="49.77027" lon="4.80212">
        <ele>293</ele>
        <time>2021-08-14T06:58:53.000Z</time>
      </trkpt>
      <trkpt lat="49.77029" lon="4.80209">
        <ele>293</ele>
        <time>2021-08-14T06:58:54.000Z</time>
      </trkpt>
      <trkpt lat="49.77031" lon="4.80206">
        <ele>294</ele>
        <time>2021-08-14T06:58:55.000Z</time>
      </trkpt>
      <trkpt lat="49.77033" lon="4.80202">
        <ele>294</ele>
        <time>2021-08-14T06:58:56.000Z</time>
      </trkpt>
      <trkpt lat="49.77036" lon="4.80199">
        <ele>294</ele>
        <time>2021-08-14T06:58:57.000Z</time>
      </trkpt>
      <trkpt lat="49.77039" lon="4.80197">
        <ele>295</ele>
        <time>2021-08-14T06:58:58.000Z</time>
      </trkpt>
      <trkpt lat="49.77041" lon="4.80193">
        <ele>295</ele>
        <time>2021-08-14T06:58:59.000Z</time>
      </trkpt>
      <trkpt lat="49.77042" lon="4.8019">
        <ele>295</ele>
        <time>2021-08-14T06:59:00.000Z</time>
      </trkpt>
      <trkpt lat="49.77044" lon="4.80186">
        <ele>295</ele>
        <time>2021-08-14T06:59:01.000Z</time>
      </trkpt>
      <trkpt lat="49.77045" lon="4.80183">
        <ele>295</ele>
        <time>2021-08-14T06:59:02.000Z</time>
      </trkpt>
      <trkpt lat="49.77047" lon="4.80179">
        <ele>296</ele>
        <time>2021-08-14T06:59:03.000Z</time>
      </trkpt>
      <trkpt lat="49.7705" lon="4.80176">
        <ele>296</ele>
        <time>2021-08-14T06:59:04.000Z</time>
      </trkpt>
      <trkpt lat="49.77052" lon="4.80173">
        <ele>296</ele>
        <time>2021-08-14T06:59:05.000Z</time>
      </trkpt>
      <trkpt lat="49.77055" lon="4.80169">
        <ele>296</ele>
        <time>2021-08-14T06:59:06.000Z</time>
      </trkpt>
      <trkpt lat="49.77057" lon="4.80165">
        <ele>296</ele>
        <time>2021-08-14T06:59:07.000Z</time>
      </trkpt>
      <trkpt lat="49.77059" lon="4.80162">
        <ele>297</ele>
        <time>2021-08-14T06:59:08.000Z</time>
      </trkpt>
      <trkpt lat="49.77062" lon="4.80158">
        <ele>297</ele>
        <time>2021-08-14T06:59:09.000Z</time>
      </trkpt>
      <trkpt lat="49.77066" lon="4.80156">
        <ele>297</ele>
        <time>2021-08-14T06:59:10.000Z</time>
      </trkpt>
      <trkpt lat="49.7707" lon="4.80155">
        <ele>297</ele>
        <time>2021-08-14T06:59:11.000Z</time>
      </trkpt>
      <trkpt lat="49.77073" lon="4.80155">
        <ele>298</ele>
        <time>2021-08-14T06:59:12.000Z</time>
      </trkpt>
      <trkpt lat="49.77077" lon="4.80157">
        <ele>298</ele>
        <time>2021-08-14T06:59:13.000Z</time>
      </trkpt>
      <trkpt lat="49.77081" lon="4.80159">
        <ele>298</ele>
        <time>2021-08-14T06:59:14.000Z</time>
      </trkpt>
      <trkpt lat="49.77085" lon="4.80162">
        <ele>298</ele>
        <time>2021-08-14T06:59:15.000Z</time>
      </trkpt>
      <trkpt lat="49.77089" lon="4.80165">
        <ele>298</ele>
        <time>2021-08-14T06:59:16.000Z</time>
      </trkpt>
      <trkpt lat="49.77093" lon="4.80168">
        <ele>298</ele>
        <time>2021-08-14T06:59:17.000Z</time>
      </trkpt>
      <trkpt lat="49.77096" lon="4.8017">
        <ele>298</ele>
        <time>2021-08-14T06:59:18.000Z</time>
      </trkpt>
      <trkpt lat="49.77099" lon="4.80173">
        <ele>298</ele>
        <time>2021-08-14T06:59:19.000Z</time>
      </trkpt>
      <trkpt lat="49.77102" lon="4.80176">
        <ele>298</ele>
        <time>2021-08-14T06:59:20.000Z</time>
      </trkpt>
      <trkpt lat="49.77106" lon="4.80178">
        <ele>298</ele>
        <time>2021-08-14T06:59:21.000Z</time>
      </trkpt>
      <trkpt lat="49.7711" lon="4.80178">
        <ele>298</ele>
        <time>2021-08-14T06:59:22.000Z</time>
      </trkpt>
      <trkpt lat="49.77114" lon="4.80177">
        <ele>298</ele>
        <time>2021-08-14T06:59:23.000Z</time>
      </trkpt>
      <trkpt lat="49.77117" lon="4.80176">
        <ele>298</ele>
        <time>2021-08-14T06:59:24.000Z</time>
      </trkpt>
      <trkpt lat="49.77121" lon="4.80176">
        <ele>298</ele>
        <time>2021-08-14T06:59:25.000Z</time>
      </trkpt>
      <trkpt lat="49.77125" lon="4.80175">
        <ele>298</ele>
        <time>2021-08-14T06:59:26.000Z</time>
      </trkpt>
      <trkpt lat="49.77128" lon="4.80173">
        <ele>298</ele>
        <time>2021-08-14T06:59:27.000Z</time>
      </trkpt>
      <trkpt lat="49.77132" lon="4.80173">
        <ele>298</ele>
        <time>2021-08-14T06:59:28.000Z</time>
      </trkpt>
      <trkpt lat="49.77136" lon="4.80172">
        <ele>298</ele>
        <time>2021-08-14T06:59:29.000Z</time>
      </trkpt>
      <trkpt lat="49.7714" lon="4.80171">
        <ele>298</ele>
        <time>2021-08-14T06:59:30.000Z</time>
      </trkpt>
      <trkpt lat="49.77144" lon="4.8017">
        <ele>298</ele>
        <time>2021-08-14T06:59:31.000Z</time>
      </trkpt>
      <trkpt lat="49.77148" lon="4.80169">
        <ele>298</ele>
        <time>2021-08-14T06:59:32.000Z</time>
      </trkpt>
      <trkpt lat="49.77151" lon="4.80169">
        <ele>298</ele>
        <time>2021-08-14T06:59:33.000Z</time>
      </trkpt>
      <trkpt lat="49.77155" lon="4.8017">
        <ele>298</ele>
        <time>2021-08-14T06:59:34.000Z</time>
      </trkpt>
      <trkpt lat="49.7716" lon="4.80171">
        <ele>298</ele>
        <time>2021-08-14T06:59:35.000Z</time>
      </trkpt>
      <trkpt lat="49.77165" lon="4.80171">
        <ele>298</ele>
        <time>2021-08-14T06:59:36.000Z</time>
      </trkpt>
      <trkpt lat="49.77169" lon="4.80171">
        <ele>298</ele>
        <time>2021-08-14T06:59:37.000Z</time>
      </trkpt>
      <trkpt lat="49.77174" lon="4.80171">
        <ele>297</ele>
        <time>2021-08-14T06:59:38.000Z</time>
      </trkpt>
      <trkpt lat="49.77179" lon="4.8017">
        <ele>297</ele>
        <time>2021-08-14T06:59:39.000Z</time>
      </trkpt>
      <trkpt lat="49.77184" lon="4.8017">
        <ele>297</ele>
        <time>2021-08-14T06:59:40.000Z</time>
      </trkpt>
      <trkpt lat="49.77188" lon="4.80169">
        <ele>297</ele>
        <time>2021-08-14T06:59:41.000Z</time>
      </trkpt>
      <trkpt lat="49.77193" lon="4.80169">
        <ele>297</ele>
        <time>2021-08-14T06:59:42.000Z</time>
      </trkpt>
      <trkpt lat="49.77198" lon="4.80169">
        <ele>297</ele>
        <time>2021-08-14T06:59:43.000Z</time>
      </trkpt>
      <trkpt lat="49.77202" lon="4.80168">
        <ele>297</ele>
        <time>2021-08-14T06:59:44.000Z</time>
      </trkpt>
      <trkpt lat="49.77207" lon="4.80167">
        <ele>297</ele>
        <time>2021-08-14T06:59:45.000Z</time>
      </trkpt>
      <trkpt lat="49.77212" lon="4.80167">
        <ele>297</ele>
        <time>2021-08-14T06:59:46.000Z</time>
      </trkpt>
      <trkpt lat="49.77217" lon="4.80166">
        <ele>296</ele>
        <time>2021-08-14T06:59:47.000Z</time>
      </trkpt>
      <trkpt lat="49.77222" lon="4.80166">
        <ele>296</ele>
        <time>2021-08-14T06:59:48.000Z</time>
      </trkpt>
      <trkpt lat="49.77227" lon="4.80165">
        <ele>296</ele>
        <time>2021-08-14T06:59:49.000Z</time>
      </trkpt>
      <trkpt lat="49.77232" lon="4.80164">
        <ele>296</ele>
        <time>2021-08-14T06:59:50.000Z</time>
      </trkpt>
      <trkpt lat="49.77238" lon="4.80164">
        <ele>296</ele>
        <time>2021-08-14T06:59:51.000Z</time>
      </trkpt>
      <trkpt lat="49.77243" lon="4.80163">
        <ele>296</ele>
        <time>2021-08-14T06:59:52.000Z</time>
      </trkpt>
      <trkpt lat="49.77248" lon="4.80162">
        <ele>295</ele>
        <time>2021-08-14T06:59:53.000Z</time>
      </trkpt>
      <trkpt lat="49.77253" lon="4.80162">
        <ele>295</ele>
        <time>2021-08-14T06:59:54.000Z</time>
      </trkpt>
      <trkpt lat="49.77258" lon="4.80161">
        <ele>295</ele>
        <time>2021-08-14T06:59:55.000Z</time>
      </trkpt>
      <trkpt lat="49.77263" lon="4.8016">
        <ele>295</ele>
        <time>2021-08-14T06:59:56.000Z</time>
      </trkpt>
      <trkpt lat="49.77268" lon="4.80159">
        <ele>295</ele>
        <time>2021-08-14T06:59:57.000Z</time>
      </trkpt>
      <trkpt lat="49.77273" lon="4.80158">
        <ele>295</ele>
        <time>2021-08-14T06:59:58.000Z</time>
      </trkpt>
      <trkpt lat="49.77278" lon="4.80157">
        <ele>294</ele>
        <time>2021-08-14T06:59:59.000Z</time>
      </trkpt>
      <trkpt lat="49.77283" lon="4.80156">
        <ele>294</ele>
        <time>2021-08-14T07:00:00.000Z</time>
      </trkpt>
      <trkpt lat="49.77288" lon="4.80156">
        <ele>294</ele>
        <time>2021-08-14T07:00:01.000Z</time>
      </trkpt>
      <trkpt lat="49.77293" lon="4.80155">
        <ele>294</ele>
        <time>2021-08-14T07:00:02.000Z</time>
      </trkpt>
      <trkpt lat="49.77298" lon="4.80154">
        <ele>293</ele>
        <time>2021-08-14T07:00:03.000Z</time>
      </trkpt>
      <trkpt lat="49.77303" lon="4.80153">
        <ele>293</ele>
        <time>2021-08-14T07:00:04.000Z</time>
      </trkpt>
      <trkpt lat="49.77308" lon="4.80151">
        <ele>293</ele>
        <time>2021-08-14T07:00:05.000Z</time>
      </trkpt>
      <trkpt lat="49.77313" lon="4.8015">
        <ele>293</ele>
        <time>2021-08-14T07:00:06.000Z</time>
      </trkpt>
      <trkpt lat="49.77319" lon="4.80148">
        <ele>293</ele>
        <time>2021-08-14T07:00:07.000Z</time>
      </trkpt>
      <trkpt lat="49.77325" lon="4.80146">
        <ele>292</ele>
        <time>2021-08-14T07:00:08.000Z</time>
      </trkpt>
      <trkpt lat="49.7733" lon="4.80144">
        <ele>292</ele>
        <time>2021-08-14T07:00:09.000Z</time>
      </trkpt>
      <trkpt lat="49.77336" lon="4.80142">
        <ele>292</ele>
        <time>2021-08-14T07:00:10.000Z</time>
      </trkpt>
      <trkpt lat="49.7734" lon="4.80138">
        <ele>292</ele>
        <time>2021-08-14T07:00:11.000Z</time>
      </trkpt>
      <trkpt lat="49.77345" lon="4.80135">
        <ele>292</ele>
        <time>2021-08-14T07:00:12.000Z</time>
      </trkpt>
      <trkpt lat="49.7735" lon="4.80131">
        <ele>291</ele>
        <time>2021-08-14T07:00:13.000Z</time>
      </trkpt>
      <trkpt lat="49.77354" lon="4.80127">
        <ele>291</ele>
        <time>2021-08-14T07:00:14.000Z</time>
      </trkpt>
      <trkpt lat="49.77359" lon="4.80124">
        <ele>291</ele>
        <time>2021-08-14T07:00:15.000Z</time>
      </trkpt>
      <trkpt lat="49.77363" lon="4.80119">
        <ele>291</ele>
        <time>2021-08-14T07:00:16.000Z</time>
      </trkpt>
      <trkpt lat="49.77367" lon="4.80115">
        <ele>291</ele>
        <time>2021-08-14T07:00:17.000Z</time>
      </trkpt>
      <trkpt lat="49.77371" lon="4.8011">
        <ele>291</ele>
        <time>2021-08-14T07:00:18.000Z</time>
      </trkpt>
      <trkpt lat="49.77375" lon="4.80105">
        <ele>290</ele>
        <time>2021-08-14T07:00:19.000Z</time>
      </trkpt>
      <trkpt lat="49.77379" lon="4.80099">
        <ele>290</ele>
        <time>2021-08-14T07:00:20.000Z</time>
      </trkpt>
      <trkpt lat="49.77382" lon="4.80092">
        <ele>290</ele>
        <time>2021-08-14T07:00:21.000Z</time>
      </trkpt>
      <trkpt lat="49.77387" lon="4.80086">
        <ele>290</ele>
        <time>2021-08-14T07:00:22.000Z</time>
      </trkpt>
      <trkpt lat="49.7739" lon="4.80078">
        <ele>290</ele>
        <time>2021-08-14T07:00:23.000Z</time>
      </trkpt>
      <trkpt lat="49.77394" lon="4.8007">
        <ele>289</ele>
        <time>2021-08-14T07:00:24.000Z</time>
      </trkpt>
      <trkpt lat="49.77398" lon="4.80062">
        <ele>289</ele>
        <time>2021-08-14T07:00:25.000Z</time>
      </trkpt>
      <trkpt lat="49.77402" lon="4.80054">
        <ele>289</ele>
        <time>2021-08-14T07:00:26.000Z</time>
      </trkpt>
      <trkpt lat="49.77407" lon="4.80047">
        <ele>289</ele>
        <time>2021-08-14T07:00:27.000Z</time>
      </trkpt>
      <trkpt lat="49.77413" lon="4.80043">
        <ele>288</ele>
        <time>2021-08-14T07:00:28.000Z</time>
      </trkpt>
      <trkpt lat="49.77419" lon="4.80042">
        <ele>288</ele>
        <time>2021-08-14T07:00:29.000Z</time>
      </trkpt>
      <trkpt lat="49.77425" lon="4.80042">
        <ele>288</ele>
        <time>2021-08-14T07:00:30.000Z</time>
      </trkpt>
      <trkpt lat="49.77431" lon="4.80042">
        <ele>287</ele>
        <time>2021-08-14T07:00:31.000Z</time>
      </trkpt>
      <trkpt lat="49.77437" lon="4.80043">
        <ele>287</ele>
        <time>2021-08-14T07:00:32.000Z</time>
      </trkpt>
      <trkpt lat="49.77442" lon="4.80043">
        <ele>286</ele>
        <time>2021-08-14T07:00:33.000Z</time>
      </trkpt>
      <trkpt lat="49.77448" lon="4.80043">
        <ele>286</ele>
        <time>2021-08-14T07:00:34.000Z</time>
      </trkpt>
      <trkpt lat="49.77453" lon="4.8004">
        <ele>286</ele>
        <time>2021-08-14T07:00:35.000Z</time>
      </trkpt>
      <trkpt lat="49.77459" lon="4.80038">
        <ele>285</ele>
        <time>2021-08-14T07:00:36.000Z</time>
      </trkpt>
      <trkpt lat="49.77465" lon="4.80034">
        <ele>284</ele>
        <time>2021-08-14T07:00:37.000Z</time>
      </trkpt>
      <trkpt lat="49.7747" lon="4.8003">
        <ele>283</ele>
        <time>2021-08-14T07:00:38.000Z</time>
      </trkpt>
      <trkpt lat="49.77475" lon="4.80026">
        <ele>283</ele>
        <time>2021-08-14T07:00:39.000Z</time>
      </trkpt>
      <trkpt lat="49.77481" lon="4.80021">
        <ele>282</ele>
        <time>2021-08-14T07:00:40.000Z</time>
      </trkpt>
      <trkpt lat="49.77487" lon="4.80016">
        <ele>281</ele>
        <time>2021-08-14T07:00:41.000Z</time>
      </trkpt>
      <trkpt lat="49.77493" lon="4.80011">
        <ele>280</ele>
        <time>2021-08-14T07:00:42.000Z</time>
      </trkpt>
      <trkpt lat="49.77499" lon="4.80007">
        <ele>279</ele>
        <time>2021-08-14T07:00:43.000Z</time>
      </trkpt>
      <trkpt lat="49.77505" lon="4.80003">
        <ele>278</ele>
        <time>2021-08-14T07:00:44.000Z</time>
      </trkpt>
      <trkpt lat="49.77512" lon="4.79999">
        <ele>277</ele>
        <time>2021-08-14T07:00:45.000Z</time>
      </trkpt>
      <trkpt lat="49.7752" lon="4.79996">
        <ele>276</ele>
        <time>2021-08-14T07:00:46.000Z</time>
      </trkpt>
      <trkpt lat="49.77528" lon="4.79994">
        <ele>275</ele>
        <time>2021-08-14T07:00:47.000Z</time>
      </trkpt>
      <trkpt lat="49.77535" lon="4.79993">
        <ele>274</ele>
        <time>2021-08-14T07:00:48.000Z</time>
      </trkpt>
      <trkpt lat="49.77543" lon="4.79991">
        <ele>273</ele>
        <time>2021-08-14T07:00:49.000Z</time>
      </trkpt>
      <trkpt lat="49.77552" lon="4.7999">
        <ele>272</ele>
        <time>2021-08-14T07:00:50.000Z</time>
      </trkpt>
      <trkpt lat="49.7756" lon="4.79989">
        <ele>270</ele>
        <time>2021-08-14T07:00:51.000Z</time>
      </trkpt>
      <trkpt lat="49.77568" lon="4.79988">
        <ele>269</ele>
        <time>2021-08-14T07:00:52.000Z</time>
      </trkpt>
      <trkpt lat="49.77577" lon="4.79987">
        <ele>268</ele>
        <time>2021-08-14T07:00:53.000Z</time>
      </trkpt>
      <trkpt lat="49.77585" lon="4.79986">
        <ele>267</ele>
        <time>2021-08-14T07:00:54.000Z</time>
      </trkpt>
      <trkpt lat="49.77593" lon="4.79985">
        <ele>266</ele>
        <time>2021-08-14T07:00:55.000Z</time>
      </trkpt>
      <trkpt lat="49.77601" lon="4.79984">
        <ele>266</ele>
        <time>2021-08-14T07:00:56.000Z</time>
      </trkpt>
      <trkpt lat="49.77609" lon="4.79984">
        <ele>265</ele>
        <time>2021-08-14T07:00:57.000Z</time>
      </trkpt>
      <trkpt lat="49.77616" lon="4.79982">
        <ele>265</ele>
        <time>2021-08-14T07:00:58.000Z</time>
      </trkpt>
      <trkpt lat="49.77623" lon="4.7998">
        <ele>264</ele>
        <time>2021-08-14T07:00:59.000Z</time>
      </trkpt>
      <trkpt lat="49.7763" lon="4.79978">
        <ele>264</ele>
        <time>2021-08-14T07:01:00.000Z</time>
      </trkpt>
      <trkpt lat="49.77636" lon="4.79975">
        <ele>263</ele>
        <time>2021-08-14T07:01:01.000Z</time>
      </trkpt>
      <trkpt lat="49.77642" lon="4.79972">
        <ele>263</ele>
        <time>2021-08-14T07:01:02.000Z</time>
      </trkpt>
      <trkpt lat="49.77647" lon="4.79969">
        <ele>263</ele>
        <time>2021-08-14T07:01:03.000Z</time>
      </trkpt>
      <trkpt lat="49.77652" lon="4.79965">
        <ele>262</ele>
        <time>2021-08-14T07:01:04.000Z</time>
      </trkpt>
      <trkpt lat="49.77657" lon="4.79962">
        <ele>262</ele>
        <time>2021-08-14T07:01:05.000Z</time>
      </trkpt>
      <trkpt lat="49.77662" lon="4.79958">
        <ele>262</ele>
        <time>2021-08-14T07:01:06.000Z</time>
      </trkpt>
      <trkpt lat="49.77666" lon="4.79953">
        <ele>261</ele>
        <time>2021-08-14T07:01:07.000Z</time>
      </trkpt>
      <trkpt lat="49.77671" lon="4.79948">
        <ele>261</ele>
        <time>2021-08-14T07:01:08.000Z</time>
      </trkpt>
      <trkpt lat="49.77676" lon="4.79943">
        <ele>261</ele>
        <time>2021-08-14T07:01:09.000Z</time>
      </trkpt>
      <trkpt lat="49.7768" lon="4.79937">
        <ele>260</ele>
        <time>2021-08-14T07:01:10.000Z</time>
      </trkpt>
      <trkpt lat="49.77685" lon="4.79931">
        <ele>260</ele>
        <time>2021-08-14T07:01:11.000Z</time>
      </trkpt>
      <trkpt lat="49.7769" lon="4.79925">
        <ele>259</ele>
        <time>2021-08-14T07:01:12.000Z</time>
      </trkpt>
      <trkpt lat="49.77695" lon="4.7992">
        <ele>259</ele>
        <time>2021-08-14T07:01:13.000Z</time>
      </trkpt>
      <trkpt lat="49.777" lon="4.79914">
        <ele>259</ele>
        <time>2021-08-14T07:01:14.000Z</time>
      </trkpt>
      <trkpt lat="49.77705" lon="4.79908">
        <ele>259</ele>
        <time>2021-08-14T07:01:15.000Z</time>
      </trkpt>
      <trkpt lat="49.77709" lon="4.79903">
        <ele>258</ele>
        <time>2021-08-14T07:01:16.000Z</time>
      </trkpt>
      <trkpt lat="49.77714" lon="4.79898">
        <ele>258</ele>
        <time>2021-08-14T07:01:17.000Z</time>
      </trkpt>
      <trkpt lat="49.77719" lon="4.79893">
        <ele>258</ele>
        <time>2021-08-14T07:01:18.000Z</time>
      </trkpt>
      <trkpt lat="49.77724" lon="4.79889">
        <ele>258</ele>
        <time>2021-08-14T07:01:19.000Z</time>
      </trkpt>
      <trkpt lat="49.77729" lon="4.79885">
        <ele>257</ele>
        <time>2021-08-14T07:01:20.000Z</time>
      </trkpt>
      <trkpt lat="49.77734" lon="4.79881">
        <ele>257</ele>
        <time>2021-08-14T07:01:21.000Z</time>
      </trkpt>
      <trkpt lat="49.77739" lon="4.79877">
        <ele>257</ele>
        <time>2021-08-14T07:01:22.000Z</time>
      </trkpt>
      <trkpt lat="49.77745" lon="4.79873">
        <ele>257</ele>
        <time>2021-08-14T07:01:23.000Z</time>
      </trkpt>
      <trkpt lat="49.7775" lon="4.79868">
        <ele>257</ele>
        <time>2021-08-14T07:01:24.000Z</time>
      </trkpt>
      <trkpt lat="49.77755" lon="4.79864">
        <ele>257</ele>
        <time>2021-08-14T07:01:25.000Z</time>
      </trkpt>
      <trkpt lat="49.77759" lon="4.79859">
        <ele>256</ele>
        <time>2021-08-14T07:01:26.000Z</time>
      </trkpt>
      <trkpt lat="49.77764" lon="4.79855">
        <ele>256</ele>
        <time>2021-08-14T07:01:27.000Z</time>
      </trkpt>
      <trkpt lat="49.77769" lon="4.79851">
        <ele>256</ele>
        <time>2021-08-14T07:01:28.000Z</time>
      </trkpt>
      <trkpt lat="49.77774" lon="4.79846">
        <ele>256</ele>
        <time>2021-08-14T07:01:29.000Z</time>
      </trkpt>
      <trkpt lat="49.77778" lon="4.79841">
        <ele>256</ele>
        <time>2021-08-14T07:01:30.000Z</time>
      </trkpt>
      <trkpt lat="49.77782" lon="4.79836">
        <ele>256</ele>
        <time>2021-08-14T07:01:31.000Z</time>
      </trkpt>
      <trkpt lat="49.77786" lon="4.79831">
        <ele>256</ele>
        <time>2021-08-14T07:01:32.000Z</time>
      </trkpt>
      <trkpt lat="49.7779" lon="4.79826">
        <ele>256</ele>
        <time>2021-08-14T07:01:33.000Z</time>
      </trkpt>
      <trkpt lat="49.77795" lon="4.79822">
        <ele>256</ele>
        <time>2021-08-14T07:01:34.000Z</time>
      </trkpt>
      <trkpt lat="49.77799" lon="4.79818">
        <ele>256</ele>
        <time>2021-08-14T07:01:35.000Z</time>
      </trkpt>
      <trkpt lat="49.77803" lon="4.79814">
        <ele>256</ele>
        <time>2021-08-14T07:01:36.000Z</time>
      </trkpt>
      <trkpt lat="49.77807" lon="4.7981">
        <ele>256</ele>
        <time>2021-08-14T07:01:37.000Z</time>
      </trkpt>
      <trkpt lat="49.77812" lon="4.79808">
        <ele>256</ele>
        <time>2021-08-14T07:01:38.000Z</time>
      </trkpt>
      <trkpt lat="49.77816" lon="4.79805">
        <ele>256</ele>
        <time>2021-08-14T07:01:39.000Z</time>
      </trkpt>
      <trkpt lat="49.77821" lon="4.79803">
        <ele>256</ele>
        <time>2021-08-14T07:01:40.000Z</time>
      </trkpt>
      <trkpt lat="49.77826" lon="4.798">
        <ele>256</ele>
        <time>2021-08-14T07:01:41.000Z</time>
      </trkpt>
      <trkpt lat="49.77831" lon="4.79798">
        <ele>256</ele>
        <time>2021-08-14T07:01:42.000Z</time>
      </trkpt>
      <trkpt lat="49.77835" lon="4.79795">
        <ele>255</ele>
        <time>2021-08-14T07:01:43.000Z</time>
      </trkpt>
      <trkpt lat="49.7784" lon="4.79791">
        <ele>255</ele>
        <time>2021-08-14T07:01:44.000Z</time>
      </trkpt>
      <trkpt lat="49.77845" lon="4.79787">
        <ele>255</ele>
        <time>2021-08-14T07:01:45.000Z</time>
      </trkpt>
      <trkpt lat="49.7785" lon="4.79783">
        <ele>255</ele>
        <time>2021-08-14T07:01:46.000Z</time>
      </trkpt>
      <trkpt lat="49.77855" lon="4.79778">
        <ele>255</ele>
        <time>2021-08-14T07:01:47.000Z</time>
      </trkpt>
      <trkpt lat="49.77861" lon="4.79774">
        <ele>254</ele>
        <time>2021-08-14T07:01:48.000Z</time>
      </trkpt>
      <trkpt lat="49.77866" lon="4.79769">
        <ele>254</ele>
        <time>2021-08-14T07:01:49.000Z</time>
      </trkpt>
      <trkpt lat="49.77872" lon="4.79764">
        <ele>254</ele>
        <time>2021-08-14T07:01:50.000Z</time>
      </trkpt>
      <trkpt lat="49.77878" lon="4.79759">
        <ele>254</ele>
        <time>2021-08-14T07:01:51.000Z</time>
      </trkpt>
      <trkpt lat="49.77884" lon="4.79754">
        <ele>253</ele>
        <time>2021-08-14T07:01:52.000Z</time>
      </trkpt>
      <trkpt lat="49.7789" lon="4.79749">
        <ele>253</ele>
        <time>2021-08-14T07:01:53.000Z</time>
      </trkpt>
      <trkpt lat="49.77896" lon="4.79745">
        <ele>253</ele>
        <time>2021-08-14T07:01:54.000Z</time>
      </trkpt>
      <trkpt lat="49.77903" lon="4.7974">
        <ele>252</ele>
        <time>2021-08-14T07:01:55.000Z</time>
      </trkpt>
      <trkpt lat="49.7791" lon="4.79736">
        <ele>252</ele>
        <time>2021-08-14T07:01:56.000Z</time>
      </trkpt>
      <trkpt lat="49.77917" lon="4.79733">
        <ele>252</ele>
        <time>2021-08-14T07:01:57.000Z</time>
      </trkpt>
      <trkpt lat="49.77924" lon="4.79729">
        <ele>251</ele>
        <time>2021-08-14T07:01:58.000Z</time>
      </trkpt>
      <trkpt lat="49.77932" lon="4.79726">
        <ele>251</ele>
        <time>2021-08-14T07:01:59.000Z</time>
      </trkpt>
      <trkpt lat="49.77941" lon="4.79723">
        <ele>251</ele>
        <time>2021-08-14T07:02:00.000Z</time>
      </trkpt>
      <trkpt lat="49.77949" lon="4.79722">
        <ele>250</ele>
        <time>2021-08-14T07:02:01.000Z</time>
      </trkpt>
      <trkpt lat="49.77957" lon="4.79721">
        <ele>250</ele>
        <time>2021-08-14T07:02:02.000Z</time>
      </trkpt>
      <trkpt lat="49.77964" lon="4.79723">
        <ele>250</ele>
        <time>2021-08-14T07:02:03.000Z</time>
      </trkpt>
      <trkpt lat="49.7797" lon="4.79727">
        <ele>249</ele>
        <time>2021-08-14T07:02:04.000Z</time>
      </trkpt>
      <trkpt lat="49.77974" lon="4.79735">
        <ele>249</ele>
        <time>2021-08-14T07:02:05.000Z</time>
      </trkpt>
      <trkpt lat="49.77977" lon="4.79744">
        <ele>249</ele>
        <time>2021-08-14T07:02:06.000Z</time>
      </trkpt>
      <trkpt lat="49.77979" lon="4.79753">
        <ele>249</ele>
        <time>2021-08-14T07:02:07.000Z</time>
      </trkpt>
      <trkpt lat="49.77983" lon="4.7976">
        <ele>249</ele>
        <time>2021-08-14T07:02:08.000Z</time>
      </trkpt>
      <trkpt lat="49.77987" lon="4.79766">
        <ele>249</ele>
        <time>2021-08-14T07:02:09.000Z</time>
      </trkpt>
      <trkpt lat="49.77991" lon="4.7977">
        <ele>250</ele>
        <time>2021-08-14T07:02:10.000Z</time>
      </trkpt>
      <trkpt lat="49.77996" lon="4.79773">
        <ele>250</ele>
        <time>2021-08-14T07:02:11.000Z</time>
      </trkpt>
      <trkpt lat="49.78001" lon="4.79775">
        <ele>250</ele>
        <time>2021-08-14T07:02:12.000Z</time>
      </trkpt>
      <trkpt lat="49.78006" lon="4.79776">
        <ele>250</ele>
        <time>2021-08-14T07:02:13.000Z</time>
      </trkpt>
      <trkpt lat="49.78011" lon="4.79778">
        <ele>250</ele>
        <time>2021-08-14T07:02:14.000Z</time>
      </trkpt>
      <trkpt lat="49.78017" lon="4.7978">
        <ele>250</ele>
        <time>2021-08-14T07:02:15.000Z</time>
      </trkpt>
      <trkpt lat="49.78022" lon="4.7978">
        <ele>251</ele>
        <time>2021-08-14T07:02:16.000Z</time>
      </trkpt>
      <trkpt lat="49.78027" lon="4.79781">
        <ele>251</ele>
        <time>2021-08-14T07:02:17.000Z</time>
      </trkpt>
      <trkpt lat="49.78032" lon="4.79781">
        <ele>251</ele>
        <time>2021-08-14T07:02:18.000Z</time>
      </trkpt>
      <trkpt lat="49.78038" lon="4.79781">
        <ele>251</ele>
        <time>2021-08-14T07:02:19.000Z</time>
      </trkpt>
      <trkpt lat="49.78043" lon="4.79781">
        <ele>251</ele>
        <time>2021-08-14T07:02:20.000Z</time>
      </trkpt>
      <trkpt lat="49.78048" lon="4.7978">
        <ele>252</ele>
        <time>2021-08-14T07:02:21.000Z</time>
      </trkpt>
      <trkpt lat="49.78053" lon="4.79779">
        <ele>252</ele>
        <time>2021-08-14T07:02:22.000Z</time>
      </trkpt>
      <trkpt lat="49.78059" lon="4.79778">
        <ele>252</ele>
        <time>2021-08-14T07:02:23.000Z</time>
      </trkpt>
      <trkpt lat="49.78064" lon="4.79777">
        <ele>252</ele>
        <time>2021-08-14T07:02:24.000Z</time>
      </trkpt>
      <trkpt lat="49.7807" lon="4.79774">
        <ele>252</ele>
        <time>2021-08-14T07:02:25.000Z</time>
      </trkpt>
      <trkpt lat="49.78075" lon="4.79771">
        <ele>252</ele>
        <time>2021-08-14T07:02:26.000Z</time>
      </trkpt>
      <trkpt lat="49.7808" lon="4.79767">
        <ele>252</ele>
        <time>2021-08-14T07:02:27.000Z</time>
      </trkpt>
      <trkpt lat="49.78083" lon="4.79763">
        <ele>252</ele>
        <time>2021-08-14T07:02:28.000Z</time>
      </trkpt>
      <trkpt lat="49.78086" lon="4.79758">
        <ele>252</ele>
        <time>2021-08-14T07:02:29.000Z</time>
      </trkpt>
      <trkpt lat="49.7809" lon="4.79752">
        <ele>251</ele>
        <time>2021-08-14T07:02:30.000Z</time>
      </trkpt>
      <trkpt lat="49.78093" lon="4.79745">
        <ele>251</ele>
        <time>2021-08-14T07:02:31.000Z</time>
      </trkpt>
      <trkpt lat="49.78098" lon="4.79738">
        <ele>252</ele>
        <time>2021-08-14T07:02:32.000Z</time>
      </trkpt>
      <trkpt lat="49.78102" lon="4.79733">
        <ele>252</ele>
        <time>2021-08-14T07:02:33.000Z</time>
      </trkpt>
      <trkpt lat="49.78105" lon="4.79727">
        <ele>252</ele>
        <time>2021-08-14T07:02:34.000Z</time>
      </trkpt>
      <trkpt lat="49.78108" lon="4.79721">
        <ele>252</ele>
        <time>2021-08-14T07:02:35.000Z</time>
      </trkpt>
      <trkpt lat="49.78111" lon="4.79715">
        <ele>252</ele>
        <time>2021-08-14T07:02:36.000Z</time>
      </trkpt>
      <trkpt lat="49.78114" lon="4.7971">
        <ele>253</ele>
        <time>2021-08-14T07:02:37.000Z</time>
      </trkpt>
      <trkpt lat="49.78118" lon="4.79705">
        <ele>253</ele>
        <time>2021-08-14T07:02:38.000Z</time>
      </trkpt>
      <trkpt lat="49.78123" lon="4.797">
        <ele>253</ele>
        <time>2021-08-14T07:02:39.000Z</time>
      </trkpt>
      <trkpt lat="49.78127" lon="4.79698">
        <ele>254</ele>
        <time>2021-08-14T07:02:40.000Z</time>
      </trkpt>
      <trkpt lat="49.7813" lon="4.79696">
        <ele>254</ele>
        <time>2021-08-14T07:02:41.000Z</time>
      </trkpt>
      <trkpt lat="49.78134" lon="4.79694">
        <ele>254</ele>
        <time>2021-08-14T07:02:42.000Z</time>
      </trkpt>
      <trkpt lat="49.78137" lon="4.79691">
        <ele>254</ele>
        <time>2021-08-14T07:02:43.000Z</time>
      </trkpt>
      <trkpt lat="49.78141" lon="4.79689">
        <ele>255</ele>
        <time>2021-08-14T07:02:44.000Z</time>
      </trkpt>
      <trkpt lat="49.78145" lon="4.79686">
        <ele>255</ele>
        <time>2021-08-14T07:02:45.000Z</time>
      </trkpt>
      <trkpt lat="49.7815" lon="4.79684">
        <ele>255</ele>
        <time>2021-08-14T07:02:46.000Z</time>
      </trkpt>
      <trkpt lat="49.78154" lon="4.79681">
        <ele>255</ele>
        <time>2021-08-14T07:02:47.000Z</time>
      </trkpt>
      <trkpt lat="49.78158" lon="4.79677">
        <ele>255</ele>
        <time>2021-08-14T07:02:48.000Z</time>
      </trkpt>
      <trkpt lat="49.78163" lon="4.79674">
        <ele>255</ele>
        <time>2021-08-14T07:02:49.000Z</time>
      </trkpt>
      <trkpt lat="49.78167" lon="4.79671">
        <ele>255</ele>
        <time>2021-08-14T07:02:50.000Z</time>
      </trkpt>
      <trkpt lat="49.78172" lon="4.79667">
        <ele>255</ele>
        <time>2021-08-14T07:02:51.000Z</time>
      </trkpt>
      <trkpt lat="49.78177" lon="4.79663">
        <ele>256</ele>
        <time>2021-08-14T07:02:52.000Z</time>
      </trkpt>
      <trkpt lat="49.78181" lon="4.7966">
        <ele>256</ele>
        <time>2021-08-14T07:02:53.000Z</time>
      </trkpt>
      <trkpt lat="49.78186" lon="4.79655">
        <ele>256</ele>
        <time>2021-08-14T07:02:54.000Z</time>
      </trkpt>
      <trkpt lat="49.7819" lon="4.79652">
        <ele>256</ele>
        <time>2021-08-14T07:02:55.000Z</time>
      </trkpt>
      <trkpt lat="49.78195" lon="4.79648">
        <ele>256</ele>
        <time>2021-08-14T07:02:56.000Z</time>
      </trkpt>
      <trkpt lat="49.782" lon="4.79643">
        <ele>256</ele>
        <time>2021-08-14T07:02:57.000Z</time>
      </trkpt>
      <trkpt lat="49.78204" lon="4.79639">
        <ele>256</ele>
        <time>2021-08-14T07:02:58.000Z</time>
      </trkpt>
      <trkpt lat="49.78209" lon="4.79635">
        <ele>256</ele>
        <time>2021-08-14T07:02:59.000Z</time>
      </trkpt>
      <trkpt lat="49.78214" lon="4.79631">
        <ele>256</ele>
        <time>2021-08-14T07:03:00.000Z</time>
      </trkpt>
      <trkpt lat="49.78219" lon="4.79627">
        <ele>255</ele>
        <time>2021-08-14T07:03:01.000Z</time>
      </trkpt>
      <trkpt lat="49.78224" lon="4.79623">
        <ele>255</ele>
        <time>2021-08-14T07:03:02.000Z</time>
      </trkpt>
      <trkpt lat="49.78229" lon="4.7962">
        <ele>255</ele>
        <time>2021-08-14T07:03:03.000Z</time>
      </trkpt>
      <trkpt lat="49.78235" lon="4.79616">
        <ele>255</ele>
        <time>2021-08-14T07:03:04.000Z</time>
      </trkpt>
      <trkpt lat="49.78241" lon="4.79612">
        <ele>255</ele>
        <time>2021-08-14T07:03:05.000Z</time>
      </trkpt>
      <trkpt lat="49.78248" lon="4.79609">
        <ele>254</ele>
        <time>2021-08-14T07:03:06.000Z</time>
      </trkpt>
      <trkpt lat="49.78255" lon="4.79607">
        <ele>254</ele>
        <time>2021-08-14T07:03:07.000Z</time>
      </trkpt>
      <trkpt lat="49.78262" lon="4.79604">
        <ele>254</ele>
        <time>2021-08-14T07:03:08.000Z</time>
      </trkpt>
      <trkpt lat="49.78268" lon="4.79602">
        <ele>253</ele>
        <time>2021-08-14T07:03:09.000Z</time>
      </trkpt>
      <trkpt lat="49.78275" lon="4.79601">
        <ele>253</ele>
        <time>2021-08-14T07:03:10.000Z</time>
      </trkpt>
      <trkpt lat="49.78282" lon="4.79599">
        <ele>253</ele>
        <time>2021-08-14T07:03:11.000Z</time>
      </trkpt>
      <trkpt lat="49.78288" lon="4.79596">
        <ele>252</ele>
        <time>2021-08-14T07:03:12.000Z</time>
      </trkpt>
      <trkpt lat="49.78295" lon="4.79594">
        <ele>252</ele>
        <time>2021-08-14T07:03:13.000Z</time>
      </trkpt>
      <trkpt lat="49.78303" lon="4.79594">
        <ele>252</ele>
        <time>2021-08-14T07:03:14.000Z</time>
      </trkpt>
      <trkpt lat="49.78309" lon="4.79597">
        <ele>252</ele>
        <time>2021-08-14T07:03:15.000Z</time>
      </trkpt>
      <trkpt lat="49.78315" lon="4.796">
        <ele>252</ele>
        <time>2021-08-14T07:03:16.000Z</time>
      </trkpt>
      <trkpt lat="49.78321" lon="4.79603">
        <ele>252</ele>
        <time>2021-08-14T07:03:17.000Z</time>
      </trkpt>
      <trkpt lat="49.78327" lon="4.79606">
        <ele>252</ele>
        <time>2021-08-14T07:03:18.000Z</time>
      </trkpt>
      <trkpt lat="49.78333" lon="4.7961">
        <ele>252</ele>
        <time>2021-08-14T07:03:19.000Z</time>
      </trkpt>
      <trkpt lat="49.78338" lon="4.79613">
        <ele>252</ele>
        <time>2021-08-14T07:03:20.000Z</time>
      </trkpt>
      <trkpt lat="49.78343" lon="4.79617">
        <ele>252</ele>
        <time>2021-08-14T07:03:21.000Z</time>
      </trkpt>
      <trkpt lat="49.78348" lon="4.79621">
        <ele>252</ele>
        <time>2021-08-14T07:03:22.000Z</time>
      </trkpt>
      <trkpt lat="49.78354" lon="4.79624">
        <ele>252</ele>
        <time>2021-08-14T07:03:23.000Z</time>
      </trkpt>
      <trkpt lat="49.78359" lon="4.79628">
        <ele>252</ele>
        <time>2021-08-14T07:03:24.000Z</time>
      </trkpt>
      <trkpt lat="49.78364" lon="4.79631">
        <ele>252</ele>
        <time>2021-08-14T07:03:25.000Z</time>
      </trkpt>
      <trkpt lat="49.78369" lon="4.79634">
        <ele>252</ele>
        <time>2021-08-14T07:03:26.000Z</time>
      </trkpt>
      <trkpt lat="49.78373" lon="4.79637">
        <ele>252</ele>
        <time>2021-08-14T07:03:27.000Z</time>
      </trkpt>
      <trkpt lat="49.78378" lon="4.79639">
        <ele>253</ele>
        <time>2021-08-14T07:03:28.000Z</time>
      </trkpt>
      <trkpt lat="49.78382" lon="4.79642">
        <ele>253</ele>
        <time>2021-08-14T07:03:29.000Z</time>
      </trkpt>
      <trkpt lat="49.78387" lon="4.79645">
        <ele>253</ele>
        <time>2021-08-14T07:03:30.000Z</time>
      </trkpt>
      <trkpt lat="49.78391" lon="4.79647">
        <ele>253</ele>
        <time>2021-08-14T07:03:31.000Z</time>
      </trkpt>
      <trkpt lat="49.78395" lon="4.79649">
        <ele>253</ele>
        <time>2021-08-14T07:03:32.000Z</time>
      </trkpt>
      <trkpt lat="49.78399" lon="4.79652">
        <ele>253</ele>
        <time>2021-08-14T07:03:33.000Z</time>
      </trkpt>
      <trkpt lat="49.78403" lon="4.79654">
        <ele>253</ele>
        <time>2021-08-14T07:03:34.000Z</time>
      </trkpt>
      <trkpt lat="49.78407" lon="4.79655">
        <ele>253</ele>
        <time>2021-08-14T07:03:35.000Z</time>
      </trkpt>
      <trkpt lat="49.78411" lon="4.79657">
        <ele>253</ele>
        <time>2021-08-14T07:03:36.000Z</time>
      </trkpt>
      <trkpt lat="49.78416" lon="4.79659">
        <ele>254</ele>
        <time>2021-08-14T07:03:37.000Z</time>
      </trkpt>
      <trkpt lat="49.7842" lon="4.79661">
        <ele>254</ele>
        <time>2021-08-14T07:03:38.000Z</time>
      </trkpt>
      <trkpt lat="49.78424" lon="4.79663">
        <ele>254</ele>
        <time>2021-08-14T07:03:39.000Z</time>
      </trkpt>
      <trkpt lat="49.78428" lon="4.79664">
        <ele>254</ele>
        <time>2021-08-14T07:03:40.000Z</time>
      </trkpt>
      <trkpt lat="49.78432" lon="4.79666">
        <ele>254</ele>
        <time>2021-08-14T07:03:41.000Z</time>
      </trkpt>
      <trkpt lat="49.78436" lon="4.79668">
        <ele>254</ele>
        <time>2021-08-14T07:03:42.000Z</time>
      </trkpt>
      <trkpt lat="49.78441" lon="4.7967">
        <ele>255</ele>
        <time>2021-08-14T07:03:43.000Z</time>
      </trkpt>
      <trkpt lat="49.78445" lon="4.79671">
        <ele>255</ele>
        <time>2021-08-14T07:03:44.000Z</time>
      </trkpt>
      <trkpt lat="49.78449" lon="4.79673">
        <ele>255</ele>
        <time>2021-08-14T07:03:45.000Z</time>
      </trkpt>
      <trkpt lat="49.78453" lon="4.79674">
        <ele>255</ele>
        <time>2021-08-14T07:03:46.000Z</time>
      </trkpt>
      <trkpt lat="49.78457" lon="4.79676">
        <ele>255</ele>
        <time>2021-08-14T07:03:47.000Z</time>
      </trkpt>
      <trkpt lat="49.78461" lon="4.79677">
        <ele>255</ele>
        <time>2021-08-14T07:03:48.000Z</time>
      </trkpt>
      <trkpt lat="49.78465" lon="4.79679">
        <ele>256</ele>
        <time>2021-08-14T07:03:49.000Z</time>
      </trkpt>
      <trkpt lat="49.7847" lon="4.7968">
        <ele>256</ele>
        <time>2021-08-14T07:03:50.000Z</time>
      </trkpt>
      <trkpt lat="49.78474" lon="4.79682">
        <ele>256</ele>
        <time>2021-08-14T07:03:51.000Z</time>
      </trkpt>
      <trkpt lat="49.78478" lon="4.79683">
        <ele>256</ele>
        <time>2021-08-14T07:03:52.000Z</time>
      </trkpt>
      <trkpt lat="49.78482" lon="4.79684">
        <ele>256</ele>
        <time>2021-08-14T07:03:53.000Z</time>
      </trkpt>
      <trkpt lat="49.78486" lon="4.79686">
        <ele>256</ele>
        <time>2021-08-14T07:03:54.000Z</time>
      </trkpt>
      <trkpt lat="49.7849" lon="4.79687">
        <ele>257</ele>
        <time>2021-08-14T07:03:55.000Z</time>
      </trkpt>
      <trkpt lat="49.78494" lon="4.79689">
        <ele>257</ele>
        <time>2021-08-14T07:03:56.000Z</time>
      </trkpt>
      <trkpt lat="49.78498" lon="4.79691">
        <ele>257</ele>
        <time>2021-08-14T07:03:57.000Z</time>
      </trkpt>
      <trkpt lat="49.78502" lon="4.79693">
        <ele>257</ele>
        <time>2021-08-14T07:03:58.000Z</time>
      </trkpt>
      <trkpt lat="49.78506" lon="4.79695">
        <ele>257</ele>
        <time>2021-08-14T07:03:59.000Z</time>
      </trkpt>
      <trkpt lat="49.7851" lon="4.79697">
        <ele>257</ele>
        <time>2021-08-14T07:04:00.000Z</time>
      </trkpt>
      <trkpt lat="49.78515" lon="4.79698">
        <ele>257</ele>
        <time>2021-08-14T07:04:01.000Z</time>
      </trkpt>
      <trkpt lat="49.78519" lon="4.797">
        <ele>258</ele>
        <time>2021-08-14T07:04:02.000Z</time>
      </trkpt>
      <trkpt lat="49.78523" lon="4.79701">
        <ele>258</ele>
        <time>2021-08-14T07:04:03.000Z</time>
      </trkpt>
      <trkpt lat="49.78527" lon="4.79702">
        <ele>258</ele>
        <time>2021-08-14T07:04:04.000Z</time>
      </trkpt>
      <trkpt lat="49.78531" lon="4.79703">
        <ele>258</ele>
        <time>2021-08-14T07:04:05.000Z</time>
      </trkpt>
      <trkpt lat="49.78535" lon="4.79704">
        <ele>258</ele>
        <time>2021-08-14T07:04:06.000Z</time>
      </trkpt>
      <trkpt lat="49.78539" lon="4.79705">
        <ele>259</ele>
        <time>2021-08-14T07:04:07.000Z</time>
      </trkpt>
      <trkpt lat="49.78543" lon="4.79707">
        <ele>259</ele>
        <time>2021-08-14T07:04:08.000Z</time>
      </trkpt>
      <trkpt lat="49.78547" lon="4.79708">
        <ele>259</ele>
        <time>2021-08-14T07:04:09.000Z</time>
      </trkpt>
      <trkpt lat="49.78551" lon="4.7971">
        <ele>259</ele>
        <time>2021-08-14T07:04:10.000Z</time>
      </trkpt>
      <trkpt lat="49.78556" lon="4.79711">
        <ele>259</ele>
        <time>2021-08-14T07:04:11.000Z</time>
      </trkpt>
      <trkpt lat="49.7856" lon="4.79713">
        <ele>259</ele>
        <time>2021-08-14T07:04:12.000Z</time>
      </trkpt>
      <trkpt lat="49.78564" lon="4.79714">
        <ele>260</ele>
        <time>2021-08-14T07:04:13.000Z</time>
      </trkpt>
      <trkpt lat="49.78568" lon="4.79716">
        <ele>260</ele>
        <time>2021-08-14T07:04:14.000Z</time>
      </trkpt>
      <trkpt lat="49.78572" lon="4.79717">
        <ele>260</ele>
        <time>2021-08-14T07:04:15.000Z</time>
      </trkpt>
      <trkpt lat="49.78576" lon="4.79719">
        <ele>260</ele>
        <time>2021-08-14T07:04:16.000Z</time>
      </trkpt>
      <trkpt lat="49.7858" lon="4.7972">
        <ele>260</ele>
        <time>2021-08-14T07:04:17.000Z</time>
      </trkpt>
      <trkpt lat="49.78584" lon="4.79722">
        <ele>260</ele>
        <time>2021-08-14T07:04:18.000Z</time>
      </trkpt>
      <trkpt lat="49.78589" lon="4.79723">
        <ele>261</ele>
        <time>2021-08-14T07:04:19.000Z</time>
      </trkpt>
      <trkpt lat="49.78593" lon="4.79725">
        <ele>261</ele>
        <time>2021-08-14T07:04:20.000Z</time>
      </trkpt>
      <trkpt lat="49.78597" lon="4.79726">
        <ele>261</ele>
        <time>2021-08-14T07:04:21.000Z</time>
      </trkpt>
      <trkpt lat="49.78601" lon="4.79728">
        <ele>261</ele>
        <time>2021-08-14T07:04:22.000Z</time>
      </trkpt>
      <trkpt lat="49.78605" lon="4.79729">
        <ele>261</ele>
        <time>2021-08-14T07:04:23.000Z</time>
      </trkpt>
      <trkpt lat="49.78609" lon="4.7973">
        <ele>261</ele>
        <time>2021-08-14T07:04:24.000Z</time>
      </trkpt>
      <trkpt lat="49.78613" lon="4.79732">
        <ele>262</ele>
        <time>2021-08-14T07:04:25.000Z</time>
      </trkpt>
      <trkpt lat="49.78617" lon="4.79734">
        <ele>262</ele>
        <time>2021-08-14T07:04:26.000Z</time>
      </trkpt>
      <trkpt lat="49.78621" lon="4.79735">
        <ele>262</ele>
        <time>2021-08-14T07:04:27.000Z</time>
      </trkpt>
      <trkpt lat="49.78625" lon="4.79737">
        <ele>262</ele>
        <time>2021-08-14T07:04:28.000Z</time>
      </trkpt>
      <trkpt lat="49.78629" lon="4.79739">
        <ele>262</ele>
        <time>2021-08-14T07:04:29.000Z</time>
      </trkpt>
      <trkpt lat="49.78634" lon="4.7974">
        <ele>262</ele>
        <time>2021-08-14T07:04:30.000Z</time>
      </trkpt>
      <trkpt lat="49.78638" lon="4.79741">
        <ele>262</ele>
        <time>2021-08-14T07:04:31.000Z</time>
      </trkpt>
      <trkpt lat="49.78642" lon="4.79743">
        <ele>263</ele>
        <time>2021-08-14T07:04:32.000Z</time>
      </trkpt>
      <trkpt lat="49.78646" lon="4.79744">
        <ele>263</ele>
        <time>2021-08-14T07:04:33.000Z</time>
      </trkpt>
      <trkpt lat="49.7865" lon="4.79746">
        <ele>263</ele>
        <time>2021-08-14T07:04:34.000Z</time>
      </trkpt>
      <trkpt lat="49.78654" lon="4.79747">
        <ele>263</ele>
        <time>2021-08-14T07:04:35.000Z</time>
      </trkpt>
      <trkpt lat="49.78659" lon="4.79748">
        <ele>263</ele>
        <time>2021-08-14T07:04:36.000Z</time>
      </trkpt>
      <trkpt lat="49.78663" lon="4.7975">
        <ele>263</ele>
        <time>2021-08-14T07:04:37.000Z</time>
      </trkpt>
      <trkpt lat="49.78667" lon="4.79752">
        <ele>263</ele>
        <time>2021-08-14T07:04:38.000Z</time>
      </trkpt>
      <trkpt lat="49.78671" lon="4.79754">
        <ele>264</ele>
        <time>2021-08-14T07:04:39.000Z</time>
      </trkpt>
      <trkpt lat="49.78675" lon="4.79755">
        <ele>264</ele>
        <time>2021-08-14T07:04:40.000Z</time>
      </trkpt>
      <trkpt lat="49.78679" lon="4.79757">
        <ele>264</ele>
        <time>2021-08-14T07:04:41.000Z</time>
      </trkpt>
      <trkpt lat="49.78684" lon="4.79758">
        <ele>264</ele>
        <time>2021-08-14T07:04:42.000Z</time>
      </trkpt>
      <trkpt lat="49.78688" lon="4.7976">
        <ele>264</ele>
        <time>2021-08-14T07:04:43.000Z</time>
      </trkpt>
      <trkpt lat="49.78692" lon="4.79761">
        <ele>264</ele>
        <time>2021-08-14T07:04:44.000Z</time>
      </trkpt>
      <trkpt lat="49.78697" lon="4.79763">
        <ele>264</ele>
        <time>2021-08-14T07:04:45.000Z</time>
      </trkpt>
      <trkpt lat="49.78701" lon="4.79764">
        <ele>264</ele>
        <time>2021-08-14T07:04:46.000Z</time>
      </trkpt>
      <trkpt lat="49.78706" lon="4.79765">
        <ele>264</ele>
        <time>2021-08-14T07:04:47.000Z</time>
      </trkpt>
      <trkpt lat="49.7871" lon="4.79767">
        <ele>264</ele>
        <time>2021-08-14T07:04:48.000Z</time>
      </trkpt>
      <trkpt lat="49.78715" lon="4.79769">
        <ele>264</ele>
        <time>2021-08-14T07:04:49.000Z</time>
      </trkpt>
      <trkpt lat="49.78719" lon="4.7977">
        <ele>264</ele>
        <time>2021-08-14T07:04:50.000Z</time>
      </trkpt>
      <trkpt lat="49.78723" lon="4.79772">
        <ele>264</ele>
        <time>2021-08-14T07:04:51.000Z</time>
      </trkpt>
      <trkpt lat="49.78728" lon="4.79774">
        <ele>264</ele>
        <time>2021-08-14T07:04:52.000Z</time>
      </trkpt>
      <trkpt lat="49.78732" lon="4.79775">
        <ele>264</ele>
        <time>2021-08-14T07:04:53.000Z</time>
      </trkpt>
      <trkpt lat="49.78737" lon="4.79776">
        <ele>265</ele>
        <time>2021-08-14T07:04:54.000Z</time>
      </trkpt>
      <trkpt lat="49.78742" lon="4.79778">
        <ele>265</ele>
        <time>2021-08-14T07:04:55.000Z</time>
      </trkpt>
      <trkpt lat="49.78747" lon="4.7978">
        <ele>265</ele>
        <time>2021-08-14T07:04:56.000Z</time>
      </trkpt>
      <trkpt lat="49.78751" lon="4.79782">
        <ele>265</ele>
        <time>2021-08-14T07:04:57.000Z</time>
      </trkpt>
      <trkpt lat="49.78756" lon="4.79784">
        <ele>265</ele>
        <time>2021-08-14T07:04:58.000Z</time>
      </trkpt>
      <trkpt lat="49.78761" lon="4.79786">
        <ele>265</ele>
        <time>2021-08-14T07:04:59.000Z</time>
      </trkpt>
      <trkpt lat="49.78764" lon="4.79789">
        <ele>266</ele>
        <time>2021-08-14T07:05:00.000Z</time>
      </trkpt>
      <trkpt lat="49.78769" lon="4.7979">
        <ele>266</ele>
        <time>2021-08-14T07:05:01.000Z</time>
      </trkpt>
      <trkpt lat="49.78774" lon="4.79792">
        <ele>266</ele>
        <time>2021-08-14T07:05:02.000Z</time>
      </trkpt>
      <trkpt lat="49.78779" lon="4.79795">
        <ele>266</ele>
        <time>2021-08-14T07:05:03.000Z</time>
      </trkpt>
      <trkpt lat="49.78784" lon="4.79797">
        <ele>266</ele>
        <time>2021-08-14T07:05:04.000Z</time>
      </trkpt>
      <trkpt lat="49.78789" lon="4.798">
        <ele>266</ele>
        <time>2021-08-14T07:05:05.000Z</time>
      </trkpt>
      <trkpt lat="49.78795" lon="4.79803">
        <ele>267</ele>
        <time>2021-08-14T07:05:06.000Z</time>
      </trkpt>
      <trkpt lat="49.788" lon="4.79805">
        <ele>267</ele>
        <time>2021-08-14T07:05:07.000Z</time>
      </trkpt>
      <trkpt lat="49.78806" lon="4.79808">
        <ele>267</ele>
        <time>2021-08-14T07:05:08.000Z</time>
      </trkpt>
      <trkpt lat="49.78811" lon="4.7981">
        <ele>267</ele>
        <time>2021-08-14T07:05:09.000Z</time>
      </trkpt>
      <trkpt lat="49.78817" lon="4.79813">
        <ele>268</ele>
        <time>2021-08-14T07:05:10.000Z</time>
      </trkpt>
      <trkpt lat="49.78822" lon="4.79816">
        <ele>268</ele>
        <time>2021-08-14T07:05:11.000Z</time>
      </trkpt>
      <trkpt lat="49.78828" lon="4.79819">
        <ele>268</ele>
        <time>2021-08-14T07:05:12.000Z</time>
      </trkpt>
      <trkpt lat="49.78833" lon="4.79822">
        <ele>269</ele>
        <time>2021-08-14T07:05:13.000Z</time>
      </trkpt>
      <trkpt lat="49.78838" lon="4.79825">
        <ele>269</ele>
        <time>2021-08-14T07:05:14.000Z</time>
      </trkpt>
      <trkpt lat="49.78844" lon="4.79829">
        <ele>269</ele>
        <time>2021-08-14T07:05:15.000Z</time>
      </trkpt>
      <trkpt lat="49.78849" lon="4.79832">
        <ele>269</ele>
        <time>2021-08-14T07:05:16.000Z</time>
      </trkpt>
      <trkpt lat="49.78855" lon="4.79836">
        <ele>270</ele>
        <time>2021-08-14T07:05:17.000Z</time>
      </trkpt>
      <trkpt lat="49.7886" lon="4.79839">
        <ele>270</ele>
        <time>2021-08-14T07:05:18.000Z</time>
      </trkpt>
      <trkpt lat="49.78866" lon="4.79843">
        <ele>270</ele>
        <time>2021-08-14T07:05:19.000Z</time>
      </trkpt>
      <trkpt lat="49.78871" lon="4.79847">
        <ele>270</ele>
        <time>2021-08-14T07:05:20.000Z</time>
      </trkpt>
      <trkpt lat="49.78876" lon="4.7985">
        <ele>270</ele>
        <time>2021-08-14T07:05:21.000Z</time>
      </trkpt>
      <trkpt lat="49.78881" lon="4.79854">
        <ele>270</ele>
        <time>2021-08-14T07:05:22.000Z</time>
      </trkpt>
      <trkpt lat="49.78886" lon="4.79857">
        <ele>270</ele>
        <time>2021-08-14T07:05:23.000Z</time>
      </trkpt>
      <trkpt lat="49.78891" lon="4.79861">
        <ele>270</ele>
        <time>2021-08-14T07:05:24.000Z</time>
      </trkpt>
      <trkpt lat="49.78896" lon="4.79865">
        <ele>270</ele>
        <time>2021-08-14T07:05:25.000Z</time>
      </trkpt>
      <trkpt lat="49.78902" lon="4.79869">
        <ele>270</ele>
        <time>2021-08-14T07:05:26.000Z</time>
      </trkpt>
      <trkpt lat="49.78907" lon="4.79873">
        <ele>269</ele>
        <time>2021-08-14T07:05:27.000Z</time>
      </trkpt>
      <trkpt lat="49.78912" lon="4.79877">
        <ele>269</ele>
        <time>2021-08-14T07:05:28.000Z</time>
      </trkpt>
      <trkpt lat="49.78918" lon="4.79881">
        <ele>269</ele>
        <time>2021-08-14T07:05:29.000Z</time>
      </trkpt>
      <trkpt lat="49.78923" lon="4.79886">
        <ele>269</ele>
        <time>2021-08-14T07:05:30.000Z</time>
      </trkpt>
      <trkpt lat="49.78928" lon="4.7989">
        <ele>269</ele>
        <time>2021-08-14T07:05:31.000Z</time>
      </trkpt>
      <trkpt lat="49.78934" lon="4.79895">
        <ele>269</ele>
        <time>2021-08-14T07:05:32.000Z</time>
      </trkpt>
      <trkpt lat="49.78939" lon="4.79899">
        <ele>269</ele>
        <time>2021-08-14T07:05:33.000Z</time>
      </trkpt>
      <trkpt lat="49.78944" lon="4.79904">
        <ele>269</ele>
        <time>2021-08-14T07:05:34.000Z</time>
      </trkpt>
      <trkpt lat="49.7895" lon="4.79908">
        <ele>269</ele>
        <time>2021-08-14T07:05:35.000Z</time>
      </trkpt>
      <trkpt lat="49.78955" lon="4.79913">
        <ele>269</ele>
        <time>2021-08-14T07:05:36.000Z</time>
      </trkpt>
      <trkpt lat="49.7896" lon="4.79918">
        <ele>269</ele>
        <time>2021-08-14T07:05:37.000Z</time>
      </trkpt>
      <trkpt lat="49.78965" lon="4.79923">
        <ele>268</ele>
        <time>2021-08-14T07:05:38.000Z</time>
      </trkpt>
      <trkpt lat="49.78971" lon="4.79928">
        <ele>268</ele>
        <time>2021-08-14T07:05:39.000Z</time>
      </trkpt>
      <trkpt lat="49.78976" lon="4.79933">
        <ele>268</ele>
        <time>2021-08-14T07:05:40.000Z</time>
      </trkpt>
      <trkpt lat="49.78981" lon="4.79937">
        <ele>268</ele>
        <time>2021-08-14T07:05:41.000Z</time>
      </trkpt>
      <trkpt lat="49.78987" lon="4.79942">
        <ele>268</ele>
        <time>2021-08-14T07:05:42.000Z</time>
      </trkpt>
      <trkpt lat="49.78992" lon="4.79947">
        <ele>268</ele>
        <time>2021-08-14T07:05:43.000Z</time>
      </trkpt>
      <trkpt lat="49.78997" lon="4.79952">
        <ele>268</ele>
        <time>2021-08-14T07:05:44.000Z</time>
      </trkpt>
      <trkpt lat="49.79003" lon="4.79957">
        <ele>267</ele>
        <time>2021-08-14T07:05:45.000Z</time>
      </trkpt>
      <trkpt lat="49.79008" lon="4.79962">
        <ele>267</ele>
        <time>2021-08-14T07:05:46.000Z</time>
      </trkpt>
      <trkpt lat="49.79013" lon="4.79968">
        <ele>267</ele>
        <time>2021-08-14T07:05:47.000Z</time>
      </trkpt>
      <trkpt lat="49.79019" lon="4.79973">
        <ele>267</ele>
        <time>2021-08-14T07:05:48.000Z</time>
      </trkpt>
      <trkpt lat="49.79024" lon="4.79978">
        <ele>267</ele>
        <time>2021-08-14T07:05:49.000Z</time>
      </trkpt>
      <trkpt lat="49.79029" lon="4.79982">
        <ele>266</ele>
        <time>2021-08-14T07:05:50.000Z</time>
      </trkpt>
      <trkpt lat="49.79035" lon="4.79987">
        <ele>266</ele>
        <time>2021-08-14T07:05:51.000Z</time>
      </trkpt>
      <trkpt lat="49.7904" lon="4.79992">
        <ele>266</ele>
        <time>2021-08-14T07:05:52.000Z</time>
      </trkpt>
      <trkpt lat="49.79046" lon="4.79998">
        <ele>266</ele>
        <time>2021-08-14T07:05:53.000Z</time>
      </trkpt>
      <trkpt lat="49.79051" lon="4.80003">
        <ele>266</ele>
        <time>2021-08-14T07:05:54.000Z</time>
      </trkpt>
      <trkpt lat="49.79057" lon="4.80009">
        <ele>266</ele>
        <time>2021-08-14T07:05:55.000Z</time>
      </trkpt>
      <trkpt lat="49.79063" lon="4.80014">
        <ele>265</ele>
        <time>2021-08-14T07:05:56.000Z</time>
      </trkpt>
      <trkpt lat="49.79069" lon="4.80019">
        <ele>265</ele>
        <time>2021-08-14T07:05:57.000Z</time>
      </trkpt>
      <trkpt lat="49.79074" lon="4.80024">
        <ele>265</ele>
        <time>2021-08-14T07:05:58.000Z</time>
      </trkpt>
      <trkpt lat="49.7908" lon="4.80029">
        <ele>265</ele>
        <time>2021-08-14T07:05:59.000Z</time>
      </trkpt>
      <trkpt lat="49.79085" lon="4.80034">
        <ele>265</ele>
        <time>2021-08-14T07:06:00.000Z</time>
      </trkpt>
      <trkpt lat="49.79091" lon="4.80039">
        <ele>265</ele>
        <time>2021-08-14T07:06:01.000Z</time>
      </trkpt>
      <trkpt lat="49.79096" lon="4.80044">
        <ele>265</ele>
        <time>2021-08-14T07:06:02.000Z</time>
      </trkpt>
      <trkpt lat="49.79101" lon="4.80048">
        <ele>265</ele>
        <time>2021-08-14T07:06:03.000Z</time>
      </trkpt>
      <trkpt lat="49.79107" lon="4.80052">
        <ele>265</ele>
        <time>2021-08-14T07:06:04.000Z</time>
      </trkpt>
      <trkpt lat="49.79112" lon="4.80056">
        <ele>265</ele>
        <time>2021-08-14T07:06:05.000Z</time>
      </trkpt>
      <trkpt lat="49.79117" lon="4.8006">
        <ele>265</ele>
        <time>2021-08-14T07:06:06.000Z</time>
      </trkpt>
      <trkpt lat="49.79122" lon="4.80063">
        <ele>265</ele>
        <time>2021-08-14T07:06:07.000Z</time>
      </trkpt>
      <trkpt lat="49.79128" lon="4.80067">
        <ele>265</ele>
        <time>2021-08-14T07:06:08.000Z</time>
      </trkpt>
      <trkpt lat="49.79133" lon="4.8007">
        <ele>265</ele>
        <time>2021-08-14T07:06:09.000Z</time>
      </trkpt>
      <trkpt lat="49.79138" lon="4.80072">
        <ele>265</ele>
        <time>2021-08-14T07:06:10.000Z</time>
      </trkpt>
      <trkpt lat="49.79143" lon="4.80073">
        <ele>265</ele>
        <time>2021-08-14T07:06:11.000Z</time>
      </trkpt>
      <trkpt lat="49.79148" lon="4.80073">
        <ele>265</ele>
        <time>2021-08-14T07:06:12.000Z</time>
      </trkpt>
      <trkpt lat="49.79154" lon="4.80072">
        <ele>265</ele>
        <time>2021-08-14T07:06:13.000Z</time>
      </trkpt>
      <trkpt lat="49.79159" lon="4.80072">
        <ele>265</ele>
        <time>2021-08-14T07:06:14.000Z</time>
      </trkpt>
      <trkpt lat="49.79165" lon="4.80071">
        <ele>265</ele>
        <time>2021-08-14T07:06:15.000Z</time>
      </trkpt>
      <trkpt lat="49.7917" lon="4.80069">
        <ele>265</ele>
        <time>2021-08-14T07:06:16.000Z</time>
      </trkpt>
      <trkpt lat="49.79175" lon="4.80068">
        <ele>266</ele>
        <time>2021-08-14T07:06:17.000Z</time>
      </trkpt>
      <trkpt lat="49.79179" lon="4.80068">
        <ele>266</ele>
        <time>2021-08-14T07:06:18.000Z</time>
      </trkpt>
      <trkpt lat="49.79184" lon="4.80068">
        <ele>266</ele>
        <time>2021-08-14T07:06:19.000Z</time>
      </trkpt>
      <trkpt lat="49.79187" lon="4.80069">
        <ele>266</ele>
        <time>2021-08-14T07:06:20.000Z</time>
      </trkpt>
      <trkpt lat="49.79192" lon="4.80069">
        <ele>266</ele>
        <time>2021-08-14T07:06:21.000Z</time>
      </trkpt>
      <trkpt lat="49.79196" lon="4.80068">
        <ele>266</ele>
        <time>2021-08-14T07:06:22.000Z</time>
      </trkpt>
      <trkpt lat="49.792" lon="4.80067">
        <ele>267</ele>
        <time>2021-08-14T07:06:23.000Z</time>
      </trkpt>
      <trkpt lat="49.79205" lon="4.80066">
        <ele>267</ele>
        <time>2021-08-14T07:06:24.000Z</time>
      </trkpt>
      <trkpt lat="49.79209" lon="4.80065">
        <ele>267</ele>
        <time>2021-08-14T07:06:25.000Z</time>
      </trkpt>
      <trkpt lat="49.79212" lon="4.80064">
        <ele>267</ele>
        <time>2021-08-14T07:06:26.000Z</time>
      </trkpt>
      <trkpt lat="49.79214" lon="4.80064">
        <ele>268</ele>
        <time>2021-08-14T07:06:27.000Z</time>
      </trkpt>
      <trkpt lat="49.79217" lon="4.80064">
        <ele>268</ele>
        <time>2021-08-14T07:06:28.000Z</time>
      </trkpt>
      <trkpt lat="49.7922" lon="4.80063">
        <ele>268</ele>
        <time>2021-08-14T07:06:29.000Z</time>
      </trkpt>
      <trkpt lat="49.79222" lon="4.80063">
        <ele>268</ele>
        <time>2021-08-14T07:06:30.000Z</time>
      </trkpt>
      <trkpt lat="49.79225" lon="4.80063">
        <ele>269</ele>
        <time>2021-08-14T07:06:31.000Z</time>
      </trkpt>
      <trkpt lat="49.79228" lon="4.80063">
        <ele>269</ele>
        <time>2021-08-14T07:06:32.000Z</time>
      </trkpt>
      <trkpt lat="49.79231" lon="4.80063">
        <ele>269</ele>
        <time>2021-08-14T07:06:33.000Z</time>
      </trkpt>
      <trkpt lat="49.79234" lon="4.80062">
        <ele>269</ele>
        <time>2021-08-14T07:06:34.000Z</time>
      </trkpt>
      <trkpt lat="49.79237" lon="4.80062">
        <ele>270</ele>
        <time>2021-08-14T07:06:35.000Z</time>
      </trkpt>
      <trkpt lat="49.7924" lon="4.80062">
        <ele>270</ele>
        <time>2021-08-14T07:06:36.000Z</time>
      </trkpt>
      <trkpt lat="49.79243" lon="4.80061">
        <ele>270</ele>
        <time>2021-08-14T07:06:37.000Z</time>
      </trkpt>
      <trkpt lat="49.79245" lon="4.8006">
        <ele>271</ele>
        <time>2021-08-14T07:06:38.000Z</time>
      </trkpt>
      <trkpt lat="49.79247" lon="4.8006">
        <ele>271</ele>
        <time>2021-08-14T07:06:39.000Z</time>
      </trkpt>
      <trkpt lat="49.79249" lon="4.80059">
        <ele>272</ele>
        <time>2021-08-14T07:06:40.000Z</time>
      </trkpt>
      <trkpt lat="49.79252" lon="4.80058">
        <ele>272</ele>
        <time>2021-08-14T07:06:41.000Z</time>
      </trkpt>
      <trkpt lat="49.79254" lon="4.80057">
        <ele>272</ele>
        <time>2021-08-14T07:06:42.000Z</time>
      </trkpt>
      <trkpt lat="49.79256" lon="4.80056">
        <ele>273</ele>
        <time>2021-08-14T07:06:43.000Z</time>
      </trkpt>
      <trkpt lat="49.79259" lon="4.80054">
        <ele>273</ele>
        <time>2021-08-14T07:06:44.000Z</time>
      </trkpt>
      <trkpt lat="49.79261" lon="4.80053">
        <ele>274</ele>
        <time>2021-08-14T07:06:45.000Z</time>
      </trkpt>
      <trkpt lat="49.79264" lon="4.80052">
        <ele>274</ele>
        <time>2021-08-14T07:06:46.000Z</time>
      </trkpt>
      <trkpt lat="49.79267" lon="4.80051">
        <ele>274</ele>
        <time>2021-08-14T07:06:47.000Z</time>
      </trkpt>
      <trkpt lat="49.7927" lon="4.8005">
        <ele>275</ele>
        <time>2021-08-14T07:06:48.000Z</time>
      </trkpt>
      <trkpt lat="49.79273" lon="4.80049">
        <ele>275</ele>
        <time>2021-08-14T07:06:49.000Z</time>
      </trkpt>
      <trkpt lat="49.79276" lon="4.80048">
        <ele>275</ele>
        <time>2021-08-14T07:06:50.000Z</time>
      </trkpt>
      <trkpt lat="49.79279" lon="4.80047">
        <ele>276</ele>
        <time>2021-08-14T07:06:51.000Z</time>
      </trkpt>
      <trkpt lat="49.79282" lon="4.80047">
        <ele>276</ele>
        <time>2021-08-14T07:06:52.000Z</time>
      </trkpt>
      <trkpt lat="49.79285" lon="4.80046">
        <ele>276</ele>
        <time>2021-08-14T07:06:53.000Z</time>
      </trkpt>
      <trkpt lat="49.79288" lon="4.80046">
        <ele>277</ele>
        <time>2021-08-14T07:06:54.000Z</time>
      </trkpt>
      <trkpt lat="49.79291" lon="4.80045">
        <ele>277</ele>
        <time>2021-08-14T07:06:55.000Z</time>
      </trkpt>
      <trkpt lat="49.79294" lon="4.80045">
        <ele>277</ele>
        <time>2021-08-14T07:06:56.000Z</time>
      </trkpt>
      <trkpt lat="49.79297" lon="4.80045">
        <ele>277</ele>
        <time>2021-08-14T07:06:57.000Z</time>
      </trkpt>
      <trkpt lat="49.793" lon="4.80044">
        <ele>278</ele>
        <time>2021-08-14T07:06:58.000Z</time>
      </trkpt>
      <trkpt lat="49.79302" lon="4.80043">
        <ele>278</ele>
        <time>2021-08-14T07:06:59.000Z</time>
      </trkpt>
      <trkpt lat="49.79305" lon="4.80042">
        <ele>278</ele>
        <time>2021-08-14T07:07:00.000Z</time>
      </trkpt>
      <trkpt lat="49.79308" lon="4.80042">
        <ele>279</ele>
        <time>2021-08-14T07:07:01.000Z</time>
      </trkpt>
      <trkpt lat="49.7931" lon="4.80041">
        <ele>279</ele>
        <time>2021-08-14T07:07:02.000Z</time>
      </trkpt>
      <trkpt lat="49.79311" lon="4.8004">
        <ele>279</ele>
        <time>2021-08-14T07:07:03.000Z</time>
      </trkpt>
      <trkpt lat="49.79312" lon="4.80039">
        <ele>279</ele>
        <time>2021-08-14T07:07:04.000Z</time>
      </trkpt>
      <trkpt lat="49.79314" lon="4.80037">
        <ele>279</ele>
        <time>2021-08-14T07:07:05.000Z</time>
      </trkpt>
      <trkpt lat="49.79314" lon="4.80035">
        <ele>279</ele>
        <time>2021-08-14T07:07:06.000Z</time>
      </trkpt>
      <trkpt lat="49.79314" lon="4.80033">
        <ele>279</ele>
        <time>2021-08-14T07:07:07.000Z</time>
      </trkpt>
      <trkpt lat="49.79315" lon="4.80032">
        <ele>279</ele>
        <time>2021-08-14T07:07:08.000Z</time>
      </trkpt>
      <trkpt lat="49.79315" lon="4.80031">
        <ele>279</ele>
        <time>2021-08-14T07:07:09.000Z</time>
      </trkpt>
      <trkpt lat="49.79316" lon="4.8003">
        <ele>279</ele>
        <time>2021-08-14T07:07:10.000Z</time>
      </trkpt>
      <trkpt lat="49.79316" lon="4.8003">
        <ele>279</ele>
        <time>2021-08-14T07:07:11.000Z</time>
      </trkpt>
      <trkpt lat="49.79316" lon="4.8003">
        <ele>279</ele>
        <time>2021-08-14T07:07:12.000Z</time>
      </trkpt>
      <trkpt lat="49.79316" lon="4.80029">
        <ele>279</ele>
        <time>2021-08-14T07:07:13.000Z</time>
      </trkpt>
      <trkpt lat="49.79317" lon="4.80028">
        <ele>279</ele>
        <time>2021-08-14T07:07:14.000Z</time>
      </trkpt>
      <trkpt lat="49.79317" lon="4.80026">
        <ele>279</ele>
        <time>2021-08-14T07:07:15.000Z</time>
      </trkpt>
      <trkpt lat="49.79318" lon="4.80023">
        <ele>279</ele>
        <time>2021-08-14T07:07:16.000Z</time>
      </trkpt>
      <trkpt lat="49.79319" lon="4.8002">
        <ele>279</ele>
        <time>2021-08-14T07:07:17.000Z</time>
      </trkpt>
      <trkpt lat="49.79321" lon="4.80015">
        <ele>279</ele>
        <time>2021-08-14T07:07:18.000Z</time>
      </trkpt>
      <trkpt lat="49.79323" lon="4.80011">
        <ele>279</ele>
        <time>2021-08-14T07:07:19.000Z</time>
      </trkpt>
      <trkpt lat="49.79324" lon="4.80007">
        <ele>279</ele>
        <time>2021-08-14T07:07:20.000Z</time>
      </trkpt>
      <trkpt lat="49.79326" lon="4.80003">
        <ele>279</ele>
        <time>2021-08-14T07:07:21.000Z</time>
      </trkpt>
      <trkpt lat="49.79328" lon="4.8">
        <ele>278</ele>
        <time>2021-08-14T07:07:22.000Z</time>
      </trkpt>
      <trkpt lat="49.79329" lon="4.79996">
        <ele>278</ele>
        <time>2021-08-14T07:07:23.000Z</time>
      </trkpt>
      <trkpt lat="49.79331" lon="4.79993">
        <ele>278</ele>
        <time>2021-08-14T07:07:24.000Z</time>
      </trkpt>
      <trkpt lat="49.79333" lon="4.79988">
        <ele>278</ele>
        <time>2021-08-14T07:07:25.000Z</time>
      </trkpt>
      <trkpt lat="49.79333" lon="4.79983">
        <ele>278</ele>
        <time>2021-08-14T07:07:26.000Z</time>
      </trkpt>
      <trkpt lat="49.79334" lon="4.79979">
        <ele>278</ele>
        <time>2021-08-14T07:07:27.000Z</time>
      </trkpt>
      <trkpt lat="49.79336" lon="4.79975">
        <ele>278</ele>
        <time>2021-08-14T07:07:28.000Z</time>
      </trkpt>
      <trkpt lat="49.79337" lon="4.79973">
        <ele>278</ele>
        <time>2021-08-14T07:07:29.000Z</time>
      </trkpt>
      <trkpt lat="49.79338" lon="4.79972">
        <ele>278</ele>
        <time>2021-08-14T07:07:30.000Z</time>
      </trkpt>
      <trkpt lat="49.79338" lon="4.79972">
        <ele>278</ele>
        <time>2021-08-14T07:07:31.000Z</time>
      </trkpt>
      <trkpt lat="49.79339" lon="4.79971">
        <ele>278</ele>
        <time>2021-08-14T07:07:32.000Z</time>
      </trkpt>
      <trkpt lat="49.79339" lon="4.7997">
        <ele>278</ele>
        <time>2021-08-14T07:07:33.000Z</time>
      </trkpt>
      <trkpt lat="49.79339" lon="4.79969">
        <ele>278</ele>
        <time>2021-08-14T07:07:34.000Z</time>
      </trkpt>
      <trkpt lat="49.79339" lon="4.79967">
        <ele>278</ele>
        <time>2021-08-14T07:07:35.000Z</time>
      </trkpt>
      <trkpt lat="49.7934" lon="4.79966">
        <ele>277</ele>
        <time>2021-08-14T07:07:36.000Z</time>
      </trkpt>
      <trkpt lat="49.79339" lon="4.79966">
        <ele>277</ele>
        <time>2021-08-14T07:07:37.000Z</time>
      </trkpt>
      <trkpt lat="49.79339" lon="4.79965">
        <ele>277</ele>
        <time>2021-08-14T07:07:38.000Z</time>
      </trkpt>
      <trkpt lat="49.79339" lon="4.79965">
        <ele>277</ele>
        <time>2021-08-14T07:07:39.000Z</time>
      </trkpt>
      <trkpt lat="49.79339" lon="4.79965">
        <ele>277</ele>
        <time>2021-08-14T07:07:40.000Z</time>
      </trkpt>
      <trkpt lat="49.79339" lon="4.79964">
        <ele>277</ele>
        <time>2021-08-14T07:07:41.000Z</time>
      </trkpt>
      <trkpt lat="49.79339" lon="4.79964">
        <ele>277</ele>
        <time>2021-08-14T07:07:42.000Z</time>
      </trkpt>
      <trkpt lat="49.79339" lon="4.79964">
        <ele>277</ele>
        <time>2021-08-14T07:07:43.000Z</time>
      </trkpt>
      <trkpt lat="49.79339" lon="4.79963">
        <ele>277</ele>
        <time>2021-08-14T07:07:44.000Z</time>
      </trkpt>
      <trkpt lat="49.79339" lon="4.79963">
        <ele>277</ele>
        <time>2021-08-14T07:07:45.000Z</time>
      </trkpt>
      <trkpt lat="49.79339" lon="4.79963">
        <ele>277</ele>
        <time>2021-08-14T07:07:46.000Z</time>
      </trkpt>
      <trkpt lat="49.79339" lon="4.79963">
        <ele>277</ele>
        <time>2021-08-14T07:07:47.000Z</time>
      </trkpt>
      <trkpt lat="49.79339" lon="4.79963">
        <ele>277</ele>
        <time>2021-08-14T07:07:48.000Z</time>
      </trkpt>
      <trkpt lat="49.79339" lon="4.79963">
        <ele>277</ele>
        <time>2021-08-14T07:07:49.000Z</time>
      </trkpt>
      <trkpt lat="49.79339" lon="4.79963">
        <ele>277</ele>
        <time>2021-08-14T07:07:50.000Z</time>
      </trkpt>
      <trkpt lat="49.79339" lon="4.79962">
        <ele>277</ele>
        <time>2021-08-14T07:07:51.000Z</time>
      </trkpt>
      <trkpt lat="49.79339" lon="4.79962">
        <ele>277</ele>
        <time>2021-08-14T07:07:52.000Z</time>
      </trkpt>
      <trkpt lat="49.79339" lon="4.79962">
        <ele>277</ele>
        <time>2021-08-14T07:07:53.000Z</time>
      </trkpt>
      <trkpt lat="49.79339" lon="4.79962">
        <ele>277</ele>
        <time>2021-08-14T07:07:54.000Z</time>
      </trkpt>
      <trkpt lat="49.79339" lon="4.79962">
        <ele>277</ele>
        <time>2021-08-14T07:07:55.000Z</time>
      </trkpt>
      <trkpt lat="49.79339" lon="4.79962">
        <ele>277</ele>
        <time>2021-08-14T07:07:56.000Z</time>
      </trkpt>
      <trkpt lat="49.79339" lon="4.79962">
        <ele>277</ele>
        <time>2021-08-14T07:07:57.000Z</time>
      </trkpt>
      <trkpt lat="49.79339" lon="4.79962">
        <ele>277</ele>
        <time>2021-08-14T07:07:58.000Z</time>
      </trkpt>
      <trkpt lat="49.79339" lon="4.79962">
        <ele>277</ele>
        <time>2021-08-14T07:07:59.000Z</time>
      </trkpt>
      <trkpt lat="49.79339" lon="4.79962">
        <ele>277</ele>
        <time>2021-08-14T07:08:00.000Z</time>
      </trkpt>
      <trkpt lat="49.79339" lon="4.79962">
        <ele>277</ele>
        <time>2021-08-14T07:08:01.000Z</time>
      </trkpt>
      <trkpt lat="49.79339" lon="4.79962">
        <ele>277</ele>
        <time>2021-08-14T07:08:02.000Z</time>
      </trkpt>
      <trkpt lat="49.79339" lon="4.79961">
        <ele>277</ele>
        <time>2021-08-14T07:08:03.000Z</time>
      </trkpt>
      <trkpt lat="49.79338" lon="4.7996">
        <ele>277</ele>
        <time>2021-08-14T07:08:04.000Z</time>
      </trkpt>
      <trkpt lat="49.79338" lon="4.7996">
        <ele>277</ele>
        <time>2021-08-14T07:08:05.000Z</time>
      </trkpt>
      <trkpt lat="49.79339" lon="4.79958">
        <ele>277</ele>
        <time>2021-08-14T07:08:06.000Z</time>
      </trkpt>
      <trkpt lat="49.79339" lon="4.79957">
        <ele>277</ele>
        <time>2021-08-14T07:08:07.000Z</time>
      </trkpt>
      <trkpt lat="49.7934" lon="4.79954">
        <ele>277</ele>
        <time>2021-08-14T07:08:08.000Z</time>
      </trkpt>
      <trkpt lat="49.79341" lon="4.79951">
        <ele>277</ele>
        <time>2021-08-14T07:08:09.000Z</time>
      </trkpt>
      <trkpt lat="49.79342" lon="4.79948">
        <ele>277</ele>
        <time>2021-08-14T07:08:10.000Z</time>
      </trkpt>
      <trkpt lat="49.79343" lon="4.79945">
        <ele>277</ele>
        <time>2021-08-14T07:08:11.000Z</time>
      </trkpt>
      <trkpt lat="49.79344" lon="4.79943">
        <ele>277</ele>
        <time>2021-08-14T07:08:12.000Z</time>
      </trkpt>
      <trkpt lat="49.79346" lon="4.79939">
        <ele>277</ele>
        <time>2021-08-14T07:08:13.000Z</time>
      </trkpt>
      <trkpt lat="49.79347" lon="4.79936">
        <ele>277</ele>
        <time>2021-08-14T07:08:14.000Z</time>
      </trkpt>
      <trkpt lat="49.79349" lon="4.79933">
        <ele>277</ele>
        <time>2021-08-14T07:08:15.000Z</time>
      </trkpt>
      <trkpt lat="49.7935" lon="4.7993">
        <ele>277</ele>
        <time>2021-08-14T07:08:16.000Z</time>
      </trkpt>
      <trkpt lat="49.79352" lon="4.79926">
        <ele>277</ele>
        <time>2021-08-14T07:08:17.000Z</time>
      </trkpt>
      <trkpt lat="49.79353" lon="4.79921">
        <ele>277</ele>
        <time>2021-08-14T07:08:18.000Z</time>
      </trkpt>
      <trkpt lat="49.79354" lon="4.79916">
        <ele>277</ele>
        <time>2021-08-14T07:08:19.000Z</time>
      </trkpt>
      <trkpt lat="49.79355" lon="4.79911">
        <ele>277</ele>
        <time>2021-08-14T07:08:20.000Z</time>
      </trkpt>
      <trkpt lat="49.79356" lon="4.79907">
        <ele>277</ele>
        <time>2021-08-14T07:08:21.000Z</time>
      </trkpt>
      <trkpt lat="49.79358" lon="4.79902">
        <ele>277</ele>
        <time>2021-08-14T07:08:22.000Z</time>
      </trkpt>
      <trkpt lat="49.7936" lon="4.79899">
        <ele>278</ele>
        <time>2021-08-14T07:08:23.000Z</time>
      </trkpt>
      <trkpt lat="49.79362" lon="4.79896">
        <ele>278</ele>
        <time>2021-08-14T07:08:24.000Z</time>
      </trkpt>
      <trkpt lat="49.79364" lon="4.79893">
        <ele>278</ele>
        <time>2021-08-14T07:08:25.000Z</time>
      </trkpt>
      <trkpt lat="49.79365" lon="4.7989">
        <ele>278</ele>
        <time>2021-08-14T07:08:26.000Z</time>
      </trkpt>
      <trkpt lat="49.79367" lon="4.79886">
        <ele>278</ele>
        <time>2021-08-14T07:08:27.000Z</time>
      </trkpt>
      <trkpt lat="49.7937" lon="4.79883">
        <ele>278</ele>
        <time>2021-08-14T07:08:28.000Z</time>
      </trkpt>
      <trkpt lat="49.79371" lon="4.7988">
        <ele>278</ele>
        <time>2021-08-14T07:08:29.000Z</time>
      </trkpt>
      <trkpt lat="49.79373" lon="4.79877">
        <ele>278</ele>
        <time>2021-08-14T07:08:30.000Z</time>
      </trkpt>
      <trkpt lat="49.79375" lon="4.79874">
        <ele>279</ele>
        <time>2021-08-14T07:08:31.000Z</time>
      </trkpt>
      <trkpt lat="49.79376" lon="4.7987">
        <ele>279</ele>
        <time>2021-08-14T07:08:32.000Z</time>
      </trkpt>
      <trkpt lat="49.79377" lon="4.79866">
        <ele>279</ele>
        <time>2021-08-14T07:08:33.000Z</time>
      </trkpt>
      <trkpt lat="49.79378" lon="4.79862">
        <ele>279</ele>
        <time>2021-08-14T07:08:34.000Z</time>
      </trkpt>
      <trkpt lat="49.79379" lon="4.79858">
        <ele>279</ele>
        <time>2021-08-14T07:08:35.000Z</time>
      </trkpt>
      <trkpt lat="49.79381" lon="4.79854">
        <ele>280</ele>
        <time>2021-08-14T07:08:36.000Z</time>
      </trkpt>
      <trkpt lat="49.79382" lon="4.79851">
        <ele>280</ele>
        <time>2021-08-14T07:08:37.000Z</time>
      </trkpt>
      <trkpt lat="49.79384" lon="4.79849">
        <ele>280</ele>
        <time>2021-08-14T07:08:38.000Z</time>
      </trkpt>
      <trkpt lat="49.79386" lon="4.79848">
        <ele>281</ele>
        <time>2021-08-14T07:08:39.000Z</time>
      </trkpt>
      <trkpt lat="49.79388" lon="4.79847">
        <ele>281</ele>
        <time>2021-08-14T07:08:40.000Z</time>
      </trkpt>
      <trkpt lat="49.79391" lon="4.79847">
        <ele>281</ele>
        <time>2021-08-14T07:08:41.000Z</time>
      </trkpt>
      <trkpt lat="49.79393" lon="4.79847">
        <ele>281</ele>
        <time>2021-08-14T07:08:42.000Z</time>
      </trkpt>
      <trkpt lat="49.79395" lon="4.79847">
        <ele>282</ele>
        <time>2021-08-14T07:08:43.000Z</time>
      </trkpt>
      <trkpt lat="49.79397" lon="4.79847">
        <ele>282</ele>
        <time>2021-08-14T07:08:44.000Z</time>
      </trkpt>
      <trkpt lat="49.79399" lon="4.79846">
        <ele>282</ele>
        <time>2021-08-14T07:08:45.000Z</time>
      </trkpt>
      <trkpt lat="49.79402" lon="4.79845">
        <ele>282</ele>
        <time>2021-08-14T07:08:46.000Z</time>
      </trkpt>
      <trkpt lat="49.79405" lon="4.79845">
        <ele>283</ele>
        <time>2021-08-14T07:08:47.000Z</time>
      </trkpt>
      <trkpt lat="49.79407" lon="4.79844">
        <ele>283</ele>
        <time>2021-08-14T07:08:48.000Z</time>
      </trkpt>
      <trkpt lat="49.7941" lon="4.79844">
        <ele>283</ele>
        <time>2021-08-14T07:08:49.000Z</time>
      </trkpt>
      <trkpt lat="49.79412" lon="4.79844">
        <ele>283</ele>
        <time>2021-08-14T07:08:50.000Z</time>
      </trkpt>
      <trkpt lat="49.79414" lon="4.79843">
        <ele>283</ele>
        <time>2021-08-14T07:08:51.000Z</time>
      </trkpt>
      <trkpt lat="49.79416" lon="4.79843">
        <ele>284</ele>
        <time>2021-08-14T07:08:52.000Z</time>
      </trkpt>
      <trkpt lat="49.79418" lon="4.79843">
        <ele>284</ele>
        <time>2021-08-14T07:08:53.000Z</time>
      </trkpt>
      <trkpt lat="49.79421" lon="4.79842">
        <ele>284</ele>
        <time>2021-08-14T07:08:54.000Z</time>
      </trkpt>
      <trkpt lat="49.79424" lon="4.79841">
        <ele>285</ele>
        <time>2021-08-14T07:08:55.000Z</time>
      </trkpt>
      <trkpt lat="49.79427" lon="4.7984">
        <ele>285</ele>
        <time>2021-08-14T07:08:56.000Z</time>
      </trkpt>
      <trkpt lat="49.7943" lon="4.79839">
        <ele>285</ele>
        <time>2021-08-14T07:08:57.000Z</time>
      </trkpt>
      <trkpt lat="49.79433" lon="4.79839">
        <ele>286</ele>
        <time>2021-08-14T07:08:58.000Z</time>
      </trkpt>
      <trkpt lat="49.79436" lon="4.79838">
        <ele>286</ele>
        <time>2021-08-14T07:08:59.000Z</time>
      </trkpt>
      <trkpt lat="49.79439" lon="4.79838">
        <ele>286</ele>
        <time>2021-08-14T07:09:00.000Z</time>
      </trkpt>
      <trkpt lat="49.79442" lon="4.79838">
        <ele>287</ele>
        <time>2021-08-14T07:09:01.000Z</time>
      </trkpt>
      <trkpt lat="49.79445" lon="4.79838">
        <ele>287</ele>
        <time>2021-08-14T07:09:02.000Z</time>
      </trkpt>
      <trkpt lat="49.79448" lon="4.79838">
        <ele>288</ele>
        <time>2021-08-14T07:09:03.000Z</time>
      </trkpt>
      <trkpt lat="49.79451" lon="4.79837">
        <ele>288</ele>
        <time>2021-08-14T07:09:04.000Z</time>
      </trkpt>
      <trkpt lat="49.79455" lon="4.79836">
        <ele>289</ele>
        <time>2021-08-14T07:09:05.000Z</time>
      </trkpt>
      <trkpt lat="49.79458" lon="4.79836">
        <ele>289</ele>
        <time>2021-08-14T07:09:06.000Z</time>
      </trkpt>
      <trkpt lat="49.79461" lon="4.79835">
        <ele>289</ele>
        <time>2021-08-14T07:09:07.000Z</time>
      </trkpt>
      <trkpt lat="49.79465" lon="4.79836">
        <ele>290</ele>
        <time>2021-08-14T07:09:08.000Z</time>
      </trkpt>
      <trkpt lat="49.79468" lon="4.79836">
        <ele>290</ele>
        <time>2021-08-14T07:09:09.000Z</time>
      </trkpt>
      <trkpt lat="49.79471" lon="4.79836">
        <ele>291</ele>
        <time>2021-08-14T07:09:10.000Z</time>
      </trkpt>
      <trkpt lat="49.79473" lon="4.79836">
        <ele>291</ele>
        <time>2021-08-14T07:09:11.000Z</time>
      </trkpt>
      <trkpt lat="49.79476" lon="4.79835">
        <ele>291</ele>
        <time>2021-08-14T07:09:12.000Z</time>
      </trkpt>
      <trkpt lat="49.79479" lon="4.79835">
        <ele>292</ele>
        <time>2021-08-14T07:09:13.000Z</time>
      </trkpt>
      <trkpt lat="49.79482" lon="4.79834">
        <ele>292</ele>
        <time>2021-08-14T07:09:14.000Z</time>
      </trkpt>
      <trkpt lat="49.79484" lon="4.79833">
        <ele>293</ele>
        <time>2021-08-14T07:09:15.000Z</time>
      </trkpt>
      <trkpt lat="49.79487" lon="4.79833">
        <ele>293</ele>
        <time>2021-08-14T07:09:16.000Z</time>
      </trkpt>
      <trkpt lat="49.79489" lon="4.79833">
        <ele>293</ele>
        <time>2021-08-14T07:09:17.000Z</time>
      </trkpt>
      <trkpt lat="49.79491" lon="4.79833">
        <ele>294</ele>
        <time>2021-08-14T07:09:18.000Z</time>
      </trkpt>
      <trkpt lat="49.79493" lon="4.79834">
        <ele>294</ele>
        <time>2021-08-14T07:09:19.000Z</time>
      </trkpt>
      <trkpt lat="49.79496" lon="4.79834">
        <ele>294</ele>
        <time>2021-08-14T07:09:20.000Z</time>
      </trkpt>
      <trkpt lat="49.79499" lon="4.79834">
        <ele>294</ele>
        <time>2021-08-14T07:09:21.000Z</time>
      </trkpt>
      <trkpt lat="49.79501" lon="4.79832">
        <ele>295</ele>
        <time>2021-08-14T07:09:22.000Z</time>
      </trkpt>
      <trkpt lat="49.79504" lon="4.79832">
        <ele>295</ele>
        <time>2021-08-14T07:09:23.000Z</time>
      </trkpt>
      <trkpt lat="49.79506" lon="4.79832">
        <ele>295</ele>
        <time>2021-08-14T07:09:24.000Z</time>
      </trkpt>
      <trkpt lat="49.79508" lon="4.79833">
        <ele>295</ele>
        <time>2021-08-14T07:09:25.000Z</time>
      </trkpt>
      <trkpt lat="49.79511" lon="4.79833">
        <ele>296</ele>
        <time>2021-08-14T07:09:26.000Z</time>
      </trkpt>
      <trkpt lat="49.79513" lon="4.79833">
        <ele>296</ele>
        <time>2021-08-14T07:09:27.000Z</time>
      </trkpt>
      <trkpt lat="49.79516" lon="4.79832">
        <ele>296</ele>
        <time>2021-08-14T07:09:28.000Z</time>
      </trkpt>
      <trkpt lat="49.79519" lon="4.79832">
        <ele>297</ele>
        <time>2021-08-14T07:09:29.000Z</time>
      </trkpt>
      <trkpt lat="49.79521" lon="4.79833">
        <ele>297</ele>
        <time>2021-08-14T07:09:30.000Z</time>
      </trkpt>
      <trkpt lat="49.79523" lon="4.79833">
        <ele>297</ele>
        <time>2021-08-14T07:09:31.000Z</time>
      </trkpt>
      <trkpt lat="49.79525" lon="4.79833">
        <ele>298</ele>
        <time>2021-08-14T07:09:32.000Z</time>
      </trkpt>
      <trkpt lat="49.79527" lon="4.79833">
        <ele>298</ele>
        <time>2021-08-14T07:09:33.000Z</time>
      </trkpt>
      <trkpt lat="49.79529" lon="4.79833">
        <ele>298</ele>
        <time>2021-08-14T07:09:34.000Z</time>
      </trkpt>
      <trkpt lat="49.79531" lon="4.79833">
        <ele>299</ele>
        <time>2021-08-14T07:09:35.000Z</time>
      </trkpt>
      <trkpt lat="49.79533" lon="4.79832">
        <ele>299</ele>
        <time>2021-08-14T07:09:36.000Z</time>
      </trkpt>
      <trkpt lat="49.79535" lon="4.79831">
        <ele>299</ele>
        <time>2021-08-14T07:09:37.000Z</time>
      </trkpt>
      <trkpt lat="49.79537" lon="4.7983">
        <ele>299</ele>
        <time>2021-08-14T07:09:38.000Z</time>
      </trkpt>
      <trkpt lat="49.79539" lon="4.79831">
        <ele>300</ele>
        <time>2021-08-14T07:09:39.000Z</time>
      </trkpt>
      <trkpt lat="49.79542" lon="4.79831">
        <ele>300</ele>
        <time>2021-08-14T07:09:40.000Z</time>
      </trkpt>
      <trkpt lat="49.79545" lon="4.79831">
        <ele>300</ele>
        <time>2021-08-14T07:09:41.000Z</time>
      </trkpt>
      <trkpt lat="49.79548" lon="4.79831">
        <ele>300</ele>
        <time>2021-08-14T07:09:42.000Z</time>
      </trkpt>
      <trkpt lat="49.79551" lon="4.79831">
        <ele>301</ele>
        <time>2021-08-14T07:09:43.000Z</time>
      </trkpt>
      <trkpt lat="49.79554" lon="4.7983">
        <ele>301</ele>
        <time>2021-08-14T07:09:44.000Z</time>
      </trkpt>
      <trkpt lat="49.79558" lon="4.79831">
        <ele>301</ele>
        <time>2021-08-14T07:09:45.000Z</time>
      </trkpt>
      <trkpt lat="49.79561" lon="4.79831">
        <ele>301</ele>
        <time>2021-08-14T07:09:46.000Z</time>
      </trkpt>
      <trkpt lat="49.79564" lon="4.79831">
        <ele>302</ele>
        <time>2021-08-14T07:09:47.000Z</time>
      </trkpt>
      <trkpt lat="49.79566" lon="4.79831">
        <ele>302</ele>
        <time>2021-08-14T07:09:48.000Z</time>
      </trkpt>
      <trkpt lat="49.79569" lon="4.79832">
        <ele>302</ele>
        <time>2021-08-14T07:09:49.000Z</time>
      </trkpt>
      <trkpt lat="49.79572" lon="4.79831">
        <ele>303</ele>
        <time>2021-08-14T07:09:50.000Z</time>
      </trkpt>
      <trkpt lat="49.79575" lon="4.79831">
        <ele>303</ele>
        <time>2021-08-14T07:09:51.000Z</time>
      </trkpt>
      <trkpt lat="49.79578" lon="4.79831">
        <ele>303</ele>
        <time>2021-08-14T07:09:52.000Z</time>
      </trkpt>
      <trkpt lat="49.79581" lon="4.7983">
        <ele>303</ele>
        <time>2021-08-14T07:09:53.000Z</time>
      </trkpt>
      <trkpt lat="49.79584" lon="4.7983">
        <ele>304</ele>
        <time>2021-08-14T07:09:54.000Z</time>
      </trkpt>
      <trkpt lat="49.79587" lon="4.79829">
        <ele>304</ele>
        <time>2021-08-14T07:09:55.000Z</time>
      </trkpt>
      <trkpt lat="49.7959" lon="4.79829">
        <ele>304</ele>
        <time>2021-08-14T07:09:56.000Z</time>
      </trkpt>
      <trkpt lat="49.79592" lon="4.79829">
        <ele>305</ele>
        <time>2021-08-14T07:09:57.000Z</time>
      </trkpt>
      <trkpt lat="49.79595" lon="4.79829">
        <ele>305</ele>
        <time>2021-08-14T07:09:58.000Z</time>
      </trkpt>
      <trkpt lat="49.79598" lon="4.79828">
        <ele>305</ele>
        <time>2021-08-14T07:09:59.000Z</time>
      </trkpt>
      <trkpt lat="49.79601" lon="4.79828">
        <ele>305</ele>
        <time>2021-08-14T07:10:00.000Z</time>
      </trkpt>
      <trkpt lat="49.79604" lon="4.79827">
        <ele>305</ele>
        <time>2021-08-14T07:10:01.000Z</time>
      </trkpt>
      <trkpt lat="49.79607" lon="4.79827">
        <ele>305</ele>
        <time>2021-08-14T07:10:02.000Z</time>
      </trkpt>
      <trkpt lat="49.79609" lon="4.79827">
        <ele>306</ele>
        <time>2021-08-14T07:10:03.000Z</time>
      </trkpt>
      <trkpt lat="49.79612" lon="4.79827">
        <ele>306</ele>
        <time>2021-08-14T07:10:04.000Z</time>
      </trkpt>
      <trkpt lat="49.79614" lon="4.79826">
        <ele>306</ele>
        <time>2021-08-14T07:10:05.000Z</time>
      </trkpt>
      <trkpt lat="49.79616" lon="4.79826">
        <ele>306</ele>
        <time>2021-08-14T07:10:06.000Z</time>
      </trkpt>
      <trkpt lat="49.79619" lon="4.79825">
        <ele>306</ele>
        <time>2021-08-14T07:10:07.000Z</time>
      </trkpt>
      <trkpt lat="49.79622" lon="4.79825">
        <ele>306</ele>
        <time>2021-08-14T07:10:08.000Z</time>
      </trkpt>
      <trkpt lat="49.79624" lon="4.79825">
        <ele>307</ele>
        <time>2021-08-14T07:10:09.000Z</time>
      </trkpt>
      <trkpt lat="49.79627" lon="4.79824">
        <ele>307</ele>
        <time>2021-08-14T07:10:10.000Z</time>
      </trkpt>
      <trkpt lat="49.79629" lon="4.79824">
        <ele>307</ele>
        <time>2021-08-14T07:10:11.000Z</time>
      </trkpt>
      <trkpt lat="49.79632" lon="4.79824">
        <ele>307</ele>
        <time>2021-08-14T07:10:12.000Z</time>
      </trkpt>
      <trkpt lat="49.79635" lon="4.79824">
        <ele>307</ele>
        <time>2021-08-14T07:10:13.000Z</time>
      </trkpt>
      <trkpt lat="49.79638" lon="4.79823">
        <ele>307</ele>
        <time>2021-08-14T07:10:14.000Z</time>
      </trkpt>
      <trkpt lat="49.79641" lon="4.79823">
        <ele>308</ele>
        <time>2021-08-14T07:10:15.000Z</time>
      </trkpt>
      <trkpt lat="49.79644" lon="4.79823">
        <ele>308</ele>
        <time>2021-08-14T07:10:16.000Z</time>
      </trkpt>
      <trkpt lat="49.79647" lon="4.79823">
        <ele>308</ele>
        <time>2021-08-14T07:10:17.000Z</time>
      </trkpt>
      <trkpt lat="49.7965" lon="4.79822">
        <ele>308</ele>
        <time>2021-08-14T07:10:18.000Z</time>
      </trkpt>
      <trkpt lat="49.79653" lon="4.79822">
        <ele>308</ele>
        <time>2021-08-14T07:10:19.000Z</time>
      </trkpt>
      <trkpt lat="49.79657" lon="4.79822">
        <ele>308</ele>
        <time>2021-08-14T07:10:20.000Z</time>
      </trkpt>
      <trkpt lat="49.7966" lon="4.79823">
        <ele>308</ele>
        <time>2021-08-14T07:10:21.000Z</time>
      </trkpt>
      <trkpt lat="49.79664" lon="4.79823">
        <ele>309</ele>
        <time>2021-08-14T07:10:22.000Z</time>
      </trkpt>
      <trkpt lat="49.79667" lon="4.79822">
        <ele>309</ele>
        <time>2021-08-14T07:10:23.000Z</time>
      </trkpt>
      <trkpt lat="49.79671" lon="4.79822">
        <ele>309</ele>
        <time>2021-08-14T07:10:24.000Z</time>
      </trkpt>
      <trkpt lat="49.79675" lon="4.79823">
        <ele>309</ele>
        <time>2021-08-14T07:10:25.000Z</time>
      </trkpt>
      <trkpt lat="49.79679" lon="4.79823">
        <ele>309</ele>
        <time>2021-08-14T07:10:26.000Z</time>
      </trkpt>
      <trkpt lat="49.79683" lon="4.79823">
        <ele>309</ele>
        <time>2021-08-14T07:10:27.000Z</time>
      </trkpt>
      <trkpt lat="49.79687" lon="4.79823">
        <ele>309</ele>
        <time>2021-08-14T07:10:28.000Z</time>
      </trkpt>
      <trkpt lat="49.79689" lon="4.79822">
        <ele>309</ele>
        <time>2021-08-14T07:10:29.000Z</time>
      </trkpt>
      <trkpt lat="49.79692" lon="4.79821">
        <ele>309</ele>
        <time>2021-08-14T07:10:30.000Z</time>
      </trkpt>
      <trkpt lat="49.79696" lon="4.79821">
        <ele>309</ele>
        <time>2021-08-14T07:10:31.000Z</time>
      </trkpt>
      <trkpt lat="49.79699" lon="4.79821">
        <ele>309</ele>
        <time>2021-08-14T07:10:32.000Z</time>
      </trkpt>
      <trkpt lat="49.79703" lon="4.79821">
        <ele>309</ele>
        <time>2021-08-14T07:10:33.000Z</time>
      </trkpt>
      <trkpt lat="49.79706" lon="4.79821">
        <ele>309</ele>
        <time>2021-08-14T07:10:34.000Z</time>
      </trkpt>
      <trkpt lat="49.7971" lon="4.79821">
        <ele>309</ele>
        <time>2021-08-14T07:10:35.000Z</time>
      </trkpt>
      <trkpt lat="49.79714" lon="4.79821">
        <ele>310</ele>
        <time>2021-08-14T07:10:36.000Z</time>
      </trkpt>
      <trkpt lat="49.79718" lon="4.79821">
        <ele>310</ele>
        <time>2021-08-14T07:10:37.000Z</time>
      </trkpt>
      <trkpt lat="49.79721" lon="4.7982">
        <ele>310</ele>
        <time>2021-08-14T07:10:38.000Z</time>
      </trkpt>
      <trkpt lat="49.79725" lon="4.79819">
        <ele>310</ele>
        <time>2021-08-14T07:10:39.000Z</time>
      </trkpt>
      <trkpt lat="49.79729" lon="4.79818">
        <ele>310</ele>
        <time>2021-08-14T07:10:40.000Z</time>
      </trkpt>
      <trkpt lat="49.79733" lon="4.79818">
        <ele>310</ele>
        <time>2021-08-14T07:10:41.000Z</time>
      </trkpt>
      <trkpt lat="49.79737" lon="4.79818">
        <ele>310</ele>
        <time>2021-08-14T07:10:42.000Z</time>
      </trkpt>
      <trkpt lat="49.79741" lon="4.79818">
        <ele>310</ele>
        <time>2021-08-14T07:10:43.000Z</time>
      </trkpt>
      <trkpt lat="49.79746" lon="4.79817">
        <ele>310</ele>
        <time>2021-08-14T07:10:44.000Z</time>
      </trkpt>
      <trkpt lat="49.7975" lon="4.79816">
        <ele>310</ele>
        <time>2021-08-14T07:10:45.000Z</time>
      </trkpt>
      <trkpt lat="49.79754" lon="4.79816">
        <ele>310</ele>
        <time>2021-08-14T07:10:46.000Z</time>
      </trkpt>
      <trkpt lat="49.79758" lon="4.79816">
        <ele>310</ele>
        <time>2021-08-14T07:10:47.000Z</time>
      </trkpt>
      <trkpt lat="49.79762" lon="4.79816">
        <ele>310</ele>
        <time>2021-08-14T07:10:48.000Z</time>
      </trkpt>
      <trkpt lat="49.79766" lon="4.79816">
        <ele>310</ele>
        <time>2021-08-14T07:10:49.000Z</time>
      </trkpt>
      <trkpt lat="49.7977" lon="4.79816">
        <ele>310</ele>
        <time>2021-08-14T07:10:50.000Z</time>
      </trkpt>
      <trkpt lat="49.79774" lon="4.79816">
        <ele>310</ele>
        <time>2021-08-14T07:10:51.000Z</time>
      </trkpt>
      <trkpt lat="49.79778" lon="4.79816">
        <ele>310</ele>
        <time>2021-08-14T07:10:52.000Z</time>
      </trkpt>
      <trkpt lat="49.79782" lon="4.79816">
        <ele>310</ele>
        <time>2021-08-14T07:10:53.000Z</time>
      </trkpt>
      <trkpt lat="49.79786" lon="4.79815">
        <ele>310</ele>
        <time>2021-08-14T07:10:54.000Z</time>
      </trkpt>
      <trkpt lat="49.79791" lon="4.79815">
        <ele>310</ele>
        <time>2021-08-14T07:10:55.000Z</time>
      </trkpt>
      <trkpt lat="49.79796" lon="4.79814">
        <ele>310</ele>
        <time>2021-08-14T07:10:56.000Z</time>
      </trkpt>
      <trkpt lat="49.79801" lon="4.79814">
        <ele>310</ele>
        <time>2021-08-14T07:10:57.000Z</time>
      </trkpt>
      <trkpt lat="49.79807" lon="4.79814">
        <ele>310</ele>
        <time>2021-08-14T07:10:58.000Z</time>
      </trkpt>
      <trkpt lat="49.79812" lon="4.79814">
        <ele>310</ele>
        <time>2021-08-14T07:10:59.000Z</time>
      </trkpt>
      <trkpt lat="49.79817" lon="4.79813">
        <ele>310</ele>
        <time>2021-08-14T07:11:00.000Z</time>
      </trkpt>
      <trkpt lat="49.79822" lon="4.79813">
        <ele>310</ele>
        <time>2021-08-14T07:11:01.000Z</time>
      </trkpt>
      <trkpt lat="49.79827" lon="4.79812">
        <ele>310</ele>
        <time>2021-08-14T07:11:02.000Z</time>
      </trkpt>
      <trkpt lat="49.79832" lon="4.79812">
        <ele>309</ele>
        <time>2021-08-14T07:11:03.000Z</time>
      </trkpt>
      <trkpt lat="49.79837" lon="4.79811">
        <ele>309</ele>
        <time>2021-08-14T07:11:04.000Z</time>
      </trkpt>
      <trkpt lat="49.79842" lon="4.7981">
        <ele>309</ele>
        <time>2021-08-14T07:11:05.000Z</time>
      </trkpt>
      <trkpt lat="49.79847" lon="4.79809">
        <ele>309</ele>
        <time>2021-08-14T07:11:06.000Z</time>
      </trkpt>
      <trkpt lat="49.79852" lon="4.79809">
        <ele>309</ele>
        <time>2021-08-14T07:11:07.000Z</time>
      </trkpt>
      <trkpt lat="49.79857" lon="4.79808">
        <ele>309</ele>
        <time>2021-08-14T07:11:08.000Z</time>
      </trkpt>
      <trkpt lat="49.79862" lon="4.79807">
        <ele>309</ele>
        <time>2021-08-14T07:11:09.000Z</time>
      </trkpt>
      <trkpt lat="49.79867" lon="4.79807">
        <ele>309</ele>
        <time>2021-08-14T07:11:10.000Z</time>
      </trkpt>
      <trkpt lat="49.79872" lon="4.79808">
        <ele>309</ele>
        <time>2021-08-14T07:11:11.000Z</time>
      </trkpt>
      <trkpt lat="49.79877" lon="4.79808">
        <ele>309</ele>
        <time>2021-08-14T07:11:12.000Z</time>
      </trkpt>
      <trkpt lat="49.79882" lon="4.79807">
        <ele>309</ele>
        <time>2021-08-14T07:11:13.000Z</time>
      </trkpt>
      <trkpt lat="49.79886" lon="4.79806">
        <ele>309</ele>
        <time>2021-08-14T07:11:14.000Z</time>
      </trkpt>
      <trkpt lat="49.7989" lon="4.79805">
        <ele>309</ele>
        <time>2021-08-14T07:11:15.000Z</time>
      </trkpt>
      <trkpt lat="49.79895" lon="4.79805">
        <ele>309</ele>
        <time>2021-08-14T07:11:16.000Z</time>
      </trkpt>
      <trkpt lat="49.799" lon="4.79804">
        <ele>309</ele>
        <time>2021-08-14T07:11:17.000Z</time>
      </trkpt>
      <trkpt lat="49.79904" lon="4.79804">
        <ele>309</ele>
        <time>2021-08-14T07:11:18.000Z</time>
      </trkpt>
      <trkpt lat="49.79909" lon="4.79804">
        <ele>309</ele>
        <time>2021-08-14T07:11:19.000Z</time>
      </trkpt>
      <trkpt lat="49.79914" lon="4.79802">
        <ele>309</ele>
        <time>2021-08-14T07:11:20.000Z</time>
      </trkpt>
      <trkpt lat="49.79918" lon="4.79802">
        <ele>309</ele>
        <time>2021-08-14T07:11:21.000Z</time>
      </trkpt>
      <trkpt lat="49.79923" lon="4.79801">
        <ele>309</ele>
        <time>2021-08-14T07:11:22.000Z</time>
      </trkpt>
      <trkpt lat="49.79928" lon="4.79802">
        <ele>309</ele>
        <time>2021-08-14T07:11:23.000Z</time>
      </trkpt>
      <trkpt lat="49.79933" lon="4.79801">
        <ele>309</ele>
        <time>2021-08-14T07:11:24.000Z</time>
      </trkpt>
      <trkpt lat="49.79938" lon="4.79801">
        <ele>309</ele>
        <time>2021-08-14T07:11:25.000Z</time>
      </trkpt>
      <trkpt lat="49.79943" lon="4.798">
        <ele>310</ele>
        <time>2021-08-14T07:11:26.000Z</time>
      </trkpt>
      <trkpt lat="49.79948" lon="4.798">
        <ele>310</ele>
        <time>2021-08-14T07:11:27.000Z</time>
      </trkpt>
      <trkpt lat="49.79952" lon="4.79799">
        <ele>310</ele>
        <time>2021-08-14T07:11:28.000Z</time>
      </trkpt>
      <trkpt lat="49.79957" lon="4.79799">
        <ele>310</ele>
        <time>2021-08-14T07:11:29.000Z</time>
      </trkpt>
      <trkpt lat="49.79962" lon="4.79798">
        <ele>310</ele>
        <time>2021-08-14T07:11:30.000Z</time>
      </trkpt>
      <trkpt lat="49.79967" lon="4.79797">
        <ele>310</ele>
        <time>2021-08-14T07:11:31.000Z</time>
      </trkpt>
      <trkpt lat="49.79972" lon="4.79797">
        <ele>310</ele>
        <time>2021-08-14T07:11:32.000Z</time>
      </trkpt>
      <trkpt lat="49.79978" lon="4.79796">
        <ele>310</ele>
        <time>2021-08-14T07:11:33.000Z</time>
      </trkpt>
      <trkpt lat="49.79983" lon="4.79796">
        <ele>311</ele>
        <time>2021-08-14T07:11:34.000Z</time>
      </trkpt>
      <trkpt lat="49.79988" lon="4.79795">
        <ele>311</ele>
        <time>2021-08-14T07:11:35.000Z</time>
      </trkpt>
      <trkpt lat="49.79993" lon="4.79795">
        <ele>310</ele>
        <time>2021-08-14T07:11:36.000Z</time>
      </trkpt>
      <trkpt lat="49.79998" lon="4.79794">
        <ele>310</ele>
        <time>2021-08-14T07:11:37.000Z</time>
      </trkpt>
      <trkpt lat="49.80003" lon="4.79793">
        <ele>310</ele>
        <time>2021-08-14T07:11:38.000Z</time>
      </trkpt>
      <trkpt lat="49.80008" lon="4.79792">
        <ele>310</ele>
        <time>2021-08-14T07:11:39.000Z</time>
      </trkpt>
      <trkpt lat="49.80013" lon="4.79792">
        <ele>310</ele>
        <time>2021-08-14T07:11:40.000Z</time>
      </trkpt>
      <trkpt lat="49.80017" lon="4.79791">
        <ele>310</ele>
        <time>2021-08-14T07:11:41.000Z</time>
      </trkpt>
      <trkpt lat="49.80022" lon="4.79791">
        <ele>310</ele>
        <time>2021-08-14T07:11:42.000Z</time>
      </trkpt>
      <trkpt lat="49.80027" lon="4.79791">
        <ele>310</ele>
        <time>2021-08-14T07:11:43.000Z</time>
      </trkpt>
      <trkpt lat="49.80032" lon="4.7979">
        <ele>310</ele>
        <time>2021-08-14T07:11:44.000Z</time>
      </trkpt>
      <trkpt lat="49.80037" lon="4.7979">
        <ele>310</ele>
        <time>2021-08-14T07:11:45.000Z</time>
      </trkpt>
      <trkpt lat="49.80042" lon="4.79789">
        <ele>309</ele>
        <time>2021-08-14T07:11:46.000Z</time>
      </trkpt>
      <trkpt lat="49.80047" lon="4.79787">
        <ele>309</ele>
        <time>2021-08-14T07:11:47.000Z</time>
      </trkpt>
      <trkpt lat="49.80052" lon="4.79786">
        <ele>309</ele>
        <time>2021-08-14T07:11:48.000Z</time>
      </trkpt>
      <trkpt lat="49.80057" lon="4.79786">
        <ele>309</ele>
        <time>2021-08-14T07:11:49.000Z</time>
      </trkpt>
      <trkpt lat="49.80061" lon="4.79785">
        <ele>309</ele>
        <time>2021-08-14T07:11:50.000Z</time>
      </trkpt>
      <trkpt lat="49.80064" lon="4.79785">
        <ele>309</ele>
        <time>2021-08-14T07:11:51.000Z</time>
      </trkpt>
      <trkpt lat="49.80067" lon="4.79783">
        <ele>308</ele>
        <time>2021-08-14T07:11:52.000Z</time>
      </trkpt>
      <trkpt lat="49.80071" lon="4.79783">
        <ele>308</ele>
        <time>2021-08-14T07:11:53.000Z</time>
      </trkpt>
      <trkpt lat="49.80075" lon="4.79783">
        <ele>308</ele>
        <time>2021-08-14T07:11:54.000Z</time>
      </trkpt>
      <trkpt lat="49.8008" lon="4.79782">
        <ele>308</ele>
        <time>2021-08-14T07:11:55.000Z</time>
      </trkpt>
      <trkpt lat="49.80085" lon="4.79782">
        <ele>308</ele>
        <time>2021-08-14T07:11:56.000Z</time>
      </trkpt>
      <trkpt lat="49.8009" lon="4.79782">
        <ele>308</ele>
        <time>2021-08-14T07:11:57.000Z</time>
      </trkpt>
      <trkpt lat="49.80096" lon="4.79782">
        <ele>308</ele>
        <time>2021-08-14T07:11:58.000Z</time>
      </trkpt>
      <trkpt lat="49.80101" lon="4.79782">
        <ele>308</ele>
        <time>2021-08-14T07:11:59.000Z</time>
      </trkpt>
      <trkpt lat="49.80107" lon="4.79781">
        <ele>308</ele>
        <time>2021-08-14T07:12:00.000Z</time>
      </trkpt>
      <trkpt lat="49.80112" lon="4.7978">
        <ele>307</ele>
        <time>2021-08-14T07:12:01.000Z</time>
      </trkpt>
      <trkpt lat="49.80117" lon="4.7978">
        <ele>307</ele>
        <time>2021-08-14T07:12:02.000Z</time>
      </trkpt>
      <trkpt lat="49.80123" lon="4.79778">
        <ele>307</ele>
        <time>2021-08-14T07:12:03.000Z</time>
      </trkpt>
      <trkpt lat="49.80128" lon="4.79777">
        <ele>307</ele>
        <time>2021-08-14T07:12:04.000Z</time>
      </trkpt>
      <trkpt lat="49.80134" lon="4.79777">
        <ele>307</ele>
        <time>2021-08-14T07:12:05.000Z</time>
      </trkpt>
      <trkpt lat="49.80139" lon="4.79776">
        <ele>307</ele>
        <time>2021-08-14T07:12:06.000Z</time>
      </trkpt>
      <trkpt lat="49.80143" lon="4.79776">
        <ele>307</ele>
        <time>2021-08-14T07:12:07.000Z</time>
      </trkpt>
      <trkpt lat="49.80147" lon="4.79774">
        <ele>306</ele>
        <time>2021-08-14T07:12:08.000Z</time>
      </trkpt>
      <trkpt lat="49.80151" lon="4.79773">
        <ele>306</ele>
        <time>2021-08-14T07:12:09.000Z</time>
      </trkpt>
      <trkpt lat="49.80154" lon="4.79772">
        <ele>306</ele>
        <time>2021-08-14T07:12:10.000Z</time>
      </trkpt>
      <trkpt lat="49.80157" lon="4.79772">
        <ele>306</ele>
        <time>2021-08-14T07:12:11.000Z</time>
      </trkpt>
      <trkpt lat="49.80159" lon="4.79773">
        <ele>305</ele>
        <time>2021-08-14T07:12:12.000Z</time>
      </trkpt>
      <trkpt lat="49.8016" lon="4.79775">
        <ele>305</ele>
        <time>2021-08-14T07:12:13.000Z</time>
      </trkpt>
      <trkpt lat="49.80162" lon="4.79777">
        <ele>305</ele>
        <time>2021-08-14T07:12:14.000Z</time>
      </trkpt>
      <trkpt lat="49.80164" lon="4.79779">
        <ele>305</ele>
        <time>2021-08-14T07:12:15.000Z</time>
      </trkpt>
      <trkpt lat="49.80166" lon="4.79782">
        <ele>304</ele>
        <time>2021-08-14T07:12:16.000Z</time>
      </trkpt>
      <trkpt lat="49.80168" lon="4.79785">
        <ele>304</ele>
        <time>2021-08-14T07:12:17.000Z</time>
      </trkpt>
      <trkpt lat="49.8017" lon="4.79788">
        <ele>304</ele>
        <time>2021-08-14T07:12:18.000Z</time>
      </trkpt>
      <trkpt lat="49.80172" lon="4.79792">
        <ele>303</ele>
        <time>2021-08-14T07:12:19.000Z</time>
      </trkpt>
      <trkpt lat="49.80173" lon="4.79795">
        <ele>303</ele>
        <time>2021-08-14T07:12:20.000Z</time>
      </trkpt>
      <trkpt lat="49.80175" lon="4.79799">
        <ele>303</ele>
        <time>2021-08-14T07:12:21.000Z</time>
      </trkpt>
      <trkpt lat="49.80177" lon="4.79802">
        <ele>302</ele>
        <time>2021-08-14T07:12:22.000Z</time>
      </trkpt>
      <trkpt lat="49.80179" lon="4.79806">
        <ele>302</ele>
        <time>2021-08-14T07:12:23.000Z</time>
      </trkpt>
      <trkpt lat="49.80181" lon="4.7981">
        <ele>302</ele>
        <time>2021-08-14T07:12:24.000Z</time>
      </trkpt>
      <trkpt lat="49.80182" lon="4.79813">
        <ele>301</ele>
        <time>2021-08-14T07:12:25.000Z</time>
      </trkpt>
      <trkpt lat="49.80184" lon="4.79816">
        <ele>301</ele>
        <time>2021-08-14T07:12:26.000Z</time>
      </trkpt>
      <trkpt lat="49.80186" lon="4.79817">
        <ele>301</ele>
        <time>2021-08-14T07:12:27.000Z</time>
      </trkpt>
      <trkpt lat="49.80188" lon="4.79817">
        <ele>300</ele>
        <time>2021-08-14T07:12:28.000Z</time>
      </trkpt>
      <trkpt lat="49.80191" lon="4.79818">
        <ele>300</ele>
        <time>2021-08-14T07:12:29.000Z</time>
      </trkpt>
      <trkpt lat="49.80195" lon="4.79819">
        <ele>300</ele>
        <time>2021-08-14T07:12:30.000Z</time>
      </trkpt>
      <trkpt lat="49.80198" lon="4.7982">
        <ele>300</ele>
        <time>2021-08-14T07:12:31.000Z</time>
      </trkpt>
      <trkpt lat="49.80202" lon="4.79821">
        <ele>299</ele>
        <time>2021-08-14T07:12:32.000Z</time>
      </trkpt>
      <trkpt lat="49.80205" lon="4.79821">
        <ele>299</ele>
        <time>2021-08-14T07:12:33.000Z</time>
      </trkpt>
      <trkpt lat="49.80209" lon="4.79821">
        <ele>299</ele>
        <time>2021-08-14T07:12:34.000Z</time>
      </trkpt>
      <trkpt lat="49.80212" lon="4.79821">
        <ele>299</ele>
        <time>2021-08-14T07:12:35.000Z</time>
      </trkpt>
      <trkpt lat="49.80215" lon="4.79821">
        <ele>299</ele>
        <time>2021-08-14T07:12:36.000Z</time>
      </trkpt>
      <trkpt lat="49.80219" lon="4.79821">
        <ele>299</ele>
        <time>2021-08-14T07:12:37.000Z</time>
      </trkpt>
      <trkpt lat="49.80222" lon="4.7982">
        <ele>299</ele>
        <time>2021-08-14T07:12:38.000Z</time>
      </trkpt>
      <trkpt lat="49.80225" lon="4.79821">
        <ele>298</ele>
        <time>2021-08-14T07:12:39.000Z</time>
      </trkpt>
      <trkpt lat="49.80227" lon="4.79821">
        <ele>298</ele>
        <time>2021-08-14T07:12:40.000Z</time>
      </trkpt>
      <trkpt lat="49.8023" lon="4.79822">
        <ele>298</ele>
        <time>2021-08-14T07:12:41.000Z</time>
      </trkpt>
      <trkpt lat="49.80233" lon="4.79823">
        <ele>298</ele>
        <time>2021-08-14T07:12:42.000Z</time>
      </trkpt>
      <trkpt lat="49.80237" lon="4.79824">
        <ele>298</ele>
        <time>2021-08-14T07:12:43.000Z</time>
      </trkpt>
      <trkpt lat="49.8024" lon="4.79824">
        <ele>298</ele>
        <time>2021-08-14T07:12:44.000Z</time>
      </trkpt>
      <trkpt lat="49.80243" lon="4.79825">
        <ele>298</ele>
        <time>2021-08-14T07:12:45.000Z</time>
      </trkpt>
      <trkpt lat="49.80247" lon="4.79825">
        <ele>298</ele>
        <time>2021-08-14T07:12:46.000Z</time>
      </trkpt>
      <trkpt lat="49.8025" lon="4.79826">
        <ele>298</ele>
        <time>2021-08-14T07:12:47.000Z</time>
      </trkpt>
      <trkpt lat="49.80254" lon="4.79826">
        <ele>298</ele>
        <time>2021-08-14T07:12:48.000Z</time>
      </trkpt>
      <trkpt lat="49.80257" lon="4.79827">
        <ele>298</ele>
        <time>2021-08-14T07:12:49.000Z</time>
      </trkpt>
      <trkpt lat="49.8026" lon="4.79827">
        <ele>298</ele>
        <time>2021-08-14T07:12:50.000Z</time>
      </trkpt>
      <trkpt lat="49.80264" lon="4.79827">
        <ele>298</ele>
        <time>2021-08-14T07:12:51.000Z</time>
      </trkpt>
      <trkpt lat="49.80266" lon="4.79828">
        <ele>298</ele>
        <time>2021-08-14T07:12:52.000Z</time>
      </trkpt>
      <trkpt lat="49.80269" lon="4.79828">
        <ele>298</ele>
        <time>2021-08-14T07:12:53.000Z</time>
      </trkpt>
      <trkpt lat="49.80272" lon="4.79829">
        <ele>298</ele>
        <time>2021-08-14T07:12:54.000Z</time>
      </trkpt>
      <trkpt lat="49.80274" lon="4.79829">
        <ele>298</ele>
        <time>2021-08-14T07:12:55.000Z</time>
      </trkpt>
      <trkpt lat="49.80277" lon="4.7983">
        <ele>298</ele>
        <time>2021-08-14T07:12:56.000Z</time>
      </trkpt>
      <trkpt lat="49.80279" lon="4.7983">
        <ele>298</ele>
        <time>2021-08-14T07:12:57.000Z</time>
      </trkpt>
      <trkpt lat="49.80281" lon="4.7983">
        <ele>298</ele>
        <time>2021-08-14T07:12:58.000Z</time>
      </trkpt>
      <trkpt lat="49.80283" lon="4.7983">
        <ele>298</ele>
        <time>2021-08-14T07:12:59.000Z</time>
      </trkpt>
      <trkpt lat="49.80285" lon="4.79831">
        <ele>298</ele>
        <time>2021-08-14T07:13:00.000Z</time>
      </trkpt>
      <trkpt lat="49.80286" lon="4.79832">
        <ele>298</ele>
        <time>2021-08-14T07:13:01.000Z</time>
      </trkpt>
      <trkpt lat="49.80288" lon="4.79834">
        <ele>298</ele>
        <time>2021-08-14T07:13:02.000Z</time>
      </trkpt>
      <trkpt lat="49.80289" lon="4.79836">
        <ele>298</ele>
        <time>2021-08-14T07:13:03.000Z</time>
      </trkpt>
      <trkpt lat="49.80291" lon="4.79837">
        <ele>298</ele>
        <time>2021-08-14T07:13:04.000Z</time>
      </trkpt>
      <trkpt lat="49.80291" lon="4.79839">
        <ele>298</ele>
        <time>2021-08-14T07:13:05.000Z</time>
      </trkpt>
      <trkpt lat="49.80292" lon="4.79841">
        <ele>298</ele>
        <time>2021-08-14T07:13:06.000Z</time>
      </trkpt>
      <trkpt lat="49.80293" lon="4.79844">
        <ele>298</ele>
        <time>2021-08-14T07:13:07.000Z</time>
      </trkpt>
      <trkpt lat="49.80294" lon="4.79846">
        <ele>298</ele>
        <time>2021-08-14T07:13:08.000Z</time>
      </trkpt>
      <trkpt lat="49.80296" lon="4.79848">
        <ele>298</ele>
        <time>2021-08-14T07:13:09.000Z</time>
      </trkpt>
      <trkpt lat="49.80298" lon="4.7985">
        <ele>298</ele>
        <time>2021-08-14T07:13:10.000Z</time>
      </trkpt>
      <trkpt lat="49.803" lon="4.79852">
        <ele>298</ele>
        <time>2021-08-14T07:13:11.000Z</time>
      </trkpt>
      <trkpt lat="49.80302" lon="4.79854">
        <ele>298</ele>
        <time>2021-08-14T07:13:12.000Z</time>
      </trkpt>
      <trkpt lat="49.80304" lon="4.79856">
        <ele>298</ele>
        <time>2021-08-14T07:13:13.000Z</time>
      </trkpt>
      <trkpt lat="49.80306" lon="4.79859">
        <ele>298</ele>
        <time>2021-08-14T07:13:14.000Z</time>
      </trkpt>
      <trkpt lat="49.80308" lon="4.79862">
        <ele>298</ele>
        <time>2021-08-14T07:13:15.000Z</time>
      </trkpt>
      <trkpt lat="49.8031" lon="4.79865">
        <ele>298</ele>
        <time>2021-08-14T07:13:16.000Z</time>
      </trkpt>
      <trkpt lat="49.80312" lon="4.79869">
        <ele>298</ele>
        <time>2021-08-14T07:13:17.000Z</time>
      </trkpt>
      <trkpt lat="49.80313" lon="4.79874">
        <ele>298</ele>
        <time>2021-08-14T07:13:18.000Z</time>
      </trkpt>
      <trkpt lat="49.80313" lon="4.79879">
        <ele>298</ele>
        <time>2021-08-14T07:13:19.000Z</time>
      </trkpt>
      <trkpt lat="49.80313" lon="4.79885">
        <ele>298</ele>
        <time>2021-08-14T07:13:20.000Z</time>
      </trkpt>
      <trkpt lat="49.80312" lon="4.79891">
        <ele>298</ele>
        <time>2021-08-14T07:13:21.000Z</time>
      </trkpt>
      <trkpt lat="49.80312" lon="4.79896">
        <ele>298</ele>
        <time>2021-08-14T07:13:22.000Z</time>
      </trkpt>
      <trkpt lat="49.80311" lon="4.79901">
        <ele>298</ele>
        <time>2021-08-14T07:13:23.000Z</time>
      </trkpt>
      <trkpt lat="49.80311" lon="4.79907">
        <ele>297</ele>
        <time>2021-08-14T07:13:24.000Z</time>
      </trkpt>
      <trkpt lat="49.80311" lon="4.79912">
        <ele>297</ele>
        <time>2021-08-14T07:13:25.000Z</time>
      </trkpt>
      <trkpt lat="49.8031" lon="4.79917">
        <ele>297</ele>
        <time>2021-08-14T07:13:26.000Z</time>
      </trkpt>
      <trkpt lat="49.80309" lon="4.79923">
        <ele>297</ele>
        <time>2021-08-14T07:13:27.000Z</time>
      </trkpt>
      <trkpt lat="49.80309" lon="4.79929">
        <ele>297</ele>
        <time>2021-08-14T07:13:28.000Z</time>
      </trkpt>
      <trkpt lat="49.80308" lon="4.79934">
        <ele>297</ele>
        <time>2021-08-14T07:13:29.000Z</time>
      </trkpt>
      <trkpt lat="49.80308" lon="4.79939">
        <ele>296</ele>
        <time>2021-08-14T07:13:30.000Z</time>
      </trkpt>
      <trkpt lat="49.80307" lon="4.79945">
        <ele>296</ele>
        <time>2021-08-14T07:13:31.000Z</time>
      </trkpt>
      <trkpt lat="49.80306" lon="4.79952">
        <ele>296</ele>
        <time>2021-08-14T07:13:32.000Z</time>
      </trkpt>
      <trkpt lat="49.80305" lon="4.79959">
        <ele>296</ele>
        <time>2021-08-14T07:13:33.000Z</time>
      </trkpt>
      <trkpt lat="49.80305" lon="4.79966">
        <ele>296</ele>
        <time>2021-08-14T07:13:34.000Z</time>
      </trkpt>
      <trkpt lat="49.80304" lon="4.79972">
        <ele>296</ele>
        <time>2021-08-14T07:13:35.000Z</time>
      </trkpt>
      <trkpt lat="49.80303" lon="4.7998">
        <ele>296</ele>
        <time>2021-08-14T07:13:36.000Z</time>
      </trkpt>
      <trkpt lat="49.80303" lon="4.79987">
        <ele>296</ele>
        <time>2021-08-14T07:13:37.000Z</time>
      </trkpt>
      <trkpt lat="49.80302" lon="4.79994">
        <ele>296</ele>
        <time>2021-08-14T07:13:38.000Z</time>
      </trkpt>
      <trkpt lat="49.80301" lon="4.8">
        <ele>297</ele>
        <time>2021-08-14T07:13:39.000Z</time>
      </trkpt>
      <trkpt lat="49.803" lon="4.80006">
        <ele>297</ele>
        <time>2021-08-14T07:13:40.000Z</time>
      </trkpt>
      <trkpt lat="49.803" lon="4.80011">
        <ele>297</ele>
        <time>2021-08-14T07:13:41.000Z</time>
      </trkpt>
      <trkpt lat="49.80299" lon="4.80017">
        <ele>297</ele>
        <time>2021-08-14T07:13:42.000Z</time>
      </trkpt>
      <trkpt lat="49.80299" lon="4.80024">
        <ele>297</ele>
        <time>2021-08-14T07:13:43.000Z</time>
      </trkpt>
      <trkpt lat="49.803" lon="4.8003">
        <ele>296</ele>
        <time>2021-08-14T07:13:44.000Z</time>
      </trkpt>
      <trkpt lat="49.80301" lon="4.80037">
        <ele>296</ele>
        <time>2021-08-14T07:13:45.000Z</time>
      </trkpt>
      <trkpt lat="49.80302" lon="4.80045">
        <ele>296</ele>
        <time>2021-08-14T07:13:46.000Z</time>
      </trkpt>
      <trkpt lat="49.80304" lon="4.80053">
        <ele>296</ele>
        <time>2021-08-14T07:13:47.000Z</time>
      </trkpt>
      <trkpt lat="49.80305" lon="4.8006">
        <ele>296</ele>
        <time>2021-08-14T07:13:48.000Z</time>
      </trkpt>
      <trkpt lat="49.80306" lon="4.80067">
        <ele>296</ele>
        <time>2021-08-14T07:13:49.000Z</time>
      </trkpt>
      <trkpt lat="49.80308" lon="4.80075">
        <ele>296</ele>
        <time>2021-08-14T07:13:50.000Z</time>
      </trkpt>
      <trkpt lat="49.8031" lon="4.80081">
        <ele>296</ele>
        <time>2021-08-14T07:13:51.000Z</time>
      </trkpt>
      <trkpt lat="49.80312" lon="4.80089">
        <ele>296</ele>
        <time>2021-08-14T07:13:52.000Z</time>
      </trkpt>
      <trkpt lat="49.80314" lon="4.80097">
        <ele>296</ele>
        <time>2021-08-14T07:13:53.000Z</time>
      </trkpt>
      <trkpt lat="49.80316" lon="4.80105">
        <ele>296</ele>
        <time>2021-08-14T07:13:54.000Z</time>
      </trkpt>
      <trkpt lat="49.80319" lon="4.80113">
        <ele>296</ele>
        <time>2021-08-14T07:13:55.000Z</time>
      </trkpt>
      <trkpt lat="49.8032" lon="4.80121">
        <ele>296</ele>
        <time>2021-08-14T07:13:56.000Z</time>
      </trkpt>
      <trkpt lat="49.80322" lon="4.80129">
        <ele>295</ele>
        <time>2021-08-14T07:13:57.000Z</time>
      </trkpt>
      <trkpt lat="49.80322" lon="4.80135">
        <ele>295</ele>
        <time>2021-08-14T07:13:58.000Z</time>
      </trkpt>
      <trkpt lat="49.80324" lon="4.80143">
        <ele>295</ele>
        <time>2021-08-14T07:13:59.000Z</time>
      </trkpt>
      <trkpt lat="49.80325" lon="4.8015">
        <ele>294</ele>
        <time>2021-08-14T07:14:00.000Z</time>
      </trkpt>
      <trkpt lat="49.80326" lon="4.80159">
        <ele>294</ele>
        <time>2021-08-14T07:14:01.000Z</time>
      </trkpt>
      <trkpt lat="49.80326" lon="4.80167">
        <ele>294</ele>
        <time>2021-08-14T07:14:02.000Z</time>
      </trkpt>
      <trkpt lat="49.80326" lon="4.80176">
        <ele>293</ele>
        <time>2021-08-14T07:14:03.000Z</time>
      </trkpt>
      <trkpt lat="49.80327" lon="4.80184">
        <ele>293</ele>
        <time>2021-08-14T07:14:04.000Z</time>
      </trkpt>
      <trkpt lat="49.80327" lon="4.80192">
        <ele>293</ele>
        <time>2021-08-14T07:14:05.000Z</time>
      </trkpt>
      <trkpt lat="49.80327" lon="4.80199">
        <ele>292</ele>
        <time>2021-08-14T07:14:06.000Z</time>
      </trkpt>
      <trkpt lat="49.80327" lon="4.80206">
        <ele>292</ele>
        <time>2021-08-14T07:14:07.000Z</time>
      </trkpt>
      <trkpt lat="49.80328" lon="4.80212">
        <ele>292</ele>
        <time>2021-08-14T07:14:08.000Z</time>
      </trkpt>
      <trkpt lat="49.80327" lon="4.80219">
        <ele>291</ele>
        <time>2021-08-14T07:14:09.000Z</time>
      </trkpt>
      <trkpt lat="49.80326" lon="4.80226">
        <ele>291</ele>
        <time>2021-08-14T07:14:10.000Z</time>
      </trkpt>
      <trkpt lat="49.80326" lon="4.80234">
        <ele>291</ele>
        <time>2021-08-14T07:14:11.000Z</time>
      </trkpt>
      <trkpt lat="49.80327" lon="4.80242">
        <ele>290</ele>
        <time>2021-08-14T07:14:12.000Z</time>
      </trkpt>
      <trkpt lat="49.80326" lon="4.8025">
        <ele>290</ele>
        <time>2021-08-14T07:14:13.000Z</time>
      </trkpt>
      <trkpt lat="49.80326" lon="4.80256">
        <ele>289</ele>
        <time>2021-08-14T07:14:14.000Z</time>
      </trkpt>
      <trkpt lat="49.80324" lon="4.80262">
        <ele>289</ele>
        <time>2021-08-14T07:14:15.000Z</time>
      </trkpt>
      <trkpt lat="49.80324" lon="4.80267">
        <ele>288</ele>
        <time>2021-08-14T07:14:16.000Z</time>
      </trkpt>
      <trkpt lat="49.80322" lon="4.80272">
        <ele>288</ele>
        <time>2021-08-14T07:14:17.000Z</time>
      </trkpt>
      <trkpt lat="49.8032" lon="4.80278">
        <ele>287</ele>
        <time>2021-08-14T07:14:18.000Z</time>
      </trkpt>
      <trkpt lat="49.80317" lon="4.80284">
        <ele>287</ele>
        <time>2021-08-14T07:14:19.000Z</time>
      </trkpt>
      <trkpt lat="49.80314" lon="4.80292">
        <ele>287</ele>
        <time>2021-08-14T07:14:20.000Z</time>
      </trkpt>
      <trkpt lat="49.8031" lon="4.80302">
        <ele>286</ele>
        <time>2021-08-14T07:14:21.000Z</time>
      </trkpt>
      <trkpt lat="49.80306" lon="4.80312">
        <ele>286</ele>
        <time>2021-08-14T07:14:22.000Z</time>
      </trkpt>
      <trkpt lat="49.80304" lon="4.80321">
        <ele>285</ele>
        <time>2021-08-14T07:14:23.000Z</time>
      </trkpt>
      <trkpt lat="49.80301" lon="4.80329">
        <ele>285</ele>
        <time>2021-08-14T07:14:24.000Z</time>
      </trkpt>
      <trkpt lat="49.80299" lon="4.80338">
        <ele>284</ele>
        <time>2021-08-14T07:14:25.000Z</time>
      </trkpt>
      <trkpt lat="49.80297" lon="4.80345">
        <ele>284</ele>
        <time>2021-08-14T07:14:26.000Z</time>
      </trkpt>
      <trkpt lat="49.80294" lon="4.80351">
        <ele>284</ele>
        <time>2021-08-14T07:14:27.000Z</time>
      </trkpt>
      <trkpt lat="49.80292" lon="4.80354">
        <ele>283</ele>
        <time>2021-08-14T07:14:28.000Z</time>
      </trkpt>
      <trkpt lat="49.80289" lon="4.80357">
        <ele>283</ele>
        <time>2021-08-14T07:14:29.000Z</time>
      </trkpt>
      <trkpt lat="49.80287" lon="4.80361">
        <ele>283</ele>
        <time>2021-08-14T07:14:30.000Z</time>
      </trkpt>
      <trkpt lat="49.80286" lon="4.80365">
        <ele>282</ele>
        <time>2021-08-14T07:14:31.000Z</time>
      </trkpt>
      <trkpt lat="49.80285" lon="4.8037">
        <ele>282</ele>
        <time>2021-08-14T07:14:32.000Z</time>
      </trkpt>
      <trkpt lat="49.80285" lon="4.80375">
        <ele>282</ele>
        <time>2021-08-14T07:14:33.000Z</time>
      </trkpt>
      <trkpt lat="49.80285" lon="4.8038">
        <ele>282</ele>
        <time>2021-08-14T07:14:34.000Z</time>
      </trkpt>
      <trkpt lat="49.80284" lon="4.80384">
        <ele>281</ele>
        <time>2021-08-14T07:14:35.000Z</time>
      </trkpt>
      <trkpt lat="49.80281" lon="4.80389">
        <ele>281</ele>
        <time>2021-08-14T07:14:36.000Z</time>
      </trkpt>
      <trkpt lat="49.80278" lon="4.80393">
        <ele>281</ele>
        <time>2021-08-14T07:14:37.000Z</time>
      </trkpt>
      <trkpt lat="49.80276" lon="4.80396">
        <ele>281</ele>
        <time>2021-08-14T07:14:38.000Z</time>
      </trkpt>
      <trkpt lat="49.80273" lon="4.80399">
        <ele>280</ele>
        <time>2021-08-14T07:14:39.000Z</time>
      </trkpt>
      <trkpt lat="49.80271" lon="4.80403">
        <ele>280</ele>
        <time>2021-08-14T07:14:40.000Z</time>
      </trkpt>
      <trkpt lat="49.80269" lon="4.80405">
        <ele>280</ele>
        <time>2021-08-14T07:14:41.000Z</time>
      </trkpt>
      <trkpt lat="49.80267" lon="4.80408">
        <ele>280</ele>
        <time>2021-08-14T07:14:42.000Z</time>
      </trkpt>
      <trkpt lat="49.80265" lon="4.8041">
        <ele>280</ele>
        <time>2021-08-14T07:14:43.000Z</time>
      </trkpt>
      <trkpt lat="49.80265" lon="4.80412">
        <ele>279</ele>
        <time>2021-08-14T07:14:44.000Z</time>
      </trkpt>
      <trkpt lat="49.80265" lon="4.80415">
        <ele>279</ele>
        <time>2021-08-14T07:14:45.000Z</time>
      </trkpt>
      <trkpt lat="49.80265" lon="4.80417">
        <ele>279</ele>
        <time>2021-08-14T07:14:46.000Z</time>
      </trkpt>
      <trkpt lat="49.80265" lon="4.80419">
        <ele>279</ele>
        <time>2021-08-14T07:14:47.000Z</time>
      </trkpt>
      <trkpt lat="49.80266" lon="4.8042">
        <ele>279</ele>
        <time>2021-08-14T07:14:48.000Z</time>
      </trkpt>
      <trkpt lat="49.80267" lon="4.80421">
        <ele>279</ele>
        <time>2021-08-14T07:14:49.000Z</time>
      </trkpt>
      <trkpt lat="49.80268" lon="4.80422">
        <ele>279</ele>
        <time>2021-08-14T07:14:50.000Z</time>
      </trkpt>
      <trkpt lat="49.80271" lon="4.80422">
        <ele>279</ele>
        <time>2021-08-14T07:14:51.000Z</time>
      </trkpt>
      <trkpt lat="49.80274" lon="4.80422">
        <ele>279</ele>
        <time>2021-08-14T07:14:52.000Z</time>
      </trkpt>
      <trkpt lat="49.80277" lon="4.80422">
        <ele>278</ele>
        <time>2021-08-14T07:14:53.000Z</time>
      </trkpt>
      <trkpt lat="49.80279" lon="4.80423">
        <ele>278</ele>
        <time>2021-08-14T07:14:54.000Z</time>
      </trkpt>
      <trkpt lat="49.80281" lon="4.80423">
        <ele>278</ele>
        <time>2021-08-14T07:14:55.000Z</time>
      </trkpt>
      <trkpt lat="49.80284" lon="4.80423">
        <ele>278</ele>
        <time>2021-08-14T07:14:56.000Z</time>
      </trkpt>
      <trkpt lat="49.80286" lon="4.80424">
        <ele>278</ele>
        <time>2021-08-14T07:14:57.000Z</time>
      </trkpt>
      <trkpt lat="49.80289" lon="4.80425">
        <ele>278</ele>
        <time>2021-08-14T07:14:58.000Z</time>
      </trkpt>
      <trkpt lat="49.80292" lon="4.80425">
        <ele>278</ele>
        <time>2021-08-14T07:14:59.000Z</time>
      </trkpt>
      <trkpt lat="49.80296" lon="4.80425">
        <ele>278</ele>
        <time>2021-08-14T07:15:00.000Z</time>
      </trkpt>
      <trkpt lat="49.80299" lon="4.80426">
        <ele>278</ele>
        <time>2021-08-14T07:15:01.000Z</time>
      </trkpt>
      <trkpt lat="49.80304" lon="4.80426">
        <ele>278</ele>
        <time>2021-08-14T07:15:02.000Z</time>
      </trkpt>
      <trkpt lat="49.80308" lon="4.80427">
        <ele>278</ele>
        <time>2021-08-14T07:15:03.000Z</time>
      </trkpt>
      <trkpt lat="49.80312" lon="4.80428">
        <ele>278</ele>
        <time>2021-08-14T07:15:04.000Z</time>
      </trkpt>
      <trkpt lat="49.80316" lon="4.80429">
        <ele>278</ele>
        <time>2021-08-14T07:15:05.000Z</time>
      </trkpt>
      <trkpt lat="49.80319" lon="4.8043">
        <ele>278</ele>
        <time>2021-08-14T07:15:06.000Z</time>
      </trkpt>
      <trkpt lat="49.80322" lon="4.80431">
        <ele>278</ele>
        <time>2021-08-14T07:15:07.000Z</time>
      </trkpt>
      <trkpt lat="49.80324" lon="4.80432">
        <ele>278</ele>
        <time>2021-08-14T07:15:08.000Z</time>
      </trkpt>
      <trkpt lat="49.80326" lon="4.80433">
        <ele>278</ele>
        <time>2021-08-14T07:15:09.000Z</time>
      </trkpt>
      <trkpt lat="49.80329" lon="4.80433">
        <ele>278</ele>
        <time>2021-08-14T07:15:10.000Z</time>
      </trkpt>
      <trkpt lat="49.80331" lon="4.80433">
        <ele>277</ele>
        <time>2021-08-14T07:15:11.000Z</time>
      </trkpt>
      <trkpt lat="49.80333" lon="4.80433">
        <ele>277</ele>
        <time>2021-08-14T07:15:12.000Z</time>
      </trkpt>
      <trkpt lat="49.80335" lon="4.80433">
        <ele>277</ele>
        <time>2021-08-14T07:15:13.000Z</time>
      </trkpt>
      <trkpt lat="49.80337" lon="4.80433">
        <ele>277</ele>
        <time>2021-08-14T07:15:14.000Z</time>
      </trkpt>
      <trkpt lat="49.8034" lon="4.80434">
        <ele>277</ele>
        <time>2021-08-14T07:15:15.000Z</time>
      </trkpt>
      <trkpt lat="49.80342" lon="4.80435">
        <ele>276</ele>
        <time>2021-08-14T07:15:16.000Z</time>
      </trkpt>
      <trkpt lat="49.80344" lon="4.80435">
        <ele>276</ele>
        <time>2021-08-14T07:15:17.000Z</time>
      </trkpt>
      <trkpt lat="49.80347" lon="4.80436">
        <ele>276</ele>
        <time>2021-08-14T07:15:18.000Z</time>
      </trkpt>
      <trkpt lat="49.8035" lon="4.80436">
        <ele>276</ele>
        <time>2021-08-14T07:15:19.000Z</time>
      </trkpt>
      <trkpt lat="49.80352" lon="4.80436">
        <ele>275</ele>
        <time>2021-08-14T07:15:20.000Z</time>
      </trkpt>
      <trkpt lat="49.80355" lon="4.80436">
        <ele>275</ele>
        <time>2021-08-14T07:15:21.000Z</time>
      </trkpt>
      <trkpt lat="49.80358" lon="4.80437">
        <ele>275</ele>
        <time>2021-08-14T07:15:22.000Z</time>
      </trkpt>
      <trkpt lat="49.80361" lon="4.80439">
        <ele>275</ele>
        <time>2021-08-14T07:15:23.000Z</time>
      </trkpt>
      <trkpt lat="49.80364" lon="4.8044">
        <ele>274</ele>
        <time>2021-08-14T07:15:24.000Z</time>
      </trkpt>
      <trkpt lat="49.80368" lon="4.80441">
        <ele>274</ele>
        <time>2021-08-14T07:15:25.000Z</time>
      </trkpt>
      <trkpt lat="49.80372" lon="4.80442">
        <ele>274</ele>
        <time>2021-08-14T07:15:26.000Z</time>
      </trkpt>
      <trkpt lat="49.80375" lon="4.80441">
        <ele>273</ele>
        <time>2021-08-14T07:15:27.000Z</time>
      </trkpt>
      <trkpt lat="49.80379" lon="4.80441">
        <ele>273</ele>
        <time>2021-08-14T07:15:28.000Z</time>
      </trkpt>
      <trkpt lat="49.80382" lon="4.8044">
        <ele>272</ele>
        <time>2021-08-14T07:15:29.000Z</time>
      </trkpt>
      <trkpt lat="49.80387" lon="4.80438">
        <ele>272</ele>
        <time>2021-08-14T07:15:30.000Z</time>
      </trkpt>
      <trkpt lat="49.80391" lon="4.80437">
        <ele>272</ele>
        <time>2021-08-14T07:15:31.000Z</time>
      </trkpt>
      <trkpt lat="49.80395" lon="4.80437">
        <ele>271</ele>
        <time>2021-08-14T07:15:32.000Z</time>
      </trkpt>
      <trkpt lat="49.804" lon="4.80437">
        <ele>271</ele>
        <time>2021-08-14T07:15:33.000Z</time>
      </trkpt>
      <trkpt lat="49.80405" lon="4.80436">
        <ele>271</ele>
        <time>2021-08-14T07:15:34.000Z</time>
      </trkpt>
      <trkpt lat="49.8041" lon="4.80436">
        <ele>270</ele>
        <time>2021-08-14T07:15:35.000Z</time>
      </trkpt>
      <trkpt lat="49.80414" lon="4.80436">
        <ele>270</ele>
        <time>2021-08-14T07:15:36.000Z</time>
      </trkpt>
      <trkpt lat="49.80417" lon="4.80435">
        <ele>269</ele>
        <time>2021-08-14T07:15:37.000Z</time>
      </trkpt>
      <trkpt lat="49.80419" lon="4.80434">
        <ele>269</ele>
        <time>2021-08-14T07:15:38.000Z</time>
      </trkpt>
      <trkpt lat="49.80422" lon="4.80433">
        <ele>269</ele>
        <time>2021-08-14T07:15:39.000Z</time>
      </trkpt>
      <trkpt lat="49.80426" lon="4.80434">
        <ele>268</ele>
        <time>2021-08-14T07:15:40.000Z</time>
      </trkpt>
      <trkpt lat="49.8043" lon="4.80434">
        <ele>268</ele>
        <time>2021-08-14T07:15:41.000Z</time>
      </trkpt>
      <trkpt lat="49.80435" lon="4.80434">
        <ele>267</ele>
        <time>2021-08-14T07:15:42.000Z</time>
      </trkpt>
      <trkpt lat="49.8044" lon="4.80434">
        <ele>267</ele>
        <time>2021-08-14T07:15:43.000Z</time>
      </trkpt>
      <trkpt lat="49.80445" lon="4.80433">
        <ele>267</ele>
        <time>2021-08-14T07:15:44.000Z</time>
      </trkpt>
      <trkpt lat="49.8045" lon="4.80432">
        <ele>266</ele>
        <time>2021-08-14T07:15:45.000Z</time>
      </trkpt>
      <trkpt lat="49.80455" lon="4.80429">
        <ele>266</ele>
        <time>2021-08-14T07:15:46.000Z</time>
      </trkpt>
      <trkpt lat="49.80461" lon="4.80427">
        <ele>265</ele>
        <time>2021-08-14T07:15:47.000Z</time>
      </trkpt>
      <trkpt lat="49.80468" lon="4.80424">
        <ele>265</ele>
        <time>2021-08-14T07:15:48.000Z</time>
      </trkpt>
      <trkpt lat="49.80476" lon="4.80421">
        <ele>265</ele>
        <time>2021-08-14T07:15:49.000Z</time>
      </trkpt>
      <trkpt lat="49.80484" lon="4.80418">
        <ele>264</ele>
        <time>2021-08-14T07:15:50.000Z</time>
      </trkpt>
      <trkpt lat="49.80492" lon="4.80416">
        <ele>264</ele>
        <time>2021-08-14T07:15:51.000Z</time>
      </trkpt>
      <trkpt lat="49.80499" lon="4.80414">
        <ele>263</ele>
        <time>2021-08-14T07:15:52.000Z</time>
      </trkpt>
      <trkpt lat="49.80506" lon="4.80412">
        <ele>262</ele>
        <time>2021-08-14T07:15:53.000Z</time>
      </trkpt>
      <trkpt lat="49.80512" lon="4.8041">
        <ele>262</ele>
        <time>2021-08-14T07:15:54.000Z</time>
      </trkpt>
      <trkpt lat="49.80517" lon="4.80407">
        <ele>261</ele>
        <time>2021-08-14T07:15:55.000Z</time>
      </trkpt>
      <trkpt lat="49.80521" lon="4.80405">
        <ele>260</ele>
        <time>2021-08-14T07:15:56.000Z</time>
      </trkpt>
      <trkpt lat="49.80525" lon="4.804">
        <ele>260</ele>
        <time>2021-08-14T07:15:57.000Z</time>
      </trkpt>
      <trkpt lat="49.80528" lon="4.80395">
        <ele>259</ele>
        <time>2021-08-14T07:15:58.000Z</time>
      </trkpt>
      <trkpt lat="49.80532" lon="4.80389">
        <ele>258</ele>
        <time>2021-08-14T07:15:59.000Z</time>
      </trkpt>
      <trkpt lat="49.80536" lon="4.80384">
        <ele>257</ele>
        <time>2021-08-14T07:16:00.000Z</time>
      </trkpt>
      <trkpt lat="49.80539" lon="4.80378">
        <ele>256</ele>
        <time>2021-08-14T07:16:01.000Z</time>
      </trkpt>
      <trkpt lat="49.80543" lon="4.80372">
        <ele>255</ele>
        <time>2021-08-14T07:16:02.000Z</time>
      </trkpt>
      <trkpt lat="49.80546" lon="4.80366">
        <ele>254</ele>
        <time>2021-08-14T07:16:03.000Z</time>
      </trkpt>
      <trkpt lat="49.8055" lon="4.8036">
        <ele>253</ele>
        <time>2021-08-14T07:16:04.000Z</time>
      </trkpt>
      <trkpt lat="49.80554" lon="4.80355">
        <ele>253</ele>
        <time>2021-08-14T07:16:05.000Z</time>
      </trkpt>
      <trkpt lat="49.80557" lon="4.80348">
        <ele>252</ele>
        <time>2021-08-14T07:16:06.000Z</time>
      </trkpt>
      <trkpt lat="49.80561" lon="4.80342">
        <ele>251</ele>
        <time>2021-08-14T07:16:07.000Z</time>
      </trkpt>
      <trkpt lat="49.80564" lon="4.80335">
        <ele>250</ele>
        <time>2021-08-14T07:16:08.000Z</time>
      </trkpt>
      <trkpt lat="49.80568" lon="4.80329">
        <ele>250</ele>
        <time>2021-08-14T07:16:09.000Z</time>
      </trkpt>
      <trkpt lat="49.80572" lon="4.80321">
        <ele>249</ele>
        <time>2021-08-14T07:16:10.000Z</time>
      </trkpt>
      <trkpt lat="49.80576" lon="4.80313">
        <ele>249</ele>
        <time>2021-08-14T07:16:11.000Z</time>
      </trkpt>
      <trkpt lat="49.80579" lon="4.80306">
        <ele>248</ele>
        <time>2021-08-14T07:16:12.000Z</time>
      </trkpt>
      <trkpt lat="49.80583" lon="4.80301">
        <ele>247</ele>
        <time>2021-08-14T07:16:13.000Z</time>
      </trkpt>
      <trkpt lat="49.80586" lon="4.80295">
        <ele>247</ele>
        <time>2021-08-14T07:16:14.000Z</time>
      </trkpt>
      <trkpt lat="49.80589" lon="4.80289">
        <ele>246</ele>
        <time>2021-08-14T07:16:15.000Z</time>
      </trkpt>
      <trkpt lat="49.80593" lon="4.80282">
        <ele>245</ele>
        <time>2021-08-14T07:16:16.000Z</time>
      </trkpt>
      <trkpt lat="49.80598" lon="4.80274">
        <ele>245</ele>
        <time>2021-08-14T07:16:17.000Z</time>
      </trkpt>
      <trkpt lat="49.80602" lon="4.80266">
        <ele>244</ele>
        <time>2021-08-14T07:16:18.000Z</time>
      </trkpt>
      <trkpt lat="49.80608" lon="4.80257">
        <ele>243</ele>
        <time>2021-08-14T07:16:19.000Z</time>
      </trkpt>
      <trkpt lat="49.80613" lon="4.80249">
        <ele>242</ele>
        <time>2021-08-14T07:16:20.000Z</time>
      </trkpt>
      <trkpt lat="49.80619" lon="4.8024">
        <ele>240</ele>
        <time>2021-08-14T07:16:21.000Z</time>
      </trkpt>
      <trkpt lat="49.80626" lon="4.80232">
        <ele>239</ele>
        <time>2021-08-14T07:16:22.000Z</time>
      </trkpt>
      <trkpt lat="49.80632" lon="4.80223">
        <ele>238</ele>
        <time>2021-08-14T07:16:23.000Z</time>
      </trkpt>
      <trkpt lat="49.80637" lon="4.80215">
        <ele>237</ele>
        <time>2021-08-14T07:16:24.000Z</time>
      </trkpt>
      <trkpt lat="49.80643" lon="4.80206">
        <ele>236</ele>
        <time>2021-08-14T07:16:25.000Z</time>
      </trkpt>
      <trkpt lat="49.80649" lon="4.80198">
        <ele>235</ele>
        <time>2021-08-14T07:16:26.000Z</time>
      </trkpt>
      <trkpt lat="49.80655" lon="4.8019">
        <ele>234</ele>
        <time>2021-08-14T07:16:27.000Z</time>
      </trkpt>
      <trkpt lat="49.8066" lon="4.80183">
        <ele>233</ele>
        <time>2021-08-14T07:16:28.000Z</time>
      </trkpt>
      <trkpt lat="49.80665" lon="4.80177">
        <ele>232</ele>
        <time>2021-08-14T07:16:29.000Z</time>
      </trkpt>
      <trkpt lat="49.8067" lon="4.80171">
        <ele>231</ele>
        <time>2021-08-14T07:16:30.000Z</time>
      </trkpt>
      <trkpt lat="49.80674" lon="4.80165">
        <ele>230</ele>
        <time>2021-08-14T07:16:31.000Z</time>
      </trkpt>
      <trkpt lat="49.80679" lon="4.80159">
        <ele>229</ele>
        <time>2021-08-14T07:16:32.000Z</time>
      </trkpt>
      <trkpt lat="49.80683" lon="4.80153">
        <ele>229</ele>
        <time>2021-08-14T07:16:33.000Z</time>
      </trkpt>
      <trkpt lat="49.80687" lon="4.80147">
        <ele>228</ele>
        <time>2021-08-14T07:16:34.000Z</time>
      </trkpt>
      <trkpt lat="49.80692" lon="4.80141">
        <ele>227</ele>
        <time>2021-08-14T07:16:35.000Z</time>
      </trkpt>
      <trkpt lat="49.80697" lon="4.80134">
        <ele>226</ele>
        <time>2021-08-14T07:16:36.000Z</time>
      </trkpt>
      <trkpt lat="49.80702" lon="4.80128">
        <ele>225</ele>
        <time>2021-08-14T07:16:37.000Z</time>
      </trkpt>
      <trkpt lat="49.80707" lon="4.80122">
        <ele>224</ele>
        <time>2021-08-14T07:16:38.000Z</time>
      </trkpt>
      <trkpt lat="49.80713" lon="4.80117">
        <ele>223</ele>
        <time>2021-08-14T07:16:39.000Z</time>
      </trkpt>
      <trkpt lat="49.8072" lon="4.80112">
        <ele>222</ele>
        <time>2021-08-14T07:16:40.000Z</time>
      </trkpt>
      <trkpt lat="49.80725" lon="4.80109">
        <ele>221</ele>
        <time>2021-08-14T07:16:41.000Z</time>
      </trkpt>
      <trkpt lat="49.80731" lon="4.80107">
        <ele>220</ele>
        <time>2021-08-14T07:16:42.000Z</time>
      </trkpt>
      <trkpt lat="49.80736" lon="4.80106">
        <ele>220</ele>
        <time>2021-08-14T07:16:43.000Z</time>
      </trkpt>
      <trkpt lat="49.80741" lon="4.80104">
        <ele>219</ele>
        <time>2021-08-14T07:16:44.000Z</time>
      </trkpt>
      <trkpt lat="49.80746" lon="4.80102">
        <ele>218</ele>
        <time>2021-08-14T07:16:45.000Z</time>
      </trkpt>
      <trkpt lat="49.80752" lon="4.80099">
        <ele>217</ele>
        <time>2021-08-14T07:16:46.000Z</time>
      </trkpt>
      <trkpt lat="49.80757" lon="4.80094">
        <ele>217</ele>
        <time>2021-08-14T07:16:47.000Z</time>
      </trkpt>
      <trkpt lat="49.80761" lon="4.80088">
        <ele>216</ele>
        <time>2021-08-14T07:16:48.000Z</time>
      </trkpt>
      <trkpt lat="49.80764" lon="4.8008">
        <ele>215</ele>
        <time>2021-08-14T07:16:49.000Z</time>
      </trkpt>
      <trkpt lat="49.80768" lon="4.8007">
        <ele>214</ele>
        <time>2021-08-14T07:16:50.000Z</time>
      </trkpt>
      <trkpt lat="49.80771" lon="4.8006">
        <ele>213</ele>
        <time>2021-08-14T07:16:51.000Z</time>
      </trkpt>
      <trkpt lat="49.80774" lon="4.80049">
        <ele>213</ele>
        <time>2021-08-14T07:16:52.000Z</time>
      </trkpt>
      <trkpt lat="49.80777" lon="4.80039">
        <ele>212</ele>
        <time>2021-08-14T07:16:53.000Z</time>
      </trkpt>
      <trkpt lat="49.80781" lon="4.80028">
        <ele>211</ele>
        <time>2021-08-14T07:16:54.000Z</time>
      </trkpt>
      <trkpt lat="49.80784" lon="4.80016">
        <ele>210</ele>
        <time>2021-08-14T07:16:55.000Z</time>
      </trkpt>
      <trkpt lat="49.80787" lon="4.80005">
        <ele>209</ele>
        <time>2021-08-14T07:16:56.000Z</time>
      </trkpt>
      <trkpt lat="49.8079" lon="4.79993">
        <ele>209</ele>
        <time>2021-08-14T07:16:57.000Z</time>
      </trkpt>
      <trkpt lat="49.80794" lon="4.79982">
        <ele>208</ele>
        <time>2021-08-14T07:16:58.000Z</time>
      </trkpt>
      <trkpt lat="49.80797" lon="4.79971">
        <ele>207</ele>
        <time>2021-08-14T07:16:59.000Z</time>
      </trkpt>
      <trkpt lat="49.808" lon="4.79959">
        <ele>207</ele>
        <time>2021-08-14T07:17:00.000Z</time>
      </trkpt>
      <trkpt lat="49.80804" lon="4.79948">
        <ele>206</ele>
        <time>2021-08-14T07:17:01.000Z</time>
      </trkpt>
      <trkpt lat="49.80807" lon="4.79936">
        <ele>205</ele>
        <time>2021-08-14T07:17:02.000Z</time>
      </trkpt>
      <trkpt lat="49.80812" lon="4.79924">
        <ele>204</ele>
        <time>2021-08-14T07:17:03.000Z</time>
      </trkpt>
      <trkpt lat="49.80816" lon="4.79912">
        <ele>203</ele>
        <time>2021-08-14T07:17:04.000Z</time>
      </trkpt>
      <trkpt lat="49.80821" lon="4.79901">
        <ele>202</ele>
        <time>2021-08-14T07:17:05.000Z</time>
      </trkpt>
      <trkpt lat="49.80827" lon="4.79891">
        <ele>200</ele>
        <time>2021-08-14T07:17:06.000Z</time>
      </trkpt>
      <trkpt lat="49.80833" lon="4.79881">
        <ele>199</ele>
        <time>2021-08-14T07:17:07.000Z</time>
      </trkpt>
      <trkpt lat="49.8084" lon="4.79872">
        <ele>198</ele>
        <time>2021-08-14T07:17:08.000Z</time>
      </trkpt>
      <trkpt lat="49.80848" lon="4.79863">
        <ele>196</ele>
        <time>2021-08-14T07:17:09.000Z</time>
      </trkpt>
      <trkpt lat="49.80856" lon="4.79854">
        <ele>195</ele>
        <time>2021-08-14T07:17:10.000Z</time>
      </trkpt>
      <trkpt lat="49.80864" lon="4.79846">
        <ele>194</ele>
        <time>2021-08-14T07:17:11.000Z</time>
      </trkpt>
      <trkpt lat="49.80873" lon="4.79839">
        <ele>192</ele>
        <time>2021-08-14T07:17:12.000Z</time>
      </trkpt>
      <trkpt lat="49.80881" lon="4.79832">
        <ele>191</ele>
        <time>2021-08-14T07:17:13.000Z</time>
      </trkpt>
      <trkpt lat="49.80889" lon="4.79825">
        <ele>190</ele>
        <time>2021-08-14T07:17:14.000Z</time>
      </trkpt>
      <trkpt lat="49.80898" lon="4.79818">
        <ele>188</ele>
        <time>2021-08-14T07:17:15.000Z</time>
      </trkpt>
      <trkpt lat="49.80907" lon="4.79809">
        <ele>187</ele>
        <time>2021-08-14T07:17:16.000Z</time>
      </trkpt>
      <trkpt lat="49.80916" lon="4.798">
        <ele>186</ele>
        <time>2021-08-14T07:17:17.000Z</time>
      </trkpt>
      <trkpt lat="49.80924" lon="4.79791">
        <ele>185</ele>
        <time>2021-08-14T07:17:18.000Z</time>
      </trkpt>
      <trkpt lat="49.80933" lon="4.79784">
        <ele>184</ele>
        <time>2021-08-14T07:17:19.000Z</time>
      </trkpt>
      <trkpt lat="49.80941" lon="4.79778">
        <ele>183</ele>
        <time>2021-08-14T07:17:20.000Z</time>
      </trkpt>
      <trkpt lat="49.8095" lon="4.79772">
        <ele>182</ele>
        <time>2021-08-14T07:17:21.000Z</time>
      </trkpt>
      <trkpt lat="49.80957" lon="4.79768">
        <ele>182</ele>
        <time>2021-08-14T07:17:22.000Z</time>
      </trkpt>
      <trkpt lat="49.80963" lon="4.79765">
        <ele>182</ele>
        <time>2021-08-14T07:17:23.000Z</time>
      </trkpt>
      <trkpt lat="49.8097" lon="4.79761">
        <ele>182</ele>
        <time>2021-08-14T07:17:24.000Z</time>
      </trkpt>
      <trkpt lat="49.80977" lon="4.79756">
        <ele>182</ele>
        <time>2021-08-14T07:17:25.000Z</time>
      </trkpt>
      <trkpt lat="49.80983" lon="4.79751">
        <ele>181</ele>
        <time>2021-08-14T07:17:26.000Z</time>
      </trkpt>
      <trkpt lat="49.80989" lon="4.79745">
        <ele>181</ele>
        <time>2021-08-14T07:17:27.000Z</time>
      </trkpt>
      <trkpt lat="49.80995" lon="4.7974">
        <ele>181</ele>
        <time>2021-08-14T07:17:28.000Z</time>
      </trkpt>
      <trkpt lat="49.81" lon="4.79734">
        <ele>181</ele>
        <time>2021-08-14T07:17:29.000Z</time>
      </trkpt>
      <trkpt lat="49.81005" lon="4.79729">
        <ele>181</ele>
        <time>2021-08-14T07:17:30.000Z</time>
      </trkpt>
      <trkpt lat="49.81011" lon="4.79724">
        <ele>181</ele>
        <time>2021-08-14T07:17:31.000Z</time>
      </trkpt>
      <trkpt lat="49.81017" lon="4.79725">
        <ele>181</ele>
        <time>2021-08-14T07:17:32.000Z</time>
      </trkpt>
      <trkpt lat="49.81022" lon="4.7973">
        <ele>181</ele>
        <time>2021-08-14T07:17:33.000Z</time>
      </trkpt>
      <trkpt lat="49.81026" lon="4.79736">
        <ele>181</ele>
        <time>2021-08-14T07:17:34.000Z</time>
      </trkpt>
      <trkpt lat="49.81031" lon="4.79743">
        <ele>181</ele>
        <time>2021-08-14T07:17:35.000Z</time>
      </trkpt>
      <trkpt lat="49.81036" lon="4.7975">
        <ele>181</ele>
        <time>2021-08-14T07:17:36.000Z</time>
      </trkpt>
      <trkpt lat="49.8104" lon="4.79757">
        <ele>181</ele>
        <time>2021-08-14T07:17:37.000Z</time>
      </trkpt>
      <trkpt lat="49.81045" lon="4.79765">
        <ele>181</ele>
        <time>2021-08-14T07:17:38.000Z</time>
      </trkpt>
      <trkpt lat="49.8105" lon="4.79773">
        <ele>181</ele>
        <time>2021-08-14T07:17:39.000Z</time>
      </trkpt>
      <trkpt lat="49.81054" lon="4.79782">
        <ele>181</ele>
        <time>2021-08-14T07:17:40.000Z</time>
      </trkpt>
      <trkpt lat="49.81057" lon="4.79791">
        <ele>181</ele>
        <time>2021-08-14T07:17:41.000Z</time>
      </trkpt>
      <trkpt lat="49.81061" lon="4.79799">
        <ele>181</ele>
        <time>2021-08-14T07:17:42.000Z</time>
      </trkpt>
      <trkpt lat="49.81064" lon="4.79808">
        <ele>181</ele>
        <time>2021-08-14T07:17:43.000Z</time>
      </trkpt>
      <trkpt lat="49.81068" lon="4.79817">
        <ele>181</ele>
        <time>2021-08-14T07:17:44.000Z</time>
      </trkpt>
      <trkpt lat="49.81071" lon="4.79826">
        <ele>181</ele>
        <time>2021-08-14T07:17:45.000Z</time>
      </trkpt>
      <trkpt lat="49.81075" lon="4.79835">
        <ele>181</ele>
        <time>2021-08-14T07:17:46.000Z</time>
      </trkpt>
      <trkpt lat="49.81079" lon="4.79844">
        <ele>181</ele>
        <time>2021-08-14T07:17:47.000Z</time>
      </trkpt>
      <trkpt lat="49.81082" lon="4.79853">
        <ele>181</ele>
        <time>2021-08-14T07:17:48.000Z</time>
      </trkpt>
      <trkpt lat="49.81086" lon="4.79861">
        <ele>181</ele>
        <time>2021-08-14T07:17:49.000Z</time>
      </trkpt>
      <trkpt lat="49.8109" lon="4.7987">
        <ele>181</ele>
        <time>2021-08-14T07:17:50.000Z</time>
      </trkpt>
      <trkpt lat="49.81094" lon="4.79878">
        <ele>180</ele>
        <time>2021-08-14T07:17:51.000Z</time>
      </trkpt>
      <trkpt lat="49.81097" lon="4.79886">
        <ele>180</ele>
        <time>2021-08-14T07:17:52.000Z</time>
      </trkpt>
      <trkpt lat="49.81101" lon="4.79894">
        <ele>180</ele>
        <time>2021-08-14T07:17:53.000Z</time>
      </trkpt>
      <trkpt lat="49.81104" lon="4.79902">
        <ele>180</ele>
        <time>2021-08-14T07:17:54.000Z</time>
      </trkpt>
      <trkpt lat="49.81108" lon="4.79909">
        <ele>180</ele>
        <time>2021-08-14T07:17:55.000Z</time>
      </trkpt>
      <trkpt lat="49.81111" lon="4.79917">
        <ele>180</ele>
        <time>2021-08-14T07:17:56.000Z</time>
      </trkpt>
      <trkpt lat="49.81115" lon="4.79924">
        <ele>180</ele>
        <time>2021-08-14T07:17:57.000Z</time>
      </trkpt>
      <trkpt lat="49.81119" lon="4.79931">
        <ele>180</ele>
        <time>2021-08-14T07:17:58.000Z</time>
      </trkpt>
      <trkpt lat="49.81123" lon="4.79938">
        <ele>180</ele>
        <time>2021-08-14T07:17:59.000Z</time>
      </trkpt>
      <trkpt lat="49.81128" lon="4.79945">
        <ele>180</ele>
        <time>2021-08-14T07:18:00.000Z</time>
      </trkpt>
      <trkpt lat="49.81132" lon="4.79951">
        <ele>179</ele>
        <time>2021-08-14T07:18:01.000Z</time>
      </trkpt>
      <trkpt lat="49.81137" lon="4.79958">
        <ele>179</ele>
        <time>2021-08-14T07:18:02.000Z</time>
      </trkpt>
      <trkpt lat="49.81141" lon="4.79966">
        <ele>179</ele>
        <time>2021-08-14T07:18:03.000Z</time>
      </trkpt>
      <trkpt lat="49.81144" lon="4.79975">
        <ele>179</ele>
        <time>2021-08-14T07:18:04.000Z</time>
      </trkpt>
      <trkpt lat="49.81146" lon="4.79984">
        <ele>179</ele>
        <time>2021-08-14T07:18:05.000Z</time>
      </trkpt>
      <trkpt lat="49.81147" lon="4.79993">
        <ele>179</ele>
        <time>2021-08-14T07:18:06.000Z</time>
      </trkpt>
      <trkpt lat="49.81148" lon="4.80001">
        <ele>179</ele>
        <time>2021-08-14T07:18:07.000Z</time>
      </trkpt>
      <trkpt lat="49.81149" lon="4.80008">
        <ele>179</ele>
        <time>2021-08-14T07:18:08.000Z</time>
      </trkpt>
      <trkpt lat="49.8115" lon="4.80014">
        <ele>179</ele>
        <time>2021-08-14T07:18:09.000Z</time>
      </trkpt>
      <trkpt lat="49.8115" lon="4.80019">
        <ele>179</ele>
        <time>2021-08-14T07:18:10.000Z</time>
      </trkpt>
      <trkpt lat="49.8115" lon="4.80023">
        <ele>179</ele>
        <time>2021-08-14T07:18:11.000Z</time>
      </trkpt>
      <trkpt lat="49.8115" lon="4.80027">
        <ele>178</ele>
        <time>2021-08-14T07:18:12.000Z</time>
      </trkpt>
      <trkpt lat="49.8115" lon="4.80031">
        <ele>178</ele>
        <time>2021-08-14T07:18:13.000Z</time>
      </trkpt>
      <trkpt lat="49.8115" lon="4.80035">
        <ele>178</ele>
        <time>2021-08-14T07:18:14.000Z</time>
      </trkpt>
      <trkpt lat="49.8115" lon="4.80039">
        <ele>178</ele>
        <time>2021-08-14T07:18:15.000Z</time>
      </trkpt>
      <trkpt lat="49.81149" lon="4.80042">
        <ele>178</ele>
        <time>2021-08-14T07:18:16.000Z</time>
      </trkpt>
      <trkpt lat="49.81149" lon="4.80045">
        <ele>178</ele>
        <time>2021-08-14T07:18:17.000Z</time>
      </trkpt>
      <trkpt lat="49.81149" lon="4.80049">
        <ele>178</ele>
        <time>2021-08-14T07:18:18.000Z</time>
      </trkpt>
      <trkpt lat="49.81149" lon="4.80053">
        <ele>178</ele>
        <time>2021-08-14T07:18:19.000Z</time>
      </trkpt>
      <trkpt lat="49.8115" lon="4.80057">
        <ele>177</ele>
        <time>2021-08-14T07:18:20.000Z</time>
      </trkpt>
      <trkpt lat="49.81149" lon="4.80061">
        <ele>177</ele>
        <time>2021-08-14T07:18:21.000Z</time>
      </trkpt>
      <trkpt lat="49.81149" lon="4.80065">
        <ele>177</ele>
        <time>2021-08-14T07:18:22.000Z</time>
      </trkpt>
      <trkpt lat="49.81148" lon="4.80069">
        <ele>177</ele>
        <time>2021-08-14T07:18:23.000Z</time>
      </trkpt>
      <trkpt lat="49.81148" lon="4.80073">
        <ele>177</ele>
        <time>2021-08-14T07:18:24.000Z</time>
      </trkpt>
      <trkpt lat="49.81147" lon="4.80077">
        <ele>177</ele>
        <time>2021-08-14T07:18:25.000Z</time>
      </trkpt>
      <trkpt lat="49.81146" lon="4.80081">
        <ele>177</ele>
        <time>2021-08-14T07:18:26.000Z</time>
      </trkpt>
      <trkpt lat="49.81146" lon="4.80085">
        <ele>177</ele>
        <time>2021-08-14T07:18:27.000Z</time>
      </trkpt>
      <trkpt lat="49.81146" lon="4.80089">
        <ele>177</ele>
        <time>2021-08-14T07:18:28.000Z</time>
      </trkpt>
      <trkpt lat="49.81146" lon="4.80093">
        <ele>177</ele>
        <time>2021-08-14T07:18:29.000Z</time>
      </trkpt>
      <trkpt lat="49.81145" lon="4.80096">
        <ele>177</ele>
        <time>2021-08-14T07:18:30.000Z</time>
      </trkpt>
      <trkpt lat="49.81145" lon="4.801">
        <ele>177</ele>
        <time>2021-08-14T07:18:31.000Z</time>
      </trkpt>
      <trkpt lat="49.81145" lon="4.80105">
        <ele>177</ele>
        <time>2021-08-14T07:18:32.000Z</time>
      </trkpt>
      <trkpt lat="49.81144" lon="4.80109">
        <ele>177</ele>
        <time>2021-08-14T07:18:33.000Z</time>
      </trkpt>
      <trkpt lat="49.81144" lon="4.80113">
        <ele>177</ele>
        <time>2021-08-14T07:18:34.000Z</time>
      </trkpt>
      <trkpt lat="49.81143" lon="4.80117">
        <ele>177</ele>
        <time>2021-08-14T07:18:35.000Z</time>
      </trkpt>
      <trkpt lat="49.81143" lon="4.80121">
        <ele>177</ele>
        <time>2021-08-14T07:18:36.000Z</time>
      </trkpt>
      <trkpt lat="49.81143" lon="4.80125">
        <ele>177</ele>
        <time>2021-08-14T07:18:37.000Z</time>
      </trkpt>
      <trkpt lat="49.81143" lon="4.80129">
        <ele>177</ele>
        <time>2021-08-14T07:18:38.000Z</time>
      </trkpt>
      <trkpt lat="49.81142" lon="4.80132">
        <ele>177</ele>
        <time>2021-08-14T07:18:39.000Z</time>
      </trkpt>
      <trkpt lat="49.81142" lon="4.80136">
        <ele>177</ele>
        <time>2021-08-14T07:18:40.000Z</time>
      </trkpt>
      <trkpt lat="49.81142" lon="4.8014">
        <ele>177</ele>
        <time>2021-08-14T07:18:41.000Z</time>
      </trkpt>
      <trkpt lat="49.81141" lon="4.80143">
        <ele>177</ele>
        <time>2021-08-14T07:18:42.000Z</time>
      </trkpt>
      <trkpt lat="49.81141" lon="4.80146">
        <ele>177</ele>
        <time>2021-08-14T07:18:43.000Z</time>
      </trkpt>
      <trkpt lat="49.8114" lon="4.80149">
        <ele>177</ele>
        <time>2021-08-14T07:18:44.000Z</time>
      </trkpt>
      <trkpt lat="49.8114" lon="4.80152">
        <ele>178</ele>
        <time>2021-08-14T07:18:45.000Z</time>
      </trkpt>
      <trkpt lat="49.8114" lon="4.80156">
        <ele>178</ele>
        <time>2021-08-14T07:18:46.000Z</time>
      </trkpt>
      <trkpt lat="49.8114" lon="4.8016">
        <ele>178</ele>
        <time>2021-08-14T07:18:47.000Z</time>
      </trkpt>
      <trkpt lat="49.81139" lon="4.80163">
        <ele>178</ele>
        <time>2021-08-14T07:18:48.000Z</time>
      </trkpt>
      <trkpt lat="49.81139" lon="4.80166">
        <ele>178</ele>
        <time>2021-08-14T07:18:49.000Z</time>
      </trkpt>
      <trkpt lat="49.81138" lon="4.80169">
        <ele>179</ele>
        <time>2021-08-14T07:18:50.000Z</time>
      </trkpt>
      <trkpt lat="49.81137" lon="4.80173">
        <ele>179</ele>
        <time>2021-08-14T07:18:51.000Z</time>
      </trkpt>
      <trkpt lat="49.81137" lon="4.80176">
        <ele>179</ele>
        <time>2021-08-14T07:18:52.000Z</time>
      </trkpt>
      <trkpt lat="49.81137" lon="4.8018">
        <ele>179</ele>
        <time>2021-08-14T07:18:53.000Z</time>
      </trkpt>
      <trkpt lat="49.81137" lon="4.80183">
        <ele>179</ele>
        <time>2021-08-14T07:18:54.000Z</time>
      </trkpt>
      <trkpt lat="49.81136" lon="4.80187">
        <ele>179</ele>
        <time>2021-08-14T07:18:55.000Z</time>
      </trkpt>
      <trkpt lat="49.81136" lon="4.80191">
        <ele>179</ele>
        <time>2021-08-14T07:18:56.000Z</time>
      </trkpt>
      <trkpt lat="49.81137" lon="4.80195">
        <ele>179</ele>
        <time>2021-08-14T07:18:57.000Z</time>
      </trkpt>
      <trkpt lat="49.81137" lon="4.80198">
        <ele>179</ele>
        <time>2021-08-14T07:18:58.000Z</time>
      </trkpt>
      <trkpt lat="49.81137" lon="4.80202">
        <ele>180</ele>
        <time>2021-08-14T07:18:59.000Z</time>
      </trkpt>
      <trkpt lat="49.81137" lon="4.80206">
        <ele>180</ele>
        <time>2021-08-14T07:19:00.000Z</time>
      </trkpt>
      <trkpt lat="49.81137" lon="4.8021">
        <ele>180</ele>
        <time>2021-08-14T07:19:01.000Z</time>
      </trkpt>
      <trkpt lat="49.81137" lon="4.80214">
        <ele>180</ele>
        <time>2021-08-14T07:19:02.000Z</time>
      </trkpt>
      <trkpt lat="49.81137" lon="4.80218">
        <ele>180</ele>
        <time>2021-08-14T07:19:03.000Z</time>
      </trkpt>
      <trkpt lat="49.81137" lon="4.80221">
        <ele>180</ele>
        <time>2021-08-14T07:19:04.000Z</time>
      </trkpt>
      <trkpt lat="49.81137" lon="4.80224">
        <ele>180</ele>
        <time>2021-08-14T07:19:05.000Z</time>
      </trkpt>
      <trkpt lat="49.81138" lon="4.80228">
        <ele>180</ele>
        <time>2021-08-14T07:19:06.000Z</time>
      </trkpt>
      <trkpt lat="49.81138" lon="4.80231">
        <ele>180</ele>
        <time>2021-08-14T07:19:07.000Z</time>
      </trkpt>
      <trkpt lat="49.81139" lon="4.80235">
        <ele>181</ele>
        <time>2021-08-14T07:19:08.000Z</time>
      </trkpt>
      <trkpt lat="49.81139" lon="4.80238">
        <ele>181</ele>
        <time>2021-08-14T07:19:09.000Z</time>
      </trkpt>
      <trkpt lat="49.81138" lon="4.80241">
        <ele>181</ele>
        <time>2021-08-14T07:19:10.000Z</time>
      </trkpt>
      <trkpt lat="49.81138" lon="4.80244">
        <ele>181</ele>
        <time>2021-08-14T07:19:11.000Z</time>
      </trkpt>
      <trkpt lat="49.81138" lon="4.80247">
        <ele>181</ele>
        <time>2021-08-14T07:19:12.000Z</time>
      </trkpt>
      <trkpt lat="49.81138" lon="4.80251">
        <ele>181</ele>
        <time>2021-08-14T07:19:13.000Z</time>
      </trkpt>
      <trkpt lat="49.81138" lon="4.80254">
        <ele>181</ele>
        <time>2021-08-14T07:19:14.000Z</time>
      </trkpt>
      <trkpt lat="49.81138" lon="4.80258">
        <ele>182</ele>
        <time>2021-08-14T07:19:15.000Z</time>
      </trkpt>
      <trkpt lat="49.81138" lon="4.80261">
        <ele>182</ele>
        <time>2021-08-14T07:19:16.000Z</time>
      </trkpt>
      <trkpt lat="49.81138" lon="4.80264">
        <ele>182</ele>
        <time>2021-08-14T07:19:17.000Z</time>
      </trkpt>
      <trkpt lat="49.81139" lon="4.80267">
        <ele>182</ele>
        <time>2021-08-14T07:19:18.000Z</time>
      </trkpt>
      <trkpt lat="49.81139" lon="4.8027">
        <ele>183</ele>
        <time>2021-08-14T07:19:19.000Z</time>
      </trkpt>
      <trkpt lat="49.8114" lon="4.80274">
        <ele>183</ele>
        <time>2021-08-14T07:19:20.000Z</time>
      </trkpt>
      <trkpt lat="49.8114" lon="4.80277">
        <ele>183</ele>
        <time>2021-08-14T07:19:21.000Z</time>
      </trkpt>
      <trkpt lat="49.8114" lon="4.8028">
        <ele>183</ele>
        <time>2021-08-14T07:19:22.000Z</time>
      </trkpt>
      <trkpt lat="49.8114" lon="4.80284">
        <ele>183</ele>
        <time>2021-08-14T07:19:23.000Z</time>
      </trkpt>
      <trkpt lat="49.8114" lon="4.80288">
        <ele>184</ele>
        <time>2021-08-14T07:19:24.000Z</time>
      </trkpt>
      <trkpt lat="49.8114" lon="4.80292">
        <ele>184</ele>
        <time>2021-08-14T07:19:25.000Z</time>
      </trkpt>
      <trkpt lat="49.8114" lon="4.80296">
        <ele>184</ele>
        <time>2021-08-14T07:19:26.000Z</time>
      </trkpt>
      <trkpt lat="49.81141" lon="4.803">
        <ele>184</ele>
        <time>2021-08-14T07:19:27.000Z</time>
      </trkpt>
      <trkpt lat="49.81141" lon="4.80303">
        <ele>185</ele>
        <time>2021-08-14T07:19:28.000Z</time>
      </trkpt>
      <trkpt lat="49.81142" lon="4.80307">
        <ele>185</ele>
        <time>2021-08-14T07:19:29.000Z</time>
      </trkpt>
      <trkpt lat="49.81142" lon="4.8031">
        <ele>185</ele>
        <time>2021-08-14T07:19:30.000Z</time>
      </trkpt>
      <trkpt lat="49.81142" lon="4.80313">
        <ele>186</ele>
        <time>2021-08-14T07:19:31.000Z</time>
      </trkpt>
      <trkpt lat="49.81142" lon="4.80316">
        <ele>186</ele>
        <time>2021-08-14T07:19:32.000Z</time>
      </trkpt>
      <trkpt lat="49.81143" lon="4.8032">
        <ele>186</ele>
        <time>2021-08-14T07:19:33.000Z</time>
      </trkpt>
      <trkpt lat="49.81143" lon="4.80323">
        <ele>186</ele>
        <time>2021-08-14T07:19:34.000Z</time>
      </trkpt>
      <trkpt lat="49.81144" lon="4.80327">
        <ele>186</ele>
        <time>2021-08-14T07:19:35.000Z</time>
      </trkpt>
      <trkpt lat="49.81145" lon="4.80331">
        <ele>187</ele>
        <time>2021-08-14T07:19:36.000Z</time>
      </trkpt>
      <trkpt lat="49.81145" lon="4.80334">
        <ele>187</ele>
        <time>2021-08-14T07:19:37.000Z</time>
      </trkpt>
      <trkpt lat="49.81146" lon="4.80337">
        <ele>187</ele>
        <time>2021-08-14T07:19:38.000Z</time>
      </trkpt>
      <trkpt lat="49.81147" lon="4.8034">
        <ele>187</ele>
        <time>2021-08-14T07:19:39.000Z</time>
      </trkpt>
      <trkpt lat="49.81148" lon="4.80342">
        <ele>188</ele>
        <time>2021-08-14T07:19:40.000Z</time>
      </trkpt>
      <trkpt lat="49.81149" lon="4.80344">
        <ele>188</ele>
        <time>2021-08-14T07:19:41.000Z</time>
      </trkpt>
      <trkpt lat="49.8115" lon="4.80346">
        <ele>188</ele>
        <time>2021-08-14T07:19:42.000Z</time>
      </trkpt>
      <trkpt lat="49.81152" lon="4.80347">
        <ele>189</ele>
        <time>2021-08-14T07:19:43.000Z</time>
      </trkpt>
      <trkpt lat="49.81153" lon="4.80348">
        <ele>189</ele>
        <time>2021-08-14T07:19:44.000Z</time>
      </trkpt>
      <trkpt lat="49.81155" lon="4.80347">
        <ele>189</ele>
        <time>2021-08-14T07:19:45.000Z</time>
      </trkpt>
      <trkpt lat="49.81156" lon="4.80346">
        <ele>190</ele>
        <time>2021-08-14T07:19:46.000Z</time>
      </trkpt>
      <trkpt lat="49.81157" lon="4.80343">
        <ele>190</ele>
        <time>2021-08-14T07:19:47.000Z</time>
      </trkpt>
      <trkpt lat="49.81159" lon="4.80341">
        <ele>191</ele>
        <time>2021-08-14T07:19:48.000Z</time>
      </trkpt>
      <trkpt lat="49.81161" lon="4.80337">
        <ele>191</ele>
        <time>2021-08-14T07:19:49.000Z</time>
      </trkpt>
      <trkpt lat="49.81163" lon="4.80335">
        <ele>191</ele>
        <time>2021-08-14T07:19:50.000Z</time>
      </trkpt>
      <trkpt lat="49.81164" lon="4.80333">
        <ele>192</ele>
        <time>2021-08-14T07:19:51.000Z</time>
      </trkpt>
      <trkpt lat="49.81164" lon="4.80333">
        <ele>192</ele>
        <time>2021-08-14T07:19:52.000Z</time>
      </trkpt>
      <trkpt lat="49.81164" lon="4.80333">
        <ele>193</ele>
        <time>2021-08-14T07:19:53.000Z</time>
      </trkpt>
      <trkpt lat="49.81164" lon="4.80333">
        <ele>193</ele>
        <time>2021-08-14T07:19:54.000Z</time>
      </trkpt>
      <trkpt lat="49.81164" lon="4.80333">
        <ele>193</ele>
        <time>2021-08-14T07:19:55.000Z</time>
      </trkpt>
      <trkpt lat="49.81164" lon="4.80333">
        <ele>194</ele>
        <time>2021-08-14T07:19:56.000Z</time>
      </trkpt>
      <trkpt lat="49.81165" lon="4.80333">
        <ele>194</ele>
        <time>2021-08-14T07:19:57.000Z</time>
      </trkpt>
      <trkpt lat="49.81165" lon="4.80333">
        <ele>194</ele>
        <time>2021-08-14T07:19:58.000Z</time>
      </trkpt>
      <trkpt lat="49.81165" lon="4.80333">
        <ele>194</ele>
        <time>2021-08-14T07:19:59.000Z</time>
      </trkpt>
      <trkpt lat="49.81165" lon="4.80333">
        <ele>194</ele>
        <time>2021-08-14T07:20:00.000Z</time>
      </trkpt>
      <trkpt lat="49.81165" lon="4.80333">
        <ele>195</ele>
        <time>2021-08-14T07:20:01.000Z</time>
      </trkpt>
      <trkpt lat="49.81165" lon="4.80333">
        <ele>195</ele>
        <time>2021-08-14T07:20:02.000Z</time>
      </trkpt>
      <trkpt lat="49.81165" lon="4.80333">
        <ele>195</ele>
        <time>2021-08-14T07:20:03.000Z</time>
      </trkpt>
      <trkpt lat="49.81165" lon="4.80332">
        <ele>195</ele>
        <time>2021-08-14T07:20:04.000Z</time>
      </trkpt>
      <trkpt lat="49.81165" lon="4.80332">
        <ele>195</ele>
        <time>2021-08-14T07:20:05.000Z</time>
      </trkpt>
      <trkpt lat="49.81165" lon="4.80332">
        <ele>195</ele>
        <time>2021-08-14T07:20:06.000Z</time>
      </trkpt>
      <trkpt lat="49.81165" lon="4.80332">
        <ele>195</ele>
        <time>2021-08-14T07:20:07.000Z</time>
      </trkpt>
      <trkpt lat="49.81165" lon="4.80332">
        <ele>195</ele>
        <time>2021-08-14T07:20:08.000Z</time>
      </trkpt>
      <trkpt lat="49.81165" lon="4.80332">
        <ele>196</ele>
        <time>2021-08-14T07:20:09.000Z</time>
      </trkpt>
      <trkpt lat="49.81165" lon="4.80332">
        <ele>196</ele>
        <time>2021-08-14T07:20:10.000Z</time>
      </trkpt>
      <trkpt lat="49.81165" lon="4.80332">
        <ele>196</ele>
        <time>2021-08-14T07:20:11.000Z</time>
      </trkpt>
      <trkpt lat="49.81165" lon="4.80332">
        <ele>196</ele>
        <time>2021-08-14T07:20:12.000Z</time>
      </trkpt>
      <trkpt lat="49.81165" lon="4.80332">
        <ele>196</ele>
        <time>2021-08-14T07:20:13.000Z</time>
      </trkpt>
      <trkpt lat="49.81165" lon="4.80332">
        <ele>196</ele>
        <time>2021-08-14T07:20:14.000Z</time>
      </trkpt>
      <trkpt lat="49.81165" lon="4.80332">
        <ele>196</ele>
        <time>2021-08-14T07:20:15.000Z</time>
      </trkpt>
      <trkpt lat="49.81166" lon="4.80332">
        <ele>196</ele>
        <time>2021-08-14T07:20:16.000Z</time>
      </trkpt>
      <trkpt lat="49.81166" lon="4.80332">
        <ele>196</ele>
        <time>2021-08-14T07:20:17.000Z</time>
      </trkpt>
      <trkpt lat="49.81166" lon="4.80332">
        <ele>196</ele>
        <time>2021-08-14T07:20:18.000Z</time>
      </trkpt>
      <trkpt lat="49.81166" lon="4.80332">
        <ele>196</ele>
        <time>2021-08-14T07:20:19.000Z</time>
      </trkpt>
      <trkpt lat="49.81167" lon="4.80331">
        <ele>196</ele>
        <time>2021-08-14T07:20:20.000Z</time>
      </trkpt>
      <trkpt lat="49.81167" lon="4.8033">
        <ele>196</ele>
        <time>2021-08-14T07:20:21.000Z</time>
      </trkpt>
      <trkpt lat="49.81169" lon="4.80328">
        <ele>197</ele>
        <time>2021-08-14T07:20:22.000Z</time>
      </trkpt>
      <trkpt lat="49.81171" lon="4.80325">
        <ele>197</ele>
        <time>2021-08-14T07:20:23.000Z</time>
      </trkpt>
      <trkpt lat="49.81173" lon="4.80323">
        <ele>197</ele>
        <time>2021-08-14T07:20:24.000Z</time>
      </trkpt>
      <trkpt lat="49.81174" lon="4.8032">
        <ele>197</ele>
        <time>2021-08-14T07:20:25.000Z</time>
      </trkpt>
      <trkpt lat="49.81176" lon="4.80318">
        <ele>197</ele>
        <time>2021-08-14T07:20:26.000Z</time>
      </trkpt>
      <trkpt lat="49.81178" lon="4.80315">
        <ele>197</ele>
        <time>2021-08-14T07:20:27.000Z</time>
      </trkpt>
      <trkpt lat="49.8118" lon="4.80312">
        <ele>197</ele>
        <time>2021-08-14T07:20:28.000Z</time>
      </trkpt>
      <trkpt lat="49.81182" lon="4.80308">
        <ele>198</ele>
        <time>2021-08-14T07:20:29.000Z</time>
      </trkpt>
      <trkpt lat="49.81184" lon="4.80304">
        <ele>198</ele>
        <time>2021-08-14T07:20:30.000Z</time>
      </trkpt>
      <trkpt lat="49.81185" lon="4.803">
        <ele>198</ele>
        <time>2021-08-14T07:20:31.000Z</time>
      </trkpt>
      <trkpt lat="49.81187" lon="4.80295">
        <ele>198</ele>
        <time>2021-08-14T07:20:32.000Z</time>
      </trkpt>
      <trkpt lat="49.81188" lon="4.80291">
        <ele>198</ele>
        <time>2021-08-14T07:20:33.000Z</time>
      </trkpt>
      <trkpt lat="49.81189" lon="4.80287">
        <ele>198</ele>
        <time>2021-08-14T07:20:34.000Z</time>
      </trkpt>
      <trkpt lat="49.81191" lon="4.80282">
        <ele>198</ele>
        <time>2021-08-14T07:20:35.000Z</time>
      </trkpt>
      <trkpt lat="49.81193" lon="4.80277">
        <ele>198</ele>
        <time>2021-08-14T07:20:36.000Z</time>
      </trkpt>
      <trkpt lat="49.81195" lon="4.80272">
        <ele>198</ele>
        <time>2021-08-14T07:20:37.000Z</time>
      </trkpt>
      <trkpt lat="49.81197" lon="4.80266">
        <ele>198</ele>
        <time>2021-08-14T07:20:38.000Z</time>
      </trkpt>
      <trkpt lat="49.81199" lon="4.8026">
        <ele>198</ele>
        <time>2021-08-14T07:20:39.000Z</time>
      </trkpt>
      <trkpt lat="49.812" lon="4.80253">
        <ele>198</ele>
        <time>2021-08-14T07:20:40.000Z</time>
      </trkpt>
      <trkpt lat="49.81202" lon="4.80247">
        <ele>198</ele>
        <time>2021-08-14T07:20:41.000Z</time>
      </trkpt>
      <trkpt lat="49.81204" lon="4.8024">
        <ele>198</ele>
        <time>2021-08-14T07:20:42.000Z</time>
      </trkpt>
      <trkpt lat="49.81207" lon="4.80233">
        <ele>198</ele>
        <time>2021-08-14T07:20:43.000Z</time>
      </trkpt>
      <trkpt lat="49.81209" lon="4.80226">
        <ele>198</ele>
        <time>2021-08-14T07:20:44.000Z</time>
      </trkpt>
      <trkpt lat="49.81212" lon="4.8022">
        <ele>198</ele>
        <time>2021-08-14T07:20:45.000Z</time>
      </trkpt>
      <trkpt lat="49.81215" lon="4.80213">
        <ele>198</ele>
        <time>2021-08-14T07:20:46.000Z</time>
      </trkpt>
      <trkpt lat="49.81218" lon="4.80206">
        <ele>198</ele>
        <time>2021-08-14T07:20:47.000Z</time>
      </trkpt>
      <trkpt lat="49.81221" lon="4.802">
        <ele>198</ele>
        <time>2021-08-14T07:20:48.000Z</time>
      </trkpt>
      <trkpt lat="49.81225" lon="4.80194">
        <ele>198</ele>
        <time>2021-08-14T07:20:49.000Z</time>
      </trkpt>
      <trkpt lat="49.81228" lon="4.80187">
        <ele>198</ele>
        <time>2021-08-14T07:20:50.000Z</time>
      </trkpt>
      <trkpt lat="49.81231" lon="4.8018">
        <ele>198</ele>
        <time>2021-08-14T07:20:51.000Z</time>
      </trkpt>
      <trkpt lat="49.81234" lon="4.80173">
        <ele>198</ele>
        <time>2021-08-14T07:20:52.000Z</time>
      </trkpt>
      <trkpt lat="49.81236" lon="4.80166">
        <ele>198</ele>
        <time>2021-08-14T07:20:53.000Z</time>
      </trkpt>
      <trkpt lat="49.81238" lon="4.80159">
        <ele>198</ele>
        <time>2021-08-14T07:20:54.000Z</time>
      </trkpt>
      <trkpt lat="49.81241" lon="4.80154">
        <ele>198</ele>
        <time>2021-08-14T07:20:55.000Z</time>
      </trkpt>
      <trkpt lat="49.81244" lon="4.80147">
        <ele>198</ele>
        <time>2021-08-14T07:20:56.000Z</time>
      </trkpt>
      <trkpt lat="49.81247" lon="4.80141">
        <ele>198</ele>
        <time>2021-08-14T07:20:57.000Z</time>
      </trkpt>
      <trkpt lat="49.8125" lon="4.80134">
        <ele>198</ele>
        <time>2021-08-14T07:20:58.000Z</time>
      </trkpt>
      <trkpt lat="49.81253" lon="4.80128">
        <ele>198</ele>
        <time>2021-08-14T07:20:59.000Z</time>
      </trkpt>
      <trkpt lat="49.81255" lon="4.80122">
        <ele>198</ele>
        <time>2021-08-14T07:21:00.000Z</time>
      </trkpt>
      <trkpt lat="49.81258" lon="4.80116">
        <ele>198</ele>
        <time>2021-08-14T07:21:01.000Z</time>
      </trkpt>
      <trkpt lat="49.81261" lon="4.8011">
        <ele>199</ele>
        <time>2021-08-14T07:21:02.000Z</time>
      </trkpt>
      <trkpt lat="49.81263" lon="4.80103">
        <ele>199</ele>
        <time>2021-08-14T07:21:03.000Z</time>
      </trkpt>
      <trkpt lat="49.81266" lon="4.80097">
        <ele>199</ele>
        <time>2021-08-14T07:21:04.000Z</time>
      </trkpt>
      <trkpt lat="49.81268" lon="4.8009">
        <ele>199</ele>
        <time>2021-08-14T07:21:05.000Z</time>
      </trkpt>
      <trkpt lat="49.81271" lon="4.80084">
        <ele>199</ele>
        <time>2021-08-14T07:21:06.000Z</time>
      </trkpt>
      <trkpt lat="49.81273" lon="4.80077">
        <ele>199</ele>
        <time>2021-08-14T07:21:07.000Z</time>
      </trkpt>
      <trkpt lat="49.81276" lon="4.80071">
        <ele>199</ele>
        <time>2021-08-14T07:21:08.000Z</time>
      </trkpt>
      <trkpt lat="49.81279" lon="4.80064">
        <ele>199</ele>
        <time>2021-08-14T07:21:09.000Z</time>
      </trkpt>
      <trkpt lat="49.81281" lon="4.80057">
        <ele>199</ele>
        <time>2021-08-14T07:21:10.000Z</time>
      </trkpt>
      <trkpt lat="49.81285" lon="4.80051">
        <ele>199</ele>
        <time>2021-08-14T07:21:11.000Z</time>
      </trkpt>
      <trkpt lat="49.81288" lon="4.80044">
        <ele>199</ele>
        <time>2021-08-14T07:21:12.000Z</time>
      </trkpt>
      <trkpt lat="49.81291" lon="4.80039">
        <ele>200</ele>
        <time>2021-08-14T07:21:13.000Z</time>
      </trkpt>
      <trkpt lat="49.81293" lon="4.80032">
        <ele>200</ele>
        <time>2021-08-14T07:21:14.000Z</time>
      </trkpt>
      <trkpt lat="49.81296" lon="4.80026">
        <ele>200</ele>
        <time>2021-08-14T07:21:15.000Z</time>
      </trkpt>
      <trkpt lat="49.81298" lon="4.8002">
        <ele>200</ele>
        <time>2021-08-14T07:21:16.000Z</time>
      </trkpt>
      <trkpt lat="49.813" lon="4.80013">
        <ele>200</ele>
        <time>2021-08-14T07:21:17.000Z</time>
      </trkpt>
      <trkpt lat="49.81302" lon="4.80007">
        <ele>200</ele>
        <time>2021-08-14T07:21:18.000Z</time>
      </trkpt>
      <trkpt lat="49.81304" lon="4.80001">
        <ele>200</ele>
        <time>2021-08-14T07:21:19.000Z</time>
      </trkpt>
      <trkpt lat="49.81306" lon="4.79996">
        <ele>200</ele>
        <time>2021-08-14T07:21:20.000Z</time>
      </trkpt>
      <trkpt lat="49.81309" lon="4.7999">
        <ele>200</ele>
        <time>2021-08-14T07:21:21.000Z</time>
      </trkpt>
      <trkpt lat="49.81312" lon="4.79982">
        <ele>200</ele>
        <time>2021-08-14T07:21:22.000Z</time>
      </trkpt>
      <trkpt lat="49.81316" lon="4.79975">
        <ele>200</ele>
        <time>2021-08-14T07:21:23.000Z</time>
      </trkpt>
      <trkpt lat="49.81319" lon="4.79968">
        <ele>200</ele>
        <time>2021-08-14T07:21:24.000Z</time>
      </trkpt>
      <trkpt lat="49.81323" lon="4.79961">
        <ele>200</ele>
        <time>2021-08-14T07:21:25.000Z</time>
      </trkpt>
      <trkpt lat="49.81326" lon="4.79954">
        <ele>200</ele>
        <time>2021-08-14T07:21:26.000Z</time>
      </trkpt>
      <trkpt lat="49.8133" lon="4.79948">
        <ele>200</ele>
        <time>2021-08-14T07:21:27.000Z</time>
      </trkpt>
      <trkpt lat="49.81332" lon="4.79943">
        <ele>201</ele>
        <time>2021-08-14T07:21:28.000Z</time>
      </trkpt>
      <trkpt lat="49.81335" lon="4.79936">
        <ele>201</ele>
        <time>2021-08-14T07:21:29.000Z</time>
      </trkpt>
      <trkpt lat="49.81339" lon="4.79929">
        <ele>201</ele>
        <time>2021-08-14T07:21:30.000Z</time>
      </trkpt>
      <trkpt lat="49.81342" lon="4.79922">
        <ele>201</ele>
        <time>2021-08-14T07:21:31.000Z</time>
      </trkpt>
      <trkpt lat="49.81345" lon="4.79915">
        <ele>201</ele>
        <time>2021-08-14T07:21:32.000Z</time>
      </trkpt>
      <trkpt lat="49.81347" lon="4.79907">
        <ele>201</ele>
        <time>2021-08-14T07:21:33.000Z</time>
      </trkpt>
      <trkpt lat="49.81349" lon="4.79899">
        <ele>201</ele>
        <time>2021-08-14T07:21:34.000Z</time>
      </trkpt>
      <trkpt lat="49.81351" lon="4.79891">
        <ele>201</ele>
        <time>2021-08-14T07:21:35.000Z</time>
      </trkpt>
      <trkpt lat="49.81354" lon="4.79884">
        <ele>201</ele>
        <time>2021-08-14T07:21:36.000Z</time>
      </trkpt>
      <trkpt lat="49.81357" lon="4.79878">
        <ele>201</ele>
        <time>2021-08-14T07:21:37.000Z</time>
      </trkpt>
      <trkpt lat="49.81359" lon="4.79872">
        <ele>201</ele>
        <time>2021-08-14T07:21:38.000Z</time>
      </trkpt>
      <trkpt lat="49.81362" lon="4.79865">
        <ele>201</ele>
        <time>2021-08-14T07:21:39.000Z</time>
      </trkpt>
      <trkpt lat="49.81364" lon="4.79857">
        <ele>201</ele>
        <time>2021-08-14T07:21:40.000Z</time>
      </trkpt>
      <trkpt lat="49.81366" lon="4.7985">
        <ele>201</ele>
        <time>2021-08-14T07:21:41.000Z</time>
      </trkpt>
      <trkpt lat="49.81369" lon="4.79842">
        <ele>201</ele>
        <time>2021-08-14T07:21:42.000Z</time>
      </trkpt>
      <trkpt lat="49.81371" lon="4.79834">
        <ele>201</ele>
        <time>2021-08-14T07:21:43.000Z</time>
      </trkpt>
      <trkpt lat="49.81374" lon="4.79827">
        <ele>201</ele>
        <time>2021-08-14T07:21:44.000Z</time>
      </trkpt>
      <trkpt lat="49.81376" lon="4.79819">
        <ele>201</ele>
        <time>2021-08-14T07:21:45.000Z</time>
      </trkpt>
      <trkpt lat="49.81379" lon="4.79813">
        <ele>201</ele>
        <time>2021-08-14T07:21:46.000Z</time>
      </trkpt>
      <trkpt lat="49.81381" lon="4.79806">
        <ele>201</ele>
        <time>2021-08-14T07:21:47.000Z</time>
      </trkpt>
      <trkpt lat="49.81383" lon="4.79799">
        <ele>201</ele>
        <time>2021-08-14T07:21:48.000Z</time>
      </trkpt>
      <trkpt lat="49.81384" lon="4.79792">
        <ele>201</ele>
        <time>2021-08-14T07:21:49.000Z</time>
      </trkpt>
      <trkpt lat="49.81387" lon="4.79785">
        <ele>201</ele>
        <time>2021-08-14T07:21:50.000Z</time>
      </trkpt>
      <trkpt lat="49.81389" lon="4.79777">
        <ele>201</ele>
        <time>2021-08-14T07:21:51.000Z</time>
      </trkpt>
      <trkpt lat="49.81391" lon="4.79769">
        <ele>201</ele>
        <time>2021-08-14T07:21:52.000Z</time>
      </trkpt>
      <trkpt lat="49.81394" lon="4.79762">
        <ele>201</ele>
        <time>2021-08-14T07:21:53.000Z</time>
      </trkpt>
      <trkpt lat="49.81396" lon="4.79755">
        <ele>201</ele>
        <time>2021-08-14T07:21:54.000Z</time>
      </trkpt>
      <trkpt lat="49.81399" lon="4.79747">
        <ele>201</ele>
        <time>2021-08-14T07:21:55.000Z</time>
      </trkpt>
      <trkpt lat="49.81401" lon="4.7974">
        <ele>201</ele>
        <time>2021-08-14T07:21:56.000Z</time>
      </trkpt>
      <trkpt lat="49.81403" lon="4.79732">
        <ele>201</ele>
        <time>2021-08-14T07:21:57.000Z</time>
      </trkpt>
      <trkpt lat="49.81405" lon="4.79725">
        <ele>201</ele>
        <time>2021-08-14T07:21:58.000Z</time>
      </trkpt>
      <trkpt lat="49.81407" lon="4.79718">
        <ele>201</ele>
        <time>2021-08-14T07:21:59.000Z</time>
      </trkpt>
      <trkpt lat="49.81409" lon="4.7971">
        <ele>201</ele>
        <time>2021-08-14T07:22:00.000Z</time>
      </trkpt>
      <trkpt lat="49.81411" lon="4.79703">
        <ele>201</ele>
        <time>2021-08-14T07:22:01.000Z</time>
      </trkpt>
      <trkpt lat="49.81412" lon="4.79696">
        <ele>201</ele>
        <time>2021-08-14T07:22:02.000Z</time>
      </trkpt>
      <trkpt lat="49.81414" lon="4.7969">
        <ele>201</ele>
        <time>2021-08-14T07:22:03.000Z</time>
      </trkpt>
      <trkpt lat="49.81415" lon="4.79685">
        <ele>201</ele>
        <time>2021-08-14T07:22:04.000Z</time>
      </trkpt>
      <trkpt lat="49.81416" lon="4.79679">
        <ele>201</ele>
        <time>2021-08-14T07:22:05.000Z</time>
      </trkpt>
      <trkpt lat="49.81417" lon="4.79673">
        <ele>200</ele>
        <time>2021-08-14T07:22:06.000Z</time>
      </trkpt>
      <trkpt lat="49.81418" lon="4.79667">
        <ele>200</ele>
        <time>2021-08-14T07:22:07.000Z</time>
      </trkpt>
      <trkpt lat="49.8142" lon="4.7966">
        <ele>200</ele>
        <time>2021-08-14T07:22:08.000Z</time>
      </trkpt>
      <trkpt lat="49.81421" lon="4.79653">
        <ele>200</ele>
        <time>2021-08-14T07:22:09.000Z</time>
      </trkpt>
      <trkpt lat="49.81423" lon="4.79647">
        <ele>200</ele>
        <time>2021-08-14T07:22:10.000Z</time>
      </trkpt>
      <trkpt lat="49.81424" lon="4.79639">
        <ele>200</ele>
        <time>2021-08-14T07:22:11.000Z</time>
      </trkpt>
      <trkpt lat="49.81425" lon="4.79632">
        <ele>200</ele>
        <time>2021-08-14T07:22:12.000Z</time>
      </trkpt>
      <trkpt lat="49.81426" lon="4.79625">
        <ele>200</ele>
        <time>2021-08-14T07:22:13.000Z</time>
      </trkpt>
      <trkpt lat="49.81427" lon="4.79619">
        <ele>200</ele>
        <time>2021-08-14T07:22:14.000Z</time>
      </trkpt>
      <trkpt lat="49.81429" lon="4.79613">
        <ele>200</ele>
        <time>2021-08-14T07:22:15.000Z</time>
      </trkpt>
      <trkpt lat="49.81429" lon="4.79606">
        <ele>199</ele>
        <time>2021-08-14T07:22:16.000Z</time>
      </trkpt>
      <trkpt lat="49.81431" lon="4.796">
        <ele>199</ele>
        <time>2021-08-14T07:22:17.000Z</time>
      </trkpt>
      <trkpt lat="49.81432" lon="4.79592">
        <ele>199</ele>
        <time>2021-08-14T07:22:18.000Z</time>
      </trkpt>
      <trkpt lat="49.81434" lon="4.79583">
        <ele>198</ele>
        <time>2021-08-14T07:22:19.000Z</time>
      </trkpt>
      <trkpt lat="49.81435" lon="4.79574">
        <ele>198</ele>
        <time>2021-08-14T07:22:20.000Z</time>
      </trkpt>
      <trkpt lat="49.81437" lon="4.79565">
        <ele>198</ele>
        <time>2021-08-14T07:22:21.000Z</time>
      </trkpt>
      <trkpt lat="49.81438" lon="4.79556">
        <ele>198</ele>
        <time>2021-08-14T07:22:22.000Z</time>
      </trkpt>
      <trkpt lat="49.81439" lon="4.79547">
        <ele>198</ele>
        <time>2021-08-14T07:22:23.000Z</time>
      </trkpt>
      <trkpt lat="49.8144" lon="4.79537">
        <ele>197</ele>
        <time>2021-08-14T07:22:24.000Z</time>
      </trkpt>
      <trkpt lat="49.81441" lon="4.79528">
        <ele>197</ele>
        <time>2021-08-14T07:22:25.000Z</time>
      </trkpt>
      <trkpt lat="49.81441" lon="4.79518">
        <ele>197</ele>
        <time>2021-08-14T07:22:26.000Z</time>
      </trkpt>
      <trkpt lat="49.81442" lon="4.7951">
        <ele>197</ele>
        <time>2021-08-14T07:22:27.000Z</time>
      </trkpt>
      <trkpt lat="49.81442" lon="4.79502">
        <ele>197</ele>
        <time>2021-08-14T07:22:28.000Z</time>
      </trkpt>
      <trkpt lat="49.81442" lon="4.79494">
        <ele>197</ele>
        <time>2021-08-14T07:22:29.000Z</time>
      </trkpt>
      <trkpt lat="49.81442" lon="4.79487">
        <ele>197</ele>
        <time>2021-08-14T07:22:30.000Z</time>
      </trkpt>
      <trkpt lat="49.81442" lon="4.79481">
        <ele>197</ele>
        <time>2021-08-14T07:22:31.000Z</time>
      </trkpt>
      <trkpt lat="49.81443" lon="4.79474">
        <ele>198</ele>
        <time>2021-08-14T07:22:32.000Z</time>
      </trkpt>
      <trkpt lat="49.81443" lon="4.79467">
        <ele>198</ele>
        <time>2021-08-14T07:22:33.000Z</time>
      </trkpt>
      <trkpt lat="49.81444" lon="4.7946">
        <ele>198</ele>
        <time>2021-08-14T07:22:34.000Z</time>
      </trkpt>
      <trkpt lat="49.81444" lon="4.79453">
        <ele>198</ele>
        <time>2021-08-14T07:22:35.000Z</time>
      </trkpt>
      <trkpt lat="49.81444" lon="4.79446">
        <ele>198</ele>
        <time>2021-08-14T07:22:36.000Z</time>
      </trkpt>
      <trkpt lat="49.81445" lon="4.79438">
        <ele>197</ele>
        <time>2021-08-14T07:22:37.000Z</time>
      </trkpt>
      <trkpt lat="49.81445" lon="4.79431">
        <ele>197</ele>
        <time>2021-08-14T07:22:38.000Z</time>
      </trkpt>
      <trkpt lat="49.81445" lon="4.79423">
        <ele>197</ele>
        <time>2021-08-14T07:22:39.000Z</time>
      </trkpt>
      <trkpt lat="49.81446" lon="4.79415">
        <ele>197</ele>
        <time>2021-08-14T07:22:40.000Z</time>
      </trkpt>
      <trkpt lat="49.81447" lon="4.79407">
        <ele>197</ele>
        <time>2021-08-14T07:22:41.000Z</time>
      </trkpt>
      <trkpt lat="49.81449" lon="4.79401">
        <ele>197</ele>
        <time>2021-08-14T07:22:42.000Z</time>
      </trkpt>
      <trkpt lat="49.81451" lon="4.79395">
        <ele>197</ele>
        <time>2021-08-14T07:22:43.000Z</time>
      </trkpt>
      <trkpt lat="49.81454" lon="4.79391">
        <ele>197</ele>
        <time>2021-08-14T07:22:44.000Z</time>
      </trkpt>
      <trkpt lat="49.81455" lon="4.79385">
        <ele>197</ele>
        <time>2021-08-14T07:22:45.000Z</time>
      </trkpt>
      <trkpt lat="49.81455" lon="4.79379">
        <ele>197</ele>
        <time>2021-08-14T07:22:46.000Z</time>
      </trkpt>
      <trkpt lat="49.81455" lon="4.79372">
        <ele>197</ele>
        <time>2021-08-14T07:22:47.000Z</time>
      </trkpt>
      <trkpt lat="49.81455" lon="4.79366">
        <ele>198</ele>
        <time>2021-08-14T07:22:48.000Z</time>
      </trkpt>
      <trkpt lat="49.81455" lon="4.79359">
        <ele>198</ele>
        <time>2021-08-14T07:22:49.000Z</time>
      </trkpt>
      <trkpt lat="49.81456" lon="4.79352">
        <ele>198</ele>
        <time>2021-08-14T07:22:50.000Z</time>
      </trkpt>
      <trkpt lat="49.81456" lon="4.79346">
        <ele>198</ele>
        <time>2021-08-14T07:22:51.000Z</time>
      </trkpt>
      <trkpt lat="49.81457" lon="4.7934">
        <ele>198</ele>
        <time>2021-08-14T07:22:52.000Z</time>
      </trkpt>
      <trkpt lat="49.81458" lon="4.79334">
        <ele>198</ele>
        <time>2021-08-14T07:22:53.000Z</time>
      </trkpt>
      <trkpt lat="49.81458" lon="4.79328">
        <ele>198</ele>
        <time>2021-08-14T07:22:54.000Z</time>
      </trkpt>
      <trkpt lat="49.81458" lon="4.79322">
        <ele>198</ele>
        <time>2021-08-14T07:22:55.000Z</time>
      </trkpt>
      <trkpt lat="49.81459" lon="4.79316">
        <ele>198</ele>
        <time>2021-08-14T07:22:56.000Z</time>
      </trkpt>
      <trkpt lat="49.8146" lon="4.79309">
        <ele>198</ele>
        <time>2021-08-14T07:22:57.000Z</time>
      </trkpt>
      <trkpt lat="49.81462" lon="4.79302">
        <ele>198</ele>
        <time>2021-08-14T07:22:58.000Z</time>
      </trkpt>
      <trkpt lat="49.81463" lon="4.79296">
        <ele>198</ele>
        <time>2021-08-14T07:22:59.000Z</time>
      </trkpt>
      <trkpt lat="49.81465" lon="4.7929">
        <ele>198</ele>
        <time>2021-08-14T07:23:00.000Z</time>
      </trkpt>
      <trkpt lat="49.81467" lon="4.79284">
        <ele>198</ele>
        <time>2021-08-14T07:23:01.000Z</time>
      </trkpt>
      <trkpt lat="49.81468" lon="4.79277">
        <ele>198</ele>
        <time>2021-08-14T07:23:02.000Z</time>
      </trkpt>
      <trkpt lat="49.81469" lon="4.7927">
        <ele>198</ele>
        <time>2021-08-14T07:23:03.000Z</time>
      </trkpt>
      <trkpt lat="49.8147" lon="4.79263">
        <ele>197</ele>
        <time>2021-08-14T07:23:04.000Z</time>
      </trkpt>
      <trkpt lat="49.81471" lon="4.79255">
        <ele>197</ele>
        <time>2021-08-14T07:23:05.000Z</time>
      </trkpt>
      <trkpt lat="49.81472" lon="4.79247">
        <ele>197</ele>
        <time>2021-08-14T07:23:06.000Z</time>
      </trkpt>
      <trkpt lat="49.81473" lon="4.79239">
        <ele>197</ele>
        <time>2021-08-14T07:23:07.000Z</time>
      </trkpt>
      <trkpt lat="49.81475" lon="4.79232">
        <ele>197</ele>
        <time>2021-08-14T07:23:08.000Z</time>
      </trkpt>
      <trkpt lat="49.81475" lon="4.79225">
        <ele>197</ele>
        <time>2021-08-14T07:23:09.000Z</time>
      </trkpt>
      <trkpt lat="49.81477" lon="4.79218">
        <ele>197</ele>
        <time>2021-08-14T07:23:10.000Z</time>
      </trkpt>
      <trkpt lat="49.81477" lon="4.79211">
        <ele>197</ele>
        <time>2021-08-14T07:23:11.000Z</time>
      </trkpt>
      <trkpt lat="49.81477" lon="4.79203">
        <ele>197</ele>
        <time>2021-08-14T07:23:12.000Z</time>
      </trkpt>
      <trkpt lat="49.81477" lon="4.79195">
        <ele>197</ele>
        <time>2021-08-14T07:23:13.000Z</time>
      </trkpt>
      <trkpt lat="49.81476" lon="4.79186">
        <ele>197</ele>
        <time>2021-08-14T07:23:14.000Z</time>
      </trkpt>
      <trkpt lat="49.81475" lon="4.79176">
        <ele>197</ele>
        <time>2021-08-14T07:23:15.000Z</time>
      </trkpt>
      <trkpt lat="49.81475" lon="4.79166">
        <ele>197</ele>
        <time>2021-08-14T07:23:16.000Z</time>
      </trkpt>
      <trkpt lat="49.81475" lon="4.79156">
        <ele>197</ele>
        <time>2021-08-14T07:23:17.000Z</time>
      </trkpt>
      <trkpt lat="49.81476" lon="4.79146">
        <ele>197</ele>
        <time>2021-08-14T07:23:18.000Z</time>
      </trkpt>
      <trkpt lat="49.81476" lon="4.79135">
        <ele>197</ele>
        <time>2021-08-14T07:23:19.000Z</time>
      </trkpt>
      <trkpt lat="49.81476" lon="4.79125">
        <ele>196</ele>
        <time>2021-08-14T07:23:20.000Z</time>
      </trkpt>
      <trkpt lat="49.81477" lon="4.79116">
        <ele>196</ele>
        <time>2021-08-14T07:23:21.000Z</time>
      </trkpt>
      <trkpt lat="49.81479" lon="4.79106">
        <ele>196</ele>
        <time>2021-08-14T07:23:22.000Z</time>
      </trkpt>
      <trkpt lat="49.8148" lon="4.79097">
        <ele>196</ele>
        <time>2021-08-14T07:23:23.000Z</time>
      </trkpt>
      <trkpt lat="49.81482" lon="4.79089">
        <ele>196</ele>
        <time>2021-08-14T07:23:24.000Z</time>
      </trkpt>
      <trkpt lat="49.81484" lon="4.79081">
        <ele>196</ele>
        <time>2021-08-14T07:23:25.000Z</time>
      </trkpt>
      <trkpt lat="49.81486" lon="4.79073">
        <ele>195</ele>
        <time>2021-08-14T07:23:26.000Z</time>
      </trkpt>
      <trkpt lat="49.81488" lon="4.79066">
        <ele>195</ele>
        <time>2021-08-14T07:23:27.000Z</time>
      </trkpt>
      <trkpt lat="49.81489" lon="4.79059">
        <ele>195</ele>
        <time>2021-08-14T07:23:28.000Z</time>
      </trkpt>
      <trkpt lat="49.81491" lon="4.79053">
        <ele>195</ele>
        <time>2021-08-14T07:23:29.000Z</time>
      </trkpt>
      <trkpt lat="49.81493" lon="4.79046">
        <ele>194</ele>
        <time>2021-08-14T07:23:30.000Z</time>
      </trkpt>
      <trkpt lat="49.81495" lon="4.7904">
        <ele>194</ele>
        <time>2021-08-14T07:23:31.000Z</time>
      </trkpt>
      <trkpt lat="49.81496" lon="4.79032">
        <ele>194</ele>
        <time>2021-08-14T07:23:32.000Z</time>
      </trkpt>
      <trkpt lat="49.81497" lon="4.79024">
        <ele>194</ele>
        <time>2021-08-14T07:23:33.000Z</time>
      </trkpt>
      <trkpt lat="49.81498" lon="4.79016">
        <ele>193</ele>
        <time>2021-08-14T07:23:34.000Z</time>
      </trkpt>
      <trkpt lat="49.815" lon="4.79008">
        <ele>193</ele>
        <time>2021-08-14T07:23:35.000Z</time>
      </trkpt>
      <trkpt lat="49.81502" lon="4.79">
        <ele>193</ele>
        <time>2021-08-14T07:23:36.000Z</time>
      </trkpt>
      <trkpt lat="49.81504" lon="4.78993">
        <ele>193</ele>
        <time>2021-08-14T07:23:37.000Z</time>
      </trkpt>
      <trkpt lat="49.81505" lon="4.78986">
        <ele>193</ele>
        <time>2021-08-14T07:23:38.000Z</time>
      </trkpt>
      <trkpt lat="49.81505" lon="4.78977">
        <ele>193</ele>
        <time>2021-08-14T07:23:39.000Z</time>
      </trkpt>
      <trkpt lat="49.81506" lon="4.78969">
        <ele>192</ele>
        <time>2021-08-14T07:23:40.000Z</time>
      </trkpt>
      <trkpt lat="49.81507" lon="4.78962">
        <ele>192</ele>
        <time>2021-08-14T07:23:41.000Z</time>
      </trkpt>
      <trkpt lat="49.81508" lon="4.78955">
        <ele>192</ele>
        <time>2021-08-14T07:23:42.000Z</time>
      </trkpt>
      <trkpt lat="49.81508" lon="4.78948">
        <ele>192</ele>
        <time>2021-08-14T07:23:43.000Z</time>
      </trkpt>
      <trkpt lat="49.81509" lon="4.7894">
        <ele>192</ele>
        <time>2021-08-14T07:23:44.000Z</time>
      </trkpt>
      <trkpt lat="49.8151" lon="4.78933">
        <ele>191</ele>
        <time>2021-08-14T07:23:45.000Z</time>
      </trkpt>
      <trkpt lat="49.8151" lon="4.78926">
        <ele>191</ele>
        <time>2021-08-14T07:23:46.000Z</time>
      </trkpt>
      <trkpt lat="49.8151" lon="4.78918">
        <ele>191</ele>
        <time>2021-08-14T07:23:47.000Z</time>
      </trkpt>
      <trkpt lat="49.81511" lon="4.78912">
        <ele>191</ele>
        <time>2021-08-14T07:23:48.000Z</time>
      </trkpt>
      <trkpt lat="49.81512" lon="4.78906">
        <ele>191</ele>
        <time>2021-08-14T07:23:49.000Z</time>
      </trkpt>
      <trkpt lat="49.81514" lon="4.789">
        <ele>191</ele>
        <time>2021-08-14T07:23:50.000Z</time>
      </trkpt>
      <trkpt lat="49.81515" lon="4.78893">
        <ele>191</ele>
        <time>2021-08-14T07:23:51.000Z</time>
      </trkpt>
      <trkpt lat="49.81518" lon="4.78887">
        <ele>191</ele>
        <time>2021-08-14T07:23:52.000Z</time>
      </trkpt>
      <trkpt lat="49.8152" lon="4.78879">
        <ele>191</ele>
        <time>2021-08-14T07:23:53.000Z</time>
      </trkpt>
      <trkpt lat="49.81522" lon="4.78871">
        <ele>191</ele>
        <time>2021-08-14T07:23:54.000Z</time>
      </trkpt>
      <trkpt lat="49.81524" lon="4.78864">
        <ele>191</ele>
        <time>2021-08-14T07:23:55.000Z</time>
      </trkpt>
      <trkpt lat="49.81525" lon="4.78856">
        <ele>191</ele>
        <time>2021-08-14T07:23:56.000Z</time>
      </trkpt>
      <trkpt lat="49.81527" lon="4.78849">
        <ele>191</ele>
        <time>2021-08-14T07:23:57.000Z</time>
      </trkpt>
      <trkpt lat="49.81528" lon="4.78842">
        <ele>191</ele>
        <time>2021-08-14T07:23:58.000Z</time>
      </trkpt>
      <trkpt lat="49.81529" lon="4.78834">
        <ele>190</ele>
        <time>2021-08-14T07:23:59.000Z</time>
      </trkpt>
      <trkpt lat="49.81531" lon="4.78828">
        <ele>190</ele>
        <time>2021-08-14T07:24:00.000Z</time>
      </trkpt>
      <trkpt lat="49.81534" lon="4.78821">
        <ele>190</ele>
        <time>2021-08-14T07:24:01.000Z</time>
      </trkpt>
      <trkpt lat="49.81535" lon="4.78815">
        <ele>190</ele>
        <time>2021-08-14T07:24:02.000Z</time>
      </trkpt>
      <trkpt lat="49.81537" lon="4.78808">
        <ele>190</ele>
        <time>2021-08-14T07:24:03.000Z</time>
      </trkpt>
      <trkpt lat="49.8154" lon="4.78801">
        <ele>190</ele>
        <time>2021-08-14T07:24:04.000Z</time>
      </trkpt>
      <trkpt lat="49.81542" lon="4.78793">
        <ele>190</ele>
        <time>2021-08-14T07:24:05.000Z</time>
      </trkpt>
      <trkpt lat="49.81544" lon="4.78786">
        <ele>190</ele>
        <time>2021-08-14T07:24:06.000Z</time>
      </trkpt>
      <trkpt lat="49.81547" lon="4.78779">
        <ele>190</ele>
        <time>2021-08-14T07:24:07.000Z</time>
      </trkpt>
      <trkpt lat="49.81549" lon="4.78773">
        <ele>190</ele>
        <time>2021-08-14T07:24:08.000Z</time>
      </trkpt>
      <trkpt lat="49.81552" lon="4.78766">
        <ele>190</ele>
        <time>2021-08-14T07:24:09.000Z</time>
      </trkpt>
      <trkpt lat="49.81554" lon="4.78758">
        <ele>190</ele>
        <time>2021-08-14T07:24:10.000Z</time>
      </trkpt>
      <trkpt lat="49.81557" lon="4.7875">
        <ele>190</ele>
        <time>2021-08-14T07:24:11.000Z</time>
      </trkpt>
      <trkpt lat="49.81559" lon="4.78743">
        <ele>191</ele>
        <time>2021-08-14T07:24:12.000Z</time>
      </trkpt>
      <trkpt lat="49.81561" lon="4.78737">
        <ele>191</ele>
        <time>2021-08-14T07:24:13.000Z</time>
      </trkpt>
      <trkpt lat="49.81563" lon="4.78734">
        <ele>191</ele>
        <time>2021-08-14T07:24:14.000Z</time>
      </trkpt>
      <trkpt lat="49.81565" lon="4.78731">
        <ele>191</ele>
        <time>2021-08-14T07:24:15.000Z</time>
      </trkpt>
      <trkpt lat="49.81566" lon="4.78729">
        <ele>191</ele>
        <time>2021-08-14T07:24:16.000Z</time>
      </trkpt>
      <trkpt lat="49.81567" lon="4.78726">
        <ele>191</ele>
        <time>2021-08-14T07:24:17.000Z</time>
      </trkpt>
      <trkpt lat="49.81569" lon="4.78723">
        <ele>191</ele>
        <time>2021-08-14T07:24:18.000Z</time>
      </trkpt>
      <trkpt lat="49.81571" lon="4.7872">
        <ele>191</ele>
        <time>2021-08-14T07:24:19.000Z</time>
      </trkpt>
      <trkpt lat="49.81573" lon="4.78716">
        <ele>191</ele>
        <time>2021-08-14T07:24:20.000Z</time>
      </trkpt>
      <trkpt lat="49.81574" lon="4.78712">
        <ele>192</ele>
        <time>2021-08-14T07:24:21.000Z</time>
      </trkpt>
      <trkpt lat="49.81576" lon="4.78708">
        <ele>192</ele>
        <time>2021-08-14T07:24:22.000Z</time>
      </trkpt>
      <trkpt lat="49.81578" lon="4.78704">
        <ele>192</ele>
        <time>2021-08-14T07:24:23.000Z</time>
      </trkpt>
      <trkpt lat="49.8158" lon="4.787">
        <ele>192</ele>
        <time>2021-08-14T07:24:24.000Z</time>
      </trkpt>
      <trkpt lat="49.81582" lon="4.78696">
        <ele>192</ele>
        <time>2021-08-14T07:24:25.000Z</time>
      </trkpt>
      <trkpt lat="49.81583" lon="4.78693">
        <ele>192</ele>
        <time>2021-08-14T07:24:26.000Z</time>
      </trkpt>
      <trkpt lat="49.81585" lon="4.78689">
        <ele>192</ele>
        <time>2021-08-14T07:24:27.000Z</time>
      </trkpt>
      <trkpt lat="49.81587" lon="4.78685">
        <ele>192</ele>
        <time>2021-08-14T07:24:28.000Z</time>
      </trkpt>
      <trkpt lat="49.81588" lon="4.78681">
        <ele>192</ele>
        <time>2021-08-14T07:24:29.000Z</time>
      </trkpt>
      <trkpt lat="49.8159" lon="4.78678">
        <ele>192</ele>
        <time>2021-08-14T07:24:30.000Z</time>
      </trkpt>
      <trkpt lat="49.81592" lon="4.78675">
        <ele>192</ele>
        <time>2021-08-14T07:24:31.000Z</time>
      </trkpt>
      <trkpt lat="49.81594" lon="4.78675">
        <ele>192</ele>
        <time>2021-08-14T07:24:32.000Z</time>
      </trkpt>
      <trkpt lat="49.81596" lon="4.78674">
        <ele>192</ele>
        <time>2021-08-14T07:24:33.000Z</time>
      </trkpt>
      <trkpt lat="49.81599" lon="4.78673">
        <ele>191</ele>
        <time>2021-08-14T07:24:34.000Z</time>
      </trkpt>
      <trkpt lat="49.81603" lon="4.78673">
        <ele>191</ele>
        <time>2021-08-14T07:24:35.000Z</time>
      </trkpt>
      <trkpt lat="49.81607" lon="4.78674">
        <ele>191</ele>
        <time>2021-08-14T07:24:36.000Z</time>
      </trkpt>
      <trkpt lat="49.8161" lon="4.78676">
        <ele>191</ele>
        <time>2021-08-14T07:24:37.000Z</time>
      </trkpt>
      <trkpt lat="49.81614" lon="4.78678">
        <ele>191</ele>
        <time>2021-08-14T07:24:38.000Z</time>
      </trkpt>
      <trkpt lat="49.81617" lon="4.7868">
        <ele>191</ele>
        <time>2021-08-14T07:24:39.000Z</time>
      </trkpt>
      <trkpt lat="49.8162" lon="4.78682">
        <ele>191</ele>
        <time>2021-08-14T07:24:40.000Z</time>
      </trkpt>
      <trkpt lat="49.81622" lon="4.78684">
        <ele>191</ele>
        <time>2021-08-14T07:24:41.000Z</time>
      </trkpt>
      <trkpt lat="49.81625" lon="4.78685">
        <ele>191</ele>
        <time>2021-08-14T07:24:42.000Z</time>
      </trkpt>
      <trkpt lat="49.81628" lon="4.78685">
        <ele>191</ele>
        <time>2021-08-14T07:24:43.000Z</time>
      </trkpt>
      <trkpt lat="49.81632" lon="4.78685">
        <ele>192</ele>
        <time>2021-08-14T07:24:44.000Z</time>
      </trkpt>
      <trkpt lat="49.81636" lon="4.78687">
        <ele>192</ele>
        <time>2021-08-14T07:24:45.000Z</time>
      </trkpt>
      <trkpt lat="49.81638" lon="4.78688">
        <ele>192</ele>
        <time>2021-08-14T07:24:46.000Z</time>
      </trkpt>
      <trkpt lat="49.81641" lon="4.7869">
        <ele>192</ele>
        <time>2021-08-14T07:24:47.000Z</time>
      </trkpt>
      <trkpt lat="49.81644" lon="4.78691">
        <ele>192</ele>
        <time>2021-08-14T07:24:48.000Z</time>
      </trkpt>
      <trkpt lat="49.81648" lon="4.78692">
        <ele>192</ele>
        <time>2021-08-14T07:24:49.000Z</time>
      </trkpt>
      <trkpt lat="49.81651" lon="4.78693">
        <ele>192</ele>
        <time>2021-08-14T07:24:50.000Z</time>
      </trkpt>
      <trkpt lat="49.81655" lon="4.78695">
        <ele>192</ele>
        <time>2021-08-14T07:24:51.000Z</time>
      </trkpt>
      <trkpt lat="49.81658" lon="4.78696">
        <ele>192</ele>
        <time>2021-08-14T07:24:52.000Z</time>
      </trkpt>
      <trkpt lat="49.81663" lon="4.78697">
        <ele>192</ele>
        <time>2021-08-14T07:24:53.000Z</time>
      </trkpt>
      <trkpt lat="49.81666" lon="4.787">
        <ele>192</ele>
        <time>2021-08-14T07:24:54.000Z</time>
      </trkpt>
      <trkpt lat="49.8167" lon="4.78702">
        <ele>192</ele>
        <time>2021-08-14T07:24:55.000Z</time>
      </trkpt>
      <trkpt lat="49.81673" lon="4.78703">
        <ele>192</ele>
        <time>2021-08-14T07:24:56.000Z</time>
      </trkpt>
      <trkpt lat="49.81677" lon="4.78704">
        <ele>192</ele>
        <time>2021-08-14T07:24:57.000Z</time>
      </trkpt>
      <trkpt lat="49.8168" lon="4.78706">
        <ele>192</ele>
        <time>2021-08-14T07:24:58.000Z</time>
      </trkpt>
      <trkpt lat="49.81683" lon="4.78708">
        <ele>192</ele>
        <time>2021-08-14T07:24:59.000Z</time>
      </trkpt>
      <trkpt lat="49.81686" lon="4.7871">
        <ele>192</ele>
        <time>2021-08-14T07:25:00.000Z</time>
      </trkpt>
      <trkpt lat="49.8169" lon="4.78711">
        <ele>192</ele>
        <time>2021-08-14T07:25:01.000Z</time>
      </trkpt>
      <trkpt lat="49.81693" lon="4.78713">
        <ele>192</ele>
        <time>2021-08-14T07:25:02.000Z</time>
      </trkpt>
      <trkpt lat="49.81696" lon="4.78716">
        <ele>192</ele>
        <time>2021-08-14T07:25:03.000Z</time>
      </trkpt>
      <trkpt lat="49.81699" lon="4.78718">
        <ele>192</ele>
        <time>2021-08-14T07:25:04.000Z</time>
      </trkpt>
      <trkpt lat="49.81703" lon="4.7872">
        <ele>192</ele>
        <time>2021-08-14T07:25:05.000Z</time>
      </trkpt>
      <trkpt lat="49.81707" lon="4.78722">
        <ele>192</ele>
        <time>2021-08-14T07:25:06.000Z</time>
      </trkpt>
      <trkpt lat="49.8171" lon="4.78724">
        <ele>192</ele>
        <time>2021-08-14T07:25:07.000Z</time>
      </trkpt>
      <trkpt lat="49.81713" lon="4.78727">
        <ele>192</ele>
        <time>2021-08-14T07:25:08.000Z</time>
      </trkpt>
      <trkpt lat="49.81716" lon="4.7873">
        <ele>192</ele>
        <time>2021-08-14T07:25:09.000Z</time>
      </trkpt>
      <trkpt lat="49.81719" lon="4.78734">
        <ele>192</ele>
        <time>2021-08-14T07:25:10.000Z</time>
      </trkpt>
      <trkpt lat="49.81722" lon="4.78736">
        <ele>192</ele>
        <time>2021-08-14T07:25:11.000Z</time>
      </trkpt>
      <trkpt lat="49.81726" lon="4.78738">
        <ele>192</ele>
        <time>2021-08-14T07:25:12.000Z</time>
      </trkpt>
      <trkpt lat="49.81729" lon="4.78741">
        <ele>192</ele>
        <time>2021-08-14T07:25:13.000Z</time>
      </trkpt>
      <trkpt lat="49.81733" lon="4.78743">
        <ele>192</ele>
        <time>2021-08-14T07:25:14.000Z</time>
      </trkpt>
      <trkpt lat="49.81736" lon="4.78747">
        <ele>192</ele>
        <time>2021-08-14T07:25:15.000Z</time>
      </trkpt>
      <trkpt lat="49.8174" lon="4.7875">
        <ele>192</ele>
        <time>2021-08-14T07:25:16.000Z</time>
      </trkpt>
      <trkpt lat="49.81743" lon="4.78753">
        <ele>192</ele>
        <time>2021-08-14T07:25:17.000Z</time>
      </trkpt>
      <trkpt lat="49.81746" lon="4.78757">
        <ele>193</ele>
        <time>2021-08-14T07:25:18.000Z</time>
      </trkpt>
      <trkpt lat="49.81749" lon="4.7876">
        <ele>193</ele>
        <time>2021-08-14T07:25:19.000Z</time>
      </trkpt>
      <trkpt lat="49.81753" lon="4.78763">
        <ele>193</ele>
        <time>2021-08-14T07:25:20.000Z</time>
      </trkpt>
      <trkpt lat="49.81757" lon="4.78766">
        <ele>193</ele>
        <time>2021-08-14T07:25:21.000Z</time>
      </trkpt>
      <trkpt lat="49.8176" lon="4.78767">
        <ele>193</ele>
        <time>2021-08-14T07:25:22.000Z</time>
      </trkpt>
      <trkpt lat="49.81764" lon="4.78768">
        <ele>193</ele>
        <time>2021-08-14T07:25:23.000Z</time>
      </trkpt>
      <trkpt lat="49.81767" lon="4.78767">
        <ele>193</ele>
        <time>2021-08-14T07:25:24.000Z</time>
      </trkpt>
      <trkpt lat="49.81771" lon="4.78765">
        <ele>193</ele>
        <time>2021-08-14T07:25:25.000Z</time>
      </trkpt>
      <trkpt lat="49.81773" lon="4.78762">
        <ele>193</ele>
        <time>2021-08-14T07:25:26.000Z</time>
      </trkpt>
      <trkpt lat="49.81774" lon="4.78759">
        <ele>193</ele>
        <time>2021-08-14T07:25:27.000Z</time>
      </trkpt>
      <trkpt lat="49.81774" lon="4.78755">
        <ele>193</ele>
        <time>2021-08-14T07:25:28.000Z</time>
      </trkpt>
      <trkpt lat="49.81771" lon="4.78751">
        <ele>193</ele>
        <time>2021-08-14T07:25:29.000Z</time>
      </trkpt>
      <trkpt lat="49.81767" lon="4.78748">
        <ele>193</ele>
        <time>2021-08-14T07:25:30.000Z</time>
      </trkpt>
      <trkpt lat="49.81763" lon="4.78744">
        <ele>193</ele>
        <time>2021-08-14T07:25:31.000Z</time>
      </trkpt>
      <trkpt lat="49.81759" lon="4.7874">
        <ele>193</ele>
        <time>2021-08-14T07:25:32.000Z</time>
      </trkpt>
      <trkpt lat="49.81755" lon="4.78735">
        <ele>192</ele>
        <time>2021-08-14T07:25:33.000Z</time>
      </trkpt>
      <trkpt lat="49.81751" lon="4.7873">
        <ele>192</ele>
        <time>2021-08-14T07:25:34.000Z</time>
      </trkpt>
      <trkpt lat="49.81747" lon="4.78725">
        <ele>192</ele>
        <time>2021-08-14T07:25:35.000Z</time>
      </trkpt>
      <trkpt lat="49.81742" lon="4.7872">
        <ele>192</ele>
        <time>2021-08-14T07:25:36.000Z</time>
      </trkpt>
      <trkpt lat="49.81737" lon="4.78716">
        <ele>192</ele>
        <time>2021-08-14T07:25:37.000Z</time>
      </trkpt>
      <trkpt lat="49.81732" lon="4.78712">
        <ele>191</ele>
        <time>2021-08-14T07:25:38.000Z</time>
      </trkpt>
      <trkpt lat="49.81727" lon="4.78708">
        <ele>191</ele>
        <time>2021-08-14T07:25:39.000Z</time>
      </trkpt>
      <trkpt lat="49.81722" lon="4.78703">
        <ele>191</ele>
        <time>2021-08-14T07:25:40.000Z</time>
      </trkpt>
      <trkpt lat="49.81716" lon="4.78698">
        <ele>191</ele>
        <time>2021-08-14T07:25:41.000Z</time>
      </trkpt>
      <trkpt lat="49.81711" lon="4.78693">
        <ele>190</ele>
        <time>2021-08-14T07:25:42.000Z</time>
      </trkpt>
      <trkpt lat="49.81706" lon="4.78689">
        <ele>190</ele>
        <time>2021-08-14T07:25:43.000Z</time>
      </trkpt>
      <trkpt lat="49.81701" lon="4.78684">
        <ele>190</ele>
        <time>2021-08-14T07:25:44.000Z</time>
      </trkpt>
      <trkpt lat="49.81696" lon="4.7868">
        <ele>189</ele>
        <time>2021-08-14T07:25:45.000Z</time>
      </trkpt>
      <trkpt lat="49.81692" lon="4.78675">
        <ele>189</ele>
        <time>2021-08-14T07:25:46.000Z</time>
      </trkpt>
      <trkpt lat="49.81687" lon="4.7867">
        <ele>189</ele>
        <time>2021-08-14T07:25:47.000Z</time>
      </trkpt>
      <trkpt lat="49.81683" lon="4.78666">
        <ele>188</ele>
        <time>2021-08-14T07:25:48.000Z</time>
      </trkpt>
      <trkpt lat="49.81678" lon="4.78661">
        <ele>188</ele>
        <time>2021-08-14T07:25:49.000Z</time>
      </trkpt>
      <trkpt lat="49.81673" lon="4.78656">
        <ele>187</ele>
        <time>2021-08-14T07:25:50.000Z</time>
      </trkpt>
      <trkpt lat="49.81668" lon="4.78653">
        <ele>187</ele>
        <time>2021-08-14T07:25:51.000Z</time>
      </trkpt>
      <trkpt lat="49.81662" lon="4.7865">
        <ele>186</ele>
        <time>2021-08-14T07:25:52.000Z</time>
      </trkpt>
      <trkpt lat="49.81656" lon="4.78647">
        <ele>186</ele>
        <time>2021-08-14T07:25:53.000Z</time>
      </trkpt>
      <trkpt lat="49.8165" lon="4.78644">
        <ele>185</ele>
        <time>2021-08-14T07:25:54.000Z</time>
      </trkpt>
      <trkpt lat="49.81644" lon="4.78641">
        <ele>185</ele>
        <time>2021-08-14T07:25:55.000Z</time>
      </trkpt>
      <trkpt lat="49.81638" lon="4.78637">
        <ele>184</ele>
        <time>2021-08-14T07:25:56.000Z</time>
      </trkpt>
      <trkpt lat="49.81632" lon="4.78633">
        <ele>184</ele>
        <time>2021-08-14T07:25:57.000Z</time>
      </trkpt>
      <trkpt lat="49.81626" lon="4.7863">
        <ele>184</ele>
        <time>2021-08-14T07:25:58.000Z</time>
      </trkpt>
      <trkpt lat="49.81621" lon="4.78627">
        <ele>183</ele>
        <time>2021-08-14T07:25:59.000Z</time>
      </trkpt>
      <trkpt lat="49.81615" lon="4.78624">
        <ele>183</ele>
        <time>2021-08-14T07:26:00.000Z</time>
      </trkpt>
      <trkpt lat="49.8161" lon="4.78621">
        <ele>183</ele>
        <time>2021-08-14T07:26:01.000Z</time>
      </trkpt>
      <trkpt lat="49.81605" lon="4.78619">
        <ele>183</ele>
        <time>2021-08-14T07:26:02.000Z</time>
      </trkpt>
      <trkpt lat="49.81599" lon="4.78617">
        <ele>183</ele>
        <time>2021-08-14T07:26:03.000Z</time>
      </trkpt>
      <trkpt lat="49.81593" lon="4.78615">
        <ele>182</ele>
        <time>2021-08-14T07:26:04.000Z</time>
      </trkpt>
      <trkpt lat="49.81587" lon="4.78614">
        <ele>182</ele>
        <time>2021-08-14T07:26:05.000Z</time>
      </trkpt>
      <trkpt lat="49.81581" lon="4.78614">
        <ele>182</ele>
        <time>2021-08-14T07:26:06.000Z</time>
      </trkpt>
      <trkpt lat="49.81575" lon="4.78616">
        <ele>182</ele>
        <time>2021-08-14T07:26:07.000Z</time>
      </trkpt>
      <trkpt lat="49.8157" lon="4.7862">
        <ele>181</ele>
        <time>2021-08-14T07:26:08.000Z</time>
      </trkpt>
      <trkpt lat="49.81564" lon="4.78625">
        <ele>181</ele>
        <time>2021-08-14T07:26:09.000Z</time>
      </trkpt>
      <trkpt lat="49.81559" lon="4.78629">
        <ele>181</ele>
        <time>2021-08-14T07:26:10.000Z</time>
      </trkpt>
      <trkpt lat="49.81554" lon="4.78635">
        <ele>181</ele>
        <time>2021-08-14T07:26:11.000Z</time>
      </trkpt>
      <trkpt lat="49.81548" lon="4.7864">
        <ele>181</ele>
        <time>2021-08-14T07:26:12.000Z</time>
      </trkpt>
      <trkpt lat="49.81543" lon="4.78645">
        <ele>180</ele>
        <time>2021-08-14T07:26:13.000Z</time>
      </trkpt>
      <trkpt lat="49.81537" lon="4.7865">
        <ele>180</ele>
        <time>2021-08-14T07:26:14.000Z</time>
      </trkpt>
      <trkpt lat="49.81532" lon="4.78655">
        <ele>180</ele>
        <time>2021-08-14T07:26:15.000Z</time>
      </trkpt>
      <trkpt lat="49.81527" lon="4.78661">
        <ele>180</ele>
        <time>2021-08-14T07:26:16.000Z</time>
      </trkpt>
      <trkpt lat="49.81523" lon="4.78667">
        <ele>180</ele>
        <time>2021-08-14T07:26:17.000Z</time>
      </trkpt>
      <trkpt lat="49.81518" lon="4.78672">
        <ele>180</ele>
        <time>2021-08-14T07:26:18.000Z</time>
      </trkpt>
      <trkpt lat="49.81513" lon="4.78677">
        <ele>179</ele>
        <time>2021-08-14T07:26:19.000Z</time>
      </trkpt>
      <trkpt lat="49.81509" lon="4.78682">
        <ele>179</ele>
        <time>2021-08-14T07:26:20.000Z</time>
      </trkpt>
      <trkpt lat="49.81504" lon="4.78687">
        <ele>179</ele>
        <time>2021-08-14T07:26:21.000Z</time>
      </trkpt>
      <trkpt lat="49.815" lon="4.78691">
        <ele>179</ele>
        <time>2021-08-14T07:26:22.000Z</time>
      </trkpt>
      <trkpt lat="49.81495" lon="4.78693">
        <ele>179</ele>
        <time>2021-08-14T07:26:23.000Z</time>
      </trkpt>
      <trkpt lat="49.81491" lon="4.78693">
        <ele>179</ele>
        <time>2021-08-14T07:26:24.000Z</time>
      </trkpt>
      <trkpt lat="49.81487" lon="4.7869">
        <ele>179</ele>
        <time>2021-08-14T07:26:25.000Z</time>
      </trkpt>
      <trkpt lat="49.81483" lon="4.78684">
        <ele>179</ele>
        <time>2021-08-14T07:26:26.000Z</time>
      </trkpt>
      <trkpt lat="49.8148" lon="4.78676">
        <ele>178</ele>
        <time>2021-08-14T07:26:27.000Z</time>
      </trkpt>
      <trkpt lat="49.81477" lon="4.78666">
        <ele>178</ele>
        <time>2021-08-14T07:26:28.000Z</time>
      </trkpt>
      <trkpt lat="49.81475" lon="4.78656">
        <ele>178</ele>
        <time>2021-08-14T07:26:29.000Z</time>
      </trkpt>
      <trkpt lat="49.81474" lon="4.78645">
        <ele>178</ele>
        <time>2021-08-14T07:26:30.000Z</time>
      </trkpt>
      <trkpt lat="49.81475" lon="4.78634">
        <ele>178</ele>
        <time>2021-08-14T07:26:31.000Z</time>
      </trkpt>
      <trkpt lat="49.81476" lon="4.78623">
        <ele>177</ele>
        <time>2021-08-14T07:26:32.000Z</time>
      </trkpt>
      <trkpt lat="49.81478" lon="4.78612">
        <ele>177</ele>
        <time>2021-08-14T07:26:33.000Z</time>
      </trkpt>
      <trkpt lat="49.8148" lon="4.78602">
        <ele>177</ele>
        <time>2021-08-14T07:26:34.000Z</time>
      </trkpt>
      <trkpt lat="49.81483" lon="4.78592">
        <ele>177</ele>
        <time>2021-08-14T07:26:35.000Z</time>
      </trkpt>
      <trkpt lat="49.81486" lon="4.78583">
        <ele>176</ele>
        <time>2021-08-14T07:26:36.000Z</time>
      </trkpt>
      <trkpt lat="49.81489" lon="4.78574">
        <ele>176</ele>
        <time>2021-08-14T07:26:37.000Z</time>
      </trkpt>
      <trkpt lat="49.81493" lon="4.78566">
        <ele>176</ele>
        <time>2021-08-14T07:26:38.000Z</time>
      </trkpt>
      <trkpt lat="49.81497" lon="4.78557">
        <ele>175</ele>
        <time>2021-08-14T07:26:39.000Z</time>
      </trkpt>
      <trkpt lat="49.81501" lon="4.78549">
        <ele>175</ele>
        <time>2021-08-14T07:26:40.000Z</time>
      </trkpt>
      <trkpt lat="49.81506" lon="4.7854">
        <ele>175</ele>
        <time>2021-08-14T07:26:41.000Z</time>
      </trkpt>
      <trkpt lat="49.8151" lon="4.78531">
        <ele>174</ele>
        <time>2021-08-14T07:26:42.000Z</time>
      </trkpt>
      <trkpt lat="49.81514" lon="4.78522">
        <ele>174</ele>
        <time>2021-08-14T07:26:43.000Z</time>
      </trkpt>
      <trkpt lat="49.81517" lon="4.78513">
        <ele>174</ele>
        <time>2021-08-14T07:26:44.000Z</time>
      </trkpt>
      <trkpt lat="49.8152" lon="4.78504">
        <ele>174</ele>
        <time>2021-08-14T07:26:45.000Z</time>
      </trkpt>
      <trkpt lat="49.81523" lon="4.78496">
        <ele>173</ele>
        <time>2021-08-14T07:26:46.000Z</time>
      </trkpt>
      <trkpt lat="49.81526" lon="4.78488">
        <ele>173</ele>
        <time>2021-08-14T07:26:47.000Z</time>
      </trkpt>
      <trkpt lat="49.81528" lon="4.7848">
        <ele>173</ele>
        <time>2021-08-14T07:26:48.000Z</time>
      </trkpt>
      <trkpt lat="49.8153" lon="4.78473">
        <ele>173</ele>
        <time>2021-08-14T07:26:49.000Z</time>
      </trkpt>
      <trkpt lat="49.81531" lon="4.78465">
        <ele>173</ele>
        <time>2021-08-14T07:26:50.000Z</time>
      </trkpt>
      <trkpt lat="49.81532" lon="4.78457">
        <ele>173</ele>
        <time>2021-08-14T07:26:51.000Z</time>
      </trkpt>
      <trkpt lat="49.81533" lon="4.78449">
        <ele>173</ele>
        <time>2021-08-14T07:26:52.000Z</time>
      </trkpt>
      <trkpt lat="49.81534" lon="4.78442">
        <ele>172</ele>
        <time>2021-08-14T07:26:53.000Z</time>
      </trkpt>
      <trkpt lat="49.81535" lon="4.78435">
        <ele>172</ele>
        <time>2021-08-14T07:26:54.000Z</time>
      </trkpt>
      <trkpt lat="49.81535" lon="4.78427">
        <ele>172</ele>
        <time>2021-08-14T07:26:55.000Z</time>
      </trkpt>
      <trkpt lat="49.81536" lon="4.78419">
        <ele>172</ele>
        <time>2021-08-14T07:26:56.000Z</time>
      </trkpt>
      <trkpt lat="49.81538" lon="4.78411">
        <ele>172</ele>
        <time>2021-08-14T07:26:57.000Z</time>
      </trkpt>
      <trkpt lat="49.81539" lon="4.78403">
        <ele>172</ele>
        <time>2021-08-14T07:26:58.000Z</time>
      </trkpt>
      <trkpt lat="49.81541" lon="4.78395">
        <ele>171</ele>
        <time>2021-08-14T07:26:59.000Z</time>
      </trkpt>
      <trkpt lat="49.81543" lon="4.78386">
        <ele>171</ele>
        <time>2021-08-14T07:27:00.000Z</time>
      </trkpt>
      <trkpt lat="49.81545" lon="4.78378">
        <ele>171</ele>
        <time>2021-08-14T07:27:01.000Z</time>
      </trkpt>
      <trkpt lat="49.81547" lon="4.7837">
        <ele>171</ele>
        <time>2021-08-14T07:27:02.000Z</time>
      </trkpt>
      <trkpt lat="49.81549" lon="4.78363">
        <ele>171</ele>
        <time>2021-08-14T07:27:03.000Z</time>
      </trkpt>
      <trkpt lat="49.8155" lon="4.78356">
        <ele>170</ele>
        <time>2021-08-14T07:27:04.000Z</time>
      </trkpt>
      <trkpt lat="49.81551" lon="4.78348">
        <ele>170</ele>
        <time>2021-08-14T07:27:05.000Z</time>
      </trkpt>
      <trkpt lat="49.81552" lon="4.78341">
        <ele>170</ele>
        <time>2021-08-14T07:27:06.000Z</time>
      </trkpt>
      <trkpt lat="49.81553" lon="4.78335">
        <ele>170</ele>
        <time>2021-08-14T07:27:07.000Z</time>
      </trkpt>
      <trkpt lat="49.81556" lon="4.7833">
        <ele>170</ele>
        <time>2021-08-14T07:27:08.000Z</time>
      </trkpt>
      <trkpt lat="49.81559" lon="4.78327">
        <ele>170</ele>
        <time>2021-08-14T07:27:09.000Z</time>
      </trkpt>
      <trkpt lat="49.81562" lon="4.78325">
        <ele>170</ele>
        <time>2021-08-14T07:27:10.000Z</time>
      </trkpt>
      <trkpt lat="49.81566" lon="4.78322">
        <ele>170</ele>
        <time>2021-08-14T07:27:11.000Z</time>
      </trkpt>
      <trkpt lat="49.81568" lon="4.78318">
        <ele>170</ele>
        <time>2021-08-14T07:27:12.000Z</time>
      </trkpt>
      <trkpt lat="49.81571" lon="4.78315">
        <ele>170</ele>
        <time>2021-08-14T07:27:13.000Z</time>
      </trkpt>
      <trkpt lat="49.81573" lon="4.78312">
        <ele>170</ele>
        <time>2021-08-14T07:27:14.000Z</time>
      </trkpt>
      <trkpt lat="49.81574" lon="4.78307">
        <ele>170</ele>
        <time>2021-08-14T07:27:15.000Z</time>
      </trkpt>
      <trkpt lat="49.81575" lon="4.78302">
        <ele>170</ele>
        <time>2021-08-14T07:27:16.000Z</time>
      </trkpt>
      <trkpt lat="49.81576" lon="4.78298">
        <ele>170</ele>
        <time>2021-08-14T07:27:17.000Z</time>
      </trkpt>
      <trkpt lat="49.81578" lon="4.78293">
        <ele>170</ele>
        <time>2021-08-14T07:27:18.000Z</time>
      </trkpt>
      <trkpt lat="49.81579" lon="4.78289">
        <ele>170</ele>
        <time>2021-08-14T07:27:19.000Z</time>
      </trkpt>
      <trkpt lat="49.81581" lon="4.78287">
        <ele>170</ele>
        <time>2021-08-14T07:27:20.000Z</time>
      </trkpt>
      <trkpt lat="49.81583" lon="4.78286">
        <ele>170</ele>
        <time>2021-08-14T07:27:21.000Z</time>
      </trkpt>
      <trkpt lat="49.81584" lon="4.78288">
        <ele>170</ele>
        <time>2021-08-14T07:27:22.000Z</time>
      </trkpt>
      <trkpt lat="49.81586" lon="4.7829">
        <ele>170</ele>
        <time>2021-08-14T07:27:23.000Z</time>
      </trkpt>
      <trkpt lat="49.81588" lon="4.78293">
        <ele>170</ele>
        <time>2021-08-14T07:27:24.000Z</time>
      </trkpt>
      <trkpt lat="49.81589" lon="4.78297">
        <ele>170</ele>
        <time>2021-08-14T07:27:25.000Z</time>
      </trkpt>
      <trkpt lat="49.81589" lon="4.783">
        <ele>170</ele>
        <time>2021-08-14T07:27:26.000Z</time>
      </trkpt>
      <trkpt lat="49.8159" lon="4.78304">
        <ele>170</ele>
        <time>2021-08-14T07:27:27.000Z</time>
      </trkpt>
      <trkpt lat="49.8159" lon="4.78308">
        <ele>170</ele>
        <time>2021-08-14T07:27:28.000Z</time>
      </trkpt>
      <trkpt lat="49.8159" lon="4.78312">
        <ele>170</ele>
        <time>2021-08-14T07:27:29.000Z</time>
      </trkpt>
      <trkpt lat="49.81587" lon="4.78314">
        <ele>170</ele>
        <time>2021-08-14T07:27:30.000Z</time>
      </trkpt>
      <trkpt lat="49.81585" lon="4.78314">
        <ele>170</ele>
        <time>2021-08-14T07:27:31.000Z</time>
      </trkpt>
      <trkpt lat="49.81583" lon="4.78315">
        <ele>170</ele>
        <time>2021-08-14T07:27:32.000Z</time>
      </trkpt>
      <trkpt lat="49.81581" lon="4.78315">
        <ele>170</ele>
        <time>2021-08-14T07:27:33.000Z</time>
      </trkpt>
      <trkpt lat="49.81579" lon="4.78316">
        <ele>170</ele>
        <time>2021-08-14T07:27:34.000Z</time>
      </trkpt>
      <trkpt lat="49.81576" lon="4.78316">
        <ele>170</ele>
        <time>2021-08-14T07:27:35.000Z</time>
      </trkpt>
      <trkpt lat="49.81573" lon="4.78318">
        <ele>170</ele>
        <time>2021-08-14T07:27:36.000Z</time>
      </trkpt>
      <trkpt lat="49.81572" lon="4.78321">
        <ele>170</ele>
        <time>2021-08-14T07:27:37.000Z</time>
      </trkpt>
      <trkpt lat="49.81571" lon="4.78324">
        <ele>171</ele>
        <time>2021-08-14T07:27:38.000Z</time>
      </trkpt>
      <trkpt lat="49.81571" lon="4.78325">
        <ele>171</ele>
        <time>2021-08-14T07:27:39.000Z</time>
      </trkpt>
      <trkpt lat="49.81572" lon="4.78323">
        <ele>171</ele>
        <time>2021-08-14T07:27:40.000Z</time>
      </trkpt>
      <trkpt lat="49.81572" lon="4.7832">
        <ele>171</ele>
        <time>2021-08-14T07:27:41.000Z</time>
      </trkpt>
      <trkpt lat="49.81573" lon="4.78317">
        <ele>171</ele>
        <time>2021-08-14T07:27:42.000Z</time>
      </trkpt>
      <trkpt lat="49.81574" lon="4.78312">
        <ele>170</ele>
        <time>2021-08-14T07:27:43.000Z</time>
      </trkpt>
      <trkpt lat="49.81574" lon="4.78306">
        <ele>170</ele>
        <time>2021-08-14T07:27:44.000Z</time>
      </trkpt>
      <trkpt lat="49.81575" lon="4.78301">
        <ele>170</ele>
        <time>2021-08-14T07:27:45.000Z</time>
      </trkpt>
      <trkpt lat="49.81575" lon="4.78295">
        <ele>170</ele>
        <time>2021-08-14T07:27:46.000Z</time>
      </trkpt>
      <trkpt lat="49.81575" lon="4.7829">
        <ele>170</ele>
        <time>2021-08-14T07:27:47.000Z</time>
      </trkpt>
      <trkpt lat="49.81577" lon="4.78286">
        <ele>170</ele>
        <time>2021-08-14T07:27:48.000Z</time>
      </trkpt>
      <trkpt lat="49.81579" lon="4.78285">
        <ele>170</ele>
        <time>2021-08-14T07:27:49.000Z</time>
      </trkpt>
      <trkpt lat="49.81582" lon="4.78286">
        <ele>170</ele>
        <time>2021-08-14T07:27:50.000Z</time>
      </trkpt>
      <trkpt lat="49.81583" lon="4.78287">
        <ele>170</ele>
        <time>2021-08-14T07:27:51.000Z</time>
      </trkpt>
      <trkpt lat="49.81585" lon="4.7829">
        <ele>170</ele>
        <time>2021-08-14T07:27:52.000Z</time>
      </trkpt>
      <trkpt lat="49.81586" lon="4.78294">
        <ele>170</ele>
        <time>2021-08-14T07:27:53.000Z</time>
      </trkpt>
      <trkpt lat="49.81587" lon="4.78297">
        <ele>171</ele>
        <time>2021-08-14T07:27:54.000Z</time>
      </trkpt>
      <trkpt lat="49.81587" lon="4.78301">
        <ele>171</ele>
        <time>2021-08-14T07:27:55.000Z</time>
      </trkpt>
      <trkpt lat="49.81587" lon="4.78306">
        <ele>171</ele>
        <time>2021-08-14T07:27:56.000Z</time>
      </trkpt>
      <trkpt lat="49.81585" lon="4.78309">
        <ele>171</ele>
        <time>2021-08-14T07:27:57.000Z</time>
      </trkpt>
      <trkpt lat="49.81584" lon="4.78312">
        <ele>171</ele>
        <time>2021-08-14T07:27:58.000Z</time>
      </trkpt>
      <trkpt lat="49.81581" lon="4.78313">
        <ele>171</ele>
        <time>2021-08-14T07:27:59.000Z</time>
      </trkpt>
      <trkpt lat="49.81579" lon="4.78314">
        <ele>171</ele>
        <time>2021-08-14T07:28:00.000Z</time>
      </trkpt>
      <trkpt lat="49.81577" lon="4.78315">
        <ele>171</ele>
        <time>2021-08-14T07:28:01.000Z</time>
      </trkpt>
      <trkpt lat="49.81575" lon="4.78316">
        <ele>171</ele>
        <time>2021-08-14T07:28:02.000Z</time>
      </trkpt>
      <trkpt lat="49.81572" lon="4.78317">
        <ele>171</ele>
        <time>2021-08-14T07:28:03.000Z</time>
      </trkpt>
      <trkpt lat="49.8157" lon="4.78319">
        <ele>171</ele>
        <time>2021-08-14T07:28:04.000Z</time>
      </trkpt>
      <trkpt lat="49.81568" lon="4.78322">
        <ele>171</ele>
        <time>2021-08-14T07:28:05.000Z</time>
      </trkpt>
      <trkpt lat="49.81568" lon="4.78323">
        <ele>171</ele>
        <time>2021-08-14T07:28:06.000Z</time>
      </trkpt>
      <trkpt lat="49.81568" lon="4.78322">
        <ele>171</ele>
        <time>2021-08-14T07:28:07.000Z</time>
      </trkpt>
      <trkpt lat="49.8157" lon="4.78319">
        <ele>171</ele>
        <time>2021-08-14T07:28:08.000Z</time>
      </trkpt>
      <trkpt lat="49.81571" lon="4.78314">
        <ele>172</ele>
        <time>2021-08-14T07:28:09.000Z</time>
      </trkpt>
      <trkpt lat="49.81571" lon="4.78308">
        <ele>172</ele>
        <time>2021-08-14T07:28:10.000Z</time>
      </trkpt>
      <trkpt lat="49.81572" lon="4.78302">
        <ele>172</ele>
        <time>2021-08-14T07:28:11.000Z</time>
      </trkpt>
      <trkpt lat="49.81572" lon="4.78296">
        <ele>172</ele>
        <time>2021-08-14T07:28:12.000Z</time>
      </trkpt>
      <trkpt lat="49.81573" lon="4.78291">
        <ele>172</ele>
        <time>2021-08-14T07:28:13.000Z</time>
      </trkpt>
      <trkpt lat="49.81575" lon="4.78286">
        <ele>172</ele>
        <time>2021-08-14T07:28:14.000Z</time>
      </trkpt>
      <trkpt lat="49.81577" lon="4.78283">
        <ele>172</ele>
        <time>2021-08-14T07:28:15.000Z</time>
      </trkpt>
      <trkpt lat="49.81579" lon="4.78282">
        <ele>172</ele>
        <time>2021-08-14T07:28:16.000Z</time>
      </trkpt>
      <trkpt lat="49.81582" lon="4.78283">
        <ele>172</ele>
        <time>2021-08-14T07:28:17.000Z</time>
      </trkpt>
      <trkpt lat="49.81584" lon="4.78286">
        <ele>172</ele>
        <time>2021-08-14T07:28:18.000Z</time>
      </trkpt>
      <trkpt lat="49.81585" lon="4.78288">
        <ele>172</ele>
        <time>2021-08-14T07:28:19.000Z</time>
      </trkpt>
      <trkpt lat="49.81586" lon="4.78292">
        <ele>172</ele>
        <time>2021-08-14T07:28:20.000Z</time>
      </trkpt>
      <trkpt lat="49.81587" lon="4.78295">
        <ele>172</ele>
        <time>2021-08-14T07:28:21.000Z</time>
      </trkpt>
      <trkpt lat="49.81588" lon="4.78299">
        <ele>173</ele>
        <time>2021-08-14T07:28:22.000Z</time>
      </trkpt>
      <trkpt lat="49.81588" lon="4.78304">
        <ele>173</ele>
        <time>2021-08-14T07:28:23.000Z</time>
      </trkpt>
      <trkpt lat="49.81587" lon="4.78308">
        <ele>173</ele>
        <time>2021-08-14T07:28:24.000Z</time>
      </trkpt>
      <trkpt lat="49.81585" lon="4.7831">
        <ele>173</ele>
        <time>2021-08-14T07:28:25.000Z</time>
      </trkpt>
      <trkpt lat="49.81583" lon="4.78312">
        <ele>173</ele>
        <time>2021-08-14T07:28:26.000Z</time>
      </trkpt>
      <trkpt lat="49.8158" lon="4.78313">
        <ele>173</ele>
        <time>2021-08-14T07:28:27.000Z</time>
      </trkpt>
      <trkpt lat="49.81579" lon="4.78313">
        <ele>173</ele>
        <time>2021-08-14T07:28:28.000Z</time>
      </trkpt>
      <trkpt lat="49.81576" lon="4.78313">
        <ele>173</ele>
        <time>2021-08-14T07:28:29.000Z</time>
      </trkpt>
      <trkpt lat="49.81573" lon="4.78313">
        <ele>173</ele>
        <time>2021-08-14T07:28:30.000Z</time>
      </trkpt>
      <trkpt lat="49.8157" lon="4.78315">
        <ele>173</ele>
        <time>2021-08-14T07:28:31.000Z</time>
      </trkpt>
      <trkpt lat="49.81569" lon="4.78317">
        <ele>173</ele>
        <time>2021-08-14T07:28:32.000Z</time>
      </trkpt>
      <trkpt lat="49.81569" lon="4.78318">
        <ele>173</ele>
        <time>2021-08-14T07:28:33.000Z</time>
      </trkpt>
      <trkpt lat="49.8157" lon="4.78318">
        <ele>173</ele>
        <time>2021-08-14T07:28:34.000Z</time>
      </trkpt>
      <trkpt lat="49.8157" lon="4.78316">
        <ele>173</ele>
        <time>2021-08-14T07:28:35.000Z</time>
      </trkpt>
      <trkpt lat="49.81571" lon="4.78313">
        <ele>173</ele>
        <time>2021-08-14T07:28:36.000Z</time>
      </trkpt>
      <trkpt lat="49.81571" lon="4.78309">
        <ele>173</ele>
        <time>2021-08-14T07:28:37.000Z</time>
      </trkpt>
      <trkpt lat="49.81572" lon="4.78305">
        <ele>173</ele>
        <time>2021-08-14T07:28:38.000Z</time>
      </trkpt>
      <trkpt lat="49.81572" lon="4.783">
        <ele>173</ele>
        <time>2021-08-14T07:28:39.000Z</time>
      </trkpt>
      <trkpt lat="49.81572" lon="4.78296">
        <ele>173</ele>
        <time>2021-08-14T07:28:40.000Z</time>
      </trkpt>
      <trkpt lat="49.81572" lon="4.78292">
        <ele>173</ele>
        <time>2021-08-14T07:28:41.000Z</time>
      </trkpt>
      <trkpt lat="49.81573" lon="4.78287">
        <ele>173</ele>
        <time>2021-08-14T07:28:42.000Z</time>
      </trkpt>
      <trkpt lat="49.81575" lon="4.78284">
        <ele>173</ele>
        <time>2021-08-14T07:28:43.000Z</time>
      </trkpt>
      <trkpt lat="49.81577" lon="4.78281">
        <ele>173</ele>
        <time>2021-08-14T07:28:44.000Z</time>
      </trkpt>
      <trkpt lat="49.81579" lon="4.7828">
        <ele>173</ele>
        <time>2021-08-14T07:28:45.000Z</time>
      </trkpt>
      <trkpt lat="49.81582" lon="4.78281">
        <ele>173</ele>
        <time>2021-08-14T07:28:46.000Z</time>
      </trkpt>
      <trkpt lat="49.81584" lon="4.78283">
        <ele>173</ele>
        <time>2021-08-14T07:28:47.000Z</time>
      </trkpt>
      <trkpt lat="49.81585" lon="4.78286">
        <ele>173</ele>
        <time>2021-08-14T07:28:48.000Z</time>
      </trkpt>
      <trkpt lat="49.81586" lon="4.78289">
        <ele>173</ele>
        <time>2021-08-14T07:28:49.000Z</time>
      </trkpt>
      <trkpt lat="49.81588" lon="4.78292">
        <ele>173</ele>
        <time>2021-08-14T07:28:50.000Z</time>
      </trkpt>
      <trkpt lat="49.81588" lon="4.78296">
        <ele>174</ele>
        <time>2021-08-14T07:28:51.000Z</time>
      </trkpt>
      <trkpt lat="49.81589" lon="4.783">
        <ele>174</ele>
        <time>2021-08-14T07:28:52.000Z</time>
      </trkpt>
      <trkpt lat="49.8159" lon="4.78304">
        <ele>174</ele>
        <time>2021-08-14T07:28:53.000Z</time>
      </trkpt>
      <trkpt lat="49.81592" lon="4.78308">
        <ele>174</ele>
        <time>2021-08-14T07:28:54.000Z</time>
      </trkpt>
      <trkpt lat="49.81593" lon="4.78313">
        <ele>174</ele>
        <time>2021-08-14T07:28:55.000Z</time>
      </trkpt>
      <trkpt lat="49.81594" lon="4.78318">
        <ele>174</ele>
        <time>2021-08-14T07:28:56.000Z</time>
      </trkpt>
      <trkpt lat="49.81596" lon="4.78322">
        <ele>174</ele>
        <time>2021-08-14T07:28:57.000Z</time>
      </trkpt>
      <trkpt lat="49.81597" lon="4.78327">
        <ele>174</ele>
        <time>2021-08-14T07:28:58.000Z</time>
      </trkpt>
      <trkpt lat="49.81599" lon="4.78331">
        <ele>174</ele>
        <time>2021-08-14T07:28:59.000Z</time>
      </trkpt>
      <trkpt lat="49.81601" lon="4.78336">
        <ele>174</ele>
        <time>2021-08-14T07:29:00.000Z</time>
      </trkpt>
      <trkpt lat="49.81603" lon="4.78342">
        <ele>174</ele>
        <time>2021-08-14T07:29:01.000Z</time>
      </trkpt>
      <trkpt lat="49.81606" lon="4.78347">
        <ele>174</ele>
        <time>2021-08-14T07:29:02.000Z</time>
      </trkpt>
      <trkpt lat="49.81609" lon="4.78353">
        <ele>174</ele>
        <time>2021-08-14T07:29:03.000Z</time>
      </trkpt>
      <trkpt lat="49.81612" lon="4.78359">
        <ele>174</ele>
        <time>2021-08-14T07:29:04.000Z</time>
      </trkpt>
      <trkpt lat="49.81615" lon="4.78365">
        <ele>174</ele>
        <time>2021-08-14T07:29:05.000Z</time>
      </trkpt>
      <trkpt lat="49.81618" lon="4.78371">
        <ele>174</ele>
        <time>2021-08-14T07:29:06.000Z</time>
      </trkpt>
      <trkpt lat="49.81622" lon="4.78377">
        <ele>173</ele>
        <time>2021-08-14T07:29:07.000Z</time>
      </trkpt>
      <trkpt lat="49.81625" lon="4.78384">
        <ele>173</ele>
        <time>2021-08-14T07:29:08.000Z</time>
      </trkpt>
      <trkpt lat="49.81628" lon="4.7839">
        <ele>173</ele>
        <time>2021-08-14T07:29:09.000Z</time>
      </trkpt>
      <trkpt lat="49.81631" lon="4.78396">
        <ele>173</ele>
        <time>2021-08-14T07:29:10.000Z</time>
      </trkpt>
      <trkpt lat="49.81635" lon="4.78402">
        <ele>173</ele>
        <time>2021-08-14T07:29:11.000Z</time>
      </trkpt>
      <trkpt lat="49.81638" lon="4.78408">
        <ele>173</ele>
        <time>2021-08-14T07:29:12.000Z</time>
      </trkpt>
      <trkpt lat="49.81642" lon="4.78414">
        <ele>173</ele>
        <time>2021-08-14T07:29:13.000Z</time>
      </trkpt>
      <trkpt lat="49.81645" lon="4.7842">
        <ele>173</ele>
        <time>2021-08-14T07:29:14.000Z</time>
      </trkpt>
      <trkpt lat="49.81649" lon="4.78425">
        <ele>174</ele>
        <time>2021-08-14T07:29:15.000Z</time>
      </trkpt>
      <trkpt lat="49.81653" lon="4.78429">
        <ele>174</ele>
        <time>2021-08-14T07:29:16.000Z</time>
      </trkpt>
      <trkpt lat="49.81657" lon="4.78433">
        <ele>174</ele>
        <time>2021-08-14T07:29:17.000Z</time>
      </trkpt>
      <trkpt lat="49.81661" lon="4.78437">
        <ele>174</ele>
        <time>2021-08-14T07:29:18.000Z</time>
      </trkpt>
      <trkpt lat="49.81666" lon="4.7844">
        <ele>174</ele>
        <time>2021-08-14T07:29:19.000Z</time>
      </trkpt>
      <trkpt lat="49.8167" lon="4.78445">
        <ele>174</ele>
        <time>2021-08-14T07:29:20.000Z</time>
      </trkpt>
      <trkpt lat="49.81675" lon="4.78449">
        <ele>175</ele>
        <time>2021-08-14T07:29:21.000Z</time>
      </trkpt>
      <trkpt lat="49.8168" lon="4.78453">
        <ele>175</ele>
        <time>2021-08-14T07:29:22.000Z</time>
      </trkpt>
      <trkpt lat="49.81684" lon="4.78457">
        <ele>175</ele>
        <time>2021-08-14T07:29:23.000Z</time>
      </trkpt>
      <trkpt lat="49.81689" lon="4.78462">
        <ele>175</ele>
        <time>2021-08-14T07:29:24.000Z</time>
      </trkpt>
      <trkpt lat="49.81693" lon="4.78467">
        <ele>176</ele>
        <time>2021-08-14T07:29:25.000Z</time>
      </trkpt>
      <trkpt lat="49.81697" lon="4.78472">
        <ele>176</ele>
        <time>2021-08-14T07:29:26.000Z</time>
      </trkpt>
      <trkpt lat="49.81701" lon="4.78477">
        <ele>176</ele>
        <time>2021-08-14T07:29:27.000Z</time>
      </trkpt>
      <trkpt lat="49.81705" lon="4.78482">
        <ele>176</ele>
        <time>2021-08-14T07:29:28.000Z</time>
      </trkpt>
      <trkpt lat="49.81709" lon="4.78486">
        <ele>177</ele>
        <time>2021-08-14T07:29:29.000Z</time>
      </trkpt>
      <trkpt lat="49.81713" lon="4.78491">
        <ele>177</ele>
        <time>2021-08-14T07:29:30.000Z</time>
      </trkpt>
      <trkpt lat="49.81717" lon="4.78495">
        <ele>177</ele>
        <time>2021-08-14T07:29:31.000Z</time>
      </trkpt>
      <trkpt lat="49.8172" lon="4.78499">
        <ele>177</ele>
        <time>2021-08-14T07:29:32.000Z</time>
      </trkpt>
      <trkpt lat="49.81724" lon="4.78502">
        <ele>177</ele>
        <time>2021-08-14T07:29:33.000Z</time>
      </trkpt>
      <trkpt lat="49.81728" lon="4.78505">
        <ele>177</ele>
        <time>2021-08-14T07:29:34.000Z</time>
      </trkpt>
      <trkpt lat="49.81732" lon="4.78507">
        <ele>177</ele>
        <time>2021-08-14T07:29:35.000Z</time>
      </trkpt>
      <trkpt lat="49.81736" lon="4.78509">
        <ele>178</ele>
        <time>2021-08-14T07:29:36.000Z</time>
      </trkpt>
      <trkpt lat="49.81739" lon="4.78512">
        <ele>178</ele>
        <time>2021-08-14T07:29:37.000Z</time>
      </trkpt>
      <trkpt lat="49.81742" lon="4.78514">
        <ele>178</ele>
        <time>2021-08-14T07:29:38.000Z</time>
      </trkpt>
      <trkpt lat="49.81746" lon="4.78516">
        <ele>178</ele>
        <time>2021-08-14T07:29:39.000Z</time>
      </trkpt>
      <trkpt lat="49.81749" lon="4.78519">
        <ele>178</ele>
        <time>2021-08-14T07:29:40.000Z</time>
      </trkpt>
      <trkpt lat="49.81752" lon="4.78522">
        <ele>178</ele>
        <time>2021-08-14T07:29:41.000Z</time>
      </trkpt>
      <trkpt lat="49.81756" lon="4.78523">
        <ele>178</ele>
        <time>2021-08-14T07:29:42.000Z</time>
      </trkpt>
      <trkpt lat="49.81759" lon="4.78525">
        <ele>179</ele>
        <time>2021-08-14T07:29:43.000Z</time>
      </trkpt>
      <trkpt lat="49.81763" lon="4.78527">
        <ele>179</ele>
        <time>2021-08-14T07:29:44.000Z</time>
      </trkpt>
      <trkpt lat="49.81766" lon="4.7853">
        <ele>179</ele>
        <time>2021-08-14T07:29:45.000Z</time>
      </trkpt>
      <trkpt lat="49.8177" lon="4.78532">
        <ele>179</ele>
        <time>2021-08-14T07:29:46.000Z</time>
      </trkpt>
      <trkpt lat="49.81773" lon="4.78534">
        <ele>180</ele>
        <time>2021-08-14T07:29:47.000Z</time>
      </trkpt>
      <trkpt lat="49.81777" lon="4.78537">
        <ele>180</ele>
        <time>2021-08-14T07:29:48.000Z</time>
      </trkpt>
      <trkpt lat="49.81782" lon="4.78539">
        <ele>180</ele>
        <time>2021-08-14T07:29:49.000Z</time>
      </trkpt>
      <trkpt lat="49.81786" lon="4.78542">
        <ele>181</ele>
        <time>2021-08-14T07:29:50.000Z</time>
      </trkpt>
      <trkpt lat="49.8179" lon="4.78545">
        <ele>181</ele>
        <time>2021-08-14T07:29:51.000Z</time>
      </trkpt>
      <trkpt lat="49.81794" lon="4.78547">
        <ele>181</ele>
        <time>2021-08-14T07:29:52.000Z</time>
      </trkpt>
      <trkpt lat="49.81798" lon="4.7855">
        <ele>182</ele>
        <time>2021-08-14T07:29:53.000Z</time>
      </trkpt>
      <trkpt lat="49.81802" lon="4.78553">
        <ele>182</ele>
        <time>2021-08-14T07:29:54.000Z</time>
      </trkpt>
      <trkpt lat="49.81806" lon="4.78556">
        <ele>182</ele>
        <time>2021-08-14T07:29:55.000Z</time>
      </trkpt>
      <trkpt lat="49.81809" lon="4.78559">
        <ele>183</ele>
        <time>2021-08-14T07:29:56.000Z</time>
      </trkpt>
      <trkpt lat="49.81813" lon="4.78562">
        <ele>183</ele>
        <time>2021-08-14T07:29:57.000Z</time>
      </trkpt>
      <trkpt lat="49.81817" lon="4.78566">
        <ele>183</ele>
        <time>2021-08-14T07:29:58.000Z</time>
      </trkpt>
      <trkpt lat="49.81821" lon="4.78569">
        <ele>184</ele>
        <time>2021-08-14T07:29:59.000Z</time>
      </trkpt>
      <trkpt lat="49.81825" lon="4.78572">
        <ele>184</ele>
        <time>2021-08-14T07:30:00.000Z</time>
      </trkpt>
      <trkpt lat="49.81829" lon="4.78576">
        <ele>185</ele>
        <time>2021-08-14T07:30:01.000Z</time>
      </trkpt>
      <trkpt lat="49.81832" lon="4.7858">
        <ele>185</ele>
        <time>2021-08-14T07:30:02.000Z</time>
      </trkpt>
      <trkpt lat="49.81836" lon="4.78584">
        <ele>185</ele>
        <time>2021-08-14T07:30:03.000Z</time>
      </trkpt>
      <trkpt lat="49.8184" lon="4.78588">
        <ele>186</ele>
        <time>2021-08-14T07:30:04.000Z</time>
      </trkpt>
      <trkpt lat="49.81844" lon="4.78592">
        <ele>186</ele>
        <time>2021-08-14T07:30:05.000Z</time>
      </trkpt>
      <trkpt lat="49.81848" lon="4.78596">
        <ele>187</ele>
        <time>2021-08-14T07:30:06.000Z</time>
      </trkpt>
      <trkpt lat="49.81852" lon="4.786">
        <ele>187</ele>
        <time>2021-08-14T07:30:07.000Z</time>
      </trkpt>
      <trkpt lat="49.81855" lon="4.78604">
        <ele>187</ele>
        <time>2021-08-14T07:30:08.000Z</time>
      </trkpt>
      <trkpt lat="49.81859" lon="4.78608">
        <ele>188</ele>
        <time>2021-08-14T07:30:09.000Z</time>
      </trkpt>
      <trkpt lat="49.81863" lon="4.78611">
        <ele>188</ele>
        <time>2021-08-14T07:30:10.000Z</time>
      </trkpt>
      <trkpt lat="49.81866" lon="4.78616">
        <ele>188</ele>
        <time>2021-08-14T07:30:11.000Z</time>
      </trkpt>
      <trkpt lat="49.81869" lon="4.7862">
        <ele>189</ele>
        <time>2021-08-14T07:30:12.000Z</time>
      </trkpt>
      <trkpt lat="49.81873" lon="4.78624">
        <ele>189</ele>
        <time>2021-08-14T07:30:13.000Z</time>
      </trkpt>
      <trkpt lat="49.81877" lon="4.78628">
        <ele>190</ele>
        <time>2021-08-14T07:30:14.000Z</time>
      </trkpt>
      <trkpt lat="49.8188" lon="4.78632">
        <ele>190</ele>
        <time>2021-08-14T07:30:15.000Z</time>
      </trkpt>
      <trkpt lat="49.81884" lon="4.78636">
        <ele>190</ele>
        <time>2021-08-14T07:30:16.000Z</time>
      </trkpt>
      <trkpt lat="49.81888" lon="4.7864">
        <ele>191</ele>
        <time>2021-08-14T07:30:17.000Z</time>
      </trkpt>
      <trkpt lat="49.81892" lon="4.78645">
        <ele>191</ele>
        <time>2021-08-14T07:30:18.000Z</time>
      </trkpt>
      <trkpt lat="49.81896" lon="4.78649">
        <ele>192</ele>
        <time>2021-08-14T07:30:19.000Z</time>
      </trkpt>
      <trkpt lat="49.819" lon="4.78654">
        <ele>192</ele>
        <time>2021-08-14T07:30:20.000Z</time>
      </trkpt>
      <trkpt lat="49.81904" lon="4.78658">
        <ele>192</ele>
        <time>2021-08-14T07:30:21.000Z</time>
      </trkpt>
      <trkpt lat="49.81908" lon="4.78663">
        <ele>193</ele>
        <time>2021-08-14T07:30:22.000Z</time>
      </trkpt>
      <trkpt lat="49.81912" lon="4.78667">
        <ele>193</ele>
        <time>2021-08-14T07:30:23.000Z</time>
      </trkpt>
      <trkpt lat="49.81915" lon="4.78671">
        <ele>193</ele>
        <time>2021-08-14T07:30:24.000Z</time>
      </trkpt>
      <trkpt lat="49.81918" lon="4.78675">
        <ele>194</ele>
        <time>2021-08-14T07:30:25.000Z</time>
      </trkpt>
      <trkpt lat="49.81922" lon="4.78679">
        <ele>194</ele>
        <time>2021-08-14T07:30:26.000Z</time>
      </trkpt>
      <trkpt lat="49.81926" lon="4.78683">
        <ele>194</ele>
        <time>2021-08-14T07:30:27.000Z</time>
      </trkpt>
      <trkpt lat="49.8193" lon="4.78686">
        <ele>194</ele>
        <time>2021-08-14T07:30:28.000Z</time>
      </trkpt>
      <trkpt lat="49.81933" lon="4.7869">
        <ele>195</ele>
        <time>2021-08-14T07:30:29.000Z</time>
      </trkpt>
      <trkpt lat="49.81937" lon="4.78693">
        <ele>195</ele>
        <time>2021-08-14T07:30:30.000Z</time>
      </trkpt>
      <trkpt lat="49.81941" lon="4.78697">
        <ele>195</ele>
        <time>2021-08-14T07:30:31.000Z</time>
      </trkpt>
      <trkpt lat="49.81945" lon="4.787">
        <ele>195</ele>
        <time>2021-08-14T07:30:32.000Z</time>
      </trkpt>
      <trkpt lat="49.81949" lon="4.78704">
        <ele>195</ele>
        <time>2021-08-14T07:30:33.000Z</time>
      </trkpt>
      <trkpt lat="49.81953" lon="4.78707">
        <ele>196</ele>
        <time>2021-08-14T07:30:34.000Z</time>
      </trkpt>
      <trkpt lat="49.81957" lon="4.7871">
        <ele>196</ele>
        <time>2021-08-14T07:30:35.000Z</time>
      </trkpt>
      <trkpt lat="49.81961" lon="4.78713">
        <ele>196</ele>
        <time>2021-08-14T07:30:36.000Z</time>
      </trkpt>
      <trkpt lat="49.81965" lon="4.78716">
        <ele>196</ele>
        <time>2021-08-14T07:30:37.000Z</time>
      </trkpt>
      <trkpt lat="49.81969" lon="4.78719">
        <ele>196</ele>
        <time>2021-08-14T07:30:38.000Z</time>
      </trkpt>
      <trkpt lat="49.81973" lon="4.78723">
        <ele>197</ele>
        <time>2021-08-14T07:30:39.000Z</time>
      </trkpt>
      <trkpt lat="49.81977" lon="4.78726">
        <ele>197</ele>
        <time>2021-08-14T07:30:40.000Z</time>
      </trkpt>
      <trkpt lat="49.81981" lon="4.7873">
        <ele>197</ele>
        <time>2021-08-14T07:30:41.000Z</time>
      </trkpt>
      <trkpt lat="49.81985" lon="4.78733">
        <ele>197</ele>
        <time>2021-08-14T07:30:42.000Z</time>
      </trkpt>
      <trkpt lat="49.81988" lon="4.78737">
        <ele>197</ele>
        <time>2021-08-14T07:30:43.000Z</time>
      </trkpt>
      <trkpt lat="49.81992" lon="4.7874">
        <ele>198</ele>
        <time>2021-08-14T07:30:44.000Z</time>
      </trkpt>
      <trkpt lat="49.81996" lon="4.78743">
        <ele>198</ele>
        <time>2021-08-14T07:30:45.000Z</time>
      </trkpt>
      <trkpt lat="49.82" lon="4.78746">
        <ele>198</ele>
        <time>2021-08-14T07:30:46.000Z</time>
      </trkpt>
      <trkpt lat="49.82004" lon="4.7875">
        <ele>198</ele>
        <time>2021-08-14T07:30:47.000Z</time>
      </trkpt>
      <trkpt lat="49.82007" lon="4.78753">
        <ele>198</ele>
        <time>2021-08-14T07:30:48.000Z</time>
      </trkpt>
      <trkpt lat="49.82011" lon="4.78756">
        <ele>199</ele>
        <time>2021-08-14T07:30:49.000Z</time>
      </trkpt>
      <trkpt lat="49.82014" lon="4.78759">
        <ele>199</ele>
        <time>2021-08-14T07:30:50.000Z</time>
      </trkpt>
      <trkpt lat="49.82018" lon="4.78761">
        <ele>199</ele>
        <time>2021-08-14T07:30:51.000Z</time>
      </trkpt>
      <trkpt lat="49.82021" lon="4.78764">
        <ele>199</ele>
        <time>2021-08-14T07:30:52.000Z</time>
      </trkpt>
      <trkpt lat="49.82024" lon="4.78767">
        <ele>200</ele>
        <time>2021-08-14T07:30:53.000Z</time>
      </trkpt>
      <trkpt lat="49.82028" lon="4.78769">
        <ele>200</ele>
        <time>2021-08-14T07:30:54.000Z</time>
      </trkpt>
      <trkpt lat="49.82031" lon="4.78772">
        <ele>200</ele>
        <time>2021-08-14T07:30:55.000Z</time>
      </trkpt>
      <trkpt lat="49.82034" lon="4.78775">
        <ele>200</ele>
        <time>2021-08-14T07:30:56.000Z</time>
      </trkpt>
      <trkpt lat="49.82038" lon="4.78777">
        <ele>201</ele>
        <time>2021-08-14T07:30:57.000Z</time>
      </trkpt>
      <trkpt lat="49.82041" lon="4.7878">
        <ele>201</ele>
        <time>2021-08-14T07:30:58.000Z</time>
      </trkpt>
      <trkpt lat="49.82045" lon="4.78783">
        <ele>201</ele>
        <time>2021-08-14T07:30:59.000Z</time>
      </trkpt>
      <trkpt lat="49.82048" lon="4.78786">
        <ele>201</ele>
        <time>2021-08-14T07:31:00.000Z</time>
      </trkpt>
      <trkpt lat="49.82052" lon="4.78789">
        <ele>202</ele>
        <time>2021-08-14T07:31:01.000Z</time>
      </trkpt>
      <trkpt lat="49.82056" lon="4.78792">
        <ele>202</ele>
        <time>2021-08-14T07:31:02.000Z</time>
      </trkpt>
      <trkpt lat="49.82059" lon="4.78795">
        <ele>202</ele>
        <time>2021-08-14T07:31:03.000Z</time>
      </trkpt>
      <trkpt lat="49.82062" lon="4.78798">
        <ele>202</ele>
        <time>2021-08-14T07:31:04.000Z</time>
      </trkpt>
      <trkpt lat="49.82066" lon="4.78802">
        <ele>203</ele>
        <time>2021-08-14T07:31:05.000Z</time>
      </trkpt>
      <trkpt lat="49.82069" lon="4.78806">
        <ele>203</ele>
        <time>2021-08-14T07:31:06.000Z</time>
      </trkpt>
      <trkpt lat="49.82073" lon="4.7881">
        <ele>203</ele>
        <time>2021-08-14T07:31:07.000Z</time>
      </trkpt>
      <trkpt lat="49.82076" lon="4.78814">
        <ele>203</ele>
        <time>2021-08-14T07:31:08.000Z</time>
      </trkpt>
      <trkpt lat="49.82079" lon="4.78818">
        <ele>204</ele>
        <time>2021-08-14T07:31:09.000Z</time>
      </trkpt>
      <trkpt lat="49.82082" lon="4.78822">
        <ele>204</ele>
        <time>2021-08-14T07:31:10.000Z</time>
      </trkpt>
      <trkpt lat="49.82084" lon="4.78826">
        <ele>204</ele>
        <time>2021-08-14T07:31:11.000Z</time>
      </trkpt>
      <trkpt lat="49.82087" lon="4.78831">
        <ele>204</ele>
        <time>2021-08-14T07:31:12.000Z</time>
      </trkpt>
      <trkpt lat="49.82089" lon="4.78837">
        <ele>204</ele>
        <time>2021-08-14T07:31:13.000Z</time>
      </trkpt>
      <trkpt lat="49.82092" lon="4.78842">
        <ele>204</ele>
        <time>2021-08-14T07:31:14.000Z</time>
      </trkpt>
      <trkpt lat="49.82094" lon="4.78848">
        <ele>205</ele>
        <time>2021-08-14T07:31:15.000Z</time>
      </trkpt>
      <trkpt lat="49.82096" lon="4.78854">
        <ele>205</ele>
        <time>2021-08-14T07:31:16.000Z</time>
      </trkpt>
      <trkpt lat="49.82098" lon="4.78859">
        <ele>205</ele>
        <time>2021-08-14T07:31:17.000Z</time>
      </trkpt>
      <trkpt lat="49.821" lon="4.78865">
        <ele>205</ele>
        <time>2021-08-14T07:31:18.000Z</time>
      </trkpt>
      <trkpt lat="49.82103" lon="4.7887">
        <ele>205</ele>
        <time>2021-08-14T07:31:19.000Z</time>
      </trkpt>
      <trkpt lat="49.82105" lon="4.78876">
        <ele>205</ele>
        <time>2021-08-14T07:31:20.000Z</time>
      </trkpt>
      <trkpt lat="49.82107" lon="4.78882">
        <ele>205</ele>
        <time>2021-08-14T07:31:21.000Z</time>
      </trkpt>
      <trkpt lat="49.82109" lon="4.78887">
        <ele>205</ele>
        <time>2021-08-14T07:31:22.000Z</time>
      </trkpt>
      <trkpt lat="49.82111" lon="4.78892">
        <ele>205</ele>
        <time>2021-08-14T07:31:23.000Z</time>
      </trkpt>
      <trkpt lat="49.82114" lon="4.78898">
        <ele>206</ele>
        <time>2021-08-14T07:31:24.000Z</time>
      </trkpt>
      <trkpt lat="49.82116" lon="4.78903">
        <ele>206</ele>
        <time>2021-08-14T07:31:25.000Z</time>
      </trkpt>
      <trkpt lat="49.82118" lon="4.78908">
        <ele>206</ele>
        <time>2021-08-14T07:31:26.000Z</time>
      </trkpt>
      <trkpt lat="49.82121" lon="4.78913">
        <ele>206</ele>
        <time>2021-08-14T07:31:27.000Z</time>
      </trkpt>
      <trkpt lat="49.82123" lon="4.78918">
        <ele>206</ele>
        <time>2021-08-14T07:31:28.000Z</time>
      </trkpt>
      <trkpt lat="49.82126" lon="4.78923">
        <ele>206</ele>
        <time>2021-08-14T07:31:29.000Z</time>
      </trkpt>
      <trkpt lat="49.82129" lon="4.78928">
        <ele>206</ele>
        <time>2021-08-14T07:31:30.000Z</time>
      </trkpt>
      <trkpt lat="49.82131" lon="4.78932">
        <ele>206</ele>
        <time>2021-08-14T07:31:31.000Z</time>
      </trkpt>
      <trkpt lat="49.82134" lon="4.78937">
        <ele>206</ele>
        <time>2021-08-14T07:31:32.000Z</time>
      </trkpt>
      <trkpt lat="49.82137" lon="4.78942">
        <ele>206</ele>
        <time>2021-08-14T07:31:33.000Z</time>
      </trkpt>
      <trkpt lat="49.8214" lon="4.78946">
        <ele>206</ele>
        <time>2021-08-14T07:31:34.000Z</time>
      </trkpt>
      <trkpt lat="49.82143" lon="4.78951">
        <ele>205</ele>
        <time>2021-08-14T07:31:35.000Z</time>
      </trkpt>
      <trkpt lat="49.82146" lon="4.78956">
        <ele>205</ele>
        <time>2021-08-14T07:31:36.000Z</time>
      </trkpt>
      <trkpt lat="49.82149" lon="4.78961">
        <ele>205</ele>
        <time>2021-08-14T07:31:37.000Z</time>
      </trkpt>
      <trkpt lat="49.82152" lon="4.78967">
        <ele>205</ele>
        <time>2021-08-14T07:31:38.000Z</time>
      </trkpt>
      <trkpt lat="49.82156" lon="4.78972">
        <ele>205</ele>
        <time>2021-08-14T07:31:39.000Z</time>
      </trkpt>
      <trkpt lat="49.82159" lon="4.78977">
        <ele>205</ele>
        <time>2021-08-14T07:31:40.000Z</time>
      </trkpt>
      <trkpt lat="49.82163" lon="4.78982">
        <ele>205</ele>
        <time>2021-08-14T07:31:41.000Z</time>
      </trkpt>
      <trkpt lat="49.82166" lon="4.78987">
        <ele>205</ele>
        <time>2021-08-14T07:31:42.000Z</time>
      </trkpt>
      <trkpt lat="49.8217" lon="4.78991">
        <ele>205</ele>
        <time>2021-08-14T07:31:43.000Z</time>
      </trkpt>
      <trkpt lat="49.82174" lon="4.78995">
        <ele>204</ele>
        <time>2021-08-14T07:31:44.000Z</time>
      </trkpt>
      <trkpt lat="49.82178" lon="4.78999">
        <ele>204</ele>
        <time>2021-08-14T07:31:45.000Z</time>
      </trkpt>
      <trkpt lat="49.82183" lon="4.79002">
        <ele>204</ele>
        <time>2021-08-14T07:31:46.000Z</time>
      </trkpt>
      <trkpt lat="49.82187" lon="4.79004">
        <ele>204</ele>
        <time>2021-08-14T07:31:47.000Z</time>
      </trkpt>
      <trkpt lat="49.82192" lon="4.79006">
        <ele>204</ele>
        <time>2021-08-14T07:31:48.000Z</time>
      </trkpt>
      <trkpt lat="49.82197" lon="4.79008">
        <ele>204</ele>
        <time>2021-08-14T07:31:49.000Z</time>
      </trkpt>
      <trkpt lat="49.82202" lon="4.79009">
        <ele>204</ele>
        <time>2021-08-14T07:31:50.000Z</time>
      </trkpt>
      <trkpt lat="49.82207" lon="4.7901">
        <ele>204</ele>
        <time>2021-08-14T07:31:51.000Z</time>
      </trkpt>
      <trkpt lat="49.82213" lon="4.79012">
        <ele>204</ele>
        <time>2021-08-14T07:31:52.000Z</time>
      </trkpt>
      <trkpt lat="49.82219" lon="4.79013">
        <ele>204</ele>
        <time>2021-08-14T07:31:53.000Z</time>
      </trkpt>
      <trkpt lat="49.82225" lon="4.79013">
        <ele>204</ele>
        <time>2021-08-14T07:31:54.000Z</time>
      </trkpt>
      <trkpt lat="49.82231" lon="4.79014">
        <ele>204</ele>
        <time>2021-08-14T07:31:55.000Z</time>
      </trkpt>
      <trkpt lat="49.82237" lon="4.79015">
        <ele>204</ele>
        <time>2021-08-14T07:31:56.000Z</time>
      </trkpt>
      <trkpt lat="49.82243" lon="4.79016">
        <ele>204</ele>
        <time>2021-08-14T07:31:57.000Z</time>
      </trkpt>
      <trkpt lat="49.82249" lon="4.79018">
        <ele>204</ele>
        <time>2021-08-14T07:31:58.000Z</time>
      </trkpt>
      <trkpt lat="49.82254" lon="4.7902">
        <ele>204</ele>
        <time>2021-08-14T07:31:59.000Z</time>
      </trkpt>
      <trkpt lat="49.8226" lon="4.79022">
        <ele>203</ele>
        <time>2021-08-14T07:32:00.000Z</time>
      </trkpt>
      <trkpt lat="49.82265" lon="4.79024">
        <ele>203</ele>
        <time>2021-08-14T07:32:01.000Z</time>
      </trkpt>
      <trkpt lat="49.8227" lon="4.79026">
        <ele>203</ele>
        <time>2021-08-14T07:32:02.000Z</time>
      </trkpt>
      <trkpt lat="49.82275" lon="4.79028">
        <ele>203</ele>
        <time>2021-08-14T07:32:03.000Z</time>
      </trkpt>
      <trkpt lat="49.8228" lon="4.79031">
        <ele>203</ele>
        <time>2021-08-14T07:32:04.000Z</time>
      </trkpt>
      <trkpt lat="49.82285" lon="4.79032">
        <ele>203</ele>
        <time>2021-08-14T07:32:05.000Z</time>
      </trkpt>
      <trkpt lat="49.8229" lon="4.79034">
        <ele>203</ele>
        <time>2021-08-14T07:32:06.000Z</time>
      </trkpt>
      <trkpt lat="49.82295" lon="4.79036">
        <ele>203</ele>
        <time>2021-08-14T07:32:07.000Z</time>
      </trkpt>
      <trkpt lat="49.823" lon="4.79037">
        <ele>203</ele>
        <time>2021-08-14T07:32:08.000Z</time>
      </trkpt>
      <trkpt lat="49.82305" lon="4.79039">
        <ele>203</ele>
        <time>2021-08-14T07:32:09.000Z</time>
      </trkpt>
      <trkpt lat="49.8231" lon="4.79041">
        <ele>203</ele>
        <time>2021-08-14T07:32:10.000Z</time>
      </trkpt>
      <trkpt lat="49.82315" lon="4.79043">
        <ele>203</ele>
        <time>2021-08-14T07:32:11.000Z</time>
      </trkpt>
      <trkpt lat="49.82321" lon="4.79044">
        <ele>203</ele>
        <time>2021-08-14T07:32:12.000Z</time>
      </trkpt>
      <trkpt lat="49.82326" lon="4.79046">
        <ele>203</ele>
        <time>2021-08-14T07:32:13.000Z</time>
      </trkpt>
      <trkpt lat="49.82331" lon="4.79046">
        <ele>203</ele>
        <time>2021-08-14T07:32:14.000Z</time>
      </trkpt>
      <trkpt lat="49.82337" lon="4.79047">
        <ele>203</ele>
        <time>2021-08-14T07:32:15.000Z</time>
      </trkpt>
      <trkpt lat="49.82341" lon="4.79048">
        <ele>203</ele>
        <time>2021-08-14T07:32:16.000Z</time>
      </trkpt>
      <trkpt lat="49.82347" lon="4.79049">
        <ele>203</ele>
        <time>2021-08-14T07:32:17.000Z</time>
      </trkpt>
      <trkpt lat="49.82352" lon="4.7905">
        <ele>203</ele>
        <time>2021-08-14T07:32:18.000Z</time>
      </trkpt>
      <trkpt lat="49.82357" lon="4.7905">
        <ele>203</ele>
        <time>2021-08-14T07:32:19.000Z</time>
      </trkpt>
      <trkpt lat="49.82362" lon="4.79051">
        <ele>203</ele>
        <time>2021-08-14T07:32:20.000Z</time>
      </trkpt>
      <trkpt lat="49.82366" lon="4.79052">
        <ele>203</ele>
        <time>2021-08-14T07:32:21.000Z</time>
      </trkpt>
      <trkpt lat="49.82372" lon="4.79052">
        <ele>203</ele>
        <time>2021-08-14T07:32:22.000Z</time>
      </trkpt>
      <trkpt lat="49.82377" lon="4.79053">
        <ele>203</ele>
        <time>2021-08-14T07:32:23.000Z</time>
      </trkpt>
      <trkpt lat="49.82382" lon="4.79054">
        <ele>203</ele>
        <time>2021-08-14T07:32:24.000Z</time>
      </trkpt>
      <trkpt lat="49.82387" lon="4.79056">
        <ele>204</ele>
        <time>2021-08-14T07:32:25.000Z</time>
      </trkpt>
      <trkpt lat="49.82392" lon="4.79059">
        <ele>204</ele>
        <time>2021-08-14T07:32:26.000Z</time>
      </trkpt>
      <trkpt lat="49.82397" lon="4.7906">
        <ele>204</ele>
        <time>2021-08-14T07:32:27.000Z</time>
      </trkpt>
      <trkpt lat="49.82402" lon="4.79062">
        <ele>204</ele>
        <time>2021-08-14T07:32:28.000Z</time>
      </trkpt>
      <trkpt lat="49.82407" lon="4.79064">
        <ele>204</ele>
        <time>2021-08-14T07:32:29.000Z</time>
      </trkpt>
      <trkpt lat="49.82412" lon="4.79067">
        <ele>204</ele>
        <time>2021-08-14T07:32:30.000Z</time>
      </trkpt>
      <trkpt lat="49.82417" lon="4.79069">
        <ele>205</ele>
        <time>2021-08-14T07:32:31.000Z</time>
      </trkpt>
      <trkpt lat="49.82422" lon="4.79071">
        <ele>205</ele>
        <time>2021-08-14T07:32:32.000Z</time>
      </trkpt>
      <trkpt lat="49.82427" lon="4.79072">
        <ele>205</ele>
        <time>2021-08-14T07:32:33.000Z</time>
      </trkpt>
      <trkpt lat="49.82432" lon="4.79074">
        <ele>205</ele>
        <time>2021-08-14T07:32:34.000Z</time>
      </trkpt>
      <trkpt lat="49.82437" lon="4.79075">
        <ele>205</ele>
        <time>2021-08-14T07:32:35.000Z</time>
      </trkpt>
      <trkpt lat="49.82442" lon="4.79075">
        <ele>206</ele>
        <time>2021-08-14T07:32:36.000Z</time>
      </trkpt>
      <trkpt lat="49.82446" lon="4.79075">
        <ele>206</ele>
        <time>2021-08-14T07:32:37.000Z</time>
      </trkpt>
      <trkpt lat="49.82451" lon="4.79074">
        <ele>206</ele>
        <time>2021-08-14T07:32:38.000Z</time>
      </trkpt>
      <trkpt lat="49.82456" lon="4.79073">
        <ele>206</ele>
        <time>2021-08-14T07:32:39.000Z</time>
      </trkpt>
      <trkpt lat="49.82461" lon="4.79072">
        <ele>206</ele>
        <time>2021-08-14T07:32:40.000Z</time>
      </trkpt>
      <trkpt lat="49.82466" lon="4.79071">
        <ele>206</ele>
        <time>2021-08-14T07:32:41.000Z</time>
      </trkpt>
      <trkpt lat="49.82472" lon="4.79069">
        <ele>207</ele>
        <time>2021-08-14T07:32:42.000Z</time>
      </trkpt>
      <trkpt lat="49.82478" lon="4.79067">
        <ele>207</ele>
        <time>2021-08-14T07:32:43.000Z</time>
      </trkpt>
      <trkpt lat="49.82483" lon="4.79066">
        <ele>207</ele>
        <time>2021-08-14T07:32:44.000Z</time>
      </trkpt>
      <trkpt lat="49.82488" lon="4.79066">
        <ele>207</ele>
        <time>2021-08-14T07:32:45.000Z</time>
      </trkpt>
      <trkpt lat="49.82493" lon="4.79066">
        <ele>206</ele>
        <time>2021-08-14T07:32:46.000Z</time>
      </trkpt>
      <trkpt lat="49.82498" lon="4.79066">
        <ele>206</ele>
        <time>2021-08-14T07:32:47.000Z</time>
      </trkpt>
      <trkpt lat="49.82503" lon="4.79066">
        <ele>206</ele>
        <time>2021-08-14T07:32:48.000Z</time>
      </trkpt>
      <trkpt lat="49.82508" lon="4.79067">
        <ele>207</ele>
        <time>2021-08-14T07:32:49.000Z</time>
      </trkpt>
      <trkpt lat="49.82512" lon="4.79068">
        <ele>207</ele>
        <time>2021-08-14T07:32:50.000Z</time>
      </trkpt>
      <trkpt lat="49.82517" lon="4.79069">
        <ele>207</ele>
        <time>2021-08-14T07:32:51.000Z</time>
      </trkpt>
      <trkpt lat="49.82521" lon="4.79071">
        <ele>207</ele>
        <time>2021-08-14T07:32:52.000Z</time>
      </trkpt>
      <trkpt lat="49.82526" lon="4.79072">
        <ele>207</ele>
        <time>2021-08-14T07:32:53.000Z</time>
      </trkpt>
      <trkpt lat="49.82531" lon="4.79073">
        <ele>207</ele>
        <time>2021-08-14T07:32:54.000Z</time>
      </trkpt>
      <trkpt lat="49.82536" lon="4.79074">
        <ele>208</ele>
        <time>2021-08-14T07:32:55.000Z</time>
      </trkpt>
      <trkpt lat="49.82542" lon="4.79075">
        <ele>208</ele>
        <time>2021-08-14T07:32:56.000Z</time>
      </trkpt>
      <trkpt lat="49.82547" lon="4.79076">
        <ele>208</ele>
        <time>2021-08-14T07:32:57.000Z</time>
      </trkpt>
      <trkpt lat="49.82553" lon="4.79077">
        <ele>208</ele>
        <time>2021-08-14T07:32:58.000Z</time>
      </trkpt>
      <trkpt lat="49.82559" lon="4.79079">
        <ele>208</ele>
        <time>2021-08-14T07:32:59.000Z</time>
      </trkpt>
      <trkpt lat="49.82564" lon="4.79079">
        <ele>208</ele>
        <time>2021-08-14T07:33:00.000Z</time>
      </trkpt>
      <trkpt lat="49.8257" lon="4.79081">
        <ele>209</ele>
        <time>2021-08-14T07:33:01.000Z</time>
      </trkpt>
      <trkpt lat="49.82575" lon="4.79082">
        <ele>209</ele>
        <time>2021-08-14T07:33:02.000Z</time>
      </trkpt>
      <trkpt lat="49.8258" lon="4.79083">
        <ele>209</ele>
        <time>2021-08-14T07:33:03.000Z</time>
      </trkpt>
      <trkpt lat="49.82586" lon="4.79085">
        <ele>209</ele>
        <time>2021-08-14T07:33:04.000Z</time>
      </trkpt>
      <trkpt lat="49.82591" lon="4.79086">
        <ele>209</ele>
        <time>2021-08-14T07:33:05.000Z</time>
      </trkpt>
      <trkpt lat="49.82597" lon="4.79087">
        <ele>209</ele>
        <time>2021-08-14T07:33:06.000Z</time>
      </trkpt>
      <trkpt lat="49.82602" lon="4.79089">
        <ele>210</ele>
        <time>2021-08-14T07:33:07.000Z</time>
      </trkpt>
      <trkpt lat="49.82608" lon="4.79091">
        <ele>210</ele>
        <time>2021-08-14T07:33:08.000Z</time>
      </trkpt>
      <trkpt lat="49.82613" lon="4.79093">
        <ele>210</ele>
        <time>2021-08-14T07:33:09.000Z</time>
      </trkpt>
      <trkpt lat="49.82618" lon="4.79095">
        <ele>210</ele>
        <time>2021-08-14T07:33:10.000Z</time>
      </trkpt>
      <trkpt lat="49.82623" lon="4.79097">
        <ele>210</ele>
        <time>2021-08-14T07:33:11.000Z</time>
      </trkpt>
      <trkpt lat="49.82628" lon="4.791">
        <ele>210</ele>
        <time>2021-08-14T07:33:12.000Z</time>
      </trkpt>
      <trkpt lat="49.82632" lon="4.79102">
        <ele>211</ele>
        <time>2021-08-14T07:33:13.000Z</time>
      </trkpt>
      <trkpt lat="49.82637" lon="4.79104">
        <ele>211</ele>
        <time>2021-08-14T07:33:14.000Z</time>
      </trkpt>
      <trkpt lat="49.82641" lon="4.79106">
        <ele>211</ele>
        <time>2021-08-14T07:33:15.000Z</time>
      </trkpt>
      <trkpt lat="49.82646" lon="4.79108">
        <ele>211</ele>
        <time>2021-08-14T07:33:16.000Z</time>
      </trkpt>
      <trkpt lat="49.8265" lon="4.7911">
        <ele>211</ele>
        <time>2021-08-14T07:33:17.000Z</time>
      </trkpt>
      <trkpt lat="49.82654" lon="4.79112">
        <ele>211</ele>
        <time>2021-08-14T07:33:18.000Z</time>
      </trkpt>
      <trkpt lat="49.82658" lon="4.79113">
        <ele>211</ele>
        <time>2021-08-14T07:33:19.000Z</time>
      </trkpt>
      <trkpt lat="49.82662" lon="4.79113">
        <ele>211</ele>
        <time>2021-08-14T07:33:20.000Z</time>
      </trkpt>
      <trkpt lat="49.82666" lon="4.79113">
        <ele>211</ele>
        <time>2021-08-14T07:33:21.000Z</time>
      </trkpt>
      <trkpt lat="49.8267" lon="4.79113">
        <ele>211</ele>
        <time>2021-08-14T07:33:22.000Z</time>
      </trkpt>
      <trkpt lat="49.82673" lon="4.79113">
        <ele>211</ele>
        <time>2021-08-14T07:33:23.000Z</time>
      </trkpt>
      <trkpt lat="49.82677" lon="4.79113">
        <ele>211</ele>
        <time>2021-08-14T07:33:24.000Z</time>
      </trkpt>
      <trkpt lat="49.82681" lon="4.79114">
        <ele>211</ele>
        <time>2021-08-14T07:33:25.000Z</time>
      </trkpt>
      <trkpt lat="49.82685" lon="4.79114">
        <ele>210</ele>
        <time>2021-08-14T07:33:26.000Z</time>
      </trkpt>
      <trkpt lat="49.8269" lon="4.79116">
        <ele>210</ele>
        <time>2021-08-14T07:33:27.000Z</time>
      </trkpt>
      <trkpt lat="49.82694" lon="4.79117">
        <ele>210</ele>
        <time>2021-08-14T07:33:28.000Z</time>
      </trkpt>
      <trkpt lat="49.82699" lon="4.79119">
        <ele>210</ele>
        <time>2021-08-14T07:33:29.000Z</time>
      </trkpt>
      <trkpt lat="49.82703" lon="4.79121">
        <ele>210</ele>
        <time>2021-08-14T07:33:30.000Z</time>
      </trkpt>
      <trkpt lat="49.82708" lon="4.79123">
        <ele>210</ele>
        <time>2021-08-14T07:33:31.000Z</time>
      </trkpt>
      <trkpt lat="49.82712" lon="4.79126">
        <ele>210</ele>
        <time>2021-08-14T07:33:32.000Z</time>
      </trkpt>
      <trkpt lat="49.82717" lon="4.79129">
        <ele>210</ele>
        <time>2021-08-14T07:33:33.000Z</time>
      </trkpt>
      <trkpt lat="49.82721" lon="4.79133">
        <ele>210</ele>
        <time>2021-08-14T07:33:34.000Z</time>
      </trkpt>
      <trkpt lat="49.82725" lon="4.79136">
        <ele>210</ele>
        <time>2021-08-14T07:33:35.000Z</time>
      </trkpt>
      <trkpt lat="49.82729" lon="4.7914">
        <ele>210</ele>
        <time>2021-08-14T07:33:36.000Z</time>
      </trkpt>
      <trkpt lat="49.82734" lon="4.79144">
        <ele>211</ele>
        <time>2021-08-14T07:33:37.000Z</time>
      </trkpt>
      <trkpt lat="49.82738" lon="4.79147">
        <ele>211</ele>
        <time>2021-08-14T07:33:38.000Z</time>
      </trkpt>
      <trkpt lat="49.82743" lon="4.79151">
        <ele>211</ele>
        <time>2021-08-14T07:33:39.000Z</time>
      </trkpt>
      <trkpt lat="49.82747" lon="4.79154">
        <ele>211</ele>
        <time>2021-08-14T07:33:40.000Z</time>
      </trkpt>
      <trkpt lat="49.82752" lon="4.79158">
        <ele>211</ele>
        <time>2021-08-14T07:33:41.000Z</time>
      </trkpt>
      <trkpt lat="49.82756" lon="4.79162">
        <ele>212</ele>
        <time>2021-08-14T07:33:42.000Z</time>
      </trkpt>
      <trkpt lat="49.82761" lon="4.79166">
        <ele>212</ele>
        <time>2021-08-14T07:33:43.000Z</time>
      </trkpt>
      <trkpt lat="49.82765" lon="4.7917">
        <ele>212</ele>
        <time>2021-08-14T07:33:44.000Z</time>
      </trkpt>
      <trkpt lat="49.8277" lon="4.79174">
        <ele>212</ele>
        <time>2021-08-14T07:33:45.000Z</time>
      </trkpt>
      <trkpt lat="49.82774" lon="4.79178">
        <ele>212</ele>
        <time>2021-08-14T07:33:46.000Z</time>
      </trkpt>
      <trkpt lat="49.82778" lon="4.79183">
        <ele>213</ele>
        <time>2021-08-14T07:33:47.000Z</time>
      </trkpt>
      <trkpt lat="49.82782" lon="4.79188">
        <ele>213</ele>
        <time>2021-08-14T07:33:48.000Z</time>
      </trkpt>
      <trkpt lat="49.82786" lon="4.79194">
        <ele>213</ele>
        <time>2021-08-14T07:33:49.000Z</time>
      </trkpt>
      <trkpt lat="49.8279" lon="4.79199">
        <ele>213</ele>
        <time>2021-08-14T07:33:50.000Z</time>
      </trkpt>
      <trkpt lat="49.82794" lon="4.79204">
        <ele>213</ele>
        <time>2021-08-14T07:33:51.000Z</time>
      </trkpt>
      <trkpt lat="49.82797" lon="4.79211">
        <ele>213</ele>
        <time>2021-08-14T07:33:52.000Z</time>
      </trkpt>
      <trkpt lat="49.828" lon="4.79217">
        <ele>213</ele>
        <time>2021-08-14T07:33:53.000Z</time>
      </trkpt>
      <trkpt lat="49.82802" lon="4.79223">
        <ele>213</ele>
        <time>2021-08-14T07:33:54.000Z</time>
      </trkpt>
      <trkpt lat="49.82805" lon="4.79229">
        <ele>212</ele>
        <time>2021-08-14T07:33:55.000Z</time>
      </trkpt>
      <trkpt lat="49.82808" lon="4.79235">
        <ele>212</ele>
        <time>2021-08-14T07:33:56.000Z</time>
      </trkpt>
      <trkpt lat="49.82811" lon="4.79241">
        <ele>212</ele>
        <time>2021-08-14T07:33:57.000Z</time>
      </trkpt>
      <trkpt lat="49.82814" lon="4.79247">
        <ele>212</ele>
        <time>2021-08-14T07:33:58.000Z</time>
      </trkpt>
      <trkpt lat="49.82817" lon="4.79253">
        <ele>212</ele>
        <time>2021-08-14T07:33:59.000Z</time>
      </trkpt>
      <trkpt lat="49.82821" lon="4.79258">
        <ele>212</ele>
        <time>2021-08-14T07:34:00.000Z</time>
      </trkpt>
      <trkpt lat="49.82824" lon="4.79263">
        <ele>212</ele>
        <time>2021-08-14T07:34:01.000Z</time>
      </trkpt>
      <trkpt lat="49.82827" lon="4.79268">
        <ele>212</ele>
        <time>2021-08-14T07:34:02.000Z</time>
      </trkpt>
      <trkpt lat="49.82831" lon="4.79272">
        <ele>212</ele>
        <time>2021-08-14T07:34:03.000Z</time>
      </trkpt>
      <trkpt lat="49.82835" lon="4.79276">
        <ele>211</ele>
        <time>2021-08-14T07:34:04.000Z</time>
      </trkpt>
      <trkpt lat="49.82839" lon="4.7928">
        <ele>211</ele>
        <time>2021-08-14T07:34:05.000Z</time>
      </trkpt>
      <trkpt lat="49.82843" lon="4.79284">
        <ele>211</ele>
        <time>2021-08-14T07:34:06.000Z</time>
      </trkpt>
      <trkpt lat="49.82848" lon="4.79289">
        <ele>211</ele>
        <time>2021-08-14T07:34:07.000Z</time>
      </trkpt>
      <trkpt lat="49.82852" lon="4.79293">
        <ele>211</ele>
        <time>2021-08-14T07:34:08.000Z</time>
      </trkpt>
      <trkpt lat="49.82856" lon="4.79298">
        <ele>212</ele>
        <time>2021-08-14T07:34:09.000Z</time>
      </trkpt>
      <trkpt lat="49.8286" lon="4.79304">
        <ele>212</ele>
        <time>2021-08-14T07:34:10.000Z</time>
      </trkpt>
      <trkpt lat="49.82863" lon="4.79309">
        <ele>212</ele>
        <time>2021-08-14T07:34:11.000Z</time>
      </trkpt>
      <trkpt lat="49.82867" lon="4.79315">
        <ele>212</ele>
        <time>2021-08-14T07:34:12.000Z</time>
      </trkpt>
      <trkpt lat="49.8287" lon="4.7932">
        <ele>212</ele>
        <time>2021-08-14T07:34:13.000Z</time>
      </trkpt>
      <trkpt lat="49.82873" lon="4.79325">
        <ele>212</ele>
        <time>2021-08-14T07:34:14.000Z</time>
      </trkpt>
      <trkpt lat="49.82875" lon="4.7933">
        <ele>212</ele>
        <time>2021-08-14T07:34:15.000Z</time>
      </trkpt>
      <trkpt lat="49.82878" lon="4.79334">
        <ele>212</ele>
        <time>2021-08-14T07:34:16.000Z</time>
      </trkpt>
      <trkpt lat="49.8288" lon="4.79338">
        <ele>211</ele>
        <time>2021-08-14T07:34:17.000Z</time>
      </trkpt>
      <trkpt lat="49.82883" lon="4.79342">
        <ele>211</ele>
        <time>2021-08-14T07:34:18.000Z</time>
      </trkpt>
      <trkpt lat="49.82885" lon="4.79346">
        <ele>211</ele>
        <time>2021-08-14T07:34:19.000Z</time>
      </trkpt>
      <trkpt lat="49.82887" lon="4.79351">
        <ele>211</ele>
        <time>2021-08-14T07:34:20.000Z</time>
      </trkpt>
      <trkpt lat="49.82889" lon="4.79355">
        <ele>211</ele>
        <time>2021-08-14T07:34:21.000Z</time>
      </trkpt>
      <trkpt lat="49.82891" lon="4.7936">
        <ele>211</ele>
        <time>2021-08-14T07:34:22.000Z</time>
      </trkpt>
      <trkpt lat="49.82893" lon="4.79365">
        <ele>211</ele>
        <time>2021-08-14T07:34:23.000Z</time>
      </trkpt>
      <trkpt lat="49.82895" lon="4.7937">
        <ele>211</ele>
        <time>2021-08-14T07:34:24.000Z</time>
      </trkpt>
      <trkpt lat="49.82897" lon="4.79375">
        <ele>211</ele>
        <time>2021-08-14T07:34:25.000Z</time>
      </trkpt>
      <trkpt lat="49.82899" lon="4.7938">
        <ele>211</ele>
        <time>2021-08-14T07:34:26.000Z</time>
      </trkpt>
      <trkpt lat="49.829" lon="4.79386">
        <ele>210</ele>
        <time>2021-08-14T07:34:27.000Z</time>
      </trkpt>
      <trkpt lat="49.82902" lon="4.79391">
        <ele>210</ele>
        <time>2021-08-14T07:34:28.000Z</time>
      </trkpt>
      <trkpt lat="49.82904" lon="4.79397">
        <ele>210</ele>
        <time>2021-08-14T07:34:29.000Z</time>
      </trkpt>
      <trkpt lat="49.82906" lon="4.79402">
        <ele>210</ele>
        <time>2021-08-14T07:34:30.000Z</time>
      </trkpt>
      <trkpt lat="49.82908" lon="4.79408">
        <ele>210</ele>
        <time>2021-08-14T07:34:31.000Z</time>
      </trkpt>
      <trkpt lat="49.82909" lon="4.79413">
        <ele>209</ele>
        <time>2021-08-14T07:34:32.000Z</time>
      </trkpt>
      <trkpt lat="49.82911" lon="4.79419">
        <ele>209</ele>
        <time>2021-08-14T07:34:33.000Z</time>
      </trkpt>
      <trkpt lat="49.82912" lon="4.79424">
        <ele>209</ele>
        <time>2021-08-14T07:34:34.000Z</time>
      </trkpt>
      <trkpt lat="49.82914" lon="4.79429">
        <ele>209</ele>
        <time>2021-08-14T07:34:35.000Z</time>
      </trkpt>
      <trkpt lat="49.82916" lon="4.79433">
        <ele>209</ele>
        <time>2021-08-14T07:34:36.000Z</time>
      </trkpt>
      <trkpt lat="49.82918" lon="4.79437">
        <ele>209</ele>
        <time>2021-08-14T07:34:37.000Z</time>
      </trkpt>
      <trkpt lat="49.82921" lon="4.79442">
        <ele>208</ele>
        <time>2021-08-14T07:34:38.000Z</time>
      </trkpt>
      <trkpt lat="49.82923" lon="4.79446">
        <ele>208</ele>
        <time>2021-08-14T07:34:39.000Z</time>
      </trkpt>
      <trkpt lat="49.82925" lon="4.7945">
        <ele>208</ele>
        <time>2021-08-14T07:34:40.000Z</time>
      </trkpt>
      <trkpt lat="49.82928" lon="4.79453">
        <ele>208</ele>
        <time>2021-08-14T07:34:41.000Z</time>
      </trkpt>
      <trkpt lat="49.8293" lon="4.79456">
        <ele>207</ele>
        <time>2021-08-14T07:34:42.000Z</time>
      </trkpt>
      <trkpt lat="49.82932" lon="4.79459">
        <ele>207</ele>
        <time>2021-08-14T07:34:43.000Z</time>
      </trkpt>
      <trkpt lat="49.82934" lon="4.79462">
        <ele>207</ele>
        <time>2021-08-14T07:34:44.000Z</time>
      </trkpt>
      <trkpt lat="49.82936" lon="4.79465">
        <ele>207</ele>
        <time>2021-08-14T07:34:45.000Z</time>
      </trkpt>
      <trkpt lat="49.82939" lon="4.79467">
        <ele>206</ele>
        <time>2021-08-14T07:34:46.000Z</time>
      </trkpt>
      <trkpt lat="49.82941" lon="4.79469">
        <ele>206</ele>
        <time>2021-08-14T07:34:47.000Z</time>
      </trkpt>
      <trkpt lat="49.82944" lon="4.79471">
        <ele>206</ele>
        <time>2021-08-14T07:34:48.000Z</time>
      </trkpt>
      <trkpt lat="49.82946" lon="4.79472">
        <ele>206</ele>
        <time>2021-08-14T07:34:49.000Z</time>
      </trkpt>
      <trkpt lat="49.82949" lon="4.79472">
        <ele>206</ele>
        <time>2021-08-14T07:34:50.000Z</time>
      </trkpt>
      <trkpt lat="49.82952" lon="4.79474">
        <ele>207</ele>
        <time>2021-08-14T07:34:51.000Z</time>
      </trkpt>
      <trkpt lat="49.82955" lon="4.79474">
        <ele>207</ele>
        <time>2021-08-14T07:34:52.000Z</time>
      </trkpt>
      <trkpt lat="49.82958" lon="4.79475">
        <ele>207</ele>
        <time>2021-08-14T07:34:53.000Z</time>
      </trkpt>
      <trkpt lat="49.82961" lon="4.79476">
        <ele>207</ele>
        <time>2021-08-14T07:34:54.000Z</time>
      </trkpt>
      <trkpt lat="49.82964" lon="4.79477">
        <ele>207</ele>
        <time>2021-08-14T07:34:55.000Z</time>
      </trkpt>
      <trkpt lat="49.82967" lon="4.79478">
        <ele>208</ele>
        <time>2021-08-14T07:34:56.000Z</time>
      </trkpt>
      <trkpt lat="49.8297" lon="4.79478">
        <ele>208</ele>
        <time>2021-08-14T07:34:57.000Z</time>
      </trkpt>
      <trkpt lat="49.82973" lon="4.79478">
        <ele>208</ele>
        <time>2021-08-14T07:34:58.000Z</time>
      </trkpt>
      <trkpt lat="49.82976" lon="4.79479">
        <ele>209</ele>
        <time>2021-08-14T07:34:59.000Z</time>
      </trkpt>
      <trkpt lat="49.82979" lon="4.7948">
        <ele>209</ele>
        <time>2021-08-14T07:35:00.000Z</time>
      </trkpt>
      <trkpt lat="49.82982" lon="4.79481">
        <ele>209</ele>
        <time>2021-08-14T07:35:01.000Z</time>
      </trkpt>
      <trkpt lat="49.82984" lon="4.79481">
        <ele>210</ele>
        <time>2021-08-14T07:35:02.000Z</time>
      </trkpt>
      <trkpt lat="49.82987" lon="4.79482">
        <ele>210</ele>
        <time>2021-08-14T07:35:03.000Z</time>
      </trkpt>
      <trkpt lat="49.8299" lon="4.79482">
        <ele>211</ele>
        <time>2021-08-14T07:35:04.000Z</time>
      </trkpt>
      <trkpt lat="49.82993" lon="4.79482">
        <ele>211</ele>
        <time>2021-08-14T07:35:05.000Z</time>
      </trkpt>
      <trkpt lat="49.82995" lon="4.79481">
        <ele>211</ele>
        <time>2021-08-14T07:35:06.000Z</time>
      </trkpt>
      <trkpt lat="49.82998" lon="4.79481">
        <ele>212</ele>
        <time>2021-08-14T07:35:07.000Z</time>
      </trkpt>
      <trkpt lat="49.83" lon="4.79481">
        <ele>212</ele>
        <time>2021-08-14T07:35:08.000Z</time>
      </trkpt>
      <trkpt lat="49.83002" lon="4.79482">
        <ele>212</ele>
        <time>2021-08-14T07:35:09.000Z</time>
      </trkpt>
      <trkpt lat="49.83004" lon="4.79481">
        <ele>213</ele>
        <time>2021-08-14T07:35:10.000Z</time>
      </trkpt>
      <trkpt lat="49.83006" lon="4.79482">
        <ele>213</ele>
        <time>2021-08-14T07:35:11.000Z</time>
      </trkpt>
      <trkpt lat="49.83008" lon="4.79482">
        <ele>214</ele>
        <time>2021-08-14T07:35:12.000Z</time>
      </trkpt>
      <trkpt lat="49.8301" lon="4.79482">
        <ele>214</ele>
        <time>2021-08-14T07:35:13.000Z</time>
      </trkpt>
      <trkpt lat="49.83012" lon="4.79483">
        <ele>214</ele>
        <time>2021-08-14T07:35:14.000Z</time>
      </trkpt>
      <trkpt lat="49.83014" lon="4.79483">
        <ele>214</ele>
        <time>2021-08-14T07:35:15.000Z</time>
      </trkpt>
      <trkpt lat="49.83015" lon="4.79483">
        <ele>215</ele>
        <time>2021-08-14T07:35:16.000Z</time>
      </trkpt>
      <trkpt lat="49.83017" lon="4.79483">
        <ele>215</ele>
        <time>2021-08-14T07:35:17.000Z</time>
      </trkpt>
      <trkpt lat="49.83019" lon="4.79483">
        <ele>215</ele>
        <time>2021-08-14T07:35:18.000Z</time>
      </trkpt>
      <trkpt lat="49.83021" lon="4.79483">
        <ele>215</ele>
        <time>2021-08-14T07:35:19.000Z</time>
      </trkpt>
      <trkpt lat="49.83023" lon="4.79483">
        <ele>216</ele>
        <time>2021-08-14T07:35:20.000Z</time>
      </trkpt>
      <trkpt lat="49.83025" lon="4.79483">
        <ele>216</ele>
        <time>2021-08-14T07:35:21.000Z</time>
      </trkpt>
      <trkpt lat="49.83027" lon="4.79482">
        <ele>216</ele>
        <time>2021-08-14T07:35:22.000Z</time>
      </trkpt>
      <trkpt lat="49.83029" lon="4.79482">
        <ele>216</ele>
        <time>2021-08-14T07:35:23.000Z</time>
      </trkpt>
      <trkpt lat="49.83031" lon="4.79482">
        <ele>217</ele>
        <time>2021-08-14T07:35:24.000Z</time>
      </trkpt>
      <trkpt lat="49.83033" lon="4.79482">
        <ele>217</ele>
        <time>2021-08-14T07:35:25.000Z</time>
      </trkpt>
      <trkpt lat="49.83035" lon="4.79482">
        <ele>217</ele>
        <time>2021-08-14T07:35:26.000Z</time>
      </trkpt>
      <trkpt lat="49.83037" lon="4.79483">
        <ele>218</ele>
        <time>2021-08-14T07:35:27.000Z</time>
      </trkpt>
      <trkpt lat="49.83038" lon="4.79483">
        <ele>218</ele>
        <time>2021-08-14T07:35:28.000Z</time>
      </trkpt>
      <trkpt lat="49.8304" lon="4.79483">
        <ele>218</ele>
        <time>2021-08-14T07:35:29.000Z</time>
      </trkpt>
      <trkpt lat="49.83042" lon="4.79483">
        <ele>219</ele>
        <time>2021-08-14T07:35:30.000Z</time>
      </trkpt>
      <trkpt lat="49.83044" lon="4.79483">
        <ele>219</ele>
        <time>2021-08-14T07:35:31.000Z</time>
      </trkpt>
      <trkpt lat="49.83045" lon="4.79484">
        <ele>219</ele>
        <time>2021-08-14T07:35:32.000Z</time>
      </trkpt>
      <trkpt lat="49.83048" lon="4.79484">
        <ele>220</ele>
        <time>2021-08-14T07:35:33.000Z</time>
      </trkpt>
      <trkpt lat="49.8305" lon="4.79485">
        <ele>220</ele>
        <time>2021-08-14T07:35:34.000Z</time>
      </trkpt>
      <trkpt lat="49.83052" lon="4.79485">
        <ele>220</ele>
        <time>2021-08-14T07:35:35.000Z</time>
      </trkpt>
      <trkpt lat="49.83054" lon="4.79485">
        <ele>221</ele>
        <time>2021-08-14T07:35:36.000Z</time>
      </trkpt>
      <trkpt lat="49.83055" lon="4.79485">
        <ele>221</ele>
        <time>2021-08-14T07:35:37.000Z</time>
      </trkpt>
      <trkpt lat="49.83057" lon="4.79485">
        <ele>221</ele>
        <time>2021-08-14T07:35:38.000Z</time>
      </trkpt>
      <trkpt lat="49.83059" lon="4.79485">
        <ele>222</ele>
        <time>2021-08-14T07:35:39.000Z</time>
      </trkpt>
      <trkpt lat="49.83062" lon="4.79484">
        <ele>222</ele>
        <time>2021-08-14T07:35:40.000Z</time>
      </trkpt>
      <trkpt lat="49.83064" lon="4.79484">
        <ele>222</ele>
        <time>2021-08-14T07:35:41.000Z</time>
      </trkpt>
      <trkpt lat="49.83066" lon="4.79484">
        <ele>223</ele>
        <time>2021-08-14T07:35:42.000Z</time>
      </trkpt>
      <trkpt lat="49.83067" lon="4.79483">
        <ele>223</ele>
        <time>2021-08-14T07:35:43.000Z</time>
      </trkpt>
      <trkpt lat="49.83069" lon="4.79483">
        <ele>223</ele>
        <time>2021-08-14T07:35:44.000Z</time>
      </trkpt>
      <trkpt lat="49.83071" lon="4.79482">
        <ele>224</ele>
        <time>2021-08-14T07:35:45.000Z</time>
      </trkpt>
      <trkpt lat="49.83073" lon="4.79481">
        <ele>224</ele>
        <time>2021-08-14T07:35:46.000Z</time>
      </trkpt>
      <trkpt lat="49.83075" lon="4.7948">
        <ele>224</ele>
        <time>2021-08-14T07:35:47.000Z</time>
      </trkpt>
      <trkpt lat="49.83076" lon="4.79477">
        <ele>224</ele>
        <time>2021-08-14T07:35:48.000Z</time>
      </trkpt>
      <trkpt lat="49.83076" lon="4.79475">
        <ele>224</ele>
        <time>2021-08-14T07:35:49.000Z</time>
      </trkpt>
      <trkpt lat="49.83076" lon="4.79472">
        <ele>224</ele>
        <time>2021-08-14T07:35:50.000Z</time>
      </trkpt>
      <trkpt lat="49.83074" lon="4.7947">
        <ele>224</ele>
        <time>2021-08-14T07:35:51.000Z</time>
      </trkpt>
      <trkpt lat="49.83072" lon="4.79467">
        <ele>224</ele>
        <time>2021-08-14T07:35:52.000Z</time>
      </trkpt>
      <trkpt lat="49.83069" lon="4.79466">
        <ele>224</ele>
        <time>2021-08-14T07:35:53.000Z</time>
      </trkpt>
      <trkpt lat="49.83066" lon="4.79465">
        <ele>225</ele>
        <time>2021-08-14T07:35:54.000Z</time>
      </trkpt>
      <trkpt lat="49.83064" lon="4.79464">
        <ele>224</ele>
        <time>2021-08-14T07:35:55.000Z</time>
      </trkpt>
      <trkpt lat="49.8306" lon="4.79464">
        <ele>224</ele>
        <time>2021-08-14T07:35:56.000Z</time>
      </trkpt>
      <trkpt lat="49.83057" lon="4.79463">
        <ele>224</ele>
        <time>2021-08-14T07:35:57.000Z</time>
      </trkpt>
      <trkpt lat="49.83054" lon="4.79462">
        <ele>224</ele>
        <time>2021-08-14T07:35:58.000Z</time>
      </trkpt>
      <trkpt lat="49.83051" lon="4.79461">
        <ele>224</ele>
        <time>2021-08-14T07:35:59.000Z</time>
      </trkpt>
      <trkpt lat="49.83048" lon="4.79459">
        <ele>224</ele>
        <time>2021-08-14T07:36:00.000Z</time>
      </trkpt>
      <trkpt lat="49.83045" lon="4.79458">
        <ele>224</ele>
        <time>2021-08-14T07:36:01.000Z</time>
      </trkpt>
      <trkpt lat="49.83042" lon="4.79456">
        <ele>225</ele>
        <time>2021-08-14T07:36:02.000Z</time>
      </trkpt>
      <trkpt lat="49.83039" lon="4.79454">
        <ele>225</ele>
        <time>2021-08-14T07:36:03.000Z</time>
      </trkpt>
      <trkpt lat="49.83037" lon="4.79452">
        <ele>225</ele>
        <time>2021-08-14T07:36:04.000Z</time>
      </trkpt>
      <trkpt lat="49.83034" lon="4.7945">
        <ele>225</ele>
        <time>2021-08-14T07:36:05.000Z</time>
      </trkpt>
      <trkpt lat="49.83032" lon="4.79447">
        <ele>225</ele>
        <time>2021-08-14T07:36:06.000Z</time>
      </trkpt>
      <trkpt lat="49.8303" lon="4.79445">
        <ele>225</ele>
        <time>2021-08-14T07:36:07.000Z</time>
      </trkpt>
      <trkpt lat="49.83028" lon="4.79444">
        <ele>225</ele>
        <time>2021-08-14T07:36:08.000Z</time>
      </trkpt>
      <trkpt lat="49.83026" lon="4.79442">
        <ele>225</ele>
        <time>2021-08-14T07:36:09.000Z</time>
      </trkpt>
      <trkpt lat="49.83025" lon="4.7944">
        <ele>226</ele>
        <time>2021-08-14T07:36:10.000Z</time>
      </trkpt>
      <trkpt lat="49.83023" lon="4.79438">
        <ele>226</ele>
        <time>2021-08-14T07:36:11.000Z</time>
      </trkpt>
      <trkpt lat="49.83021" lon="4.79436">
        <ele>226</ele>
        <time>2021-08-14T07:36:12.000Z</time>
      </trkpt>
      <trkpt lat="49.8302" lon="4.79434">
        <ele>226</ele>
        <time>2021-08-14T07:36:13.000Z</time>
      </trkpt>
      <trkpt lat="49.83018" lon="4.79432">
        <ele>226</ele>
        <time>2021-08-14T07:36:14.000Z</time>
      </trkpt>
      <trkpt lat="49.83016" lon="4.79431">
        <ele>226</ele>
        <time>2021-08-14T07:36:15.000Z</time>
      </trkpt>
      <trkpt lat="49.83014" lon="4.79428">
        <ele>226</ele>
        <time>2021-08-14T07:36:16.000Z</time>
      </trkpt>
      <trkpt lat="49.83013" lon="4.79426">
        <ele>227</ele>
        <time>2021-08-14T07:36:17.000Z</time>
      </trkpt>
      <trkpt lat="49.83011" lon="4.79424">
        <ele>227</ele>
        <time>2021-08-14T07:36:18.000Z</time>
      </trkpt>
      <trkpt lat="49.8301" lon="4.79422">
        <ele>227</ele>
        <time>2021-08-14T07:36:19.000Z</time>
      </trkpt>
      <trkpt lat="49.83008" lon="4.79419">
        <ele>227</ele>
        <time>2021-08-14T07:36:20.000Z</time>
      </trkpt>
      <trkpt lat="49.83006" lon="4.79417">
        <ele>227</ele>
        <time>2021-08-14T07:36:21.000Z</time>
      </trkpt>
      <trkpt lat="49.83004" lon="4.79415">
        <ele>228</ele>
        <time>2021-08-14T07:36:22.000Z</time>
      </trkpt>
      <trkpt lat="49.83003" lon="4.79413">
        <ele>228</ele>
        <time>2021-08-14T07:36:23.000Z</time>
      </trkpt>
      <trkpt lat="49.83001" lon="4.79411">
        <ele>228</ele>
        <time>2021-08-14T07:36:24.000Z</time>
      </trkpt>
      <trkpt lat="49.82999" lon="4.79408">
        <ele>229</ele>
        <time>2021-08-14T07:36:25.000Z</time>
      </trkpt>
      <trkpt lat="49.82997" lon="4.79406">
        <ele>229</ele>
        <time>2021-08-14T07:36:26.000Z</time>
      </trkpt>
      <trkpt lat="49.82995" lon="4.79403">
        <ele>229</ele>
        <time>2021-08-14T07:36:27.000Z</time>
      </trkpt>
      <trkpt lat="49.82993" lon="4.79401">
        <ele>230</ele>
        <time>2021-08-14T07:36:28.000Z</time>
      </trkpt>
      <trkpt lat="49.82991" lon="4.79399">
        <ele>230</ele>
        <time>2021-08-14T07:36:29.000Z</time>
      </trkpt>
      <trkpt lat="49.82989" lon="4.79397">
        <ele>230</ele>
        <time>2021-08-14T07:36:30.000Z</time>
      </trkpt>
      <trkpt lat="49.82987" lon="4.79395">
        <ele>230</ele>
        <time>2021-08-14T07:36:31.000Z</time>
      </trkpt>
      <trkpt lat="49.82985" lon="4.79392">
        <ele>231</ele>
        <time>2021-08-14T07:36:32.000Z</time>
      </trkpt>
      <trkpt lat="49.82983" lon="4.7939">
        <ele>231</ele>
        <time>2021-08-14T07:36:33.000Z</time>
      </trkpt>
      <trkpt lat="49.82982" lon="4.79387">
        <ele>231</ele>
        <time>2021-08-14T07:36:34.000Z</time>
      </trkpt>
      <trkpt lat="49.8298" lon="4.79385">
        <ele>232</ele>
        <time>2021-08-14T07:36:35.000Z</time>
      </trkpt>
      <trkpt lat="49.82978" lon="4.79383">
        <ele>232</ele>
        <time>2021-08-14T07:36:36.000Z</time>
      </trkpt>
      <trkpt lat="49.82976" lon="4.79381">
        <ele>232</ele>
        <time>2021-08-14T07:36:37.000Z</time>
      </trkpt>
      <trkpt lat="49.82974" lon="4.79379">
        <ele>233</ele>
        <time>2021-08-14T07:36:38.000Z</time>
      </trkpt>
      <trkpt lat="49.82972" lon="4.79377">
        <ele>233</ele>
        <time>2021-08-14T07:36:39.000Z</time>
      </trkpt>
      <trkpt lat="49.8297" lon="4.79375">
        <ele>234</ele>
        <time>2021-08-14T07:36:40.000Z</time>
      </trkpt>
      <trkpt lat="49.82969" lon="4.79374">
        <ele>234</ele>
        <time>2021-08-14T07:36:41.000Z</time>
      </trkpt>
      <trkpt lat="49.82967" lon="4.79372">
        <ele>234</ele>
        <time>2021-08-14T07:36:42.000Z</time>
      </trkpt>
      <trkpt lat="49.82965" lon="4.7937">
        <ele>235</ele>
        <time>2021-08-14T07:36:43.000Z</time>
      </trkpt>
      <trkpt lat="49.82963" lon="4.79368">
        <ele>235</ele>
        <time>2021-08-14T07:36:44.000Z</time>
      </trkpt>
      <trkpt lat="49.82962" lon="4.79366">
        <ele>235</ele>
        <time>2021-08-14T07:36:45.000Z</time>
      </trkpt>
      <trkpt lat="49.8296" lon="4.79364">
        <ele>236</ele>
        <time>2021-08-14T07:36:46.000Z</time>
      </trkpt>
      <trkpt lat="49.82958" lon="4.79362">
        <ele>236</ele>
        <time>2021-08-14T07:36:47.000Z</time>
      </trkpt>
      <trkpt lat="49.82957" lon="4.7936">
        <ele>236</ele>
        <time>2021-08-14T07:36:48.000Z</time>
      </trkpt>
      <trkpt lat="49.82955" lon="4.79358">
        <ele>237</ele>
        <time>2021-08-14T07:36:49.000Z</time>
      </trkpt>
      <trkpt lat="49.82954" lon="4.79356">
        <ele>237</ele>
        <time>2021-08-14T07:36:50.000Z</time>
      </trkpt>
      <trkpt lat="49.82952" lon="4.79354">
        <ele>237</ele>
        <time>2021-08-14T07:36:51.000Z</time>
      </trkpt>
      <trkpt lat="49.82951" lon="4.79351">
        <ele>238</ele>
        <time>2021-08-14T07:36:52.000Z</time>
      </trkpt>
      <trkpt lat="49.82949" lon="4.79349">
        <ele>238</ele>
        <time>2021-08-14T07:36:53.000Z</time>
      </trkpt>
      <trkpt lat="49.82948" lon="4.79346">
        <ele>238</ele>
        <time>2021-08-14T07:36:54.000Z</time>
      </trkpt>
      <trkpt lat="49.82947" lon="4.79344">
        <ele>238</ele>
        <time>2021-08-14T07:36:55.000Z</time>
      </trkpt>
      <trkpt lat="49.82946" lon="4.79341">
        <ele>238</ele>
        <time>2021-08-14T07:36:56.000Z</time>
      </trkpt>
      <trkpt lat="49.82945" lon="4.79338">
        <ele>238</ele>
        <time>2021-08-14T07:36:57.000Z</time>
      </trkpt>
      <trkpt lat="49.82944" lon="4.79335">
        <ele>239</ele>
        <time>2021-08-14T07:36:58.000Z</time>
      </trkpt>
      <trkpt lat="49.82943" lon="4.79332">
        <ele>239</ele>
        <time>2021-08-14T07:36:59.000Z</time>
      </trkpt>
      <trkpt lat="49.82943" lon="4.7933">
        <ele>239</ele>
        <time>2021-08-14T07:37:00.000Z</time>
      </trkpt>
      <trkpt lat="49.82942" lon="4.79327">
        <ele>239</ele>
        <time>2021-08-14T07:37:01.000Z</time>
      </trkpt>
      <trkpt lat="49.82941" lon="4.79324">
        <ele>239</ele>
        <time>2021-08-14T07:37:02.000Z</time>
      </trkpt>
      <trkpt lat="49.8294" lon="4.79321">
        <ele>239</ele>
        <time>2021-08-14T07:37:03.000Z</time>
      </trkpt>
      <trkpt lat="49.8294" lon="4.79318">
        <ele>239</ele>
        <time>2021-08-14T07:37:04.000Z</time>
      </trkpt>
      <trkpt lat="49.8294" lon="4.79315">
        <ele>239</ele>
        <time>2021-08-14T07:37:05.000Z</time>
      </trkpt>
      <trkpt lat="49.82939" lon="4.79311">
        <ele>239</ele>
        <time>2021-08-14T07:37:06.000Z</time>
      </trkpt>
      <trkpt lat="49.82939" lon="4.79308">
        <ele>239</ele>
        <time>2021-08-14T07:37:07.000Z</time>
      </trkpt>
      <trkpt lat="49.82939" lon="4.79305">
        <ele>239</ele>
        <time>2021-08-14T07:37:08.000Z</time>
      </trkpt>
      <trkpt lat="49.82938" lon="4.79302">
        <ele>240</ele>
        <time>2021-08-14T07:37:09.000Z</time>
      </trkpt>
      <trkpt lat="49.82937" lon="4.79298">
        <ele>240</ele>
        <time>2021-08-14T07:37:10.000Z</time>
      </trkpt>
      <trkpt lat="49.82937" lon="4.79295">
        <ele>240</ele>
        <time>2021-08-14T07:37:11.000Z</time>
      </trkpt>
      <trkpt lat="49.82937" lon="4.79292">
        <ele>240</ele>
        <time>2021-08-14T07:37:12.000Z</time>
      </trkpt>
      <trkpt lat="49.82937" lon="4.79289">
        <ele>240</ele>
        <time>2021-08-14T07:37:13.000Z</time>
      </trkpt>
      <trkpt lat="49.82937" lon="4.79285">
        <ele>240</ele>
        <time>2021-08-14T07:37:14.000Z</time>
      </trkpt>
      <trkpt lat="49.82936" lon="4.79281">
        <ele>240</ele>
        <time>2021-08-14T07:37:15.000Z</time>
      </trkpt>
      <trkpt lat="49.82937" lon="4.79278">
        <ele>240</ele>
        <time>2021-08-14T07:37:16.000Z</time>
      </trkpt>
      <trkpt lat="49.82937" lon="4.79274">
        <ele>240</ele>
        <time>2021-08-14T07:37:17.000Z</time>
      </trkpt>
      <trkpt lat="49.82937" lon="4.7927">
        <ele>240</ele>
        <time>2021-08-14T07:37:18.000Z</time>
      </trkpt>
      <trkpt lat="49.82938" lon="4.79267">
        <ele>239</ele>
        <time>2021-08-14T07:37:19.000Z</time>
      </trkpt>
      <trkpt lat="49.82938" lon="4.79263">
        <ele>239</ele>
        <time>2021-08-14T07:37:20.000Z</time>
      </trkpt>
      <trkpt lat="49.82939" lon="4.79259">
        <ele>239</ele>
        <time>2021-08-14T07:37:21.000Z</time>
      </trkpt>
      <trkpt lat="49.82939" lon="4.79254">
        <ele>239</ele>
        <time>2021-08-14T07:37:22.000Z</time>
      </trkpt>
      <trkpt lat="49.8294" lon="4.7925">
        <ele>239</ele>
        <time>2021-08-14T07:37:23.000Z</time>
      </trkpt>
      <trkpt lat="49.82941" lon="4.79246">
        <ele>239</ele>
        <time>2021-08-14T07:37:24.000Z</time>
      </trkpt>
      <trkpt lat="49.82941" lon="4.79242">
        <ele>239</ele>
        <time>2021-08-14T07:37:25.000Z</time>
      </trkpt>
      <trkpt lat="49.82942" lon="4.79237">
        <ele>238</ele>
        <time>2021-08-14T07:37:26.000Z</time>
      </trkpt>
      <trkpt lat="49.82943" lon="4.79233">
        <ele>238</ele>
        <time>2021-08-14T07:37:27.000Z</time>
      </trkpt>
      <trkpt lat="49.82944" lon="4.79229">
        <ele>238</ele>
        <time>2021-08-14T07:37:28.000Z</time>
      </trkpt>
      <trkpt lat="49.82945" lon="4.79225">
        <ele>238</ele>
        <time>2021-08-14T07:37:29.000Z</time>
      </trkpt>
      <trkpt lat="49.82945" lon="4.79221">
        <ele>238</ele>
        <time>2021-08-14T07:37:30.000Z</time>
      </trkpt>
      <trkpt lat="49.82946" lon="4.79217">
        <ele>238</ele>
        <time>2021-08-14T07:37:31.000Z</time>
      </trkpt>
      <trkpt lat="49.82946" lon="4.79214">
        <ele>238</ele>
        <time>2021-08-14T07:37:32.000Z</time>
      </trkpt>
      <trkpt lat="49.82947" lon="4.7921">
        <ele>238</ele>
        <time>2021-08-14T07:37:33.000Z</time>
      </trkpt>
      <trkpt lat="49.82947" lon="4.79207">
        <ele>238</ele>
        <time>2021-08-14T07:37:34.000Z</time>
      </trkpt>
      <trkpt lat="49.82948" lon="4.79204">
        <ele>238</ele>
        <time>2021-08-14T07:37:35.000Z</time>
      </trkpt>
      <trkpt lat="49.82949" lon="4.79201">
        <ele>238</ele>
        <time>2021-08-14T07:37:36.000Z</time>
      </trkpt>
      <trkpt lat="49.8295" lon="4.79199">
        <ele>239</ele>
        <time>2021-08-14T07:37:37.000Z</time>
      </trkpt>
      <trkpt lat="49.82951" lon="4.79196">
        <ele>239</ele>
        <time>2021-08-14T07:37:38.000Z</time>
      </trkpt>
      <trkpt lat="49.82951" lon="4.79193">
        <ele>239</ele>
        <time>2021-08-14T07:37:39.000Z</time>
      </trkpt>
      <trkpt lat="49.82951" lon="4.79189">
        <ele>239</ele>
        <time>2021-08-14T07:37:40.000Z</time>
      </trkpt>
      <trkpt lat="49.82951" lon="4.79186">
        <ele>239</ele>
        <time>2021-08-14T07:37:41.000Z</time>
      </trkpt>
      <trkpt lat="49.82951" lon="4.79182">
        <ele>239</ele>
        <time>2021-08-14T07:37:42.000Z</time>
      </trkpt>
      <trkpt lat="49.82951" lon="4.79178">
        <ele>240</ele>
        <time>2021-08-14T07:37:43.000Z</time>
      </trkpt>
      <trkpt lat="49.8295" lon="4.79175">
        <ele>240</ele>
        <time>2021-08-14T07:37:44.000Z</time>
      </trkpt>
      <trkpt lat="49.8295" lon="4.79171">
        <ele>240</ele>
        <time>2021-08-14T07:37:45.000Z</time>
      </trkpt>
      <trkpt lat="49.82949" lon="4.79168">
        <ele>241</ele>
        <time>2021-08-14T07:37:46.000Z</time>
      </trkpt>
      <trkpt lat="49.82949" lon="4.79165">
        <ele>241</ele>
        <time>2021-08-14T07:37:47.000Z</time>
      </trkpt>
      <trkpt lat="49.82949" lon="4.79161">
        <ele>241</ele>
        <time>2021-08-14T07:37:48.000Z</time>
      </trkpt>
      <trkpt lat="49.82948" lon="4.79158">
        <ele>242</ele>
        <time>2021-08-14T07:37:49.000Z</time>
      </trkpt>
      <trkpt lat="49.82948" lon="4.79154">
        <ele>242</ele>
        <time>2021-08-14T07:37:50.000Z</time>
      </trkpt>
      <trkpt lat="49.82947" lon="4.79151">
        <ele>242</ele>
        <time>2021-08-14T07:37:51.000Z</time>
      </trkpt>
      <trkpt lat="49.82947" lon="4.79148">
        <ele>243</ele>
        <time>2021-08-14T07:37:52.000Z</time>
      </trkpt>
      <trkpt lat="49.82945" lon="4.79145">
        <ele>243</ele>
        <time>2021-08-14T07:37:53.000Z</time>
      </trkpt>
      <trkpt lat="49.82944" lon="4.79142">
        <ele>243</ele>
        <time>2021-08-14T07:37:54.000Z</time>
      </trkpt>
      <trkpt lat="49.82943" lon="4.79139">
        <ele>244</ele>
        <time>2021-08-14T07:37:55.000Z</time>
      </trkpt>
      <trkpt lat="49.82943" lon="4.79136">
        <ele>244</ele>
        <time>2021-08-14T07:37:56.000Z</time>
      </trkpt>
      <trkpt lat="49.82942" lon="4.79133">
        <ele>244</ele>
        <time>2021-08-14T07:37:57.000Z</time>
      </trkpt>
      <trkpt lat="49.82941" lon="4.7913">
        <ele>245</ele>
        <time>2021-08-14T07:37:58.000Z</time>
      </trkpt>
      <trkpt lat="49.82941" lon="4.79128">
        <ele>245</ele>
        <time>2021-08-14T07:37:59.000Z</time>
      </trkpt>
      <trkpt lat="49.82939" lon="4.79125">
        <ele>245</ele>
        <time>2021-08-14T07:38:00.000Z</time>
      </trkpt>
      <trkpt lat="49.82938" lon="4.79123">
        <ele>246</ele>
        <time>2021-08-14T07:38:01.000Z</time>
      </trkpt>
      <trkpt lat="49.82937" lon="4.79119">
        <ele>246</ele>
        <time>2021-08-14T07:38:02.000Z</time>
      </trkpt>
      <trkpt lat="49.82935" lon="4.79116">
        <ele>246</ele>
        <time>2021-08-14T07:38:03.000Z</time>
      </trkpt>
      <trkpt lat="49.82934" lon="4.79112">
        <ele>247</ele>
        <time>2021-08-14T07:38:04.000Z</time>
      </trkpt>
      <trkpt lat="49.82932" lon="4.79109">
        <ele>247</ele>
        <time>2021-08-14T07:38:05.000Z</time>
      </trkpt>
      <trkpt lat="49.82931" lon="4.79105">
        <ele>247</ele>
        <time>2021-08-14T07:38:06.000Z</time>
      </trkpt>
      <trkpt lat="49.8293" lon="4.79102">
        <ele>247</ele>
        <time>2021-08-14T07:38:07.000Z</time>
      </trkpt>
      <trkpt lat="49.82928" lon="4.79098">
        <ele>247</ele>
        <time>2021-08-14T07:38:08.000Z</time>
      </trkpt>
      <trkpt lat="49.82926" lon="4.79095">
        <ele>248</ele>
        <time>2021-08-14T07:38:09.000Z</time>
      </trkpt>
      <trkpt lat="49.82924" lon="4.79092">
        <ele>248</ele>
        <time>2021-08-14T07:38:10.000Z</time>
      </trkpt>
      <trkpt lat="49.82922" lon="4.79089">
        <ele>248</ele>
        <time>2021-08-14T07:38:11.000Z</time>
      </trkpt>
      <trkpt lat="49.8292" lon="4.79086">
        <ele>249</ele>
        <time>2021-08-14T07:38:12.000Z</time>
      </trkpt>
      <trkpt lat="49.82918" lon="4.79083">
        <ele>249</ele>
        <time>2021-08-14T07:38:13.000Z</time>
      </trkpt>
      <trkpt lat="49.82915" lon="4.79081">
        <ele>249</ele>
        <time>2021-08-14T07:38:14.000Z</time>
      </trkpt>
      <trkpt lat="49.82912" lon="4.79078">
        <ele>250</ele>
        <time>2021-08-14T07:38:15.000Z</time>
      </trkpt>
      <trkpt lat="49.8291" lon="4.79076">
        <ele>250</ele>
        <time>2021-08-14T07:38:16.000Z</time>
      </trkpt>
      <trkpt lat="49.82907" lon="4.79073">
        <ele>250</ele>
        <time>2021-08-14T07:38:17.000Z</time>
      </trkpt>
      <trkpt lat="49.82904" lon="4.79071">
        <ele>250</ele>
        <time>2021-08-14T07:38:18.000Z</time>
      </trkpt>
      <trkpt lat="49.82901" lon="4.79068">
        <ele>250</ele>
        <time>2021-08-14T07:38:19.000Z</time>
      </trkpt>
      <trkpt lat="49.82898" lon="4.79066">
        <ele>250</ele>
        <time>2021-08-14T07:38:20.000Z</time>
      </trkpt>
      <trkpt lat="49.82895" lon="4.79064">
        <ele>251</ele>
        <time>2021-08-14T07:38:21.000Z</time>
      </trkpt>
      <trkpt lat="49.82893" lon="4.79062">
        <ele>251</ele>
        <time>2021-08-14T07:38:22.000Z</time>
      </trkpt>
      <trkpt lat="49.8289" lon="4.7906">
        <ele>251</ele>
        <time>2021-08-14T07:38:23.000Z</time>
      </trkpt>
      <trkpt lat="49.82888" lon="4.79058">
        <ele>252</ele>
        <time>2021-08-14T07:38:24.000Z</time>
      </trkpt>
      <trkpt lat="49.82885" lon="4.79055">
        <ele>252</ele>
        <time>2021-08-14T07:38:25.000Z</time>
      </trkpt>
      <trkpt lat="49.82883" lon="4.79052">
        <ele>252</ele>
        <time>2021-08-14T07:38:26.000Z</time>
      </trkpt>
      <trkpt lat="49.82881" lon="4.7905">
        <ele>253</ele>
        <time>2021-08-14T07:38:27.000Z</time>
      </trkpt>
      <trkpt lat="49.82879" lon="4.79048">
        <ele>253</ele>
        <time>2021-08-14T07:38:28.000Z</time>
      </trkpt>
      <trkpt lat="49.82877" lon="4.79045">
        <ele>253</ele>
        <time>2021-08-14T07:38:29.000Z</time>
      </trkpt>
      <trkpt lat="49.82875" lon="4.79042">
        <ele>253</ele>
        <time>2021-08-14T07:38:30.000Z</time>
      </trkpt>
      <trkpt lat="49.82873" lon="4.7904">
        <ele>253</ele>
        <time>2021-08-14T07:38:31.000Z</time>
      </trkpt>
      <trkpt lat="49.82871" lon="4.79038">
        <ele>254</ele>
        <time>2021-08-14T07:38:32.000Z</time>
      </trkpt>
      <trkpt lat="49.8287" lon="4.79036">
        <ele>254</ele>
        <time>2021-08-14T07:38:33.000Z</time>
      </trkpt>
      <trkpt lat="49.82868" lon="4.79034">
        <ele>254</ele>
        <time>2021-08-14T07:38:34.000Z</time>
      </trkpt>
      <trkpt lat="49.82867" lon="4.79032">
        <ele>254</ele>
        <time>2021-08-14T07:38:35.000Z</time>
      </trkpt>
      <trkpt lat="49.82865" lon="4.7903">
        <ele>255</ele>
        <time>2021-08-14T07:38:36.000Z</time>
      </trkpt>
      <trkpt lat="49.82864" lon="4.79028">
        <ele>255</ele>
        <time>2021-08-14T07:38:37.000Z</time>
      </trkpt>
      <trkpt lat="49.82862" lon="4.79026">
        <ele>255</ele>
        <time>2021-08-14T07:38:38.000Z</time>
      </trkpt>
      <trkpt lat="49.82861" lon="4.79023">
        <ele>256</ele>
        <time>2021-08-14T07:38:39.000Z</time>
      </trkpt>
      <trkpt lat="49.82859" lon="4.79021">
        <ele>256</ele>
        <time>2021-08-14T07:38:40.000Z</time>
      </trkpt>
      <trkpt lat="49.82857" lon="4.7902">
        <ele>257</ele>
        <time>2021-08-14T07:38:41.000Z</time>
      </trkpt>
      <trkpt lat="49.82856" lon="4.79018">
        <ele>257</ele>
        <time>2021-08-14T07:38:42.000Z</time>
      </trkpt>
      <trkpt lat="49.82855" lon="4.79015">
        <ele>257</ele>
        <time>2021-08-14T07:38:43.000Z</time>
      </trkpt>
      <trkpt lat="49.82853" lon="4.79012">
        <ele>258</ele>
        <time>2021-08-14T07:38:44.000Z</time>
      </trkpt>
      <trkpt lat="49.82852" lon="4.7901">
        <ele>258</ele>
        <time>2021-08-14T07:38:45.000Z</time>
      </trkpt>
      <trkpt lat="49.82852" lon="4.79007">
        <ele>259</ele>
        <time>2021-08-14T07:38:46.000Z</time>
      </trkpt>
      <trkpt lat="49.82851" lon="4.79004">
        <ele>259</ele>
        <time>2021-08-14T07:38:47.000Z</time>
      </trkpt>
      <trkpt lat="49.82851" lon="4.79001">
        <ele>259</ele>
        <time>2021-08-14T07:38:48.000Z</time>
      </trkpt>
      <trkpt lat="49.8285" lon="4.78998">
        <ele>260</ele>
        <time>2021-08-14T07:38:49.000Z</time>
      </trkpt>
      <trkpt lat="49.8285" lon="4.78995">
        <ele>260</ele>
        <time>2021-08-14T07:38:50.000Z</time>
      </trkpt>
      <trkpt lat="49.8285" lon="4.78992">
        <ele>260</ele>
        <time>2021-08-14T07:38:51.000Z</time>
      </trkpt>
      <trkpt lat="49.8285" lon="4.78989">
        <ele>260</ele>
        <time>2021-08-14T07:38:52.000Z</time>
      </trkpt>
      <trkpt lat="49.82851" lon="4.78986">
        <ele>261</ele>
        <time>2021-08-14T07:38:53.000Z</time>
      </trkpt>
      <trkpt lat="49.82852" lon="4.78983">
        <ele>261</ele>
        <time>2021-08-14T07:38:54.000Z</time>
      </trkpt>
      <trkpt lat="49.82853" lon="4.7898">
        <ele>261</ele>
        <time>2021-08-14T07:38:55.000Z</time>
      </trkpt>
      <trkpt lat="49.82853" lon="4.78978">
        <ele>261</ele>
        <time>2021-08-14T07:38:56.000Z</time>
      </trkpt>
      <trkpt lat="49.82855" lon="4.78975">
        <ele>262</ele>
        <time>2021-08-14T07:38:57.000Z</time>
      </trkpt>
      <trkpt lat="49.82856" lon="4.78974">
        <ele>262</ele>
        <time>2021-08-14T07:38:58.000Z</time>
      </trkpt>
      <trkpt lat="49.82858" lon="4.78972">
        <ele>262</ele>
        <time>2021-08-14T07:38:59.000Z</time>
      </trkpt>
      <trkpt lat="49.82859" lon="4.7897">
        <ele>262</ele>
        <time>2021-08-14T07:39:00.000Z</time>
      </trkpt>
      <trkpt lat="49.82861" lon="4.7897">
        <ele>262</ele>
        <time>2021-08-14T07:39:01.000Z</time>
      </trkpt>
      <trkpt lat="49.82863" lon="4.7897">
        <ele>262</ele>
        <time>2021-08-14T07:39:02.000Z</time>
      </trkpt>
      <trkpt lat="49.82865" lon="4.78971">
        <ele>262</ele>
        <time>2021-08-14T07:39:03.000Z</time>
      </trkpt>
      <trkpt lat="49.82866" lon="4.78972">
        <ele>263</ele>
        <time>2021-08-14T07:39:04.000Z</time>
      </trkpt>
      <trkpt lat="49.82868" lon="4.78972">
        <ele>263</ele>
        <time>2021-08-14T07:39:05.000Z</time>
      </trkpt>
      <trkpt lat="49.8287" lon="4.78973">
        <ele>263</ele>
        <time>2021-08-14T07:39:06.000Z</time>
      </trkpt>
      <trkpt lat="49.82872" lon="4.78974">
        <ele>263</ele>
        <time>2021-08-14T07:39:07.000Z</time>
      </trkpt>
      <trkpt lat="49.82873" lon="4.78975">
        <ele>263</ele>
        <time>2021-08-14T07:39:08.000Z</time>
      </trkpt>
      <trkpt lat="49.82875" lon="4.78976">
        <ele>264</ele>
        <time>2021-08-14T07:39:09.000Z</time>
      </trkpt>
      <trkpt lat="49.82877" lon="4.78979">
        <ele>264</ele>
        <time>2021-08-14T07:39:10.000Z</time>
      </trkpt>
      <trkpt lat="49.82879" lon="4.78981">
        <ele>264</ele>
        <time>2021-08-14T07:39:11.000Z</time>
      </trkpt>
      <trkpt lat="49.8288" lon="4.78983">
        <ele>264</ele>
        <time>2021-08-14T07:39:12.000Z</time>
      </trkpt>
      <trkpt lat="49.82883" lon="4.78985">
        <ele>265</ele>
        <time>2021-08-14T07:39:13.000Z</time>
      </trkpt>
      <trkpt lat="49.82885" lon="4.78987">
        <ele>265</ele>
        <time>2021-08-14T07:39:14.000Z</time>
      </trkpt>
      <trkpt lat="49.82888" lon="4.78989">
        <ele>265</ele>
        <time>2021-08-14T07:39:15.000Z</time>
      </trkpt>
      <trkpt lat="49.8289" lon="4.78991">
        <ele>265</ele>
        <time>2021-08-14T07:39:16.000Z</time>
      </trkpt>
      <trkpt lat="49.82893" lon="4.78993">
        <ele>266</ele>
        <time>2021-08-14T07:39:17.000Z</time>
      </trkpt>
      <trkpt lat="49.82895" lon="4.78996">
        <ele>266</ele>
        <time>2021-08-14T07:39:18.000Z</time>
      </trkpt>
      <trkpt lat="49.82898" lon="4.78998">
        <ele>266</ele>
        <time>2021-08-14T07:39:19.000Z</time>
      </trkpt>
      <trkpt lat="49.829" lon="4.79">
        <ele>267</ele>
        <time>2021-08-14T07:39:20.000Z</time>
      </trkpt>
      <trkpt lat="49.82902" lon="4.79002">
        <ele>267</ele>
        <time>2021-08-14T07:39:21.000Z</time>
      </trkpt>
      <trkpt lat="49.82905" lon="4.79005">
        <ele>267</ele>
        <time>2021-08-14T07:39:22.000Z</time>
      </trkpt>
      <trkpt lat="49.82906" lon="4.79007">
        <ele>268</ele>
        <time>2021-08-14T07:39:23.000Z</time>
      </trkpt>
      <trkpt lat="49.82908" lon="4.79009">
        <ele>268</ele>
        <time>2021-08-14T07:39:24.000Z</time>
      </trkpt>
      <trkpt lat="49.8291" lon="4.79011">
        <ele>269</ele>
        <time>2021-08-14T07:39:25.000Z</time>
      </trkpt>
      <trkpt lat="49.82911" lon="4.79013">
        <ele>269</ele>
        <time>2021-08-14T07:39:26.000Z</time>
      </trkpt>
      <trkpt lat="49.82913" lon="4.79015">
        <ele>270</ele>
        <time>2021-08-14T07:39:27.000Z</time>
      </trkpt>
      <trkpt lat="49.82914" lon="4.79016">
        <ele>270</ele>
        <time>2021-08-14T07:39:28.000Z</time>
      </trkpt>
      <trkpt lat="49.82916" lon="4.79018">
        <ele>270</ele>
        <time>2021-08-14T07:39:29.000Z</time>
      </trkpt>
      <trkpt lat="49.82918" lon="4.7902">
        <ele>271</ele>
        <time>2021-08-14T07:39:30.000Z</time>
      </trkpt>
      <trkpt lat="49.8292" lon="4.79022">
        <ele>271</ele>
        <time>2021-08-14T07:39:31.000Z</time>
      </trkpt>
      <trkpt lat="49.82922" lon="4.79024">
        <ele>271</ele>
        <time>2021-08-14T07:39:32.000Z</time>
      </trkpt>
      <trkpt lat="49.82924" lon="4.79025">
        <ele>272</ele>
        <time>2021-08-14T07:39:33.000Z</time>
      </trkpt>
      <trkpt lat="49.82926" lon="4.79027">
        <ele>272</ele>
        <time>2021-08-14T07:39:34.000Z</time>
      </trkpt>
      <trkpt lat="49.82928" lon="4.79029">
        <ele>272</ele>
        <time>2021-08-14T07:39:35.000Z</time>
      </trkpt>
      <trkpt lat="49.8293" lon="4.79031">
        <ele>273</ele>
        <time>2021-08-14T07:39:36.000Z</time>
      </trkpt>
      <trkpt lat="49.82931" lon="4.79033">
        <ele>273</ele>
        <time>2021-08-14T07:39:37.000Z</time>
      </trkpt>
      <trkpt lat="49.82934" lon="4.79035">
        <ele>273</ele>
        <time>2021-08-14T07:39:38.000Z</time>
      </trkpt>
      <trkpt lat="49.82936" lon="4.79037">
        <ele>273</ele>
        <time>2021-08-14T07:39:39.000Z</time>
      </trkpt>
      <trkpt lat="49.82939" lon="4.79038">
        <ele>274</ele>
        <time>2021-08-14T07:39:40.000Z</time>
      </trkpt>
      <trkpt lat="49.82941" lon="4.7904">
        <ele>274</ele>
        <time>2021-08-14T07:39:41.000Z</time>
      </trkpt>
      <trkpt lat="49.82943" lon="4.79042">
        <ele>275</ele>
        <time>2021-08-14T07:39:42.000Z</time>
      </trkpt>
      <trkpt lat="49.82945" lon="4.79043">
        <ele>275</ele>
        <time>2021-08-14T07:39:43.000Z</time>
      </trkpt>
      <trkpt lat="49.82947" lon="4.79045">
        <ele>275</ele>
        <time>2021-08-14T07:39:44.000Z</time>
      </trkpt>
      <trkpt lat="49.82949" lon="4.79047">
        <ele>276</ele>
        <time>2021-08-14T07:39:45.000Z</time>
      </trkpt>
      <trkpt lat="49.82951" lon="4.7905">
        <ele>276</ele>
        <time>2021-08-14T07:39:46.000Z</time>
      </trkpt>
      <trkpt lat="49.82953" lon="4.79052">
        <ele>276</ele>
        <time>2021-08-14T07:39:47.000Z</time>
      </trkpt>
      <trkpt lat="49.82955" lon="4.79053">
        <ele>277</ele>
        <time>2021-08-14T07:39:48.000Z</time>
      </trkpt>
      <trkpt lat="49.82956" lon="4.79055">
        <ele>277</ele>
        <time>2021-08-14T07:39:49.000Z</time>
      </trkpt>
      <trkpt lat="49.82958" lon="4.79057">
        <ele>277</ele>
        <time>2021-08-14T07:39:50.000Z</time>
      </trkpt>
      <trkpt lat="49.8296" lon="4.79059">
        <ele>278</ele>
        <time>2021-08-14T07:39:51.000Z</time>
      </trkpt>
      <trkpt lat="49.82961" lon="4.79061">
        <ele>278</ele>
        <time>2021-08-14T07:39:52.000Z</time>
      </trkpt>
      <trkpt lat="49.82963" lon="4.79063">
        <ele>278</ele>
        <time>2021-08-14T07:39:53.000Z</time>
      </trkpt>
      <trkpt lat="49.82964" lon="4.79065">
        <ele>278</ele>
        <time>2021-08-14T07:39:54.000Z</time>
      </trkpt>
      <trkpt lat="49.82966" lon="4.79066">
        <ele>278</ele>
        <time>2021-08-14T07:39:55.000Z</time>
      </trkpt>
      <trkpt lat="49.82968" lon="4.79068">
        <ele>279</ele>
        <time>2021-08-14T07:39:56.000Z</time>
      </trkpt>
      <trkpt lat="49.8297" lon="4.7907">
        <ele>279</ele>
        <time>2021-08-14T07:39:57.000Z</time>
      </trkpt>
      <trkpt lat="49.82971" lon="4.79072">
        <ele>279</ele>
        <time>2021-08-14T07:39:58.000Z</time>
      </trkpt>
      <trkpt lat="49.82973" lon="4.79074">
        <ele>279</ele>
        <time>2021-08-14T07:39:59.000Z</time>
      </trkpt>
      <trkpt lat="49.82974" lon="4.79075">
        <ele>279</ele>
        <time>2021-08-14T07:40:00.000Z</time>
      </trkpt>
      <trkpt lat="49.82976" lon="4.79077">
        <ele>279</ele>
        <time>2021-08-14T07:40:01.000Z</time>
      </trkpt>
      <trkpt lat="49.82978" lon="4.79079">
        <ele>279</ele>
        <time>2021-08-14T07:40:02.000Z</time>
      </trkpt>
      <trkpt lat="49.82979" lon="4.79081">
        <ele>279</ele>
        <time>2021-08-14T07:40:03.000Z</time>
      </trkpt>
      <trkpt lat="49.82981" lon="4.79083">
        <ele>279</ele>
        <time>2021-08-14T07:40:04.000Z</time>
      </trkpt>
      <trkpt lat="49.82983" lon="4.79084">
        <ele>279</ele>
        <time>2021-08-14T07:40:05.000Z</time>
      </trkpt>
      <trkpt lat="49.82985" lon="4.79086">
        <ele>279</ele>
        <time>2021-08-14T07:40:06.000Z</time>
      </trkpt>
      <trkpt lat="49.82987" lon="4.79088">
        <ele>279</ele>
        <time>2021-08-14T07:40:07.000Z</time>
      </trkpt>
      <trkpt lat="49.82988" lon="4.79089">
        <ele>279</ele>
        <time>2021-08-14T07:40:08.000Z</time>
      </trkpt>
      <trkpt lat="49.8299" lon="4.7909">
        <ele>280</ele>
        <time>2021-08-14T07:40:09.000Z</time>
      </trkpt>
      <trkpt lat="49.82992" lon="4.79092">
        <ele>280</ele>
        <time>2021-08-14T07:40:10.000Z</time>
      </trkpt>
      <trkpt lat="49.82993" lon="4.79094">
        <ele>280</ele>
        <time>2021-08-14T07:40:11.000Z</time>
      </trkpt>
      <trkpt lat="49.82995" lon="4.79096">
        <ele>280</ele>
        <time>2021-08-14T07:40:12.000Z</time>
      </trkpt>
      <trkpt lat="49.82997" lon="4.79097">
        <ele>280</ele>
        <time>2021-08-14T07:40:13.000Z</time>
      </trkpt>
      <trkpt lat="49.82998" lon="4.79099">
        <ele>280</ele>
        <time>2021-08-14T07:40:14.000Z</time>
      </trkpt>
      <trkpt lat="49.83" lon="4.791">
        <ele>280</ele>
        <time>2021-08-14T07:40:15.000Z</time>
      </trkpt>
      <trkpt lat="49.83002" lon="4.79102">
        <ele>280</ele>
        <time>2021-08-14T07:40:16.000Z</time>
      </trkpt>
      <trkpt lat="49.83003" lon="4.79103">
        <ele>281</ele>
        <time>2021-08-14T07:40:17.000Z</time>
      </trkpt>
      <trkpt lat="49.83005" lon="4.79103">
        <ele>281</ele>
        <time>2021-08-14T07:40:18.000Z</time>
      </trkpt>
      <trkpt lat="49.83007" lon="4.79104">
        <ele>281</ele>
        <time>2021-08-14T07:40:19.000Z</time>
      </trkpt>
      <trkpt lat="49.83008" lon="4.79105">
        <ele>281</ele>
        <time>2021-08-14T07:40:20.000Z</time>
      </trkpt>
      <trkpt lat="49.8301" lon="4.79105">
        <ele>281</ele>
        <time>2021-08-14T07:40:21.000Z</time>
      </trkpt>
      <trkpt lat="49.83012" lon="4.79106">
        <ele>281</ele>
        <time>2021-08-14T07:40:22.000Z</time>
      </trkpt>
      <trkpt lat="49.83014" lon="4.79106">
        <ele>281</ele>
        <time>2021-08-14T07:40:23.000Z</time>
      </trkpt>
      <trkpt lat="49.83015" lon="4.79107">
        <ele>281</ele>
        <time>2021-08-14T07:40:24.000Z</time>
      </trkpt>
      <trkpt lat="49.83017" lon="4.79107">
        <ele>282</ele>
        <time>2021-08-14T07:40:25.000Z</time>
      </trkpt>
      <trkpt lat="49.83019" lon="4.79107">
        <ele>282</ele>
        <time>2021-08-14T07:40:26.000Z</time>
      </trkpt>
      <trkpt lat="49.83021" lon="4.79108">
        <ele>282</ele>
        <time>2021-08-14T07:40:27.000Z</time>
      </trkpt>
      <trkpt lat="49.83023" lon="4.79109">
        <ele>282</ele>
        <time>2021-08-14T07:40:28.000Z</time>
      </trkpt>
      <trkpt lat="49.83026" lon="4.7911">
        <ele>282</ele>
        <time>2021-08-14T07:40:29.000Z</time>
      </trkpt>
      <trkpt lat="49.83028" lon="4.79111">
        <ele>282</ele>
        <time>2021-08-14T07:40:30.000Z</time>
      </trkpt>
      <trkpt lat="49.83031" lon="4.79112">
        <ele>282</ele>
        <time>2021-08-14T07:40:31.000Z</time>
      </trkpt>
      <trkpt lat="49.83033" lon="4.79114">
        <ele>282</ele>
        <time>2021-08-14T07:40:32.000Z</time>
      </trkpt>
      <trkpt lat="49.83036" lon="4.79116">
        <ele>282</ele>
        <time>2021-08-14T07:40:33.000Z</time>
      </trkpt>
      <trkpt lat="49.83038" lon="4.79118">
        <ele>282</ele>
        <time>2021-08-14T07:40:34.000Z</time>
      </trkpt>
      <trkpt lat="49.83041" lon="4.7912">
        <ele>282</ele>
        <time>2021-08-14T07:40:35.000Z</time>
      </trkpt>
      <trkpt lat="49.83043" lon="4.79123">
        <ele>282</ele>
        <time>2021-08-14T07:40:36.000Z</time>
      </trkpt>
      <trkpt lat="49.83045" lon="4.79126">
        <ele>282</ele>
        <time>2021-08-14T07:40:37.000Z</time>
      </trkpt>
      <trkpt lat="49.83047" lon="4.79129">
        <ele>282</ele>
        <time>2021-08-14T07:40:38.000Z</time>
      </trkpt>
      <trkpt lat="49.83049" lon="4.79132">
        <ele>282</ele>
        <time>2021-08-14T07:40:39.000Z</time>
      </trkpt>
      <trkpt lat="49.83051" lon="4.79136">
        <ele>282</ele>
        <time>2021-08-14T07:40:40.000Z</time>
      </trkpt>
      <trkpt lat="49.83052" lon="4.7914">
        <ele>283</ele>
        <time>2021-08-14T07:40:41.000Z</time>
      </trkpt>
      <trkpt lat="49.83054" lon="4.79143">
        <ele>283</ele>
        <time>2021-08-14T07:40:42.000Z</time>
      </trkpt>
      <trkpt lat="49.83055" lon="4.79148">
        <ele>283</ele>
        <time>2021-08-14T07:40:43.000Z</time>
      </trkpt>
      <trkpt lat="49.83057" lon="4.79152">
        <ele>283</ele>
        <time>2021-08-14T07:40:44.000Z</time>
      </trkpt>
      <trkpt lat="49.83058" lon="4.79156">
        <ele>283</ele>
        <time>2021-08-14T07:40:45.000Z</time>
      </trkpt>
      <trkpt lat="49.8306" lon="4.7916">
        <ele>283</ele>
        <time>2021-08-14T07:40:46.000Z</time>
      </trkpt>
      <trkpt lat="49.83061" lon="4.79163">
        <ele>283</ele>
        <time>2021-08-14T07:40:47.000Z</time>
      </trkpt>
      <trkpt lat="49.83062" lon="4.79167">
        <ele>283</ele>
        <time>2021-08-14T07:40:48.000Z</time>
      </trkpt>
      <trkpt lat="49.83063" lon="4.79171">
        <ele>283</ele>
        <time>2021-08-14T07:40:49.000Z</time>
      </trkpt>
      <trkpt lat="49.83064" lon="4.79174">
        <ele>284</ele>
        <time>2021-08-14T07:40:50.000Z</time>
      </trkpt>
      <trkpt lat="49.83064" lon="4.79176">
        <ele>284</ele>
        <time>2021-08-14T07:40:51.000Z</time>
      </trkpt>
      <trkpt lat="49.83065" lon="4.79179">
        <ele>284</ele>
        <time>2021-08-14T07:40:52.000Z</time>
      </trkpt>
      <trkpt lat="49.83066" lon="4.79182">
        <ele>284</ele>
        <time>2021-08-14T07:40:53.000Z</time>
      </trkpt>
      <trkpt lat="49.83067" lon="4.79185">
        <ele>284</ele>
        <time>2021-08-14T07:40:54.000Z</time>
      </trkpt>
      <trkpt lat="49.83068" lon="4.79187">
        <ele>284</ele>
        <time>2021-08-14T07:40:55.000Z</time>
      </trkpt>
      <trkpt lat="49.83069" lon="4.79189">
        <ele>284</ele>
        <time>2021-08-14T07:40:56.000Z</time>
      </trkpt>
      <trkpt lat="49.8307" lon="4.79192">
        <ele>285</ele>
        <time>2021-08-14T07:40:57.000Z</time>
      </trkpt>
      <trkpt lat="49.83071" lon="4.79195">
        <ele>285</ele>
        <time>2021-08-14T07:40:58.000Z</time>
      </trkpt>
      <trkpt lat="49.83072" lon="4.79197">
        <ele>285</ele>
        <time>2021-08-14T07:40:59.000Z</time>
      </trkpt>
      <trkpt lat="49.83073" lon="4.792">
        <ele>286</ele>
        <time>2021-08-14T07:41:00.000Z</time>
      </trkpt>
      <trkpt lat="49.83075" lon="4.79202">
        <ele>286</ele>
        <time>2021-08-14T07:41:01.000Z</time>
      </trkpt>
      <trkpt lat="49.83076" lon="4.79205">
        <ele>287</ele>
        <time>2021-08-14T07:41:02.000Z</time>
      </trkpt>
      <trkpt lat="49.83077" lon="4.79207">
        <ele>287</ele>
        <time>2021-08-14T07:41:03.000Z</time>
      </trkpt>
      <trkpt lat="49.83079" lon="4.79209">
        <ele>287</ele>
        <time>2021-08-14T07:41:04.000Z</time>
      </trkpt>
      <trkpt lat="49.83081" lon="4.79211">
        <ele>288</ele>
        <time>2021-08-14T07:41:05.000Z</time>
      </trkpt>
      <trkpt lat="49.83083" lon="4.79213">
        <ele>288</ele>
        <time>2021-08-14T07:41:06.000Z</time>
      </trkpt>
      <trkpt lat="49.83085" lon="4.79214">
        <ele>289</ele>
        <time>2021-08-14T07:41:07.000Z</time>
      </trkpt>
      <trkpt lat="49.83087" lon="4.79215">
        <ele>289</ele>
        <time>2021-08-14T07:41:08.000Z</time>
      </trkpt>
      <trkpt lat="49.83089" lon="4.79215">
        <ele>289</ele>
        <time>2021-08-14T07:41:09.000Z</time>
      </trkpt>
      <trkpt lat="49.83091" lon="4.79216">
        <ele>290</ele>
        <time>2021-08-14T07:41:10.000Z</time>
      </trkpt>
      <trkpt lat="49.83094" lon="4.79217">
        <ele>290</ele>
        <time>2021-08-14T07:41:11.000Z</time>
      </trkpt>
      <trkpt lat="49.83097" lon="4.79217">
        <ele>291</ele>
        <time>2021-08-14T07:41:12.000Z</time>
      </trkpt>
      <trkpt lat="49.83099" lon="4.79217">
        <ele>291</ele>
        <time>2021-08-14T07:41:13.000Z</time>
      </trkpt>
      <trkpt lat="49.83102" lon="4.79217">
        <ele>291</ele>
        <time>2021-08-14T07:41:14.000Z</time>
      </trkpt>
      <trkpt lat="49.83104" lon="4.79216">
        <ele>292</ele>
        <time>2021-08-14T07:41:15.000Z</time>
      </trkpt>
      <trkpt lat="49.83107" lon="4.79216">
        <ele>292</ele>
        <time>2021-08-14T07:41:16.000Z</time>
      </trkpt>
      <trkpt lat="49.83109" lon="4.79215">
        <ele>292</ele>
        <time>2021-08-14T07:41:17.000Z</time>
      </trkpt>
      <trkpt lat="49.83112" lon="4.79215">
        <ele>292</ele>
        <time>2021-08-14T07:41:18.000Z</time>
      </trkpt>
      <trkpt lat="49.83114" lon="4.79215">
        <ele>293</ele>
        <time>2021-08-14T07:41:19.000Z</time>
      </trkpt>
      <trkpt lat="49.83116" lon="4.79215">
        <ele>293</ele>
        <time>2021-08-14T07:41:20.000Z</time>
      </trkpt>
      <trkpt lat="49.83119" lon="4.79215">
        <ele>293</ele>
        <time>2021-08-14T07:41:21.000Z</time>
      </trkpt>
      <trkpt lat="49.83121" lon="4.79215">
        <ele>294</ele>
        <time>2021-08-14T07:41:22.000Z</time>
      </trkpt>
      <trkpt lat="49.83123" lon="4.79216">
        <ele>294</ele>
        <time>2021-08-14T07:41:23.000Z</time>
      </trkpt>
      <trkpt lat="49.83126" lon="4.79216">
        <ele>294</ele>
        <time>2021-08-14T07:41:24.000Z</time>
      </trkpt>
      <trkpt lat="49.83128" lon="4.79217">
        <ele>294</ele>
        <time>2021-08-14T07:41:25.000Z</time>
      </trkpt>
      <trkpt lat="49.8313" lon="4.79218">
        <ele>295</ele>
        <time>2021-08-14T07:41:26.000Z</time>
      </trkpt>
      <trkpt lat="49.83132" lon="4.79219">
        <ele>295</ele>
        <time>2021-08-14T07:41:27.000Z</time>
      </trkpt>
      <trkpt lat="49.83134" lon="4.7922">
        <ele>295</ele>
        <time>2021-08-14T07:41:28.000Z</time>
      </trkpt>
      <trkpt lat="49.83137" lon="4.79222">
        <ele>295</ele>
        <time>2021-08-14T07:41:29.000Z</time>
      </trkpt>
      <trkpt lat="49.83139" lon="4.79223">
        <ele>295</ele>
        <time>2021-08-14T07:41:30.000Z</time>
      </trkpt>
      <trkpt lat="49.83141" lon="4.79223">
        <ele>296</ele>
        <time>2021-08-14T07:41:31.000Z</time>
      </trkpt>
      <trkpt lat="49.83143" lon="4.79224">
        <ele>296</ele>
        <time>2021-08-14T07:41:32.000Z</time>
      </trkpt>
      <trkpt lat="49.83146" lon="4.79224">
        <ele>296</ele>
        <time>2021-08-14T07:41:33.000Z</time>
      </trkpt>
      <trkpt lat="49.83148" lon="4.79225">
        <ele>296</ele>
        <time>2021-08-14T07:41:34.000Z</time>
      </trkpt>
      <trkpt lat="49.8315" lon="4.79225">
        <ele>296</ele>
        <time>2021-08-14T07:41:35.000Z</time>
      </trkpt>
      <trkpt lat="49.83152" lon="4.79226">
        <ele>297</ele>
        <time>2021-08-14T07:41:36.000Z</time>
      </trkpt>
      <trkpt lat="49.83154" lon="4.79226">
        <ele>297</ele>
        <time>2021-08-14T07:41:37.000Z</time>
      </trkpt>
      <trkpt lat="49.83156" lon="4.79226">
        <ele>297</ele>
        <time>2021-08-14T07:41:38.000Z</time>
      </trkpt>
      <trkpt lat="49.83157" lon="4.79225">
        <ele>297</ele>
        <time>2021-08-14T07:41:39.000Z</time>
      </trkpt>
      <trkpt lat="49.83159" lon="4.79225">
        <ele>297</ele>
        <time>2021-08-14T07:41:40.000Z</time>
      </trkpt>
      <trkpt lat="49.83161" lon="4.79225">
        <ele>298</ele>
        <time>2021-08-14T07:41:41.000Z</time>
      </trkpt>
      <trkpt lat="49.83163" lon="4.79225">
        <ele>298</ele>
        <time>2021-08-14T07:41:42.000Z</time>
      </trkpt>
      <trkpt lat="49.83165" lon="4.79225">
        <ele>298</ele>
        <time>2021-08-14T07:41:43.000Z</time>
      </trkpt>
      <trkpt lat="49.83167" lon="4.79224">
        <ele>298</ele>
        <time>2021-08-14T07:41:44.000Z</time>
      </trkpt>
      <trkpt lat="49.83169" lon="4.79224">
        <ele>298</ele>
        <time>2021-08-14T07:41:45.000Z</time>
      </trkpt>
      <trkpt lat="49.8317" lon="4.79223">
        <ele>299</ele>
        <time>2021-08-14T07:41:46.000Z</time>
      </trkpt>
      <trkpt lat="49.83172" lon="4.79222">
        <ele>299</ele>
        <time>2021-08-14T07:41:47.000Z</time>
      </trkpt>
      <trkpt lat="49.83174" lon="4.79221">
        <ele>299</ele>
        <time>2021-08-14T07:41:48.000Z</time>
      </trkpt>
      <trkpt lat="49.83176" lon="4.79219">
        <ele>299</ele>
        <time>2021-08-14T07:41:49.000Z</time>
      </trkpt>
      <trkpt lat="49.83178" lon="4.79218">
        <ele>299</ele>
        <time>2021-08-14T07:41:50.000Z</time>
      </trkpt>
      <trkpt lat="49.8318" lon="4.79217">
        <ele>299</ele>
        <time>2021-08-14T07:41:51.000Z</time>
      </trkpt>
      <trkpt lat="49.83182" lon="4.79216">
        <ele>299</ele>
        <time>2021-08-14T07:41:52.000Z</time>
      </trkpt>
      <trkpt lat="49.83184" lon="4.79214">
        <ele>299</ele>
        <time>2021-08-14T07:41:53.000Z</time>
      </trkpt>
      <trkpt lat="49.83186" lon="4.79212">
        <ele>299</ele>
        <time>2021-08-14T07:41:54.000Z</time>
      </trkpt>
      <trkpt lat="49.83188" lon="4.7921">
        <ele>299</ele>
        <time>2021-08-14T07:41:55.000Z</time>
      </trkpt>
      <trkpt lat="49.8319" lon="4.79207">
        <ele>298</ele>
        <time>2021-08-14T07:41:56.000Z</time>
      </trkpt>
      <trkpt lat="49.83192" lon="4.79204">
        <ele>298</ele>
        <time>2021-08-14T07:41:57.000Z</time>
      </trkpt>
      <trkpt lat="49.83194" lon="4.79202">
        <ele>298</ele>
        <time>2021-08-14T07:41:58.000Z</time>
      </trkpt>
      <trkpt lat="49.83195" lon="4.79199">
        <ele>298</ele>
        <time>2021-08-14T07:41:59.000Z</time>
      </trkpt>
      <trkpt lat="49.83196" lon="4.79195">
        <ele>298</ele>
        <time>2021-08-14T07:42:00.000Z</time>
      </trkpt>
      <trkpt lat="49.83196" lon="4.79192">
        <ele>298</ele>
        <time>2021-08-14T07:42:01.000Z</time>
      </trkpt>
      <trkpt lat="49.83197" lon="4.79188">
        <ele>298</ele>
        <time>2021-08-14T07:42:02.000Z</time>
      </trkpt>
      <trkpt lat="49.83197" lon="4.79184">
        <ele>298</ele>
        <time>2021-08-14T07:42:03.000Z</time>
      </trkpt>
      <trkpt lat="49.83198" lon="4.79181">
        <ele>298</ele>
        <time>2021-08-14T07:42:04.000Z</time>
      </trkpt>
      <trkpt lat="49.83199" lon="4.79177">
        <ele>298</ele>
        <time>2021-08-14T07:42:05.000Z</time>
      </trkpt>
      <trkpt lat="49.832" lon="4.79174">
        <ele>298</ele>
        <time>2021-08-14T07:42:06.000Z</time>
      </trkpt>
      <trkpt lat="49.83201" lon="4.79171">
        <ele>298</ele>
        <time>2021-08-14T07:42:07.000Z</time>
      </trkpt>
      <trkpt lat="49.83202" lon="4.79168">
        <ele>298</ele>
        <time>2021-08-14T07:42:08.000Z</time>
      </trkpt>
      <trkpt lat="49.83203" lon="4.79165">
        <ele>298</ele>
        <time>2021-08-14T07:42:09.000Z</time>
      </trkpt>
      <trkpt lat="49.83204" lon="4.79162">
        <ele>298</ele>
        <time>2021-08-14T07:42:10.000Z</time>
      </trkpt>
      <trkpt lat="49.83204" lon="4.79159">
        <ele>298</ele>
        <time>2021-08-14T07:42:11.000Z</time>
      </trkpt>
      <trkpt lat="49.83205" lon="4.79156">
        <ele>298</ele>
        <time>2021-08-14T07:42:12.000Z</time>
      </trkpt>
      <trkpt lat="49.83206" lon="4.79153">
        <ele>299</ele>
        <time>2021-08-14T07:42:13.000Z</time>
      </trkpt>
      <trkpt lat="49.83207" lon="4.7915">
        <ele>299</ele>
        <time>2021-08-14T07:42:14.000Z</time>
      </trkpt>
      <trkpt lat="49.83208" lon="4.79148">
        <ele>299</ele>
        <time>2021-08-14T07:42:15.000Z</time>
      </trkpt>
      <trkpt lat="49.83209" lon="4.79145">
        <ele>299</ele>
        <time>2021-08-14T07:42:16.000Z</time>
      </trkpt>
      <trkpt lat="49.83209" lon="4.79142">
        <ele>299</ele>
        <time>2021-08-14T07:42:17.000Z</time>
      </trkpt>
      <trkpt lat="49.83209" lon="4.79139">
        <ele>299</ele>
        <time>2021-08-14T07:42:18.000Z</time>
      </trkpt>
      <trkpt lat="49.8321" lon="4.79136">
        <ele>299</ele>
        <time>2021-08-14T07:42:19.000Z</time>
      </trkpt>
      <trkpt lat="49.83212" lon="4.79133">
        <ele>300</ele>
        <time>2021-08-14T07:42:20.000Z</time>
      </trkpt>
      <trkpt lat="49.83213" lon="4.79131">
        <ele>300</ele>
        <time>2021-08-14T07:42:21.000Z</time>
      </trkpt>
      <trkpt lat="49.83215" lon="4.79129">
        <ele>300</ele>
        <time>2021-08-14T07:42:22.000Z</time>
      </trkpt>
      <trkpt lat="49.83216" lon="4.79126">
        <ele>300</ele>
        <time>2021-08-14T07:42:23.000Z</time>
      </trkpt>
      <trkpt lat="49.83217" lon="4.79123">
        <ele>300</ele>
        <time>2021-08-14T07:42:24.000Z</time>
      </trkpt>
      <trkpt lat="49.83218" lon="4.79119">
        <ele>300</ele>
        <time>2021-08-14T07:42:25.000Z</time>
      </trkpt>
      <trkpt lat="49.83219" lon="4.79116">
        <ele>300</ele>
        <time>2021-08-14T07:42:26.000Z</time>
      </trkpt>
      <trkpt lat="49.8322" lon="4.79114">
        <ele>300</ele>
        <time>2021-08-14T07:42:27.000Z</time>
      </trkpt>
      <trkpt lat="49.83222" lon="4.79111">
        <ele>300</ele>
        <time>2021-08-14T07:42:28.000Z</time>
      </trkpt>
      <trkpt lat="49.83223" lon="4.79108">
        <ele>300</ele>
        <time>2021-08-14T07:42:29.000Z</time>
      </trkpt>
      <trkpt lat="49.83225" lon="4.79105">
        <ele>300</ele>
        <time>2021-08-14T07:42:30.000Z</time>
      </trkpt>
      <trkpt lat="49.83227" lon="4.79102">
        <ele>300</ele>
        <time>2021-08-14T07:42:31.000Z</time>
      </trkpt>
      <trkpt lat="49.83228" lon="4.791">
        <ele>301</ele>
        <time>2021-08-14T07:42:32.000Z</time>
      </trkpt>
      <trkpt lat="49.8323" lon="4.79096">
        <ele>301</ele>
        <time>2021-08-14T07:42:33.000Z</time>
      </trkpt>
      <trkpt lat="49.83232" lon="4.79094">
        <ele>301</ele>
        <time>2021-08-14T07:42:34.000Z</time>
      </trkpt>
      <trkpt lat="49.83234" lon="4.79092">
        <ele>301</ele>
        <time>2021-08-14T07:42:35.000Z</time>
      </trkpt>
      <trkpt lat="49.83236" lon="4.7909">
        <ele>301</ele>
        <time>2021-08-14T07:42:36.000Z</time>
      </trkpt>
      <trkpt lat="49.83239" lon="4.79089">
        <ele>301</ele>
        <time>2021-08-14T07:42:37.000Z</time>
      </trkpt>
      <trkpt lat="49.83241" lon="4.79088">
        <ele>302</ele>
        <time>2021-08-14T07:42:38.000Z</time>
      </trkpt>
      <trkpt lat="49.83244" lon="4.79087">
        <ele>302</ele>
        <time>2021-08-14T07:42:39.000Z</time>
      </trkpt>
      <trkpt lat="49.83247" lon="4.79086">
        <ele>302</ele>
        <time>2021-08-14T07:42:40.000Z</time>
      </trkpt>
      <trkpt lat="49.83251" lon="4.79087">
        <ele>302</ele>
        <time>2021-08-14T07:42:41.000Z</time>
      </trkpt>
      <trkpt lat="49.83254" lon="4.79087">
        <ele>302</ele>
        <time>2021-08-14T07:42:42.000Z</time>
      </trkpt>
      <trkpt lat="49.83258" lon="4.79088">
        <ele>302</ele>
        <time>2021-08-14T07:42:43.000Z</time>
      </trkpt>
      <trkpt lat="49.83261" lon="4.79089">
        <ele>303</ele>
        <time>2021-08-14T07:42:44.000Z</time>
      </trkpt>
      <trkpt lat="49.83265" lon="4.79089">
        <ele>303</ele>
        <time>2021-08-14T07:42:45.000Z</time>
      </trkpt>
      <trkpt lat="49.83269" lon="4.79089">
        <ele>303</ele>
        <time>2021-08-14T07:42:46.000Z</time>
      </trkpt>
      <trkpt lat="49.83274" lon="4.79089">
        <ele>303</ele>
        <time>2021-08-14T07:42:47.000Z</time>
      </trkpt>
      <trkpt lat="49.83278" lon="4.79089">
        <ele>303</ele>
        <time>2021-08-14T07:42:48.000Z</time>
      </trkpt>
      <trkpt lat="49.83283" lon="4.79089">
        <ele>303</ele>
        <time>2021-08-14T07:42:49.000Z</time>
      </trkpt>
      <trkpt lat="49.83288" lon="4.79088">
        <ele>303</ele>
        <time>2021-08-14T07:42:50.000Z</time>
      </trkpt>
      <trkpt lat="49.83293" lon="4.79087">
        <ele>303</ele>
        <time>2021-08-14T07:42:51.000Z</time>
      </trkpt>
      <trkpt lat="49.83299" lon="4.79085">
        <ele>303</ele>
        <time>2021-08-14T07:42:52.000Z</time>
      </trkpt>
      <trkpt lat="49.83304" lon="4.79083">
        <ele>303</ele>
        <time>2021-08-14T07:42:53.000Z</time>
      </trkpt>
      <trkpt lat="49.8331" lon="4.79079">
        <ele>303</ele>
        <time>2021-08-14T07:42:54.000Z</time>
      </trkpt>
      <trkpt lat="49.83317" lon="4.79075">
        <ele>303</ele>
        <time>2021-08-14T07:42:55.000Z</time>
      </trkpt>
      <trkpt lat="49.83323" lon="4.79069">
        <ele>302</ele>
        <time>2021-08-14T07:42:56.000Z</time>
      </trkpt>
      <trkpt lat="49.83329" lon="4.79063">
        <ele>302</ele>
        <time>2021-08-14T07:42:57.000Z</time>
      </trkpt>
      <trkpt lat="49.83334" lon="4.79056">
        <ele>301</ele>
        <time>2021-08-14T07:42:58.000Z</time>
      </trkpt>
      <trkpt lat="49.83339" lon="4.79048">
        <ele>301</ele>
        <time>2021-08-14T07:42:59.000Z</time>
      </trkpt>
      <trkpt lat="49.83342" lon="4.79039">
        <ele>300</ele>
        <time>2021-08-14T07:43:00.000Z</time>
      </trkpt>
      <trkpt lat="49.83346" lon="4.79029">
        <ele>300</ele>
        <time>2021-08-14T07:43:01.000Z</time>
      </trkpt>
      <trkpt lat="49.83349" lon="4.7902">
        <ele>300</ele>
        <time>2021-08-14T07:43:02.000Z</time>
      </trkpt>
      <trkpt lat="49.83353" lon="4.7901">
        <ele>299</ele>
        <time>2021-08-14T07:43:03.000Z</time>
      </trkpt>
      <trkpt lat="49.83357" lon="4.79002">
        <ele>299</ele>
        <time>2021-08-14T07:43:04.000Z</time>
      </trkpt>
      <trkpt lat="49.83361" lon="4.78993">
        <ele>299</ele>
        <time>2021-08-14T07:43:05.000Z</time>
      </trkpt>
      <trkpt lat="49.83364" lon="4.78984">
        <ele>298</ele>
        <time>2021-08-14T07:43:06.000Z</time>
      </trkpt>
      <trkpt lat="49.83367" lon="4.78975">
        <ele>298</ele>
        <time>2021-08-14T07:43:07.000Z</time>
      </trkpt>
      <trkpt lat="49.83371" lon="4.78966">
        <ele>298</ele>
        <time>2021-08-14T07:43:08.000Z</time>
      </trkpt>
      <trkpt lat="49.83374" lon="4.78958">
        <ele>298</ele>
        <time>2021-08-14T07:43:09.000Z</time>
      </trkpt>
      <trkpt lat="49.83378" lon="4.7895">
        <ele>298</ele>
        <time>2021-08-14T07:43:10.000Z</time>
      </trkpt>
      <trkpt lat="49.83382" lon="4.78943">
        <ele>298</ele>
        <time>2021-08-14T07:43:11.000Z</time>
      </trkpt>
      <trkpt lat="49.83386" lon="4.78936">
        <ele>297</ele>
        <time>2021-08-14T07:43:12.000Z</time>
      </trkpt>
      <trkpt lat="49.8339" lon="4.7893">
        <ele>297</ele>
        <time>2021-08-14T07:43:13.000Z</time>
      </trkpt>
      <trkpt lat="49.83395" lon="4.78925">
        <ele>297</ele>
        <time>2021-08-14T07:43:14.000Z</time>
      </trkpt>
      <trkpt lat="49.83398" lon="4.78921">
        <ele>297</ele>
        <time>2021-08-14T07:43:15.000Z</time>
      </trkpt>
      <trkpt lat="49.83402" lon="4.78917">
        <ele>297</ele>
        <time>2021-08-14T07:43:16.000Z</time>
      </trkpt>
      <trkpt lat="49.83405" lon="4.78914">
        <ele>297</ele>
        <time>2021-08-14T07:43:17.000Z</time>
      </trkpt>
      <trkpt lat="49.83408" lon="4.78911">
        <ele>297</ele>
        <time>2021-08-14T07:43:18.000Z</time>
      </trkpt>
      <trkpt lat="49.83411" lon="4.78908">
        <ele>297</ele>
        <time>2021-08-14T07:43:19.000Z</time>
      </trkpt>
      <trkpt lat="49.83413" lon="4.78906">
        <ele>297</ele>
        <time>2021-08-14T07:43:20.000Z</time>
      </trkpt>
      <trkpt lat="49.83416" lon="4.78905">
        <ele>297</ele>
        <time>2021-08-14T07:43:21.000Z</time>
      </trkpt>
      <trkpt lat="49.83418" lon="4.78903">
        <ele>297</ele>
        <time>2021-08-14T07:43:22.000Z</time>
      </trkpt>
      <trkpt lat="49.83421" lon="4.78902">
        <ele>297</ele>
        <time>2021-08-14T07:43:23.000Z</time>
      </trkpt>
      <trkpt lat="49.83424" lon="4.78901">
        <ele>297</ele>
        <time>2021-08-14T07:43:24.000Z</time>
      </trkpt>
      <trkpt lat="49.83427" lon="4.78899">
        <ele>297</ele>
        <time>2021-08-14T07:43:25.000Z</time>
      </trkpt>
      <trkpt lat="49.8343" lon="4.78898">
        <ele>297</ele>
        <time>2021-08-14T07:43:26.000Z</time>
      </trkpt>
      <trkpt lat="49.83433" lon="4.78898">
        <ele>297</ele>
        <time>2021-08-14T07:43:27.000Z</time>
      </trkpt>
      <trkpt lat="49.83436" lon="4.78896">
        <ele>297</ele>
        <time>2021-08-14T07:43:28.000Z</time>
      </trkpt>
      <trkpt lat="49.8344" lon="4.78894">
        <ele>297</ele>
        <time>2021-08-14T07:43:29.000Z</time>
      </trkpt>
      <trkpt lat="49.83443" lon="4.78893">
        <ele>297</ele>
        <time>2021-08-14T07:43:30.000Z</time>
      </trkpt>
      <trkpt lat="49.83447" lon="4.78891">
        <ele>297</ele>
        <time>2021-08-14T07:43:31.000Z</time>
      </trkpt>
      <trkpt lat="49.83451" lon="4.7889">
        <ele>297</ele>
        <time>2021-08-14T07:43:32.000Z</time>
      </trkpt>
      <trkpt lat="49.83455" lon="4.78888">
        <ele>297</ele>
        <time>2021-08-14T07:43:33.000Z</time>
      </trkpt>
      <trkpt lat="49.83458" lon="4.78886">
        <ele>297</ele>
        <time>2021-08-14T07:43:34.000Z</time>
      </trkpt>
      <trkpt lat="49.83462" lon="4.78883">
        <ele>298</ele>
        <time>2021-08-14T07:43:35.000Z</time>
      </trkpt>
      <trkpt lat="49.83465" lon="4.7888">
        <ele>298</ele>
        <time>2021-08-14T07:43:36.000Z</time>
      </trkpt>
      <trkpt lat="49.83468" lon="4.78876">
        <ele>298</ele>
        <time>2021-08-14T07:43:37.000Z</time>
      </trkpt>
      <trkpt lat="49.83471" lon="4.78872">
        <ele>298</ele>
        <time>2021-08-14T07:43:38.000Z</time>
      </trkpt>
      <trkpt lat="49.83473" lon="4.78867">
        <ele>298</ele>
        <time>2021-08-14T07:43:39.000Z</time>
      </trkpt>
      <trkpt lat="49.83476" lon="4.78863">
        <ele>297</ele>
        <time>2021-08-14T07:43:40.000Z</time>
      </trkpt>
      <trkpt lat="49.83478" lon="4.78858">
        <ele>297</ele>
        <time>2021-08-14T07:43:41.000Z</time>
      </trkpt>
      <trkpt lat="49.83481" lon="4.78854">
        <ele>297</ele>
        <time>2021-08-14T07:43:42.000Z</time>
      </trkpt>
      <trkpt lat="49.83483" lon="4.78851">
        <ele>297</ele>
        <time>2021-08-14T07:43:43.000Z</time>
      </trkpt>
      <trkpt lat="49.83486" lon="4.78849">
        <ele>297</ele>
        <time>2021-08-14T07:43:44.000Z</time>
      </trkpt>
      <trkpt lat="49.83489" lon="4.78848">
        <ele>297</ele>
        <time>2021-08-14T07:43:45.000Z</time>
      </trkpt>
      <trkpt lat="49.83491" lon="4.78849">
        <ele>297</ele>
        <time>2021-08-14T07:43:46.000Z</time>
      </trkpt>
      <trkpt lat="49.83493" lon="4.78851">
        <ele>297</ele>
        <time>2021-08-14T07:43:47.000Z</time>
      </trkpt>
      <trkpt lat="49.83495" lon="4.78853">
        <ele>296</ele>
        <time>2021-08-14T07:43:48.000Z</time>
      </trkpt>
      <trkpt lat="49.83497" lon="4.78855">
        <ele>296</ele>
        <time>2021-08-14T07:43:49.000Z</time>
      </trkpt>
      <trkpt lat="49.835" lon="4.78858">
        <ele>296</ele>
        <time>2021-08-14T07:43:50.000Z</time>
      </trkpt>
      <trkpt lat="49.83503" lon="4.78861">
        <ele>296</ele>
        <time>2021-08-14T07:43:51.000Z</time>
      </trkpt>
      <trkpt lat="49.83505" lon="4.78863">
        <ele>296</ele>
        <time>2021-08-14T07:43:52.000Z</time>
      </trkpt>
      <trkpt lat="49.83507" lon="4.78867">
        <ele>296</ele>
        <time>2021-08-14T07:43:53.000Z</time>
      </trkpt>
      <trkpt lat="49.83509" lon="4.78869">
        <ele>296</ele>
        <time>2021-08-14T07:43:54.000Z</time>
      </trkpt>
      <trkpt lat="49.83513" lon="4.78872">
        <ele>297</ele>
        <time>2021-08-14T07:43:55.000Z</time>
      </trkpt>
      <trkpt lat="49.83515" lon="4.78874">
        <ele>297</ele>
        <time>2021-08-14T07:43:56.000Z</time>
      </trkpt>
      <trkpt lat="49.83517" lon="4.78876">
        <ele>297</ele>
        <time>2021-08-14T07:43:57.000Z</time>
      </trkpt>
      <trkpt lat="49.83521" lon="4.78879">
        <ele>297</ele>
        <time>2021-08-14T07:43:58.000Z</time>
      </trkpt>
      <trkpt lat="49.83524" lon="4.78883">
        <ele>297</ele>
        <time>2021-08-14T07:43:59.000Z</time>
      </trkpt>
      <trkpt lat="49.83527" lon="4.78886">
        <ele>297</ele>
        <time>2021-08-14T07:44:00.000Z</time>
      </trkpt>
      <trkpt lat="49.83531" lon="4.7889">
        <ele>297</ele>
        <time>2021-08-14T07:44:01.000Z</time>
      </trkpt>
      <trkpt lat="49.83536" lon="4.78894">
        <ele>297</ele>
        <time>2021-08-14T07:44:02.000Z</time>
      </trkpt>
      <trkpt lat="49.83541" lon="4.78898">
        <ele>298</ele>
        <time>2021-08-14T07:44:03.000Z</time>
      </trkpt>
      <trkpt lat="49.83546" lon="4.78903">
        <ele>298</ele>
        <time>2021-08-14T07:44:04.000Z</time>
      </trkpt>
      <trkpt lat="49.83552" lon="4.78906">
        <ele>298</ele>
        <time>2021-08-14T07:44:05.000Z</time>
      </trkpt>
      <trkpt lat="49.83558" lon="4.78909">
        <ele>298</ele>
        <time>2021-08-14T07:44:06.000Z</time>
      </trkpt>
      <trkpt lat="49.83563" lon="4.7891">
        <ele>298</ele>
        <time>2021-08-14T07:44:07.000Z</time>
      </trkpt>
      <trkpt lat="49.83569" lon="4.7891">
        <ele>299</ele>
        <time>2021-08-14T07:44:08.000Z</time>
      </trkpt>
      <trkpt lat="49.83575" lon="4.78911">
        <ele>299</ele>
        <time>2021-08-14T07:44:09.000Z</time>
      </trkpt>
      <trkpt lat="49.83581" lon="4.78911">
        <ele>299</ele>
        <time>2021-08-14T07:44:10.000Z</time>
      </trkpt>
      <trkpt lat="49.83587" lon="4.78912">
        <ele>299</ele>
        <time>2021-08-14T07:44:11.000Z</time>
      </trkpt>
      <trkpt lat="49.83592" lon="4.78912">
        <ele>299</ele>
        <time>2021-08-14T07:44:12.000Z</time>
      </trkpt>
      <trkpt lat="49.83597" lon="4.78913">
        <ele>300</ele>
        <time>2021-08-14T07:44:13.000Z</time>
      </trkpt>
      <trkpt lat="49.83602" lon="4.78912">
        <ele>300</ele>
        <time>2021-08-14T07:44:14.000Z</time>
      </trkpt>
      <trkpt lat="49.83607" lon="4.78912">
        <ele>300</ele>
        <time>2021-08-14T07:44:15.000Z</time>
      </trkpt>
      <trkpt lat="49.83612" lon="4.78912">
        <ele>300</ele>
        <time>2021-08-14T07:44:16.000Z</time>
      </trkpt>
      <trkpt lat="49.83617" lon="4.78912">
        <ele>300</ele>
        <time>2021-08-14T07:44:17.000Z</time>
      </trkpt>
      <trkpt lat="49.83621" lon="4.78912">
        <ele>300</ele>
        <time>2021-08-14T07:44:18.000Z</time>
      </trkpt>
      <trkpt lat="49.83626" lon="4.78912">
        <ele>300</ele>
        <time>2021-08-14T07:44:19.000Z</time>
      </trkpt>
      <trkpt lat="49.83631" lon="4.78912">
        <ele>300</ele>
        <time>2021-08-14T07:44:20.000Z</time>
      </trkpt>
      <trkpt lat="49.83636" lon="4.78913">
        <ele>301</ele>
        <time>2021-08-14T07:44:21.000Z</time>
      </trkpt>
      <trkpt lat="49.83641" lon="4.78914">
        <ele>301</ele>
        <time>2021-08-14T07:44:22.000Z</time>
      </trkpt>
      <trkpt lat="49.83646" lon="4.78915">
        <ele>301</ele>
        <time>2021-08-14T07:44:23.000Z</time>
      </trkpt>
      <trkpt lat="49.8365" lon="4.78916">
        <ele>301</ele>
        <time>2021-08-14T07:44:24.000Z</time>
      </trkpt>
      <trkpt lat="49.83655" lon="4.78917">
        <ele>301</ele>
        <time>2021-08-14T07:44:25.000Z</time>
      </trkpt>
      <trkpt lat="49.8366" lon="4.78919">
        <ele>301</ele>
        <time>2021-08-14T07:44:26.000Z</time>
      </trkpt>
      <trkpt lat="49.83666" lon="4.78921">
        <ele>302</ele>
        <time>2021-08-14T07:44:27.000Z</time>
      </trkpt>
      <trkpt lat="49.83671" lon="4.78923">
        <ele>302</ele>
        <time>2021-08-14T07:44:28.000Z</time>
      </trkpt>
      <trkpt lat="49.83677" lon="4.78925">
        <ele>302</ele>
        <time>2021-08-14T07:44:29.000Z</time>
      </trkpt>
      <trkpt lat="49.83682" lon="4.78927">
        <ele>302</ele>
        <time>2021-08-14T07:44:30.000Z</time>
      </trkpt>
      <trkpt lat="49.83688" lon="4.78928">
        <ele>302</ele>
        <time>2021-08-14T07:44:31.000Z</time>
      </trkpt>
      <trkpt lat="49.83693" lon="4.78931">
        <ele>302</ele>
        <time>2021-08-14T07:44:32.000Z</time>
      </trkpt>
      <trkpt lat="49.83698" lon="4.78933">
        <ele>302</ele>
        <time>2021-08-14T07:44:33.000Z</time>
      </trkpt>
      <trkpt lat="49.83703" lon="4.78936">
        <ele>302</ele>
        <time>2021-08-14T07:44:34.000Z</time>
      </trkpt>
      <trkpt lat="49.83708" lon="4.78938">
        <ele>302</ele>
        <time>2021-08-14T07:44:35.000Z</time>
      </trkpt>
      <trkpt lat="49.83713" lon="4.78942">
        <ele>302</ele>
        <time>2021-08-14T07:44:36.000Z</time>
      </trkpt>
      <trkpt lat="49.83719" lon="4.78946">
        <ele>302</ele>
        <time>2021-08-14T07:44:37.000Z</time>
      </trkpt>
      <trkpt lat="49.83724" lon="4.7895">
        <ele>302</ele>
        <time>2021-08-14T07:44:38.000Z</time>
      </trkpt>
      <trkpt lat="49.83729" lon="4.78954">
        <ele>302</ele>
        <time>2021-08-14T07:44:39.000Z</time>
      </trkpt>
      <trkpt lat="49.83734" lon="4.7896">
        <ele>302</ele>
        <time>2021-08-14T07:44:40.000Z</time>
      </trkpt>
      <trkpt lat="49.83739" lon="4.78965">
        <ele>302</ele>
        <time>2021-08-14T07:44:41.000Z</time>
      </trkpt>
      <trkpt lat="49.83744" lon="4.7897">
        <ele>302</ele>
        <time>2021-08-14T07:44:42.000Z</time>
      </trkpt>
      <trkpt lat="49.83749" lon="4.78976">
        <ele>302</ele>
        <time>2021-08-14T07:44:43.000Z</time>
      </trkpt>
      <trkpt lat="49.83754" lon="4.78981">
        <ele>302</ele>
        <time>2021-08-14T07:44:44.000Z</time>
      </trkpt>
      <trkpt lat="49.83759" lon="4.78986">
        <ele>302</ele>
        <time>2021-08-14T07:44:45.000Z</time>
      </trkpt>
      <trkpt lat="49.83764" lon="4.78992">
        <ele>302</ele>
        <time>2021-08-14T07:44:46.000Z</time>
      </trkpt>
      <trkpt lat="49.83768" lon="4.78997">
        <ele>302</ele>
        <time>2021-08-14T07:44:47.000Z</time>
      </trkpt>
      <trkpt lat="49.83773" lon="4.79003">
        <ele>302</ele>
        <time>2021-08-14T07:44:48.000Z</time>
      </trkpt>
      <trkpt lat="49.83777" lon="4.79008">
        <ele>302</ele>
        <time>2021-08-14T07:44:49.000Z</time>
      </trkpt>
      <trkpt lat="49.83781" lon="4.79013">
        <ele>302</ele>
        <time>2021-08-14T07:44:50.000Z</time>
      </trkpt>
      <trkpt lat="49.83785" lon="4.79018">
        <ele>302</ele>
        <time>2021-08-14T07:44:51.000Z</time>
      </trkpt>
      <trkpt lat="49.83788" lon="4.79023">
        <ele>302</ele>
        <time>2021-08-14T07:44:52.000Z</time>
      </trkpt>
      <trkpt lat="49.83792" lon="4.79027">
        <ele>302</ele>
        <time>2021-08-14T07:44:53.000Z</time>
      </trkpt>
      <trkpt lat="49.83795" lon="4.79032">
        <ele>302</ele>
        <time>2021-08-14T07:44:54.000Z</time>
      </trkpt>
      <trkpt lat="49.83799" lon="4.79037">
        <ele>302</ele>
        <time>2021-08-14T07:44:55.000Z</time>
      </trkpt>
      <trkpt lat="49.83802" lon="4.79042">
        <ele>302</ele>
        <time>2021-08-14T07:44:56.000Z</time>
      </trkpt>
      <trkpt lat="49.83805" lon="4.79047">
        <ele>302</ele>
        <time>2021-08-14T07:44:57.000Z</time>
      </trkpt>
      <trkpt lat="49.83809" lon="4.79052">
        <ele>303</ele>
        <time>2021-08-14T07:44:58.000Z</time>
      </trkpt>
      <trkpt lat="49.83812" lon="4.79057">
        <ele>303</ele>
        <time>2021-08-14T07:44:59.000Z</time>
      </trkpt>
      <trkpt lat="49.83815" lon="4.79062">
        <ele>303</ele>
        <time>2021-08-14T07:45:00.000Z</time>
      </trkpt>
      <trkpt lat="49.83817" lon="4.79068">
        <ele>303</ele>
        <time>2021-08-14T07:45:01.000Z</time>
      </trkpt>
      <trkpt lat="49.8382" lon="4.79073">
        <ele>303</ele>
        <time>2021-08-14T07:45:02.000Z</time>
      </trkpt>
      <trkpt lat="49.83823" lon="4.79078">
        <ele>304</ele>
        <time>2021-08-14T07:45:03.000Z</time>
      </trkpt>
      <trkpt lat="49.83826" lon="4.79083">
        <ele>304</ele>
        <time>2021-08-14T07:45:04.000Z</time>
      </trkpt>
      <trkpt lat="49.83829" lon="4.79088">
        <ele>304</ele>
        <time>2021-08-14T07:45:05.000Z</time>
      </trkpt>
      <trkpt lat="49.83832" lon="4.79093">
        <ele>304</ele>
        <time>2021-08-14T07:45:06.000Z</time>
      </trkpt>
      <trkpt lat="49.83835" lon="4.79098">
        <ele>304</ele>
        <time>2021-08-14T07:45:07.000Z</time>
      </trkpt>
      <trkpt lat="49.83837" lon="4.79103">
        <ele>304</ele>
        <time>2021-08-14T07:45:08.000Z</time>
      </trkpt>
      <trkpt lat="49.83839" lon="4.79108">
        <ele>304</ele>
        <time>2021-08-14T07:45:09.000Z</time>
      </trkpt>
      <trkpt lat="49.83841" lon="4.79112">
        <ele>304</ele>
        <time>2021-08-14T07:45:10.000Z</time>
      </trkpt>
      <trkpt lat="49.83843" lon="4.79118">
        <ele>304</ele>
        <time>2021-08-14T07:45:11.000Z</time>
      </trkpt>
      <trkpt lat="49.83845" lon="4.79123">
        <ele>304</ele>
        <time>2021-08-14T07:45:12.000Z</time>
      </trkpt>
      <trkpt lat="49.83846" lon="4.79128">
        <ele>304</ele>
        <time>2021-08-14T07:45:13.000Z</time>
      </trkpt>
      <trkpt lat="49.83848" lon="4.79132">
        <ele>303</ele>
        <time>2021-08-14T07:45:14.000Z</time>
      </trkpt>
      <trkpt lat="49.83851" lon="4.79137">
        <ele>303</ele>
        <time>2021-08-14T07:45:15.000Z</time>
      </trkpt>
      <trkpt lat="49.83853" lon="4.79141">
        <ele>303</ele>
        <time>2021-08-14T07:45:16.000Z</time>
      </trkpt>
      <trkpt lat="49.83854" lon="4.79146">
        <ele>303</ele>
        <time>2021-08-14T07:45:17.000Z</time>
      </trkpt>
      <trkpt lat="49.83856" lon="4.79151">
        <ele>303</ele>
        <time>2021-08-14T07:45:18.000Z</time>
      </trkpt>
      <trkpt lat="49.83857" lon="4.79156">
        <ele>303</ele>
        <time>2021-08-14T07:45:19.000Z</time>
      </trkpt>
      <trkpt lat="49.83857" lon="4.7916">
        <ele>302</ele>
        <time>2021-08-14T07:45:20.000Z</time>
      </trkpt>
      <trkpt lat="49.83856" lon="4.79163">
        <ele>302</ele>
        <time>2021-08-14T07:45:21.000Z</time>
      </trkpt>
      <trkpt lat="49.83854" lon="4.79167">
        <ele>302</ele>
        <time>2021-08-14T07:45:22.000Z</time>
      </trkpt>
      <trkpt lat="49.83853" lon="4.7917">
        <ele>302</ele>
        <time>2021-08-14T07:45:23.000Z</time>
      </trkpt>
      <trkpt lat="49.83851" lon="4.79173">
        <ele>302</ele>
        <time>2021-08-14T07:45:24.000Z</time>
      </trkpt>
      <trkpt lat="49.83849" lon="4.79178">
        <ele>302</ele>
        <time>2021-08-14T07:45:25.000Z</time>
      </trkpt>
      <trkpt lat="49.83847" lon="4.79182">
        <ele>302</ele>
        <time>2021-08-14T07:45:26.000Z</time>
      </trkpt>
      <trkpt lat="49.83846" lon="4.79186">
        <ele>301</ele>
        <time>2021-08-14T07:45:27.000Z</time>
      </trkpt>
      <trkpt lat="49.83845" lon="4.7919">
        <ele>301</ele>
        <time>2021-08-14T07:45:28.000Z</time>
      </trkpt>
      <trkpt lat="49.83843" lon="4.79195">
        <ele>301</ele>
        <time>2021-08-14T07:45:29.000Z</time>
      </trkpt>
      <trkpt lat="49.83842" lon="4.792">
        <ele>301</ele>
        <time>2021-08-14T07:45:30.000Z</time>
      </trkpt>
      <trkpt lat="49.8384" lon="4.79204">
        <ele>301</ele>
        <time>2021-08-14T07:45:31.000Z</time>
      </trkpt>
      <trkpt lat="49.83839" lon="4.7921">
        <ele>301</ele>
        <time>2021-08-14T07:45:32.000Z</time>
      </trkpt>
      <trkpt lat="49.83839" lon="4.79216">
        <ele>301</ele>
        <time>2021-08-14T07:45:33.000Z</time>
      </trkpt>
      <trkpt lat="49.83839" lon="4.79222">
        <ele>300</ele>
        <time>2021-08-14T07:45:34.000Z</time>
      </trkpt>
      <trkpt lat="49.83839" lon="4.79228">
        <ele>300</ele>
        <time>2021-08-14T07:45:35.000Z</time>
      </trkpt>
      <trkpt lat="49.83838" lon="4.79233">
        <ele>300</ele>
        <time>2021-08-14T07:45:36.000Z</time>
      </trkpt>
      <trkpt lat="49.83838" lon="4.79239">
        <ele>300</ele>
        <time>2021-08-14T07:45:37.000Z</time>
      </trkpt>
      <trkpt lat="49.83838" lon="4.79245">
        <ele>300</ele>
        <time>2021-08-14T07:45:38.000Z</time>
      </trkpt>
      <trkpt lat="49.83838" lon="4.79251">
        <ele>299</ele>
        <time>2021-08-14T07:45:39.000Z</time>
      </trkpt>
      <trkpt lat="49.83837" lon="4.79256">
        <ele>299</ele>
        <time>2021-08-14T07:45:40.000Z</time>
      </trkpt>
      <trkpt lat="49.83837" lon="4.79262">
        <ele>299</ele>
        <time>2021-08-14T07:45:41.000Z</time>
      </trkpt>
      <trkpt lat="49.83837" lon="4.79269">
        <ele>299</ele>
        <time>2021-08-14T07:45:42.000Z</time>
      </trkpt>
      <trkpt lat="49.83836" lon="4.79275">
        <ele>299</ele>
        <time>2021-08-14T07:45:43.000Z</time>
      </trkpt>
      <trkpt lat="49.83835" lon="4.79281">
        <ele>298</ele>
        <time>2021-08-14T07:45:44.000Z</time>
      </trkpt>
      <trkpt lat="49.83835" lon="4.79287">
        <ele>298</ele>
        <time>2021-08-14T07:45:45.000Z</time>
      </trkpt>
      <trkpt lat="49.83834" lon="4.79293">
        <ele>298</ele>
        <time>2021-08-14T07:45:46.000Z</time>
      </trkpt>
      <trkpt lat="49.83834" lon="4.79299">
        <ele>298</ele>
        <time>2021-08-14T07:45:47.000Z</time>
      </trkpt>
      <trkpt lat="49.83833" lon="4.79304">
        <ele>298</ele>
        <time>2021-08-14T07:45:48.000Z</time>
      </trkpt>
      <trkpt lat="49.83832" lon="4.79309">
        <ele>298</ele>
        <time>2021-08-14T07:45:49.000Z</time>
      </trkpt>
      <trkpt lat="49.83832" lon="4.79313">
        <ele>297</ele>
        <time>2021-08-14T07:45:50.000Z</time>
      </trkpt>
      <trkpt lat="49.8383" lon="4.79318">
        <ele>297</ele>
        <time>2021-08-14T07:45:51.000Z</time>
      </trkpt>
      <trkpt lat="49.83828" lon="4.79321">
        <ele>297</ele>
        <time>2021-08-14T07:45:52.000Z</time>
      </trkpt>
      <trkpt lat="49.83827" lon="4.79323">
        <ele>297</ele>
        <time>2021-08-14T07:45:53.000Z</time>
      </trkpt>
      <trkpt lat="49.83825" lon="4.79324">
        <ele>297</ele>
        <time>2021-08-14T07:45:54.000Z</time>
      </trkpt>
      <trkpt lat="49.83823" lon="4.79326">
        <ele>297</ele>
        <time>2021-08-14T07:45:55.000Z</time>
      </trkpt>
      <trkpt lat="49.83822" lon="4.79327">
        <ele>297</ele>
        <time>2021-08-14T07:45:56.000Z</time>
      </trkpt>
      <trkpt lat="49.8382" lon="4.79328">
        <ele>297</ele>
        <time>2021-08-14T07:45:57.000Z</time>
      </trkpt>
      <trkpt lat="49.83818" lon="4.79328">
        <ele>298</ele>
        <time>2021-08-14T07:45:58.000Z</time>
      </trkpt>
      <trkpt lat="49.83816" lon="4.79329">
        <ele>298</ele>
        <time>2021-08-14T07:45:59.000Z</time>
      </trkpt>
      <trkpt lat="49.83814" lon="4.79329">
        <ele>298</ele>
        <time>2021-08-14T07:46:00.000Z</time>
      </trkpt>
      <trkpt lat="49.83812" lon="4.79329">
        <ele>298</ele>
        <time>2021-08-14T07:46:01.000Z</time>
      </trkpt>
      <trkpt lat="49.8381" lon="4.79329">
        <ele>298</ele>
        <time>2021-08-14T07:46:02.000Z</time>
      </trkpt>
      <trkpt lat="49.83807" lon="4.79329">
        <ele>298</ele>
        <time>2021-08-14T07:46:03.000Z</time>
      </trkpt>
      <trkpt lat="49.83805" lon="4.79329">
        <ele>298</ele>
        <time>2021-08-14T07:46:04.000Z</time>
      </trkpt>
      <trkpt lat="49.83803" lon="4.79329">
        <ele>299</ele>
        <time>2021-08-14T07:46:05.000Z</time>
      </trkpt>
      <trkpt lat="49.83802" lon="4.79329">
        <ele>299</ele>
        <time>2021-08-14T07:46:06.000Z</time>
      </trkpt>
      <trkpt lat="49.838" lon="4.79328">
        <ele>299</ele>
        <time>2021-08-14T07:46:07.000Z</time>
      </trkpt>
      <trkpt lat="49.83798" lon="4.79327">
        <ele>299</ele>
        <time>2021-08-14T07:46:08.000Z</time>
      </trkpt>
      <trkpt lat="49.83797" lon="4.79327">
        <ele>299</ele>
        <time>2021-08-14T07:46:09.000Z</time>
      </trkpt>
      <trkpt lat="49.83795" lon="4.79328">
        <ele>299</ele>
        <time>2021-08-14T07:46:10.000Z</time>
      </trkpt>
      <trkpt lat="49.83794" lon="4.79328">
        <ele>300</ele>
        <time>2021-08-14T07:46:11.000Z</time>
      </trkpt>
      <trkpt lat="49.83793" lon="4.79328">
        <ele>300</ele>
        <time>2021-08-14T07:46:12.000Z</time>
      </trkpt>
      <trkpt lat="49.83791" lon="4.79328">
        <ele>300</ele>
        <time>2021-08-14T07:46:13.000Z</time>
      </trkpt>
      <trkpt lat="49.83789" lon="4.79327">
        <ele>300</ele>
        <time>2021-08-14T07:46:14.000Z</time>
      </trkpt>
      <trkpt lat="49.83788" lon="4.79327">
        <ele>300</ele>
        <time>2021-08-14T07:46:15.000Z</time>
      </trkpt>
      <trkpt lat="49.83786" lon="4.79326">
        <ele>301</ele>
        <time>2021-08-14T07:46:16.000Z</time>
      </trkpt>
      <trkpt lat="49.83785" lon="4.79326">
        <ele>301</ele>
        <time>2021-08-14T07:46:17.000Z</time>
      </trkpt>
      <trkpt lat="49.83784" lon="4.79326">
        <ele>301</ele>
        <time>2021-08-14T07:46:18.000Z</time>
      </trkpt>
      <trkpt lat="49.83782" lon="4.79326">
        <ele>301</ele>
        <time>2021-08-14T07:46:19.000Z</time>
      </trkpt>
      <trkpt lat="49.8378" lon="4.79326">
        <ele>302</ele>
        <time>2021-08-14T07:46:20.000Z</time>
      </trkpt>
      <trkpt lat="49.83779" lon="4.79326">
        <ele>302</ele>
        <time>2021-08-14T07:46:21.000Z</time>
      </trkpt>
      <trkpt lat="49.83777" lon="4.79326">
        <ele>302</ele>
        <time>2021-08-14T07:46:22.000Z</time>
      </trkpt>
      <trkpt lat="49.83776" lon="4.79326">
        <ele>303</ele>
        <time>2021-08-14T07:46:23.000Z</time>
      </trkpt>
      <trkpt lat="49.83775" lon="4.79326">
        <ele>303</ele>
        <time>2021-08-14T07:46:24.000Z</time>
      </trkpt>
      <trkpt lat="49.83774" lon="4.79326">
        <ele>303</ele>
        <time>2021-08-14T07:46:25.000Z</time>
      </trkpt>
      <trkpt lat="49.83772" lon="4.79326">
        <ele>304</ele>
        <time>2021-08-14T07:46:26.000Z</time>
      </trkpt>
      <trkpt lat="49.83771" lon="4.79326">
        <ele>304</ele>
        <time>2021-08-14T07:46:27.000Z</time>
      </trkpt>
      <trkpt lat="49.8377" lon="4.79325">
        <ele>304</ele>
        <time>2021-08-14T07:46:28.000Z</time>
      </trkpt>
      <trkpt lat="49.83769" lon="4.79325">
        <ele>305</ele>
        <time>2021-08-14T07:46:29.000Z</time>
      </trkpt>
      <trkpt lat="49.83767" lon="4.79325">
        <ele>305</ele>
        <time>2021-08-14T07:46:30.000Z</time>
      </trkpt>
      <trkpt lat="49.83766" lon="4.79325">
        <ele>305</ele>
        <time>2021-08-14T07:46:31.000Z</time>
      </trkpt>
      <trkpt lat="49.83764" lon="4.79324">
        <ele>305</ele>
        <time>2021-08-14T07:46:32.000Z</time>
      </trkpt>
      <trkpt lat="49.83763" lon="4.79324">
        <ele>306</ele>
        <time>2021-08-14T07:46:33.000Z</time>
      </trkpt>
      <trkpt lat="49.83761" lon="4.79323">
        <ele>306</ele>
        <time>2021-08-14T07:46:34.000Z</time>
      </trkpt>
      <trkpt lat="49.8376" lon="4.79324">
        <ele>306</ele>
        <time>2021-08-14T07:46:35.000Z</time>
      </trkpt>
      <trkpt lat="49.83758" lon="4.79324">
        <ele>306</ele>
        <time>2021-08-14T07:46:36.000Z</time>
      </trkpt>
      <trkpt lat="49.83757" lon="4.79324">
        <ele>306</ele>
        <time>2021-08-14T07:46:37.000Z</time>
      </trkpt>
      <trkpt lat="49.83755" lon="4.79324">
        <ele>306</ele>
        <time>2021-08-14T07:46:38.000Z</time>
      </trkpt>
      <trkpt lat="49.83754" lon="4.79324">
        <ele>307</ele>
        <time>2021-08-14T07:46:39.000Z</time>
      </trkpt>
      <trkpt lat="49.83752" lon="4.79324">
        <ele>307</ele>
        <time>2021-08-14T07:46:40.000Z</time>
      </trkpt>
      <trkpt lat="49.83751" lon="4.79324">
        <ele>307</ele>
        <time>2021-08-14T07:46:41.000Z</time>
      </trkpt>
      <trkpt lat="49.83749" lon="4.79324">
        <ele>307</ele>
        <time>2021-08-14T07:46:42.000Z</time>
      </trkpt>
      <trkpt lat="49.83749" lon="4.79325">
        <ele>307</ele>
        <time>2021-08-14T07:46:43.000Z</time>
      </trkpt>
      <trkpt lat="49.83748" lon="4.79326">
        <ele>307</ele>
        <time>2021-08-14T07:46:44.000Z</time>
      </trkpt>
      <trkpt lat="49.83746" lon="4.79326">
        <ele>308</ele>
        <time>2021-08-14T07:46:45.000Z</time>
      </trkpt>
      <trkpt lat="49.83745" lon="4.79327">
        <ele>308</ele>
        <time>2021-08-14T07:46:46.000Z</time>
      </trkpt>
      <trkpt lat="49.83743" lon="4.79328">
        <ele>308</ele>
        <time>2021-08-14T07:46:47.000Z</time>
      </trkpt>
      <trkpt lat="49.83741" lon="4.79328">
        <ele>308</ele>
        <time>2021-08-14T07:46:48.000Z</time>
      </trkpt>
      <trkpt lat="49.8374" lon="4.79329">
        <ele>308</ele>
        <time>2021-08-14T07:46:49.000Z</time>
      </trkpt>
      <trkpt lat="49.83739" lon="4.79329">
        <ele>308</ele>
        <time>2021-08-14T07:46:50.000Z</time>
      </trkpt>
      <trkpt lat="49.83737" lon="4.7933">
        <ele>309</ele>
        <time>2021-08-14T07:46:51.000Z</time>
      </trkpt>
      <trkpt lat="49.83736" lon="4.79331">
        <ele>309</ele>
        <time>2021-08-14T07:46:52.000Z</time>
      </trkpt>
      <trkpt lat="49.83735" lon="4.79333">
        <ele>309</ele>
        <time>2021-08-14T07:46:53.000Z</time>
      </trkpt>
      <trkpt lat="49.83733" lon="4.79334">
        <ele>309</ele>
        <time>2021-08-14T07:46:54.000Z</time>
      </trkpt>
      <trkpt lat="49.83732" lon="4.79336">
        <ele>309</ele>
        <time>2021-08-14T07:46:55.000Z</time>
      </trkpt>
      <trkpt lat="49.83731" lon="4.79337">
        <ele>310</ele>
        <time>2021-08-14T07:46:56.000Z</time>
      </trkpt>
      <trkpt lat="49.83731" lon="4.79338">
        <ele>310</ele>
        <time>2021-08-14T07:46:57.000Z</time>
      </trkpt>
      <trkpt lat="49.83729" lon="4.79339">
        <ele>310</ele>
        <time>2021-08-14T07:46:58.000Z</time>
      </trkpt>
      <trkpt lat="49.83728" lon="4.79341">
        <ele>310</ele>
        <time>2021-08-14T07:46:59.000Z</time>
      </trkpt>
      <trkpt lat="49.83727" lon="4.79342">
        <ele>310</ele>
        <time>2021-08-14T07:47:00.000Z</time>
      </trkpt>
      <trkpt lat="49.83726" lon="4.79343">
        <ele>311</ele>
        <time>2021-08-14T07:47:01.000Z</time>
      </trkpt>
      <trkpt lat="49.83726" lon="4.79344">
        <ele>311</ele>
        <time>2021-08-14T07:47:02.000Z</time>
      </trkpt>
      <trkpt lat="49.83724" lon="4.79346">
        <ele>311</ele>
        <time>2021-08-14T07:47:03.000Z</time>
      </trkpt>
      <trkpt lat="49.83723" lon="4.79348">
        <ele>311</ele>
        <time>2021-08-14T07:47:04.000Z</time>
      </trkpt>
      <trkpt lat="49.83722" lon="4.7935">
        <ele>311</ele>
        <time>2021-08-14T07:47:05.000Z</time>
      </trkpt>
      <trkpt lat="49.8372" lon="4.79352">
        <ele>311</ele>
        <time>2021-08-14T07:47:06.000Z</time>
      </trkpt>
      <trkpt lat="49.83719" lon="4.79355">
        <ele>312</ele>
        <time>2021-08-14T07:47:07.000Z</time>
      </trkpt>
      <trkpt lat="49.83718" lon="4.79357">
        <ele>312</ele>
        <time>2021-08-14T07:47:08.000Z</time>
      </trkpt>
      <trkpt lat="49.83716" lon="4.79359">
        <ele>312</ele>
        <time>2021-08-14T07:47:09.000Z</time>
      </trkpt>
      <trkpt lat="49.83715" lon="4.79361">
        <ele>312</ele>
        <time>2021-08-14T07:47:10.000Z</time>
      </trkpt>
      <trkpt lat="49.83714" lon="4.79364">
        <ele>312</ele>
        <time>2021-08-14T07:47:11.000Z</time>
      </trkpt>
      <trkpt lat="49.83712" lon="4.79366">
        <ele>312</ele>
        <time>2021-08-14T07:47:12.000Z</time>
      </trkpt>
      <trkpt lat="49.83711" lon="4.79369">
        <ele>312</ele>
        <time>2021-08-14T07:47:13.000Z</time>
      </trkpt>
      <trkpt lat="49.8371" lon="4.79372">
        <ele>312</ele>
        <time>2021-08-14T07:47:14.000Z</time>
      </trkpt>
      <trkpt lat="49.8371" lon="4.79375">
        <ele>313</ele>
        <time>2021-08-14T07:47:15.000Z</time>
      </trkpt>
      <trkpt lat="49.83709" lon="4.79378">
        <ele>313</ele>
        <time>2021-08-14T07:47:16.000Z</time>
      </trkpt>
      <trkpt lat="49.83709" lon="4.7938">
        <ele>313</ele>
        <time>2021-08-14T07:47:17.000Z</time>
      </trkpt>
      <trkpt lat="49.83708" lon="4.79383">
        <ele>313</ele>
        <time>2021-08-14T07:47:18.000Z</time>
      </trkpt>
      <trkpt lat="49.83708" lon="4.79386">
        <ele>313</ele>
        <time>2021-08-14T07:47:19.000Z</time>
      </trkpt>
      <trkpt lat="49.83708" lon="4.79389">
        <ele>313</ele>
        <time>2021-08-14T07:47:20.000Z</time>
      </trkpt>
      <trkpt lat="49.83708" lon="4.79393">
        <ele>313</ele>
        <time>2021-08-14T07:47:21.000Z</time>
      </trkpt>
      <trkpt lat="49.83707" lon="4.79396">
        <ele>313</ele>
        <time>2021-08-14T07:47:22.000Z</time>
      </trkpt>
      <trkpt lat="49.83707" lon="4.79399">
        <ele>313</ele>
        <time>2021-08-14T07:47:23.000Z</time>
      </trkpt>
      <trkpt lat="49.83706" lon="4.79402">
        <ele>313</ele>
        <time>2021-08-14T07:47:24.000Z</time>
      </trkpt>
      <trkpt lat="49.83705" lon="4.79405">
        <ele>313</ele>
        <time>2021-08-14T07:47:25.000Z</time>
      </trkpt>
      <trkpt lat="49.83705" lon="4.79408">
        <ele>313</ele>
        <time>2021-08-14T07:47:26.000Z</time>
      </trkpt>
      <trkpt lat="49.83704" lon="4.79411">
        <ele>314</ele>
        <time>2021-08-14T07:47:27.000Z</time>
      </trkpt>
      <trkpt lat="49.83704" lon="4.79413">
        <ele>314</ele>
        <time>2021-08-14T07:47:28.000Z</time>
      </trkpt>
      <trkpt lat="49.83703" lon="4.79415">
        <ele>314</ele>
        <time>2021-08-14T07:47:29.000Z</time>
      </trkpt>
      <trkpt lat="49.83703" lon="4.79418">
        <ele>314</ele>
        <time>2021-08-14T07:47:30.000Z</time>
      </trkpt>
      <trkpt lat="49.83702" lon="4.79421">
        <ele>314</ele>
        <time>2021-08-14T07:47:31.000Z</time>
      </trkpt>
      <trkpt lat="49.83701" lon="4.79424">
        <ele>314</ele>
        <time>2021-08-14T07:47:32.000Z</time>
      </trkpt>
      <trkpt lat="49.837" lon="4.79427">
        <ele>314</ele>
        <time>2021-08-14T07:47:33.000Z</time>
      </trkpt>
      <trkpt lat="49.83699" lon="4.79431">
        <ele>314</ele>
        <time>2021-08-14T07:47:34.000Z</time>
      </trkpt>
      <trkpt lat="49.83698" lon="4.79435">
        <ele>314</ele>
        <time>2021-08-14T07:47:35.000Z</time>
      </trkpt>
      <trkpt lat="49.83698" lon="4.79438">
        <ele>314</ele>
        <time>2021-08-14T07:47:36.000Z</time>
      </trkpt>
      <trkpt lat="49.83697" lon="4.79442">
        <ele>314</ele>
        <time>2021-08-14T07:47:37.000Z</time>
      </trkpt>
      <trkpt lat="49.83697" lon="4.79446">
        <ele>314</ele>
        <time>2021-08-14T07:47:38.000Z</time>
      </trkpt>
      <trkpt lat="49.83696" lon="4.7945">
        <ele>314</ele>
        <time>2021-08-14T07:47:39.000Z</time>
      </trkpt>
      <trkpt lat="49.83695" lon="4.79454">
        <ele>314</ele>
        <time>2021-08-14T07:47:40.000Z</time>
      </trkpt>
      <trkpt lat="49.83694" lon="4.79459">
        <ele>314</ele>
        <time>2021-08-14T07:47:41.000Z</time>
      </trkpt>
      <trkpt lat="49.83693" lon="4.79463">
        <ele>314</ele>
        <time>2021-08-14T07:47:42.000Z</time>
      </trkpt>
      <trkpt lat="49.83693" lon="4.79467">
        <ele>314</ele>
        <time>2021-08-14T07:47:43.000Z</time>
      </trkpt>
      <trkpt lat="49.83692" lon="4.79471">
        <ele>313</ele>
        <time>2021-08-14T07:47:44.000Z</time>
      </trkpt>
      <trkpt lat="49.83692" lon="4.79475">
        <ele>313</ele>
        <time>2021-08-14T07:47:45.000Z</time>
      </trkpt>
      <trkpt lat="49.83691" lon="4.79478">
        <ele>313</ele>
        <time>2021-08-14T07:47:46.000Z</time>
      </trkpt>
      <trkpt lat="49.8369" lon="4.79482">
        <ele>313</ele>
        <time>2021-08-14T07:47:47.000Z</time>
      </trkpt>
      <trkpt lat="49.83689" lon="4.79486">
        <ele>313</ele>
        <time>2021-08-14T07:47:48.000Z</time>
      </trkpt>
      <trkpt lat="49.83688" lon="4.79491">
        <ele>313</ele>
        <time>2021-08-14T07:47:49.000Z</time>
      </trkpt>
      <trkpt lat="49.83687" lon="4.79495">
        <ele>313</ele>
        <time>2021-08-14T07:47:50.000Z</time>
      </trkpt>
      <trkpt lat="49.83686" lon="4.795">
        <ele>313</ele>
        <time>2021-08-14T07:47:51.000Z</time>
      </trkpt>
      <trkpt lat="49.83685" lon="4.79506">
        <ele>313</ele>
        <time>2021-08-14T07:47:52.000Z</time>
      </trkpt>
      <trkpt lat="49.83684" lon="4.79512">
        <ele>313</ele>
        <time>2021-08-14T07:47:53.000Z</time>
      </trkpt>
      <trkpt lat="49.83682" lon="4.79517">
        <ele>313</ele>
        <time>2021-08-14T07:47:54.000Z</time>
      </trkpt>
      <trkpt lat="49.83681" lon="4.79523">
        <ele>313</ele>
        <time>2021-08-14T07:47:55.000Z</time>
      </trkpt>
      <trkpt lat="49.8368" lon="4.79528">
        <ele>313</ele>
        <time>2021-08-14T07:47:56.000Z</time>
      </trkpt>
      <trkpt lat="49.8368" lon="4.79533">
        <ele>313</ele>
        <time>2021-08-14T07:47:57.000Z</time>
      </trkpt>
      <trkpt lat="49.83681" lon="4.79538">
        <ele>313</ele>
        <time>2021-08-14T07:47:58.000Z</time>
      </trkpt>
      <trkpt lat="49.83681" lon="4.79543">
        <ele>313</ele>
        <time>2021-08-14T07:47:59.000Z</time>
      </trkpt>
      <trkpt lat="49.83681" lon="4.79548">
        <ele>313</ele>
        <time>2021-08-14T07:48:00.000Z</time>
      </trkpt>
      <trkpt lat="49.83681" lon="4.79555">
        <ele>313</ele>
        <time>2021-08-14T07:48:01.000Z</time>
      </trkpt>
      <trkpt lat="49.83682" lon="4.79561">
        <ele>313</ele>
        <time>2021-08-14T07:48:02.000Z</time>
      </trkpt>
      <trkpt lat="49.83682" lon="4.79566">
        <ele>313</ele>
        <time>2021-08-14T07:48:03.000Z</time>
      </trkpt>
      <trkpt lat="49.83683" lon="4.79571">
        <ele>313</ele>
        <time>2021-08-14T07:48:04.000Z</time>
      </trkpt>
      <trkpt lat="49.83683" lon="4.79575">
        <ele>313</ele>
        <time>2021-08-14T07:48:05.000Z</time>
      </trkpt>
      <trkpt lat="49.83683" lon="4.79579">
        <ele>313</ele>
        <time>2021-08-14T07:48:06.000Z</time>
      </trkpt>
      <trkpt lat="49.83682" lon="4.79582">
        <ele>313</ele>
        <time>2021-08-14T07:48:07.000Z</time>
      </trkpt>
      <trkpt lat="49.83682" lon="4.79585">
        <ele>313</ele>
        <time>2021-08-14T07:48:08.000Z</time>
      </trkpt>
      <trkpt lat="49.83682" lon="4.79587">
        <ele>313</ele>
        <time>2021-08-14T07:48:09.000Z</time>
      </trkpt>
      <trkpt lat="49.83683" lon="4.79589">
        <ele>313</ele>
        <time>2021-08-14T07:48:10.000Z</time>
      </trkpt>
      <trkpt lat="49.83683" lon="4.79592">
        <ele>313</ele>
        <time>2021-08-14T07:48:11.000Z</time>
      </trkpt>
      <trkpt lat="49.83684" lon="4.79595">
        <ele>313</ele>
        <time>2021-08-14T07:48:12.000Z</time>
      </trkpt>
      <trkpt lat="49.83685" lon="4.79599">
        <ele>313</ele>
        <time>2021-08-14T07:48:13.000Z</time>
      </trkpt>
      <trkpt lat="49.83685" lon="4.79603">
        <ele>314</ele>
        <time>2021-08-14T07:48:14.000Z</time>
      </trkpt>
      <trkpt lat="49.83686" lon="4.79608">
        <ele>314</ele>
        <time>2021-08-14T07:48:15.000Z</time>
      </trkpt>
      <trkpt lat="49.83686" lon="4.79612">
        <ele>314</ele>
        <time>2021-08-14T07:48:16.000Z</time>
      </trkpt>
      <trkpt lat="49.83687" lon="4.79616">
        <ele>314</ele>
        <time>2021-08-14T07:48:17.000Z</time>
      </trkpt>
      <trkpt lat="49.83687" lon="4.79621">
        <ele>314</ele>
        <time>2021-08-14T07:48:18.000Z</time>
      </trkpt>
      <trkpt lat="49.83687" lon="4.79626">
        <ele>314</ele>
        <time>2021-08-14T07:48:19.000Z</time>
      </trkpt>
      <trkpt lat="49.83687" lon="4.79631">
        <ele>315</ele>
        <time>2021-08-14T07:48:20.000Z</time>
      </trkpt>
      <trkpt lat="49.83687" lon="4.79637">
        <ele>315</ele>
        <time>2021-08-14T07:48:21.000Z</time>
      </trkpt>
      <trkpt lat="49.83687" lon="4.79643">
        <ele>315</ele>
        <time>2021-08-14T07:48:22.000Z</time>
      </trkpt>
      <trkpt lat="49.83687" lon="4.79649">
        <ele>315</ele>
        <time>2021-08-14T07:48:23.000Z</time>
      </trkpt>
      <trkpt lat="49.83687" lon="4.79656">
        <ele>316</ele>
        <time>2021-08-14T07:48:24.000Z</time>
      </trkpt>
      <trkpt lat="49.83686" lon="4.79662">
        <ele>316</ele>
        <time>2021-08-14T07:48:25.000Z</time>
      </trkpt>
      <trkpt lat="49.83685" lon="4.7967">
        <ele>316</ele>
        <time>2021-08-14T07:48:26.000Z</time>
      </trkpt>
      <trkpt lat="49.83685" lon="4.79676">
        <ele>316</ele>
        <time>2021-08-14T07:48:27.000Z</time>
      </trkpt>
      <trkpt lat="49.83686" lon="4.79683">
        <ele>316</ele>
        <time>2021-08-14T07:48:28.000Z</time>
      </trkpt>
      <trkpt lat="49.83686" lon="4.79689">
        <ele>316</ele>
        <time>2021-08-14T07:48:29.000Z</time>
      </trkpt>
      <trkpt lat="49.83687" lon="4.79692">
        <ele>316</ele>
        <time>2021-08-14T07:48:30.000Z</time>
      </trkpt>
      <trkpt lat="49.83687" lon="4.79693">
        <ele>316</ele>
        <time>2021-08-14T07:48:31.000Z</time>
      </trkpt>
      <trkpt lat="49.83687" lon="4.79693">
        <ele>316</ele>
        <time>2021-08-14T07:48:32.000Z</time>
      </trkpt>
      <trkpt lat="49.83687" lon="4.79694">
        <ele>316</ele>
        <time>2021-08-14T07:48:33.000Z</time>
      </trkpt>
      <trkpt lat="49.83687" lon="4.79695">
        <ele>316</ele>
        <time>2021-08-14T07:48:34.000Z</time>
      </trkpt>
      <trkpt lat="49.83687" lon="4.79696">
        <ele>316</ele>
        <time>2021-08-14T07:48:35.000Z</time>
      </trkpt>
      <trkpt lat="49.83687" lon="4.79696">
        <ele>316</ele>
        <time>2021-08-14T07:48:36.000Z</time>
      </trkpt>
      <trkpt lat="49.83687" lon="4.79696">
        <ele>316</ele>
        <time>2021-08-14T07:48:37.000Z</time>
      </trkpt>
      <trkpt lat="49.83687" lon="4.79697">
        <ele>316</ele>
        <time>2021-08-14T07:48:38.000Z</time>
      </trkpt>
      <trkpt lat="49.83687" lon="4.79698">
        <ele>317</ele>
        <time>2021-08-14T07:48:39.000Z</time>
      </trkpt>
      <trkpt lat="49.83688" lon="4.79698">
        <ele>317</ele>
        <time>2021-08-14T07:48:40.000Z</time>
      </trkpt>
      <trkpt lat="49.83688" lon="4.79698">
        <ele>317</ele>
        <time>2021-08-14T07:48:41.000Z</time>
      </trkpt>
      <trkpt lat="49.83688" lon="4.79699">
        <ele>317</ele>
        <time>2021-08-14T07:48:42.000Z</time>
      </trkpt>
      <trkpt lat="49.83688" lon="4.79699">
        <ele>317</ele>
        <time>2021-08-14T07:48:43.000Z</time>
      </trkpt>
      <trkpt lat="49.83688" lon="4.79699">
        <ele>317</ele>
        <time>2021-08-14T07:48:44.000Z</time>
      </trkpt>
      <trkpt lat="49.83689" lon="4.79699">
        <ele>317</ele>
        <time>2021-08-14T07:48:45.000Z</time>
      </trkpt>
      <trkpt lat="49.83689" lon="4.797">
        <ele>317</ele>
        <time>2021-08-14T07:48:46.000Z</time>
      </trkpt>
      <trkpt lat="49.83689" lon="4.797">
        <ele>317</ele>
        <time>2021-08-14T07:48:47.000Z</time>
      </trkpt>
      <trkpt lat="49.83689" lon="4.797">
        <ele>317</ele>
        <time>2021-08-14T07:48:48.000Z</time>
      </trkpt>
      <trkpt lat="49.83689" lon="4.797">
        <ele>317</ele>
        <time>2021-08-14T07:48:49.000Z</time>
      </trkpt>
      <trkpt lat="49.83689" lon="4.797">
        <ele>318</ele>
        <time>2021-08-14T07:48:50.000Z</time>
      </trkpt>
      <trkpt lat="49.83689" lon="4.797">
        <ele>318</ele>
        <time>2021-08-14T07:48:51.000Z</time>
      </trkpt>
      <trkpt lat="49.83689" lon="4.79701">
        <ele>318</ele>
        <time>2021-08-14T07:48:52.000Z</time>
      </trkpt>
      <trkpt lat="49.8369" lon="4.79701">
        <ele>318</ele>
        <time>2021-08-14T07:48:53.000Z</time>
      </trkpt>
      <trkpt lat="49.8369" lon="4.79701">
        <ele>318</ele>
        <time>2021-08-14T07:48:54.000Z</time>
      </trkpt>
      <trkpt lat="49.8369" lon="4.79701">
        <ele>318</ele>
        <time>2021-08-14T07:48:55.000Z</time>
      </trkpt>
      <trkpt lat="49.8369" lon="4.79701">
        <ele>318</ele>
        <time>2021-08-14T07:48:56.000Z</time>
      </trkpt>
      <trkpt lat="49.8369" lon="4.79701">
        <ele>318</ele>
        <time>2021-08-14T07:48:57.000Z</time>
      </trkpt>
      <trkpt lat="49.8369" lon="4.79701">
        <ele>318</ele>
        <time>2021-08-14T07:48:58.000Z</time>
      </trkpt>
      <trkpt lat="49.8369" lon="4.79701">
        <ele>318</ele>
        <time>2021-08-14T07:48:59.000Z</time>
      </trkpt>
      <trkpt lat="49.8369" lon="4.79701">
        <ele>318</ele>
        <time>2021-08-14T07:49:00.000Z</time>
      </trkpt>
      <trkpt lat="49.8369" lon="4.79701">
        <ele>318</ele>
        <time>2021-08-14T07:49:01.000Z</time>
      </trkpt>
      <trkpt lat="49.8369" lon="4.79701">
        <ele>318</ele>
        <time>2021-08-14T07:49:02.000Z</time>
      </trkpt>
      <trkpt lat="49.8369" lon="4.79701">
        <ele>318</ele>
        <time>2021-08-14T07:49:03.000Z</time>
      </trkpt>
      <trkpt lat="49.8369" lon="4.79701">
        <ele>318</ele>
        <time>2021-08-14T07:49:04.000Z</time>
      </trkpt>
      <trkpt lat="49.8369" lon="4.79702">
        <ele>318</ele>
        <time>2021-08-14T07:49:05.000Z</time>
      </trkpt>
      <trkpt lat="49.83691" lon="4.79702">
        <ele>318</ele>
        <time>2021-08-14T07:49:06.000Z</time>
      </trkpt>
      <trkpt lat="49.83691" lon="4.79703">
        <ele>318</ele>
        <time>2021-08-14T07:49:07.000Z</time>
      </trkpt>
      <trkpt lat="49.83693" lon="4.79705">
        <ele>318</ele>
        <time>2021-08-14T07:49:08.000Z</time>
      </trkpt>
      <trkpt lat="49.83695" lon="4.79706">
        <ele>318</ele>
        <time>2021-08-14T07:49:09.000Z</time>
      </trkpt>
      <trkpt lat="49.83698" lon="4.79706">
        <ele>318</ele>
        <time>2021-08-14T07:49:10.000Z</time>
      </trkpt>
      <trkpt lat="49.83701" lon="4.79708">
        <ele>318</ele>
        <time>2021-08-14T07:49:11.000Z</time>
      </trkpt>
      <trkpt lat="49.83703" lon="4.79709">
        <ele>318</ele>
        <time>2021-08-14T07:49:12.000Z</time>
      </trkpt>
      <trkpt lat="49.83706" lon="4.7971">
        <ele>318</ele>
        <time>2021-08-14T07:49:13.000Z</time>
      </trkpt>
      <trkpt lat="49.83708" lon="4.79711">
        <ele>319</ele>
        <time>2021-08-14T07:49:14.000Z</time>
      </trkpt>
      <trkpt lat="49.8371" lon="4.79712">
        <ele>319</ele>
        <time>2021-08-14T07:49:15.000Z</time>
      </trkpt>
      <trkpt lat="49.83713" lon="4.79712">
        <ele>319</ele>
        <time>2021-08-14T07:49:16.000Z</time>
      </trkpt>
      <trkpt lat="49.83715" lon="4.79713">
        <ele>319</ele>
        <time>2021-08-14T07:49:17.000Z</time>
      </trkpt>
      <trkpt lat="49.83718" lon="4.79714">
        <ele>319</ele>
        <time>2021-08-14T07:49:18.000Z</time>
      </trkpt>
      <trkpt lat="49.83721" lon="4.79715">
        <ele>319</ele>
        <time>2021-08-14T07:49:19.000Z</time>
      </trkpt>
      <trkpt lat="49.83724" lon="4.79715">
        <ele>318</ele>
        <time>2021-08-14T07:49:20.000Z</time>
      </trkpt>
      <trkpt lat="49.83727" lon="4.79716">
        <ele>318</ele>
        <time>2021-08-14T07:49:21.000Z</time>
      </trkpt>
      <trkpt lat="49.8373" lon="4.79716">
        <ele>318</ele>
        <time>2021-08-14T07:49:22.000Z</time>
      </trkpt>
      <trkpt lat="49.83732" lon="4.79716">
        <ele>318</ele>
        <time>2021-08-14T07:49:23.000Z</time>
      </trkpt>
      <trkpt lat="49.83735" lon="4.79716">
        <ele>318</ele>
        <time>2021-08-14T07:49:24.000Z</time>
      </trkpt>
      <trkpt lat="49.83738" lon="4.79717">
        <ele>318</ele>
        <time>2021-08-14T07:49:25.000Z</time>
      </trkpt>
      <trkpt lat="49.8374" lon="4.79717">
        <ele>318</ele>
        <time>2021-08-14T07:49:26.000Z</time>
      </trkpt>
      <trkpt lat="49.83743" lon="4.79717">
        <ele>318</ele>
        <time>2021-08-14T07:49:27.000Z</time>
      </trkpt>
      <trkpt lat="49.83746" lon="4.79718">
        <ele>318</ele>
        <time>2021-08-14T07:49:28.000Z</time>
      </trkpt>
      <trkpt lat="49.83749" lon="4.79718">
        <ele>318</ele>
        <time>2021-08-14T07:49:29.000Z</time>
      </trkpt>
      <trkpt lat="49.83752" lon="4.79718">
        <ele>319</ele>
        <time>2021-08-14T07:49:30.000Z</time>
      </trkpt>
      <trkpt lat="49.83755" lon="4.79718">
        <ele>319</ele>
        <time>2021-08-14T07:49:31.000Z</time>
      </trkpt>
      <trkpt lat="49.83758" lon="4.79718">
        <ele>319</ele>
        <time>2021-08-14T07:49:32.000Z</time>
      </trkpt>
      <trkpt lat="49.8376" lon="4.79719">
        <ele>319</ele>
        <time>2021-08-14T07:49:33.000Z</time>
      </trkpt>
      <trkpt lat="49.83763" lon="4.79718">
        <ele>319</ele>
        <time>2021-08-14T07:49:34.000Z</time>
      </trkpt>
      <trkpt lat="49.83766" lon="4.79718">
        <ele>319</ele>
        <time>2021-08-14T07:49:35.000Z</time>
      </trkpt>
      <trkpt lat="49.83769" lon="4.79719">
        <ele>319</ele>
        <time>2021-08-14T07:49:36.000Z</time>
      </trkpt>
      <trkpt lat="49.83772" lon="4.79719">
        <ele>319</ele>
        <time>2021-08-14T07:49:37.000Z</time>
      </trkpt>
      <trkpt lat="49.83774" lon="4.79719">
        <ele>320</ele>
        <time>2021-08-14T07:49:38.000Z</time>
      </trkpt>
      <trkpt lat="49.83777" lon="4.7972">
        <ele>320</ele>
        <time>2021-08-14T07:49:39.000Z</time>
      </trkpt>
      <trkpt lat="49.8378" lon="4.7972">
        <ele>320</ele>
        <time>2021-08-14T07:49:40.000Z</time>
      </trkpt>
      <trkpt lat="49.83782" lon="4.79721">
        <ele>320</ele>
        <time>2021-08-14T07:49:41.000Z</time>
      </trkpt>
      <trkpt lat="49.83784" lon="4.79722">
        <ele>321</ele>
        <time>2021-08-14T07:49:42.000Z</time>
      </trkpt>
      <trkpt lat="49.83787" lon="4.79722">
        <ele>321</ele>
        <time>2021-08-14T07:49:43.000Z</time>
      </trkpt>
      <trkpt lat="49.83789" lon="4.79722">
        <ele>321</ele>
        <time>2021-08-14T07:49:44.000Z</time>
      </trkpt>
      <trkpt lat="49.83792" lon="4.79723">
        <ele>321</ele>
        <time>2021-08-14T07:49:45.000Z</time>
      </trkpt>
      <trkpt lat="49.83794" lon="4.79723">
        <ele>321</ele>
        <time>2021-08-14T07:49:46.000Z</time>
      </trkpt>
      <trkpt lat="49.83797" lon="4.79724">
        <ele>322</ele>
        <time>2021-08-14T07:49:47.000Z</time>
      </trkpt>
      <trkpt lat="49.838" lon="4.79725">
        <ele>322</ele>
        <time>2021-08-14T07:49:48.000Z</time>
      </trkpt>
      <trkpt lat="49.83802" lon="4.79726">
        <ele>322</ele>
        <time>2021-08-14T07:49:49.000Z</time>
      </trkpt>
      <trkpt lat="49.83805" lon="4.79727">
        <ele>322</ele>
        <time>2021-08-14T07:49:50.000Z</time>
      </trkpt>
      <trkpt lat="49.83808" lon="4.79728">
        <ele>322</ele>
        <time>2021-08-14T07:49:51.000Z</time>
      </trkpt>
      <trkpt lat="49.8381" lon="4.79729">
        <ele>323</ele>
        <time>2021-08-14T07:49:52.000Z</time>
      </trkpt>
      <trkpt lat="49.83813" lon="4.79731">
        <ele>323</ele>
        <time>2021-08-14T07:49:53.000Z</time>
      </trkpt>
      <trkpt lat="49.83815" lon="4.79732">
        <ele>323</ele>
        <time>2021-08-14T07:49:54.000Z</time>
      </trkpt>
      <trkpt lat="49.83818" lon="4.79733">
        <ele>323</ele>
        <time>2021-08-14T07:49:55.000Z</time>
      </trkpt>
      <trkpt lat="49.83821" lon="4.79735">
        <ele>323</ele>
        <time>2021-08-14T07:49:56.000Z</time>
      </trkpt>
      <trkpt lat="49.83823" lon="4.79736">
        <ele>323</ele>
        <time>2021-08-14T07:49:57.000Z</time>
      </trkpt>
      <trkpt lat="49.83825" lon="4.79738">
        <ele>323</ele>
        <time>2021-08-14T07:49:58.000Z</time>
      </trkpt>
      <trkpt lat="49.83828" lon="4.7974">
        <ele>323</ele>
        <time>2021-08-14T07:49:59.000Z</time>
      </trkpt>
      <trkpt lat="49.83831" lon="4.79741">
        <ele>324</ele>
        <time>2021-08-14T07:50:00.000Z</time>
      </trkpt>
      <trkpt lat="49.83833" lon="4.79743">
        <ele>324</ele>
        <time>2021-08-14T07:50:01.000Z</time>
      </trkpt>
      <trkpt lat="49.83836" lon="4.79744">
        <ele>324</ele>
        <time>2021-08-14T07:50:02.000Z</time>
      </trkpt>
      <trkpt lat="49.83839" lon="4.79746">
        <ele>324</ele>
        <time>2021-08-14T07:50:03.000Z</time>
      </trkpt>
      <trkpt lat="49.83841" lon="4.79748">
        <ele>324</ele>
        <time>2021-08-14T07:50:04.000Z</time>
      </trkpt>
      <trkpt lat="49.83844" lon="4.7975">
        <ele>324</ele>
        <time>2021-08-14T07:50:05.000Z</time>
      </trkpt>
      <trkpt lat="49.83847" lon="4.79751">
        <ele>325</ele>
        <time>2021-08-14T07:50:06.000Z</time>
      </trkpt>
      <trkpt lat="49.83849" lon="4.79753">
        <ele>325</ele>
        <time>2021-08-14T07:50:07.000Z</time>
      </trkpt>
      <trkpt lat="49.83852" lon="4.79755">
        <ele>325</ele>
        <time>2021-08-14T07:50:08.000Z</time>
      </trkpt>
      <trkpt lat="49.83855" lon="4.79757">
        <ele>325</ele>
        <time>2021-08-14T07:50:09.000Z</time>
      </trkpt>
      <trkpt lat="49.83857" lon="4.79759">
        <ele>325</ele>
        <time>2021-08-14T07:50:10.000Z</time>
      </trkpt>
      <trkpt lat="49.8386" lon="4.79761">
        <ele>325</ele>
        <time>2021-08-14T07:50:11.000Z</time>
      </trkpt>
      <trkpt lat="49.83863" lon="4.79764">
        <ele>325</ele>
        <time>2021-08-14T07:50:12.000Z</time>
      </trkpt>
      <trkpt lat="49.83865" lon="4.79766">
        <ele>325</ele>
        <time>2021-08-14T07:50:13.000Z</time>
      </trkpt>
      <trkpt lat="49.83868" lon="4.79768">
        <ele>325</ele>
        <time>2021-08-14T07:50:14.000Z</time>
      </trkpt>
      <trkpt lat="49.83871" lon="4.7977">
        <ele>325</ele>
        <time>2021-08-14T07:50:15.000Z</time>
      </trkpt>
      <trkpt lat="49.83873" lon="4.79772">
        <ele>325</ele>
        <time>2021-08-14T07:50:16.000Z</time>
      </trkpt>
      <trkpt lat="49.83876" lon="4.79774">
        <ele>326</ele>
        <time>2021-08-14T07:50:17.000Z</time>
      </trkpt>
      <trkpt lat="49.83879" lon="4.79776">
        <ele>326</ele>
        <time>2021-08-14T07:50:18.000Z</time>
      </trkpt>
      <trkpt lat="49.83882" lon="4.79778">
        <ele>326</ele>
        <time>2021-08-14T07:50:19.000Z</time>
      </trkpt>
      <trkpt lat="49.83884" lon="4.79781">
        <ele>326</ele>
        <time>2021-08-14T07:50:20.000Z</time>
      </trkpt>
      <trkpt lat="49.83887" lon="4.79783">
        <ele>326</ele>
        <time>2021-08-14T07:50:21.000Z</time>
      </trkpt>
      <trkpt lat="49.8389" lon="4.79786">
        <ele>326</ele>
        <time>2021-08-14T07:50:22.000Z</time>
      </trkpt>
      <trkpt lat="49.83893" lon="4.79788">
        <ele>327</ele>
        <time>2021-08-14T07:50:23.000Z</time>
      </trkpt>
      <trkpt lat="49.83895" lon="4.7979">
        <ele>327</ele>
        <time>2021-08-14T07:50:24.000Z</time>
      </trkpt>
      <trkpt lat="49.83898" lon="4.79792">
        <ele>327</ele>
        <time>2021-08-14T07:50:25.000Z</time>
      </trkpt>
      <trkpt lat="49.83901" lon="4.79794">
        <ele>327</ele>
        <time>2021-08-14T07:50:26.000Z</time>
      </trkpt>
      <trkpt lat="49.83903" lon="4.79796">
        <ele>327</ele>
        <time>2021-08-14T07:50:27.000Z</time>
      </trkpt>
      <trkpt lat="49.83906" lon="4.79798">
        <ele>327</ele>
        <time>2021-08-14T07:50:28.000Z</time>
      </trkpt>
      <trkpt lat="49.83909" lon="4.798">
        <ele>327</ele>
        <time>2021-08-14T07:50:29.000Z</time>
      </trkpt>
      <trkpt lat="49.83911" lon="4.79802">
        <ele>328</ele>
        <time>2021-08-14T07:50:30.000Z</time>
      </trkpt>
      <trkpt lat="49.83914" lon="4.79804">
        <ele>328</ele>
        <time>2021-08-14T07:50:31.000Z</time>
      </trkpt>
      <trkpt lat="49.83917" lon="4.79805">
        <ele>328</ele>
        <time>2021-08-14T07:50:32.000Z</time>
      </trkpt>
      <trkpt lat="49.83919" lon="4.79807">
        <ele>328</ele>
        <time>2021-08-14T07:50:33.000Z</time>
      </trkpt>
      <trkpt lat="49.83922" lon="4.79809">
        <ele>328</ele>
        <time>2021-08-14T07:50:34.000Z</time>
      </trkpt>
      <trkpt lat="49.83924" lon="4.79811">
        <ele>329</ele>
        <time>2021-08-14T07:50:35.000Z</time>
      </trkpt>
      <trkpt lat="49.83927" lon="4.79812">
        <ele>329</ele>
        <time>2021-08-14T07:50:36.000Z</time>
      </trkpt>
      <trkpt lat="49.8393" lon="4.79814">
        <ele>329</ele>
        <time>2021-08-14T07:50:37.000Z</time>
      </trkpt>
      <trkpt lat="49.83932" lon="4.79816">
        <ele>329</ele>
        <time>2021-08-14T07:50:38.000Z</time>
      </trkpt>
      <trkpt lat="49.83935" lon="4.79818">
        <ele>329</ele>
        <time>2021-08-14T07:50:39.000Z</time>
      </trkpt>
      <trkpt lat="49.83938" lon="4.7982">
        <ele>330</ele>
        <time>2021-08-14T07:50:40.000Z</time>
      </trkpt>
      <trkpt lat="49.8394" lon="4.79821">
        <ele>330</ele>
        <time>2021-08-14T07:50:41.000Z</time>
      </trkpt>
      <trkpt lat="49.83943" lon="4.79823">
        <ele>330</ele>
        <time>2021-08-14T07:50:42.000Z</time>
      </trkpt>
      <trkpt lat="49.83945" lon="4.79825">
        <ele>330</ele>
        <time>2021-08-14T07:50:43.000Z</time>
      </trkpt>
      <trkpt lat="49.83948" lon="4.79827">
        <ele>331</ele>
        <time>2021-08-14T07:50:44.000Z</time>
      </trkpt>
      <trkpt lat="49.8395" lon="4.79828">
        <ele>331</ele>
        <time>2021-08-14T07:50:45.000Z</time>
      </trkpt>
      <trkpt lat="49.83953" lon="4.7983">
        <ele>331</ele>
        <time>2021-08-14T07:50:46.000Z</time>
      </trkpt>
      <trkpt lat="49.83955" lon="4.79831">
        <ele>331</ele>
        <time>2021-08-14T07:50:47.000Z</time>
      </trkpt>
      <trkpt lat="49.83958" lon="4.79833">
        <ele>331</ele>
        <time>2021-08-14T07:50:48.000Z</time>
      </trkpt>
      <trkpt lat="49.8396" lon="4.79835">
        <ele>332</ele>
        <time>2021-08-14T07:50:49.000Z</time>
      </trkpt>
      <trkpt lat="49.83962" lon="4.79837">
        <ele>332</ele>
        <time>2021-08-14T07:50:50.000Z</time>
      </trkpt>
      <trkpt lat="49.83964" lon="4.79838">
        <ele>332</ele>
        <time>2021-08-14T07:50:51.000Z</time>
      </trkpt>
      <trkpt lat="49.83967" lon="4.79839">
        <ele>332</ele>
        <time>2021-08-14T07:50:52.000Z</time>
      </trkpt>
      <trkpt lat="49.8397" lon="4.79841">
        <ele>332</ele>
        <time>2021-08-14T07:50:53.000Z</time>
      </trkpt>
      <trkpt lat="49.83972" lon="4.79842">
        <ele>333</ele>
        <time>2021-08-14T07:50:54.000Z</time>
      </trkpt>
      <trkpt lat="49.83974" lon="4.79844">
        <ele>333</ele>
        <time>2021-08-14T07:50:55.000Z</time>
      </trkpt>
      <trkpt lat="49.83977" lon="4.79845">
        <ele>333</ele>
        <time>2021-08-14T07:50:56.000Z</time>
      </trkpt>
      <trkpt lat="49.83979" lon="4.79847">
        <ele>333</ele>
        <time>2021-08-14T07:50:57.000Z</time>
      </trkpt>
      <trkpt lat="49.83982" lon="4.79848">
        <ele>334</ele>
        <time>2021-08-14T07:50:58.000Z</time>
      </trkpt>
      <trkpt lat="49.83984" lon="4.7985">
        <ele>334</ele>
        <time>2021-08-14T07:50:59.000Z</time>
      </trkpt>
      <trkpt lat="49.83987" lon="4.79851">
        <ele>334</ele>
        <time>2021-08-14T07:51:00.000Z</time>
      </trkpt>
      <trkpt lat="49.83989" lon="4.79853">
        <ele>335</ele>
        <time>2021-08-14T07:51:01.000Z</time>
      </trkpt>
      <trkpt lat="49.83991" lon="4.79854">
        <ele>335</ele>
        <time>2021-08-14T07:51:02.000Z</time>
      </trkpt>
      <trkpt lat="49.83993" lon="4.79855">
        <ele>335</ele>
        <time>2021-08-14T07:51:03.000Z</time>
      </trkpt>
      <trkpt lat="49.83996" lon="4.79856">
        <ele>335</ele>
        <time>2021-08-14T07:51:04.000Z</time>
      </trkpt>
      <trkpt lat="49.83998" lon="4.79857">
        <ele>336</ele>
        <time>2021-08-14T07:51:05.000Z</time>
      </trkpt>
      <trkpt lat="49.84" lon="4.79858">
        <ele>336</ele>
        <time>2021-08-14T07:51:06.000Z</time>
      </trkpt>
      <trkpt lat="49.84003" lon="4.7986">
        <ele>336</ele>
        <time>2021-08-14T07:51:07.000Z</time>
      </trkpt>
      <trkpt lat="49.84005" lon="4.79861">
        <ele>336</ele>
        <time>2021-08-14T07:51:08.000Z</time>
      </trkpt>
      <trkpt lat="49.84007" lon="4.79863">
        <ele>336</ele>
        <time>2021-08-14T07:51:09.000Z</time>
      </trkpt>
      <trkpt lat="49.84009" lon="4.79864">
        <ele>337</ele>
        <time>2021-08-14T07:51:10.000Z</time>
      </trkpt>
      <trkpt lat="49.84012" lon="4.79866">
        <ele>337</ele>
        <time>2021-08-14T07:51:11.000Z</time>
      </trkpt>
      <trkpt lat="49.84014" lon="4.79867">
        <ele>337</ele>
        <time>2021-08-14T07:51:12.000Z</time>
      </trkpt>
      <trkpt lat="49.84017" lon="4.79869">
        <ele>337</ele>
        <time>2021-08-14T07:51:13.000Z</time>
      </trkpt>
      <trkpt lat="49.8402" lon="4.7987">
        <ele>337</ele>
        <time>2021-08-14T07:51:14.000Z</time>
      </trkpt>
      <trkpt lat="49.84022" lon="4.79872">
        <ele>337</ele>
        <time>2021-08-14T07:51:15.000Z</time>
      </trkpt>
      <trkpt lat="49.84025" lon="4.79874">
        <ele>337</ele>
        <time>2021-08-14T07:51:16.000Z</time>
      </trkpt>
      <trkpt lat="49.84027" lon="4.79875">
        <ele>337</ele>
        <time>2021-08-14T07:51:17.000Z</time>
      </trkpt>
      <trkpt lat="49.84029" lon="4.79877">
        <ele>337</ele>
        <time>2021-08-14T07:51:18.000Z</time>
      </trkpt>
      <trkpt lat="49.84031" lon="4.79879">
        <ele>337</ele>
        <time>2021-08-14T07:51:19.000Z</time>
      </trkpt>
      <trkpt lat="49.84034" lon="4.79881">
        <ele>337</ele>
        <time>2021-08-14T07:51:20.000Z</time>
      </trkpt>
      <trkpt lat="49.84035" lon="4.79884">
        <ele>338</ele>
        <time>2021-08-14T07:51:21.000Z</time>
      </trkpt>
      <trkpt lat="49.84036" lon="4.79887">
        <ele>337</ele>
        <time>2021-08-14T07:51:22.000Z</time>
      </trkpt>
      <trkpt lat="49.84036" lon="4.79891">
        <ele>337</ele>
        <time>2021-08-14T07:51:23.000Z</time>
      </trkpt>
      <trkpt lat="49.84035" lon="4.79895">
        <ele>337</ele>
        <time>2021-08-14T07:51:24.000Z</time>
      </trkpt>
      <trkpt lat="49.84033" lon="4.79899">
        <ele>337</ele>
        <time>2021-08-14T07:51:25.000Z</time>
      </trkpt>
      <trkpt lat="49.84031" lon="4.79904">
        <ele>337</ele>
        <time>2021-08-14T07:51:26.000Z</time>
      </trkpt>
      <trkpt lat="49.84029" lon="4.79909">
        <ele>337</ele>
        <time>2021-08-14T07:51:27.000Z</time>
      </trkpt>
      <trkpt lat="49.84028" lon="4.79915">
        <ele>337</ele>
        <time>2021-08-14T07:51:28.000Z</time>
      </trkpt>
      <trkpt lat="49.84027" lon="4.79921">
        <ele>337</ele>
        <time>2021-08-14T07:51:29.000Z</time>
      </trkpt>
      <trkpt lat="49.84028" lon="4.79927">
        <ele>337</ele>
        <time>2021-08-14T07:51:30.000Z</time>
      </trkpt>
      <trkpt lat="49.84029" lon="4.79933">
        <ele>337</ele>
        <time>2021-08-14T07:51:31.000Z</time>
      </trkpt>
      <trkpt lat="49.8403" lon="4.79939">
        <ele>336</ele>
        <time>2021-08-14T07:51:32.000Z</time>
      </trkpt>
      <trkpt lat="49.84031" lon="4.79944">
        <ele>336</ele>
        <time>2021-08-14T07:51:33.000Z</time>
      </trkpt>
      <trkpt lat="49.84034" lon="4.79949">
        <ele>336</ele>
        <time>2021-08-14T07:51:34.000Z</time>
      </trkpt>
      <trkpt lat="49.84036" lon="4.79954">
        <ele>336</ele>
        <time>2021-08-14T07:51:35.000Z</time>
      </trkpt>
      <trkpt lat="49.84038" lon="4.79958">
        <ele>336</ele>
        <time>2021-08-14T07:51:36.000Z</time>
      </trkpt>
      <trkpt lat="49.8404" lon="4.79963">
        <ele>336</ele>
        <time>2021-08-14T07:51:37.000Z</time>
      </trkpt>
      <trkpt lat="49.84042" lon="4.79968">
        <ele>336</ele>
        <time>2021-08-14T07:51:38.000Z</time>
      </trkpt>
      <trkpt lat="49.84044" lon="4.79973">
        <ele>335</ele>
        <time>2021-08-14T07:51:39.000Z</time>
      </trkpt>
      <trkpt lat="49.84046" lon="4.79978">
        <ele>335</ele>
        <time>2021-08-14T07:51:40.000Z</time>
      </trkpt>
      <trkpt lat="49.84048" lon="4.79983">
        <ele>335</ele>
        <time>2021-08-14T07:51:41.000Z</time>
      </trkpt>
      <trkpt lat="49.8405" lon="4.79988">
        <ele>335</ele>
        <time>2021-08-14T07:51:42.000Z</time>
      </trkpt>
      <trkpt lat="49.84053" lon="4.79994">
        <ele>335</ele>
        <time>2021-08-14T07:51:43.000Z</time>
      </trkpt>
      <trkpt lat="49.84055" lon="4.79999">
        <ele>335</ele>
        <time>2021-08-14T07:51:44.000Z</time>
      </trkpt>
      <trkpt lat="49.84057" lon="4.80005">
        <ele>335</ele>
        <time>2021-08-14T07:51:45.000Z</time>
      </trkpt>
      <trkpt lat="49.84059" lon="4.80011">
        <ele>335</ele>
        <time>2021-08-14T07:51:46.000Z</time>
      </trkpt>
      <trkpt lat="49.84061" lon="4.80016">
        <ele>335</ele>
        <time>2021-08-14T07:51:47.000Z</time>
      </trkpt>
      <trkpt lat="49.84063" lon="4.80023">
        <ele>335</ele>
        <time>2021-08-14T07:51:48.000Z</time>
      </trkpt>
      <trkpt lat="49.84065" lon="4.80029">
        <ele>335</ele>
        <time>2021-08-14T07:51:49.000Z</time>
      </trkpt>
      <trkpt lat="49.84067" lon="4.80035">
        <ele>334</ele>
        <time>2021-08-14T07:51:50.000Z</time>
      </trkpt>
      <trkpt lat="49.84069" lon="4.80042">
        <ele>334</ele>
        <time>2021-08-14T07:51:51.000Z</time>
      </trkpt>
      <trkpt lat="49.84071" lon="4.8005">
        <ele>334</ele>
        <time>2021-08-14T07:51:52.000Z</time>
      </trkpt>
      <trkpt lat="49.84073" lon="4.80058">
        <ele>334</ele>
        <time>2021-08-14T07:51:53.000Z</time>
      </trkpt>
      <trkpt lat="49.84075" lon="4.80067">
        <ele>334</ele>
        <time>2021-08-14T07:51:54.000Z</time>
      </trkpt>
      <trkpt lat="49.84077" lon="4.80076">
        <ele>334</ele>
        <time>2021-08-14T07:51:55.000Z</time>
      </trkpt>
      <trkpt lat="49.8408" lon="4.80086">
        <ele>334</ele>
        <time>2021-08-14T07:51:56.000Z</time>
      </trkpt>
      <trkpt lat="49.84082" lon="4.80096">
        <ele>334</ele>
        <time>2021-08-14T07:51:57.000Z</time>
      </trkpt>
      <trkpt lat="49.84085" lon="4.80106">
        <ele>334</ele>
        <time>2021-08-14T07:51:58.000Z</time>
      </trkpt>
      <trkpt lat="49.84089" lon="4.80117">
        <ele>333</ele>
        <time>2021-08-14T07:51:59.000Z</time>
      </trkpt>
      <trkpt lat="49.84092" lon="4.80129">
        <ele>333</ele>
        <time>2021-08-14T07:52:00.000Z</time>
      </trkpt>
      <trkpt lat="49.84095" lon="4.80141">
        <ele>333</ele>
        <time>2021-08-14T07:52:01.000Z</time>
      </trkpt>
      <trkpt lat="49.84099" lon="4.80154">
        <ele>333</ele>
        <time>2021-08-14T07:52:02.000Z</time>
      </trkpt>
      <trkpt lat="49.84103" lon="4.80167">
        <ele>333</ele>
        <time>2021-08-14T07:52:03.000Z</time>
      </trkpt>
      <trkpt lat="49.84107" lon="4.8018">
        <ele>333</ele>
        <time>2021-08-14T07:52:04.000Z</time>
      </trkpt>
      <trkpt lat="49.8411" lon="4.80191">
        <ele>332</ele>
        <time>2021-08-14T07:52:05.000Z</time>
      </trkpt>
      <trkpt lat="49.84114" lon="4.80202">
        <ele>332</ele>
        <time>2021-08-14T07:52:06.000Z</time>
      </trkpt>
      <trkpt lat="49.84118" lon="4.80213">
        <ele>332</ele>
        <time>2021-08-14T07:52:07.000Z</time>
      </trkpt>
      <trkpt lat="49.84123" lon="4.80223">
        <ele>331</ele>
        <time>2021-08-14T07:52:08.000Z</time>
      </trkpt>
      <trkpt lat="49.84127" lon="4.80234">
        <ele>331</ele>
        <time>2021-08-14T07:52:09.000Z</time>
      </trkpt>
      <trkpt lat="49.84132" lon="4.80243">
        <ele>330</ele>
        <time>2021-08-14T07:52:10.000Z</time>
      </trkpt>
      <trkpt lat="49.84136" lon="4.80253">
        <ele>329</ele>
        <time>2021-08-14T07:52:11.000Z</time>
      </trkpt>
      <trkpt lat="49.8414" lon="4.80262">
        <ele>329</ele>
        <time>2021-08-14T07:52:12.000Z</time>
      </trkpt>
      <trkpt lat="49.84144" lon="4.80271">
        <ele>328</ele>
        <time>2021-08-14T07:52:13.000Z</time>
      </trkpt>
      <trkpt lat="49.84148" lon="4.8028">
        <ele>328</ele>
        <time>2021-08-14T07:52:14.000Z</time>
      </trkpt>
      <trkpt lat="49.84151" lon="4.80289">
        <ele>328</ele>
        <time>2021-08-14T07:52:15.000Z</time>
      </trkpt>
      <trkpt lat="49.84155" lon="4.80298">
        <ele>327</ele>
        <time>2021-08-14T07:52:16.000Z</time>
      </trkpt>
      <trkpt lat="49.84158" lon="4.80306">
        <ele>326</ele>
        <time>2021-08-14T07:52:17.000Z</time>
      </trkpt>
      <trkpt lat="49.84161" lon="4.80313">
        <ele>326</ele>
        <time>2021-08-14T07:52:18.000Z</time>
      </trkpt>
      <trkpt lat="49.84163" lon="4.80321">
        <ele>325</ele>
        <time>2021-08-14T07:52:19.000Z</time>
      </trkpt>
      <trkpt lat="49.84166" lon="4.80329">
        <ele>325</ele>
        <time>2021-08-14T07:52:20.000Z</time>
      </trkpt>
      <trkpt lat="49.84168" lon="4.80337">
        <ele>324</ele>
        <time>2021-08-14T07:52:21.000Z</time>
      </trkpt>
      <trkpt lat="49.84169" lon="4.80344">
        <ele>324</ele>
        <time>2021-08-14T07:52:22.000Z</time>
      </trkpt>
      <trkpt lat="49.84171" lon="4.80352">
        <ele>324</ele>
        <time>2021-08-14T07:52:23.000Z</time>
      </trkpt>
      <trkpt lat="49.84174" lon="4.80361">
        <ele>324</ele>
        <time>2021-08-14T07:52:24.000Z</time>
      </trkpt>
      <trkpt lat="49.84176" lon="4.80369">
        <ele>324</ele>
        <time>2021-08-14T07:52:25.000Z</time>
      </trkpt>
      <trkpt lat="49.84178" lon="4.80376">
        <ele>323</ele>
        <time>2021-08-14T07:52:26.000Z</time>
      </trkpt>
      <trkpt lat="49.8418" lon="4.80383">
        <ele>323</ele>
        <time>2021-08-14T07:52:27.000Z</time>
      </trkpt>
      <trkpt lat="49.84183" lon="4.8039">
        <ele>323</ele>
        <time>2021-08-14T07:52:28.000Z</time>
      </trkpt>
      <trkpt lat="49.84185" lon="4.80398">
        <ele>323</ele>
        <time>2021-08-14T07:52:29.000Z</time>
      </trkpt>
      <trkpt lat="49.84188" lon="4.80405">
        <ele>323</ele>
        <time>2021-08-14T07:52:30.000Z</time>
      </trkpt>
      <trkpt lat="49.8419" lon="4.80411">
        <ele>323</ele>
        <time>2021-08-14T07:52:31.000Z</time>
      </trkpt>
      <trkpt lat="49.84192" lon="4.80418">
        <ele>323</ele>
        <time>2021-08-14T07:52:32.000Z</time>
      </trkpt>
      <trkpt lat="49.84194" lon="4.80425">
        <ele>322</ele>
        <time>2021-08-14T07:52:33.000Z</time>
      </trkpt>
      <trkpt lat="49.84196" lon="4.80431">
        <ele>322</ele>
        <time>2021-08-14T07:52:34.000Z</time>
      </trkpt>
      <trkpt lat="49.84198" lon="4.80437">
        <ele>322</ele>
        <time>2021-08-14T07:52:35.000Z</time>
      </trkpt>
      <trkpt lat="49.842" lon="4.80444">
        <ele>322</ele>
        <time>2021-08-14T07:52:36.000Z</time>
      </trkpt>
      <trkpt lat="49.84202" lon="4.8045">
        <ele>322</ele>
        <time>2021-08-14T07:52:37.000Z</time>
      </trkpt>
      <trkpt lat="49.84204" lon="4.80456">
        <ele>322</ele>
        <time>2021-08-14T07:52:38.000Z</time>
      </trkpt>
      <trkpt lat="49.84205" lon="4.80462">
        <ele>321</ele>
        <time>2021-08-14T07:52:39.000Z</time>
      </trkpt>
      <trkpt lat="49.84206" lon="4.80469">
        <ele>321</ele>
        <time>2021-08-14T07:52:40.000Z</time>
      </trkpt>
      <trkpt lat="49.84208" lon="4.80476">
        <ele>321</ele>
        <time>2021-08-14T07:52:41.000Z</time>
      </trkpt>
      <trkpt lat="49.8421" lon="4.80484">
        <ele>321</ele>
        <time>2021-08-14T07:52:42.000Z</time>
      </trkpt>
      <trkpt lat="49.84212" lon="4.80491">
        <ele>321</ele>
        <time>2021-08-14T07:52:43.000Z</time>
      </trkpt>
      <trkpt lat="49.84214" lon="4.80499">
        <ele>320</ele>
        <time>2021-08-14T07:52:44.000Z</time>
      </trkpt>
      <trkpt lat="49.84216" lon="4.80507">
        <ele>320</ele>
        <time>2021-08-14T07:52:45.000Z</time>
      </trkpt>
      <trkpt lat="49.84219" lon="4.80514">
        <ele>320</ele>
        <time>2021-08-14T07:52:46.000Z</time>
      </trkpt>
      <trkpt lat="49.84221" lon="4.80521">
        <ele>320</ele>
        <time>2021-08-14T07:52:47.000Z</time>
      </trkpt>
      <trkpt lat="49.84223" lon="4.80528">
        <ele>320</ele>
        <time>2021-08-14T07:52:48.000Z</time>
      </trkpt>
      <trkpt lat="49.84226" lon="4.80534">
        <ele>319</ele>
        <time>2021-08-14T07:52:49.000Z</time>
      </trkpt>
      <trkpt lat="49.84229" lon="4.80541">
        <ele>319</ele>
        <time>2021-08-14T07:52:50.000Z</time>
      </trkpt>
      <trkpt lat="49.84232" lon="4.80548">
        <ele>319</ele>
        <time>2021-08-14T07:52:51.000Z</time>
      </trkpt>
      <trkpt lat="49.84234" lon="4.80554">
        <ele>319</ele>
        <time>2021-08-14T07:52:52.000Z</time>
      </trkpt>
      <trkpt lat="49.84237" lon="4.80561">
        <ele>319</ele>
        <time>2021-08-14T07:52:53.000Z</time>
      </trkpt>
      <trkpt lat="49.84239" lon="4.80568">
        <ele>318</ele>
        <time>2021-08-14T07:52:54.000Z</time>
      </trkpt>
      <trkpt lat="49.84241" lon="4.80574">
        <ele>318</ele>
        <time>2021-08-14T07:52:55.000Z</time>
      </trkpt>
      <trkpt lat="49.84242" lon="4.8058">
        <ele>318</ele>
        <time>2021-08-14T07:52:56.000Z</time>
      </trkpt>
      <trkpt lat="49.84244" lon="4.80586">
        <ele>318</ele>
        <time>2021-08-14T07:52:57.000Z</time>
      </trkpt>
      <trkpt lat="49.84246" lon="4.80593">
        <ele>318</ele>
        <time>2021-08-14T07:52:58.000Z</time>
      </trkpt>
      <trkpt lat="49.84248" lon="4.80599">
        <ele>317</ele>
        <time>2021-08-14T07:52:59.000Z</time>
      </trkpt>
      <trkpt lat="49.84249" lon="4.80605">
        <ele>317</ele>
        <time>2021-08-14T07:53:00.000Z</time>
      </trkpt>
      <trkpt lat="49.84251" lon="4.80611">
        <ele>317</ele>
        <time>2021-08-14T07:53:01.000Z</time>
      </trkpt>
      <trkpt lat="49.84252" lon="4.80616">
        <ele>317</ele>
        <time>2021-08-14T07:53:02.000Z</time>
      </trkpt>
      <trkpt lat="49.84254" lon="4.80621">
        <ele>317</ele>
        <time>2021-08-14T07:53:03.000Z</time>
      </trkpt>
      <trkpt lat="49.84256" lon="4.80625">
        <ele>317</ele>
        <time>2021-08-14T07:53:04.000Z</time>
      </trkpt>
      <trkpt lat="49.84257" lon="4.80629">
        <ele>317</ele>
        <time>2021-08-14T07:53:05.000Z</time>
      </trkpt>
      <trkpt lat="49.84258" lon="4.80633">
        <ele>317</ele>
        <time>2021-08-14T07:53:06.000Z</time>
      </trkpt>
      <trkpt lat="49.8426" lon="4.80636">
        <ele>317</ele>
        <time>2021-08-14T07:53:07.000Z</time>
      </trkpt>
      <trkpt lat="49.84262" lon="4.80639">
        <ele>317</ele>
        <time>2021-08-14T07:53:08.000Z</time>
      </trkpt>
      <trkpt lat="49.84263" lon="4.80643">
        <ele>317</ele>
        <time>2021-08-14T07:53:09.000Z</time>
      </trkpt>
      <trkpt lat="49.84265" lon="4.80646">
        <ele>317</ele>
        <time>2021-08-14T07:53:10.000Z</time>
      </trkpt>
      <trkpt lat="49.84266" lon="4.80649">
        <ele>317</ele>
        <time>2021-08-14T07:53:11.000Z</time>
      </trkpt>
      <trkpt lat="49.84268" lon="4.80652">
        <ele>318</ele>
        <time>2021-08-14T07:53:12.000Z</time>
      </trkpt>
      <trkpt lat="49.84269" lon="4.80656">
        <ele>318</ele>
        <time>2021-08-14T07:53:13.000Z</time>
      </trkpt>
      <trkpt lat="49.8427" lon="4.80659">
        <ele>318</ele>
        <time>2021-08-14T07:53:14.000Z</time>
      </trkpt>
      <trkpt lat="49.84272" lon="4.80662">
        <ele>318</ele>
        <time>2021-08-14T07:53:15.000Z</time>
      </trkpt>
      <trkpt lat="49.84273" lon="4.80664">
        <ele>318</ele>
        <time>2021-08-14T07:53:16.000Z</time>
      </trkpt>
      <trkpt lat="49.84275" lon="4.80667">
        <ele>318</ele>
        <time>2021-08-14T07:53:17.000Z</time>
      </trkpt>
      <trkpt lat="49.84277" lon="4.80669">
        <ele>318</ele>
        <time>2021-08-14T07:53:18.000Z</time>
      </trkpt>
      <trkpt lat="49.84279" lon="4.80671">
        <ele>318</ele>
        <time>2021-08-14T07:53:19.000Z</time>
      </trkpt>
      <trkpt lat="49.84281" lon="4.80673">
        <ele>318</ele>
        <time>2021-08-14T07:53:20.000Z</time>
      </trkpt>
      <trkpt lat="49.84283" lon="4.80675">
        <ele>318</ele>
        <time>2021-08-14T07:53:21.000Z</time>
      </trkpt>
      <trkpt lat="49.84285" lon="4.80677">
        <ele>318</ele>
        <time>2021-08-14T07:53:22.000Z</time>
      </trkpt>
      <trkpt lat="49.84286" lon="4.80679">
        <ele>319</ele>
        <time>2021-08-14T07:53:23.000Z</time>
      </trkpt>
      <trkpt lat="49.84288" lon="4.8068">
        <ele>319</ele>
        <time>2021-08-14T07:53:24.000Z</time>
      </trkpt>
      <trkpt lat="49.8429" lon="4.80681">
        <ele>319</ele>
        <time>2021-08-14T07:53:25.000Z</time>
      </trkpt>
      <trkpt lat="49.84292" lon="4.80681">
        <ele>319</ele>
        <time>2021-08-14T07:53:26.000Z</time>
      </trkpt>
      <trkpt lat="49.84294" lon="4.80682">
        <ele>319</ele>
        <time>2021-08-14T07:53:27.000Z</time>
      </trkpt>
      <trkpt lat="49.84296" lon="4.80683">
        <ele>319</ele>
        <time>2021-08-14T07:53:28.000Z</time>
      </trkpt>
      <trkpt lat="49.84298" lon="4.80684">
        <ele>320</ele>
        <time>2021-08-14T07:53:29.000Z</time>
      </trkpt>
      <trkpt lat="49.843" lon="4.80685">
        <ele>320</ele>
        <time>2021-08-14T07:53:30.000Z</time>
      </trkpt>
      <trkpt lat="49.84302" lon="4.80686">
        <ele>320</ele>
        <time>2021-08-14T07:53:31.000Z</time>
      </trkpt>
      <trkpt lat="49.84304" lon="4.80687">
        <ele>320</ele>
        <time>2021-08-14T07:53:32.000Z</time>
      </trkpt>
      <trkpt lat="49.84306" lon="4.80688">
        <ele>321</ele>
        <time>2021-08-14T07:53:33.000Z</time>
      </trkpt>
      <trkpt lat="49.84307" lon="4.80689">
        <ele>321</ele>
        <time>2021-08-14T07:53:34.000Z</time>
      </trkpt>
      <trkpt lat="49.84309" lon="4.8069">
        <ele>321</ele>
        <time>2021-08-14T07:53:35.000Z</time>
      </trkpt>
      <trkpt lat="49.84311" lon="4.80691">
        <ele>322</ele>
        <time>2021-08-14T07:53:36.000Z</time>
      </trkpt>
      <trkpt lat="49.84313" lon="4.80691">
        <ele>322</ele>
        <time>2021-08-14T07:53:37.000Z</time>
      </trkpt>
      <trkpt lat="49.84315" lon="4.80693">
        <ele>322</ele>
        <time>2021-08-14T07:53:38.000Z</time>
      </trkpt>
      <trkpt lat="49.84316" lon="4.80694">
        <ele>323</ele>
        <time>2021-08-14T07:53:39.000Z</time>
      </trkpt>
      <trkpt lat="49.84318" lon="4.80695">
        <ele>323</ele>
        <time>2021-08-14T07:53:40.000Z</time>
      </trkpt>
      <trkpt lat="49.8432" lon="4.80696">
        <ele>323</ele>
        <time>2021-08-14T07:53:41.000Z</time>
      </trkpt>
      <trkpt lat="49.84321" lon="4.80697">
        <ele>323</ele>
        <time>2021-08-14T07:53:42.000Z</time>
      </trkpt>
      <trkpt lat="49.84323" lon="4.80698">
        <ele>324</ele>
        <time>2021-08-14T07:53:43.000Z</time>
      </trkpt>
      <trkpt lat="49.84324" lon="4.807">
        <ele>324</ele>
        <time>2021-08-14T07:53:44.000Z</time>
      </trkpt>
      <trkpt lat="49.84326" lon="4.80702">
        <ele>324</ele>
        <time>2021-08-14T07:53:45.000Z</time>
      </trkpt>
      <trkpt lat="49.84328" lon="4.80704">
        <ele>324</ele>
        <time>2021-08-14T07:53:46.000Z</time>
      </trkpt>
      <trkpt lat="49.8433" lon="4.80705">
        <ele>324</ele>
        <time>2021-08-14T07:53:47.000Z</time>
      </trkpt>
      <trkpt lat="49.84332" lon="4.80707">
        <ele>325</ele>
        <time>2021-08-14T07:53:48.000Z</time>
      </trkpt>
      <trkpt lat="49.84334" lon="4.80708">
        <ele>325</ele>
        <time>2021-08-14T07:53:49.000Z</time>
      </trkpt>
      <trkpt lat="49.84336" lon="4.8071">
        <ele>325</ele>
        <time>2021-08-14T07:53:50.000Z</time>
      </trkpt>
      <trkpt lat="49.84338" lon="4.80712">
        <ele>325</ele>
        <time>2021-08-14T07:53:51.000Z</time>
      </trkpt>
      <trkpt lat="49.8434" lon="4.80714">
        <ele>325</ele>
        <time>2021-08-14T07:53:52.000Z</time>
      </trkpt>
      <trkpt lat="49.84342" lon="4.80716">
        <ele>326</ele>
        <time>2021-08-14T07:53:53.000Z</time>
      </trkpt>
      <trkpt lat="49.84343" lon="4.80718">
        <ele>326</ele>
        <time>2021-08-14T07:53:54.000Z</time>
      </trkpt>
      <trkpt lat="49.84344" lon="4.80719">
        <ele>326</ele>
        <time>2021-08-14T07:53:55.000Z</time>
      </trkpt>
      <trkpt lat="49.84346" lon="4.8072">
        <ele>326</ele>
        <time>2021-08-14T07:53:56.000Z</time>
      </trkpt>
      <trkpt lat="49.84347" lon="4.80722">
        <ele>326</ele>
        <time>2021-08-14T07:53:57.000Z</time>
      </trkpt>
      <trkpt lat="49.84349" lon="4.80723">
        <ele>326</ele>
        <time>2021-08-14T07:53:58.000Z</time>
      </trkpt>
      <trkpt lat="49.84351" lon="4.80724">
        <ele>327</ele>
        <time>2021-08-14T07:53:59.000Z</time>
      </trkpt>
      <trkpt lat="49.84352" lon="4.80725">
        <ele>327</ele>
        <time>2021-08-14T07:54:00.000Z</time>
      </trkpt>
      <trkpt lat="49.84354" lon="4.80726">
        <ele>327</ele>
        <time>2021-08-14T07:54:01.000Z</time>
      </trkpt>
      <trkpt lat="49.84356" lon="4.80726">
        <ele>327</ele>
        <time>2021-08-14T07:54:02.000Z</time>
      </trkpt>
      <trkpt lat="49.84357" lon="4.80727">
        <ele>328</ele>
        <time>2021-08-14T07:54:03.000Z</time>
      </trkpt>
      <trkpt lat="49.84359" lon="4.80728">
        <ele>328</ele>
        <time>2021-08-14T07:54:04.000Z</time>
      </trkpt>
      <trkpt lat="49.84361" lon="4.80728">
        <ele>328</ele>
        <time>2021-08-14T07:54:05.000Z</time>
      </trkpt>
      <trkpt lat="49.84362" lon="4.80729">
        <ele>328</ele>
        <time>2021-08-14T07:54:06.000Z</time>
      </trkpt>
      <trkpt lat="49.84364" lon="4.80729">
        <ele>328</ele>
        <time>2021-08-14T07:54:07.000Z</time>
      </trkpt>
      <trkpt lat="49.84366" lon="4.8073">
        <ele>328</ele>
        <time>2021-08-14T07:54:08.000Z</time>
      </trkpt>
      <trkpt lat="49.84367" lon="4.8073">
        <ele>329</ele>
        <time>2021-08-14T07:54:09.000Z</time>
      </trkpt>
      <trkpt lat="49.84369" lon="4.8073">
        <ele>329</ele>
        <time>2021-08-14T07:54:10.000Z</time>
      </trkpt>
      <trkpt lat="49.84371" lon="4.80731">
        <ele>329</ele>
        <time>2021-08-14T07:54:11.000Z</time>
      </trkpt>
      <trkpt lat="49.84372" lon="4.80732">
        <ele>329</ele>
        <time>2021-08-14T07:54:12.000Z</time>
      </trkpt>
      <trkpt lat="49.84374" lon="4.80732">
        <ele>329</ele>
        <time>2021-08-14T07:54:13.000Z</time>
      </trkpt>
      <trkpt lat="49.84376" lon="4.80733">
        <ele>329</ele>
        <time>2021-08-14T07:54:14.000Z</time>
      </trkpt>
      <trkpt lat="49.84377" lon="4.80733">
        <ele>330</ele>
        <time>2021-08-14T07:54:15.000Z</time>
      </trkpt>
      <trkpt lat="49.84379" lon="4.80734">
        <ele>330</ele>
        <time>2021-08-14T07:54:16.000Z</time>
      </trkpt>
      <trkpt lat="49.84381" lon="4.80735">
        <ele>330</ele>
        <time>2021-08-14T07:54:17.000Z</time>
      </trkpt>
      <trkpt lat="49.84383" lon="4.80736">
        <ele>330</ele>
        <time>2021-08-14T07:54:18.000Z</time>
      </trkpt>
      <trkpt lat="49.84384" lon="4.80736">
        <ele>331</ele>
        <time>2021-08-14T07:54:19.000Z</time>
      </trkpt>
      <trkpt lat="49.84385" lon="4.80737">
        <ele>331</ele>
        <time>2021-08-14T07:54:20.000Z</time>
      </trkpt>
      <trkpt lat="49.84387" lon="4.80737">
        <ele>331</ele>
        <time>2021-08-14T07:54:21.000Z</time>
      </trkpt>
      <trkpt lat="49.84388" lon="4.80738">
        <ele>331</ele>
        <time>2021-08-14T07:54:22.000Z</time>
      </trkpt>
      <trkpt lat="49.8439" lon="4.80738">
        <ele>332</ele>
        <time>2021-08-14T07:54:23.000Z</time>
      </trkpt>
      <trkpt lat="49.84392" lon="4.80738">
        <ele>332</ele>
        <time>2021-08-14T07:54:24.000Z</time>
      </trkpt>
      <trkpt lat="49.84394" lon="4.80739">
        <ele>332</ele>
        <time>2021-08-14T07:54:25.000Z</time>
      </trkpt>
      <trkpt lat="49.84395" lon="4.80739">
        <ele>332</ele>
        <time>2021-08-14T07:54:26.000Z</time>
      </trkpt>
      <trkpt lat="49.84397" lon="4.8074">
        <ele>333</ele>
        <time>2021-08-14T07:54:27.000Z</time>
      </trkpt>
      <trkpt lat="49.84399" lon="4.8074">
        <ele>333</ele>
        <time>2021-08-14T07:54:28.000Z</time>
      </trkpt>
      <trkpt lat="49.844" lon="4.80741">
        <ele>333</ele>
        <time>2021-08-14T07:54:29.000Z</time>
      </trkpt>
      <trkpt lat="49.84402" lon="4.80742">
        <ele>333</ele>
        <time>2021-08-14T07:54:30.000Z</time>
      </trkpt>
      <trkpt lat="49.84404" lon="4.80743">
        <ele>333</ele>
        <time>2021-08-14T07:54:31.000Z</time>
      </trkpt>
      <trkpt lat="49.84405" lon="4.80744">
        <ele>334</ele>
        <time>2021-08-14T07:54:32.000Z</time>
      </trkpt>
      <trkpt lat="49.84407" lon="4.80745">
        <ele>334</ele>
        <time>2021-08-14T07:54:33.000Z</time>
      </trkpt>
      <trkpt lat="49.84409" lon="4.80747">
        <ele>334</ele>
        <time>2021-08-14T07:54:34.000Z</time>
      </trkpt>
      <trkpt lat="49.8441" lon="4.80748">
        <ele>334</ele>
        <time>2021-08-14T07:54:35.000Z</time>
      </trkpt>
      <trkpt lat="49.84412" lon="4.80749">
        <ele>335</ele>
        <time>2021-08-14T07:54:36.000Z</time>
      </trkpt>
      <trkpt lat="49.84414" lon="4.8075">
        <ele>335</ele>
        <time>2021-08-14T07:54:37.000Z</time>
      </trkpt>
      <trkpt lat="49.84416" lon="4.80751">
        <ele>335</ele>
        <time>2021-08-14T07:54:38.000Z</time>
      </trkpt>
      <trkpt lat="49.84418" lon="4.80752">
        <ele>336</ele>
        <time>2021-08-14T07:54:39.000Z</time>
      </trkpt>
      <trkpt lat="49.8442" lon="4.80753">
        <ele>336</ele>
        <time>2021-08-14T07:54:40.000Z</time>
      </trkpt>
      <trkpt lat="49.84422" lon="4.80754">
        <ele>336</ele>
        <time>2021-08-14T07:54:41.000Z</time>
      </trkpt>
      <trkpt lat="49.84423" lon="4.80755">
        <ele>337</ele>
        <time>2021-08-14T07:54:42.000Z</time>
      </trkpt>
      <trkpt lat="49.84425" lon="4.80756">
        <ele>337</ele>
        <time>2021-08-14T07:54:43.000Z</time>
      </trkpt>
      <trkpt lat="49.84427" lon="4.80756">
        <ele>337</ele>
        <time>2021-08-14T07:54:44.000Z</time>
      </trkpt>
      <trkpt lat="49.84429" lon="4.80757">
        <ele>338</ele>
        <time>2021-08-14T07:54:45.000Z</time>
      </trkpt>
      <trkpt lat="49.84431" lon="4.80758">
        <ele>338</ele>
        <time>2021-08-14T07:54:46.000Z</time>
      </trkpt>
      <trkpt lat="49.84433" lon="4.80758">
        <ele>338</ele>
        <time>2021-08-14T07:54:47.000Z</time>
      </trkpt>
      <trkpt lat="49.84434" lon="4.80759">
        <ele>339</ele>
        <time>2021-08-14T07:54:48.000Z</time>
      </trkpt>
      <trkpt lat="49.84435" lon="4.8076">
        <ele>339</ele>
        <time>2021-08-14T07:54:49.000Z</time>
      </trkpt>
      <trkpt lat="49.84437" lon="4.8076">
        <ele>339</ele>
        <time>2021-08-14T07:54:50.000Z</time>
      </trkpt>
      <trkpt lat="49.84438" lon="4.80761">
        <ele>339</ele>
        <time>2021-08-14T07:54:51.000Z</time>
      </trkpt>
      <trkpt lat="49.8444" lon="4.80761">
        <ele>339</ele>
        <time>2021-08-14T07:54:52.000Z</time>
      </trkpt>
      <trkpt lat="49.84442" lon="4.8076">
        <ele>340</ele>
        <time>2021-08-14T07:54:53.000Z</time>
      </trkpt>
      <trkpt lat="49.84443" lon="4.8076">
        <ele>340</ele>
        <time>2021-08-14T07:54:54.000Z</time>
      </trkpt>
      <trkpt lat="49.84445" lon="4.80761">
        <ele>341</ele>
        <time>2021-08-14T07:54:55.000Z</time>
      </trkpt>
      <trkpt lat="49.84447" lon="4.80761">
        <ele>341</ele>
        <time>2021-08-14T07:54:56.000Z</time>
      </trkpt>
      <trkpt lat="49.84449" lon="4.80761">
        <ele>341</ele>
        <time>2021-08-14T07:54:57.000Z</time>
      </trkpt>
      <trkpt lat="49.8445" lon="4.80761">
        <ele>342</ele>
        <time>2021-08-14T07:54:58.000Z</time>
      </trkpt>
      <trkpt lat="49.84452" lon="4.80762">
        <ele>342</ele>
        <time>2021-08-14T07:54:59.000Z</time>
      </trkpt>
      <trkpt lat="49.84454" lon="4.80763">
        <ele>342</ele>
        <time>2021-08-14T07:55:00.000Z</time>
      </trkpt>
      <trkpt lat="49.84455" lon="4.80763">
        <ele>342</ele>
        <time>2021-08-14T07:55:01.000Z</time>
      </trkpt>
      <trkpt lat="49.84457" lon="4.80764">
        <ele>343</ele>
        <time>2021-08-14T07:55:02.000Z</time>
      </trkpt>
      <trkpt lat="49.84459" lon="4.80764">
        <ele>343</ele>
        <time>2021-08-14T07:55:03.000Z</time>
      </trkpt>
      <trkpt lat="49.84461" lon="4.80765">
        <ele>343</ele>
        <time>2021-08-14T07:55:04.000Z</time>
      </trkpt>
      <trkpt lat="49.84463" lon="4.80766">
        <ele>344</ele>
        <time>2021-08-14T07:55:05.000Z</time>
      </trkpt>
      <trkpt lat="49.84464" lon="4.80767">
        <ele>344</ele>
        <time>2021-08-14T07:55:06.000Z</time>
      </trkpt>
      <trkpt lat="49.84466" lon="4.80767">
        <ele>344</ele>
        <time>2021-08-14T07:55:07.000Z</time>
      </trkpt>
      <trkpt lat="49.84468" lon="4.80768">
        <ele>344</ele>
        <time>2021-08-14T07:55:08.000Z</time>
      </trkpt>
      <trkpt lat="49.8447" lon="4.80769">
        <ele>345</ele>
        <time>2021-08-14T07:55:09.000Z</time>
      </trkpt>
      <trkpt lat="49.84471" lon="4.8077">
        <ele>345</ele>
        <time>2021-08-14T07:55:10.000Z</time>
      </trkpt>
      <trkpt lat="49.84473" lon="4.80771">
        <ele>345</ele>
        <time>2021-08-14T07:55:11.000Z</time>
      </trkpt>
      <trkpt lat="49.84475" lon="4.80772">
        <ele>345</ele>
        <time>2021-08-14T07:55:12.000Z</time>
      </trkpt>
      <trkpt lat="49.84477" lon="4.80773">
        <ele>346</ele>
        <time>2021-08-14T07:55:13.000Z</time>
      </trkpt>
      <trkpt lat="49.84479" lon="4.80774">
        <ele>346</ele>
        <time>2021-08-14T07:55:14.000Z</time>
      </trkpt>
      <trkpt lat="49.84481" lon="4.80775">
        <ele>346</ele>
        <time>2021-08-14T07:55:15.000Z</time>
      </trkpt>
      <trkpt lat="49.84483" lon="4.80776">
        <ele>347</ele>
        <time>2021-08-14T07:55:16.000Z</time>
      </trkpt>
      <trkpt lat="49.84485" lon="4.80777">
        <ele>347</ele>
        <time>2021-08-14T07:55:17.000Z</time>
      </trkpt>
      <trkpt lat="49.84487" lon="4.80777">
        <ele>347</ele>
        <time>2021-08-14T07:55:18.000Z</time>
      </trkpt>
      <trkpt lat="49.84489" lon="4.80778">
        <ele>348</ele>
        <time>2021-08-14T07:55:19.000Z</time>
      </trkpt>
      <trkpt lat="49.84491" lon="4.80779">
        <ele>348</ele>
        <time>2021-08-14T07:55:20.000Z</time>
      </trkpt>
      <trkpt lat="49.84494" lon="4.80779">
        <ele>348</ele>
        <time>2021-08-14T07:55:21.000Z</time>
      </trkpt>
      <trkpt lat="49.84496" lon="4.8078">
        <ele>349</ele>
        <time>2021-08-14T07:55:22.000Z</time>
      </trkpt>
      <trkpt lat="49.84497" lon="4.80781">
        <ele>349</ele>
        <time>2021-08-14T07:55:23.000Z</time>
      </trkpt>
      <trkpt lat="49.84499" lon="4.80781">
        <ele>349</ele>
        <time>2021-08-14T07:55:24.000Z</time>
      </trkpt>
      <trkpt lat="49.84502" lon="4.80782">
        <ele>350</ele>
        <time>2021-08-14T07:55:25.000Z</time>
      </trkpt>
      <trkpt lat="49.84504" lon="4.80782">
        <ele>350</ele>
        <time>2021-08-14T07:55:26.000Z</time>
      </trkpt>
      <trkpt lat="49.84506" lon="4.80783">
        <ele>350</ele>
        <time>2021-08-14T07:55:27.000Z</time>
      </trkpt>
      <trkpt lat="49.84507" lon="4.80783">
        <ele>350</ele>
        <time>2021-08-14T07:55:28.000Z</time>
      </trkpt>
      <trkpt lat="49.84509" lon="4.80784">
        <ele>351</ele>
        <time>2021-08-14T07:55:29.000Z</time>
      </trkpt>
      <trkpt lat="49.84511" lon="4.80784">
        <ele>351</ele>
        <time>2021-08-14T07:55:30.000Z</time>
      </trkpt>
      <trkpt lat="49.84513" lon="4.80785">
        <ele>351</ele>
        <time>2021-08-14T07:55:31.000Z</time>
      </trkpt>
      <trkpt lat="49.84514" lon="4.80785">
        <ele>351</ele>
        <time>2021-08-14T07:55:32.000Z</time>
      </trkpt>
      <trkpt lat="49.84516" lon="4.80787">
        <ele>351</ele>
        <time>2021-08-14T07:55:33.000Z</time>
      </trkpt>
      <trkpt lat="49.84518" lon="4.80788">
        <ele>351</ele>
        <time>2021-08-14T07:55:34.000Z</time>
      </trkpt>
      <trkpt lat="49.8452" lon="4.80789">
        <ele>351</ele>
        <time>2021-08-14T07:55:35.000Z</time>
      </trkpt>
      <trkpt lat="49.84522" lon="4.8079">
        <ele>351</ele>
        <time>2021-08-14T07:55:36.000Z</time>
      </trkpt>
      <trkpt lat="49.84524" lon="4.80791">
        <ele>352</ele>
        <time>2021-08-14T07:55:37.000Z</time>
      </trkpt>
      <trkpt lat="49.84525" lon="4.80792">
        <ele>352</ele>
        <time>2021-08-14T07:55:38.000Z</time>
      </trkpt>
      <trkpt lat="49.84527" lon="4.80792">
        <ele>352</ele>
        <time>2021-08-14T07:55:39.000Z</time>
      </trkpt>
      <trkpt lat="49.84529" lon="4.80793">
        <ele>352</ele>
        <time>2021-08-14T07:55:40.000Z</time>
      </trkpt>
      <trkpt lat="49.84531" lon="4.80794">
        <ele>352</ele>
        <time>2021-08-14T07:55:41.000Z</time>
      </trkpt>
      <trkpt lat="49.84532" lon="4.80794">
        <ele>352</ele>
        <time>2021-08-14T07:55:42.000Z</time>
      </trkpt>
      <trkpt lat="49.84534" lon="4.80795">
        <ele>352</ele>
        <time>2021-08-14T07:55:43.000Z</time>
      </trkpt>
      <trkpt lat="49.84536" lon="4.80795">
        <ele>353</ele>
        <time>2021-08-14T07:55:44.000Z</time>
      </trkpt>
      <trkpt lat="49.84537" lon="4.80795">
        <ele>353</ele>
        <time>2021-08-14T07:55:45.000Z</time>
      </trkpt>
      <trkpt lat="49.84539" lon="4.80795">
        <ele>353</ele>
        <time>2021-08-14T07:55:46.000Z</time>
      </trkpt>
      <trkpt lat="49.84541" lon="4.80795">
        <ele>353</ele>
        <time>2021-08-14T07:55:47.000Z</time>
      </trkpt>
      <trkpt lat="49.84542" lon="4.80795">
        <ele>353</ele>
        <time>2021-08-14T07:55:48.000Z</time>
      </trkpt>
      <trkpt lat="49.84544" lon="4.80795">
        <ele>353</ele>
        <time>2021-08-14T07:55:49.000Z</time>
      </trkpt>
      <trkpt lat="49.84545" lon="4.80796">
        <ele>353</ele>
        <time>2021-08-14T07:55:50.000Z</time>
      </trkpt>
      <trkpt lat="49.84547" lon="4.80796">
        <ele>354</ele>
        <time>2021-08-14T07:55:51.000Z</time>
      </trkpt>
      <trkpt lat="49.84549" lon="4.80797">
        <ele>354</ele>
        <time>2021-08-14T07:55:52.000Z</time>
      </trkpt>
      <trkpt lat="49.84552" lon="4.80799">
        <ele>354</ele>
        <time>2021-08-14T07:55:53.000Z</time>
      </trkpt>
      <trkpt lat="49.84554" lon="4.80799">
        <ele>354</ele>
        <time>2021-08-14T07:55:54.000Z</time>
      </trkpt>
      <trkpt lat="49.84556" lon="4.80799">
        <ele>354</ele>
        <time>2021-08-14T07:55:55.000Z</time>
      </trkpt>
      <trkpt lat="49.84558" lon="4.80798">
        <ele>355</ele>
        <time>2021-08-14T07:55:56.000Z</time>
      </trkpt>
      <trkpt lat="49.84559" lon="4.80798">
        <ele>355</ele>
        <time>2021-08-14T07:55:57.000Z</time>
      </trkpt>
      <trkpt lat="49.84561" lon="4.80797">
        <ele>355</ele>
        <time>2021-08-14T07:55:58.000Z</time>
      </trkpt>
      <trkpt lat="49.84563" lon="4.80796">
        <ele>355</ele>
        <time>2021-08-14T07:55:59.000Z</time>
      </trkpt>
      <trkpt lat="49.84565" lon="4.80795">
        <ele>356</ele>
        <time>2021-08-14T07:56:00.000Z</time>
      </trkpt>
      <trkpt lat="49.84567" lon="4.80794">
        <ele>356</ele>
        <time>2021-08-14T07:56:01.000Z</time>
      </trkpt>
      <trkpt lat="49.84568" lon="4.80793">
        <ele>356</ele>
        <time>2021-08-14T07:56:02.000Z</time>
      </trkpt>
      <trkpt lat="49.8457" lon="4.80793">
        <ele>356</ele>
        <time>2021-08-14T07:56:03.000Z</time>
      </trkpt>
      <trkpt lat="49.84572" lon="4.80792">
        <ele>357</ele>
        <time>2021-08-14T07:56:04.000Z</time>
      </trkpt>
      <trkpt lat="49.84574" lon="4.80792">
        <ele>357</ele>
        <time>2021-08-14T07:56:05.000Z</time>
      </trkpt>
      <trkpt lat="49.84576" lon="4.80791">
        <ele>357</ele>
        <time>2021-08-14T07:56:06.000Z</time>
      </trkpt>
      <trkpt lat="49.84578" lon="4.80791">
        <ele>358</ele>
        <time>2021-08-14T07:56:07.000Z</time>
      </trkpt>
      <trkpt lat="49.8458" lon="4.8079">
        <ele>358</ele>
        <time>2021-08-14T07:56:08.000Z</time>
      </trkpt>
      <trkpt lat="49.84581" lon="4.8079">
        <ele>358</ele>
        <time>2021-08-14T07:56:09.000Z</time>
      </trkpt>
      <trkpt lat="49.84583" lon="4.80789">
        <ele>358</ele>
        <time>2021-08-14T07:56:10.000Z</time>
      </trkpt>
      <trkpt lat="49.84585" lon="4.80789">
        <ele>359</ele>
        <time>2021-08-14T07:56:11.000Z</time>
      </trkpt>
      <trkpt lat="49.84587" lon="4.80789">
        <ele>359</ele>
        <time>2021-08-14T07:56:12.000Z</time>
      </trkpt>
      <trkpt lat="49.84588" lon="4.8079">
        <ele>359</ele>
        <time>2021-08-14T07:56:13.000Z</time>
      </trkpt>
      <trkpt lat="49.84589" lon="4.8079">
        <ele>359</ele>
        <time>2021-08-14T07:56:14.000Z</time>
      </trkpt>
      <trkpt lat="49.84591" lon="4.8079">
        <ele>359</ele>
        <time>2021-08-14T07:56:15.000Z</time>
      </trkpt>
      <trkpt lat="49.84592" lon="4.80791">
        <ele>359</ele>
        <time>2021-08-14T07:56:16.000Z</time>
      </trkpt>
      <trkpt lat="49.84593" lon="4.80792">
        <ele>360</ele>
        <time>2021-08-14T07:56:17.000Z</time>
      </trkpt>
      <trkpt lat="49.84594" lon="4.80792">
        <ele>360</ele>
        <time>2021-08-14T07:56:18.000Z</time>
      </trkpt>
      <trkpt lat="49.84596" lon="4.80792">
        <ele>360</ele>
        <time>2021-08-14T07:56:19.000Z</time>
      </trkpt>
      <trkpt lat="49.84598" lon="4.80792">
        <ele>360</ele>
        <time>2021-08-14T07:56:20.000Z</time>
      </trkpt>
      <trkpt lat="49.84599" lon="4.80792">
        <ele>360</ele>
        <time>2021-08-14T07:56:21.000Z</time>
      </trkpt>
      <trkpt lat="49.84601" lon="4.80792">
        <ele>360</ele>
        <time>2021-08-14T07:56:22.000Z</time>
      </trkpt>
      <trkpt lat="49.84603" lon="4.80792">
        <ele>361</ele>
        <time>2021-08-14T07:56:23.000Z</time>
      </trkpt>
      <trkpt lat="49.84604" lon="4.80792">
        <ele>361</ele>
        <time>2021-08-14T07:56:24.000Z</time>
      </trkpt>
      <trkpt lat="49.84606" lon="4.80791">
        <ele>361</ele>
        <time>2021-08-14T07:56:25.000Z</time>
      </trkpt>
      <trkpt lat="49.84607" lon="4.8079">
        <ele>361</ele>
        <time>2021-08-14T07:56:26.000Z</time>
      </trkpt>
      <trkpt lat="49.84608" lon="4.80789">
        <ele>361</ele>
        <time>2021-08-14T07:56:27.000Z</time>
      </trkpt>
      <trkpt lat="49.8461" lon="4.80787">
        <ele>361</ele>
        <time>2021-08-14T07:56:28.000Z</time>
      </trkpt>
      <trkpt lat="49.84612" lon="4.80786">
        <ele>361</ele>
        <time>2021-08-14T07:56:29.000Z</time>
      </trkpt>
      <trkpt lat="49.84613" lon="4.80784">
        <ele>361</ele>
        <time>2021-08-14T07:56:30.000Z</time>
      </trkpt>
      <trkpt lat="49.84615" lon="4.80783">
        <ele>361</ele>
        <time>2021-08-14T07:56:31.000Z</time>
      </trkpt>
      <trkpt lat="49.84616" lon="4.80781">
        <ele>360</ele>
        <time>2021-08-14T07:56:32.000Z</time>
      </trkpt>
      <trkpt lat="49.84617" lon="4.8078">
        <ele>360</ele>
        <time>2021-08-14T07:56:33.000Z</time>
      </trkpt>
      <trkpt lat="49.84619" lon="4.80779">
        <ele>360</ele>
        <time>2021-08-14T07:56:34.000Z</time>
      </trkpt>
      <trkpt lat="49.8462" lon="4.80778">
        <ele>360</ele>
        <time>2021-08-14T07:56:35.000Z</time>
      </trkpt>
      <trkpt lat="49.84622" lon="4.80777">
        <ele>360</ele>
        <time>2021-08-14T07:56:36.000Z</time>
      </trkpt>
      <trkpt lat="49.84624" lon="4.80775">
        <ele>360</ele>
        <time>2021-08-14T07:56:37.000Z</time>
      </trkpt>
      <trkpt lat="49.84625" lon="4.80774">
        <ele>360</ele>
        <time>2021-08-14T07:56:38.000Z</time>
      </trkpt>
      <trkpt lat="49.84626" lon="4.80771">
        <ele>360</ele>
        <time>2021-08-14T07:56:39.000Z</time>
      </trkpt>
      <trkpt lat="49.84627" lon="4.80769">
        <ele>360</ele>
        <time>2021-08-14T07:56:40.000Z</time>
      </trkpt>
      <trkpt lat="49.84629" lon="4.80767">
        <ele>360</ele>
        <time>2021-08-14T07:56:41.000Z</time>
      </trkpt>
      <trkpt lat="49.84631" lon="4.80765">
        <ele>360</ele>
        <time>2021-08-14T07:56:42.000Z</time>
      </trkpt>
      <trkpt lat="49.84632" lon="4.80764">
        <ele>361</ele>
        <time>2021-08-14T07:56:43.000Z</time>
      </trkpt>
      <trkpt lat="49.84634" lon="4.80762">
        <ele>361</ele>
        <time>2021-08-14T07:56:44.000Z</time>
      </trkpt>
      <trkpt lat="49.84636" lon="4.80759">
        <ele>361</ele>
        <time>2021-08-14T07:56:45.000Z</time>
      </trkpt>
      <trkpt lat="49.84638" lon="4.80757">
        <ele>361</ele>
        <time>2021-08-14T07:56:46.000Z</time>
      </trkpt>
      <trkpt lat="49.84639" lon="4.80755">
        <ele>361</ele>
        <time>2021-08-14T07:56:47.000Z</time>
      </trkpt>
      <trkpt lat="49.84641" lon="4.80753">
        <ele>362</ele>
        <time>2021-08-14T07:56:48.000Z</time>
      </trkpt>
      <trkpt lat="49.84643" lon="4.80753">
        <ele>362</ele>
        <time>2021-08-14T07:56:49.000Z</time>
      </trkpt>
      <trkpt lat="49.84644" lon="4.80752">
        <ele>363</ele>
        <time>2021-08-14T07:56:50.000Z</time>
      </trkpt>
      <trkpt lat="49.84646" lon="4.80751">
        <ele>363</ele>
        <time>2021-08-14T07:56:51.000Z</time>
      </trkpt>
      <trkpt lat="49.84648" lon="4.80751">
        <ele>364</ele>
        <time>2021-08-14T07:56:52.000Z</time>
      </trkpt>
      <trkpt lat="49.84649" lon="4.80749">
        <ele>364</ele>
        <time>2021-08-14T07:56:53.000Z</time>
      </trkpt>
      <trkpt lat="49.84651" lon="4.80748">
        <ele>364</ele>
        <time>2021-08-14T07:56:54.000Z</time>
      </trkpt>
      <trkpt lat="49.84652" lon="4.80747">
        <ele>365</ele>
        <time>2021-08-14T07:56:55.000Z</time>
      </trkpt>
      <trkpt lat="49.84654" lon="4.80746">
        <ele>365</ele>
        <time>2021-08-14T07:56:56.000Z</time>
      </trkpt>
      <trkpt lat="49.84656" lon="4.80744">
        <ele>365</ele>
        <time>2021-08-14T07:56:57.000Z</time>
      </trkpt>
      <trkpt lat="49.84657" lon="4.80742">
        <ele>366</ele>
        <time>2021-08-14T07:56:58.000Z</time>
      </trkpt>
      <trkpt lat="49.84659" lon="4.80741">
        <ele>366</ele>
        <time>2021-08-14T07:56:59.000Z</time>
      </trkpt>
      <trkpt lat="49.8466" lon="4.8074">
        <ele>366</ele>
        <time>2021-08-14T07:57:00.000Z</time>
      </trkpt>
      <trkpt lat="49.84662" lon="4.80739">
        <ele>367</ele>
        <time>2021-08-14T07:57:01.000Z</time>
      </trkpt>
      <trkpt lat="49.84664" lon="4.80738">
        <ele>367</ele>
        <time>2021-08-14T07:57:02.000Z</time>
      </trkpt>
      <trkpt lat="49.84665" lon="4.80737">
        <ele>367</ele>
        <time>2021-08-14T07:57:03.000Z</time>
      </trkpt>
      <trkpt lat="49.84667" lon="4.80736">
        <ele>368</ele>
        <time>2021-08-14T07:57:04.000Z</time>
      </trkpt>
      <trkpt lat="49.84669" lon="4.80735">
        <ele>368</ele>
        <time>2021-08-14T07:57:05.000Z</time>
      </trkpt>
      <trkpt lat="49.84671" lon="4.80734">
        <ele>368</ele>
        <time>2021-08-14T07:57:06.000Z</time>
      </trkpt>
      <trkpt lat="49.84672" lon="4.80733">
        <ele>369</ele>
        <time>2021-08-14T07:57:07.000Z</time>
      </trkpt>
      <trkpt lat="49.84674" lon="4.80731">
        <ele>369</ele>
        <time>2021-08-14T07:57:08.000Z</time>
      </trkpt>
      <trkpt lat="49.84676" lon="4.8073">
        <ele>369</ele>
        <time>2021-08-14T07:57:09.000Z</time>
      </trkpt>
      <trkpt lat="49.84678" lon="4.80728">
        <ele>370</ele>
        <time>2021-08-14T07:57:10.000Z</time>
      </trkpt>
      <trkpt lat="49.8468" lon="4.80727">
        <ele>370</ele>
        <time>2021-08-14T07:57:11.000Z</time>
      </trkpt>
      <trkpt lat="49.84682" lon="4.80727">
        <ele>370</ele>
        <time>2021-08-14T07:57:12.000Z</time>
      </trkpt>
      <trkpt lat="49.84683" lon="4.80725">
        <ele>371</ele>
        <time>2021-08-14T07:57:13.000Z</time>
      </trkpt>
      <trkpt lat="49.84685" lon="4.80724">
        <ele>371</ele>
        <time>2021-08-14T07:57:14.000Z</time>
      </trkpt>
      <trkpt lat="49.84686" lon="4.80722">
        <ele>371</ele>
        <time>2021-08-14T07:57:15.000Z</time>
      </trkpt>
      <trkpt lat="49.84688" lon="4.8072">
        <ele>371</ele>
        <time>2021-08-14T07:57:16.000Z</time>
      </trkpt>
      <trkpt lat="49.84689" lon="4.80719">
        <ele>371</ele>
        <time>2021-08-14T07:57:17.000Z</time>
      </trkpt>
      <trkpt lat="49.84691" lon="4.80717">
        <ele>371</ele>
        <time>2021-08-14T07:57:18.000Z</time>
      </trkpt>
      <trkpt lat="49.84692" lon="4.80716">
        <ele>371</ele>
        <time>2021-08-14T07:57:19.000Z</time>
      </trkpt>
      <trkpt lat="49.84694" lon="4.80714">
        <ele>372</ele>
        <time>2021-08-14T07:57:20.000Z</time>
      </trkpt>
      <trkpt lat="49.84695" lon="4.80712">
        <ele>372</ele>
        <time>2021-08-14T07:57:21.000Z</time>
      </trkpt>
      <trkpt lat="49.84696" lon="4.80711">
        <ele>372</ele>
        <time>2021-08-14T07:57:22.000Z</time>
      </trkpt>
      <trkpt lat="49.84698" lon="4.80709">
        <ele>372</ele>
        <time>2021-08-14T07:57:23.000Z</time>
      </trkpt>
      <trkpt lat="49.84699" lon="4.80708">
        <ele>372</ele>
        <time>2021-08-14T07:57:24.000Z</time>
      </trkpt>
      <trkpt lat="49.847" lon="4.80706">
        <ele>373</ele>
        <time>2021-08-14T07:57:25.000Z</time>
      </trkpt>
      <trkpt lat="49.84702" lon="4.80705">
        <ele>373</ele>
        <time>2021-08-14T07:57:26.000Z</time>
      </trkpt>
      <trkpt lat="49.84704" lon="4.80704">
        <ele>373</ele>
        <time>2021-08-14T07:57:27.000Z</time>
      </trkpt>
      <trkpt lat="49.84705" lon="4.80703">
        <ele>373</ele>
        <time>2021-08-14T07:57:28.000Z</time>
      </trkpt>
      <trkpt lat="49.84707" lon="4.80702">
        <ele>373</ele>
        <time>2021-08-14T07:57:29.000Z</time>
      </trkpt>
      <trkpt lat="49.84708" lon="4.80701">
        <ele>374</ele>
        <time>2021-08-14T07:57:30.000Z</time>
      </trkpt>
      <trkpt lat="49.84709" lon="4.80701">
        <ele>374</ele>
        <time>2021-08-14T07:57:31.000Z</time>
      </trkpt>
      <trkpt lat="49.84711" lon="4.807">
        <ele>374</ele>
        <time>2021-08-14T07:57:32.000Z</time>
      </trkpt>
      <trkpt lat="49.84713" lon="4.80699">
        <ele>374</ele>
        <time>2021-08-14T07:57:33.000Z</time>
      </trkpt>
      <trkpt lat="49.84715" lon="4.80698">
        <ele>375</ele>
        <time>2021-08-14T07:57:34.000Z</time>
      </trkpt>
      <trkpt lat="49.84717" lon="4.80698">
        <ele>375</ele>
        <time>2021-08-14T07:57:35.000Z</time>
      </trkpt>
      <trkpt lat="49.84719" lon="4.80696">
        <ele>375</ele>
        <time>2021-08-14T07:57:36.000Z</time>
      </trkpt>
      <trkpt lat="49.84721" lon="4.80694">
        <ele>376</ele>
        <time>2021-08-14T07:57:37.000Z</time>
      </trkpt>
      <trkpt lat="49.84723" lon="4.80692">
        <ele>376</ele>
        <time>2021-08-14T07:57:38.000Z</time>
      </trkpt>
      <trkpt lat="49.84725" lon="4.8069">
        <ele>376</ele>
        <time>2021-08-14T07:57:39.000Z</time>
      </trkpt>
      <trkpt lat="49.84727" lon="4.80687">
        <ele>377</ele>
        <time>2021-08-14T07:57:40.000Z</time>
      </trkpt>
      <trkpt lat="49.8473" lon="4.80685">
        <ele>377</ele>
        <time>2021-08-14T07:57:41.000Z</time>
      </trkpt>
      <trkpt lat="49.84732" lon="4.80684">
        <ele>377</ele>
        <time>2021-08-14T07:57:42.000Z</time>
      </trkpt>
      <trkpt lat="49.84734" lon="4.80682">
        <ele>378</ele>
        <time>2021-08-14T07:57:43.000Z</time>
      </trkpt>
      <trkpt lat="49.84736" lon="4.8068">
        <ele>378</ele>
        <time>2021-08-14T07:57:44.000Z</time>
      </trkpt>
      <trkpt lat="49.84738" lon="4.80679">
        <ele>379</ele>
        <time>2021-08-14T07:57:45.000Z</time>
      </trkpt>
      <trkpt lat="49.8474" lon="4.80677">
        <ele>379</ele>
        <time>2021-08-14T07:57:46.000Z</time>
      </trkpt>
      <trkpt lat="49.84742" lon="4.80676">
        <ele>379</ele>
        <time>2021-08-14T07:57:47.000Z</time>
      </trkpt>
      <trkpt lat="49.84744" lon="4.80674">
        <ele>380</ele>
        <time>2021-08-14T07:57:48.000Z</time>
      </trkpt>
      <trkpt lat="49.84747" lon="4.80673">
        <ele>380</ele>
        <time>2021-08-14T07:57:49.000Z</time>
      </trkpt>
      <trkpt lat="49.84749" lon="4.8067">
        <ele>380</ele>
        <time>2021-08-14T07:57:50.000Z</time>
      </trkpt>
      <trkpt lat="49.84751" lon="4.80668">
        <ele>380</ele>
        <time>2021-08-14T07:57:51.000Z</time>
      </trkpt>
      <trkpt lat="49.84753" lon="4.80665">
        <ele>380</ele>
        <time>2021-08-14T07:57:52.000Z</time>
      </trkpt>
      <trkpt lat="49.84754" lon="4.80663">
        <ele>380</ele>
        <time>2021-08-14T07:57:53.000Z</time>
      </trkpt>
      <trkpt lat="49.84756" lon="4.80661">
        <ele>380</ele>
        <time>2021-08-14T07:57:54.000Z</time>
      </trkpt>
      <trkpt lat="49.84758" lon="4.80659">
        <ele>380</ele>
        <time>2021-08-14T07:57:55.000Z</time>
      </trkpt>
      <trkpt lat="49.84759" lon="4.80656">
        <ele>380</ele>
        <time>2021-08-14T07:57:56.000Z</time>
      </trkpt>
      <trkpt lat="49.84759" lon="4.80653">
        <ele>380</ele>
        <time>2021-08-14T07:57:57.000Z</time>
      </trkpt>
      <trkpt lat="49.8476" lon="4.80649">
        <ele>380</ele>
        <time>2021-08-14T07:57:58.000Z</time>
      </trkpt>
      <trkpt lat="49.8476" lon="4.80646">
        <ele>380</ele>
        <time>2021-08-14T07:57:59.000Z</time>
      </trkpt>
      <trkpt lat="49.84762" lon="4.80643">
        <ele>380</ele>
        <time>2021-08-14T07:58:00.000Z</time>
      </trkpt>
      <trkpt lat="49.84763" lon="4.80641">
        <ele>380</ele>
        <time>2021-08-14T07:58:01.000Z</time>
      </trkpt>
      <trkpt lat="49.84765" lon="4.8064">
        <ele>380</ele>
        <time>2021-08-14T07:58:02.000Z</time>
      </trkpt>
      <trkpt lat="49.84767" lon="4.80642">
        <ele>380</ele>
        <time>2021-08-14T07:58:03.000Z</time>
      </trkpt>
      <trkpt lat="49.84769" lon="4.80644">
        <ele>381</ele>
        <time>2021-08-14T07:58:04.000Z</time>
      </trkpt>
      <trkpt lat="49.84772" lon="4.80643">
        <ele>381</ele>
        <time>2021-08-14T07:58:05.000Z</time>
      </trkpt>
      <trkpt lat="49.84774" lon="4.80643">
        <ele>381</ele>
        <time>2021-08-14T07:58:06.000Z</time>
      </trkpt>
      <trkpt lat="49.84777" lon="4.80645">
        <ele>381</ele>
        <time>2021-08-14T07:58:07.000Z</time>
      </trkpt>
      <trkpt lat="49.8478" lon="4.80648">
        <ele>381</ele>
        <time>2021-08-14T07:58:08.000Z</time>
      </trkpt>
      <trkpt lat="49.84783" lon="4.80651">
        <ele>381</ele>
        <time>2021-08-14T07:58:09.000Z</time>
      </trkpt>
      <trkpt lat="49.84785" lon="4.80655">
        <ele>381</ele>
        <time>2021-08-14T07:58:10.000Z</time>
      </trkpt>
      <trkpt lat="49.84787" lon="4.80658">
        <ele>381</ele>
        <time>2021-08-14T07:58:11.000Z</time>
      </trkpt>
      <trkpt lat="49.84788" lon="4.80661">
        <ele>381</ele>
        <time>2021-08-14T07:58:12.000Z</time>
      </trkpt>
      <trkpt lat="49.8479" lon="4.80665">
        <ele>382</ele>
        <time>2021-08-14T07:58:13.000Z</time>
      </trkpt>
      <trkpt lat="49.84791" lon="4.80669">
        <ele>382</ele>
        <time>2021-08-14T07:58:14.000Z</time>
      </trkpt>
      <trkpt lat="49.84793" lon="4.80673">
        <ele>382</ele>
        <time>2021-08-14T07:58:15.000Z</time>
      </trkpt>
      <trkpt lat="49.84795" lon="4.80677">
        <ele>382</ele>
        <time>2021-08-14T07:58:16.000Z</time>
      </trkpt>
      <trkpt lat="49.84797" lon="4.80681">
        <ele>382</ele>
        <time>2021-08-14T07:58:17.000Z</time>
      </trkpt>
      <trkpt lat="49.84799" lon="4.80685">
        <ele>382</ele>
        <time>2021-08-14T07:58:18.000Z</time>
      </trkpt>
      <trkpt lat="49.84801" lon="4.80689">
        <ele>382</ele>
        <time>2021-08-14T07:58:19.000Z</time>
      </trkpt>
      <trkpt lat="49.84804" lon="4.80693">
        <ele>382</ele>
        <time>2021-08-14T07:58:20.000Z</time>
      </trkpt>
      <trkpt lat="49.84806" lon="4.80697">
        <ele>382</ele>
        <time>2021-08-14T07:58:21.000Z</time>
      </trkpt>
      <trkpt lat="49.84809" lon="4.807">
        <ele>382</ele>
        <time>2021-08-14T07:58:22.000Z</time>
      </trkpt>
      <trkpt lat="49.84812" lon="4.80704">
        <ele>382</ele>
        <time>2021-08-14T07:58:23.000Z</time>
      </trkpt>
      <trkpt lat="49.84815" lon="4.80707">
        <ele>382</ele>
        <time>2021-08-14T07:58:24.000Z</time>
      </trkpt>
      <trkpt lat="49.84817" lon="4.80713">
        <ele>382</ele>
        <time>2021-08-14T07:58:25.000Z</time>
      </trkpt>
      <trkpt lat="49.84818" lon="4.80718">
        <ele>382</ele>
        <time>2021-08-14T07:58:26.000Z</time>
      </trkpt>
      <trkpt lat="49.8482" lon="4.80723">
        <ele>382</ele>
        <time>2021-08-14T07:58:27.000Z</time>
      </trkpt>
      <trkpt lat="49.84822" lon="4.80728">
        <ele>382</ele>
        <time>2021-08-14T07:58:28.000Z</time>
      </trkpt>
      <trkpt lat="49.84823" lon="4.80734">
        <ele>382</ele>
        <time>2021-08-14T07:58:29.000Z</time>
      </trkpt>
      <trkpt lat="49.84826" lon="4.80739">
        <ele>382</ele>
        <time>2021-08-14T07:58:30.000Z</time>
      </trkpt>
      <trkpt lat="49.84829" lon="4.80744">
        <ele>382</ele>
        <time>2021-08-14T07:58:31.000Z</time>
      </trkpt>
      <trkpt lat="49.84831" lon="4.80749">
        <ele>382</ele>
        <time>2021-08-14T07:58:32.000Z</time>
      </trkpt>
      <trkpt lat="49.84834" lon="4.80753">
        <ele>382</ele>
        <time>2021-08-14T07:58:33.000Z</time>
      </trkpt>
      <trkpt lat="49.84834" lon="4.80753">
        <ele>382</ele>
        <time>2021-08-14T07:58:34.000Z</time>
      </trkpt>
      <trkpt lat="49.8484" lon="4.80763">
        <ele>382</ele>
        <time>2021-08-14T07:58:35.000Z</time>
      </trkpt>
      <trkpt lat="49.84843" lon="4.80767">
        <ele>382</ele>
        <time>2021-08-14T07:58:36.000Z</time>
      </trkpt>
      <trkpt lat="49.84845" lon="4.80772">
        <ele>382</ele>
        <time>2021-08-14T07:58:37.000Z</time>
      </trkpt>
      <trkpt lat="49.84848" lon="4.80777">
        <ele>382</ele>
        <time>2021-08-14T07:58:38.000Z</time>
      </trkpt>
      <trkpt lat="49.84851" lon="4.8078">
        <ele>382</ele>
        <time>2021-08-14T07:58:39.000Z</time>
      </trkpt>
      <trkpt lat="49.84854" lon="4.80785">
        <ele>382</ele>
        <time>2021-08-14T07:58:40.000Z</time>
      </trkpt>
      <trkpt lat="49.84857" lon="4.80789">
        <ele>382</ele>
        <time>2021-08-14T07:58:41.000Z</time>
      </trkpt>
      <trkpt lat="49.8486" lon="4.80793">
        <ele>382</ele>
        <time>2021-08-14T07:58:42.000Z</time>
      </trkpt>
      <trkpt lat="49.84864" lon="4.80796">
        <ele>382</ele>
        <time>2021-08-14T07:58:43.000Z</time>
      </trkpt>
      <trkpt lat="49.84869" lon="4.80798">
        <ele>382</ele>
        <time>2021-08-14T07:58:44.000Z</time>
      </trkpt>
      <trkpt lat="49.84873" lon="4.808">
        <ele>383</ele>
        <time>2021-08-14T07:58:45.000Z</time>
      </trkpt>
      <trkpt lat="49.84878" lon="4.80802">
        <ele>383</ele>
        <time>2021-08-14T07:58:46.000Z</time>
      </trkpt>
      <trkpt lat="49.84882" lon="4.80804">
        <ele>383</ele>
        <time>2021-08-14T07:58:47.000Z</time>
      </trkpt>
      <trkpt lat="49.84886" lon="4.80807">
        <ele>383</ele>
        <time>2021-08-14T07:58:48.000Z</time>
      </trkpt>
      <trkpt lat="49.84891" lon="4.80811">
        <ele>383</ele>
        <time>2021-08-14T07:58:49.000Z</time>
      </trkpt>
      <trkpt lat="49.84895" lon="4.80816">
        <ele>383</ele>
        <time>2021-08-14T07:58:50.000Z</time>
      </trkpt>
      <trkpt lat="49.84899" lon="4.80822">
        <ele>383</ele>
        <time>2021-08-14T07:58:51.000Z</time>
      </trkpt>
      <trkpt lat="49.84902" lon="4.80829">
        <ele>384</ele>
        <time>2021-08-14T07:58:52.000Z</time>
      </trkpt>
      <trkpt lat="49.84905" lon="4.80835">
        <ele>384</ele>
        <time>2021-08-14T07:58:53.000Z</time>
      </trkpt>
      <trkpt lat="49.84908" lon="4.80841">
        <ele>384</ele>
        <time>2021-08-14T07:58:54.000Z</time>
      </trkpt>
      <trkpt lat="49.84912" lon="4.80848">
        <ele>384</ele>
        <time>2021-08-14T07:58:55.000Z</time>
      </trkpt>
      <trkpt lat="49.84916" lon="4.80856">
        <ele>384</ele>
        <time>2021-08-14T07:58:56.000Z</time>
      </trkpt>
      <trkpt lat="49.8492" lon="4.80864">
        <ele>384</ele>
        <time>2021-08-14T07:58:57.000Z</time>
      </trkpt>
      <trkpt lat="49.84923" lon="4.80872">
        <ele>384</ele>
        <time>2021-08-14T07:58:58.000Z</time>
      </trkpt>
      <trkpt lat="49.84926" lon="4.80879">
        <ele>384</ele>
        <time>2021-08-14T07:58:59.000Z</time>
      </trkpt>
      <trkpt lat="49.84929" lon="4.80886">
        <ele>384</ele>
        <time>2021-08-14T07:59:00.000Z</time>
      </trkpt>
      <trkpt lat="49.84931" lon="4.80893">
        <ele>384</ele>
        <time>2021-08-14T07:59:01.000Z</time>
      </trkpt>
      <trkpt lat="49.84932" lon="4.80901">
        <ele>384</ele>
        <time>2021-08-14T07:59:02.000Z</time>
      </trkpt>
      <trkpt lat="49.84931" lon="4.80908">
        <ele>384</ele>
        <time>2021-08-14T07:59:03.000Z</time>
      </trkpt>
      <trkpt lat="49.84931" lon="4.80914">
        <ele>384</ele>
        <time>2021-08-14T07:59:04.000Z</time>
      </trkpt>
      <trkpt lat="49.84932" lon="4.8092">
        <ele>384</ele>
        <time>2021-08-14T07:59:05.000Z</time>
      </trkpt>
      <trkpt lat="49.84933" lon="4.80927">
        <ele>384</ele>
        <time>2021-08-14T07:59:06.000Z</time>
      </trkpt>
      <trkpt lat="49.84934" lon="4.80933">
        <ele>384</ele>
        <time>2021-08-14T07:59:07.000Z</time>
      </trkpt>
      <trkpt lat="49.84936" lon="4.80938">
        <ele>384</ele>
        <time>2021-08-14T07:59:08.000Z</time>
      </trkpt>
      <trkpt lat="49.84937" lon="4.80944">
        <ele>384</ele>
        <time>2021-08-14T07:59:09.000Z</time>
      </trkpt>
      <trkpt lat="49.84939" lon="4.8095">
        <ele>384</ele>
        <time>2021-08-14T07:59:10.000Z</time>
      </trkpt>
      <trkpt lat="49.84941" lon="4.80956">
        <ele>384</ele>
        <time>2021-08-14T07:59:11.000Z</time>
      </trkpt>
      <trkpt lat="49.84943" lon="4.80962">
        <ele>384</ele>
        <time>2021-08-14T07:59:12.000Z</time>
      </trkpt>
      <trkpt lat="49.84945" lon="4.80968">
        <ele>384</ele>
        <time>2021-08-14T07:59:13.000Z</time>
      </trkpt>
      <trkpt lat="49.84947" lon="4.80974">
        <ele>384</ele>
        <time>2021-08-14T07:59:14.000Z</time>
      </trkpt>
      <trkpt lat="49.84949" lon="4.8098">
        <ele>384</ele>
        <time>2021-08-14T07:59:15.000Z</time>
      </trkpt>
      <trkpt lat="49.84951" lon="4.80987">
        <ele>384</ele>
        <time>2021-08-14T07:59:16.000Z</time>
      </trkpt>
      <trkpt lat="49.84953" lon="4.80993">
        <ele>384</ele>
        <time>2021-08-14T07:59:17.000Z</time>
      </trkpt>
      <trkpt lat="49.84955" lon="4.80999">
        <ele>384</ele>
        <time>2021-08-14T07:59:18.000Z</time>
      </trkpt>
      <trkpt lat="49.84957" lon="4.81005">
        <ele>384</ele>
        <time>2021-08-14T07:59:19.000Z</time>
      </trkpt>
      <trkpt lat="49.84959" lon="4.81011">
        <ele>385</ele>
        <time>2021-08-14T07:59:20.000Z</time>
      </trkpt>
      <trkpt lat="49.84961" lon="4.81016">
        <ele>385</ele>
        <time>2021-08-14T07:59:21.000Z</time>
      </trkpt>
      <trkpt lat="49.84963" lon="4.81022">
        <ele>385</ele>
        <time>2021-08-14T07:59:22.000Z</time>
      </trkpt>
      <trkpt lat="49.84964" lon="4.81027">
        <ele>385</ele>
        <time>2021-08-14T07:59:23.000Z</time>
      </trkpt>
      <trkpt lat="49.84966" lon="4.81031">
        <ele>385</ele>
        <time>2021-08-14T07:59:24.000Z</time>
      </trkpt>
      <trkpt lat="49.84968" lon="4.81036">
        <ele>385</ele>
        <time>2021-08-14T07:59:25.000Z</time>
      </trkpt>
      <trkpt lat="49.8497" lon="4.81041">
        <ele>385</ele>
        <time>2021-08-14T07:59:26.000Z</time>
      </trkpt>
      <trkpt lat="49.84972" lon="4.81046">
        <ele>385</ele>
        <time>2021-08-14T07:59:27.000Z</time>
      </trkpt>
      <trkpt lat="49.84974" lon="4.81052">
        <ele>385</ele>
        <time>2021-08-14T07:59:28.000Z</time>
      </trkpt>
      <trkpt lat="49.84976" lon="4.81058">
        <ele>385</ele>
        <time>2021-08-14T07:59:29.000Z</time>
      </trkpt>
      <trkpt lat="49.84978" lon="4.81064">
        <ele>385</ele>
        <time>2021-08-14T07:59:30.000Z</time>
      </trkpt>
      <trkpt lat="49.8498" lon="4.8107">
        <ele>385</ele>
        <time>2021-08-14T07:59:31.000Z</time>
      </trkpt>
      <trkpt lat="49.84983" lon="4.81076">
        <ele>385</ele>
        <time>2021-08-14T07:59:32.000Z</time>
      </trkpt>
      <trkpt lat="49.84985" lon="4.81082">
        <ele>385</ele>
        <time>2021-08-14T07:59:33.000Z</time>
      </trkpt>
      <trkpt lat="49.84987" lon="4.81088">
        <ele>385</ele>
        <time>2021-08-14T07:59:34.000Z</time>
      </trkpt>
      <trkpt lat="49.8499" lon="4.81095">
        <ele>385</ele>
        <time>2021-08-14T07:59:35.000Z</time>
      </trkpt>
      <trkpt lat="49.84992" lon="4.81101">
        <ele>385</ele>
        <time>2021-08-14T07:59:36.000Z</time>
      </trkpt>
      <trkpt lat="49.84994" lon="4.81107">
        <ele>385</ele>
        <time>2021-08-14T07:59:37.000Z</time>
      </trkpt>
      <trkpt lat="49.84996" lon="4.81113">
        <ele>385</ele>
        <time>2021-08-14T07:59:38.000Z</time>
      </trkpt>
      <trkpt lat="49.84999" lon="4.81119">
        <ele>385</ele>
        <time>2021-08-14T07:59:39.000Z</time>
      </trkpt>
      <trkpt lat="49.85001" lon="4.81125">
        <ele>385</ele>
        <time>2021-08-14T07:59:40.000Z</time>
      </trkpt>
      <trkpt lat="49.85003" lon="4.81131">
        <ele>385</ele>
        <time>2021-08-14T07:59:41.000Z</time>
      </trkpt>
      <trkpt lat="49.85006" lon="4.81136">
        <ele>385</ele>
        <time>2021-08-14T07:59:42.000Z</time>
      </trkpt>
      <trkpt lat="49.85009" lon="4.81142">
        <ele>385</ele>
        <time>2021-08-14T07:59:43.000Z</time>
      </trkpt>
      <trkpt lat="49.85012" lon="4.81147">
        <ele>385</ele>
        <time>2021-08-14T07:59:44.000Z</time>
      </trkpt>
      <trkpt lat="49.85014" lon="4.81152">
        <ele>385</ele>
        <time>2021-08-14T07:59:45.000Z</time>
      </trkpt>
      <trkpt lat="49.85018" lon="4.81157">
        <ele>385</ele>
        <time>2021-08-14T07:59:46.000Z</time>
      </trkpt>
      <trkpt lat="49.85021" lon="4.81162">
        <ele>385</ele>
        <time>2021-08-14T07:59:47.000Z</time>
      </trkpt>
      <trkpt lat="49.85024" lon="4.81168">
        <ele>385</ele>
        <time>2021-08-14T07:59:48.000Z</time>
      </trkpt>
      <trkpt lat="49.85028" lon="4.81173">
        <ele>385</ele>
        <time>2021-08-14T07:59:49.000Z</time>
      </trkpt>
      <trkpt lat="49.85031" lon="4.81179">
        <ele>385</ele>
        <time>2021-08-14T07:59:50.000Z</time>
      </trkpt>
      <trkpt lat="49.85035" lon="4.81185">
        <ele>385</ele>
        <time>2021-08-14T07:59:51.000Z</time>
      </trkpt>
      <trkpt lat="49.85038" lon="4.81191">
        <ele>385</ele>
        <time>2021-08-14T07:59:52.000Z</time>
      </trkpt>
      <trkpt lat="49.85042" lon="4.81197">
        <ele>385</ele>
        <time>2021-08-14T07:59:53.000Z</time>
      </trkpt>
      <trkpt lat="49.85046" lon="4.81203">
        <ele>385</ele>
        <time>2021-08-14T07:59:54.000Z</time>
      </trkpt>
      <trkpt lat="49.8505" lon="4.81208">
        <ele>386</ele>
        <time>2021-08-14T07:59:55.000Z</time>
      </trkpt>
      <trkpt lat="49.85053" lon="4.81215">
        <ele>386</ele>
        <time>2021-08-14T07:59:56.000Z</time>
      </trkpt>
      <trkpt lat="49.85057" lon="4.81221">
        <ele>386</ele>
        <time>2021-08-14T07:59:57.000Z</time>
      </trkpt>
      <trkpt lat="49.85061" lon="4.81227">
        <ele>386</ele>
        <time>2021-08-14T07:59:58.000Z</time>
      </trkpt>
      <trkpt lat="49.85065" lon="4.81233">
        <ele>386</ele>
        <time>2021-08-14T07:59:59.000Z</time>
      </trkpt>
      <trkpt lat="49.85069" lon="4.81239">
        <ele>386</ele>
        <time>2021-08-14T08:00:00.000Z</time>
      </trkpt>
      <trkpt lat="49.85072" lon="4.81244">
        <ele>386</ele>
        <time>2021-08-14T08:00:01.000Z</time>
      </trkpt>
      <trkpt lat="49.85076" lon="4.8125">
        <ele>386</ele>
        <time>2021-08-14T08:00:02.000Z</time>
      </trkpt>
      <trkpt lat="49.85079" lon="4.81255">
        <ele>386</ele>
        <time>2021-08-14T08:00:03.000Z</time>
      </trkpt>
      <trkpt lat="49.85082" lon="4.81261">
        <ele>386</ele>
        <time>2021-08-14T08:00:04.000Z</time>
      </trkpt>
      <trkpt lat="49.85085" lon="4.81266">
        <ele>386</ele>
        <time>2021-08-14T08:00:05.000Z</time>
      </trkpt>
      <trkpt lat="49.85088" lon="4.8127">
        <ele>386</ele>
        <time>2021-08-14T08:00:06.000Z</time>
      </trkpt>
      <trkpt lat="49.8509" lon="4.81274">
        <ele>385</ele>
        <time>2021-08-14T08:00:07.000Z</time>
      </trkpt>
      <trkpt lat="49.85094" lon="4.81278">
        <ele>385</ele>
        <time>2021-08-14T08:00:08.000Z</time>
      </trkpt>
      <trkpt lat="49.85097" lon="4.81282">
        <ele>385</ele>
        <time>2021-08-14T08:00:09.000Z</time>
      </trkpt>
      <trkpt lat="49.851" lon="4.81287">
        <ele>385</ele>
        <time>2021-08-14T08:00:10.000Z</time>
      </trkpt>
      <trkpt lat="49.85103" lon="4.81291">
        <ele>385</ele>
        <time>2021-08-14T08:00:11.000Z</time>
      </trkpt>
      <trkpt lat="49.85106" lon="4.81297">
        <ele>385</ele>
        <time>2021-08-14T08:00:12.000Z</time>
      </trkpt>
      <trkpt lat="49.85108" lon="4.81302">
        <ele>385</ele>
        <time>2021-08-14T08:00:13.000Z</time>
      </trkpt>
      <trkpt lat="49.85111" lon="4.81306">
        <ele>385</ele>
        <time>2021-08-14T08:00:14.000Z</time>
      </trkpt>
      <trkpt lat="49.85113" lon="4.81312">
        <ele>385</ele>
        <time>2021-08-14T08:00:15.000Z</time>
      </trkpt>
      <trkpt lat="49.85115" lon="4.81316">
        <ele>385</ele>
        <time>2021-08-14T08:00:16.000Z</time>
      </trkpt>
      <trkpt lat="49.85118" lon="4.8132">
        <ele>385</ele>
        <time>2021-08-14T08:00:17.000Z</time>
      </trkpt>
      <trkpt lat="49.8512" lon="4.81325">
        <ele>385</ele>
        <time>2021-08-14T08:00:18.000Z</time>
      </trkpt>
      <trkpt lat="49.85122" lon="4.81329">
        <ele>385</ele>
        <time>2021-08-14T08:00:19.000Z</time>
      </trkpt>
      <trkpt lat="49.85124" lon="4.81334">
        <ele>385</ele>
        <time>2021-08-14T08:00:20.000Z</time>
      </trkpt>
      <trkpt lat="49.85126" lon="4.81338">
        <ele>385</ele>
        <time>2021-08-14T08:00:21.000Z</time>
      </trkpt>
      <trkpt lat="49.85129" lon="4.81343">
        <ele>385</ele>
        <time>2021-08-14T08:00:22.000Z</time>
      </trkpt>
      <trkpt lat="49.85131" lon="4.81348">
        <ele>385</ele>
        <time>2021-08-14T08:00:23.000Z</time>
      </trkpt>
      <trkpt lat="49.85133" lon="4.81353">
        <ele>385</ele>
        <time>2021-08-14T08:00:24.000Z</time>
      </trkpt>
      <trkpt lat="49.85136" lon="4.81359">
        <ele>385</ele>
        <time>2021-08-14T08:00:25.000Z</time>
      </trkpt>
      <trkpt lat="49.85138" lon="4.81364">
        <ele>385</ele>
        <time>2021-08-14T08:00:26.000Z</time>
      </trkpt>
      <trkpt lat="49.8514" lon="4.8137">
        <ele>385</ele>
        <time>2021-08-14T08:00:27.000Z</time>
      </trkpt>
      <trkpt lat="49.85141" lon="4.81376">
        <ele>385</ele>
        <time>2021-08-14T08:00:28.000Z</time>
      </trkpt>
      <trkpt lat="49.85143" lon="4.81382">
        <ele>385</ele>
        <time>2021-08-14T08:00:29.000Z</time>
      </trkpt>
      <trkpt lat="49.85144" lon="4.81387">
        <ele>385</ele>
        <time>2021-08-14T08:00:30.000Z</time>
      </trkpt>
      <trkpt lat="49.85146" lon="4.81393">
        <ele>385</ele>
        <time>2021-08-14T08:00:31.000Z</time>
      </trkpt>
      <trkpt lat="49.85147" lon="4.81399">
        <ele>385</ele>
        <time>2021-08-14T08:00:32.000Z</time>
      </trkpt>
      <trkpt lat="49.85148" lon="4.81405">
        <ele>385</ele>
        <time>2021-08-14T08:00:33.000Z</time>
      </trkpt>
      <trkpt lat="49.85149" lon="4.81412">
        <ele>385</ele>
        <time>2021-08-14T08:00:34.000Z</time>
      </trkpt>
      <trkpt lat="49.85149" lon="4.8142">
        <ele>385</ele>
        <time>2021-08-14T08:00:35.000Z</time>
      </trkpt>
      <trkpt lat="49.85149" lon="4.81427">
        <ele>385</ele>
        <time>2021-08-14T08:00:36.000Z</time>
      </trkpt>
      <trkpt lat="49.8515" lon="4.81435">
        <ele>385</ele>
        <time>2021-08-14T08:00:37.000Z</time>
      </trkpt>
      <trkpt lat="49.8515" lon="4.81442">
        <ele>385</ele>
        <time>2021-08-14T08:00:38.000Z</time>
      </trkpt>
      <trkpt lat="49.85151" lon="4.8145">
        <ele>385</ele>
        <time>2021-08-14T08:00:39.000Z</time>
      </trkpt>
      <trkpt lat="49.85151" lon="4.81458">
        <ele>385</ele>
        <time>2021-08-14T08:00:40.000Z</time>
      </trkpt>
      <trkpt lat="49.85151" lon="4.81466">
        <ele>385</ele>
        <time>2021-08-14T08:00:41.000Z</time>
      </trkpt>
      <trkpt lat="49.85151" lon="4.81473">
        <ele>385</ele>
        <time>2021-08-14T08:00:42.000Z</time>
      </trkpt>
      <trkpt lat="49.85151" lon="4.81481">
        <ele>385</ele>
        <time>2021-08-14T08:00:43.000Z</time>
      </trkpt>
      <trkpt lat="49.85151" lon="4.81489">
        <ele>385</ele>
        <time>2021-08-14T08:00:44.000Z</time>
      </trkpt>
      <trkpt lat="49.85151" lon="4.81497">
        <ele>385</ele>
        <time>2021-08-14T08:00:45.000Z</time>
      </trkpt>
      <trkpt lat="49.85151" lon="4.81504">
        <ele>385</ele>
        <time>2021-08-14T08:00:46.000Z</time>
      </trkpt>
      <trkpt lat="49.8515" lon="4.81511">
        <ele>385</ele>
        <time>2021-08-14T08:00:47.000Z</time>
      </trkpt>
      <trkpt lat="49.8515" lon="4.81518">
        <ele>385</ele>
        <time>2021-08-14T08:00:48.000Z</time>
      </trkpt>
      <trkpt lat="49.8515" lon="4.81525">
        <ele>385</ele>
        <time>2021-08-14T08:00:49.000Z</time>
      </trkpt>
      <trkpt lat="49.85149" lon="4.81531">
        <ele>385</ele>
        <time>2021-08-14T08:00:50.000Z</time>
      </trkpt>
      <trkpt lat="49.85148" lon="4.81538">
        <ele>385</ele>
        <time>2021-08-14T08:00:51.000Z</time>
      </trkpt>
      <trkpt lat="49.85148" lon="4.81545">
        <ele>385</ele>
        <time>2021-08-14T08:00:52.000Z</time>
      </trkpt>
      <trkpt lat="49.85148" lon="4.81551">
        <ele>385</ele>
        <time>2021-08-14T08:00:53.000Z</time>
      </trkpt>
      <trkpt lat="49.85147" lon="4.81558">
        <ele>386</ele>
        <time>2021-08-14T08:00:54.000Z</time>
      </trkpt>
      <trkpt lat="49.85147" lon="4.81565">
        <ele>386</ele>
        <time>2021-08-14T08:00:55.000Z</time>
      </trkpt>
      <trkpt lat="49.85146" lon="4.81571">
        <ele>386</ele>
        <time>2021-08-14T08:00:56.000Z</time>
      </trkpt>
      <trkpt lat="49.85146" lon="4.81578">
        <ele>386</ele>
        <time>2021-08-14T08:00:57.000Z</time>
      </trkpt>
      <trkpt lat="49.85145" lon="4.81584">
        <ele>386</ele>
        <time>2021-08-14T08:00:58.000Z</time>
      </trkpt>
      <trkpt lat="49.85145" lon="4.81591">
        <ele>386</ele>
        <time>2021-08-14T08:00:59.000Z</time>
      </trkpt>
      <trkpt lat="49.85145" lon="4.81598">
        <ele>386</ele>
        <time>2021-08-14T08:01:00.000Z</time>
      </trkpt>
      <trkpt lat="49.85146" lon="4.81604">
        <ele>386</ele>
        <time>2021-08-14T08:01:01.000Z</time>
      </trkpt>
      <trkpt lat="49.85145" lon="4.81611">
        <ele>386</ele>
        <time>2021-08-14T08:01:02.000Z</time>
      </trkpt>
      <trkpt lat="49.85145" lon="4.81617">
        <ele>386</ele>
        <time>2021-08-14T08:01:03.000Z</time>
      </trkpt>
      <trkpt lat="49.85145" lon="4.81623">
        <ele>386</ele>
        <time>2021-08-14T08:01:04.000Z</time>
      </trkpt>
      <trkpt lat="49.85145" lon="4.8163">
        <ele>386</ele>
        <time>2021-08-14T08:01:05.000Z</time>
      </trkpt>
      <trkpt lat="49.85145" lon="4.81636">
        <ele>387</ele>
        <time>2021-08-14T08:01:06.000Z</time>
      </trkpt>
      <trkpt lat="49.85146" lon="4.81643">
        <ele>387</ele>
        <time>2021-08-14T08:01:07.000Z</time>
      </trkpt>
      <trkpt lat="49.85146" lon="4.81649">
        <ele>387</ele>
        <time>2021-08-14T08:01:08.000Z</time>
      </trkpt>
      <trkpt lat="49.85146" lon="4.81655">
        <ele>387</ele>
        <time>2021-08-14T08:01:09.000Z</time>
      </trkpt>
      <trkpt lat="49.85147" lon="4.8166">
        <ele>387</ele>
        <time>2021-08-14T08:01:10.000Z</time>
      </trkpt>
      <trkpt lat="49.85149" lon="4.81667">
        <ele>387</ele>
        <time>2021-08-14T08:01:11.000Z</time>
      </trkpt>
      <trkpt lat="49.85149" lon="4.81673">
        <ele>387</ele>
        <time>2021-08-14T08:01:12.000Z</time>
      </trkpt>
      <trkpt lat="49.8515" lon="4.8168">
        <ele>387</ele>
        <time>2021-08-14T08:01:13.000Z</time>
      </trkpt>
      <trkpt lat="49.85151" lon="4.81686">
        <ele>388</ele>
        <time>2021-08-14T08:01:14.000Z</time>
      </trkpt>
      <trkpt lat="49.85152" lon="4.81692">
        <ele>388</ele>
        <time>2021-08-14T08:01:15.000Z</time>
      </trkpt>
      <trkpt lat="49.85153" lon="4.81698">
        <ele>388</ele>
        <time>2021-08-14T08:01:16.000Z</time>
      </trkpt>
      <trkpt lat="49.85154" lon="4.81704">
        <ele>388</ele>
        <time>2021-08-14T08:01:17.000Z</time>
      </trkpt>
      <trkpt lat="49.85156" lon="4.81711">
        <ele>388</ele>
        <time>2021-08-14T08:01:18.000Z</time>
      </trkpt>
      <trkpt lat="49.85157" lon="4.81718">
        <ele>388</ele>
        <time>2021-08-14T08:01:19.000Z</time>
      </trkpt>
      <trkpt lat="49.85159" lon="4.81725">
        <ele>388</ele>
        <time>2021-08-14T08:01:20.000Z</time>
      </trkpt>
      <trkpt lat="49.8516" lon="4.81733">
        <ele>388</ele>
        <time>2021-08-14T08:01:21.000Z</time>
      </trkpt>
      <trkpt lat="49.85161" lon="4.81739">
        <ele>388</ele>
        <time>2021-08-14T08:01:22.000Z</time>
      </trkpt>
      <trkpt lat="49.85162" lon="4.81746">
        <ele>389</ele>
        <time>2021-08-14T08:01:23.000Z</time>
      </trkpt>
      <trkpt lat="49.85164" lon="4.81754">
        <ele>389</ele>
        <time>2021-08-14T08:01:24.000Z</time>
      </trkpt>
      <trkpt lat="49.85165" lon="4.81762">
        <ele>389</ele>
        <time>2021-08-14T08:01:25.000Z</time>
      </trkpt>
      <trkpt lat="49.85167" lon="4.8177">
        <ele>389</ele>
        <time>2021-08-14T08:01:26.000Z</time>
      </trkpt>
      <trkpt lat="49.85169" lon="4.81778">
        <ele>389</ele>
        <time>2021-08-14T08:01:27.000Z</time>
      </trkpt>
      <trkpt lat="49.85171" lon="4.81787">
        <ele>389</ele>
        <time>2021-08-14T08:01:28.000Z</time>
      </trkpt>
      <trkpt lat="49.85172" lon="4.81795">
        <ele>389</ele>
        <time>2021-08-14T08:01:29.000Z</time>
      </trkpt>
      <trkpt lat="49.85174" lon="4.81802">
        <ele>389</ele>
        <time>2021-08-14T08:01:30.000Z</time>
      </trkpt>
      <trkpt lat="49.85175" lon="4.81811">
        <ele>389</ele>
        <time>2021-08-14T08:01:31.000Z</time>
      </trkpt>
      <trkpt lat="49.85177" lon="4.8182">
        <ele>389</ele>
        <time>2021-08-14T08:01:32.000Z</time>
      </trkpt>
      <trkpt lat="49.85179" lon="4.8183">
        <ele>389</ele>
        <time>2021-08-14T08:01:33.000Z</time>
      </trkpt>
      <trkpt lat="49.85181" lon="4.8184">
        <ele>389</ele>
        <time>2021-08-14T08:01:34.000Z</time>
      </trkpt>
      <trkpt lat="49.85184" lon="4.81848">
        <ele>389</ele>
        <time>2021-08-14T08:01:35.000Z</time>
      </trkpt>
      <trkpt lat="49.85186" lon="4.81854">
        <ele>389</ele>
        <time>2021-08-14T08:01:36.000Z</time>
      </trkpt>
      <trkpt lat="49.85186" lon="4.81861">
        <ele>389</ele>
        <time>2021-08-14T08:01:37.000Z</time>
      </trkpt>
      <trkpt lat="49.85187" lon="4.81868">
        <ele>389</ele>
        <time>2021-08-14T08:01:38.000Z</time>
      </trkpt>
      <trkpt lat="49.85187" lon="4.81876">
        <ele>389</ele>
        <time>2021-08-14T08:01:39.000Z</time>
      </trkpt>
      <trkpt lat="49.85188" lon="4.81884">
        <ele>389</ele>
        <time>2021-08-14T08:01:40.000Z</time>
      </trkpt>
      <trkpt lat="49.85189" lon="4.81893">
        <ele>389</ele>
        <time>2021-08-14T08:01:41.000Z</time>
      </trkpt>
      <trkpt lat="49.85189" lon="4.81903">
        <ele>388</ele>
        <time>2021-08-14T08:01:42.000Z</time>
      </trkpt>
      <trkpt lat="49.85189" lon="4.81913">
        <ele>388</ele>
        <time>2021-08-14T08:01:43.000Z</time>
      </trkpt>
      <trkpt lat="49.85188" lon="4.81924">
        <ele>388</ele>
        <time>2021-08-14T08:01:44.000Z</time>
      </trkpt>
      <trkpt lat="49.85188" lon="4.81934">
        <ele>388</ele>
        <time>2021-08-14T08:01:45.000Z</time>
      </trkpt>
      <trkpt lat="49.85187" lon="4.81945">
        <ele>388</ele>
        <time>2021-08-14T08:01:46.000Z</time>
      </trkpt>
      <trkpt lat="49.85187" lon="4.81955">
        <ele>388</ele>
        <time>2021-08-14T08:01:47.000Z</time>
      </trkpt>
      <trkpt lat="49.85188" lon="4.81966">
        <ele>388</ele>
        <time>2021-08-14T08:01:48.000Z</time>
      </trkpt>
      <trkpt lat="49.85188" lon="4.81976">
        <ele>387</ele>
        <time>2021-08-14T08:01:49.000Z</time>
      </trkpt>
      <trkpt lat="49.85189" lon="4.81986">
        <ele>387</ele>
        <time>2021-08-14T08:01:50.000Z</time>
      </trkpt>
      <trkpt lat="49.8519" lon="4.81996">
        <ele>387</ele>
        <time>2021-08-14T08:01:51.000Z</time>
      </trkpt>
      <trkpt lat="49.85191" lon="4.82006">
        <ele>386</ele>
        <time>2021-08-14T08:01:52.000Z</time>
      </trkpt>
      <trkpt lat="49.85192" lon="4.82017">
        <ele>386</ele>
        <time>2021-08-14T08:01:53.000Z</time>
      </trkpt>
      <trkpt lat="49.85193" lon="4.82028">
        <ele>386</ele>
        <time>2021-08-14T08:01:54.000Z</time>
      </trkpt>
      <trkpt lat="49.85194" lon="4.82037">
        <ele>385</ele>
        <time>2021-08-14T08:01:55.000Z</time>
      </trkpt>
      <trkpt lat="49.85195" lon="4.82047">
        <ele>385</ele>
        <time>2021-08-14T08:01:56.000Z</time>
      </trkpt>
      <trkpt lat="49.85196" lon="4.82056">
        <ele>384</ele>
        <time>2021-08-14T08:01:57.000Z</time>
      </trkpt>
      <trkpt lat="49.85197" lon="4.82066">
        <ele>384</ele>
        <time>2021-08-14T08:01:58.000Z</time>
      </trkpt>
      <trkpt lat="49.85198" lon="4.82077">
        <ele>383</ele>
        <time>2021-08-14T08:01:59.000Z</time>
      </trkpt>
      <trkpt lat="49.852" lon="4.82088">
        <ele>383</ele>
        <time>2021-08-14T08:02:00.000Z</time>
      </trkpt>
      <trkpt lat="49.85202" lon="4.82099">
        <ele>382</ele>
        <time>2021-08-14T08:02:01.000Z</time>
      </trkpt>
      <trkpt lat="49.85203" lon="4.8211">
        <ele>381</ele>
        <time>2021-08-14T08:02:02.000Z</time>
      </trkpt>
      <trkpt lat="49.85204" lon="4.82121">
        <ele>381</ele>
        <time>2021-08-14T08:02:03.000Z</time>
      </trkpt>
      <trkpt lat="49.85205" lon="4.82132">
        <ele>380</ele>
        <time>2021-08-14T08:02:04.000Z</time>
      </trkpt>
      <trkpt lat="49.85207" lon="4.82142">
        <ele>380</ele>
        <time>2021-08-14T08:02:05.000Z</time>
      </trkpt>
      <trkpt lat="49.85208" lon="4.82152">
        <ele>379</ele>
        <time>2021-08-14T08:02:06.000Z</time>
      </trkpt>
      <trkpt lat="49.8521" lon="4.82162">
        <ele>379</ele>
        <time>2021-08-14T08:02:07.000Z</time>
      </trkpt>
      <trkpt lat="49.85212" lon="4.82172">
        <ele>378</ele>
        <time>2021-08-14T08:02:08.000Z</time>
      </trkpt>
      <trkpt lat="49.85214" lon="4.82182">
        <ele>378</ele>
        <time>2021-08-14T08:02:09.000Z</time>
      </trkpt>
      <trkpt lat="49.85215" lon="4.82191">
        <ele>377</ele>
        <time>2021-08-14T08:02:10.000Z</time>
      </trkpt>
      <trkpt lat="49.85216" lon="4.82201">
        <ele>377</ele>
        <time>2021-08-14T08:02:11.000Z</time>
      </trkpt>
      <trkpt lat="49.85217" lon="4.8221">
        <ele>376</ele>
        <time>2021-08-14T08:02:12.000Z</time>
      </trkpt>
      <trkpt lat="49.85219" lon="4.82219">
        <ele>376</ele>
        <time>2021-08-14T08:02:13.000Z</time>
      </trkpt>
      <trkpt lat="49.8522" lon="4.82229">
        <ele>375</ele>
        <time>2021-08-14T08:02:14.000Z</time>
      </trkpt>
      <trkpt lat="49.8522" lon="4.82239">
        <ele>374</ele>
        <time>2021-08-14T08:02:15.000Z</time>
      </trkpt>
      <trkpt lat="49.85221" lon="4.82249">
        <ele>374</ele>
        <time>2021-08-14T08:02:16.000Z</time>
      </trkpt>
      <trkpt lat="49.85222" lon="4.82257">
        <ele>373</ele>
        <time>2021-08-14T08:02:17.000Z</time>
      </trkpt>
      <trkpt lat="49.85223" lon="4.82265">
        <ele>373</ele>
        <time>2021-08-14T08:02:18.000Z</time>
      </trkpt>
      <trkpt lat="49.85224" lon="4.82273">
        <ele>372</ele>
        <time>2021-08-14T08:02:19.000Z</time>
      </trkpt>
      <trkpt lat="49.85224" lon="4.82281">
        <ele>371</ele>
        <time>2021-08-14T08:02:20.000Z</time>
      </trkpt>
      <trkpt lat="49.85225" lon="4.8229">
        <ele>371</ele>
        <time>2021-08-14T08:02:21.000Z</time>
      </trkpt>
      <trkpt lat="49.85225" lon="4.82298">
        <ele>371</ele>
        <time>2021-08-14T08:02:22.000Z</time>
      </trkpt>
      <trkpt lat="49.85226" lon="4.82307">
        <ele>370</ele>
        <time>2021-08-14T08:02:23.000Z</time>
      </trkpt>
      <trkpt lat="49.85227" lon="4.82316">
        <ele>370</ele>
        <time>2021-08-14T08:02:24.000Z</time>
      </trkpt>
      <trkpt lat="49.85228" lon="4.82325">
        <ele>369</ele>
        <time>2021-08-14T08:02:25.000Z</time>
      </trkpt>
      <trkpt lat="49.85229" lon="4.82335">
        <ele>369</ele>
        <time>2021-08-14T08:02:26.000Z</time>
      </trkpt>
      <trkpt lat="49.85231" lon="4.82344">
        <ele>368</ele>
        <time>2021-08-14T08:02:27.000Z</time>
      </trkpt>
      <trkpt lat="49.85231" lon="4.82354">
        <ele>368</ele>
        <time>2021-08-14T08:02:28.000Z</time>
      </trkpt>
      <trkpt lat="49.85231" lon="4.82363">
        <ele>367</ele>
        <time>2021-08-14T08:02:29.000Z</time>
      </trkpt>
      <trkpt lat="49.85231" lon="4.82373">
        <ele>367</ele>
        <time>2021-08-14T08:02:30.000Z</time>
      </trkpt>
      <trkpt lat="49.85231" lon="4.82382">
        <ele>366</ele>
        <time>2021-08-14T08:02:31.000Z</time>
      </trkpt>
      <trkpt lat="49.85231" lon="4.82389">
        <ele>366</ele>
        <time>2021-08-14T08:02:32.000Z</time>
      </trkpt>
      <trkpt lat="49.85231" lon="4.82394">
        <ele>365</ele>
        <time>2021-08-14T08:02:33.000Z</time>
      </trkpt>
      <trkpt lat="49.85231" lon="4.82397">
        <ele>365</ele>
        <time>2021-08-14T08:02:34.000Z</time>
      </trkpt>
      <trkpt lat="49.8523" lon="4.824">
        <ele>364</ele>
        <time>2021-08-14T08:02:35.000Z</time>
      </trkpt>
      <trkpt lat="49.85229" lon="4.82402">
        <ele>364</ele>
        <time>2021-08-14T08:02:36.000Z</time>
      </trkpt>
      <trkpt lat="49.85229" lon="4.82405">
        <ele>363</ele>
        <time>2021-08-14T08:02:37.000Z</time>
      </trkpt>
      <trkpt lat="49.85228" lon="4.82408">
        <ele>363</ele>
        <time>2021-08-14T08:02:38.000Z</time>
      </trkpt>
      <trkpt lat="49.85227" lon="4.8241">
        <ele>363</ele>
        <time>2021-08-14T08:02:39.000Z</time>
      </trkpt>
      <trkpt lat="49.85227" lon="4.82413">
        <ele>362</ele>
        <time>2021-08-14T08:02:40.000Z</time>
      </trkpt>
      <trkpt lat="49.85226" lon="4.82414">
        <ele>362</ele>
        <time>2021-08-14T08:02:41.000Z</time>
      </trkpt>
      <trkpt lat="49.85226" lon="4.82414">
        <ele>362</ele>
        <time>2021-08-14T08:02:42.000Z</time>
      </trkpt>
      <trkpt lat="49.85227" lon="4.82414">
        <ele>361</ele>
        <time>2021-08-14T08:02:43.000Z</time>
      </trkpt>
      <trkpt lat="49.85227" lon="4.82414">
        <ele>361</ele>
        <time>2021-08-14T08:02:44.000Z</time>
      </trkpt>
      <trkpt lat="49.85227" lon="4.82413">
        <ele>361</ele>
        <time>2021-08-14T08:02:45.000Z</time>
      </trkpt>
      <trkpt lat="49.85229" lon="4.82412">
        <ele>361</ele>
        <time>2021-08-14T08:02:46.000Z</time>
      </trkpt>
      <trkpt lat="49.8523" lon="4.82411">
        <ele>361</ele>
        <time>2021-08-14T08:02:47.000Z</time>
      </trkpt>
      <trkpt lat="49.85231" lon="4.82408">
        <ele>361</ele>
        <time>2021-08-14T08:02:48.000Z</time>
      </trkpt>
      <trkpt lat="49.85232" lon="4.82405">
        <ele>360</ele>
        <time>2021-08-14T08:02:49.000Z</time>
      </trkpt>
      <trkpt lat="49.85233" lon="4.82404">
        <ele>360</ele>
        <time>2021-08-14T08:02:50.000Z</time>
      </trkpt>
      <trkpt lat="49.85235" lon="4.82404">
        <ele>360</ele>
        <time>2021-08-14T08:02:51.000Z</time>
      </trkpt>
      <trkpt lat="49.85237" lon="4.82406">
        <ele>360</ele>
        <time>2021-08-14T08:02:52.000Z</time>
      </trkpt>
      <trkpt lat="49.85238" lon="4.8241">
        <ele>360</ele>
        <time>2021-08-14T08:02:53.000Z</time>
      </trkpt>
      <trkpt lat="49.8524" lon="4.82414">
        <ele>360</ele>
        <time>2021-08-14T08:02:54.000Z</time>
      </trkpt>
      <trkpt lat="49.85242" lon="4.82418">
        <ele>360</ele>
        <time>2021-08-14T08:02:55.000Z</time>
      </trkpt>
      <trkpt lat="49.85244" lon="4.82422">
        <ele>360</ele>
        <time>2021-08-14T08:02:56.000Z</time>
      </trkpt>
      <trkpt lat="49.85245" lon="4.82426">
        <ele>360</ele>
        <time>2021-08-14T08:02:57.000Z</time>
      </trkpt>
      <trkpt lat="49.85247" lon="4.8243">
        <ele>360</ele>
        <time>2021-08-14T08:02:58.000Z</time>
      </trkpt>
      <trkpt lat="49.85249" lon="4.82434">
        <ele>360</ele>
        <time>2021-08-14T08:02:59.000Z</time>
      </trkpt>
      <trkpt lat="49.85251" lon="4.82439">
        <ele>360</ele>
        <time>2021-08-14T08:03:00.000Z</time>
      </trkpt>
      <trkpt lat="49.85253" lon="4.82443">
        <ele>359</ele>
        <time>2021-08-14T08:03:01.000Z</time>
      </trkpt>
      <trkpt lat="49.85256" lon="4.82447">
        <ele>359</ele>
        <time>2021-08-14T08:03:02.000Z</time>
      </trkpt>
      <trkpt lat="49.85259" lon="4.8245">
        <ele>359</ele>
        <time>2021-08-14T08:03:03.000Z</time>
      </trkpt>
      <trkpt lat="49.85262" lon="4.82454">
        <ele>359</ele>
        <time>2021-08-14T08:03:04.000Z</time>
      </trkpt>
      <trkpt lat="49.85265" lon="4.82457">
        <ele>359</ele>
        <time>2021-08-14T08:03:05.000Z</time>
      </trkpt>
      <trkpt lat="49.85268" lon="4.82462">
        <ele>359</ele>
        <time>2021-08-14T08:03:06.000Z</time>
      </trkpt>
      <trkpt lat="49.85271" lon="4.82465">
        <ele>359</ele>
        <time>2021-08-14T08:03:07.000Z</time>
      </trkpt>
      <trkpt lat="49.85274" lon="4.82468">
        <ele>359</ele>
        <time>2021-08-14T08:03:08.000Z</time>
      </trkpt>
      <trkpt lat="49.85277" lon="4.82471">
        <ele>359</ele>
        <time>2021-08-14T08:03:09.000Z</time>
      </trkpt>
      <trkpt lat="49.85281" lon="4.82474">
        <ele>359</ele>
        <time>2021-08-14T08:03:10.000Z</time>
      </trkpt>
      <trkpt lat="49.85284" lon="4.82477">
        <ele>359</ele>
        <time>2021-08-14T08:03:11.000Z</time>
      </trkpt>
      <trkpt lat="49.85288" lon="4.8248">
        <ele>359</ele>
        <time>2021-08-14T08:03:12.000Z</time>
      </trkpt>
      <trkpt lat="49.85292" lon="4.82482">
        <ele>359</ele>
        <time>2021-08-14T08:03:13.000Z</time>
      </trkpt>
      <trkpt lat="49.85295" lon="4.82486">
        <ele>359</ele>
        <time>2021-08-14T08:03:14.000Z</time>
      </trkpt>
      <trkpt lat="49.85299" lon="4.82489">
        <ele>359</ele>
        <time>2021-08-14T08:03:15.000Z</time>
      </trkpt>
      <trkpt lat="49.85302" lon="4.82493">
        <ele>359</ele>
        <time>2021-08-14T08:03:16.000Z</time>
      </trkpt>
      <trkpt lat="49.85305" lon="4.82496">
        <ele>359</ele>
        <time>2021-08-14T08:03:17.000Z</time>
      </trkpt>
      <trkpt lat="49.85309" lon="4.82499">
        <ele>359</ele>
        <time>2021-08-14T08:03:18.000Z</time>
      </trkpt>
      <trkpt lat="49.85312" lon="4.82503">
        <ele>359</ele>
        <time>2021-08-14T08:03:19.000Z</time>
      </trkpt>
      <trkpt lat="49.85315" lon="4.82507">
        <ele>359</ele>
        <time>2021-08-14T08:03:20.000Z</time>
      </trkpt>
      <trkpt lat="49.85318" lon="4.8251">
        <ele>359</ele>
        <time>2021-08-14T08:03:21.000Z</time>
      </trkpt>
      <trkpt lat="49.85321" lon="4.82514">
        <ele>359</ele>
        <time>2021-08-14T08:03:22.000Z</time>
      </trkpt>
      <trkpt lat="49.85323" lon="4.82518">
        <ele>359</ele>
        <time>2021-08-14T08:03:23.000Z</time>
      </trkpt>
      <trkpt lat="49.85325" lon="4.82522">
        <ele>359</ele>
        <time>2021-08-14T08:03:24.000Z</time>
      </trkpt>
      <trkpt lat="49.85327" lon="4.82525">
        <ele>359</ele>
        <time>2021-08-14T08:03:25.000Z</time>
      </trkpt>
      <trkpt lat="49.85329" lon="4.82528">
        <ele>358</ele>
        <time>2021-08-14T08:03:26.000Z</time>
      </trkpt>
      <trkpt lat="49.85331" lon="4.8253">
        <ele>358</ele>
        <time>2021-08-14T08:03:27.000Z</time>
      </trkpt>
      <trkpt lat="49.85332" lon="4.82533">
        <ele>358</ele>
        <time>2021-08-14T08:03:28.000Z</time>
      </trkpt>
      <trkpt lat="49.85333" lon="4.82536">
        <ele>358</ele>
        <time>2021-08-14T08:03:29.000Z</time>
      </trkpt>
      <trkpt lat="49.85334" lon="4.82539">
        <ele>358</ele>
        <time>2021-08-14T08:03:30.000Z</time>
      </trkpt>
      <trkpt lat="49.85335" lon="4.82541">
        <ele>358</ele>
        <time>2021-08-14T08:03:31.000Z</time>
      </trkpt>
      <trkpt lat="49.85336" lon="4.82544">
        <ele>358</ele>
        <time>2021-08-14T08:03:32.000Z</time>
      </trkpt>
      <trkpt lat="49.85338" lon="4.82548">
        <ele>358</ele>
        <time>2021-08-14T08:03:33.000Z</time>
      </trkpt>
      <trkpt lat="49.85341" lon="4.82553">
        <ele>358</ele>
        <time>2021-08-14T08:03:34.000Z</time>
      </trkpt>
      <trkpt lat="49.85343" lon="4.82558">
        <ele>358</ele>
        <time>2021-08-14T08:03:35.000Z</time>
      </trkpt>
      <trkpt lat="49.85346" lon="4.82563">
        <ele>358</ele>
        <time>2021-08-14T08:03:36.000Z</time>
      </trkpt>
      <trkpt lat="49.85348" lon="4.82569">
        <ele>358</ele>
        <time>2021-08-14T08:03:37.000Z</time>
      </trkpt>
      <trkpt lat="49.85349" lon="4.82574">
        <ele>358</ele>
        <time>2021-08-14T08:03:38.000Z</time>
      </trkpt>
      <trkpt lat="49.85351" lon="4.8258">
        <ele>358</ele>
        <time>2021-08-14T08:03:39.000Z</time>
      </trkpt>
      <trkpt lat="49.85352" lon="4.82586">
        <ele>358</ele>
        <time>2021-08-14T08:03:40.000Z</time>
      </trkpt>
      <trkpt lat="49.85352" lon="4.82591">
        <ele>358</ele>
        <time>2021-08-14T08:03:41.000Z</time>
      </trkpt>
      <trkpt lat="49.85353" lon="4.82596">
        <ele>358</ele>
        <time>2021-08-14T08:03:42.000Z</time>
      </trkpt>
      <trkpt lat="49.85355" lon="4.826">
        <ele>358</ele>
        <time>2021-08-14T08:03:43.000Z</time>
      </trkpt>
      <trkpt lat="49.85357" lon="4.82605">
        <ele>358</ele>
        <time>2021-08-14T08:03:44.000Z</time>
      </trkpt>
      <trkpt lat="49.85358" lon="4.82608">
        <ele>358</ele>
        <time>2021-08-14T08:03:45.000Z</time>
      </trkpt>
      <trkpt lat="49.8536" lon="4.82612">
        <ele>358</ele>
        <time>2021-08-14T08:03:46.000Z</time>
      </trkpt>
      <trkpt lat="49.85362" lon="4.82616">
        <ele>358</ele>
        <time>2021-08-14T08:03:47.000Z</time>
      </trkpt>
      <trkpt lat="49.85363" lon="4.8262">
        <ele>358</ele>
        <time>2021-08-14T08:03:48.000Z</time>
      </trkpt>
      <trkpt lat="49.85365" lon="4.82625">
        <ele>358</ele>
        <time>2021-08-14T08:03:49.000Z</time>
      </trkpt>
      <trkpt lat="49.85367" lon="4.82629">
        <ele>358</ele>
        <time>2021-08-14T08:03:50.000Z</time>
      </trkpt>
      <trkpt lat="49.85368" lon="4.82634">
        <ele>358</ele>
        <time>2021-08-14T08:03:51.000Z</time>
      </trkpt>
      <trkpt lat="49.8537" lon="4.82638">
        <ele>358</ele>
        <time>2021-08-14T08:03:52.000Z</time>
      </trkpt>
      <trkpt lat="49.85372" lon="4.82642">
        <ele>358</ele>
        <time>2021-08-14T08:03:53.000Z</time>
      </trkpt>
      <trkpt lat="49.85373" lon="4.82647">
        <ele>358</ele>
        <time>2021-08-14T08:03:54.000Z</time>
      </trkpt>
      <trkpt lat="49.85375" lon="4.82651">
        <ele>358</ele>
        <time>2021-08-14T08:03:55.000Z</time>
      </trkpt>
      <trkpt lat="49.85377" lon="4.82655">
        <ele>358</ele>
        <time>2021-08-14T08:03:56.000Z</time>
      </trkpt>
      <trkpt lat="49.85379" lon="4.8266">
        <ele>358</ele>
        <time>2021-08-14T08:03:57.000Z</time>
      </trkpt>
      <trkpt lat="49.85382" lon="4.82664">
        <ele>358</ele>
        <time>2021-08-14T08:03:58.000Z</time>
      </trkpt>
      <trkpt lat="49.85384" lon="4.82668">
        <ele>358</ele>
        <time>2021-08-14T08:03:59.000Z</time>
      </trkpt>
      <trkpt lat="49.85386" lon="4.82673">
        <ele>358</ele>
        <time>2021-08-14T08:04:00.000Z</time>
      </trkpt>
      <trkpt lat="49.85388" lon="4.82677">
        <ele>358</ele>
        <time>2021-08-14T08:04:01.000Z</time>
      </trkpt>
      <trkpt lat="49.8539" lon="4.82681">
        <ele>358</ele>
        <time>2021-08-14T08:04:02.000Z</time>
      </trkpt>
      <trkpt lat="49.85392" lon="4.82685">
        <ele>358</ele>
        <time>2021-08-14T08:04:03.000Z</time>
      </trkpt>
      <trkpt lat="49.85393" lon="4.82688">
        <ele>358</ele>
        <time>2021-08-14T08:04:04.000Z</time>
      </trkpt>
      <trkpt lat="49.85395" lon="4.82692">
        <ele>358</ele>
        <time>2021-08-14T08:04:05.000Z</time>
      </trkpt>
      <trkpt lat="49.85397" lon="4.82696">
        <ele>358</ele>
        <time>2021-08-14T08:04:06.000Z</time>
      </trkpt>
      <trkpt lat="49.85399" lon="4.827">
        <ele>358</ele>
        <time>2021-08-14T08:04:07.000Z</time>
      </trkpt>
      <trkpt lat="49.85401" lon="4.82704">
        <ele>358</ele>
        <time>2021-08-14T08:04:08.000Z</time>
      </trkpt>
      <trkpt lat="49.85402" lon="4.82707">
        <ele>359</ele>
        <time>2021-08-14T08:04:09.000Z</time>
      </trkpt>
      <trkpt lat="49.85404" lon="4.82711">
        <ele>359</ele>
        <time>2021-08-14T08:04:10.000Z</time>
      </trkpt>
      <trkpt lat="49.85406" lon="4.82715">
        <ele>359</ele>
        <time>2021-08-14T08:04:11.000Z</time>
      </trkpt>
      <trkpt lat="49.85408" lon="4.82719">
        <ele>359</ele>
        <time>2021-08-14T08:04:12.000Z</time>
      </trkpt>
      <trkpt lat="49.8541" lon="4.82723">
        <ele>359</ele>
        <time>2021-08-14T08:04:13.000Z</time>
      </trkpt>
      <trkpt lat="49.85412" lon="4.82727">
        <ele>360</ele>
        <time>2021-08-14T08:04:14.000Z</time>
      </trkpt>
      <trkpt lat="49.85414" lon="4.82731">
        <ele>360</ele>
        <time>2021-08-14T08:04:15.000Z</time>
      </trkpt>
      <trkpt lat="49.85416" lon="4.82734">
        <ele>360</ele>
        <time>2021-08-14T08:04:16.000Z</time>
      </trkpt>
      <trkpt lat="49.85418" lon="4.82739">
        <ele>360</ele>
        <time>2021-08-14T08:04:17.000Z</time>
      </trkpt>
      <trkpt lat="49.85421" lon="4.82743">
        <ele>360</ele>
        <time>2021-08-14T08:04:18.000Z</time>
      </trkpt>
      <trkpt lat="49.85422" lon="4.82747">
        <ele>360</ele>
        <time>2021-08-14T08:04:19.000Z</time>
      </trkpt>
      <trkpt lat="49.85424" lon="4.8275">
        <ele>360</ele>
        <time>2021-08-14T08:04:20.000Z</time>
      </trkpt>
      <trkpt lat="49.85427" lon="4.82754">
        <ele>360</ele>
        <time>2021-08-14T08:04:21.000Z</time>
      </trkpt>
      <trkpt lat="49.85429" lon="4.82757">
        <ele>361</ele>
        <time>2021-08-14T08:04:22.000Z</time>
      </trkpt>
      <trkpt lat="49.85431" lon="4.8276">
        <ele>361</ele>
        <time>2021-08-14T08:04:23.000Z</time>
      </trkpt>
      <trkpt lat="49.85434" lon="4.82763">
        <ele>361</ele>
        <time>2021-08-14T08:04:24.000Z</time>
      </trkpt>
      <trkpt lat="49.85436" lon="4.82766">
        <ele>361</ele>
        <time>2021-08-14T08:04:25.000Z</time>
      </trkpt>
      <trkpt lat="49.85439" lon="4.82769">
        <ele>361</ele>
        <time>2021-08-14T08:04:26.000Z</time>
      </trkpt>
      <trkpt lat="49.85442" lon="4.82772">
        <ele>361</ele>
        <time>2021-08-14T08:04:27.000Z</time>
      </trkpt>
      <trkpt lat="49.85444" lon="4.82775">
        <ele>361</ele>
        <time>2021-08-14T08:04:28.000Z</time>
      </trkpt>
      <trkpt lat="49.85446" lon="4.82778">
        <ele>361</ele>
        <time>2021-08-14T08:04:29.000Z</time>
      </trkpt>
      <trkpt lat="49.85449" lon="4.82781">
        <ele>361</ele>
        <time>2021-08-14T08:04:30.000Z</time>
      </trkpt>
      <trkpt lat="49.85451" lon="4.82785">
        <ele>361</ele>
        <time>2021-08-14T08:04:31.000Z</time>
      </trkpt>
      <trkpt lat="49.85454" lon="4.82787">
        <ele>362</ele>
        <time>2021-08-14T08:04:32.000Z</time>
      </trkpt>
      <trkpt lat="49.85457" lon="4.8279">
        <ele>362</ele>
        <time>2021-08-14T08:04:33.000Z</time>
      </trkpt>
      <trkpt lat="49.85459" lon="4.82793">
        <ele>362</ele>
        <time>2021-08-14T08:04:34.000Z</time>
      </trkpt>
      <trkpt lat="49.85462" lon="4.82795">
        <ele>362</ele>
        <time>2021-08-14T08:04:35.000Z</time>
      </trkpt>
      <trkpt lat="49.85464" lon="4.82798">
        <ele>362</ele>
        <time>2021-08-14T08:04:36.000Z</time>
      </trkpt>
      <trkpt lat="49.85466" lon="4.82801">
        <ele>362</ele>
        <time>2021-08-14T08:04:37.000Z</time>
      </trkpt>
      <trkpt lat="49.85469" lon="4.82804">
        <ele>362</ele>
        <time>2021-08-14T08:04:38.000Z</time>
      </trkpt>
      <trkpt lat="49.85471" lon="4.82807">
        <ele>362</ele>
        <time>2021-08-14T08:04:39.000Z</time>
      </trkpt>
      <trkpt lat="49.85473" lon="4.8281">
        <ele>362</ele>
        <time>2021-08-14T08:04:40.000Z</time>
      </trkpt>
      <trkpt lat="49.85475" lon="4.82813">
        <ele>362</ele>
        <time>2021-08-14T08:04:41.000Z</time>
      </trkpt>
      <trkpt lat="49.85477" lon="4.82816">
        <ele>363</ele>
        <time>2021-08-14T08:04:42.000Z</time>
      </trkpt>
      <trkpt lat="49.85479" lon="4.82818">
        <ele>363</ele>
        <time>2021-08-14T08:04:43.000Z</time>
      </trkpt>
      <trkpt lat="49.85481" lon="4.82821">
        <ele>363</ele>
        <time>2021-08-14T08:04:44.000Z</time>
      </trkpt>
      <trkpt lat="49.85483" lon="4.82823">
        <ele>363</ele>
        <time>2021-08-14T08:04:45.000Z</time>
      </trkpt>
      <trkpt lat="49.85485" lon="4.82827">
        <ele>363</ele>
        <time>2021-08-14T08:04:46.000Z</time>
      </trkpt>
      <trkpt lat="49.85486" lon="4.8283">
        <ele>363</ele>
        <time>2021-08-14T08:04:47.000Z</time>
      </trkpt>
      <trkpt lat="49.85488" lon="4.82833">
        <ele>363</ele>
        <time>2021-08-14T08:04:48.000Z</time>
      </trkpt>
      <trkpt lat="49.8549" lon="4.82835">
        <ele>363</ele>
        <time>2021-08-14T08:04:49.000Z</time>
      </trkpt>
      <trkpt lat="49.85491" lon="4.82838">
        <ele>364</ele>
        <time>2021-08-14T08:04:50.000Z</time>
      </trkpt>
      <trkpt lat="49.85493" lon="4.82841">
        <ele>364</ele>
        <time>2021-08-14T08:04:51.000Z</time>
      </trkpt>
      <trkpt lat="49.85495" lon="4.82844">
        <ele>364</ele>
        <time>2021-08-14T08:04:52.000Z</time>
      </trkpt>
      <trkpt lat="49.85496" lon="4.82846">
        <ele>364</ele>
        <time>2021-08-14T08:04:53.000Z</time>
      </trkpt>
      <trkpt lat="49.85498" lon="4.82849">
        <ele>364</ele>
        <time>2021-08-14T08:04:54.000Z</time>
      </trkpt>
      <trkpt lat="49.855" lon="4.82852">
        <ele>364</ele>
        <time>2021-08-14T08:04:55.000Z</time>
      </trkpt>
      <trkpt lat="49.85501" lon="4.82855">
        <ele>364</ele>
        <time>2021-08-14T08:04:56.000Z</time>
      </trkpt>
      <trkpt lat="49.85503" lon="4.82858">
        <ele>364</ele>
        <time>2021-08-14T08:04:57.000Z</time>
      </trkpt>
      <trkpt lat="49.85505" lon="4.8286">
        <ele>364</ele>
        <time>2021-08-14T08:04:58.000Z</time>
      </trkpt>
      <trkpt lat="49.85506" lon="4.82863">
        <ele>364</ele>
        <time>2021-08-14T08:04:59.000Z</time>
      </trkpt>
      <trkpt lat="49.85507" lon="4.82866">
        <ele>364</ele>
        <time>2021-08-14T08:05:00.000Z</time>
      </trkpt>
      <trkpt lat="49.85509" lon="4.82869">
        <ele>364</ele>
        <time>2021-08-14T08:05:01.000Z</time>
      </trkpt>
      <trkpt lat="49.8551" lon="4.82872">
        <ele>365</ele>
        <time>2021-08-14T08:05:02.000Z</time>
      </trkpt>
      <trkpt lat="49.85511" lon="4.82875">
        <ele>365</ele>
        <time>2021-08-14T08:05:03.000Z</time>
      </trkpt>
      <trkpt lat="49.85513" lon="4.82877">
        <ele>365</ele>
        <time>2021-08-14T08:05:04.000Z</time>
      </trkpt>
      <trkpt lat="49.85515" lon="4.82879">
        <ele>365</ele>
        <time>2021-08-14T08:05:05.000Z</time>
      </trkpt>
      <trkpt lat="49.85517" lon="4.82882">
        <ele>365</ele>
        <time>2021-08-14T08:05:06.000Z</time>
      </trkpt>
      <trkpt lat="49.85519" lon="4.82885">
        <ele>365</ele>
        <time>2021-08-14T08:05:07.000Z</time>
      </trkpt>
      <trkpt lat="49.8552" lon="4.82887">
        <ele>365</ele>
        <time>2021-08-14T08:05:08.000Z</time>
      </trkpt>
      <trkpt lat="49.85522" lon="4.8289">
        <ele>365</ele>
        <time>2021-08-14T08:05:09.000Z</time>
      </trkpt>
      <trkpt lat="49.85524" lon="4.82893">
        <ele>365</ele>
        <time>2021-08-14T08:05:10.000Z</time>
      </trkpt>
      <trkpt lat="49.85525" lon="4.82896">
        <ele>365</ele>
        <time>2021-08-14T08:05:11.000Z</time>
      </trkpt>
      <trkpt lat="49.85527" lon="4.82899">
        <ele>366</ele>
        <time>2021-08-14T08:05:12.000Z</time>
      </trkpt>
      <trkpt lat="49.85528" lon="4.82902">
        <ele>366</ele>
        <time>2021-08-14T08:05:13.000Z</time>
      </trkpt>
      <trkpt lat="49.8553" lon="4.82905">
        <ele>366</ele>
        <time>2021-08-14T08:05:14.000Z</time>
      </trkpt>
      <trkpt lat="49.85532" lon="4.82908">
        <ele>366</ele>
        <time>2021-08-14T08:05:15.000Z</time>
      </trkpt>
      <trkpt lat="49.85533" lon="4.82912">
        <ele>366</ele>
        <time>2021-08-14T08:05:16.000Z</time>
      </trkpt>
      <trkpt lat="49.85534" lon="4.82915">
        <ele>366</ele>
        <time>2021-08-14T08:05:17.000Z</time>
      </trkpt>
      <trkpt lat="49.85536" lon="4.82919">
        <ele>366</ele>
        <time>2021-08-14T08:05:18.000Z</time>
      </trkpt>
      <trkpt lat="49.85537" lon="4.82922">
        <ele>366</ele>
        <time>2021-08-14T08:05:19.000Z</time>
      </trkpt>
      <trkpt lat="49.85539" lon="4.82925">
        <ele>366</ele>
        <time>2021-08-14T08:05:20.000Z</time>
      </trkpt>
      <trkpt lat="49.85541" lon="4.82929">
        <ele>366</ele>
        <time>2021-08-14T08:05:21.000Z</time>
      </trkpt>
      <trkpt lat="49.85542" lon="4.82932">
        <ele>366</ele>
        <time>2021-08-14T08:05:22.000Z</time>
      </trkpt>
      <trkpt lat="49.85543" lon="4.82936">
        <ele>366</ele>
        <time>2021-08-14T08:05:23.000Z</time>
      </trkpt>
      <trkpt lat="49.85545" lon="4.82939">
        <ele>366</ele>
        <time>2021-08-14T08:05:24.000Z</time>
      </trkpt>
      <trkpt lat="49.85546" lon="4.82942">
        <ele>366</ele>
        <time>2021-08-14T08:05:25.000Z</time>
      </trkpt>
      <trkpt lat="49.85548" lon="4.82946">
        <ele>366</ele>
        <time>2021-08-14T08:05:26.000Z</time>
      </trkpt>
      <trkpt lat="49.85549" lon="4.82949">
        <ele>367</ele>
        <time>2021-08-14T08:05:27.000Z</time>
      </trkpt>
      <trkpt lat="49.85551" lon="4.82952">
        <ele>366</ele>
        <time>2021-08-14T08:05:28.000Z</time>
      </trkpt>
      <trkpt lat="49.85553" lon="4.82956">
        <ele>367</ele>
        <time>2021-08-14T08:05:29.000Z</time>
      </trkpt>
      <trkpt lat="49.85554" lon="4.82959">
        <ele>367</ele>
        <time>2021-08-14T08:05:30.000Z</time>
      </trkpt>
      <trkpt lat="49.85555" lon="4.82963">
        <ele>367</ele>
        <time>2021-08-14T08:05:31.000Z</time>
      </trkpt>
      <trkpt lat="49.85557" lon="4.82967">
        <ele>367</ele>
        <time>2021-08-14T08:05:32.000Z</time>
      </trkpt>
      <trkpt lat="49.85558" lon="4.82971">
        <ele>367</ele>
        <time>2021-08-14T08:05:33.000Z</time>
      </trkpt>
      <trkpt lat="49.85559" lon="4.82975">
        <ele>367</ele>
        <time>2021-08-14T08:05:34.000Z</time>
      </trkpt>
      <trkpt lat="49.8556" lon="4.82978">
        <ele>367</ele>
        <time>2021-08-14T08:05:35.000Z</time>
      </trkpt>
      <trkpt lat="49.85561" lon="4.82982">
        <ele>367</ele>
        <time>2021-08-14T08:05:36.000Z</time>
      </trkpt>
      <trkpt lat="49.85562" lon="4.82985">
        <ele>367</ele>
        <time>2021-08-14T08:05:37.000Z</time>
      </trkpt>
      <trkpt lat="49.85563" lon="4.82989">
        <ele>367</ele>
        <time>2021-08-14T08:05:38.000Z</time>
      </trkpt>
      <trkpt lat="49.85565" lon="4.82992">
        <ele>367</ele>
        <time>2021-08-14T08:05:39.000Z</time>
      </trkpt>
      <trkpt lat="49.85566" lon="4.82996">
        <ele>368</ele>
        <time>2021-08-14T08:05:40.000Z</time>
      </trkpt>
      <trkpt lat="49.85567" lon="4.82999">
        <ele>368</ele>
        <time>2021-08-14T08:05:41.000Z</time>
      </trkpt>
      <trkpt lat="49.85568" lon="4.83002">
        <ele>368</ele>
        <time>2021-08-14T08:05:42.000Z</time>
      </trkpt>
      <trkpt lat="49.85569" lon="4.83006">
        <ele>368</ele>
        <time>2021-08-14T08:05:43.000Z</time>
      </trkpt>
      <trkpt lat="49.8557" lon="4.8301">
        <ele>368</ele>
        <time>2021-08-14T08:05:44.000Z</time>
      </trkpt>
      <trkpt lat="49.85571" lon="4.83013">
        <ele>368</ele>
        <time>2021-08-14T08:05:45.000Z</time>
      </trkpt>
      <trkpt lat="49.85573" lon="4.83017">
        <ele>369</ele>
        <time>2021-08-14T08:05:46.000Z</time>
      </trkpt>
      <trkpt lat="49.85574" lon="4.83021">
        <ele>369</ele>
        <time>2021-08-14T08:05:47.000Z</time>
      </trkpt>
      <trkpt lat="49.85575" lon="4.83025">
        <ele>369</ele>
        <time>2021-08-14T08:05:48.000Z</time>
      </trkpt>
      <trkpt lat="49.85576" lon="4.83029">
        <ele>369</ele>
        <time>2021-08-14T08:05:49.000Z</time>
      </trkpt>
      <trkpt lat="49.85577" lon="4.83033">
        <ele>369</ele>
        <time>2021-08-14T08:05:50.000Z</time>
      </trkpt>
      <trkpt lat="49.85577" lon="4.83037">
        <ele>369</ele>
        <time>2021-08-14T08:05:51.000Z</time>
      </trkpt>
      <trkpt lat="49.85578" lon="4.83041">
        <ele>370</ele>
        <time>2021-08-14T08:05:52.000Z</time>
      </trkpt>
      <trkpt lat="49.85579" lon="4.83044">
        <ele>370</ele>
        <time>2021-08-14T08:05:53.000Z</time>
      </trkpt>
      <trkpt lat="49.8558" lon="4.83047">
        <ele>370</ele>
        <time>2021-08-14T08:05:54.000Z</time>
      </trkpt>
      <trkpt lat="49.85581" lon="4.83051">
        <ele>370</ele>
        <time>2021-08-14T08:05:55.000Z</time>
      </trkpt>
      <trkpt lat="49.85582" lon="4.83055">
        <ele>370</ele>
        <time>2021-08-14T08:05:56.000Z</time>
      </trkpt>
      <trkpt lat="49.85583" lon="4.83058">
        <ele>370</ele>
        <time>2021-08-14T08:05:57.000Z</time>
      </trkpt>
      <trkpt lat="49.85583" lon="4.83062">
        <ele>370</ele>
        <time>2021-08-14T08:05:58.000Z</time>
      </trkpt>
      <trkpt lat="49.85585" lon="4.83066">
        <ele>371</ele>
        <time>2021-08-14T08:05:59.000Z</time>
      </trkpt>
      <trkpt lat="49.85586" lon="4.8307">
        <ele>371</ele>
        <time>2021-08-14T08:06:00.000Z</time>
      </trkpt>
      <trkpt lat="49.85587" lon="4.83074">
        <ele>371</ele>
        <time>2021-08-14T08:06:01.000Z</time>
      </trkpt>
      <trkpt lat="49.85588" lon="4.83078">
        <ele>371</ele>
        <time>2021-08-14T08:06:02.000Z</time>
      </trkpt>
      <trkpt lat="49.85589" lon="4.83082">
        <ele>371</ele>
        <time>2021-08-14T08:06:03.000Z</time>
      </trkpt>
      <trkpt lat="49.85591" lon="4.83086">
        <ele>371</ele>
        <time>2021-08-14T08:06:04.000Z</time>
      </trkpt>
      <trkpt lat="49.85592" lon="4.83089">
        <ele>372</ele>
        <time>2021-08-14T08:06:05.000Z</time>
      </trkpt>
      <trkpt lat="49.85594" lon="4.83092">
        <ele>372</ele>
        <time>2021-08-14T08:06:06.000Z</time>
      </trkpt>
      <trkpt lat="49.85595" lon="4.83095">
        <ele>372</ele>
        <time>2021-08-14T08:06:07.000Z</time>
      </trkpt>
      <trkpt lat="49.85597" lon="4.83098">
        <ele>372</ele>
        <time>2021-08-14T08:06:08.000Z</time>
      </trkpt>
      <trkpt lat="49.85599" lon="4.83102">
        <ele>372</ele>
        <time>2021-08-14T08:06:09.000Z</time>
      </trkpt>
      <trkpt lat="49.856" lon="4.83105">
        <ele>373</ele>
        <time>2021-08-14T08:06:10.000Z</time>
      </trkpt>
      <trkpt lat="49.85602" lon="4.83108">
        <ele>373</ele>
        <time>2021-08-14T08:06:11.000Z</time>
      </trkpt>
      <trkpt lat="49.85604" lon="4.8311">
        <ele>373</ele>
        <time>2021-08-14T08:06:12.000Z</time>
      </trkpt>
      <trkpt lat="49.85606" lon="4.83113">
        <ele>373</ele>
        <time>2021-08-14T08:06:13.000Z</time>
      </trkpt>
      <trkpt lat="49.85608" lon="4.83115">
        <ele>373</ele>
        <time>2021-08-14T08:06:14.000Z</time>
      </trkpt>
      <trkpt lat="49.8561" lon="4.83118">
        <ele>373</ele>
        <time>2021-08-14T08:06:15.000Z</time>
      </trkpt>
      <trkpt lat="49.85612" lon="4.8312">
        <ele>374</ele>
        <time>2021-08-14T08:06:16.000Z</time>
      </trkpt>
      <trkpt lat="49.85614" lon="4.83123">
        <ele>374</ele>
        <time>2021-08-14T08:06:17.000Z</time>
      </trkpt>
      <trkpt lat="49.85616" lon="4.83125">
        <ele>374</ele>
        <time>2021-08-14T08:06:18.000Z</time>
      </trkpt>
      <trkpt lat="49.85618" lon="4.83128">
        <ele>374</ele>
        <time>2021-08-14T08:06:19.000Z</time>
      </trkpt>
      <trkpt lat="49.85621" lon="4.83131">
        <ele>374</ele>
        <time>2021-08-14T08:06:20.000Z</time>
      </trkpt>
      <trkpt lat="49.85623" lon="4.83134">
        <ele>374</ele>
        <time>2021-08-14T08:06:21.000Z</time>
      </trkpt>
      <trkpt lat="49.85626" lon="4.83136">
        <ele>375</ele>
        <time>2021-08-14T08:06:22.000Z</time>
      </trkpt>
      <trkpt lat="49.85628" lon="4.83138">
        <ele>375</ele>
        <time>2021-08-14T08:06:23.000Z</time>
      </trkpt>
      <trkpt lat="49.85631" lon="4.8314">
        <ele>375</ele>
        <time>2021-08-14T08:06:24.000Z</time>
      </trkpt>
      <trkpt lat="49.85634" lon="4.83142">
        <ele>375</ele>
        <time>2021-08-14T08:06:25.000Z</time>
      </trkpt>
      <trkpt lat="49.85637" lon="4.83144">
        <ele>375</ele>
        <time>2021-08-14T08:06:26.000Z</time>
      </trkpt>
      <trkpt lat="49.85641" lon="4.83146">
        <ele>376</ele>
        <time>2021-08-14T08:06:27.000Z</time>
      </trkpt>
      <trkpt lat="49.85644" lon="4.83148">
        <ele>376</ele>
        <time>2021-08-14T08:06:28.000Z</time>
      </trkpt>
      <trkpt lat="49.85647" lon="4.83149">
        <ele>376</ele>
        <time>2021-08-14T08:06:29.000Z</time>
      </trkpt>
      <trkpt lat="49.8565" lon="4.83151">
        <ele>376</ele>
        <time>2021-08-14T08:06:30.000Z</time>
      </trkpt>
      <trkpt lat="49.85653" lon="4.83152">
        <ele>376</ele>
        <time>2021-08-14T08:06:31.000Z</time>
      </trkpt>
      <trkpt lat="49.85656" lon="4.83154">
        <ele>377</ele>
        <time>2021-08-14T08:06:32.000Z</time>
      </trkpt>
      <trkpt lat="49.85659" lon="4.83155">
        <ele>377</ele>
        <time>2021-08-14T08:06:33.000Z</time>
      </trkpt>
      <trkpt lat="49.85662" lon="4.83157">
        <ele>377</ele>
        <time>2021-08-14T08:06:34.000Z</time>
      </trkpt>
      <trkpt lat="49.85664" lon="4.83158">
        <ele>377</ele>
        <time>2021-08-14T08:06:35.000Z</time>
      </trkpt>
      <trkpt lat="49.85667" lon="4.8316">
        <ele>378</ele>
        <time>2021-08-14T08:06:36.000Z</time>
      </trkpt>
      <trkpt lat="49.85671" lon="4.83161">
        <ele>378</ele>
        <time>2021-08-14T08:06:37.000Z</time>
      </trkpt>
      <trkpt lat="49.85675" lon="4.83162">
        <ele>378</ele>
        <time>2021-08-14T08:06:38.000Z</time>
      </trkpt>
      <trkpt lat="49.85678" lon="4.83163">
        <ele>378</ele>
        <time>2021-08-14T08:06:39.000Z</time>
      </trkpt>
      <trkpt lat="49.85681" lon="4.83163">
        <ele>378</ele>
        <time>2021-08-14T08:06:40.000Z</time>
      </trkpt>
      <trkpt lat="49.85685" lon="4.83163">
        <ele>379</ele>
        <time>2021-08-14T08:06:41.000Z</time>
      </trkpt>
      <trkpt lat="49.85689" lon="4.83163">
        <ele>379</ele>
        <time>2021-08-14T08:06:42.000Z</time>
      </trkpt>
      <trkpt lat="49.85694" lon="4.83161">
        <ele>379</ele>
        <time>2021-08-14T08:06:43.000Z</time>
      </trkpt>
      <trkpt lat="49.85699" lon="4.83159">
        <ele>379</ele>
        <time>2021-08-14T08:06:44.000Z</time>
      </trkpt>
      <trkpt lat="49.85704" lon="4.83158">
        <ele>379</ele>
        <time>2021-08-14T08:06:45.000Z</time>
      </trkpt>
      <trkpt lat="49.85709" lon="4.83157">
        <ele>380</ele>
        <time>2021-08-14T08:06:46.000Z</time>
      </trkpt>
      <trkpt lat="49.85714" lon="4.83157">
        <ele>380</ele>
        <time>2021-08-14T08:06:47.000Z</time>
      </trkpt>
      <trkpt lat="49.8572" lon="4.83158">
        <ele>380</ele>
        <time>2021-08-14T08:06:48.000Z</time>
      </trkpt>
      <trkpt lat="49.85726" lon="4.8316">
        <ele>380</ele>
        <time>2021-08-14T08:06:49.000Z</time>
      </trkpt>
      <trkpt lat="49.85732" lon="4.83162">
        <ele>380</ele>
        <time>2021-08-14T08:06:50.000Z</time>
      </trkpt>
      <trkpt lat="49.85739" lon="4.83164">
        <ele>380</ele>
        <time>2021-08-14T08:06:51.000Z</time>
      </trkpt>
      <trkpt lat="49.85745" lon="4.83168">
        <ele>380</ele>
        <time>2021-08-14T08:06:52.000Z</time>
      </trkpt>
      <trkpt lat="49.85751" lon="4.83173">
        <ele>380</ele>
        <time>2021-08-14T08:06:53.000Z</time>
      </trkpt>
      <trkpt lat="49.85758" lon="4.83179">
        <ele>381</ele>
        <time>2021-08-14T08:06:54.000Z</time>
      </trkpt>
      <trkpt lat="49.85763" lon="4.83186">
        <ele>381</ele>
        <time>2021-08-14T08:06:55.000Z</time>
      </trkpt>
      <trkpt lat="49.85769" lon="4.83191">
        <ele>381</ele>
        <time>2021-08-14T08:06:56.000Z</time>
      </trkpt>
      <trkpt lat="49.85776" lon="4.83196">
        <ele>381</ele>
        <time>2021-08-14T08:06:57.000Z</time>
      </trkpt>
      <trkpt lat="49.85782" lon="4.83199">
        <ele>381</ele>
        <time>2021-08-14T08:06:58.000Z</time>
      </trkpt>
      <trkpt lat="49.85789" lon="4.83204">
        <ele>381</ele>
        <time>2021-08-14T08:06:59.000Z</time>
      </trkpt>
      <trkpt lat="49.85795" lon="4.83208">
        <ele>381</ele>
        <time>2021-08-14T08:07:00.000Z</time>
      </trkpt>
      <trkpt lat="49.85801" lon="4.83213">
        <ele>381</ele>
        <time>2021-08-14T08:07:01.000Z</time>
      </trkpt>
      <trkpt lat="49.85807" lon="4.8322">
        <ele>381</ele>
        <time>2021-08-14T08:07:02.000Z</time>
      </trkpt>
      <trkpt lat="49.85812" lon="4.83228">
        <ele>381</ele>
        <time>2021-08-14T08:07:03.000Z</time>
      </trkpt>
      <trkpt lat="49.85816" lon="4.83237">
        <ele>381</ele>
        <time>2021-08-14T08:07:04.000Z</time>
      </trkpt>
      <trkpt lat="49.85819" lon="4.83246">
        <ele>381</ele>
        <time>2021-08-14T08:07:05.000Z</time>
      </trkpt>
      <trkpt lat="49.85822" lon="4.83256">
        <ele>380</ele>
        <time>2021-08-14T08:07:06.000Z</time>
      </trkpt>
      <trkpt lat="49.85825" lon="4.83265">
        <ele>380</ele>
        <time>2021-08-14T08:07:07.000Z</time>
      </trkpt>
      <trkpt lat="49.85828" lon="4.83274">
        <ele>379</ele>
        <time>2021-08-14T08:07:08.000Z</time>
      </trkpt>
      <trkpt lat="49.8583" lon="4.83282">
        <ele>379</ele>
        <time>2021-08-14T08:07:09.000Z</time>
      </trkpt>
      <trkpt lat="49.85833" lon="4.8329">
        <ele>378</ele>
        <time>2021-08-14T08:07:10.000Z</time>
      </trkpt>
      <trkpt lat="49.85834" lon="4.83297">
        <ele>378</ele>
        <time>2021-08-14T08:07:11.000Z</time>
      </trkpt>
      <trkpt lat="49.85836" lon="4.83304">
        <ele>377</ele>
        <time>2021-08-14T08:07:12.000Z</time>
      </trkpt>
      <trkpt lat="49.85837" lon="4.83311">
        <ele>377</ele>
        <time>2021-08-14T08:07:13.000Z</time>
      </trkpt>
      <trkpt lat="49.85839" lon="4.83319">
        <ele>376</ele>
        <time>2021-08-14T08:07:14.000Z</time>
      </trkpt>
      <trkpt lat="49.85839" lon="4.83329">
        <ele>375</ele>
        <time>2021-08-14T08:07:15.000Z</time>
      </trkpt>
      <trkpt lat="49.85839" lon="4.83339">
        <ele>375</ele>
        <time>2021-08-14T08:07:16.000Z</time>
      </trkpt>
      <trkpt lat="49.85839" lon="4.8335">
        <ele>374</ele>
        <time>2021-08-14T08:07:17.000Z</time>
      </trkpt>
      <trkpt lat="49.85837" lon="4.83361">
        <ele>373</ele>
        <time>2021-08-14T08:07:18.000Z</time>
      </trkpt>
      <trkpt lat="49.85835" lon="4.83372">
        <ele>373</ele>
        <time>2021-08-14T08:07:19.000Z</time>
      </trkpt>
      <trkpt lat="49.85833" lon="4.83382">
        <ele>372</ele>
        <time>2021-08-14T08:07:20.000Z</time>
      </trkpt>
      <trkpt lat="49.85832" lon="4.8339">
        <ele>371</ele>
        <time>2021-08-14T08:07:21.000Z</time>
      </trkpt>
      <trkpt lat="49.85832" lon="4.83397">
        <ele>370</ele>
        <time>2021-08-14T08:07:22.000Z</time>
      </trkpt>
      <trkpt lat="49.85833" lon="4.83404">
        <ele>370</ele>
        <time>2021-08-14T08:07:23.000Z</time>
      </trkpt>
      <trkpt lat="49.85834" lon="4.83412">
        <ele>369</ele>
        <time>2021-08-14T08:07:24.000Z</time>
      </trkpt>
      <trkpt lat="49.85837" lon="4.8342">
        <ele>369</ele>
        <time>2021-08-14T08:07:25.000Z</time>
      </trkpt>
      <trkpt lat="49.85839" lon="4.83428">
        <ele>368</ele>
        <time>2021-08-14T08:07:26.000Z</time>
      </trkpt>
      <trkpt lat="49.85842" lon="4.83437">
        <ele>368</ele>
        <time>2021-08-14T08:07:27.000Z</time>
      </trkpt>
      <trkpt lat="49.85845" lon="4.83445">
        <ele>367</ele>
        <time>2021-08-14T08:07:28.000Z</time>
      </trkpt>
      <trkpt lat="49.85847" lon="4.83452">
        <ele>366</ele>
        <time>2021-08-14T08:07:29.000Z</time>
      </trkpt>
      <trkpt lat="49.85849" lon="4.83457">
        <ele>366</ele>
        <time>2021-08-14T08:07:30.000Z</time>
      </trkpt>
      <trkpt lat="49.85852" lon="4.8346">
        <ele>366</ele>
        <time>2021-08-14T08:07:31.000Z</time>
      </trkpt>
      <trkpt lat="49.85855" lon="4.83463">
        <ele>365</ele>
        <time>2021-08-14T08:07:32.000Z</time>
      </trkpt>
      <trkpt lat="49.85858" lon="4.83466">
        <ele>365</ele>
        <time>2021-08-14T08:07:33.000Z</time>
      </trkpt>
      <trkpt lat="49.85862" lon="4.83469">
        <ele>365</ele>
        <time>2021-08-14T08:07:34.000Z</time>
      </trkpt>
      <trkpt lat="49.85865" lon="4.83472">
        <ele>365</ele>
        <time>2021-08-14T08:07:35.000Z</time>
      </trkpt>
      <trkpt lat="49.85868" lon="4.83474">
        <ele>364</ele>
        <time>2021-08-14T08:07:36.000Z</time>
      </trkpt>
      <trkpt lat="49.85871" lon="4.83477">
        <ele>364</ele>
        <time>2021-08-14T08:07:37.000Z</time>
      </trkpt>
      <trkpt lat="49.85873" lon="4.83479">
        <ele>364</ele>
        <time>2021-08-14T08:07:38.000Z</time>
      </trkpt>
      <trkpt lat="49.85876" lon="4.83481">
        <ele>364</ele>
        <time>2021-08-14T08:07:39.000Z</time>
      </trkpt>
      <trkpt lat="49.85879" lon="4.83482">
        <ele>363</ele>
        <time>2021-08-14T08:07:40.000Z</time>
      </trkpt>
      <trkpt lat="49.85883" lon="4.83485">
        <ele>363</ele>
        <time>2021-08-14T08:07:41.000Z</time>
      </trkpt>
      <trkpt lat="49.85886" lon="4.83487">
        <ele>363</ele>
        <time>2021-08-14T08:07:42.000Z</time>
      </trkpt>
      <trkpt lat="49.85889" lon="4.83489">
        <ele>362</ele>
        <time>2021-08-14T08:07:43.000Z</time>
      </trkpt>
      <trkpt lat="49.85893" lon="4.8349">
        <ele>362</ele>
        <time>2021-08-14T08:07:44.000Z</time>
      </trkpt>
      <trkpt lat="49.85897" lon="4.83491">
        <ele>362</ele>
        <time>2021-08-14T08:07:45.000Z</time>
      </trkpt>
      <trkpt lat="49.85901" lon="4.83493">
        <ele>362</ele>
        <time>2021-08-14T08:07:46.000Z</time>
      </trkpt>
      <trkpt lat="49.85906" lon="4.83494">
        <ele>361</ele>
        <time>2021-08-14T08:07:47.000Z</time>
      </trkpt>
      <trkpt lat="49.8591" lon="4.83495">
        <ele>361</ele>
        <time>2021-08-14T08:07:48.000Z</time>
      </trkpt>
      <trkpt lat="49.85914" lon="4.83496">
        <ele>361</ele>
        <time>2021-08-14T08:07:49.000Z</time>
      </trkpt>
      <trkpt lat="49.85918" lon="4.83496">
        <ele>361</ele>
        <time>2021-08-14T08:07:50.000Z</time>
      </trkpt>
      <trkpt lat="49.85921" lon="4.83495">
        <ele>361</ele>
        <time>2021-08-14T08:07:51.000Z</time>
      </trkpt>
      <trkpt lat="49.85924" lon="4.83495">
        <ele>361</ele>
        <time>2021-08-14T08:07:52.000Z</time>
      </trkpt>
      <trkpt lat="49.85927" lon="4.83495">
        <ele>361</ele>
        <time>2021-08-14T08:07:53.000Z</time>
      </trkpt>
      <trkpt lat="49.8593" lon="4.83494">
        <ele>361</ele>
        <time>2021-08-14T08:07:54.000Z</time>
      </trkpt>
      <trkpt lat="49.85932" lon="4.83493">
        <ele>362</ele>
        <time>2021-08-14T08:07:55.000Z</time>
      </trkpt>
      <trkpt lat="49.85934" lon="4.83492">
        <ele>362</ele>
        <time>2021-08-14T08:07:56.000Z</time>
      </trkpt>
      <trkpt lat="49.85936" lon="4.83492">
        <ele>362</ele>
        <time>2021-08-14T08:07:57.000Z</time>
      </trkpt>
      <trkpt lat="49.85937" lon="4.83491">
        <ele>362</ele>
        <time>2021-08-14T08:07:58.000Z</time>
      </trkpt>
      <trkpt lat="49.85939" lon="4.83491">
        <ele>362</ele>
        <time>2021-08-14T08:07:59.000Z</time>
      </trkpt>
      <trkpt lat="49.8594" lon="4.83492">
        <ele>362</ele>
        <time>2021-08-14T08:08:00.000Z</time>
      </trkpt>
      <trkpt lat="49.85941" lon="4.83492">
        <ele>362</ele>
        <time>2021-08-14T08:08:01.000Z</time>
      </trkpt>
      <trkpt lat="49.85942" lon="4.83493">
        <ele>362</ele>
        <time>2021-08-14T08:08:02.000Z</time>
      </trkpt>
      <trkpt lat="49.85944" lon="4.83493">
        <ele>363</ele>
        <time>2021-08-14T08:08:03.000Z</time>
      </trkpt>
      <trkpt lat="49.85945" lon="4.83493">
        <ele>363</ele>
        <time>2021-08-14T08:08:04.000Z</time>
      </trkpt>
      <trkpt lat="49.85946" lon="4.83493">
        <ele>363</ele>
        <time>2021-08-14T08:08:05.000Z</time>
      </trkpt>
      <trkpt lat="49.85948" lon="4.83493">
        <ele>363</ele>
        <time>2021-08-14T08:08:06.000Z</time>
      </trkpt>
      <trkpt lat="49.8595" lon="4.83494">
        <ele>363</ele>
        <time>2021-08-14T08:08:07.000Z</time>
      </trkpt>
      <trkpt lat="49.85952" lon="4.83495">
        <ele>363</ele>
        <time>2021-08-14T08:08:08.000Z</time>
      </trkpt>
      <trkpt lat="49.85954" lon="4.83496">
        <ele>363</ele>
        <time>2021-08-14T08:08:09.000Z</time>
      </trkpt>
      <trkpt lat="49.85956" lon="4.83496">
        <ele>363</ele>
        <time>2021-08-14T08:08:10.000Z</time>
      </trkpt>
      <trkpt lat="49.85959" lon="4.83496">
        <ele>363</ele>
        <time>2021-08-14T08:08:11.000Z</time>
      </trkpt>
      <trkpt lat="49.85961" lon="4.83496">
        <ele>363</ele>
        <time>2021-08-14T08:08:12.000Z</time>
      </trkpt>
      <trkpt lat="49.85964" lon="4.83497">
        <ele>363</ele>
        <time>2021-08-14T08:08:13.000Z</time>
      </trkpt>
      <trkpt lat="49.85966" lon="4.83497">
        <ele>363</ele>
        <time>2021-08-14T08:08:14.000Z</time>
      </trkpt>
      <trkpt lat="49.85969" lon="4.83498">
        <ele>363</ele>
        <time>2021-08-14T08:08:15.000Z</time>
      </trkpt>
      <trkpt lat="49.85971" lon="4.83498">
        <ele>363</ele>
        <time>2021-08-14T08:08:16.000Z</time>
      </trkpt>
      <trkpt lat="49.85974" lon="4.83498">
        <ele>363</ele>
        <time>2021-08-14T08:08:17.000Z</time>
      </trkpt>
      <trkpt lat="49.85976" lon="4.83499">
        <ele>363</ele>
        <time>2021-08-14T08:08:18.000Z</time>
      </trkpt>
      <trkpt lat="49.85979" lon="4.83499">
        <ele>363</ele>
        <time>2021-08-14T08:08:19.000Z</time>
      </trkpt>
      <trkpt lat="49.85981" lon="4.83499">
        <ele>363</ele>
        <time>2021-08-14T08:08:20.000Z</time>
      </trkpt>
      <trkpt lat="49.85984" lon="4.83498">
        <ele>363</ele>
        <time>2021-08-14T08:08:21.000Z</time>
      </trkpt>
      <trkpt lat="49.85986" lon="4.83497">
        <ele>363</ele>
        <time>2021-08-14T08:08:22.000Z</time>
      </trkpt>
      <trkpt lat="49.85989" lon="4.83497">
        <ele>363</ele>
        <time>2021-08-14T08:08:23.000Z</time>
      </trkpt>
      <trkpt lat="49.85991" lon="4.83496">
        <ele>363</ele>
        <time>2021-08-14T08:08:24.000Z</time>
      </trkpt>
      <trkpt lat="49.85993" lon="4.83496">
        <ele>363</ele>
        <time>2021-08-14T08:08:25.000Z</time>
      </trkpt>
      <trkpt lat="49.85996" lon="4.83496">
        <ele>363</ele>
        <time>2021-08-14T08:08:26.000Z</time>
      </trkpt>
      <trkpt lat="49.85998" lon="4.83496">
        <ele>363</ele>
        <time>2021-08-14T08:08:27.000Z</time>
      </trkpt>
      <trkpt lat="49.86" lon="4.83496">
        <ele>364</ele>
        <time>2021-08-14T08:08:28.000Z</time>
      </trkpt>
      <trkpt lat="49.86003" lon="4.83495">
        <ele>364</ele>
        <time>2021-08-14T08:08:29.000Z</time>
      </trkpt>
      <trkpt lat="49.86005" lon="4.83495">
        <ele>364</ele>
        <time>2021-08-14T08:08:30.000Z</time>
      </trkpt>
      <trkpt lat="49.86007" lon="4.83495">
        <ele>364</ele>
        <time>2021-08-14T08:08:31.000Z</time>
      </trkpt>
      <trkpt lat="49.86009" lon="4.83496">
        <ele>364</ele>
        <time>2021-08-14T08:08:32.000Z</time>
      </trkpt>
      <trkpt lat="49.86012" lon="4.83496">
        <ele>364</ele>
        <time>2021-08-14T08:08:33.000Z</time>
      </trkpt>
      <trkpt lat="49.86014" lon="4.83496">
        <ele>365</ele>
        <time>2021-08-14T08:08:34.000Z</time>
      </trkpt>
      <trkpt lat="49.86016" lon="4.83496">
        <ele>365</ele>
        <time>2021-08-14T08:08:35.000Z</time>
      </trkpt>
      <trkpt lat="49.86019" lon="4.83496">
        <ele>365</ele>
        <time>2021-08-14T08:08:36.000Z</time>
      </trkpt>
      <trkpt lat="49.86021" lon="4.83496">
        <ele>365</ele>
        <time>2021-08-14T08:08:37.000Z</time>
      </trkpt>
      <trkpt lat="49.86023" lon="4.83496">
        <ele>365</ele>
        <time>2021-08-14T08:08:38.000Z</time>
      </trkpt>
      <trkpt lat="49.86026" lon="4.83496">
        <ele>366</ele>
        <time>2021-08-14T08:08:39.000Z</time>
      </trkpt>
      <trkpt lat="49.86028" lon="4.83495">
        <ele>366</ele>
        <time>2021-08-14T08:08:40.000Z</time>
      </trkpt>
      <trkpt lat="49.8603" lon="4.83496">
        <ele>366</ele>
        <time>2021-08-14T08:08:41.000Z</time>
      </trkpt>
      <trkpt lat="49.86033" lon="4.83496">
        <ele>366</ele>
        <time>2021-08-14T08:08:42.000Z</time>
      </trkpt>
      <trkpt lat="49.86035" lon="4.83496">
        <ele>367</ele>
        <time>2021-08-14T08:08:43.000Z</time>
      </trkpt>
      <trkpt lat="49.86037" lon="4.83496">
        <ele>367</ele>
        <time>2021-08-14T08:08:44.000Z</time>
      </trkpt>
      <trkpt lat="49.8604" lon="4.83497">
        <ele>367</ele>
        <time>2021-08-14T08:08:45.000Z</time>
      </trkpt>
      <trkpt lat="49.86042" lon="4.83497">
        <ele>367</ele>
        <time>2021-08-14T08:08:46.000Z</time>
      </trkpt>
      <trkpt lat="49.86045" lon="4.83498">
        <ele>367</ele>
        <time>2021-08-14T08:08:47.000Z</time>
      </trkpt>
      <trkpt lat="49.86047" lon="4.835">
        <ele>367</ele>
        <time>2021-08-14T08:08:48.000Z</time>
      </trkpt>
      <trkpt lat="49.8605" lon="4.83501">
        <ele>368</ele>
        <time>2021-08-14T08:08:49.000Z</time>
      </trkpt>
      <trkpt lat="49.86052" lon="4.83502">
        <ele>368</ele>
        <time>2021-08-14T08:08:50.000Z</time>
      </trkpt>
      <trkpt lat="49.86055" lon="4.83503">
        <ele>368</ele>
        <time>2021-08-14T08:08:51.000Z</time>
      </trkpt>
      <trkpt lat="49.86057" lon="4.83504">
        <ele>368</ele>
        <time>2021-08-14T08:08:52.000Z</time>
      </trkpt>
      <trkpt lat="49.8606" lon="4.83505">
        <ele>368</ele>
        <time>2021-08-14T08:08:53.000Z</time>
      </trkpt>
      <trkpt lat="49.86063" lon="4.83506">
        <ele>368</ele>
        <time>2021-08-14T08:08:54.000Z</time>
      </trkpt>
      <trkpt lat="49.86066" lon="4.83507">
        <ele>368</ele>
        <time>2021-08-14T08:08:55.000Z</time>
      </trkpt>
      <trkpt lat="49.86068" lon="4.83507">
        <ele>368</ele>
        <time>2021-08-14T08:08:56.000Z</time>
      </trkpt>
      <trkpt lat="49.86071" lon="4.83508">
        <ele>368</ele>
        <time>2021-08-14T08:08:57.000Z</time>
      </trkpt>
      <trkpt lat="49.86073" lon="4.83508">
        <ele>368</ele>
        <time>2021-08-14T08:08:58.000Z</time>
      </trkpt>
      <trkpt lat="49.86076" lon="4.83508">
        <ele>368</ele>
        <time>2021-08-14T08:08:59.000Z</time>
      </trkpt>
      <trkpt lat="49.8608" lon="4.83509">
        <ele>368</ele>
        <time>2021-08-14T08:09:00.000Z</time>
      </trkpt>
      <trkpt lat="49.86083" lon="4.83509">
        <ele>369</ele>
        <time>2021-08-14T08:09:01.000Z</time>
      </trkpt>
      <trkpt lat="49.86087" lon="4.8351">
        <ele>369</ele>
        <time>2021-08-14T08:09:02.000Z</time>
      </trkpt>
      <trkpt lat="49.8609" lon="4.83511">
        <ele>369</ele>
        <time>2021-08-14T08:09:03.000Z</time>
      </trkpt>
      <trkpt lat="49.86093" lon="4.83511">
        <ele>369</ele>
        <time>2021-08-14T08:09:04.000Z</time>
      </trkpt>
      <trkpt lat="49.86096" lon="4.83512">
        <ele>369</ele>
        <time>2021-08-14T08:09:05.000Z</time>
      </trkpt>
      <trkpt lat="49.861" lon="4.83512">
        <ele>369</ele>
        <time>2021-08-14T08:09:06.000Z</time>
      </trkpt>
      <trkpt lat="49.86103" lon="4.83513">
        <ele>369</ele>
        <time>2021-08-14T08:09:07.000Z</time>
      </trkpt>
      <trkpt lat="49.86106" lon="4.83515">
        <ele>369</ele>
        <time>2021-08-14T08:09:08.000Z</time>
      </trkpt>
      <trkpt lat="49.86109" lon="4.83515">
        <ele>369</ele>
        <time>2021-08-14T08:09:09.000Z</time>
      </trkpt>
      <trkpt lat="49.86111" lon="4.83516">
        <ele>369</ele>
        <time>2021-08-14T08:09:10.000Z</time>
      </trkpt>
      <trkpt lat="49.86113" lon="4.83517">
        <ele>369</ele>
        <time>2021-08-14T08:09:11.000Z</time>
      </trkpt>
      <trkpt lat="49.86116" lon="4.83518">
        <ele>369</ele>
        <time>2021-08-14T08:09:12.000Z</time>
      </trkpt>
      <trkpt lat="49.86119" lon="4.8352">
        <ele>369</ele>
        <time>2021-08-14T08:09:13.000Z</time>
      </trkpt>
      <trkpt lat="49.86123" lon="4.83521">
        <ele>370</ele>
        <time>2021-08-14T08:09:14.000Z</time>
      </trkpt>
      <trkpt lat="49.86126" lon="4.83522">
        <ele>370</ele>
        <time>2021-08-14T08:09:15.000Z</time>
      </trkpt>
      <trkpt lat="49.8613" lon="4.83524">
        <ele>370</ele>
        <time>2021-08-14T08:09:16.000Z</time>
      </trkpt>
      <trkpt lat="49.86134" lon="4.83525">
        <ele>370</ele>
        <time>2021-08-14T08:09:17.000Z</time>
      </trkpt>
      <trkpt lat="49.86138" lon="4.83527">
        <ele>370</ele>
        <time>2021-08-14T08:09:18.000Z</time>
      </trkpt>
      <trkpt lat="49.86143" lon="4.83528">
        <ele>370</ele>
        <time>2021-08-14T08:09:19.000Z</time>
      </trkpt>
      <trkpt lat="49.86148" lon="4.8353">
        <ele>370</ele>
        <time>2021-08-14T08:09:20.000Z</time>
      </trkpt>
      <trkpt lat="49.86153" lon="4.83531">
        <ele>370</ele>
        <time>2021-08-14T08:09:21.000Z</time>
      </trkpt>
      <trkpt lat="49.86158" lon="4.83532">
        <ele>370</ele>
        <time>2021-08-14T08:09:22.000Z</time>
      </trkpt>
      <trkpt lat="49.86164" lon="4.83534">
        <ele>370</ele>
        <time>2021-08-14T08:09:23.000Z</time>
      </trkpt>
      <trkpt lat="49.86169" lon="4.83535">
        <ele>370</ele>
        <time>2021-08-14T08:09:24.000Z</time>
      </trkpt>
      <trkpt lat="49.86174" lon="4.83535">
        <ele>370</ele>
        <time>2021-08-14T08:09:25.000Z</time>
      </trkpt>
      <trkpt lat="49.8618" lon="4.83536">
        <ele>370</ele>
        <time>2021-08-14T08:09:26.000Z</time>
      </trkpt>
      <trkpt lat="49.86185" lon="4.83536">
        <ele>370</ele>
        <time>2021-08-14T08:09:27.000Z</time>
      </trkpt>
      <trkpt lat="49.8619" lon="4.83536">
        <ele>370</ele>
        <time>2021-08-14T08:09:28.000Z</time>
      </trkpt>
      <trkpt lat="49.86194" lon="4.83537">
        <ele>370</ele>
        <time>2021-08-14T08:09:29.000Z</time>
      </trkpt>
      <trkpt lat="49.86199" lon="4.83537">
        <ele>370</ele>
        <time>2021-08-14T08:09:30.000Z</time>
      </trkpt>
      <trkpt lat="49.86203" lon="4.83538">
        <ele>370</ele>
        <time>2021-08-14T08:09:31.000Z</time>
      </trkpt>
      <trkpt lat="49.86208" lon="4.83538">
        <ele>370</ele>
        <time>2021-08-14T08:09:32.000Z</time>
      </trkpt>
      <trkpt lat="49.86213" lon="4.83538">
        <ele>370</ele>
        <time>2021-08-14T08:09:33.000Z</time>
      </trkpt>
      <trkpt lat="49.86217" lon="4.83537">
        <ele>370</ele>
        <time>2021-08-14T08:09:34.000Z</time>
      </trkpt>
      <trkpt lat="49.86222" lon="4.83536">
        <ele>370</ele>
        <time>2021-08-14T08:09:35.000Z</time>
      </trkpt>
      <trkpt lat="49.86227" lon="4.83536">
        <ele>370</ele>
        <time>2021-08-14T08:09:36.000Z</time>
      </trkpt>
      <trkpt lat="49.86232" lon="4.83536">
        <ele>369</ele>
        <time>2021-08-14T08:09:37.000Z</time>
      </trkpt>
      <trkpt lat="49.86236" lon="4.83535">
        <ele>369</ele>
        <time>2021-08-14T08:09:38.000Z</time>
      </trkpt>
      <trkpt lat="49.86239" lon="4.83534">
        <ele>369</ele>
        <time>2021-08-14T08:09:39.000Z</time>
      </trkpt>
      <trkpt lat="49.86241" lon="4.83533">
        <ele>369</ele>
        <time>2021-08-14T08:09:40.000Z</time>
      </trkpt>
      <trkpt lat="49.86241" lon="4.83533">
        <ele>369</ele>
        <time>2021-08-14T08:09:41.000Z</time>
      </trkpt>
      <trkpt lat="49.86241" lon="4.83532">
        <ele>369</ele>
        <time>2021-08-14T08:09:42.000Z</time>
      </trkpt>
      <trkpt lat="49.86242" lon="4.83532">
        <ele>369</ele>
        <time>2021-08-14T08:09:43.000Z</time>
      </trkpt>
      <trkpt lat="49.86242" lon="4.83532">
        <ele>369</ele>
        <time>2021-08-14T08:09:44.000Z</time>
      </trkpt>
      <trkpt lat="49.86242" lon="4.83531">
        <ele>369</ele>
        <time>2021-08-14T08:09:45.000Z</time>
      </trkpt>
      <trkpt lat="49.86243" lon="4.83531">
        <ele>369</ele>
        <time>2021-08-14T08:09:46.000Z</time>
      </trkpt>
      <trkpt lat="49.86243" lon="4.83531">
        <ele>369</ele>
        <time>2021-08-14T08:09:47.000Z</time>
      </trkpt>
      <trkpt lat="49.86243" lon="4.83531">
        <ele>369</ele>
        <time>2021-08-14T08:09:48.000Z</time>
      </trkpt>
      <trkpt lat="49.86244" lon="4.83531">
        <ele>369</ele>
        <time>2021-08-14T08:09:49.000Z</time>
      </trkpt>
      <trkpt lat="49.86245" lon="4.83531">
        <ele>369</ele>
        <time>2021-08-14T08:09:50.000Z</time>
      </trkpt>
      <trkpt lat="49.86246" lon="4.83531">
        <ele>369</ele>
        <time>2021-08-14T08:09:51.000Z</time>
      </trkpt>
      <trkpt lat="49.86246" lon="4.83531">
        <ele>368</ele>
        <time>2021-08-14T08:09:52.000Z</time>
      </trkpt>
      <trkpt lat="49.86246" lon="4.8353">
        <ele>368</ele>
        <time>2021-08-14T08:09:53.000Z</time>
      </trkpt>
      <trkpt lat="49.86247" lon="4.8353">
        <ele>369</ele>
        <time>2021-08-14T08:09:54.000Z</time>
      </trkpt>
      <trkpt lat="49.86247" lon="4.8353">
        <ele>369</ele>
        <time>2021-08-14T08:09:55.000Z</time>
      </trkpt>
      <trkpt lat="49.86247" lon="4.83529">
        <ele>369</ele>
        <time>2021-08-14T08:09:56.000Z</time>
      </trkpt>
      <trkpt lat="49.86247" lon="4.83529">
        <ele>368</ele>
        <time>2021-08-14T08:09:57.000Z</time>
      </trkpt>
      <trkpt lat="49.86248" lon="4.83529">
        <ele>368</ele>
        <time>2021-08-14T08:09:58.000Z</time>
      </trkpt>
      <trkpt lat="49.86248" lon="4.83528">
        <ele>368</ele>
        <time>2021-08-14T08:09:59.000Z</time>
      </trkpt>
      <trkpt lat="49.86249" lon="4.83528">
        <ele>368</ele>
        <time>2021-08-14T08:10:00.000Z</time>
      </trkpt>
      <trkpt lat="49.86249" lon="4.83528">
        <ele>368</ele>
        <time>2021-08-14T08:10:01.000Z</time>
      </trkpt>
      <trkpt lat="49.86249" lon="4.83527">
        <ele>368</ele>
        <time>2021-08-14T08:10:02.000Z</time>
      </trkpt>
      <trkpt lat="49.86249" lon="4.83527">
        <ele>368</ele>
        <time>2021-08-14T08:10:03.000Z</time>
      </trkpt>
      <trkpt lat="49.86249" lon="4.83527">
        <ele>368</ele>
        <time>2021-08-14T08:10:04.000Z</time>
      </trkpt>
      <trkpt lat="49.86249" lon="4.83526">
        <ele>368</ele>
        <time>2021-08-14T08:10:05.000Z</time>
      </trkpt>
      <trkpt lat="49.86249" lon="4.83526">
        <ele>368</ele>
        <time>2021-08-14T08:10:06.000Z</time>
      </trkpt>
      <trkpt lat="49.86249" lon="4.83525">
        <ele>368</ele>
        <time>2021-08-14T08:10:07.000Z</time>
      </trkpt>
      <trkpt lat="49.86249" lon="4.83525">
        <ele>368</ele>
        <time>2021-08-14T08:10:08.000Z</time>
      </trkpt>
      <trkpt lat="49.86249" lon="4.83525">
        <ele>367</ele>
        <time>2021-08-14T08:10:09.000Z</time>
      </trkpt>
      <trkpt lat="49.86249" lon="4.83525">
        <ele>367</ele>
        <time>2021-08-14T08:10:10.000Z</time>
      </trkpt>
      <trkpt lat="49.86249" lon="4.83525">
        <ele>367</ele>
        <time>2021-08-14T08:10:11.000Z</time>
      </trkpt>
      <trkpt lat="49.86249" lon="4.83524">
        <ele>367</ele>
        <time>2021-08-14T08:10:12.000Z</time>
      </trkpt>
      <trkpt lat="49.86249" lon="4.83524">
        <ele>367</ele>
        <time>2021-08-14T08:10:13.000Z</time>
      </trkpt>
      <trkpt lat="49.86249" lon="4.83524">
        <ele>367</ele>
        <time>2021-08-14T08:10:14.000Z</time>
      </trkpt>
      <trkpt lat="49.86249" lon="4.83524">
        <ele>367</ele>
        <time>2021-08-14T08:10:15.000Z</time>
      </trkpt>
      <trkpt lat="49.86249" lon="4.83524">
        <ele>367</ele>
        <time>2021-08-14T08:10:16.000Z</time>
      </trkpt>
      <trkpt lat="49.8625" lon="4.83524">
        <ele>367</ele>
        <time>2021-08-14T08:10:17.000Z</time>
      </trkpt>
      <trkpt lat="49.86249" lon="4.83524">
        <ele>367</ele>
        <time>2021-08-14T08:10:18.000Z</time>
      </trkpt>
      <trkpt lat="49.8625" lon="4.83524">
        <ele>367</ele>
        <time>2021-08-14T08:10:19.000Z</time>
      </trkpt>
      <trkpt lat="49.8625" lon="4.83523">
        <ele>367</ele>
        <time>2021-08-14T08:10:20.000Z</time>
      </trkpt>
      <trkpt lat="49.86251" lon="4.83523">
        <ele>367</ele>
        <time>2021-08-14T08:10:21.000Z</time>
      </trkpt>
      <trkpt lat="49.86252" lon="4.83524">
        <ele>367</ele>
        <time>2021-08-14T08:10:22.000Z</time>
      </trkpt>
      <trkpt lat="49.86255" lon="4.83524">
        <ele>367</ele>
        <time>2021-08-14T08:10:23.000Z</time>
      </trkpt>
      <trkpt lat="49.86257" lon="4.83524">
        <ele>367</ele>
        <time>2021-08-14T08:10:24.000Z</time>
      </trkpt>
      <trkpt lat="49.86261" lon="4.83523">
        <ele>367</ele>
        <time>2021-08-14T08:10:25.000Z</time>
      </trkpt>
      <trkpt lat="49.86264" lon="4.83523">
        <ele>366</ele>
        <time>2021-08-14T08:10:26.000Z</time>
      </trkpt>
      <trkpt lat="49.86268" lon="4.83523">
        <ele>366</ele>
        <time>2021-08-14T08:10:27.000Z</time>
      </trkpt>
      <trkpt lat="49.86271" lon="4.83523">
        <ele>366</ele>
        <time>2021-08-14T08:10:28.000Z</time>
      </trkpt>
      <trkpt lat="49.86274" lon="4.83524">
        <ele>366</ele>
        <time>2021-08-14T08:10:29.000Z</time>
      </trkpt>
      <trkpt lat="49.86275" lon="4.83525">
        <ele>366</ele>
        <time>2021-08-14T08:10:30.000Z</time>
      </trkpt>
      <trkpt lat="49.86277" lon="4.83525">
        <ele>366</ele>
        <time>2021-08-14T08:10:31.000Z</time>
      </trkpt>
      <trkpt lat="49.86279" lon="4.83524">
        <ele>366</ele>
        <time>2021-08-14T08:10:32.000Z</time>
      </trkpt>
      <trkpt lat="49.86281" lon="4.83524">
        <ele>367</ele>
        <time>2021-08-14T08:10:33.000Z</time>
      </trkpt>
      <trkpt lat="49.86284" lon="4.83523">
        <ele>366</ele>
        <time>2021-08-14T08:10:34.000Z</time>
      </trkpt>
      <trkpt lat="49.86286" lon="4.83522">
        <ele>366</ele>
        <time>2021-08-14T08:10:35.000Z</time>
      </trkpt>
      <trkpt lat="49.86289" lon="4.83522">
        <ele>366</ele>
        <time>2021-08-14T08:10:36.000Z</time>
      </trkpt>
      <trkpt lat="49.86292" lon="4.83521">
        <ele>366</ele>
        <time>2021-08-14T08:10:37.000Z</time>
      </trkpt>
      <trkpt lat="49.86295" lon="4.83521">
        <ele>366</ele>
        <time>2021-08-14T08:10:38.000Z</time>
      </trkpt>
      <trkpt lat="49.86298" lon="4.83521">
        <ele>366</ele>
        <time>2021-08-14T08:10:39.000Z</time>
      </trkpt>
      <trkpt lat="49.863" lon="4.83521">
        <ele>366</ele>
        <time>2021-08-14T08:10:40.000Z</time>
      </trkpt>
      <trkpt lat="49.86303" lon="4.83522">
        <ele>366</ele>
        <time>2021-08-14T08:10:41.000Z</time>
      </trkpt>
      <trkpt lat="49.86305" lon="4.83523">
        <ele>366</ele>
        <time>2021-08-14T08:10:42.000Z</time>
      </trkpt>
      <trkpt lat="49.86308" lon="4.83523">
        <ele>366</ele>
        <time>2021-08-14T08:10:43.000Z</time>
      </trkpt>
      <trkpt lat="49.8631" lon="4.83522">
        <ele>366</ele>
        <time>2021-08-14T08:10:44.000Z</time>
      </trkpt>
      <trkpt lat="49.86312" lon="4.83521">
        <ele>366</ele>
        <time>2021-08-14T08:10:45.000Z</time>
      </trkpt>
      <trkpt lat="49.86315" lon="4.8352">
        <ele>366</ele>
        <time>2021-08-14T08:10:46.000Z</time>
      </trkpt>
      <trkpt lat="49.86317" lon="4.83519">
        <ele>366</ele>
        <time>2021-08-14T08:10:47.000Z</time>
      </trkpt>
      <trkpt lat="49.86319" lon="4.83519">
        <ele>366</ele>
        <time>2021-08-14T08:10:48.000Z</time>
      </trkpt>
      <trkpt lat="49.8632" lon="4.83519">
        <ele>366</ele>
        <time>2021-08-14T08:10:49.000Z</time>
      </trkpt>
      <trkpt lat="49.86321" lon="4.83518">
        <ele>366</ele>
        <time>2021-08-14T08:10:50.000Z</time>
      </trkpt>
      <trkpt lat="49.86323" lon="4.83517">
        <ele>366</ele>
        <time>2021-08-14T08:10:51.000Z</time>
      </trkpt>
      <trkpt lat="49.86323" lon="4.83517">
        <ele>366</ele>
        <time>2021-08-14T08:10:52.000Z</time>
      </trkpt>
      <trkpt lat="49.86324" lon="4.83516">
        <ele>366</ele>
        <time>2021-08-14T08:10:53.000Z</time>
      </trkpt>
      <trkpt lat="49.86325" lon="4.83516">
        <ele>366</ele>
        <time>2021-08-14T08:10:54.000Z</time>
      </trkpt>
      <trkpt lat="49.86327" lon="4.83515">
        <ele>366</ele>
        <time>2021-08-14T08:10:55.000Z</time>
      </trkpt>
      <trkpt lat="49.86328" lon="4.83514">
        <ele>366</ele>
        <time>2021-08-14T08:10:56.000Z</time>
      </trkpt>
      <trkpt lat="49.8633" lon="4.83514">
        <ele>366</ele>
        <time>2021-08-14T08:10:57.000Z</time>
      </trkpt>
      <trkpt lat="49.86332" lon="4.83514">
        <ele>366</ele>
        <time>2021-08-14T08:10:58.000Z</time>
      </trkpt>
      <trkpt lat="49.86334" lon="4.83516">
        <ele>366</ele>
        <time>2021-08-14T08:10:59.000Z</time>
      </trkpt>
      <trkpt lat="49.86336" lon="4.83518">
        <ele>366</ele>
        <time>2021-08-14T08:11:00.000Z</time>
      </trkpt>
      <trkpt lat="49.86337" lon="4.83521">
        <ele>366</ele>
        <time>2021-08-14T08:11:01.000Z</time>
      </trkpt>
      <trkpt lat="49.86339" lon="4.83525">
        <ele>366</ele>
        <time>2021-08-14T08:11:02.000Z</time>
      </trkpt>
      <trkpt lat="49.8634" lon="4.83528">
        <ele>366</ele>
        <time>2021-08-14T08:11:03.000Z</time>
      </trkpt>
      <trkpt lat="49.86341" lon="4.83532">
        <ele>366</ele>
        <time>2021-08-14T08:11:04.000Z</time>
      </trkpt>
      <trkpt lat="49.86342" lon="4.83534">
        <ele>366</ele>
        <time>2021-08-14T08:11:05.000Z</time>
      </trkpt>
      <trkpt lat="49.86343" lon="4.83537">
        <ele>366</ele>
        <time>2021-08-14T08:11:06.000Z</time>
      </trkpt>
      <trkpt lat="49.86344" lon="4.83542">
        <ele>366</ele>
        <time>2021-08-14T08:11:07.000Z</time>
      </trkpt>
      <trkpt lat="49.86344" lon="4.83545">
        <ele>366</ele>
        <time>2021-08-14T08:11:08.000Z</time>
      </trkpt>
      <trkpt lat="49.86345" lon="4.83549">
        <ele>366</ele>
        <time>2021-08-14T08:11:09.000Z</time>
      </trkpt>
      <trkpt lat="49.86347" lon="4.83552">
        <ele>366</ele>
        <time>2021-08-14T08:11:10.000Z</time>
      </trkpt>
      <trkpt lat="49.86348" lon="4.83556">
        <ele>366</ele>
        <time>2021-08-14T08:11:11.000Z</time>
      </trkpt>
      <trkpt lat="49.86351" lon="4.8356">
        <ele>366</ele>
        <time>2021-08-14T08:11:12.000Z</time>
      </trkpt>
      <trkpt lat="49.86354" lon="4.83565">
        <ele>366</ele>
        <time>2021-08-14T08:11:13.000Z</time>
      </trkpt>
      <trkpt lat="49.86358" lon="4.83571">
        <ele>366</ele>
        <time>2021-08-14T08:11:14.000Z</time>
      </trkpt>
      <trkpt lat="49.8636" lon="4.83577">
        <ele>366</ele>
        <time>2021-08-14T08:11:15.000Z</time>
      </trkpt>
      <trkpt lat="49.86363" lon="4.83583">
        <ele>366</ele>
        <time>2021-08-14T08:11:16.000Z</time>
      </trkpt>
      <trkpt lat="49.86366" lon="4.83588">
        <ele>366</ele>
        <time>2021-08-14T08:11:17.000Z</time>
      </trkpt>
      <trkpt lat="49.86368" lon="4.83594">
        <ele>365</ele>
        <time>2021-08-14T08:11:18.000Z</time>
      </trkpt>
      <trkpt lat="49.86371" lon="4.83599">
        <ele>365</ele>
        <time>2021-08-14T08:11:19.000Z</time>
      </trkpt>
      <trkpt lat="49.86373" lon="4.83604">
        <ele>365</ele>
        <time>2021-08-14T08:11:20.000Z</time>
      </trkpt>
      <trkpt lat="49.86377" lon="4.83608">
        <ele>365</ele>
        <time>2021-08-14T08:11:21.000Z</time>
      </trkpt>
      <trkpt lat="49.86381" lon="4.83611">
        <ele>365</ele>
        <time>2021-08-14T08:11:22.000Z</time>
      </trkpt>
      <trkpt lat="49.86385" lon="4.83614">
        <ele>365</ele>
        <time>2021-08-14T08:11:23.000Z</time>
      </trkpt>
      <trkpt lat="49.8639" lon="4.83614">
        <ele>365</ele>
        <time>2021-08-14T08:11:24.000Z</time>
      </trkpt>
      <trkpt lat="49.86395" lon="4.83615">
        <ele>365</ele>
        <time>2021-08-14T08:11:25.000Z</time>
      </trkpt>
      <trkpt lat="49.864" lon="4.83616">
        <ele>365</ele>
        <time>2021-08-14T08:11:26.000Z</time>
      </trkpt>
      <trkpt lat="49.86406" lon="4.83616">
        <ele>365</ele>
        <time>2021-08-14T08:11:27.000Z</time>
      </trkpt>
      <trkpt lat="49.86412" lon="4.83615">
        <ele>365</ele>
        <time>2021-08-14T08:11:28.000Z</time>
      </trkpt>
      <trkpt lat="49.86418" lon="4.83614">
        <ele>365</ele>
        <time>2021-08-14T08:11:29.000Z</time>
      </trkpt>
      <trkpt lat="49.86424" lon="4.83614">
        <ele>365</ele>
        <time>2021-08-14T08:11:30.000Z</time>
      </trkpt>
      <trkpt lat="49.86431" lon="4.83613">
        <ele>365</ele>
        <time>2021-08-14T08:11:31.000Z</time>
      </trkpt>
      <trkpt lat="49.86438" lon="4.83613">
        <ele>365</ele>
        <time>2021-08-14T08:11:32.000Z</time>
      </trkpt>
      <trkpt lat="49.86445" lon="4.83612">
        <ele>365</ele>
        <time>2021-08-14T08:11:33.000Z</time>
      </trkpt>
      <trkpt lat="49.86451" lon="4.83611">
        <ele>364</ele>
        <time>2021-08-14T08:11:34.000Z</time>
      </trkpt>
      <trkpt lat="49.86458" lon="4.83611">
        <ele>364</ele>
        <time>2021-08-14T08:11:35.000Z</time>
      </trkpt>
      <trkpt lat="49.86465" lon="4.83611">
        <ele>364</ele>
        <time>2021-08-14T08:11:36.000Z</time>
      </trkpt>
      <trkpt lat="49.86472" lon="4.83611">
        <ele>364</ele>
        <time>2021-08-14T08:11:37.000Z</time>
      </trkpt>
      <trkpt lat="49.86479" lon="4.8361">
        <ele>364</ele>
        <time>2021-08-14T08:11:38.000Z</time>
      </trkpt>
      <trkpt lat="49.86486" lon="4.8361">
        <ele>364</ele>
        <time>2021-08-14T08:11:39.000Z</time>
      </trkpt>
      <trkpt lat="49.86493" lon="4.8361">
        <ele>363</ele>
        <time>2021-08-14T08:11:40.000Z</time>
      </trkpt>
      <trkpt lat="49.865" lon="4.83609">
        <ele>363</ele>
        <time>2021-08-14T08:11:41.000Z</time>
      </trkpt>
      <trkpt lat="49.86507" lon="4.83607">
        <ele>363</ele>
        <time>2021-08-14T08:11:42.000Z</time>
      </trkpt>
      <trkpt lat="49.86514" lon="4.83606">
        <ele>363</ele>
        <time>2021-08-14T08:11:43.000Z</time>
      </trkpt>
      <trkpt lat="49.86522" lon="4.83604">
        <ele>363</ele>
        <time>2021-08-14T08:11:44.000Z</time>
      </trkpt>
      <trkpt lat="49.86529" lon="4.83604">
        <ele>362</ele>
        <time>2021-08-14T08:11:45.000Z</time>
      </trkpt>
      <trkpt lat="49.86537" lon="4.83603">
        <ele>362</ele>
        <time>2021-08-14T08:11:46.000Z</time>
      </trkpt>
      <trkpt lat="49.86545" lon="4.83602">
        <ele>361</ele>
        <time>2021-08-14T08:11:47.000Z</time>
      </trkpt>
      <trkpt lat="49.86553" lon="4.836">
        <ele>361</ele>
        <time>2021-08-14T08:11:48.000Z</time>
      </trkpt>
      <trkpt lat="49.86561" lon="4.836">
        <ele>360</ele>
        <time>2021-08-14T08:11:49.000Z</time>
      </trkpt>
      <trkpt lat="49.8657" lon="4.83599">
        <ele>359</ele>
        <time>2021-08-14T08:11:50.000Z</time>
      </trkpt>
      <trkpt lat="49.86579" lon="4.83597">
        <ele>359</ele>
        <time>2021-08-14T08:11:51.000Z</time>
      </trkpt>
      <trkpt lat="49.86588" lon="4.83596">
        <ele>358</ele>
        <time>2021-08-14T08:11:52.000Z</time>
      </trkpt>
      <trkpt lat="49.86597" lon="4.83595">
        <ele>357</ele>
        <time>2021-08-14T08:11:53.000Z</time>
      </trkpt>
      <trkpt lat="49.86607" lon="4.83594">
        <ele>356</ele>
        <time>2021-08-14T08:11:54.000Z</time>
      </trkpt>
      <trkpt lat="49.86616" lon="4.83593">
        <ele>355</ele>
        <time>2021-08-14T08:11:55.000Z</time>
      </trkpt>
      <trkpt lat="49.86626" lon="4.83591">
        <ele>354</ele>
        <time>2021-08-14T08:11:56.000Z</time>
      </trkpt>
      <trkpt lat="49.86636" lon="4.8359">
        <ele>353</ele>
        <time>2021-08-14T08:11:57.000Z</time>
      </trkpt>
      <trkpt lat="49.86647" lon="4.83589">
        <ele>352</ele>
        <time>2021-08-14T08:11:58.000Z</time>
      </trkpt>
      <trkpt lat="49.86657" lon="4.83589">
        <ele>351</ele>
        <time>2021-08-14T08:11:59.000Z</time>
      </trkpt>
      <trkpt lat="49.86667" lon="4.83587">
        <ele>350</ele>
        <time>2021-08-14T08:12:00.000Z</time>
      </trkpt>
      <trkpt lat="49.86677" lon="4.83586">
        <ele>349</ele>
        <time>2021-08-14T08:12:01.000Z</time>
      </trkpt>
      <trkpt lat="49.86688" lon="4.83585">
        <ele>348</ele>
        <time>2021-08-14T08:12:02.000Z</time>
      </trkpt>
      <trkpt lat="49.86698" lon="4.83584">
        <ele>347</ele>
        <time>2021-08-14T08:12:03.000Z</time>
      </trkpt>
      <trkpt lat="49.86709" lon="4.83583">
        <ele>346</ele>
        <time>2021-08-14T08:12:04.000Z</time>
      </trkpt>
      <trkpt lat="49.8672" lon="4.83581">
        <ele>346</ele>
        <time>2021-08-14T08:12:05.000Z</time>
      </trkpt>
      <trkpt lat="49.8673" lon="4.8358">
        <ele>345</ele>
        <time>2021-08-14T08:12:06.000Z</time>
      </trkpt>
      <trkpt lat="49.86739" lon="4.83578">
        <ele>344</ele>
        <time>2021-08-14T08:12:07.000Z</time>
      </trkpt>
      <trkpt lat="49.86749" lon="4.83577">
        <ele>344</ele>
        <time>2021-08-14T08:12:08.000Z</time>
      </trkpt>
      <trkpt lat="49.86757" lon="4.83575">
        <ele>343</ele>
        <time>2021-08-14T08:12:09.000Z</time>
      </trkpt>
      <trkpt lat="49.86766" lon="4.83574">
        <ele>343</ele>
        <time>2021-08-14T08:12:10.000Z</time>
      </trkpt>
      <trkpt lat="49.86774" lon="4.83573">
        <ele>343</ele>
        <time>2021-08-14T08:12:11.000Z</time>
      </trkpt>
      <trkpt lat="49.86781" lon="4.83572">
        <ele>343</ele>
        <time>2021-08-14T08:12:12.000Z</time>
      </trkpt>
      <trkpt lat="49.86788" lon="4.83571">
        <ele>342</ele>
        <time>2021-08-14T08:12:13.000Z</time>
      </trkpt>
      <trkpt lat="49.86795" lon="4.83571">
        <ele>342</ele>
        <time>2021-08-14T08:12:14.000Z</time>
      </trkpt>
      <trkpt lat="49.86802" lon="4.8357">
        <ele>342</ele>
        <time>2021-08-14T08:12:15.000Z</time>
      </trkpt>
      <trkpt lat="49.86808" lon="4.8357">
        <ele>342</ele>
        <time>2021-08-14T08:12:16.000Z</time>
      </trkpt>
      <trkpt lat="49.86813" lon="4.83569">
        <ele>342</ele>
        <time>2021-08-14T08:12:17.000Z</time>
      </trkpt>
      <trkpt lat="49.86818" lon="4.83569">
        <ele>342</ele>
        <time>2021-08-14T08:12:18.000Z</time>
      </trkpt>
      <trkpt lat="49.86823" lon="4.83569">
        <ele>342</ele>
        <time>2021-08-14T08:12:19.000Z</time>
      </trkpt>
      <trkpt lat="49.86827" lon="4.83569">
        <ele>342</ele>
        <time>2021-08-14T08:12:20.000Z</time>
      </trkpt>
      <trkpt lat="49.86829" lon="4.8357">
        <ele>342</ele>
        <time>2021-08-14T08:12:21.000Z</time>
      </trkpt>
      <trkpt lat="49.86829" lon="4.8357">
        <ele>343</ele>
        <time>2021-08-14T08:12:22.000Z</time>
      </trkpt>
      <trkpt lat="49.86829" lon="4.8357">
        <ele>343</ele>
        <time>2021-08-14T08:12:23.000Z</time>
      </trkpt>
      <trkpt lat="49.86829" lon="4.8357">
        <ele>343</ele>
        <time>2021-08-14T08:12:24.000Z</time>
      </trkpt>
      <trkpt lat="49.86829" lon="4.8357">
        <ele>343</ele>
        <time>2021-08-14T08:12:25.000Z</time>
      </trkpt>
      <trkpt lat="49.86829" lon="4.8357">
        <ele>343</ele>
        <time>2021-08-14T08:12:26.000Z</time>
      </trkpt>
      <trkpt lat="49.86829" lon="4.8357">
        <ele>343</ele>
        <time>2021-08-14T08:12:27.000Z</time>
      </trkpt>
      <trkpt lat="49.86829" lon="4.8357">
        <ele>343</ele>
        <time>2021-08-14T08:12:28.000Z</time>
      </trkpt>
      <trkpt lat="49.86829" lon="4.8357">
        <ele>343</ele>
        <time>2021-08-14T08:12:29.000Z</time>
      </trkpt>
      <trkpt lat="49.86829" lon="4.83569">
        <ele>343</ele>
        <time>2021-08-14T08:12:30.000Z</time>
      </trkpt>
      <trkpt lat="49.8683" lon="4.83569">
        <ele>343</ele>
        <time>2021-08-14T08:12:31.000Z</time>
      </trkpt>
      <trkpt lat="49.8683" lon="4.83569">
        <ele>343</ele>
        <time>2021-08-14T08:12:32.000Z</time>
      </trkpt>
      <trkpt lat="49.8683" lon="4.83569">
        <ele>343</ele>
        <time>2021-08-14T08:12:33.000Z</time>
      </trkpt>
      <trkpt lat="49.8683" lon="4.83569">
        <ele>343</ele>
        <time>2021-08-14T08:12:34.000Z</time>
      </trkpt>
      <trkpt lat="49.8683" lon="4.83569">
        <ele>343</ele>
        <time>2021-08-14T08:12:35.000Z</time>
      </trkpt>
      <trkpt lat="49.8683" lon="4.83569">
        <ele>343</ele>
        <time>2021-08-14T08:12:36.000Z</time>
      </trkpt>
      <trkpt lat="49.8683" lon="4.83569">
        <ele>343</ele>
        <time>2021-08-14T08:12:37.000Z</time>
      </trkpt>
      <trkpt lat="49.8683" lon="4.83569">
        <ele>344</ele>
        <time>2021-08-14T08:12:38.000Z</time>
      </trkpt>
      <trkpt lat="49.8683" lon="4.83569">
        <ele>344</ele>
        <time>2021-08-14T08:12:39.000Z</time>
      </trkpt>
      <trkpt lat="49.8683" lon="4.83569">
        <ele>344</ele>
        <time>2021-08-14T08:12:40.000Z</time>
      </trkpt>
      <trkpt lat="49.8683" lon="4.83569">
        <ele>344</ele>
        <time>2021-08-14T08:12:41.000Z</time>
      </trkpt>
      <trkpt lat="49.8683" lon="4.83569">
        <ele>344</ele>
        <time>2021-08-14T08:12:42.000Z</time>
      </trkpt>
      <trkpt lat="49.8683" lon="4.83569">
        <ele>344</ele>
        <time>2021-08-14T08:12:43.000Z</time>
      </trkpt>
      <trkpt lat="49.8683" lon="4.83569">
        <ele>344</ele>
        <time>2021-08-14T08:12:44.000Z</time>
      </trkpt>
      <trkpt lat="49.8683" lon="4.83568">
        <ele>344</ele>
        <time>2021-08-14T08:12:45.000Z</time>
      </trkpt>
      <trkpt lat="49.8683" lon="4.83568">
        <ele>344</ele>
        <time>2021-08-14T08:12:46.000Z</time>
      </trkpt>
      <trkpt lat="49.8683" lon="4.83568">
        <ele>344</ele>
        <time>2021-08-14T08:12:47.000Z</time>
      </trkpt>
      <trkpt lat="49.8683" lon="4.83568">
        <ele>344</ele>
        <time>2021-08-14T08:12:48.000Z</time>
      </trkpt>
      <trkpt lat="49.86831" lon="4.83567">
        <ele>344</ele>
        <time>2021-08-14T08:12:49.000Z</time>
      </trkpt>
      <trkpt lat="49.86832" lon="4.83566">
        <ele>344</ele>
        <time>2021-08-14T08:12:50.000Z</time>
      </trkpt>
      <trkpt lat="49.86833" lon="4.83565">
        <ele>344</ele>
        <time>2021-08-14T08:12:51.000Z</time>
      </trkpt>
      <trkpt lat="49.86835" lon="4.83564">
        <ele>344</ele>
        <time>2021-08-14T08:12:52.000Z</time>
      </trkpt>
      <trkpt lat="49.86836" lon="4.83564">
        <ele>344</ele>
        <time>2021-08-14T08:12:53.000Z</time>
      </trkpt>
      <trkpt lat="49.86838" lon="4.83564">
        <ele>344</ele>
        <time>2021-08-14T08:12:54.000Z</time>
      </trkpt>
      <trkpt lat="49.86841" lon="4.83564">
        <ele>344</ele>
        <time>2021-08-14T08:12:55.000Z</time>
      </trkpt>
      <trkpt lat="49.86844" lon="4.83564">
        <ele>344</ele>
        <time>2021-08-14T08:12:56.000Z</time>
      </trkpt>
      <trkpt lat="49.86847" lon="4.83564">
        <ele>344</ele>
        <time>2021-08-14T08:12:57.000Z</time>
      </trkpt>
      <trkpt lat="49.86851" lon="4.83564">
        <ele>345</ele>
        <time>2021-08-14T08:12:58.000Z</time>
      </trkpt>
      <trkpt lat="49.86854" lon="4.83563">
        <ele>345</ele>
        <time>2021-08-14T08:12:59.000Z</time>
      </trkpt>
      <trkpt lat="49.86857" lon="4.83563">
        <ele>345</ele>
        <time>2021-08-14T08:13:00.000Z</time>
      </trkpt>
      <trkpt lat="49.8686" lon="4.83562">
        <ele>345</ele>
        <time>2021-08-14T08:13:01.000Z</time>
      </trkpt>
      <trkpt lat="49.86864" lon="4.83562">
        <ele>345</ele>
        <time>2021-08-14T08:13:02.000Z</time>
      </trkpt>
      <trkpt lat="49.86868" lon="4.83562">
        <ele>345</ele>
        <time>2021-08-14T08:13:03.000Z</time>
      </trkpt>
      <trkpt lat="49.86871" lon="4.83563">
        <ele>346</ele>
        <time>2021-08-14T08:13:04.000Z</time>
      </trkpt>
      <trkpt lat="49.86876" lon="4.83563">
        <ele>346</ele>
        <time>2021-08-14T08:13:05.000Z</time>
      </trkpt>
      <trkpt lat="49.8688" lon="4.83562">
        <ele>346</ele>
        <time>2021-08-14T08:13:06.000Z</time>
      </trkpt>
      <trkpt lat="49.86884" lon="4.83562">
        <ele>346</ele>
        <time>2021-08-14T08:13:07.000Z</time>
      </trkpt>
      <trkpt lat="49.86887" lon="4.83562">
        <ele>346</ele>
        <time>2021-08-14T08:13:08.000Z</time>
      </trkpt>
      <trkpt lat="49.86891" lon="4.83561">
        <ele>347</ele>
        <time>2021-08-14T08:13:09.000Z</time>
      </trkpt>
      <trkpt lat="49.86895" lon="4.83561">
        <ele>347</ele>
        <time>2021-08-14T08:13:10.000Z</time>
      </trkpt>
      <trkpt lat="49.869" lon="4.8356">
        <ele>347</ele>
        <time>2021-08-14T08:13:11.000Z</time>
      </trkpt>
      <trkpt lat="49.86904" lon="4.8356">
        <ele>347</ele>
        <time>2021-08-14T08:13:12.000Z</time>
      </trkpt>
      <trkpt lat="49.86908" lon="4.83559">
        <ele>347</ele>
        <time>2021-08-14T08:13:13.000Z</time>
      </trkpt>
      <trkpt lat="49.86912" lon="4.83559">
        <ele>347</ele>
        <time>2021-08-14T08:13:14.000Z</time>
      </trkpt>
      <trkpt lat="49.86917" lon="4.83558">
        <ele>347</ele>
        <time>2021-08-14T08:13:15.000Z</time>
      </trkpt>
      <trkpt lat="49.86921" lon="4.83558">
        <ele>348</ele>
        <time>2021-08-14T08:13:16.000Z</time>
      </trkpt>
      <trkpt lat="49.86925" lon="4.83557">
        <ele>348</ele>
        <time>2021-08-14T08:13:17.000Z</time>
      </trkpt>
      <trkpt lat="49.8693" lon="4.83557">
        <ele>348</ele>
        <time>2021-08-14T08:13:18.000Z</time>
      </trkpt>
      <trkpt lat="49.86934" lon="4.83556">
        <ele>348</ele>
        <time>2021-08-14T08:13:19.000Z</time>
      </trkpt>
      <trkpt lat="49.86939" lon="4.83555">
        <ele>348</ele>
        <time>2021-08-14T08:13:20.000Z</time>
      </trkpt>
      <trkpt lat="49.86944" lon="4.83555">
        <ele>348</ele>
        <time>2021-08-14T08:13:21.000Z</time>
      </trkpt>
      <trkpt lat="49.86948" lon="4.83555">
        <ele>348</ele>
        <time>2021-08-14T08:13:22.000Z</time>
      </trkpt>
      <trkpt lat="49.86953" lon="4.83555">
        <ele>348</ele>
        <time>2021-08-14T08:13:23.000Z</time>
      </trkpt>
      <trkpt lat="49.86957" lon="4.83554">
        <ele>349</ele>
        <time>2021-08-14T08:13:24.000Z</time>
      </trkpt>
      <trkpt lat="49.86962" lon="4.83554">
        <ele>349</ele>
        <time>2021-08-14T08:13:25.000Z</time>
      </trkpt>
      <trkpt lat="49.86966" lon="4.83553">
        <ele>349</ele>
        <time>2021-08-14T08:13:26.000Z</time>
      </trkpt>
      <trkpt lat="49.86971" lon="4.83552">
        <ele>349</ele>
        <time>2021-08-14T08:13:27.000Z</time>
      </trkpt>
      <trkpt lat="49.86976" lon="4.83552">
        <ele>349</ele>
        <time>2021-08-14T08:13:28.000Z</time>
      </trkpt>
      <trkpt lat="49.8698" lon="4.83552">
        <ele>349</ele>
        <time>2021-08-14T08:13:29.000Z</time>
      </trkpt>
      <trkpt lat="49.86985" lon="4.83551">
        <ele>349</ele>
        <time>2021-08-14T08:13:30.000Z</time>
      </trkpt>
      <trkpt lat="49.8699" lon="4.83551">
        <ele>349</ele>
        <time>2021-08-14T08:13:31.000Z</time>
      </trkpt>
      <trkpt lat="49.86995" lon="4.8355">
        <ele>349</ele>
        <time>2021-08-14T08:13:32.000Z</time>
      </trkpt>
      <trkpt lat="49.87" lon="4.8355">
        <ele>348</ele>
        <time>2021-08-14T08:13:33.000Z</time>
      </trkpt>
      <trkpt lat="49.87004" lon="4.83549">
        <ele>348</ele>
        <time>2021-08-14T08:13:34.000Z</time>
      </trkpt>
      <trkpt lat="49.87009" lon="4.83549">
        <ele>348</ele>
        <time>2021-08-14T08:13:35.000Z</time>
      </trkpt>
      <trkpt lat="49.87014" lon="4.83549">
        <ele>348</ele>
        <time>2021-08-14T08:13:36.000Z</time>
      </trkpt>
      <trkpt lat="49.87019" lon="4.83548">
        <ele>348</ele>
        <time>2021-08-14T08:13:37.000Z</time>
      </trkpt>
      <trkpt lat="49.87024" lon="4.83548">
        <ele>348</ele>
        <time>2021-08-14T08:13:38.000Z</time>
      </trkpt>
      <trkpt lat="49.87029" lon="4.83547">
        <ele>348</ele>
        <time>2021-08-14T08:13:39.000Z</time>
      </trkpt>
      <trkpt lat="49.87034" lon="4.83547">
        <ele>348</ele>
        <time>2021-08-14T08:13:40.000Z</time>
      </trkpt>
      <trkpt lat="49.8704" lon="4.83547">
        <ele>348</ele>
        <time>2021-08-14T08:13:41.000Z</time>
      </trkpt>
      <trkpt lat="49.87045" lon="4.83547">
        <ele>348</ele>
        <time>2021-08-14T08:13:42.000Z</time>
      </trkpt>
      <trkpt lat="49.8705" lon="4.83546">
        <ele>348</ele>
        <time>2021-08-14T08:13:43.000Z</time>
      </trkpt>
      <trkpt lat="49.87054" lon="4.83546">
        <ele>348</ele>
        <time>2021-08-14T08:13:44.000Z</time>
      </trkpt>
      <trkpt lat="49.87059" lon="4.83545">
        <ele>348</ele>
        <time>2021-08-14T08:13:45.000Z</time>
      </trkpt>
      <trkpt lat="49.87064" lon="4.83545">
        <ele>348</ele>
        <time>2021-08-14T08:13:46.000Z</time>
      </trkpt>
      <trkpt lat="49.87069" lon="4.83544">
        <ele>348</ele>
        <time>2021-08-14T08:13:47.000Z</time>
      </trkpt>
      <trkpt lat="49.87073" lon="4.83544">
        <ele>348</ele>
        <time>2021-08-14T08:13:48.000Z</time>
      </trkpt>
      <trkpt lat="49.87078" lon="4.83544">
        <ele>348</ele>
        <time>2021-08-14T08:13:49.000Z</time>
      </trkpt>
      <trkpt lat="49.87083" lon="4.83543">
        <ele>347</ele>
        <time>2021-08-14T08:13:50.000Z</time>
      </trkpt>
      <trkpt lat="49.87088" lon="4.83543">
        <ele>347</ele>
        <time>2021-08-14T08:13:51.000Z</time>
      </trkpt>
      <trkpt lat="49.87093" lon="4.83543">
        <ele>347</ele>
        <time>2021-08-14T08:13:52.000Z</time>
      </trkpt>
      <trkpt lat="49.87098" lon="4.83542">
        <ele>347</ele>
        <time>2021-08-14T08:13:53.000Z</time>
      </trkpt>
      <trkpt lat="49.87103" lon="4.83541">
        <ele>347</ele>
        <time>2021-08-14T08:13:54.000Z</time>
      </trkpt>
      <trkpt lat="49.87109" lon="4.83541">
        <ele>347</ele>
        <time>2021-08-14T08:13:55.000Z</time>
      </trkpt>
      <trkpt lat="49.87115" lon="4.8354">
        <ele>346</ele>
        <time>2021-08-14T08:13:56.000Z</time>
      </trkpt>
      <trkpt lat="49.87122" lon="4.83539">
        <ele>346</ele>
        <time>2021-08-14T08:13:57.000Z</time>
      </trkpt>
      <trkpt lat="49.87129" lon="4.83538">
        <ele>346</ele>
        <time>2021-08-14T08:13:58.000Z</time>
      </trkpt>
      <trkpt lat="49.87135" lon="4.83537">
        <ele>346</ele>
        <time>2021-08-14T08:13:59.000Z</time>
      </trkpt>
      <trkpt lat="49.87141" lon="4.83536">
        <ele>345</ele>
        <time>2021-08-14T08:14:00.000Z</time>
      </trkpt>
      <trkpt lat="49.87148" lon="4.83535">
        <ele>345</ele>
        <time>2021-08-14T08:14:01.000Z</time>
      </trkpt>
      <trkpt lat="49.87155" lon="4.83534">
        <ele>345</ele>
        <time>2021-08-14T08:14:02.000Z</time>
      </trkpt>
      <trkpt lat="49.87161" lon="4.83532">
        <ele>345</ele>
        <time>2021-08-14T08:14:03.000Z</time>
      </trkpt>
      <trkpt lat="49.87167" lon="4.83531">
        <ele>345</ele>
        <time>2021-08-14T08:14:04.000Z</time>
      </trkpt>
      <trkpt lat="49.87173" lon="4.8353">
        <ele>344</ele>
        <time>2021-08-14T08:14:05.000Z</time>
      </trkpt>
      <trkpt lat="49.8718" lon="4.83529">
        <ele>344</ele>
        <time>2021-08-14T08:14:06.000Z</time>
      </trkpt>
      <trkpt lat="49.87187" lon="4.83529">
        <ele>344</ele>
        <time>2021-08-14T08:14:07.000Z</time>
      </trkpt>
      <trkpt lat="49.87194" lon="4.83529">
        <ele>344</ele>
        <time>2021-08-14T08:14:08.000Z</time>
      </trkpt>
      <trkpt lat="49.87201" lon="4.83528">
        <ele>343</ele>
        <time>2021-08-14T08:14:09.000Z</time>
      </trkpt>
      <trkpt lat="49.87207" lon="4.83527">
        <ele>343</ele>
        <time>2021-08-14T08:14:10.000Z</time>
      </trkpt>
      <trkpt lat="49.87214" lon="4.83526">
        <ele>343</ele>
        <time>2021-08-14T08:14:11.000Z</time>
      </trkpt>
      <trkpt lat="49.87221" lon="4.83526">
        <ele>343</ele>
        <time>2021-08-14T08:14:12.000Z</time>
      </trkpt>
      <trkpt lat="49.87228" lon="4.83525">
        <ele>343</ele>
        <time>2021-08-14T08:14:13.000Z</time>
      </trkpt>
      <trkpt lat="49.87235" lon="4.83525">
        <ele>342</ele>
        <time>2021-08-14T08:14:14.000Z</time>
      </trkpt>
      <trkpt lat="49.87241" lon="4.83525">
        <ele>342</ele>
        <time>2021-08-14T08:14:15.000Z</time>
      </trkpt>
      <trkpt lat="49.87248" lon="4.83525">
        <ele>342</ele>
        <time>2021-08-14T08:14:16.000Z</time>
      </trkpt>
      <trkpt lat="49.87255" lon="4.83525">
        <ele>342</ele>
        <time>2021-08-14T08:14:17.000Z</time>
      </trkpt>
      <trkpt lat="49.87261" lon="4.83524">
        <ele>341</ele>
        <time>2021-08-14T08:14:18.000Z</time>
      </trkpt>
      <trkpt lat="49.87267" lon="4.83524">
        <ele>341</ele>
        <time>2021-08-14T08:14:19.000Z</time>
      </trkpt>
      <trkpt lat="49.87273" lon="4.83523">
        <ele>340</ele>
        <time>2021-08-14T08:14:20.000Z</time>
      </trkpt>
      <trkpt lat="49.8728" lon="4.83523">
        <ele>340</ele>
        <time>2021-08-14T08:14:21.000Z</time>
      </trkpt>
      <trkpt lat="49.87286" lon="4.83521">
        <ele>339</ele>
        <time>2021-08-14T08:14:22.000Z</time>
      </trkpt>
      <trkpt lat="49.8729" lon="4.8352">
        <ele>338</ele>
        <time>2021-08-14T08:14:23.000Z</time>
      </trkpt>
      <trkpt lat="49.87293" lon="4.83518">
        <ele>337</ele>
        <time>2021-08-14T08:14:24.000Z</time>
      </trkpt>
      <trkpt lat="49.87296" lon="4.83517">
        <ele>337</ele>
        <time>2021-08-14T08:14:25.000Z</time>
      </trkpt>
      <trkpt lat="49.87298" lon="4.83517">
        <ele>336</ele>
        <time>2021-08-14T08:14:26.000Z</time>
      </trkpt>
      <trkpt lat="49.873" lon="4.83516">
        <ele>335</ele>
        <time>2021-08-14T08:14:27.000Z</time>
      </trkpt>
      <trkpt lat="49.87302" lon="4.83515">
        <ele>335</ele>
        <time>2021-08-14T08:14:28.000Z</time>
      </trkpt>
      <trkpt lat="49.87305" lon="4.83516">
        <ele>334</ele>
        <time>2021-08-14T08:14:29.000Z</time>
      </trkpt>
      <trkpt lat="49.87308" lon="4.83517">
        <ele>333</ele>
        <time>2021-08-14T08:14:30.000Z</time>
      </trkpt>
      <trkpt lat="49.87311" lon="4.83517">
        <ele>333</ele>
        <time>2021-08-14T08:14:31.000Z</time>
      </trkpt>
      <trkpt lat="49.87314" lon="4.83518">
        <ele>332</ele>
        <time>2021-08-14T08:14:32.000Z</time>
      </trkpt>
      <trkpt lat="49.87316" lon="4.83519">
        <ele>331</ele>
        <time>2021-08-14T08:14:33.000Z</time>
      </trkpt>
      <trkpt lat="49.87318" lon="4.83519">
        <ele>331</ele>
        <time>2021-08-14T08:14:34.000Z</time>
      </trkpt>
      <trkpt lat="49.87318" lon="4.83519">
        <ele>330</ele>
        <time>2021-08-14T08:14:35.000Z</time>
      </trkpt>
      <trkpt lat="49.87318" lon="4.83519">
        <ele>330</ele>
        <time>2021-08-14T08:14:36.000Z</time>
      </trkpt>
      <trkpt lat="49.87319" lon="4.8352">
        <ele>330</ele>
        <time>2021-08-14T08:14:37.000Z</time>
      </trkpt>
      <trkpt lat="49.87321" lon="4.83522">
        <ele>330</ele>
        <time>2021-08-14T08:14:38.000Z</time>
      </trkpt>
      <trkpt lat="49.87322" lon="4.83524">
        <ele>329</ele>
        <time>2021-08-14T08:14:39.000Z</time>
      </trkpt>
      <trkpt lat="49.87323" lon="4.83527">
        <ele>329</ele>
        <time>2021-08-14T08:14:40.000Z</time>
      </trkpt>
      <trkpt lat="49.87324" lon="4.83531">
        <ele>329</ele>
        <time>2021-08-14T08:14:41.000Z</time>
      </trkpt>
      <trkpt lat="49.87326" lon="4.83534">
        <ele>329</ele>
        <time>2021-08-14T08:14:42.000Z</time>
      </trkpt>
      <trkpt lat="49.87328" lon="4.83538">
        <ele>328</ele>
        <time>2021-08-14T08:14:43.000Z</time>
      </trkpt>
      <trkpt lat="49.87331" lon="4.83543">
        <ele>328</ele>
        <time>2021-08-14T08:14:44.000Z</time>
      </trkpt>
      <trkpt lat="49.87334" lon="4.83549">
        <ele>328</ele>
        <time>2021-08-14T08:14:45.000Z</time>
      </trkpt>
      <trkpt lat="49.87337" lon="4.83555">
        <ele>328</ele>
        <time>2021-08-14T08:14:46.000Z</time>
      </trkpt>
      <trkpt lat="49.87339" lon="4.83561">
        <ele>327</ele>
        <time>2021-08-14T08:14:47.000Z</time>
      </trkpt>
      <trkpt lat="49.87341" lon="4.83567">
        <ele>327</ele>
        <time>2021-08-14T08:14:48.000Z</time>
      </trkpt>
      <trkpt lat="49.87343" lon="4.83573">
        <ele>327</ele>
        <time>2021-08-14T08:14:49.000Z</time>
      </trkpt>
      <trkpt lat="49.87346" lon="4.83579">
        <ele>327</ele>
        <time>2021-08-14T08:14:50.000Z</time>
      </trkpt>
      <trkpt lat="49.87348" lon="4.83585">
        <ele>326</ele>
        <time>2021-08-14T08:14:51.000Z</time>
      </trkpt>
      <trkpt lat="49.87351" lon="4.8359">
        <ele>326</ele>
        <time>2021-08-14T08:14:52.000Z</time>
      </trkpt>
      <trkpt lat="49.87354" lon="4.83596">
        <ele>326</ele>
        <time>2021-08-14T08:14:53.000Z</time>
      </trkpt>
      <trkpt lat="49.87357" lon="4.83603">
        <ele>326</ele>
        <time>2021-08-14T08:14:54.000Z</time>
      </trkpt>
      <trkpt lat="49.8736" lon="4.8361">
        <ele>326</ele>
        <time>2021-08-14T08:14:55.000Z</time>
      </trkpt>
      <trkpt lat="49.87363" lon="4.83617">
        <ele>325</ele>
        <time>2021-08-14T08:14:56.000Z</time>
      </trkpt>
      <trkpt lat="49.87366" lon="4.83624">
        <ele>325</ele>
        <time>2021-08-14T08:14:57.000Z</time>
      </trkpt>
      <trkpt lat="49.8737" lon="4.83631">
        <ele>324</ele>
        <time>2021-08-14T08:14:58.000Z</time>
      </trkpt>
      <trkpt lat="49.87374" lon="4.83639">
        <ele>324</ele>
        <time>2021-08-14T08:14:59.000Z</time>
      </trkpt>
      <trkpt lat="49.87378" lon="4.83646">
        <ele>323</ele>
        <time>2021-08-14T08:15:00.000Z</time>
      </trkpt>
      <trkpt lat="49.87382" lon="4.83654">
        <ele>323</ele>
        <time>2021-08-14T08:15:01.000Z</time>
      </trkpt>
      <trkpt lat="49.87386" lon="4.83663">
        <ele>322</ele>
        <time>2021-08-14T08:15:02.000Z</time>
      </trkpt>
      <trkpt lat="49.87389" lon="4.83672">
        <ele>322</ele>
        <time>2021-08-14T08:15:03.000Z</time>
      </trkpt>
      <trkpt lat="49.87392" lon="4.83681">
        <ele>321</ele>
        <time>2021-08-14T08:15:04.000Z</time>
      </trkpt>
      <trkpt lat="49.87396" lon="4.8369">
        <ele>321</ele>
        <time>2021-08-14T08:15:05.000Z</time>
      </trkpt>
      <trkpt lat="49.874" lon="4.83699">
        <ele>320</ele>
        <time>2021-08-14T08:15:06.000Z</time>
      </trkpt>
      <trkpt lat="49.87404" lon="4.83708">
        <ele>319</ele>
        <time>2021-08-14T08:15:07.000Z</time>
      </trkpt>
      <trkpt lat="49.87408" lon="4.83717">
        <ele>319</ele>
        <time>2021-08-14T08:15:08.000Z</time>
      </trkpt>
      <trkpt lat="49.87412" lon="4.83726">
        <ele>318</ele>
        <time>2021-08-14T08:15:09.000Z</time>
      </trkpt>
      <trkpt lat="49.87417" lon="4.83735">
        <ele>317</ele>
        <time>2021-08-14T08:15:10.000Z</time>
      </trkpt>
      <trkpt lat="49.87421" lon="4.83742">
        <ele>317</ele>
        <time>2021-08-14T08:15:11.000Z</time>
      </trkpt>
      <trkpt lat="49.87425" lon="4.8375">
        <ele>316</ele>
        <time>2021-08-14T08:15:12.000Z</time>
      </trkpt>
      <trkpt lat="49.87429" lon="4.83758">
        <ele>316</ele>
        <time>2021-08-14T08:15:13.000Z</time>
      </trkpt>
      <trkpt lat="49.87433" lon="4.83765">
        <ele>315</ele>
        <time>2021-08-14T08:15:14.000Z</time>
      </trkpt>
      <trkpt lat="49.87437" lon="4.83771">
        <ele>315</ele>
        <time>2021-08-14T08:15:15.000Z</time>
      </trkpt>
      <trkpt lat="49.8744" lon="4.83774">
        <ele>314</ele>
        <time>2021-08-14T08:15:16.000Z</time>
      </trkpt>
      <trkpt lat="49.87443" lon="4.83777">
        <ele>314</ele>
        <time>2021-08-14T08:15:17.000Z</time>
      </trkpt>
      <trkpt lat="49.87446" lon="4.8378">
        <ele>314</ele>
        <time>2021-08-14T08:15:18.000Z</time>
      </trkpt>
      <trkpt lat="49.87449" lon="4.83781">
        <ele>314</ele>
        <time>2021-08-14T08:15:19.000Z</time>
      </trkpt>
      <trkpt lat="49.87452" lon="4.83783">
        <ele>313</ele>
        <time>2021-08-14T08:15:20.000Z</time>
      </trkpt>
      <trkpt lat="49.87455" lon="4.83786">
        <ele>313</ele>
        <time>2021-08-14T08:15:21.000Z</time>
      </trkpt>
      <trkpt lat="49.87457" lon="4.83788">
        <ele>313</ele>
        <time>2021-08-14T08:15:22.000Z</time>
      </trkpt>
      <trkpt lat="49.8746" lon="4.83791">
        <ele>313</ele>
        <time>2021-08-14T08:15:23.000Z</time>
      </trkpt>
      <trkpt lat="49.87461" lon="4.83794">
        <ele>313</ele>
        <time>2021-08-14T08:15:24.000Z</time>
      </trkpt>
      <trkpt lat="49.87463" lon="4.83796">
        <ele>313</ele>
        <time>2021-08-14T08:15:25.000Z</time>
      </trkpt>
      <trkpt lat="49.87463" lon="4.83796">
        <ele>313</ele>
        <time>2021-08-14T08:15:26.000Z</time>
      </trkpt>
      <trkpt lat="49.87464" lon="4.83795">
        <ele>312</ele>
        <time>2021-08-14T08:15:27.000Z</time>
      </trkpt>
      <trkpt lat="49.87464" lon="4.83794">
        <ele>312</ele>
        <time>2021-08-14T08:15:28.000Z</time>
      </trkpt>
      <trkpt lat="49.87462" lon="4.83792">
        <ele>312</ele>
        <time>2021-08-14T08:15:29.000Z</time>
      </trkpt>
      <trkpt lat="49.8746" lon="4.83791">
        <ele>312</ele>
        <time>2021-08-14T08:15:30.000Z</time>
      </trkpt>
      <trkpt lat="49.87458" lon="4.83789">
        <ele>312</ele>
        <time>2021-08-14T08:15:31.000Z</time>
      </trkpt>
      <trkpt lat="49.87455" lon="4.83786">
        <ele>312</ele>
        <time>2021-08-14T08:15:32.000Z</time>
      </trkpt>
      <trkpt lat="49.87453" lon="4.83784">
        <ele>312</ele>
        <time>2021-08-14T08:15:33.000Z</time>
      </trkpt>
      <trkpt lat="49.87449" lon="4.83782">
        <ele>312</ele>
        <time>2021-08-14T08:15:34.000Z</time>
      </trkpt>
      <trkpt lat="49.87446" lon="4.8378">
        <ele>312</ele>
        <time>2021-08-14T08:15:35.000Z</time>
      </trkpt>
      <trkpt lat="49.87443" lon="4.83777">
        <ele>311</ele>
        <time>2021-08-14T08:15:36.000Z</time>
      </trkpt>
      <trkpt lat="49.87439" lon="4.83774">
        <ele>311</ele>
        <time>2021-08-14T08:15:37.000Z</time>
      </trkpt>
      <trkpt lat="49.87436" lon="4.8377">
        <ele>311</ele>
        <time>2021-08-14T08:15:38.000Z</time>
      </trkpt>
      <trkpt lat="49.87434" lon="4.83765">
        <ele>311</ele>
        <time>2021-08-14T08:15:39.000Z</time>
      </trkpt>
      <trkpt lat="49.87431" lon="4.83761">
        <ele>311</ele>
        <time>2021-08-14T08:15:40.000Z</time>
      </trkpt>
      <trkpt lat="49.87428" lon="4.83757">
        <ele>310</ele>
        <time>2021-08-14T08:15:41.000Z</time>
      </trkpt>
      <trkpt lat="49.87426" lon="4.83753">
        <ele>310</ele>
        <time>2021-08-14T08:15:42.000Z</time>
      </trkpt>
      <trkpt lat="49.87423" lon="4.83749">
        <ele>310</ele>
        <time>2021-08-14T08:15:43.000Z</time>
      </trkpt>
      <trkpt lat="49.87421" lon="4.83745">
        <ele>310</ele>
        <time>2021-08-14T08:15:44.000Z</time>
      </trkpt>
      <trkpt lat="49.87419" lon="4.83741">
        <ele>310</ele>
        <time>2021-08-14T08:15:45.000Z</time>
      </trkpt>
      <trkpt lat="49.87417" lon="4.83737">
        <ele>310</ele>
        <time>2021-08-14T08:15:46.000Z</time>
      </trkpt>
      <trkpt lat="49.87415" lon="4.83733">
        <ele>310</ele>
        <time>2021-08-14T08:15:47.000Z</time>
      </trkpt>
      <trkpt lat="49.87414" lon="4.83729">
        <ele>310</ele>
        <time>2021-08-14T08:15:48.000Z</time>
      </trkpt>
      <trkpt lat="49.87412" lon="4.83726">
        <ele>310</ele>
        <time>2021-08-14T08:15:49.000Z</time>
      </trkpt>
      <trkpt lat="49.8741" lon="4.83722">
        <ele>310</ele>
        <time>2021-08-14T08:15:50.000Z</time>
      </trkpt>
      <trkpt lat="49.87408" lon="4.83719">
        <ele>310</ele>
        <time>2021-08-14T08:15:51.000Z</time>
      </trkpt>
      <trkpt lat="49.87406" lon="4.83716">
        <ele>310</ele>
        <time>2021-08-14T08:15:52.000Z</time>
      </trkpt>
      <trkpt lat="49.87404" lon="4.83714">
        <ele>310</ele>
        <time>2021-08-14T08:15:53.000Z</time>
      </trkpt>
      <trkpt lat="49.87403" lon="4.83711">
        <ele>310</ele>
        <time>2021-08-14T08:15:54.000Z</time>
      </trkpt>
      <trkpt lat="49.87401" lon="4.83708">
        <ele>310</ele>
        <time>2021-08-14T08:15:55.000Z</time>
      </trkpt>
      <trkpt lat="49.874" lon="4.83705">
        <ele>310</ele>
        <time>2021-08-14T08:15:56.000Z</time>
      </trkpt>
      <trkpt lat="49.87398" lon="4.83702">
        <ele>310</ele>
        <time>2021-08-14T08:15:57.000Z</time>
      </trkpt>
      <trkpt lat="49.87397" lon="4.83698">
        <ele>311</ele>
        <time>2021-08-14T08:15:58.000Z</time>
      </trkpt>
      <trkpt lat="49.87395" lon="4.83695">
        <ele>311</ele>
        <time>2021-08-14T08:15:59.000Z</time>
      </trkpt>
      <trkpt lat="49.87394" lon="4.83692">
        <ele>311</ele>
        <time>2021-08-14T08:16:00.000Z</time>
      </trkpt>
      <trkpt lat="49.87392" lon="4.83689">
        <ele>311</ele>
        <time>2021-08-14T08:16:01.000Z</time>
      </trkpt>
      <trkpt lat="49.87391" lon="4.83686">
        <ele>311</ele>
        <time>2021-08-14T08:16:02.000Z</time>
      </trkpt>
      <trkpt lat="49.8739" lon="4.83683">
        <ele>311</ele>
        <time>2021-08-14T08:16:03.000Z</time>
      </trkpt>
      <trkpt lat="49.87389" lon="4.8368">
        <ele>311</ele>
        <time>2021-08-14T08:16:04.000Z</time>
      </trkpt>
      <trkpt lat="49.87388" lon="4.83677">
        <ele>311</ele>
        <time>2021-08-14T08:16:05.000Z</time>
      </trkpt>
      <trkpt lat="49.87386" lon="4.83673">
        <ele>311</ele>
        <time>2021-08-14T08:16:06.000Z</time>
      </trkpt>
      <trkpt lat="49.87385" lon="4.8367">
        <ele>312</ele>
        <time>2021-08-14T08:16:07.000Z</time>
      </trkpt>
      <trkpt lat="49.87384" lon="4.83666">
        <ele>312</ele>
        <time>2021-08-14T08:16:08.000Z</time>
      </trkpt>
      <trkpt lat="49.87382" lon="4.83663">
        <ele>312</ele>
        <time>2021-08-14T08:16:09.000Z</time>
      </trkpt>
      <trkpt lat="49.87381" lon="4.83659">
        <ele>312</ele>
        <time>2021-08-14T08:16:10.000Z</time>
      </trkpt>
      <trkpt lat="49.87379" lon="4.83656">
        <ele>312</ele>
        <time>2021-08-14T08:16:11.000Z</time>
      </trkpt>
      <trkpt lat="49.87378" lon="4.83652">
        <ele>312</ele>
        <time>2021-08-14T08:16:12.000Z</time>
      </trkpt>
      <trkpt lat="49.87376" lon="4.83649">
        <ele>312</ele>
        <time>2021-08-14T08:16:13.000Z</time>
      </trkpt>
      <trkpt lat="49.87374" lon="4.83646">
        <ele>312</ele>
        <time>2021-08-14T08:16:14.000Z</time>
      </trkpt>
      <trkpt lat="49.87373" lon="4.83643">
        <ele>312</ele>
        <time>2021-08-14T08:16:15.000Z</time>
      </trkpt>
      <trkpt lat="49.87371" lon="4.83639">
        <ele>313</ele>
        <time>2021-08-14T08:16:16.000Z</time>
      </trkpt>
      <trkpt lat="49.87369" lon="4.83636">
        <ele>313</ele>
        <time>2021-08-14T08:16:17.000Z</time>
      </trkpt>
      <trkpt lat="49.87367" lon="4.83633">
        <ele>313</ele>
        <time>2021-08-14T08:16:18.000Z</time>
      </trkpt>
      <trkpt lat="49.87366" lon="4.8363">
        <ele>313</ele>
        <time>2021-08-14T08:16:19.000Z</time>
      </trkpt>
      <trkpt lat="49.87364" lon="4.83626">
        <ele>313</ele>
        <time>2021-08-14T08:16:20.000Z</time>
      </trkpt>
      <trkpt lat="49.87362" lon="4.83623">
        <ele>313</ele>
        <time>2021-08-14T08:16:21.000Z</time>
      </trkpt>
      <trkpt lat="49.87361" lon="4.8362">
        <ele>313</ele>
        <time>2021-08-14T08:16:22.000Z</time>
      </trkpt>
      <trkpt lat="49.87359" lon="4.83617">
        <ele>313</ele>
        <time>2021-08-14T08:16:23.000Z</time>
      </trkpt>
      <trkpt lat="49.87358" lon="4.83613">
        <ele>313</ele>
        <time>2021-08-14T08:16:24.000Z</time>
      </trkpt>
      <trkpt lat="49.87356" lon="4.8361">
        <ele>313</ele>
        <time>2021-08-14T08:16:25.000Z</time>
      </trkpt>
      <trkpt lat="49.87355" lon="4.83607">
        <ele>314</ele>
        <time>2021-08-14T08:16:26.000Z</time>
      </trkpt>
      <trkpt lat="49.87354" lon="4.83604">
        <ele>314</ele>
        <time>2021-08-14T08:16:27.000Z</time>
      </trkpt>
      <trkpt lat="49.87352" lon="4.83601">
        <ele>314</ele>
        <time>2021-08-14T08:16:28.000Z</time>
      </trkpt>
      <trkpt lat="49.87351" lon="4.83597">
        <ele>314</ele>
        <time>2021-08-14T08:16:29.000Z</time>
      </trkpt>
      <trkpt lat="49.87349" lon="4.83594">
        <ele>314</ele>
        <time>2021-08-14T08:16:30.000Z</time>
      </trkpt>
      <trkpt lat="49.87348" lon="4.83591">
        <ele>314</ele>
        <time>2021-08-14T08:16:31.000Z</time>
      </trkpt>
      <trkpt lat="49.87346" lon="4.83587">
        <ele>314</ele>
        <time>2021-08-14T08:16:32.000Z</time>
      </trkpt>
      <trkpt lat="49.87345" lon="4.83584">
        <ele>315</ele>
        <time>2021-08-14T08:16:33.000Z</time>
      </trkpt>
      <trkpt lat="49.87344" lon="4.83581">
        <ele>315</ele>
        <time>2021-08-14T08:16:34.000Z</time>
      </trkpt>
      <trkpt lat="49.87342" lon="4.83578">
        <ele>315</ele>
        <time>2021-08-14T08:16:35.000Z</time>
      </trkpt>
      <trkpt lat="49.87341" lon="4.83575">
        <ele>315</ele>
        <time>2021-08-14T08:16:36.000Z</time>
      </trkpt>
      <trkpt lat="49.8734" lon="4.83571">
        <ele>315</ele>
        <time>2021-08-14T08:16:37.000Z</time>
      </trkpt>
      <trkpt lat="49.87339" lon="4.83568">
        <ele>315</ele>
        <time>2021-08-14T08:16:38.000Z</time>
      </trkpt>
      <trkpt lat="49.87338" lon="4.83565">
        <ele>315</ele>
        <time>2021-08-14T08:16:39.000Z</time>
      </trkpt>
      <trkpt lat="49.87337" lon="4.83562">
        <ele>316</ele>
        <time>2021-08-14T08:16:40.000Z</time>
      </trkpt>
      <trkpt lat="49.87336" lon="4.83559">
        <ele>316</ele>
        <time>2021-08-14T08:16:41.000Z</time>
      </trkpt>
      <trkpt lat="49.87334" lon="4.83556">
        <ele>316</ele>
        <time>2021-08-14T08:16:42.000Z</time>
      </trkpt>
      <trkpt lat="49.87333" lon="4.83553">
        <ele>316</ele>
        <time>2021-08-14T08:16:43.000Z</time>
      </trkpt>
      <trkpt lat="49.87332" lon="4.83551">
        <ele>316</ele>
        <time>2021-08-14T08:16:44.000Z</time>
      </trkpt>
      <trkpt lat="49.8733" lon="4.83548">
        <ele>317</ele>
        <time>2021-08-14T08:16:45.000Z</time>
      </trkpt>
      <trkpt lat="49.87329" lon="4.83545">
        <ele>317</ele>
        <time>2021-08-14T08:16:46.000Z</time>
      </trkpt>
      <trkpt lat="49.87327" lon="4.83543">
        <ele>317</ele>
        <time>2021-08-14T08:16:47.000Z</time>
      </trkpt>
      <trkpt lat="49.87326" lon="4.8354">
        <ele>317</ele>
        <time>2021-08-14T08:16:48.000Z</time>
      </trkpt>
      <trkpt lat="49.87325" lon="4.83537">
        <ele>317</ele>
        <time>2021-08-14T08:16:49.000Z</time>
      </trkpt>
      <trkpt lat="49.87324" lon="4.83534">
        <ele>318</ele>
        <time>2021-08-14T08:16:50.000Z</time>
      </trkpt>
      <trkpt lat="49.87323" lon="4.83531">
        <ele>318</ele>
        <time>2021-08-14T08:16:51.000Z</time>
      </trkpt>
      <trkpt lat="49.87321" lon="4.83528">
        <ele>318</ele>
        <time>2021-08-14T08:16:52.000Z</time>
      </trkpt>
      <trkpt lat="49.8732" lon="4.83525">
        <ele>318</ele>
        <time>2021-08-14T08:16:53.000Z</time>
      </trkpt>
      <trkpt lat="49.87319" lon="4.83522">
        <ele>318</ele>
        <time>2021-08-14T08:16:54.000Z</time>
      </trkpt>
      <trkpt lat="49.87319" lon="4.83519">
        <ele>319</ele>
        <time>2021-08-14T08:16:55.000Z</time>
      </trkpt>
      <trkpt lat="49.87318" lon="4.83515">
        <ele>319</ele>
        <time>2021-08-14T08:16:56.000Z</time>
      </trkpt>
      <trkpt lat="49.87317" lon="4.83511">
        <ele>319</ele>
        <time>2021-08-14T08:16:57.000Z</time>
      </trkpt>
      <trkpt lat="49.87315" lon="4.83507">
        <ele>319</ele>
        <time>2021-08-14T08:16:58.000Z</time>
      </trkpt>
      <trkpt lat="49.87315" lon="4.83503">
        <ele>320</ele>
        <time>2021-08-14T08:16:59.000Z</time>
      </trkpt>
      <trkpt lat="49.87314" lon="4.83499">
        <ele>320</ele>
        <time>2021-08-14T08:17:00.000Z</time>
      </trkpt>
      <trkpt lat="49.87313" lon="4.83495">
        <ele>320</ele>
        <time>2021-08-14T08:17:01.000Z</time>
      </trkpt>
      <trkpt lat="49.87312" lon="4.8349">
        <ele>320</ele>
        <time>2021-08-14T08:17:02.000Z</time>
      </trkpt>
      <trkpt lat="49.87312" lon="4.83486">
        <ele>320</ele>
        <time>2021-08-14T08:17:03.000Z</time>
      </trkpt>
      <trkpt lat="49.87311" lon="4.83482">
        <ele>321</ele>
        <time>2021-08-14T08:17:04.000Z</time>
      </trkpt>
      <trkpt lat="49.8731" lon="4.83477">
        <ele>321</ele>
        <time>2021-08-14T08:17:05.000Z</time>
      </trkpt>
      <trkpt lat="49.87309" lon="4.83472">
        <ele>321</ele>
        <time>2021-08-14T08:17:06.000Z</time>
      </trkpt>
      <trkpt lat="49.87308" lon="4.83468">
        <ele>321</ele>
        <time>2021-08-14T08:17:07.000Z</time>
      </trkpt>
      <trkpt lat="49.87306" lon="4.83462">
        <ele>321</ele>
        <time>2021-08-14T08:17:08.000Z</time>
      </trkpt>
      <trkpt lat="49.87305" lon="4.83457">
        <ele>322</ele>
        <time>2021-08-14T08:17:09.000Z</time>
      </trkpt>
      <trkpt lat="49.87304" lon="4.83452">
        <ele>322</ele>
        <time>2021-08-14T08:17:10.000Z</time>
      </trkpt>
      <trkpt lat="49.87303" lon="4.83447">
        <ele>322</ele>
        <time>2021-08-14T08:17:11.000Z</time>
      </trkpt>
      <trkpt lat="49.87302" lon="4.83442">
        <ele>322</ele>
        <time>2021-08-14T08:17:12.000Z</time>
      </trkpt>
      <trkpt lat="49.87301" lon="4.83436">
        <ele>322</ele>
        <time>2021-08-14T08:17:13.000Z</time>
      </trkpt>
      <trkpt lat="49.873" lon="4.83431">
        <ele>322</ele>
        <time>2021-08-14T08:17:14.000Z</time>
      </trkpt>
      <trkpt lat="49.87299" lon="4.83425">
        <ele>323</ele>
        <time>2021-08-14T08:17:15.000Z</time>
      </trkpt>
      <trkpt lat="49.87298" lon="4.83419">
        <ele>323</ele>
        <time>2021-08-14T08:17:16.000Z</time>
      </trkpt>
      <trkpt lat="49.87297" lon="4.83413">
        <ele>323</ele>
        <time>2021-08-14T08:17:17.000Z</time>
      </trkpt>
      <trkpt lat="49.87296" lon="4.83407">
        <ele>323</ele>
        <time>2021-08-14T08:17:18.000Z</time>
      </trkpt>
      <trkpt lat="49.87295" lon="4.834">
        <ele>323</ele>
        <time>2021-08-14T08:17:19.000Z</time>
      </trkpt>
      <trkpt lat="49.87294" lon="4.83394">
        <ele>323</ele>
        <time>2021-08-14T08:17:20.000Z</time>
      </trkpt>
      <trkpt lat="49.87293" lon="4.83388">
        <ele>324</ele>
        <time>2021-08-14T08:17:21.000Z</time>
      </trkpt>
      <trkpt lat="49.87292" lon="4.83382">
        <ele>324</ele>
        <time>2021-08-14T08:17:22.000Z</time>
      </trkpt>
      <trkpt lat="49.87291" lon="4.83376">
        <ele>324</ele>
        <time>2021-08-14T08:17:23.000Z</time>
      </trkpt>
      <trkpt lat="49.87289" lon="4.8337">
        <ele>324</ele>
        <time>2021-08-14T08:17:24.000Z</time>
      </trkpt>
      <trkpt lat="49.87288" lon="4.83365">
        <ele>324</ele>
        <time>2021-08-14T08:17:25.000Z</time>
      </trkpt>
      <trkpt lat="49.87286" lon="4.83359">
        <ele>325</ele>
        <time>2021-08-14T08:17:26.000Z</time>
      </trkpt>
      <trkpt lat="49.87286" lon="4.83353">
        <ele>325</ele>
        <time>2021-08-14T08:17:27.000Z</time>
      </trkpt>
      <trkpt lat="49.87285" lon="4.83347">
        <ele>325</ele>
        <time>2021-08-14T08:17:28.000Z</time>
      </trkpt>
      <trkpt lat="49.87284" lon="4.83342">
        <ele>325</ele>
        <time>2021-08-14T08:17:29.000Z</time>
      </trkpt>
      <trkpt lat="49.87284" lon="4.83337">
        <ele>325</ele>
        <time>2021-08-14T08:17:30.000Z</time>
      </trkpt>
      <trkpt lat="49.87284" lon="4.83332">
        <ele>325</ele>
        <time>2021-08-14T08:17:31.000Z</time>
      </trkpt>
      <trkpt lat="49.87283" lon="4.83326">
        <ele>325</ele>
        <time>2021-08-14T08:17:32.000Z</time>
      </trkpt>
      <trkpt lat="49.87282" lon="4.83321">
        <ele>326</ele>
        <time>2021-08-14T08:17:33.000Z</time>
      </trkpt>
      <trkpt lat="49.87281" lon="4.83316">
        <ele>326</ele>
        <time>2021-08-14T08:17:34.000Z</time>
      </trkpt>
      <trkpt lat="49.87281" lon="4.83311">
        <ele>326</ele>
        <time>2021-08-14T08:17:35.000Z</time>
      </trkpt>
      <trkpt lat="49.8728" lon="4.83305">
        <ele>326</ele>
        <time>2021-08-14T08:17:36.000Z</time>
      </trkpt>
      <trkpt lat="49.8728" lon="4.833">
        <ele>326</ele>
        <time>2021-08-14T08:17:37.000Z</time>
      </trkpt>
      <trkpt lat="49.87279" lon="4.83294">
        <ele>326</ele>
        <time>2021-08-14T08:17:38.000Z</time>
      </trkpt>
      <trkpt lat="49.87279" lon="4.83288">
        <ele>326</ele>
        <time>2021-08-14T08:17:39.000Z</time>
      </trkpt>
      <trkpt lat="49.87278" lon="4.83282">
        <ele>326</ele>
        <time>2021-08-14T08:17:40.000Z</time>
      </trkpt>
      <trkpt lat="49.87277" lon="4.83275">
        <ele>326</ele>
        <time>2021-08-14T08:17:41.000Z</time>
      </trkpt>
      <trkpt lat="49.87276" lon="4.83269">
        <ele>326</ele>
        <time>2021-08-14T08:17:42.000Z</time>
      </trkpt>
      <trkpt lat="49.87276" lon="4.83264">
        <ele>327</ele>
        <time>2021-08-14T08:17:43.000Z</time>
      </trkpt>
      <trkpt lat="49.87275" lon="4.83259">
        <ele>327</ele>
        <time>2021-08-14T08:17:44.000Z</time>
      </trkpt>
      <trkpt lat="49.87275" lon="4.83253">
        <ele>327</ele>
        <time>2021-08-14T08:17:45.000Z</time>
      </trkpt>
      <trkpt lat="49.87274" lon="4.83247">
        <ele>327</ele>
        <time>2021-08-14T08:17:46.000Z</time>
      </trkpt>
      <trkpt lat="49.87273" lon="4.83241">
        <ele>327</ele>
        <time>2021-08-14T08:17:47.000Z</time>
      </trkpt>
      <trkpt lat="49.87273" lon="4.83235">
        <ele>327</ele>
        <time>2021-08-14T08:17:48.000Z</time>
      </trkpt>
      <trkpt lat="49.87272" lon="4.8323">
        <ele>327</ele>
        <time>2021-08-14T08:17:49.000Z</time>
      </trkpt>
      <trkpt lat="49.87271" lon="4.83226">
        <ele>328</ele>
        <time>2021-08-14T08:17:50.000Z</time>
      </trkpt>
      <trkpt lat="49.8727" lon="4.8322">
        <ele>328</ele>
        <time>2021-08-14T08:17:51.000Z</time>
      </trkpt>
      <trkpt lat="49.87268" lon="4.83215">
        <ele>328</ele>
        <time>2021-08-14T08:17:52.000Z</time>
      </trkpt>
      <trkpt lat="49.87267" lon="4.8321">
        <ele>328</ele>
        <time>2021-08-14T08:17:53.000Z</time>
      </trkpt>
      <trkpt lat="49.87266" lon="4.83205">
        <ele>328</ele>
        <time>2021-08-14T08:17:54.000Z</time>
      </trkpt>
      <trkpt lat="49.87265" lon="4.832">
        <ele>328</ele>
        <time>2021-08-14T08:17:55.000Z</time>
      </trkpt>
      <trkpt lat="49.87264" lon="4.83194">
        <ele>328</ele>
        <time>2021-08-14T08:17:56.000Z</time>
      </trkpt>
      <trkpt lat="49.87264" lon="4.83188">
        <ele>328</ele>
        <time>2021-08-14T08:17:57.000Z</time>
      </trkpt>
      <trkpt lat="49.87263" lon="4.83182">
        <ele>328</ele>
        <time>2021-08-14T08:17:58.000Z</time>
      </trkpt>
      <trkpt lat="49.87263" lon="4.83176">
        <ele>328</ele>
        <time>2021-08-14T08:17:59.000Z</time>
      </trkpt>
      <trkpt lat="49.87263" lon="4.8317">
        <ele>328</ele>
        <time>2021-08-14T08:18:00.000Z</time>
      </trkpt>
      <trkpt lat="49.87263" lon="4.83164">
        <ele>329</ele>
        <time>2021-08-14T08:18:01.000Z</time>
      </trkpt>
      <trkpt lat="49.87263" lon="4.83158">
        <ele>329</ele>
        <time>2021-08-14T08:18:02.000Z</time>
      </trkpt>
      <trkpt lat="49.87263" lon="4.83152">
        <ele>329</ele>
        <time>2021-08-14T08:18:03.000Z</time>
      </trkpt>
      <trkpt lat="49.87262" lon="4.83146">
        <ele>329</ele>
        <time>2021-08-14T08:18:04.000Z</time>
      </trkpt>
      <trkpt lat="49.87262" lon="4.83141">
        <ele>329</ele>
        <time>2021-08-14T08:18:05.000Z</time>
      </trkpt>
      <trkpt lat="49.87261" lon="4.83136">
        <ele>329</ele>
        <time>2021-08-14T08:18:06.000Z</time>
      </trkpt>
      <trkpt lat="49.87261" lon="4.8313">
        <ele>329</ele>
        <time>2021-08-14T08:18:07.000Z</time>
      </trkpt>
      <trkpt lat="49.87261" lon="4.83124">
        <ele>330</ele>
        <time>2021-08-14T08:18:08.000Z</time>
      </trkpt>
      <trkpt lat="49.87261" lon="4.83118">
        <ele>330</ele>
        <time>2021-08-14T08:18:09.000Z</time>
      </trkpt>
      <trkpt lat="49.87261" lon="4.83112">
        <ele>330</ele>
        <time>2021-08-14T08:18:10.000Z</time>
      </trkpt>
      <trkpt lat="49.87261" lon="4.83107">
        <ele>330</ele>
        <time>2021-08-14T08:18:11.000Z</time>
      </trkpt>
      <trkpt lat="49.87261" lon="4.83101">
        <ele>331</ele>
        <time>2021-08-14T08:18:12.000Z</time>
      </trkpt>
      <trkpt lat="49.87262" lon="4.83096">
        <ele>331</ele>
        <time>2021-08-14T08:18:13.000Z</time>
      </trkpt>
      <trkpt lat="49.87262" lon="4.83091">
        <ele>331</ele>
        <time>2021-08-14T08:18:14.000Z</time>
      </trkpt>
      <trkpt lat="49.87262" lon="4.83087">
        <ele>331</ele>
        <time>2021-08-14T08:18:15.000Z</time>
      </trkpt>
      <trkpt lat="49.87262" lon="4.83083">
        <ele>332</ele>
        <time>2021-08-14T08:18:16.000Z</time>
      </trkpt>
      <trkpt lat="49.87262" lon="4.83079">
        <ele>332</ele>
        <time>2021-08-14T08:18:17.000Z</time>
      </trkpt>
      <trkpt lat="49.87262" lon="4.83075">
        <ele>332</ele>
        <time>2021-08-14T08:18:18.000Z</time>
      </trkpt>
      <trkpt lat="49.87262" lon="4.83071">
        <ele>332</ele>
        <time>2021-08-14T08:18:19.000Z</time>
      </trkpt>
      <trkpt lat="49.87262" lon="4.83067">
        <ele>332</ele>
        <time>2021-08-14T08:18:20.000Z</time>
      </trkpt>
      <trkpt lat="49.87262" lon="4.83063">
        <ele>332</ele>
        <time>2021-08-14T08:18:21.000Z</time>
      </trkpt>
      <trkpt lat="49.87262" lon="4.83059">
        <ele>332</ele>
        <time>2021-08-14T08:18:22.000Z</time>
      </trkpt>
      <trkpt lat="49.87263" lon="4.83054">
        <ele>332</ele>
        <time>2021-08-14T08:18:23.000Z</time>
      </trkpt>
      <trkpt lat="49.87263" lon="4.83051">
        <ele>332</ele>
        <time>2021-08-14T08:18:24.000Z</time>
      </trkpt>
      <trkpt lat="49.87264" lon="4.83048">
        <ele>332</ele>
        <time>2021-08-14T08:18:25.000Z</time>
      </trkpt>
      <trkpt lat="49.87265" lon="4.83044">
        <ele>333</ele>
        <time>2021-08-14T08:18:26.000Z</time>
      </trkpt>
      <trkpt lat="49.87266" lon="4.83039">
        <ele>333</ele>
        <time>2021-08-14T08:18:27.000Z</time>
      </trkpt>
      <trkpt lat="49.87266" lon="4.83034">
        <ele>333</ele>
        <time>2021-08-14T08:18:28.000Z</time>
      </trkpt>
      <trkpt lat="49.87267" lon="4.83029">
        <ele>333</ele>
        <time>2021-08-14T08:18:29.000Z</time>
      </trkpt>
      <trkpt lat="49.87267" lon="4.83024">
        <ele>333</ele>
        <time>2021-08-14T08:18:30.000Z</time>
      </trkpt>
      <trkpt lat="49.87268" lon="4.83019">
        <ele>333</ele>
        <time>2021-08-14T08:18:31.000Z</time>
      </trkpt>
      <trkpt lat="49.87268" lon="4.83014">
        <ele>333</ele>
        <time>2021-08-14T08:18:32.000Z</time>
      </trkpt>
      <trkpt lat="49.87268" lon="4.83008">
        <ele>333</ele>
        <time>2021-08-14T08:18:33.000Z</time>
      </trkpt>
      <trkpt lat="49.87269" lon="4.83003">
        <ele>334</ele>
        <time>2021-08-14T08:18:34.000Z</time>
      </trkpt>
      <trkpt lat="49.87269" lon="4.82997">
        <ele>334</ele>
        <time>2021-08-14T08:18:35.000Z</time>
      </trkpt>
      <trkpt lat="49.8727" lon="4.82992">
        <ele>334</ele>
        <time>2021-08-14T08:18:36.000Z</time>
      </trkpt>
      <trkpt lat="49.8727" lon="4.82987">
        <ele>334</ele>
        <time>2021-08-14T08:18:37.000Z</time>
      </trkpt>
      <trkpt lat="49.8727" lon="4.82981">
        <ele>334</ele>
        <time>2021-08-14T08:18:38.000Z</time>
      </trkpt>
      <trkpt lat="49.8727" lon="4.82975">
        <ele>334</ele>
        <time>2021-08-14T08:18:39.000Z</time>
      </trkpt>
      <trkpt lat="49.8727" lon="4.8297">
        <ele>334</ele>
        <time>2021-08-14T08:18:40.000Z</time>
      </trkpt>
      <trkpt lat="49.8727" lon="4.82963">
        <ele>335</ele>
        <time>2021-08-14T08:18:41.000Z</time>
      </trkpt>
      <trkpt lat="49.8727" lon="4.82957">
        <ele>335</ele>
        <time>2021-08-14T08:18:42.000Z</time>
      </trkpt>
      <trkpt lat="49.8727" lon="4.8295">
        <ele>335</ele>
        <time>2021-08-14T08:18:43.000Z</time>
      </trkpt>
      <trkpt lat="49.8727" lon="4.82944">
        <ele>335</ele>
        <time>2021-08-14T08:18:44.000Z</time>
      </trkpt>
      <trkpt lat="49.87271" lon="4.82937">
        <ele>335</ele>
        <time>2021-08-14T08:18:45.000Z</time>
      </trkpt>
      <trkpt lat="49.87271" lon="4.82929">
        <ele>335</ele>
        <time>2021-08-14T08:18:46.000Z</time>
      </trkpt>
      <trkpt lat="49.87271" lon="4.82922">
        <ele>335</ele>
        <time>2021-08-14T08:18:47.000Z</time>
      </trkpt>
      <trkpt lat="49.87271" lon="4.82913">
        <ele>334</ele>
        <time>2021-08-14T08:18:48.000Z</time>
      </trkpt>
      <trkpt lat="49.87271" lon="4.82904">
        <ele>334</ele>
        <time>2021-08-14T08:18:49.000Z</time>
      </trkpt>
      <trkpt lat="49.87272" lon="4.82895">
        <ele>334</ele>
        <time>2021-08-14T08:18:50.000Z</time>
      </trkpt>
      <trkpt lat="49.87272" lon="4.82885">
        <ele>334</ele>
        <time>2021-08-14T08:18:51.000Z</time>
      </trkpt>
      <trkpt lat="49.87273" lon="4.82874">
        <ele>334</ele>
        <time>2021-08-14T08:18:52.000Z</time>
      </trkpt>
      <trkpt lat="49.87273" lon="4.82864">
        <ele>333</ele>
        <time>2021-08-14T08:18:53.000Z</time>
      </trkpt>
      <trkpt lat="49.87274" lon="4.82853">
        <ele>333</ele>
        <time>2021-08-14T08:18:54.000Z</time>
      </trkpt>
      <trkpt lat="49.87274" lon="4.82842">
        <ele>333</ele>
        <time>2021-08-14T08:18:55.000Z</time>
      </trkpt>
      <trkpt lat="49.87275" lon="4.82831">
        <ele>333</ele>
        <time>2021-08-14T08:18:56.000Z</time>
      </trkpt>
      <trkpt lat="49.87276" lon="4.8282">
        <ele>332</ele>
        <time>2021-08-14T08:18:57.000Z</time>
      </trkpt>
      <trkpt lat="49.87276" lon="4.82809">
        <ele>332</ele>
        <time>2021-08-14T08:18:58.000Z</time>
      </trkpt>
      <trkpt lat="49.87277" lon="4.82797">
        <ele>332</ele>
        <time>2021-08-14T08:18:59.000Z</time>
      </trkpt>
      <trkpt lat="49.87278" lon="4.82786">
        <ele>331</ele>
        <time>2021-08-14T08:19:00.000Z</time>
      </trkpt>
      <trkpt lat="49.87279" lon="4.82774">
        <ele>331</ele>
        <time>2021-08-14T08:19:01.000Z</time>
      </trkpt>
      <trkpt lat="49.87282" lon="4.82763">
        <ele>330</ele>
        <time>2021-08-14T08:19:02.000Z</time>
      </trkpt>
      <trkpt lat="49.87285" lon="4.82752">
        <ele>329</ele>
        <time>2021-08-14T08:19:03.000Z</time>
      </trkpt>
      <trkpt lat="49.87289" lon="4.82743">
        <ele>328</ele>
        <time>2021-08-14T08:19:04.000Z</time>
      </trkpt>
      <trkpt lat="49.87293" lon="4.82736">
        <ele>328</ele>
        <time>2021-08-14T08:19:05.000Z</time>
      </trkpt>
      <trkpt lat="49.87297" lon="4.82728">
        <ele>327</ele>
        <time>2021-08-14T08:19:06.000Z</time>
      </trkpt>
      <trkpt lat="49.87302" lon="4.82721">
        <ele>326</ele>
        <time>2021-08-14T08:19:07.000Z</time>
      </trkpt>
      <trkpt lat="49.87307" lon="4.82715">
        <ele>326</ele>
        <time>2021-08-14T08:19:08.000Z</time>
      </trkpt>
      <trkpt lat="49.87312" lon="4.8271">
        <ele>325</ele>
        <time>2021-08-14T08:19:09.000Z</time>
      </trkpt>
      <trkpt lat="49.87318" lon="4.82704">
        <ele>325</ele>
        <time>2021-08-14T08:19:10.000Z</time>
      </trkpt>
      <trkpt lat="49.87323" lon="4.82699">
        <ele>324</ele>
        <time>2021-08-14T08:19:11.000Z</time>
      </trkpt>
      <trkpt lat="49.87329" lon="4.82694">
        <ele>323</ele>
        <time>2021-08-14T08:19:12.000Z</time>
      </trkpt>
      <trkpt lat="49.87334" lon="4.82689">
        <ele>323</ele>
        <time>2021-08-14T08:19:13.000Z</time>
      </trkpt>
      <trkpt lat="49.87338" lon="4.82684">
        <ele>323</ele>
        <time>2021-08-14T08:19:14.000Z</time>
      </trkpt>
      <trkpt lat="49.87342" lon="4.8268">
        <ele>322</ele>
        <time>2021-08-14T08:19:15.000Z</time>
      </trkpt>
      <trkpt lat="49.87344" lon="4.82678">
        <ele>322</ele>
        <time>2021-08-14T08:19:16.000Z</time>
      </trkpt>
      <trkpt lat="49.87347" lon="4.82677">
        <ele>322</ele>
        <time>2021-08-14T08:19:17.000Z</time>
      </trkpt>
      <trkpt lat="49.8735" lon="4.82676">
        <ele>321</ele>
        <time>2021-08-14T08:19:18.000Z</time>
      </trkpt>
      <trkpt lat="49.87352" lon="4.82677">
        <ele>321</ele>
        <time>2021-08-14T08:19:19.000Z</time>
      </trkpt>
      <trkpt lat="49.87354" lon="4.82678">
        <ele>321</ele>
        <time>2021-08-14T08:19:20.000Z</time>
      </trkpt>
      <trkpt lat="49.87355" lon="4.82679">
        <ele>320</ele>
        <time>2021-08-14T08:19:21.000Z</time>
      </trkpt>
      <trkpt lat="49.87356" lon="4.8268">
        <ele>320</ele>
        <time>2021-08-14T08:19:22.000Z</time>
      </trkpt>
      <trkpt lat="49.87357" lon="4.82682">
        <ele>320</ele>
        <time>2021-08-14T08:19:23.000Z</time>
      </trkpt>
      <trkpt lat="49.87359" lon="4.82684">
        <ele>320</ele>
        <time>2021-08-14T08:19:24.000Z</time>
      </trkpt>
      <trkpt lat="49.8736" lon="4.82686">
        <ele>320</ele>
        <time>2021-08-14T08:19:25.000Z</time>
      </trkpt>
      <trkpt lat="49.87361" lon="4.82687">
        <ele>319</ele>
        <time>2021-08-14T08:19:26.000Z</time>
      </trkpt>
      <trkpt lat="49.87364" lon="4.82688">
        <ele>319</ele>
        <time>2021-08-14T08:19:27.000Z</time>
      </trkpt>
      <trkpt lat="49.87366" lon="4.82689">
        <ele>319</ele>
        <time>2021-08-14T08:19:28.000Z</time>
      </trkpt>
      <trkpt lat="49.87369" lon="4.82689">
        <ele>319</ele>
        <time>2021-08-14T08:19:29.000Z</time>
      </trkpt>
      <trkpt lat="49.87372" lon="4.82688">
        <ele>319</ele>
        <time>2021-08-14T08:19:30.000Z</time>
      </trkpt>
      <trkpt lat="49.87375" lon="4.82689">
        <ele>319</ele>
        <time>2021-08-14T08:19:31.000Z</time>
      </trkpt>
      <trkpt lat="49.87379" lon="4.82689">
        <ele>319</ele>
        <time>2021-08-14T08:19:32.000Z</time>
      </trkpt>
      <trkpt lat="49.87383" lon="4.82689">
        <ele>319</ele>
        <time>2021-08-14T08:19:33.000Z</time>
      </trkpt>
      <trkpt lat="49.87386" lon="4.82689">
        <ele>319</ele>
        <time>2021-08-14T08:19:34.000Z</time>
      </trkpt>
      <trkpt lat="49.87389" lon="4.82689">
        <ele>319</ele>
        <time>2021-08-14T08:19:35.000Z</time>
      </trkpt>
      <trkpt lat="49.87393" lon="4.82688">
        <ele>318</ele>
        <time>2021-08-14T08:19:36.000Z</time>
      </trkpt>
      <trkpt lat="49.87397" lon="4.82687">
        <ele>318</ele>
        <time>2021-08-14T08:19:37.000Z</time>
      </trkpt>
      <trkpt lat="49.874" lon="4.82686">
        <ele>318</ele>
        <time>2021-08-14T08:19:38.000Z</time>
      </trkpt>
      <trkpt lat="49.87403" lon="4.82685">
        <ele>318</ele>
        <time>2021-08-14T08:19:39.000Z</time>
      </trkpt>
      <trkpt lat="49.87406" lon="4.82684">
        <ele>317</ele>
        <time>2021-08-14T08:19:40.000Z</time>
      </trkpt>
      <trkpt lat="49.87409" lon="4.82685">
        <ele>317</ele>
        <time>2021-08-14T08:19:41.000Z</time>
      </trkpt>
      <trkpt lat="49.87412" lon="4.82683">
        <ele>317</ele>
        <time>2021-08-14T08:19:42.000Z</time>
      </trkpt>
      <trkpt lat="49.87416" lon="4.82682">
        <ele>317</ele>
        <time>2021-08-14T08:19:43.000Z</time>
      </trkpt>
      <trkpt lat="49.8742" lon="4.82682">
        <ele>317</ele>
        <time>2021-08-14T08:19:44.000Z</time>
      </trkpt>
      <trkpt lat="49.87423" lon="4.8268">
        <ele>317</ele>
        <time>2021-08-14T08:19:45.000Z</time>
      </trkpt>
      <trkpt lat="49.87427" lon="4.82678">
        <ele>316</ele>
        <time>2021-08-14T08:19:46.000Z</time>
      </trkpt>
      <trkpt lat="49.87431" lon="4.82676">
        <ele>316</ele>
        <time>2021-08-14T08:19:47.000Z</time>
      </trkpt>
      <trkpt lat="49.87435" lon="4.82674">
        <ele>316</ele>
        <time>2021-08-14T08:19:48.000Z</time>
      </trkpt>
      <trkpt lat="49.87437" lon="4.82671">
        <ele>316</ele>
        <time>2021-08-14T08:19:49.000Z</time>
      </trkpt>
      <trkpt lat="49.87438" lon="4.82668">
        <ele>316</ele>
        <time>2021-08-14T08:19:50.000Z</time>
      </trkpt>
      <trkpt lat="49.8744" lon="4.82664">
        <ele>315</ele>
        <time>2021-08-14T08:19:51.000Z</time>
      </trkpt>
      <trkpt lat="49.87441" lon="4.82659">
        <ele>315</ele>
        <time>2021-08-14T08:19:52.000Z</time>
      </trkpt>
      <trkpt lat="49.87442" lon="4.82652">
        <ele>315</ele>
        <time>2021-08-14T08:19:53.000Z</time>
      </trkpt>
      <trkpt lat="49.87443" lon="4.82645">
        <ele>315</ele>
        <time>2021-08-14T08:19:54.000Z</time>
      </trkpt>
      <trkpt lat="49.87445" lon="4.82639">
        <ele>314</ele>
        <time>2021-08-14T08:19:55.000Z</time>
      </trkpt>
      <trkpt lat="49.87448" lon="4.82633">
        <ele>314</ele>
        <time>2021-08-14T08:19:56.000Z</time>
      </trkpt>
      <trkpt lat="49.87453" lon="4.82628">
        <ele>314</ele>
        <time>2021-08-14T08:19:57.000Z</time>
      </trkpt>
      <trkpt lat="49.87456" lon="4.82624">
        <ele>313</ele>
        <time>2021-08-14T08:19:58.000Z</time>
      </trkpt>
      <trkpt lat="49.87459" lon="4.8262">
        <ele>313</ele>
        <time>2021-08-14T08:19:59.000Z</time>
      </trkpt>
      <trkpt lat="49.87462" lon="4.82616">
        <ele>312</ele>
        <time>2021-08-14T08:20:00.000Z</time>
      </trkpt>
      <trkpt lat="49.87463" lon="4.82612">
        <ele>312</ele>
        <time>2021-08-14T08:20:01.000Z</time>
      </trkpt>
      <trkpt lat="49.87465" lon="4.82609">
        <ele>311</ele>
        <time>2021-08-14T08:20:02.000Z</time>
      </trkpt>
      <trkpt lat="49.87468" lon="4.82606">
        <ele>311</ele>
        <time>2021-08-14T08:20:03.000Z</time>
      </trkpt>
      <trkpt lat="49.87471" lon="4.82604">
        <ele>310</ele>
        <time>2021-08-14T08:20:04.000Z</time>
      </trkpt>
      <trkpt lat="49.87473" lon="4.82599">
        <ele>310</ele>
        <time>2021-08-14T08:20:05.000Z</time>
      </trkpt>
      <trkpt lat="49.87475" lon="4.82594">
        <ele>309</ele>
        <time>2021-08-14T08:20:06.000Z</time>
      </trkpt>
      <trkpt lat="49.87478" lon="4.8259">
        <ele>309</ele>
        <time>2021-08-14T08:20:07.000Z</time>
      </trkpt>
      <trkpt lat="49.8748" lon="4.82584">
        <ele>308</ele>
        <time>2021-08-14T08:20:08.000Z</time>
      </trkpt>
      <trkpt lat="49.87483" lon="4.82579">
        <ele>308</ele>
        <time>2021-08-14T08:20:09.000Z</time>
      </trkpt>
      <trkpt lat="49.87486" lon="4.82573">
        <ele>307</ele>
        <time>2021-08-14T08:20:10.000Z</time>
      </trkpt>
      <trkpt lat="49.8749" lon="4.82568">
        <ele>306</ele>
        <time>2021-08-14T08:20:11.000Z</time>
      </trkpt>
      <trkpt lat="49.87493" lon="4.82562">
        <ele>306</ele>
        <time>2021-08-14T08:20:12.000Z</time>
      </trkpt>
      <trkpt lat="49.87496" lon="4.82556">
        <ele>305</ele>
        <time>2021-08-14T08:20:13.000Z</time>
      </trkpt>
      <trkpt lat="49.87499" lon="4.82551">
        <ele>305</ele>
        <time>2021-08-14T08:20:14.000Z</time>
      </trkpt>
      <trkpt lat="49.87501" lon="4.82546">
        <ele>305</ele>
        <time>2021-08-14T08:20:15.000Z</time>
      </trkpt>
      <trkpt lat="49.87503" lon="4.82542">
        <ele>304</ele>
        <time>2021-08-14T08:20:16.000Z</time>
      </trkpt>
      <trkpt lat="49.87506" lon="4.82539">
        <ele>304</ele>
        <time>2021-08-14T08:20:17.000Z</time>
      </trkpt>
      <trkpt lat="49.87508" lon="4.82537">
        <ele>304</ele>
        <time>2021-08-14T08:20:18.000Z</time>
      </trkpt>
      <trkpt lat="49.87509" lon="4.82534">
        <ele>303</ele>
        <time>2021-08-14T08:20:19.000Z</time>
      </trkpt>
      <trkpt lat="49.87511" lon="4.82532">
        <ele>303</ele>
        <time>2021-08-14T08:20:20.000Z</time>
      </trkpt>
      <trkpt lat="49.87514" lon="4.82531">
        <ele>303</ele>
        <time>2021-08-14T08:20:21.000Z</time>
      </trkpt>
      <trkpt lat="49.87516" lon="4.82531">
        <ele>303</ele>
        <time>2021-08-14T08:20:22.000Z</time>
      </trkpt>
      <trkpt lat="49.87517" lon="4.8253">
        <ele>302</ele>
        <time>2021-08-14T08:20:23.000Z</time>
      </trkpt>
      <trkpt lat="49.87518" lon="4.82528">
        <ele>302</ele>
        <time>2021-08-14T08:20:24.000Z</time>
      </trkpt>
      <trkpt lat="49.87519" lon="4.82525">
        <ele>302</ele>
        <time>2021-08-14T08:20:25.000Z</time>
      </trkpt>
      <trkpt lat="49.87519" lon="4.82521">
        <ele>301</ele>
        <time>2021-08-14T08:20:26.000Z</time>
      </trkpt>
      <trkpt lat="49.87519" lon="4.82517">
        <ele>301</ele>
        <time>2021-08-14T08:20:27.000Z</time>
      </trkpt>
      <trkpt lat="49.8752" lon="4.82513">
        <ele>300</ele>
        <time>2021-08-14T08:20:28.000Z</time>
      </trkpt>
      <trkpt lat="49.8752" lon="4.8251">
        <ele>300</ele>
        <time>2021-08-14T08:20:29.000Z</time>
      </trkpt>
      <trkpt lat="49.87521" lon="4.82508">
        <ele>300</ele>
        <time>2021-08-14T08:20:30.000Z</time>
      </trkpt>
      <trkpt lat="49.87522" lon="4.82506">
        <ele>300</ele>
        <time>2021-08-14T08:20:31.000Z</time>
      </trkpt>
      <trkpt lat="49.87523" lon="4.82504">
        <ele>299</ele>
        <time>2021-08-14T08:20:32.000Z</time>
      </trkpt>
      <trkpt lat="49.87524" lon="4.82503">
        <ele>299</ele>
        <time>2021-08-14T08:20:33.000Z</time>
      </trkpt>
      <trkpt lat="49.87524" lon="4.82502">
        <ele>299</ele>
        <time>2021-08-14T08:20:34.000Z</time>
      </trkpt>
      <trkpt lat="49.87524" lon="4.82499">
        <ele>299</ele>
        <time>2021-08-14T08:20:35.000Z</time>
      </trkpt>
      <trkpt lat="49.87525" lon="4.82497">
        <ele>298</ele>
        <time>2021-08-14T08:20:36.000Z</time>
      </trkpt>
      <trkpt lat="49.87526" lon="4.82495">
        <ele>298</ele>
        <time>2021-08-14T08:20:37.000Z</time>
      </trkpt>
      <trkpt lat="49.87527" lon="4.82491">
        <ele>298</ele>
        <time>2021-08-14T08:20:38.000Z</time>
      </trkpt>
      <trkpt lat="49.87528" lon="4.82489">
        <ele>298</ele>
        <time>2021-08-14T08:20:39.000Z</time>
      </trkpt>
      <trkpt lat="49.87529" lon="4.82488">
        <ele>298</ele>
        <time>2021-08-14T08:20:40.000Z</time>
      </trkpt>
      <trkpt lat="49.87529" lon="4.82488">
        <ele>297</ele>
        <time>2021-08-14T08:20:41.000Z</time>
      </trkpt>
      <trkpt lat="49.87529" lon="4.82487">
        <ele>297</ele>
        <time>2021-08-14T08:20:42.000Z</time>
      </trkpt>
      <trkpt lat="49.87529" lon="4.82487">
        <ele>297</ele>
        <time>2021-08-14T08:20:43.000Z</time>
      </trkpt>
      <trkpt lat="49.87529" lon="4.82487">
        <ele>297</ele>
        <time>2021-08-14T08:20:44.000Z</time>
      </trkpt>
      <trkpt lat="49.87529" lon="4.82488">
        <ele>297</ele>
        <time>2021-08-14T08:20:45.000Z</time>
      </trkpt>
      <trkpt lat="49.87528" lon="4.82488">
        <ele>297</ele>
        <time>2021-08-14T08:20:46.000Z</time>
      </trkpt>
      <trkpt lat="49.87527" lon="4.82488">
        <ele>297</ele>
        <time>2021-08-14T08:20:47.000Z</time>
      </trkpt>
      <trkpt lat="49.87527" lon="4.82487">
        <ele>296</ele>
        <time>2021-08-14T08:20:48.000Z</time>
      </trkpt>
      <trkpt lat="49.87526" lon="4.82486">
        <ele>296</ele>
        <time>2021-08-14T08:20:49.000Z</time>
      </trkpt>
      <trkpt lat="49.87525" lon="4.82486">
        <ele>296</ele>
        <time>2021-08-14T08:20:50.000Z</time>
      </trkpt>
      <trkpt lat="49.87523" lon="4.82486">
        <ele>296</ele>
        <time>2021-08-14T08:20:51.000Z</time>
      </trkpt>
      <trkpt lat="49.87521" lon="4.82486">
        <ele>296</ele>
        <time>2021-08-14T08:20:52.000Z</time>
      </trkpt>
      <trkpt lat="49.8752" lon="4.82487">
        <ele>295</ele>
        <time>2021-08-14T08:20:53.000Z</time>
      </trkpt>
      <trkpt lat="49.87519" lon="4.82486">
        <ele>295</ele>
        <time>2021-08-14T08:20:54.000Z</time>
      </trkpt>
      <trkpt lat="49.87518" lon="4.82486">
        <ele>295</ele>
        <time>2021-08-14T08:20:55.000Z</time>
      </trkpt>
      <trkpt lat="49.87518" lon="4.82487">
        <ele>295</ele>
        <time>2021-08-14T08:20:56.000Z</time>
      </trkpt>
      <trkpt lat="49.87517" lon="4.82487">
        <ele>295</ele>
        <time>2021-08-14T08:20:57.000Z</time>
      </trkpt>
      <trkpt lat="49.87517" lon="4.82487">
        <ele>294</ele>
        <time>2021-08-14T08:20:58.000Z</time>
      </trkpt>
      <trkpt lat="49.87517" lon="4.82487">
        <ele>294</ele>
        <time>2021-08-14T08:20:59.000Z</time>
      </trkpt>
      <trkpt lat="49.87517" lon="4.82487">
        <ele>294</ele>
        <time>2021-08-14T08:21:00.000Z</time>
      </trkpt>
      <trkpt lat="49.87516" lon="4.82487">
        <ele>294</ele>
        <time>2021-08-14T08:21:01.000Z</time>
      </trkpt>
      <trkpt lat="49.87515" lon="4.82488">
        <ele>294</ele>
        <time>2021-08-14T08:21:02.000Z</time>
      </trkpt>
      <trkpt lat="49.87515" lon="4.82489">
        <ele>294</ele>
        <time>2021-08-14T08:21:03.000Z</time>
      </trkpt>
      <trkpt lat="49.87514" lon="4.82489">
        <ele>294</ele>
        <time>2021-08-14T08:21:04.000Z</time>
      </trkpt>
      <trkpt lat="49.87514" lon="4.82489">
        <ele>293</ele>
        <time>2021-08-14T08:21:05.000Z</time>
      </trkpt>
      <trkpt lat="49.87513" lon="4.82489">
        <ele>293</ele>
        <time>2021-08-14T08:21:06.000Z</time>
      </trkpt>
      <trkpt lat="49.87512" lon="4.82489">
        <ele>293</ele>
        <time>2021-08-14T08:21:07.000Z</time>
      </trkpt>
      <trkpt lat="49.87511" lon="4.82486">
        <ele>293</ele>
        <time>2021-08-14T08:21:08.000Z</time>
      </trkpt>
      <trkpt lat="49.87511" lon="4.82483">
        <ele>293</ele>
        <time>2021-08-14T08:21:09.000Z</time>
      </trkpt>
      <trkpt lat="49.87512" lon="4.82479">
        <ele>292</ele>
        <time>2021-08-14T08:21:10.000Z</time>
      </trkpt>
      <trkpt lat="49.87514" lon="4.82477">
        <ele>292</ele>
        <time>2021-08-14T08:21:11.000Z</time>
      </trkpt>
      <trkpt lat="49.87515" lon="4.82476">
        <ele>292</ele>
        <time>2021-08-14T08:21:12.000Z</time>
      </trkpt>
      <trkpt lat="49.87517" lon="4.82475">
        <ele>292</ele>
        <time>2021-08-14T08:21:13.000Z</time>
      </trkpt>
      <trkpt lat="49.87518" lon="4.82474">
        <ele>292</ele>
        <time>2021-08-14T08:21:14.000Z</time>
      </trkpt>
      <trkpt lat="49.8752" lon="4.82471">
        <ele>292</ele>
        <time>2021-08-14T08:21:15.000Z</time>
      </trkpt>
      <trkpt lat="49.87522" lon="4.82469">
        <ele>291</ele>
        <time>2021-08-14T08:21:16.000Z</time>
      </trkpt>
      <trkpt lat="49.87525" lon="4.82466">
        <ele>291</ele>
        <time>2021-08-14T08:21:17.000Z</time>
      </trkpt>
      <trkpt lat="49.87527" lon="4.82464">
        <ele>291</ele>
        <time>2021-08-14T08:21:18.000Z</time>
      </trkpt>
      <trkpt lat="49.87529" lon="4.8246">
        <ele>291</ele>
        <time>2021-08-14T08:21:19.000Z</time>
      </trkpt>
      <trkpt lat="49.87532" lon="4.82457">
        <ele>291</ele>
        <time>2021-08-14T08:21:20.000Z</time>
      </trkpt>
      <trkpt lat="49.87535" lon="4.82454">
        <ele>290</ele>
        <time>2021-08-14T08:21:21.000Z</time>
      </trkpt>
      <trkpt lat="49.87538" lon="4.82451">
        <ele>290</ele>
        <time>2021-08-14T08:21:22.000Z</time>
      </trkpt>
      <trkpt lat="49.87539" lon="4.82448">
        <ele>290</ele>
        <time>2021-08-14T08:21:23.000Z</time>
      </trkpt>
      <trkpt lat="49.87542" lon="4.82445">
        <ele>290</ele>
        <time>2021-08-14T08:21:24.000Z</time>
      </trkpt>
      <trkpt lat="49.87544" lon="4.82443">
        <ele>290</ele>
        <time>2021-08-14T08:21:25.000Z</time>
      </trkpt>
      <trkpt lat="49.87546" lon="4.82441">
        <ele>290</ele>
        <time>2021-08-14T08:21:26.000Z</time>
      </trkpt>
      <trkpt lat="49.87548" lon="4.8244">
        <ele>290</ele>
        <time>2021-08-14T08:21:27.000Z</time>
      </trkpt>
      <trkpt lat="49.87549" lon="4.82438">
        <ele>290</ele>
        <time>2021-08-14T08:21:28.000Z</time>
      </trkpt>
      <trkpt lat="49.8755" lon="4.82435">
        <ele>289</ele>
        <time>2021-08-14T08:21:29.000Z</time>
      </trkpt>
      <trkpt lat="49.8755" lon="4.82431">
        <ele>289</ele>
        <time>2021-08-14T08:21:30.000Z</time>
      </trkpt>
      <trkpt lat="49.87552" lon="4.82429">
        <ele>289</ele>
        <time>2021-08-14T08:21:31.000Z</time>
      </trkpt>
      <trkpt lat="49.87554" lon="4.82426">
        <ele>289</ele>
        <time>2021-08-14T08:21:32.000Z</time>
      </trkpt>
      <trkpt lat="49.87556" lon="4.82422">
        <ele>289</ele>
        <time>2021-08-14T08:21:33.000Z</time>
      </trkpt>
      <trkpt lat="49.87559" lon="4.82418">
        <ele>288</ele>
        <time>2021-08-14T08:21:34.000Z</time>
      </trkpt>
      <trkpt lat="49.87561" lon="4.82415">
        <ele>288</ele>
        <time>2021-08-14T08:21:35.000Z</time>
      </trkpt>
      <trkpt lat="49.87564" lon="4.82411">
        <ele>288</ele>
        <time>2021-08-14T08:21:36.000Z</time>
      </trkpt>
      <trkpt lat="49.87565" lon="4.82407">
        <ele>287</ele>
        <time>2021-08-14T08:21:37.000Z</time>
      </trkpt>
      <trkpt lat="49.87567" lon="4.82402">
        <ele>287</ele>
        <time>2021-08-14T08:21:38.000Z</time>
      </trkpt>
      <trkpt lat="49.87569" lon="4.82398">
        <ele>286</ele>
        <time>2021-08-14T08:21:39.000Z</time>
      </trkpt>
      <trkpt lat="49.87572" lon="4.82395">
        <ele>286</ele>
        <time>2021-08-14T08:21:40.000Z</time>
      </trkpt>
      <trkpt lat="49.87575" lon="4.82392">
        <ele>285</ele>
        <time>2021-08-14T08:21:41.000Z</time>
      </trkpt>
      <trkpt lat="49.87579" lon="4.8239">
        <ele>285</ele>
        <time>2021-08-14T08:21:42.000Z</time>
      </trkpt>
      <trkpt lat="49.87582" lon="4.82388">
        <ele>285</ele>
        <time>2021-08-14T08:21:43.000Z</time>
      </trkpt>
      <trkpt lat="49.87584" lon="4.82387">
        <ele>285</ele>
        <time>2021-08-14T08:21:44.000Z</time>
      </trkpt>
      <trkpt lat="49.87586" lon="4.82386">
        <ele>284</ele>
        <time>2021-08-14T08:21:45.000Z</time>
      </trkpt>
      <trkpt lat="49.87587" lon="4.82386">
        <ele>284</ele>
        <time>2021-08-14T08:21:46.000Z</time>
      </trkpt>
      <trkpt lat="49.87589" lon="4.82386">
        <ele>284</ele>
        <time>2021-08-14T08:21:47.000Z</time>
      </trkpt>
      <trkpt lat="49.8759" lon="4.82385">
        <ele>283</ele>
        <time>2021-08-14T08:21:48.000Z</time>
      </trkpt>
      <trkpt lat="49.87591" lon="4.82384">
        <ele>283</ele>
        <time>2021-08-14T08:21:49.000Z</time>
      </trkpt>
      <trkpt lat="49.87592" lon="4.82382">
        <ele>283</ele>
        <time>2021-08-14T08:21:50.000Z</time>
      </trkpt>
      <trkpt lat="49.87593" lon="4.8238">
        <ele>283</ele>
        <time>2021-08-14T08:21:51.000Z</time>
      </trkpt>
      <trkpt lat="49.87594" lon="4.82378">
        <ele>282</ele>
        <time>2021-08-14T08:21:52.000Z</time>
      </trkpt>
      <trkpt lat="49.87595" lon="4.82375">
        <ele>282</ele>
        <time>2021-08-14T08:21:53.000Z</time>
      </trkpt>
      <trkpt lat="49.87596" lon="4.82371">
        <ele>282</ele>
        <time>2021-08-14T08:21:54.000Z</time>
      </trkpt>
      <trkpt lat="49.87598" lon="4.82367">
        <ele>282</ele>
        <time>2021-08-14T08:21:55.000Z</time>
      </trkpt>
      <trkpt lat="49.876" lon="4.82364">
        <ele>282</ele>
        <time>2021-08-14T08:21:56.000Z</time>
      </trkpt>
      <trkpt lat="49.87602" lon="4.82361">
        <ele>282</ele>
        <time>2021-08-14T08:21:57.000Z</time>
      </trkpt>
      <trkpt lat="49.87605" lon="4.82358">
        <ele>282</ele>
        <time>2021-08-14T08:21:58.000Z</time>
      </trkpt>
      <trkpt lat="49.87607" lon="4.82356">
        <ele>282</ele>
        <time>2021-08-14T08:21:59.000Z</time>
      </trkpt>
      <trkpt lat="49.87609" lon="4.82355">
        <ele>282</ele>
        <time>2021-08-14T08:22:00.000Z</time>
      </trkpt>
      <trkpt lat="49.8761" lon="4.82354">
        <ele>282</ele>
        <time>2021-08-14T08:22:01.000Z</time>
      </trkpt>
      <trkpt lat="49.87612" lon="4.82353">
        <ele>282</ele>
        <time>2021-08-14T08:22:02.000Z</time>
      </trkpt>
      <trkpt lat="49.87613" lon="4.82352">
        <ele>282</ele>
        <time>2021-08-14T08:22:03.000Z</time>
      </trkpt>
      <trkpt lat="49.87614" lon="4.82352">
        <ele>282</ele>
        <time>2021-08-14T08:22:04.000Z</time>
      </trkpt>
      <trkpt lat="49.87615" lon="4.82352">
        <ele>282</ele>
        <time>2021-08-14T08:22:05.000Z</time>
      </trkpt>
      <trkpt lat="49.87617" lon="4.82352">
        <ele>283</ele>
        <time>2021-08-14T08:22:06.000Z</time>
      </trkpt>
      <trkpt lat="49.87618" lon="4.82352">
        <ele>283</ele>
        <time>2021-08-14T08:22:07.000Z</time>
      </trkpt>
      <trkpt lat="49.87618" lon="4.82351">
        <ele>283</ele>
        <time>2021-08-14T08:22:08.000Z</time>
      </trkpt>
      <trkpt lat="49.87619" lon="4.82351">
        <ele>284</ele>
        <time>2021-08-14T08:22:09.000Z</time>
      </trkpt>
      <trkpt lat="49.87619" lon="4.8235">
        <ele>284</ele>
        <time>2021-08-14T08:22:10.000Z</time>
      </trkpt>
      <trkpt lat="49.8762" lon="4.82349">
        <ele>284</ele>
        <time>2021-08-14T08:22:11.000Z</time>
      </trkpt>
      <trkpt lat="49.87621" lon="4.82347">
        <ele>284</ele>
        <time>2021-08-14T08:22:12.000Z</time>
      </trkpt>
      <trkpt lat="49.87623" lon="4.82346">
        <ele>284</ele>
        <time>2021-08-14T08:22:13.000Z</time>
      </trkpt>
      <trkpt lat="49.87625" lon="4.82344">
        <ele>284</ele>
        <time>2021-08-14T08:22:14.000Z</time>
      </trkpt>
      <trkpt lat="49.87626" lon="4.82343">
        <ele>284</ele>
        <time>2021-08-14T08:22:15.000Z</time>
      </trkpt>
      <trkpt lat="49.87627" lon="4.82341">
        <ele>285</ele>
        <time>2021-08-14T08:22:16.000Z</time>
      </trkpt>
      <trkpt lat="49.87629" lon="4.8234">
        <ele>285</ele>
        <time>2021-08-14T08:22:17.000Z</time>
      </trkpt>
      <trkpt lat="49.8763" lon="4.82339">
        <ele>285</ele>
        <time>2021-08-14T08:22:18.000Z</time>
      </trkpt>
      <trkpt lat="49.87632" lon="4.82339">
        <ele>285</ele>
        <time>2021-08-14T08:22:19.000Z</time>
      </trkpt>
      <trkpt lat="49.87633" lon="4.82338">
        <ele>285</ele>
        <time>2021-08-14T08:22:20.000Z</time>
      </trkpt>
      <trkpt lat="49.87634" lon="4.82337">
        <ele>285</ele>
        <time>2021-08-14T08:22:21.000Z</time>
      </trkpt>
      <trkpt lat="49.87636" lon="4.82336">
        <ele>285</ele>
        <time>2021-08-14T08:22:22.000Z</time>
      </trkpt>
      <trkpt lat="49.87637" lon="4.82335">
        <ele>285</ele>
        <time>2021-08-14T08:22:23.000Z</time>
      </trkpt>
      <trkpt lat="49.87638" lon="4.82334">
        <ele>286</ele>
        <time>2021-08-14T08:22:24.000Z</time>
      </trkpt>
      <trkpt lat="49.87639" lon="4.82333">
        <ele>286</ele>
        <time>2021-08-14T08:22:25.000Z</time>
      </trkpt>
      <trkpt lat="49.8764" lon="4.82332">
        <ele>286</ele>
        <time>2021-08-14T08:22:26.000Z</time>
      </trkpt>
      <trkpt lat="49.87641" lon="4.82331">
        <ele>286</ele>
        <time>2021-08-14T08:22:27.000Z</time>
      </trkpt>
      <trkpt lat="49.87642" lon="4.82331">
        <ele>286</ele>
        <time>2021-08-14T08:22:28.000Z</time>
      </trkpt>
      <trkpt lat="49.87643" lon="4.8233">
        <ele>286</ele>
        <time>2021-08-14T08:22:29.000Z</time>
      </trkpt>
      <trkpt lat="49.87644" lon="4.82329">
        <ele>286</ele>
        <time>2021-08-14T08:22:30.000Z</time>
      </trkpt>
      <trkpt lat="49.87645" lon="4.82328">
        <ele>287</ele>
        <time>2021-08-14T08:22:31.000Z</time>
      </trkpt>
      <trkpt lat="49.87646" lon="4.82327">
        <ele>287</ele>
        <time>2021-08-14T08:22:32.000Z</time>
      </trkpt>
      <trkpt lat="49.87647" lon="4.82325">
        <ele>287</ele>
        <time>2021-08-14T08:22:33.000Z</time>
      </trkpt>
      <trkpt lat="49.87649" lon="4.82325">
        <ele>287</ele>
        <time>2021-08-14T08:22:34.000Z</time>
      </trkpt>
      <trkpt lat="49.8765" lon="4.82324">
        <ele>287</ele>
        <time>2021-08-14T08:22:35.000Z</time>
      </trkpt>
      <trkpt lat="49.87651" lon="4.82322">
        <ele>288</ele>
        <time>2021-08-14T08:22:36.000Z</time>
      </trkpt>
      <trkpt lat="49.87652" lon="4.82321">
        <ele>288</ele>
        <time>2021-08-14T08:22:37.000Z</time>
      </trkpt>
      <trkpt lat="49.87653" lon="4.82319">
        <ele>288</ele>
        <time>2021-08-14T08:22:38.000Z</time>
      </trkpt>
      <trkpt lat="49.87655" lon="4.82316">
        <ele>288</ele>
        <time>2021-08-14T08:22:39.000Z</time>
      </trkpt>
      <trkpt lat="49.87657" lon="4.82312">
        <ele>288</ele>
        <time>2021-08-14T08:22:40.000Z</time>
      </trkpt>
      <trkpt lat="49.87659" lon="4.82309">
        <ele>288</ele>
        <time>2021-08-14T08:22:41.000Z</time>
      </trkpt>
      <trkpt lat="49.87661" lon="4.82306">
        <ele>288</ele>
        <time>2021-08-14T08:22:42.000Z</time>
      </trkpt>
      <trkpt lat="49.87665" lon="4.82302">
        <ele>288</ele>
        <time>2021-08-14T08:22:43.000Z</time>
      </trkpt>
      <trkpt lat="49.87667" lon="4.82299">
        <ele>288</ele>
        <time>2021-08-14T08:22:44.000Z</time>
      </trkpt>
      <trkpt lat="49.87669" lon="4.82297">
        <ele>288</ele>
        <time>2021-08-14T08:22:45.000Z</time>
      </trkpt>
      <trkpt lat="49.87671" lon="4.82295">
        <ele>289</ele>
        <time>2021-08-14T08:22:46.000Z</time>
      </trkpt>
      <trkpt lat="49.87673" lon="4.82294">
        <ele>289</ele>
        <time>2021-08-14T08:22:47.000Z</time>
      </trkpt>
      <trkpt lat="49.87674" lon="4.82291">
        <ele>289</ele>
        <time>2021-08-14T08:22:48.000Z</time>
      </trkpt>
      <trkpt lat="49.87676" lon="4.82289">
        <ele>289</ele>
        <time>2021-08-14T08:22:49.000Z</time>
      </trkpt>
      <trkpt lat="49.87677" lon="4.82287">
        <ele>290</ele>
        <time>2021-08-14T08:22:50.000Z</time>
      </trkpt>
      <trkpt lat="49.87679" lon="4.82285">
        <ele>290</ele>
        <time>2021-08-14T08:22:51.000Z</time>
      </trkpt>
      <trkpt lat="49.8768" lon="4.82283">
        <ele>290</ele>
        <time>2021-08-14T08:22:52.000Z</time>
      </trkpt>
      <trkpt lat="49.87681" lon="4.8228">
        <ele>290</ele>
        <time>2021-08-14T08:22:53.000Z</time>
      </trkpt>
      <trkpt lat="49.87683" lon="4.82276">
        <ele>291</ele>
        <time>2021-08-14T08:22:54.000Z</time>
      </trkpt>
      <trkpt lat="49.87684" lon="4.82273">
        <ele>291</ele>
        <time>2021-08-14T08:22:55.000Z</time>
      </trkpt>
      <trkpt lat="49.87685" lon="4.82271">
        <ele>291</ele>
        <time>2021-08-14T08:22:56.000Z</time>
      </trkpt>
      <trkpt lat="49.87686" lon="4.82268">
        <ele>291</ele>
        <time>2021-08-14T08:22:57.000Z</time>
      </trkpt>
      <trkpt lat="49.87688" lon="4.82264">
        <ele>291</ele>
        <time>2021-08-14T08:22:58.000Z</time>
      </trkpt>
      <trkpt lat="49.87689" lon="4.82261">
        <ele>291</ele>
        <time>2021-08-14T08:22:59.000Z</time>
      </trkpt>
      <trkpt lat="49.87691" lon="4.82259">
        <ele>291</ele>
        <time>2021-08-14T08:23:00.000Z</time>
      </trkpt>
      <trkpt lat="49.87692" lon="4.82256">
        <ele>291</ele>
        <time>2021-08-14T08:23:01.000Z</time>
      </trkpt>
      <trkpt lat="49.87695" lon="4.82254">
        <ele>291</ele>
        <time>2021-08-14T08:23:02.000Z</time>
      </trkpt>
      <trkpt lat="49.87698" lon="4.82252">
        <ele>291</ele>
        <time>2021-08-14T08:23:03.000Z</time>
      </trkpt>
      <trkpt lat="49.877" lon="4.82252">
        <ele>291</ele>
        <time>2021-08-14T08:23:04.000Z</time>
      </trkpt>
      <trkpt lat="49.87702" lon="4.82252">
        <ele>291</ele>
        <time>2021-08-14T08:23:05.000Z</time>
      </trkpt>
      <trkpt lat="49.87704" lon="4.82253">
        <ele>291</ele>
        <time>2021-08-14T08:23:06.000Z</time>
      </trkpt>
      <trkpt lat="49.87706" lon="4.82253">
        <ele>291</ele>
        <time>2021-08-14T08:23:07.000Z</time>
      </trkpt>
      <trkpt lat="49.8771" lon="4.82253">
        <ele>291</ele>
        <time>2021-08-14T08:23:08.000Z</time>
      </trkpt>
      <trkpt lat="49.87712" lon="4.82252">
        <ele>291</ele>
        <time>2021-08-14T08:23:09.000Z</time>
      </trkpt>
      <trkpt lat="49.87715" lon="4.82251">
        <ele>291</ele>
        <time>2021-08-14T08:23:10.000Z</time>
      </trkpt>
      <trkpt lat="49.87719" lon="4.82251">
        <ele>291</ele>
        <time>2021-08-14T08:23:11.000Z</time>
      </trkpt>
      <trkpt lat="49.87723" lon="4.82251">
        <ele>291</ele>
        <time>2021-08-14T08:23:12.000Z</time>
      </trkpt>
      <trkpt lat="49.87726" lon="4.82249">
        <ele>291</ele>
        <time>2021-08-14T08:23:13.000Z</time>
      </trkpt>
      <trkpt lat="49.8773" lon="4.82246">
        <ele>291</ele>
        <time>2021-08-14T08:23:14.000Z</time>
      </trkpt>
      <trkpt lat="49.87734" lon="4.82244">
        <ele>291</ele>
        <time>2021-08-14T08:23:15.000Z</time>
      </trkpt>
      <trkpt lat="49.87736" lon="4.82243">
        <ele>291</ele>
        <time>2021-08-14T08:23:16.000Z</time>
      </trkpt>
      <trkpt lat="49.87739" lon="4.82242">
        <ele>291</ele>
        <time>2021-08-14T08:23:17.000Z</time>
      </trkpt>
      <trkpt lat="49.87742" lon="4.82241">
        <ele>291</ele>
        <time>2021-08-14T08:23:18.000Z</time>
      </trkpt>
      <trkpt lat="49.87746" lon="4.82237">
        <ele>291</ele>
        <time>2021-08-14T08:23:19.000Z</time>
      </trkpt>
      <trkpt lat="49.87751" lon="4.82233">
        <ele>291</ele>
        <time>2021-08-14T08:23:20.000Z</time>
      </trkpt>
      <trkpt lat="49.87756" lon="4.82228">
        <ele>291</ele>
        <time>2021-08-14T08:23:21.000Z</time>
      </trkpt>
      <trkpt lat="49.87761" lon="4.82223">
        <ele>290</ele>
        <time>2021-08-14T08:23:22.000Z</time>
      </trkpt>
      <trkpt lat="49.87765" lon="4.82219">
        <ele>290</ele>
        <time>2021-08-14T08:23:23.000Z</time>
      </trkpt>
      <trkpt lat="49.87769" lon="4.82214">
        <ele>290</ele>
        <time>2021-08-14T08:23:24.000Z</time>
      </trkpt>
      <trkpt lat="49.87773" lon="4.8221">
        <ele>290</ele>
        <time>2021-08-14T08:23:25.000Z</time>
      </trkpt>
      <trkpt lat="49.87777" lon="4.82208">
        <ele>290</ele>
        <time>2021-08-14T08:23:26.000Z</time>
      </trkpt>
      <trkpt lat="49.87781" lon="4.82206">
        <ele>290</ele>
        <time>2021-08-14T08:23:27.000Z</time>
      </trkpt>
      <trkpt lat="49.87785" lon="4.82205">
        <ele>290</ele>
        <time>2021-08-14T08:23:28.000Z</time>
      </trkpt>
      <trkpt lat="49.87789" lon="4.82201">
        <ele>290</ele>
        <time>2021-08-14T08:23:29.000Z</time>
      </trkpt>
      <trkpt lat="49.87792" lon="4.82196">
        <ele>289</ele>
        <time>2021-08-14T08:23:30.000Z</time>
      </trkpt>
      <trkpt lat="49.87794" lon="4.82193">
        <ele>289</ele>
        <time>2021-08-14T08:23:31.000Z</time>
      </trkpt>
      <trkpt lat="49.87797" lon="4.8219">
        <ele>289</ele>
        <time>2021-08-14T08:23:32.000Z</time>
      </trkpt>
      <trkpt lat="49.87801" lon="4.82191">
        <ele>289</ele>
        <time>2021-08-14T08:23:33.000Z</time>
      </trkpt>
      <trkpt lat="49.87804" lon="4.82193">
        <ele>289</ele>
        <time>2021-08-14T08:23:34.000Z</time>
      </trkpt>
      <trkpt lat="49.87808" lon="4.82194">
        <ele>288</ele>
        <time>2021-08-14T08:23:35.000Z</time>
      </trkpt>
      <trkpt lat="49.87812" lon="4.82195">
        <ele>288</ele>
        <time>2021-08-14T08:23:36.000Z</time>
      </trkpt>
      <trkpt lat="49.87815" lon="4.82194">
        <ele>288</ele>
        <time>2021-08-14T08:23:37.000Z</time>
      </trkpt>
      <trkpt lat="49.87817" lon="4.82192">
        <ele>288</ele>
        <time>2021-08-14T08:23:38.000Z</time>
      </trkpt>
      <trkpt lat="49.8782" lon="4.82189">
        <ele>287</ele>
        <time>2021-08-14T08:23:39.000Z</time>
      </trkpt>
      <trkpt lat="49.87822" lon="4.82186">
        <ele>287</ele>
        <time>2021-08-14T08:23:40.000Z</time>
      </trkpt>
      <trkpt lat="49.87823" lon="4.82182">
        <ele>287</ele>
        <time>2021-08-14T08:23:41.000Z</time>
      </trkpt>
      <trkpt lat="49.87825" lon="4.82179">
        <ele>287</ele>
        <time>2021-08-14T08:23:42.000Z</time>
      </trkpt>
      <trkpt lat="49.87826" lon="4.82175">
        <ele>286</ele>
        <time>2021-08-14T08:23:43.000Z</time>
      </trkpt>
      <trkpt lat="49.87828" lon="4.82173">
        <ele>286</ele>
        <time>2021-08-14T08:23:44.000Z</time>
      </trkpt>
      <trkpt lat="49.8783" lon="4.82171">
        <ele>286</ele>
        <time>2021-08-14T08:23:45.000Z</time>
      </trkpt>
      <trkpt lat="49.87832" lon="4.8217">
        <ele>285</ele>
        <time>2021-08-14T08:23:46.000Z</time>
      </trkpt>
      <trkpt lat="49.87835" lon="4.82168">
        <ele>285</ele>
        <time>2021-08-14T08:23:47.000Z</time>
      </trkpt>
      <trkpt lat="49.87836" lon="4.82167">
        <ele>285</ele>
        <time>2021-08-14T08:23:48.000Z</time>
      </trkpt>
      <trkpt lat="49.87838" lon="4.82166">
        <ele>284</ele>
        <time>2021-08-14T08:23:49.000Z</time>
      </trkpt>
      <trkpt lat="49.87838" lon="4.82165">
        <ele>284</ele>
        <time>2021-08-14T08:23:50.000Z</time>
      </trkpt>
      <trkpt lat="49.87839" lon="4.82165">
        <ele>284</ele>
        <time>2021-08-14T08:23:51.000Z</time>
      </trkpt>
      <trkpt lat="49.87839" lon="4.82164">
        <ele>283</ele>
        <time>2021-08-14T08:23:52.000Z</time>
      </trkpt>
      <trkpt lat="49.8784" lon="4.82163">
        <ele>283</ele>
        <time>2021-08-14T08:23:53.000Z</time>
      </trkpt>
      <trkpt lat="49.87842" lon="4.82162">
        <ele>282</ele>
        <time>2021-08-14T08:23:54.000Z</time>
      </trkpt>
      <trkpt lat="49.87844" lon="4.8216">
        <ele>282</ele>
        <time>2021-08-14T08:23:55.000Z</time>
      </trkpt>
      <trkpt lat="49.87846" lon="4.82157">
        <ele>282</ele>
        <time>2021-08-14T08:23:56.000Z</time>
      </trkpt>
      <trkpt lat="49.87848" lon="4.82155">
        <ele>282</ele>
        <time>2021-08-14T08:23:57.000Z</time>
      </trkpt>
      <trkpt lat="49.8785" lon="4.82153">
        <ele>281</ele>
        <time>2021-08-14T08:23:58.000Z</time>
      </trkpt>
      <trkpt lat="49.87853" lon="4.8215">
        <ele>281</ele>
        <time>2021-08-14T08:23:59.000Z</time>
      </trkpt>
      <trkpt lat="49.87856" lon="4.82146">
        <ele>281</ele>
        <time>2021-08-14T08:24:00.000Z</time>
      </trkpt>
      <trkpt lat="49.8786" lon="4.82143">
        <ele>280</ele>
        <time>2021-08-14T08:24:01.000Z</time>
      </trkpt>
      <trkpt lat="49.87861" lon="4.82139">
        <ele>280</ele>
        <time>2021-08-14T08:24:02.000Z</time>
      </trkpt>
      <trkpt lat="49.87863" lon="4.82135">
        <ele>280</ele>
        <time>2021-08-14T08:24:03.000Z</time>
      </trkpt>
      <trkpt lat="49.87865" lon="4.82131">
        <ele>280</ele>
        <time>2021-08-14T08:24:04.000Z</time>
      </trkpt>
      <trkpt lat="49.87868" lon="4.82128">
        <ele>280</ele>
        <time>2021-08-14T08:24:05.000Z</time>
      </trkpt>
      <trkpt lat="49.87872" lon="4.82125">
        <ele>280</ele>
        <time>2021-08-14T08:24:06.000Z</time>
      </trkpt>
      <trkpt lat="49.87876" lon="4.82121">
        <ele>279</ele>
        <time>2021-08-14T08:24:07.000Z</time>
      </trkpt>
      <trkpt lat="49.8788" lon="4.82116">
        <ele>279</ele>
        <time>2021-08-14T08:24:08.000Z</time>
      </trkpt>
      <trkpt lat="49.87883" lon="4.82112">
        <ele>279</ele>
        <time>2021-08-14T08:24:09.000Z</time>
      </trkpt>
      <trkpt lat="49.87887" lon="4.82108">
        <ele>279</ele>
        <time>2021-08-14T08:24:10.000Z</time>
      </trkpt>
      <trkpt lat="49.8789" lon="4.82106">
        <ele>279</ele>
        <time>2021-08-14T08:24:11.000Z</time>
      </trkpt>
      <trkpt lat="49.87892" lon="4.82103">
        <ele>279</ele>
        <time>2021-08-14T08:24:12.000Z</time>
      </trkpt>
      <trkpt lat="49.87894" lon="4.821">
        <ele>279</ele>
        <time>2021-08-14T08:24:13.000Z</time>
      </trkpt>
      <trkpt lat="49.87897" lon="4.82096">
        <ele>278</ele>
        <time>2021-08-14T08:24:14.000Z</time>
      </trkpt>
      <trkpt lat="49.879" lon="4.82092">
        <ele>278</ele>
        <time>2021-08-14T08:24:15.000Z</time>
      </trkpt>
      <trkpt lat="49.87902" lon="4.82088">
        <ele>278</ele>
        <time>2021-08-14T08:24:16.000Z</time>
      </trkpt>
      <trkpt lat="49.87905" lon="4.82085">
        <ele>278</ele>
        <time>2021-08-14T08:24:17.000Z</time>
      </trkpt>
      <trkpt lat="49.87908" lon="4.82081">
        <ele>278</ele>
        <time>2021-08-14T08:24:18.000Z</time>
      </trkpt>
      <trkpt lat="49.87912" lon="4.82076">
        <ele>278</ele>
        <time>2021-08-14T08:24:19.000Z</time>
      </trkpt>
      <trkpt lat="49.87915" lon="4.82071">
        <ele>278</ele>
        <time>2021-08-14T08:24:20.000Z</time>
      </trkpt>
      <trkpt lat="49.87917" lon="4.82066">
        <ele>278</ele>
        <time>2021-08-14T08:24:21.000Z</time>
      </trkpt>
      <trkpt lat="49.8792" lon="4.82061">
        <ele>277</ele>
        <time>2021-08-14T08:24:22.000Z</time>
      </trkpt>
      <trkpt lat="49.87921" lon="4.82056">
        <ele>277</ele>
        <time>2021-08-14T08:24:23.000Z</time>
      </trkpt>
      <trkpt lat="49.87923" lon="4.8205">
        <ele>277</ele>
        <time>2021-08-14T08:24:24.000Z</time>
      </trkpt>
      <trkpt lat="49.87924" lon="4.82045">
        <ele>277</ele>
        <time>2021-08-14T08:24:25.000Z</time>
      </trkpt>
      <trkpt lat="49.87925" lon="4.82041">
        <ele>277</ele>
        <time>2021-08-14T08:24:26.000Z</time>
      </trkpt>
      <trkpt lat="49.87927" lon="4.82036">
        <ele>277</ele>
        <time>2021-08-14T08:24:27.000Z</time>
      </trkpt>
      <trkpt lat="49.87928" lon="4.82032">
        <ele>277</ele>
        <time>2021-08-14T08:24:28.000Z</time>
      </trkpt>
      <trkpt lat="49.8793" lon="4.82027">
        <ele>277</ele>
        <time>2021-08-14T08:24:29.000Z</time>
      </trkpt>
      <trkpt lat="49.87934" lon="4.82024">
        <ele>277</ele>
        <time>2021-08-14T08:24:30.000Z</time>
      </trkpt>
      <trkpt lat="49.87938" lon="4.82021">
        <ele>277</ele>
        <time>2021-08-14T08:24:31.000Z</time>
      </trkpt>
      <trkpt lat="49.87942" lon="4.82018">
        <ele>277</ele>
        <time>2021-08-14T08:24:32.000Z</time>
      </trkpt>
      <trkpt lat="49.87945" lon="4.82016">
        <ele>276</ele>
        <time>2021-08-14T08:24:33.000Z</time>
      </trkpt>
      <trkpt lat="49.87948" lon="4.82015">
        <ele>276</ele>
        <time>2021-08-14T08:24:34.000Z</time>
      </trkpt>
      <trkpt lat="49.87951" lon="4.82012">
        <ele>276</ele>
        <time>2021-08-14T08:24:35.000Z</time>
      </trkpt>
      <trkpt lat="49.87953" lon="4.8201">
        <ele>276</ele>
        <time>2021-08-14T08:24:36.000Z</time>
      </trkpt>
      <trkpt lat="49.87957" lon="4.82006">
        <ele>276</ele>
        <time>2021-08-14T08:24:37.000Z</time>
      </trkpt>
      <trkpt lat="49.8796" lon="4.82003">
        <ele>275</ele>
        <time>2021-08-14T08:24:38.000Z</time>
      </trkpt>
      <trkpt lat="49.87962" lon="4.82001">
        <ele>275</ele>
        <time>2021-08-14T08:24:39.000Z</time>
      </trkpt>
      <trkpt lat="49.87964" lon="4.81999">
        <ele>275</ele>
        <time>2021-08-14T08:24:40.000Z</time>
      </trkpt>
      <trkpt lat="49.87966" lon="4.81997">
        <ele>275</ele>
        <time>2021-08-14T08:24:41.000Z</time>
      </trkpt>
      <trkpt lat="49.87967" lon="4.81995">
        <ele>274</ele>
        <time>2021-08-14T08:24:42.000Z</time>
      </trkpt>
      <trkpt lat="49.87969" lon="4.81993">
        <ele>274</ele>
        <time>2021-08-14T08:24:43.000Z</time>
      </trkpt>
      <trkpt lat="49.8797" lon="4.81991">
        <ele>274</ele>
        <time>2021-08-14T08:24:44.000Z</time>
      </trkpt>
      <trkpt lat="49.87972" lon="4.81987">
        <ele>274</ele>
        <time>2021-08-14T08:24:45.000Z</time>
      </trkpt>
      <trkpt lat="49.87974" lon="4.81983">
        <ele>273</ele>
        <time>2021-08-14T08:24:46.000Z</time>
      </trkpt>
      <trkpt lat="49.87976" lon="4.81981">
        <ele>273</ele>
        <time>2021-08-14T08:24:47.000Z</time>
      </trkpt>
      <trkpt lat="49.87977" lon="4.81979">
        <ele>273</ele>
        <time>2021-08-14T08:24:48.000Z</time>
      </trkpt>
      <trkpt lat="49.87979" lon="4.81976">
        <ele>272</ele>
        <time>2021-08-14T08:24:49.000Z</time>
      </trkpt>
      <trkpt lat="49.8798" lon="4.81973">
        <ele>272</ele>
        <time>2021-08-14T08:24:50.000Z</time>
      </trkpt>
      <trkpt lat="49.87982" lon="4.8197">
        <ele>272</ele>
        <time>2021-08-14T08:24:51.000Z</time>
      </trkpt>
      <trkpt lat="49.87984" lon="4.81966">
        <ele>271</ele>
        <time>2021-08-14T08:24:52.000Z</time>
      </trkpt>
      <trkpt lat="49.87985" lon="4.81963">
        <ele>271</ele>
        <time>2021-08-14T08:24:53.000Z</time>
      </trkpt>
      <trkpt lat="49.87988" lon="4.8196">
        <ele>271</ele>
        <time>2021-08-14T08:24:54.000Z</time>
      </trkpt>
      <trkpt lat="49.8799" lon="4.81957">
        <ele>271</ele>
        <time>2021-08-14T08:24:55.000Z</time>
      </trkpt>
      <trkpt lat="49.87993" lon="4.81954">
        <ele>271</ele>
        <time>2021-08-14T08:24:56.000Z</time>
      </trkpt>
      <trkpt lat="49.87994" lon="4.81952">
        <ele>270</ele>
        <time>2021-08-14T08:24:57.000Z</time>
      </trkpt>
      <trkpt lat="49.87996" lon="4.81949">
        <ele>270</ele>
        <time>2021-08-14T08:24:58.000Z</time>
      </trkpt>
      <trkpt lat="49.87998" lon="4.81945">
        <ele>270</ele>
        <time>2021-08-14T08:24:59.000Z</time>
      </trkpt>
      <trkpt lat="49.88" lon="4.81942">
        <ele>270</ele>
        <time>2021-08-14T08:25:00.000Z</time>
      </trkpt>
      <trkpt lat="49.88002" lon="4.81938">
        <ele>270</ele>
        <time>2021-08-14T08:25:01.000Z</time>
      </trkpt>
      <trkpt lat="49.88004" lon="4.81933">
        <ele>269</ele>
        <time>2021-08-14T08:25:02.000Z</time>
      </trkpt>
      <trkpt lat="49.88005" lon="4.81928">
        <ele>269</ele>
        <time>2021-08-14T08:25:03.000Z</time>
      </trkpt>
      <trkpt lat="49.88007" lon="4.81923">
        <ele>269</ele>
        <time>2021-08-14T08:25:04.000Z</time>
      </trkpt>
      <trkpt lat="49.88009" lon="4.81918">
        <ele>269</ele>
        <time>2021-08-14T08:25:05.000Z</time>
      </trkpt>
      <trkpt lat="49.88012" lon="4.81915">
        <ele>269</ele>
        <time>2021-08-14T08:25:06.000Z</time>
      </trkpt>
      <trkpt lat="49.88014" lon="4.81911">
        <ele>268</ele>
        <time>2021-08-14T08:25:07.000Z</time>
      </trkpt>
      <trkpt lat="49.88017" lon="4.81907">
        <ele>268</ele>
        <time>2021-08-14T08:25:08.000Z</time>
      </trkpt>
      <trkpt lat="49.88019" lon="4.81905">
        <ele>268</ele>
        <time>2021-08-14T08:25:09.000Z</time>
      </trkpt>
      <trkpt lat="49.88021" lon="4.81902">
        <ele>268</ele>
        <time>2021-08-14T08:25:10.000Z</time>
      </trkpt>
      <trkpt lat="49.88024" lon="4.81898">
        <ele>268</ele>
        <time>2021-08-14T08:25:11.000Z</time>
      </trkpt>
      <trkpt lat="49.88027" lon="4.81894">
        <ele>267</ele>
        <time>2021-08-14T08:25:12.000Z</time>
      </trkpt>
      <trkpt lat="49.88029" lon="4.81891">
        <ele>267</ele>
        <time>2021-08-14T08:25:13.000Z</time>
      </trkpt>
      <trkpt lat="49.88032" lon="4.81888">
        <ele>267</ele>
        <time>2021-08-14T08:25:14.000Z</time>
      </trkpt>
      <trkpt lat="49.88034" lon="4.81886">
        <ele>267</ele>
        <time>2021-08-14T08:25:15.000Z</time>
      </trkpt>
      <trkpt lat="49.88037" lon="4.81883">
        <ele>267</ele>
        <time>2021-08-14T08:25:16.000Z</time>
      </trkpt>
      <trkpt lat="49.88039" lon="4.81879">
        <ele>267</ele>
        <time>2021-08-14T08:25:17.000Z</time>
      </trkpt>
      <trkpt lat="49.8804" lon="4.81875">
        <ele>266</ele>
        <time>2021-08-14T08:25:18.000Z</time>
      </trkpt>
      <trkpt lat="49.88042" lon="4.81871">
        <ele>266</ele>
        <time>2021-08-14T08:25:19.000Z</time>
      </trkpt>
      <trkpt lat="49.88044" lon="4.81867">
        <ele>266</ele>
        <time>2021-08-14T08:25:20.000Z</time>
      </trkpt>
      <trkpt lat="49.88046" lon="4.81863">
        <ele>265</ele>
        <time>2021-08-14T08:25:21.000Z</time>
      </trkpt>
      <trkpt lat="49.88049" lon="4.8186">
        <ele>265</ele>
        <time>2021-08-14T08:25:22.000Z</time>
      </trkpt>
      <trkpt lat="49.88052" lon="4.8186">
        <ele>265</ele>
        <time>2021-08-14T08:25:23.000Z</time>
      </trkpt>
      <trkpt lat="49.88054" lon="4.81862">
        <ele>265</ele>
        <time>2021-08-14T08:25:24.000Z</time>
      </trkpt>
      <trkpt lat="49.88057" lon="4.81864">
        <ele>265</ele>
        <time>2021-08-14T08:25:25.000Z</time>
      </trkpt>
      <trkpt lat="49.8806" lon="4.81865">
        <ele>264</ele>
        <time>2021-08-14T08:25:26.000Z</time>
      </trkpt>
      <trkpt lat="49.88064" lon="4.81867">
        <ele>264</ele>
        <time>2021-08-14T08:25:27.000Z</time>
      </trkpt>
      <trkpt lat="49.88069" lon="4.81868">
        <ele>264</ele>
        <time>2021-08-14T08:25:28.000Z</time>
      </trkpt>
      <trkpt lat="49.88073" lon="4.81868">
        <ele>264</ele>
        <time>2021-08-14T08:25:29.000Z</time>
      </trkpt>
      <trkpt lat="49.88077" lon="4.81868">
        <ele>264</ele>
        <time>2021-08-14T08:25:30.000Z</time>
      </trkpt>
      <trkpt lat="49.88081" lon="4.81867">
        <ele>264</ele>
        <time>2021-08-14T08:25:31.000Z</time>
      </trkpt>
      <trkpt lat="49.88086" lon="4.81865">
        <ele>263</ele>
        <time>2021-08-14T08:25:32.000Z</time>
      </trkpt>
      <trkpt lat="49.8809" lon="4.81862">
        <ele>263</ele>
        <time>2021-08-14T08:25:33.000Z</time>
      </trkpt>
      <trkpt lat="49.88095" lon="4.81859">
        <ele>263</ele>
        <time>2021-08-14T08:25:34.000Z</time>
      </trkpt>
      <trkpt lat="49.88099" lon="4.81856">
        <ele>263</ele>
        <time>2021-08-14T08:25:35.000Z</time>
      </trkpt>
      <trkpt lat="49.88103" lon="4.81852">
        <ele>262</ele>
        <time>2021-08-14T08:25:36.000Z</time>
      </trkpt>
      <trkpt lat="49.88106" lon="4.81848">
        <ele>262</ele>
        <time>2021-08-14T08:25:37.000Z</time>
      </trkpt>
      <trkpt lat="49.88109" lon="4.81844">
        <ele>262</ele>
        <time>2021-08-14T08:25:38.000Z</time>
      </trkpt>
      <trkpt lat="49.88112" lon="4.81841">
        <ele>262</ele>
        <time>2021-08-14T08:25:39.000Z</time>
      </trkpt>
      <trkpt lat="49.88113" lon="4.81839">
        <ele>261</ele>
        <time>2021-08-14T08:25:40.000Z</time>
      </trkpt>
      <trkpt lat="49.88114" lon="4.81835">
        <ele>261</ele>
        <time>2021-08-14T08:25:41.000Z</time>
      </trkpt>
      <trkpt lat="49.88114" lon="4.81831">
        <ele>261</ele>
        <time>2021-08-14T08:25:42.000Z</time>
      </trkpt>
      <trkpt lat="49.88113" lon="4.81828">
        <ele>261</ele>
        <time>2021-08-14T08:25:43.000Z</time>
      </trkpt>
      <trkpt lat="49.88113" lon="4.81824">
        <ele>261</ele>
        <time>2021-08-14T08:25:44.000Z</time>
      </trkpt>
      <trkpt lat="49.88113" lon="4.8182">
        <ele>261</ele>
        <time>2021-08-14T08:25:45.000Z</time>
      </trkpt>
      <trkpt lat="49.88114" lon="4.81816">
        <ele>260</ele>
        <time>2021-08-14T08:25:46.000Z</time>
      </trkpt>
      <trkpt lat="49.88114" lon="4.81813">
        <ele>260</ele>
        <time>2021-08-14T08:25:47.000Z</time>
      </trkpt>
      <trkpt lat="49.88115" lon="4.81809">
        <ele>260</ele>
        <time>2021-08-14T08:25:48.000Z</time>
      </trkpt>
      <trkpt lat="49.88116" lon="4.81804">
        <ele>260</ele>
        <time>2021-08-14T08:25:49.000Z</time>
      </trkpt>
      <trkpt lat="49.88117" lon="4.818">
        <ele>260</ele>
        <time>2021-08-14T08:25:50.000Z</time>
      </trkpt>
      <trkpt lat="49.88119" lon="4.81796">
        <ele>260</ele>
        <time>2021-08-14T08:25:51.000Z</time>
      </trkpt>
      <trkpt lat="49.88121" lon="4.81792">
        <ele>260</ele>
        <time>2021-08-14T08:25:52.000Z</time>
      </trkpt>
      <trkpt lat="49.88124" lon="4.81789">
        <ele>260</ele>
        <time>2021-08-14T08:25:53.000Z</time>
      </trkpt>
      <trkpt lat="49.88127" lon="4.81786">
        <ele>260</ele>
        <time>2021-08-14T08:25:54.000Z</time>
      </trkpt>
      <trkpt lat="49.88129" lon="4.81783">
        <ele>260</ele>
        <time>2021-08-14T08:25:55.000Z</time>
      </trkpt>
      <trkpt lat="49.88131" lon="4.8178">
        <ele>260</ele>
        <time>2021-08-14T08:25:56.000Z</time>
      </trkpt>
      <trkpt lat="49.88133" lon="4.81776">
        <ele>260</ele>
        <time>2021-08-14T08:25:57.000Z</time>
      </trkpt>
      <trkpt lat="49.88135" lon="4.81774">
        <ele>260</ele>
        <time>2021-08-14T08:25:58.000Z</time>
      </trkpt>
      <trkpt lat="49.88138" lon="4.81772">
        <ele>260</ele>
        <time>2021-08-14T08:25:59.000Z</time>
      </trkpt>
      <trkpt lat="49.88141" lon="4.81771">
        <ele>260</ele>
        <time>2021-08-14T08:26:00.000Z</time>
      </trkpt>
      <trkpt lat="49.88145" lon="4.81769">
        <ele>260</ele>
        <time>2021-08-14T08:26:01.000Z</time>
      </trkpt>
      <trkpt lat="49.88148" lon="4.81768">
        <ele>260</ele>
        <time>2021-08-14T08:26:02.000Z</time>
      </trkpt>
      <trkpt lat="49.88151" lon="4.81766">
        <ele>260</ele>
        <time>2021-08-14T08:26:03.000Z</time>
      </trkpt>
      <trkpt lat="49.88154" lon="4.81764">
        <ele>260</ele>
        <time>2021-08-14T08:26:04.000Z</time>
      </trkpt>
      <trkpt lat="49.88157" lon="4.81763">
        <ele>260</ele>
        <time>2021-08-14T08:26:05.000Z</time>
      </trkpt>
      <trkpt lat="49.88161" lon="4.81761">
        <ele>259</ele>
        <time>2021-08-14T08:26:06.000Z</time>
      </trkpt>
      <trkpt lat="49.88164" lon="4.81761">
        <ele>259</ele>
        <time>2021-08-14T08:26:07.000Z</time>
      </trkpt>
      <trkpt lat="49.88167" lon="4.81761">
        <ele>259</ele>
        <time>2021-08-14T08:26:08.000Z</time>
      </trkpt>
      <trkpt lat="49.8817" lon="4.81761">
        <ele>259</ele>
        <time>2021-08-14T08:26:09.000Z</time>
      </trkpt>
      <trkpt lat="49.88173" lon="4.8176">
        <ele>258</ele>
        <time>2021-08-14T08:26:10.000Z</time>
      </trkpt>
      <trkpt lat="49.88176" lon="4.81759">
        <ele>258</ele>
        <time>2021-08-14T08:26:11.000Z</time>
      </trkpt>
      <trkpt lat="49.88179" lon="4.81758">
        <ele>258</ele>
        <time>2021-08-14T08:26:12.000Z</time>
      </trkpt>
      <trkpt lat="49.88182" lon="4.81755">
        <ele>258</ele>
        <time>2021-08-14T08:26:13.000Z</time>
      </trkpt>
      <trkpt lat="49.88185" lon="4.81751">
        <ele>258</ele>
        <time>2021-08-14T08:26:14.000Z</time>
      </trkpt>
      <trkpt lat="49.88188" lon="4.81748">
        <ele>257</ele>
        <time>2021-08-14T08:26:15.000Z</time>
      </trkpt>
      <trkpt lat="49.88191" lon="4.81746">
        <ele>257</ele>
        <time>2021-08-14T08:26:16.000Z</time>
      </trkpt>
      <trkpt lat="49.88194" lon="4.81745">
        <ele>257</ele>
        <time>2021-08-14T08:26:17.000Z</time>
      </trkpt>
      <trkpt lat="49.88198" lon="4.81741">
        <ele>257</ele>
        <time>2021-08-14T08:26:18.000Z</time>
      </trkpt>
      <trkpt lat="49.88202" lon="4.81737">
        <ele>257</ele>
        <time>2021-08-14T08:26:19.000Z</time>
      </trkpt>
      <trkpt lat="49.88205" lon="4.81735">
        <ele>257</ele>
        <time>2021-08-14T08:26:20.000Z</time>
      </trkpt>
      <trkpt lat="49.88209" lon="4.81732">
        <ele>256</ele>
        <time>2021-08-14T08:26:21.000Z</time>
      </trkpt>
      <trkpt lat="49.88214" lon="4.81729">
        <ele>256</ele>
        <time>2021-08-14T08:26:22.000Z</time>
      </trkpt>
      <trkpt lat="49.88218" lon="4.81725">
        <ele>256</ele>
        <time>2021-08-14T08:26:23.000Z</time>
      </trkpt>
      <trkpt lat="49.88224" lon="4.81721">
        <ele>256</ele>
        <time>2021-08-14T08:26:24.000Z</time>
      </trkpt>
      <trkpt lat="49.88228" lon="4.81718">
        <ele>255</ele>
        <time>2021-08-14T08:26:25.000Z</time>
      </trkpt>
      <trkpt lat="49.88231" lon="4.81715">
        <ele>255</ele>
        <time>2021-08-14T08:26:26.000Z</time>
      </trkpt>
      <trkpt lat="49.88235" lon="4.81713">
        <ele>255</ele>
        <time>2021-08-14T08:26:27.000Z</time>
      </trkpt>
      <trkpt lat="49.88238" lon="4.81711">
        <ele>255</ele>
        <time>2021-08-14T08:26:28.000Z</time>
      </trkpt>
      <trkpt lat="49.88242" lon="4.81708">
        <ele>254</ele>
        <time>2021-08-14T08:26:29.000Z</time>
      </trkpt>
      <trkpt lat="49.88245" lon="4.81704">
        <ele>254</ele>
        <time>2021-08-14T08:26:30.000Z</time>
      </trkpt>
      <trkpt lat="49.88249" lon="4.81702">
        <ele>254</ele>
        <time>2021-08-14T08:26:31.000Z</time>
      </trkpt>
      <trkpt lat="49.88253" lon="4.817">
        <ele>254</ele>
        <time>2021-08-14T08:26:32.000Z</time>
      </trkpt>
      <trkpt lat="49.88257" lon="4.81698">
        <ele>254</ele>
        <time>2021-08-14T08:26:33.000Z</time>
      </trkpt>
      <trkpt lat="49.88261" lon="4.81696">
        <ele>254</ele>
        <time>2021-08-14T08:26:34.000Z</time>
      </trkpt>
      <trkpt lat="49.88265" lon="4.81694">
        <ele>253</ele>
        <time>2021-08-14T08:26:35.000Z</time>
      </trkpt>
      <trkpt lat="49.88269" lon="4.81694">
        <ele>253</ele>
        <time>2021-08-14T08:26:36.000Z</time>
      </trkpt>
      <trkpt lat="49.88272" lon="4.81693">
        <ele>253</ele>
        <time>2021-08-14T08:26:37.000Z</time>
      </trkpt>
      <trkpt lat="49.88276" lon="4.81691">
        <ele>253</ele>
        <time>2021-08-14T08:26:38.000Z</time>
      </trkpt>
      <trkpt lat="49.8828" lon="4.81689">
        <ele>252</ele>
        <time>2021-08-14T08:26:39.000Z</time>
      </trkpt>
      <trkpt lat="49.88284" lon="4.81689">
        <ele>252</ele>
        <time>2021-08-14T08:26:40.000Z</time>
      </trkpt>
      <trkpt lat="49.88288" lon="4.81689">
        <ele>252</ele>
        <time>2021-08-14T08:26:41.000Z</time>
      </trkpt>
      <trkpt lat="49.88291" lon="4.81688">
        <ele>252</ele>
        <time>2021-08-14T08:26:42.000Z</time>
      </trkpt>
      <trkpt lat="49.88294" lon="4.81688">
        <ele>252</ele>
        <time>2021-08-14T08:26:43.000Z</time>
      </trkpt>
      <trkpt lat="49.88297" lon="4.81688">
        <ele>251</ele>
        <time>2021-08-14T08:26:44.000Z</time>
      </trkpt>
      <trkpt lat="49.883" lon="4.81686">
        <ele>251</ele>
        <time>2021-08-14T08:26:45.000Z</time>
      </trkpt>
      <trkpt lat="49.88303" lon="4.81683">
        <ele>251</ele>
        <time>2021-08-14T08:26:46.000Z</time>
      </trkpt>
      <trkpt lat="49.88305" lon="4.8168">
        <ele>251</ele>
        <time>2021-08-14T08:26:47.000Z</time>
      </trkpt>
      <trkpt lat="49.88308" lon="4.81678">
        <ele>250</ele>
        <time>2021-08-14T08:26:48.000Z</time>
      </trkpt>
      <trkpt lat="49.88311" lon="4.81677">
        <ele>250</ele>
        <time>2021-08-14T08:26:49.000Z</time>
      </trkpt>
      <trkpt lat="49.88315" lon="4.81677">
        <ele>250</ele>
        <time>2021-08-14T08:26:50.000Z</time>
      </trkpt>
      <trkpt lat="49.88318" lon="4.81676">
        <ele>250</ele>
        <time>2021-08-14T08:26:51.000Z</time>
      </trkpt>
      <trkpt lat="49.88322" lon="4.81676">
        <ele>250</ele>
        <time>2021-08-14T08:26:52.000Z</time>
      </trkpt>
      <trkpt lat="49.88325" lon="4.81675">
        <ele>250</ele>
        <time>2021-08-14T08:26:53.000Z</time>
      </trkpt>
      <trkpt lat="49.88329" lon="4.81673">
        <ele>250</ele>
        <time>2021-08-14T08:26:54.000Z</time>
      </trkpt>
      <trkpt lat="49.88332" lon="4.81671">
        <ele>249</ele>
        <time>2021-08-14T08:26:55.000Z</time>
      </trkpt>
      <trkpt lat="49.88336" lon="4.81669">
        <ele>249</ele>
        <time>2021-08-14T08:26:56.000Z</time>
      </trkpt>
      <trkpt lat="49.88339" lon="4.81667">
        <ele>249</ele>
        <time>2021-08-14T08:26:57.000Z</time>
      </trkpt>
      <trkpt lat="49.88342" lon="4.81664">
        <ele>249</ele>
        <time>2021-08-14T08:26:58.000Z</time>
      </trkpt>
      <trkpt lat="49.88344" lon="4.81661">
        <ele>249</ele>
        <time>2021-08-14T08:26:59.000Z</time>
      </trkpt>
      <trkpt lat="49.88346" lon="4.81659">
        <ele>249</ele>
        <time>2021-08-14T08:27:00.000Z</time>
      </trkpt>
      <trkpt lat="49.88349" lon="4.81657">
        <ele>249</ele>
        <time>2021-08-14T08:27:01.000Z</time>
      </trkpt>
      <trkpt lat="49.88353" lon="4.81655">
        <ele>249</ele>
        <time>2021-08-14T08:27:02.000Z</time>
      </trkpt>
      <trkpt lat="49.88356" lon="4.81654">
        <ele>249</ele>
        <time>2021-08-14T08:27:03.000Z</time>
      </trkpt>
      <trkpt lat="49.88359" lon="4.81652">
        <ele>249</ele>
        <time>2021-08-14T08:27:04.000Z</time>
      </trkpt>
      <trkpt lat="49.88362" lon="4.81649">
        <ele>249</ele>
        <time>2021-08-14T08:27:05.000Z</time>
      </trkpt>
      <trkpt lat="49.88364" lon="4.81647">
        <ele>248</ele>
        <time>2021-08-14T08:27:06.000Z</time>
      </trkpt>
      <trkpt lat="49.88368" lon="4.81646">
        <ele>248</ele>
        <time>2021-08-14T08:27:07.000Z</time>
      </trkpt>
      <trkpt lat="49.88371" lon="4.81645">
        <ele>248</ele>
        <time>2021-08-14T08:27:08.000Z</time>
      </trkpt>
      <trkpt lat="49.88375" lon="4.81643">
        <ele>248</ele>
        <time>2021-08-14T08:27:09.000Z</time>
      </trkpt>
      <trkpt lat="49.88378" lon="4.81642">
        <ele>248</ele>
        <time>2021-08-14T08:27:10.000Z</time>
      </trkpt>
      <trkpt lat="49.88382" lon="4.81641">
        <ele>248</ele>
        <time>2021-08-14T08:27:11.000Z</time>
      </trkpt>
      <trkpt lat="49.88386" lon="4.8164">
        <ele>248</ele>
        <time>2021-08-14T08:27:12.000Z</time>
      </trkpt>
      <trkpt lat="49.88391" lon="4.81641">
        <ele>247</ele>
        <time>2021-08-14T08:27:13.000Z</time>
      </trkpt>
      <trkpt lat="49.88395" lon="4.8164">
        <ele>247</ele>
        <time>2021-08-14T08:27:14.000Z</time>
      </trkpt>
      <trkpt lat="49.88399" lon="4.81638">
        <ele>247</ele>
        <time>2021-08-14T08:27:15.000Z</time>
      </trkpt>
      <trkpt lat="49.88403" lon="4.81636">
        <ele>247</ele>
        <time>2021-08-14T08:27:16.000Z</time>
      </trkpt>
      <trkpt lat="49.88407" lon="4.81634">
        <ele>247</ele>
        <time>2021-08-14T08:27:17.000Z</time>
      </trkpt>
      <trkpt lat="49.88411" lon="4.81632">
        <ele>247</ele>
        <time>2021-08-14T08:27:18.000Z</time>
      </trkpt>
      <trkpt lat="49.88416" lon="4.81633">
        <ele>247</ele>
        <time>2021-08-14T08:27:19.000Z</time>
      </trkpt>
      <trkpt lat="49.8842" lon="4.81636">
        <ele>247</ele>
        <time>2021-08-14T08:27:20.000Z</time>
      </trkpt>
      <trkpt lat="49.88424" lon="4.81639">
        <ele>247</ele>
        <time>2021-08-14T08:27:21.000Z</time>
      </trkpt>
      <trkpt lat="49.88428" lon="4.81641">
        <ele>247</ele>
        <time>2021-08-14T08:27:22.000Z</time>
      </trkpt>
      <trkpt lat="49.88432" lon="4.81644">
        <ele>247</ele>
        <time>2021-08-14T08:27:23.000Z</time>
      </trkpt>
      <trkpt lat="49.88435" lon="4.81646">
        <ele>247</ele>
        <time>2021-08-14T08:27:24.000Z</time>
      </trkpt>
      <trkpt lat="49.88439" lon="4.81648">
        <ele>247</ele>
        <time>2021-08-14T08:27:25.000Z</time>
      </trkpt>
      <trkpt lat="49.88441" lon="4.81649">
        <ele>247</ele>
        <time>2021-08-14T08:27:26.000Z</time>
      </trkpt>
      <trkpt lat="49.88445" lon="4.81648">
        <ele>247</ele>
        <time>2021-08-14T08:27:27.000Z</time>
      </trkpt>
      <trkpt lat="49.88448" lon="4.81649">
        <ele>247</ele>
        <time>2021-08-14T08:27:28.000Z</time>
      </trkpt>
      <trkpt lat="49.88452" lon="4.81649">
        <ele>246</ele>
        <time>2021-08-14T08:27:29.000Z</time>
      </trkpt>
      <trkpt lat="49.88456" lon="4.81648">
        <ele>246</ele>
        <time>2021-08-14T08:27:30.000Z</time>
      </trkpt>
      <trkpt lat="49.8846" lon="4.81646">
        <ele>246</ele>
        <time>2021-08-14T08:27:31.000Z</time>
      </trkpt>
      <trkpt lat="49.88465" lon="4.81645">
        <ele>246</ele>
        <time>2021-08-14T08:27:32.000Z</time>
      </trkpt>
      <trkpt lat="49.88469" lon="4.81643">
        <ele>246</ele>
        <time>2021-08-14T08:27:33.000Z</time>
      </trkpt>
      <trkpt lat="49.88474" lon="4.81641">
        <ele>246</ele>
        <time>2021-08-14T08:27:34.000Z</time>
      </trkpt>
      <trkpt lat="49.88479" lon="4.81638">
        <ele>245</ele>
        <time>2021-08-14T08:27:35.000Z</time>
      </trkpt>
      <trkpt lat="49.88483" lon="4.81635">
        <ele>245</ele>
        <time>2021-08-14T08:27:36.000Z</time>
      </trkpt>
      <trkpt lat="49.88489" lon="4.81633">
        <ele>245</ele>
        <time>2021-08-14T08:27:37.000Z</time>
      </trkpt>
      <trkpt lat="49.88494" lon="4.81631">
        <ele>245</ele>
        <time>2021-08-14T08:27:38.000Z</time>
      </trkpt>
      <trkpt lat="49.88498" lon="4.81631">
        <ele>244</ele>
        <time>2021-08-14T08:27:39.000Z</time>
      </trkpt>
      <trkpt lat="49.88502" lon="4.8163">
        <ele>244</ele>
        <time>2021-08-14T08:27:40.000Z</time>
      </trkpt>
      <trkpt lat="49.88506" lon="4.81629">
        <ele>244</ele>
        <time>2021-08-14T08:27:41.000Z</time>
      </trkpt>
      <trkpt lat="49.88511" lon="4.8163">
        <ele>244</ele>
        <time>2021-08-14T08:27:42.000Z</time>
      </trkpt>
      <trkpt lat="49.88516" lon="4.81631">
        <ele>244</ele>
        <time>2021-08-14T08:27:43.000Z</time>
      </trkpt>
      <trkpt lat="49.88521" lon="4.81631">
        <ele>243</ele>
        <time>2021-08-14T08:27:44.000Z</time>
      </trkpt>
      <trkpt lat="49.88525" lon="4.81632">
        <ele>243</ele>
        <time>2021-08-14T08:27:45.000Z</time>
      </trkpt>
      <trkpt lat="49.8853" lon="4.81633">
        <ele>243</ele>
        <time>2021-08-14T08:27:46.000Z</time>
      </trkpt>
      <trkpt lat="49.88536" lon="4.81633">
        <ele>243</ele>
        <time>2021-08-14T08:27:47.000Z</time>
      </trkpt>
      <trkpt lat="49.88541" lon="4.81632">
        <ele>243</ele>
        <time>2021-08-14T08:27:48.000Z</time>
      </trkpt>
      <trkpt lat="49.88545" lon="4.81632">
        <ele>243</ele>
        <time>2021-08-14T08:27:49.000Z</time>
      </trkpt>
      <trkpt lat="49.88549" lon="4.81633">
        <ele>242</ele>
        <time>2021-08-14T08:27:50.000Z</time>
      </trkpt>
      <trkpt lat="49.88553" lon="4.81634">
        <ele>242</ele>
        <time>2021-08-14T08:27:51.000Z</time>
      </trkpt>
      <trkpt lat="49.88557" lon="4.81635">
        <ele>242</ele>
        <time>2021-08-14T08:27:52.000Z</time>
      </trkpt>
      <trkpt lat="49.88561" lon="4.81636">
        <ele>242</ele>
        <time>2021-08-14T08:27:53.000Z</time>
      </trkpt>
      <trkpt lat="49.88564" lon="4.81636">
        <ele>241</ele>
        <time>2021-08-14T08:27:54.000Z</time>
      </trkpt>
      <trkpt lat="49.88568" lon="4.81636">
        <ele>241</ele>
        <time>2021-08-14T08:27:55.000Z</time>
      </trkpt>
      <trkpt lat="49.88571" lon="4.81638">
        <ele>241</ele>
        <time>2021-08-14T08:27:56.000Z</time>
      </trkpt>
      <trkpt lat="49.88574" lon="4.81638">
        <ele>241</ele>
        <time>2021-08-14T08:27:57.000Z</time>
      </trkpt>
      <trkpt lat="49.88577" lon="4.81639">
        <ele>240</ele>
        <time>2021-08-14T08:27:58.000Z</time>
      </trkpt>
      <trkpt lat="49.88581" lon="4.8164">
        <ele>240</ele>
        <time>2021-08-14T08:27:59.000Z</time>
      </trkpt>
      <trkpt lat="49.88585" lon="4.81641">
        <ele>240</ele>
        <time>2021-08-14T08:28:00.000Z</time>
      </trkpt>
      <trkpt lat="49.88589" lon="4.81641">
        <ele>239</ele>
        <time>2021-08-14T08:28:01.000Z</time>
      </trkpt>
      <trkpt lat="49.88593" lon="4.81642">
        <ele>239</ele>
        <time>2021-08-14T08:28:02.000Z</time>
      </trkpt>
      <trkpt lat="49.88597" lon="4.81644">
        <ele>239</ele>
        <time>2021-08-14T08:28:03.000Z</time>
      </trkpt>
      <trkpt lat="49.886" lon="4.81645">
        <ele>239</ele>
        <time>2021-08-14T08:28:04.000Z</time>
      </trkpt>
      <trkpt lat="49.88604" lon="4.81647">
        <ele>238</ele>
        <time>2021-08-14T08:28:05.000Z</time>
      </trkpt>
      <trkpt lat="49.88608" lon="4.81647">
        <ele>238</ele>
        <time>2021-08-14T08:28:06.000Z</time>
      </trkpt>
      <trkpt lat="49.88611" lon="4.81646">
        <ele>237</ele>
        <time>2021-08-14T08:28:07.000Z</time>
      </trkpt>
      <trkpt lat="49.88615" lon="4.81644">
        <ele>237</ele>
        <time>2021-08-14T08:28:08.000Z</time>
      </trkpt>
      <trkpt lat="49.88619" lon="4.81643">
        <ele>237</ele>
        <time>2021-08-14T08:28:09.000Z</time>
      </trkpt>
      <trkpt lat="49.88622" lon="4.81643">
        <ele>236</ele>
        <time>2021-08-14T08:28:10.000Z</time>
      </trkpt>
      <trkpt lat="49.88626" lon="4.81641">
        <ele>236</ele>
        <time>2021-08-14T08:28:11.000Z</time>
      </trkpt>
      <trkpt lat="49.88629" lon="4.81637">
        <ele>235</ele>
        <time>2021-08-14T08:28:12.000Z</time>
      </trkpt>
      <trkpt lat="49.88632" lon="4.81633">
        <ele>235</ele>
        <time>2021-08-14T08:28:13.000Z</time>
      </trkpt>
      <trkpt lat="49.88636" lon="4.8163">
        <ele>235</ele>
        <time>2021-08-14T08:28:14.000Z</time>
      </trkpt>
      <trkpt lat="49.88639" lon="4.81628">
        <ele>234</ele>
        <time>2021-08-14T08:28:15.000Z</time>
      </trkpt>
      <trkpt lat="49.88643" lon="4.81626">
        <ele>234</ele>
        <time>2021-08-14T08:28:16.000Z</time>
      </trkpt>
      <trkpt lat="49.88647" lon="4.81624">
        <ele>234</ele>
        <time>2021-08-14T08:28:17.000Z</time>
      </trkpt>
      <trkpt lat="49.88649" lon="4.8162">
        <ele>233</ele>
        <time>2021-08-14T08:28:18.000Z</time>
      </trkpt>
      <trkpt lat="49.88651" lon="4.81615">
        <ele>233</ele>
        <time>2021-08-14T08:28:19.000Z</time>
      </trkpt>
      <trkpt lat="49.88653" lon="4.8161">
        <ele>233</ele>
        <time>2021-08-14T08:28:20.000Z</time>
      </trkpt>
      <trkpt lat="49.88654" lon="4.81603">
        <ele>232</ele>
        <time>2021-08-14T08:28:21.000Z</time>
      </trkpt>
      <trkpt lat="49.88654" lon="4.81598">
        <ele>232</ele>
        <time>2021-08-14T08:28:22.000Z</time>
      </trkpt>
      <trkpt lat="49.88655" lon="4.81592">
        <ele>232</ele>
        <time>2021-08-14T08:28:23.000Z</time>
      </trkpt>
      <trkpt lat="49.88655" lon="4.81587">
        <ele>231</ele>
        <time>2021-08-14T08:28:24.000Z</time>
      </trkpt>
      <trkpt lat="49.88655" lon="4.81582">
        <ele>231</ele>
        <time>2021-08-14T08:28:25.000Z</time>
      </trkpt>
      <trkpt lat="49.88655" lon="4.81578">
        <ele>231</ele>
        <time>2021-08-14T08:28:26.000Z</time>
      </trkpt>
      <trkpt lat="49.88654" lon="4.81574">
        <ele>231</ele>
        <time>2021-08-14T08:28:27.000Z</time>
      </trkpt>
      <trkpt lat="49.88655" lon="4.81572">
        <ele>231</ele>
        <time>2021-08-14T08:28:28.000Z</time>
      </trkpt>
      <trkpt lat="49.88656" lon="4.8157">
        <ele>231</ele>
        <time>2021-08-14T08:28:29.000Z</time>
      </trkpt>
      <trkpt lat="49.88656" lon="4.81566">
        <ele>231</ele>
        <time>2021-08-14T08:28:30.000Z</time>
      </trkpt>
      <trkpt lat="49.88657" lon="4.81562">
        <ele>231</ele>
        <time>2021-08-14T08:28:31.000Z</time>
      </trkpt>
      <trkpt lat="49.88658" lon="4.8156">
        <ele>231</ele>
        <time>2021-08-14T08:28:32.000Z</time>
      </trkpt>
      <trkpt lat="49.88659" lon="4.81558">
        <ele>230</ele>
        <time>2021-08-14T08:28:33.000Z</time>
      </trkpt>
      <trkpt lat="49.8866" lon="4.81557">
        <ele>230</ele>
        <time>2021-08-14T08:28:34.000Z</time>
      </trkpt>
      <trkpt lat="49.88661" lon="4.81556">
        <ele>230</ele>
        <time>2021-08-14T08:28:35.000Z</time>
      </trkpt>
      <trkpt lat="49.88661" lon="4.81554">
        <ele>230</ele>
        <time>2021-08-14T08:28:36.000Z</time>
      </trkpt>
      <trkpt lat="49.88661" lon="4.81551">
        <ele>230</ele>
        <time>2021-08-14T08:28:37.000Z</time>
      </trkpt>
      <trkpt lat="49.88662" lon="4.81549">
        <ele>230</ele>
        <time>2021-08-14T08:28:38.000Z</time>
      </trkpt>
      <trkpt lat="49.88665" lon="4.81546">
        <ele>229</ele>
        <time>2021-08-14T08:28:39.000Z</time>
      </trkpt>
      <trkpt lat="49.88668" lon="4.81543">
        <ele>229</ele>
        <time>2021-08-14T08:28:40.000Z</time>
      </trkpt>
      <trkpt lat="49.88672" lon="4.81541">
        <ele>229</ele>
        <time>2021-08-14T08:28:41.000Z</time>
      </trkpt>
      <trkpt lat="49.88676" lon="4.8154">
        <ele>229</ele>
        <time>2021-08-14T08:28:42.000Z</time>
      </trkpt>
      <trkpt lat="49.8868" lon="4.81539">
        <ele>229</ele>
        <time>2021-08-14T08:28:43.000Z</time>
      </trkpt>
      <trkpt lat="49.88684" lon="4.81538">
        <ele>229</ele>
        <time>2021-08-14T08:28:44.000Z</time>
      </trkpt>
      <trkpt lat="49.88688" lon="4.81536">
        <ele>229</ele>
        <time>2021-08-14T08:28:45.000Z</time>
      </trkpt>
      <trkpt lat="49.88693" lon="4.81536">
        <ele>229</ele>
        <time>2021-08-14T08:28:46.000Z</time>
      </trkpt>
      <trkpt lat="49.88698" lon="4.81536">
        <ele>229</ele>
        <time>2021-08-14T08:28:47.000Z</time>
      </trkpt>
      <trkpt lat="49.88704" lon="4.81535">
        <ele>229</ele>
        <time>2021-08-14T08:28:48.000Z</time>
      </trkpt>
      <trkpt lat="49.88709" lon="4.81534">
        <ele>229</ele>
        <time>2021-08-14T08:28:49.000Z</time>
      </trkpt>
      <trkpt lat="49.88714" lon="4.81533">
        <ele>229</ele>
        <time>2021-08-14T08:28:50.000Z</time>
      </trkpt>
      <trkpt lat="49.88718" lon="4.8153">
        <ele>229</ele>
        <time>2021-08-14T08:28:51.000Z</time>
      </trkpt>
      <trkpt lat="49.88722" lon="4.81529">
        <ele>229</ele>
        <time>2021-08-14T08:28:52.000Z</time>
      </trkpt>
      <trkpt lat="49.88726" lon="4.81528">
        <ele>228</ele>
        <time>2021-08-14T08:28:53.000Z</time>
      </trkpt>
      <trkpt lat="49.8873" lon="4.81527">
        <ele>228</ele>
        <time>2021-08-14T08:28:54.000Z</time>
      </trkpt>
      <trkpt lat="49.88734" lon="4.81526">
        <ele>228</ele>
        <time>2021-08-14T08:28:55.000Z</time>
      </trkpt>
      <trkpt lat="49.88738" lon="4.81524">
        <ele>228</ele>
        <time>2021-08-14T08:28:56.000Z</time>
      </trkpt>
      <trkpt lat="49.88743" lon="4.81524">
        <ele>227</ele>
        <time>2021-08-14T08:28:57.000Z</time>
      </trkpt>
      <trkpt lat="49.88747" lon="4.81524">
        <ele>227</ele>
        <time>2021-08-14T08:28:58.000Z</time>
      </trkpt>
      <trkpt lat="49.88751" lon="4.81524">
        <ele>227</ele>
        <time>2021-08-14T08:28:59.000Z</time>
      </trkpt>
      <trkpt lat="49.88755" lon="4.81523">
        <ele>227</ele>
        <time>2021-08-14T08:29:00.000Z</time>
      </trkpt>
      <trkpt lat="49.8876" lon="4.81523">
        <ele>226</ele>
        <time>2021-08-14T08:29:01.000Z</time>
      </trkpt>
      <trkpt lat="49.88764" lon="4.81522">
        <ele>226</ele>
        <time>2021-08-14T08:29:02.000Z</time>
      </trkpt>
      <trkpt lat="49.88769" lon="4.81521">
        <ele>226</ele>
        <time>2021-08-14T08:29:03.000Z</time>
      </trkpt>
      <trkpt lat="49.88775" lon="4.81521">
        <ele>225</ele>
        <time>2021-08-14T08:29:04.000Z</time>
      </trkpt>
      <trkpt lat="49.8878" lon="4.81519">
        <ele>225</ele>
        <time>2021-08-14T08:29:05.000Z</time>
      </trkpt>
      <trkpt lat="49.88784" lon="4.81518">
        <ele>225</ele>
        <time>2021-08-14T08:29:06.000Z</time>
      </trkpt>
      <trkpt lat="49.88789" lon="4.81517">
        <ele>225</ele>
        <time>2021-08-14T08:29:07.000Z</time>
      </trkpt>
      <trkpt lat="49.88794" lon="4.81517">
        <ele>225</ele>
        <time>2021-08-14T08:29:08.000Z</time>
      </trkpt>
      <trkpt lat="49.88799" lon="4.81517">
        <ele>225</ele>
        <time>2021-08-14T08:29:09.000Z</time>
      </trkpt>
      <trkpt lat="49.88803" lon="4.81517">
        <ele>225</ele>
        <time>2021-08-14T08:29:10.000Z</time>
      </trkpt>
      <trkpt lat="49.88809" lon="4.81517">
        <ele>224</ele>
        <time>2021-08-14T08:29:11.000Z</time>
      </trkpt>
      <trkpt lat="49.88815" lon="4.81516">
        <ele>224</ele>
        <time>2021-08-14T08:29:12.000Z</time>
      </trkpt>
      <trkpt lat="49.8882" lon="4.81514">
        <ele>224</ele>
        <time>2021-08-14T08:29:13.000Z</time>
      </trkpt>
      <trkpt lat="49.88826" lon="4.81513">
        <ele>224</ele>
        <time>2021-08-14T08:29:14.000Z</time>
      </trkpt>
      <trkpt lat="49.88831" lon="4.81513">
        <ele>224</ele>
        <time>2021-08-14T08:29:15.000Z</time>
      </trkpt>
      <trkpt lat="49.88835" lon="4.81512">
        <ele>224</ele>
        <time>2021-08-14T08:29:16.000Z</time>
      </trkpt>
      <trkpt lat="49.88839" lon="4.81511">
        <ele>223</ele>
        <time>2021-08-14T08:29:17.000Z</time>
      </trkpt>
      <trkpt lat="49.88844" lon="4.81511">
        <ele>223</ele>
        <time>2021-08-14T08:29:18.000Z</time>
      </trkpt>
      <trkpt lat="49.8885" lon="4.8151">
        <ele>222</ele>
        <time>2021-08-14T08:29:19.000Z</time>
      </trkpt>
      <trkpt lat="49.88855" lon="4.8151">
        <ele>222</ele>
        <time>2021-08-14T08:29:20.000Z</time>
      </trkpt>
      <trkpt lat="49.88861" lon="4.81509">
        <ele>222</ele>
        <time>2021-08-14T08:29:21.000Z</time>
      </trkpt>
      <trkpt lat="49.88867" lon="4.81509">
        <ele>221</ele>
        <time>2021-08-14T08:29:22.000Z</time>
      </trkpt>
      <trkpt lat="49.88873" lon="4.81508">
        <ele>221</ele>
        <time>2021-08-14T08:29:23.000Z</time>
      </trkpt>
      <trkpt lat="49.88878" lon="4.81508">
        <ele>220</ele>
        <time>2021-08-14T08:29:24.000Z</time>
      </trkpt>
      <trkpt lat="49.88884" lon="4.81508">
        <ele>220</ele>
        <time>2021-08-14T08:29:25.000Z</time>
      </trkpt>
      <trkpt lat="49.8889" lon="4.81507">
        <ele>219</ele>
        <time>2021-08-14T08:29:26.000Z</time>
      </trkpt>
      <trkpt lat="49.88895" lon="4.81507">
        <ele>219</ele>
        <time>2021-08-14T08:29:27.000Z</time>
      </trkpt>
      <trkpt lat="49.889" lon="4.81507">
        <ele>219</ele>
        <time>2021-08-14T08:29:28.000Z</time>
      </trkpt>
      <trkpt lat="49.88905" lon="4.81507">
        <ele>218</ele>
        <time>2021-08-14T08:29:29.000Z</time>
      </trkpt>
      <trkpt lat="49.8891" lon="4.81507">
        <ele>218</ele>
        <time>2021-08-14T08:29:30.000Z</time>
      </trkpt>
      <trkpt lat="49.88913" lon="4.81507">
        <ele>217</ele>
        <time>2021-08-14T08:29:31.000Z</time>
      </trkpt>
      <trkpt lat="49.88917" lon="4.81507">
        <ele>217</ele>
        <time>2021-08-14T08:29:32.000Z</time>
      </trkpt>
      <trkpt lat="49.8892" lon="4.81508">
        <ele>216</ele>
        <time>2021-08-14T08:29:33.000Z</time>
      </trkpt>
      <trkpt lat="49.88923" lon="4.81508">
        <ele>216</ele>
        <time>2021-08-14T08:29:34.000Z</time>
      </trkpt>
      <trkpt lat="49.88926" lon="4.81509">
        <ele>215</ele>
        <time>2021-08-14T08:29:35.000Z</time>
      </trkpt>
      <trkpt lat="49.8893" lon="4.81509">
        <ele>215</ele>
        <time>2021-08-14T08:29:36.000Z</time>
      </trkpt>
      <trkpt lat="49.88934" lon="4.81509">
        <ele>214</ele>
        <time>2021-08-14T08:29:37.000Z</time>
      </trkpt>
      <trkpt lat="49.88939" lon="4.81509">
        <ele>214</ele>
        <time>2021-08-14T08:29:38.000Z</time>
      </trkpt>
      <trkpt lat="49.88944" lon="4.81509">
        <ele>213</ele>
        <time>2021-08-14T08:29:39.000Z</time>
      </trkpt>
      <trkpt lat="49.88948" lon="4.81509">
        <ele>213</ele>
        <time>2021-08-14T08:29:40.000Z</time>
      </trkpt>
      <trkpt lat="49.88953" lon="4.81509">
        <ele>212</ele>
        <time>2021-08-14T08:29:41.000Z</time>
      </trkpt>
      <trkpt lat="49.88958" lon="4.81508">
        <ele>212</ele>
        <time>2021-08-14T08:29:42.000Z</time>
      </trkpt>
      <trkpt lat="49.88964" lon="4.81508">
        <ele>211</ele>
        <time>2021-08-14T08:29:43.000Z</time>
      </trkpt>
      <trkpt lat="49.8897" lon="4.81507">
        <ele>210</ele>
        <time>2021-08-14T08:29:44.000Z</time>
      </trkpt>
      <trkpt lat="49.88975" lon="4.81506">
        <ele>210</ele>
        <time>2021-08-14T08:29:45.000Z</time>
      </trkpt>
      <trkpt lat="49.88981" lon="4.81506">
        <ele>209</ele>
        <time>2021-08-14T08:29:46.000Z</time>
      </trkpt>
      <trkpt lat="49.88987" lon="4.81505">
        <ele>209</ele>
        <time>2021-08-14T08:29:47.000Z</time>
      </trkpt>
      <trkpt lat="49.88993" lon="4.81504">
        <ele>208</ele>
        <time>2021-08-14T08:29:48.000Z</time>
      </trkpt>
      <trkpt lat="49.88998" lon="4.81504">
        <ele>208</ele>
        <time>2021-08-14T08:29:49.000Z</time>
      </trkpt>
      <trkpt lat="49.89002" lon="4.81505">
        <ele>207</ele>
        <time>2021-08-14T08:29:50.000Z</time>
      </trkpt>
      <trkpt lat="49.89007" lon="4.81506">
        <ele>207</ele>
        <time>2021-08-14T08:29:51.000Z</time>
      </trkpt>
      <trkpt lat="49.8901" lon="4.81508">
        <ele>206</ele>
        <time>2021-08-14T08:29:52.000Z</time>
      </trkpt>
      <trkpt lat="49.89014" lon="4.8151">
        <ele>205</ele>
        <time>2021-08-14T08:29:53.000Z</time>
      </trkpt>
      <trkpt lat="49.89018" lon="4.81512">
        <ele>205</ele>
        <time>2021-08-14T08:29:54.000Z</time>
      </trkpt>
      <trkpt lat="49.89022" lon="4.81515">
        <ele>204</ele>
        <time>2021-08-14T08:29:55.000Z</time>
      </trkpt>
      <trkpt lat="49.89027" lon="4.81516">
        <ele>203</ele>
        <time>2021-08-14T08:29:56.000Z</time>
      </trkpt>
      <trkpt lat="49.89032" lon="4.81516">
        <ele>202</ele>
        <time>2021-08-14T08:29:57.000Z</time>
      </trkpt>
      <trkpt lat="49.89036" lon="4.81516">
        <ele>202</ele>
        <time>2021-08-14T08:29:58.000Z</time>
      </trkpt>
      <trkpt lat="49.89041" lon="4.81517">
        <ele>201</ele>
        <time>2021-08-14T08:29:59.000Z</time>
      </trkpt>
      <trkpt lat="49.89046" lon="4.81517">
        <ele>201</ele>
        <time>2021-08-14T08:30:00.000Z</time>
      </trkpt>
      <trkpt lat="49.8905" lon="4.81518">
        <ele>200</ele>
        <time>2021-08-14T08:30:01.000Z</time>
      </trkpt>
      <trkpt lat="49.89054" lon="4.8152">
        <ele>200</ele>
        <time>2021-08-14T08:30:02.000Z</time>
      </trkpt>
      <trkpt lat="49.89058" lon="4.8152">
        <ele>199</ele>
        <time>2021-08-14T08:30:03.000Z</time>
      </trkpt>
      <trkpt lat="49.89062" lon="4.81521">
        <ele>199</ele>
        <time>2021-08-14T08:30:04.000Z</time>
      </trkpt>
      <trkpt lat="49.89067" lon="4.81522">
        <ele>198</ele>
        <time>2021-08-14T08:30:05.000Z</time>
      </trkpt>
      <trkpt lat="49.89072" lon="4.81521">
        <ele>198</ele>
        <time>2021-08-14T08:30:06.000Z</time>
      </trkpt>
      <trkpt lat="49.89077" lon="4.8152">
        <ele>197</ele>
        <time>2021-08-14T08:30:07.000Z</time>
      </trkpt>
      <trkpt lat="49.89083" lon="4.8152">
        <ele>196</ele>
        <time>2021-08-14T08:30:08.000Z</time>
      </trkpt>
      <trkpt lat="49.89088" lon="4.8152">
        <ele>196</ele>
        <time>2021-08-14T08:30:09.000Z</time>
      </trkpt>
      <trkpt lat="49.89092" lon="4.81521">
        <ele>195</ele>
        <time>2021-08-14T08:30:10.000Z</time>
      </trkpt>
      <trkpt lat="49.89096" lon="4.81521">
        <ele>195</ele>
        <time>2021-08-14T08:30:11.000Z</time>
      </trkpt>
      <trkpt lat="49.891" lon="4.8152">
        <ele>194</ele>
        <time>2021-08-14T08:30:12.000Z</time>
      </trkpt>
      <trkpt lat="49.89104" lon="4.8152">
        <ele>194</ele>
        <time>2021-08-14T08:30:13.000Z</time>
      </trkpt>
      <trkpt lat="49.89106" lon="4.8152">
        <ele>193</ele>
        <time>2021-08-14T08:30:14.000Z</time>
      </trkpt>
      <trkpt lat="49.89109" lon="4.81519">
        <ele>193</ele>
        <time>2021-08-14T08:30:15.000Z</time>
      </trkpt>
      <trkpt lat="49.89112" lon="4.81518">
        <ele>192</ele>
        <time>2021-08-14T08:30:16.000Z</time>
      </trkpt>
      <trkpt lat="49.89114" lon="4.81518">
        <ele>192</ele>
        <time>2021-08-14T08:30:17.000Z</time>
      </trkpt>
      <trkpt lat="49.89118" lon="4.81516">
        <ele>191</ele>
        <time>2021-08-14T08:30:18.000Z</time>
      </trkpt>
      <trkpt lat="49.89121" lon="4.81516">
        <ele>191</ele>
        <time>2021-08-14T08:30:19.000Z</time>
      </trkpt>
      <trkpt lat="49.89123" lon="4.81517">
        <ele>191</ele>
        <time>2021-08-14T08:30:20.000Z</time>
      </trkpt>
      <trkpt lat="49.89124" lon="4.81519">
        <ele>190</ele>
        <time>2021-08-14T08:30:21.000Z</time>
      </trkpt>
      <trkpt lat="49.89125" lon="4.8152">
        <ele>189</ele>
        <time>2021-08-14T08:30:22.000Z</time>
      </trkpt>
      <trkpt lat="49.89126" lon="4.81522">
        <ele>189</ele>
        <time>2021-08-14T08:30:23.000Z</time>
      </trkpt>
      <trkpt lat="49.89127" lon="4.81522">
        <ele>189</ele>
        <time>2021-08-14T08:30:24.000Z</time>
      </trkpt>
      <trkpt lat="49.89128" lon="4.81522">
        <ele>188</ele>
        <time>2021-08-14T08:30:25.000Z</time>
      </trkpt>
      <trkpt lat="49.8913" lon="4.81522">
        <ele>187</ele>
        <time>2021-08-14T08:30:26.000Z</time>
      </trkpt>
      <trkpt lat="49.89132" lon="4.81523">
        <ele>187</ele>
        <time>2021-08-14T08:30:27.000Z</time>
      </trkpt>
      <trkpt lat="49.89133" lon="4.81523">
        <ele>186</ele>
        <time>2021-08-14T08:30:28.000Z</time>
      </trkpt>
      <trkpt lat="49.89134" lon="4.81523">
        <ele>186</ele>
        <time>2021-08-14T08:30:29.000Z</time>
      </trkpt>
      <trkpt lat="49.89134" lon="4.81523">
        <ele>185</ele>
        <time>2021-08-14T08:30:30.000Z</time>
      </trkpt>
      <trkpt lat="49.89135" lon="4.81522">
        <ele>185</ele>
        <time>2021-08-14T08:30:31.000Z</time>
      </trkpt>
      <trkpt lat="49.89136" lon="4.8152">
        <ele>184</ele>
        <time>2021-08-14T08:30:32.000Z</time>
      </trkpt>
      <trkpt lat="49.89138" lon="4.81518">
        <ele>184</ele>
        <time>2021-08-14T08:30:33.000Z</time>
      </trkpt>
      <trkpt lat="49.8914" lon="4.81517">
        <ele>183</ele>
        <time>2021-08-14T08:30:34.000Z</time>
      </trkpt>
      <trkpt lat="49.89144" lon="4.81516">
        <ele>183</ele>
        <time>2021-08-14T08:30:35.000Z</time>
      </trkpt>
      <trkpt lat="49.89147" lon="4.81518">
        <ele>182</ele>
        <time>2021-08-14T08:30:36.000Z</time>
      </trkpt>
      <trkpt lat="49.89149" lon="4.81521">
        <ele>181</ele>
        <time>2021-08-14T08:30:37.000Z</time>
      </trkpt>
      <trkpt lat="49.89151" lon="4.81526">
        <ele>181</ele>
        <time>2021-08-14T08:30:38.000Z</time>
      </trkpt>
      <trkpt lat="49.89152" lon="4.81531">
        <ele>180</ele>
        <time>2021-08-14T08:30:39.000Z</time>
      </trkpt>
      <trkpt lat="49.89153" lon="4.81536">
        <ele>180</ele>
        <time>2021-08-14T08:30:40.000Z</time>
      </trkpt>
      <trkpt lat="49.89155" lon="4.81542">
        <ele>179</ele>
        <time>2021-08-14T08:30:41.000Z</time>
      </trkpt>
      <trkpt lat="49.89156" lon="4.81547">
        <ele>179</ele>
        <time>2021-08-14T08:30:42.000Z</time>
      </trkpt>
      <trkpt lat="49.89158" lon="4.81552">
        <ele>178</ele>
        <time>2021-08-14T08:30:43.000Z</time>
      </trkpt>
      <trkpt lat="49.89159" lon="4.81558">
        <ele>177</ele>
        <time>2021-08-14T08:30:44.000Z</time>
      </trkpt>
      <trkpt lat="49.8916" lon="4.81564">
        <ele>177</ele>
        <time>2021-08-14T08:30:45.000Z</time>
      </trkpt>
      <trkpt lat="49.89162" lon="4.8157">
        <ele>176</ele>
        <time>2021-08-14T08:30:46.000Z</time>
      </trkpt>
      <trkpt lat="49.89163" lon="4.81576">
        <ele>176</ele>
        <time>2021-08-14T08:30:47.000Z</time>
      </trkpt>
      <trkpt lat="49.89164" lon="4.81583">
        <ele>175</ele>
        <time>2021-08-14T08:30:48.000Z</time>
      </trkpt>
      <trkpt lat="49.89166" lon="4.8159">
        <ele>174</ele>
        <time>2021-08-14T08:30:49.000Z</time>
      </trkpt>
      <trkpt lat="49.89167" lon="4.81597">
        <ele>174</ele>
        <time>2021-08-14T08:30:50.000Z</time>
      </trkpt>
      <trkpt lat="49.89169" lon="4.81605">
        <ele>173</ele>
        <time>2021-08-14T08:30:51.000Z</time>
      </trkpt>
      <trkpt lat="49.89171" lon="4.81613">
        <ele>172</ele>
        <time>2021-08-14T08:30:52.000Z</time>
      </trkpt>
      <trkpt lat="49.89172" lon="4.8162">
        <ele>172</ele>
        <time>2021-08-14T08:30:53.000Z</time>
      </trkpt>
      <trkpt lat="49.89173" lon="4.81628">
        <ele>171</ele>
        <time>2021-08-14T08:30:54.000Z</time>
      </trkpt>
      <trkpt lat="49.89174" lon="4.81636">
        <ele>170</ele>
        <time>2021-08-14T08:30:55.000Z</time>
      </trkpt>
      <trkpt lat="49.89175" lon="4.81644">
        <ele>169</ele>
        <time>2021-08-14T08:30:56.000Z</time>
      </trkpt>
      <trkpt lat="49.89174" lon="4.81653">
        <ele>169</ele>
        <time>2021-08-14T08:30:57.000Z</time>
      </trkpt>
      <trkpt lat="49.89172" lon="4.81661">
        <ele>168</ele>
        <time>2021-08-14T08:30:58.000Z</time>
      </trkpt>
      <trkpt lat="49.89169" lon="4.81669">
        <ele>167</ele>
        <time>2021-08-14T08:30:59.000Z</time>
      </trkpt>
      <trkpt lat="49.89166" lon="4.81676">
        <ele>167</ele>
        <time>2021-08-14T08:31:00.000Z</time>
      </trkpt>
      <trkpt lat="49.89161" lon="4.81682">
        <ele>166</ele>
        <time>2021-08-14T08:31:01.000Z</time>
      </trkpt>
      <trkpt lat="49.89156" lon="4.81688">
        <ele>165</ele>
        <time>2021-08-14T08:31:02.000Z</time>
      </trkpt>
      <trkpt lat="49.89151" lon="4.81694">
        <ele>165</ele>
        <time>2021-08-14T08:31:03.000Z</time>
      </trkpt>
      <trkpt lat="49.89145" lon="4.817">
        <ele>164</ele>
        <time>2021-08-14T08:31:04.000Z</time>
      </trkpt>
      <trkpt lat="49.89139" lon="4.81705">
        <ele>163</ele>
        <time>2021-08-14T08:31:05.000Z</time>
      </trkpt>
      <trkpt lat="49.89134" lon="4.81711">
        <ele>163</ele>
        <time>2021-08-14T08:31:06.000Z</time>
      </trkpt>
      <trkpt lat="49.89129" lon="4.81717">
        <ele>162</ele>
        <time>2021-08-14T08:31:07.000Z</time>
      </trkpt>
      <trkpt lat="49.89123" lon="4.81722">
        <ele>162</ele>
        <time>2021-08-14T08:31:08.000Z</time>
      </trkpt>
      <trkpt lat="49.89117" lon="4.81729">
        <ele>161</ele>
        <time>2021-08-14T08:31:09.000Z</time>
      </trkpt>
      <trkpt lat="49.89112" lon="4.81734">
        <ele>161</ele>
        <time>2021-08-14T08:31:10.000Z</time>
      </trkpt>
      <trkpt lat="49.89106" lon="4.8174">
        <ele>161</ele>
        <time>2021-08-14T08:31:11.000Z</time>
      </trkpt>
      <trkpt lat="49.89101" lon="4.81746">
        <ele>160</ele>
        <time>2021-08-14T08:31:12.000Z</time>
      </trkpt>
      <trkpt lat="49.89095" lon="4.81751">
        <ele>160</ele>
        <time>2021-08-14T08:31:13.000Z</time>
      </trkpt>
      <trkpt lat="49.8909" lon="4.81755">
        <ele>160</ele>
        <time>2021-08-14T08:31:14.000Z</time>
      </trkpt>
      <trkpt lat="49.89085" lon="4.8176">
        <ele>160</ele>
        <time>2021-08-14T08:31:15.000Z</time>
      </trkpt>
      <trkpt lat="49.8908" lon="4.81764">
        <ele>160</ele>
        <time>2021-08-14T08:31:16.000Z</time>
      </trkpt>
      <trkpt lat="49.89074" lon="4.81768">
        <ele>160</ele>
        <time>2021-08-14T08:31:17.000Z</time>
      </trkpt>
      <trkpt lat="49.89069" lon="4.81772">
        <ele>159</ele>
        <time>2021-08-14T08:31:18.000Z</time>
      </trkpt>
      <trkpt lat="49.89063" lon="4.81776">
        <ele>159</ele>
        <time>2021-08-14T08:31:19.000Z</time>
      </trkpt>
      <trkpt lat="49.89057" lon="4.81779">
        <ele>159</ele>
        <time>2021-08-14T08:31:20.000Z</time>
      </trkpt>
      <trkpt lat="49.89052" lon="4.81783">
        <ele>159</ele>
        <time>2021-08-14T08:31:21.000Z</time>
      </trkpt>
      <trkpt lat="49.89046" lon="4.81785">
        <ele>159</ele>
        <time>2021-08-14T08:31:22.000Z</time>
      </trkpt>
      <trkpt lat="49.89041" lon="4.81788">
        <ele>159</ele>
        <time>2021-08-14T08:31:23.000Z</time>
      </trkpt>
      <trkpt lat="49.89035" lon="4.81791">
        <ele>159</ele>
        <time>2021-08-14T08:31:24.000Z</time>
      </trkpt>
      <trkpt lat="49.89029" lon="4.81793">
        <ele>158</ele>
        <time>2021-08-14T08:31:25.000Z</time>
      </trkpt>
      <trkpt lat="49.89025" lon="4.81795">
        <ele>158</ele>
        <time>2021-08-14T08:31:26.000Z</time>
      </trkpt>
      <trkpt lat="49.89022" lon="4.81798">
        <ele>158</ele>
        <time>2021-08-14T08:31:27.000Z</time>
      </trkpt>
      <trkpt lat="49.89021" lon="4.81803">
        <ele>158</ele>
        <time>2021-08-14T08:31:28.000Z</time>
      </trkpt>
      <trkpt lat="49.8902" lon="4.81807">
        <ele>158</ele>
        <time>2021-08-14T08:31:29.000Z</time>
      </trkpt>
      <trkpt lat="49.89019" lon="4.81812">
        <ele>158</ele>
        <time>2021-08-14T08:31:30.000Z</time>
      </trkpt>
      <trkpt lat="49.89017" lon="4.81817">
        <ele>158</ele>
        <time>2021-08-14T08:31:31.000Z</time>
      </trkpt>
      <trkpt lat="49.89013" lon="4.8182">
        <ele>157</ele>
        <time>2021-08-14T08:31:32.000Z</time>
      </trkpt>
      <trkpt lat="49.89009" lon="4.81823">
        <ele>157</ele>
        <time>2021-08-14T08:31:33.000Z</time>
      </trkpt>
      <trkpt lat="49.89004" lon="4.81826">
        <ele>157</ele>
        <time>2021-08-14T08:31:34.000Z</time>
      </trkpt>
      <trkpt lat="49.89" lon="4.81829">
        <ele>157</ele>
        <time>2021-08-14T08:31:35.000Z</time>
      </trkpt>
      <trkpt lat="49.88995" lon="4.81832">
        <ele>157</ele>
        <time>2021-08-14T08:31:36.000Z</time>
      </trkpt>
      <trkpt lat="49.88991" lon="4.81836">
        <ele>157</ele>
        <time>2021-08-14T08:31:37.000Z</time>
      </trkpt>
      <trkpt lat="49.88986" lon="4.81839">
        <ele>157</ele>
        <time>2021-08-14T08:31:38.000Z</time>
      </trkpt>
      <trkpt lat="49.88982" lon="4.81842">
        <ele>157</ele>
        <time>2021-08-14T08:31:39.000Z</time>
      </trkpt>
      <trkpt lat="49.88979" lon="4.81845">
        <ele>157</ele>
        <time>2021-08-14T08:31:40.000Z</time>
      </trkpt>
      <trkpt lat="49.88975" lon="4.81849">
        <ele>157</ele>
        <time>2021-08-14T08:31:41.000Z</time>
      </trkpt>
      <trkpt lat="49.88973" lon="4.81854">
        <ele>157</ele>
        <time>2021-08-14T08:31:42.000Z</time>
      </trkpt>
      <trkpt lat="49.88971" lon="4.81859">
        <ele>157</ele>
        <time>2021-08-14T08:31:43.000Z</time>
      </trkpt>
      <trkpt lat="49.88971" lon="4.81865">
        <ele>157</ele>
        <time>2021-08-14T08:31:44.000Z</time>
      </trkpt>
      <trkpt lat="49.88973" lon="4.81869">
        <ele>157</ele>
        <time>2021-08-14T08:31:45.000Z</time>
      </trkpt>
      <trkpt lat="49.88976" lon="4.81873">
        <ele>157</ele>
        <time>2021-08-14T08:31:46.000Z</time>
      </trkpt>
      <trkpt lat="49.88978" lon="4.81878">
        <ele>157</ele>
        <time>2021-08-14T08:31:47.000Z</time>
      </trkpt>
      <trkpt lat="49.88981" lon="4.81883">
        <ele>157</ele>
        <time>2021-08-14T08:31:48.000Z</time>
      </trkpt>
      <trkpt lat="49.88984" lon="4.81888">
        <ele>157</ele>
        <time>2021-08-14T08:31:49.000Z</time>
      </trkpt>
      <trkpt lat="49.88987" lon="4.81894">
        <ele>157</ele>
        <time>2021-08-14T08:31:50.000Z</time>
      </trkpt>
      <trkpt lat="49.88991" lon="4.819">
        <ele>156</ele>
        <time>2021-08-14T08:31:51.000Z</time>
      </trkpt>
      <trkpt lat="49.88994" lon="4.81905">
        <ele>156</ele>
        <time>2021-08-14T08:31:52.000Z</time>
      </trkpt>
      <trkpt lat="49.88997" lon="4.81911">
        <ele>156</ele>
        <time>2021-08-14T08:31:53.000Z</time>
      </trkpt>
      <trkpt lat="49.89001" lon="4.81917">
        <ele>156</ele>
        <time>2021-08-14T08:31:54.000Z</time>
      </trkpt>
      <trkpt lat="49.89005" lon="4.81923">
        <ele>156</ele>
        <time>2021-08-14T08:31:55.000Z</time>
      </trkpt>
      <trkpt lat="49.89008" lon="4.81928">
        <ele>156</ele>
        <time>2021-08-14T08:31:56.000Z</time>
      </trkpt>
      <trkpt lat="49.89012" lon="4.81934">
        <ele>156</ele>
        <time>2021-08-14T08:31:57.000Z</time>
      </trkpt>
      <trkpt lat="49.89016" lon="4.8194">
        <ele>156</ele>
        <time>2021-08-14T08:31:58.000Z</time>
      </trkpt>
      <trkpt lat="49.89019" lon="4.81946">
        <ele>156</ele>
        <time>2021-08-14T08:31:59.000Z</time>
      </trkpt>
      <trkpt lat="49.89023" lon="4.81952">
        <ele>156</ele>
        <time>2021-08-14T08:32:00.000Z</time>
      </trkpt>
      <trkpt lat="49.89027" lon="4.81957">
        <ele>156</ele>
        <time>2021-08-14T08:32:01.000Z</time>
      </trkpt>
      <trkpt lat="49.89031" lon="4.81963">
        <ele>156</ele>
        <time>2021-08-14T08:32:02.000Z</time>
      </trkpt>
      <trkpt lat="49.89035" lon="4.81968">
        <ele>156</ele>
        <time>2021-08-14T08:32:03.000Z</time>
      </trkpt>
      <trkpt lat="49.89039" lon="4.81973">
        <ele>156</ele>
        <time>2021-08-14T08:32:04.000Z</time>
      </trkpt>
      <trkpt lat="49.89043" lon="4.81978">
        <ele>156</ele>
        <time>2021-08-14T08:32:05.000Z</time>
      </trkpt>
      <trkpt lat="49.89046" lon="4.81984">
        <ele>156</ele>
        <time>2021-08-14T08:32:06.000Z</time>
      </trkpt>
      <trkpt lat="49.8905" lon="4.81989">
        <ele>156</ele>
        <time>2021-08-14T08:32:07.000Z</time>
      </trkpt>
      <trkpt lat="49.89054" lon="4.81994">
        <ele>156</ele>
        <time>2021-08-14T08:32:08.000Z</time>
      </trkpt>
      <trkpt lat="49.89058" lon="4.81999">
        <ele>156</ele>
        <time>2021-08-14T08:32:09.000Z</time>
      </trkpt>
      <trkpt lat="49.89062" lon="4.82004">
        <ele>156</ele>
        <time>2021-08-14T08:32:10.000Z</time>
      </trkpt>
      <trkpt lat="49.89066" lon="4.82009">
        <ele>157</ele>
        <time>2021-08-14T08:32:11.000Z</time>
      </trkpt>
      <trkpt lat="49.89069" lon="4.82014">
        <ele>157</ele>
        <time>2021-08-14T08:32:12.000Z</time>
      </trkpt>
      <trkpt lat="49.89072" lon="4.82019">
        <ele>157</ele>
        <time>2021-08-14T08:32:13.000Z</time>
      </trkpt>
      <trkpt lat="49.89074" lon="4.82025">
        <ele>157</ele>
        <time>2021-08-14T08:32:14.000Z</time>
      </trkpt>
      <trkpt lat="49.89076" lon="4.82032">
        <ele>157</ele>
        <time>2021-08-14T08:32:15.000Z</time>
      </trkpt>
      <trkpt lat="49.89075" lon="4.82039">
        <ele>157</ele>
        <time>2021-08-14T08:32:16.000Z</time>
      </trkpt>
      <trkpt lat="49.89072" lon="4.82046">
        <ele>157</ele>
        <time>2021-08-14T08:32:17.000Z</time>
      </trkpt>
      <trkpt lat="49.89068" lon="4.82051">
        <ele>157</ele>
        <time>2021-08-14T08:32:18.000Z</time>
      </trkpt>
      <trkpt lat="49.89064" lon="4.82056">
        <ele>157</ele>
        <time>2021-08-14T08:32:19.000Z</time>
      </trkpt>
      <trkpt lat="49.8906" lon="4.8206">
        <ele>157</ele>
        <time>2021-08-14T08:32:20.000Z</time>
      </trkpt>
      <trkpt lat="49.89055" lon="4.82064">
        <ele>157</ele>
        <time>2021-08-14T08:32:21.000Z</time>
      </trkpt>
      <trkpt lat="49.8905" lon="4.82068">
        <ele>157</ele>
        <time>2021-08-14T08:32:22.000Z</time>
      </trkpt>
      <trkpt lat="49.89045" lon="4.82072">
        <ele>157</ele>
        <time>2021-08-14T08:32:23.000Z</time>
      </trkpt>
      <trkpt lat="49.8904" lon="4.82077">
        <ele>157</ele>
        <time>2021-08-14T08:32:24.000Z</time>
      </trkpt>
      <trkpt lat="49.89035" lon="4.82081">
        <ele>157</ele>
        <time>2021-08-14T08:32:25.000Z</time>
      </trkpt>
      <trkpt lat="49.8903" lon="4.82085">
        <ele>157</ele>
        <time>2021-08-14T08:32:26.000Z</time>
      </trkpt>
      <trkpt lat="49.89025" lon="4.8209">
        <ele>157</ele>
        <time>2021-08-14T08:32:27.000Z</time>
      </trkpt>
      <trkpt lat="49.8902" lon="4.82094">
        <ele>157</ele>
        <time>2021-08-14T08:32:28.000Z</time>
      </trkpt>
      <trkpt lat="49.89015" lon="4.82099">
        <ele>157</ele>
        <time>2021-08-14T08:32:29.000Z</time>
      </trkpt>
      <trkpt lat="49.8901" lon="4.82103">
        <ele>157</ele>
        <time>2021-08-14T08:32:30.000Z</time>
      </trkpt>
      <trkpt lat="49.89005" lon="4.82108">
        <ele>157</ele>
        <time>2021-08-14T08:32:31.000Z</time>
      </trkpt>
      <trkpt lat="49.88999" lon="4.82113">
        <ele>157</ele>
        <time>2021-08-14T08:32:32.000Z</time>
      </trkpt>
      <trkpt lat="49.88994" lon="4.82117">
        <ele>157</ele>
        <time>2021-08-14T08:32:33.000Z</time>
      </trkpt>
      <trkpt lat="49.88989" lon="4.82122">
        <ele>157</ele>
        <time>2021-08-14T08:32:34.000Z</time>
      </trkpt>
      <trkpt lat="49.88983" lon="4.82127">
        <ele>157</ele>
        <time>2021-08-14T08:32:35.000Z</time>
      </trkpt>
      <trkpt lat="49.88978" lon="4.82131">
        <ele>157</ele>
        <time>2021-08-14T08:32:36.000Z</time>
      </trkpt>
      <trkpt lat="49.88973" lon="4.82136">
        <ele>157</ele>
        <time>2021-08-14T08:32:37.000Z</time>
      </trkpt>
      <trkpt lat="49.88968" lon="4.82141">
        <ele>157</ele>
        <time>2021-08-14T08:32:38.000Z</time>
      </trkpt>
      <trkpt lat="49.88962" lon="4.82146">
        <ele>157</ele>
        <time>2021-08-14T08:32:39.000Z</time>
      </trkpt>
      <trkpt lat="49.88957" lon="4.8215">
        <ele>157</ele>
        <time>2021-08-14T08:32:40.000Z</time>
      </trkpt>
      <trkpt lat="49.88952" lon="4.82155">
        <ele>157</ele>
        <time>2021-08-14T08:32:41.000Z</time>
      </trkpt>
      <trkpt lat="49.88947" lon="4.82159">
        <ele>157</ele>
        <time>2021-08-14T08:32:42.000Z</time>
      </trkpt>
      <trkpt lat="49.88942" lon="4.82164">
        <ele>157</ele>
        <time>2021-08-14T08:32:43.000Z</time>
      </trkpt>
      <trkpt lat="49.88937" lon="4.82169">
        <ele>157</ele>
        <time>2021-08-14T08:32:44.000Z</time>
      </trkpt>
      <trkpt lat="49.88932" lon="4.82173">
        <ele>158</ele>
        <time>2021-08-14T08:32:45.000Z</time>
      </trkpt>
      <trkpt lat="49.88927" lon="4.82178">
        <ele>158</ele>
        <time>2021-08-14T08:32:46.000Z</time>
      </trkpt>
      <trkpt lat="49.88921" lon="4.82183">
        <ele>158</ele>
        <time>2021-08-14T08:32:47.000Z</time>
      </trkpt>
      <trkpt lat="49.88916" lon="4.82188">
        <ele>158</ele>
        <time>2021-08-14T08:32:48.000Z</time>
      </trkpt>
      <trkpt lat="49.88911" lon="4.82192">
        <ele>158</ele>
        <time>2021-08-14T08:32:49.000Z</time>
      </trkpt>
      <trkpt lat="49.88906" lon="4.82197">
        <ele>158</ele>
        <time>2021-08-14T08:32:50.000Z</time>
      </trkpt>
      <trkpt lat="49.88901" lon="4.82201">
        <ele>158</ele>
        <time>2021-08-14T08:32:51.000Z</time>
      </trkpt>
      <trkpt lat="49.88896" lon="4.82206">
        <ele>158</ele>
        <time>2021-08-14T08:32:52.000Z</time>
      </trkpt>
      <trkpt lat="49.8889" lon="4.8221">
        <ele>158</ele>
        <time>2021-08-14T08:32:53.000Z</time>
      </trkpt>
      <trkpt lat="49.88885" lon="4.82215">
        <ele>158</ele>
        <time>2021-08-14T08:32:54.000Z</time>
      </trkpt>
      <trkpt lat="49.8888" lon="4.8222">
        <ele>158</ele>
        <time>2021-08-14T08:32:55.000Z</time>
      </trkpt>
      <trkpt lat="49.88874" lon="4.82224">
        <ele>158</ele>
        <time>2021-08-14T08:32:56.000Z</time>
      </trkpt>
      <trkpt lat="49.88868" lon="4.82228">
        <ele>158</ele>
        <time>2021-08-14T08:32:57.000Z</time>
      </trkpt>
      <trkpt lat="49.88863" lon="4.82231">
        <ele>158</ele>
        <time>2021-08-14T08:32:58.000Z</time>
      </trkpt>
      <trkpt lat="49.88857" lon="4.82235">
        <ele>158</ele>
        <time>2021-08-14T08:32:59.000Z</time>
      </trkpt>
      <trkpt lat="49.88851" lon="4.82238">
        <ele>158</ele>
        <time>2021-08-14T08:33:00.000Z</time>
      </trkpt>
      <trkpt lat="49.88845" lon="4.8224">
        <ele>158</ele>
        <time>2021-08-14T08:33:01.000Z</time>
      </trkpt>
      <trkpt lat="49.88839" lon="4.82242">
        <ele>158</ele>
        <time>2021-08-14T08:33:02.000Z</time>
      </trkpt>
      <trkpt lat="49.88833" lon="4.82244">
        <ele>158</ele>
        <time>2021-08-14T08:33:03.000Z</time>
      </trkpt>
      <trkpt lat="49.88826" lon="4.82245">
        <ele>158</ele>
        <time>2021-08-14T08:33:04.000Z</time>
      </trkpt>
      <trkpt lat="49.8882" lon="4.82247">
        <ele>158</ele>
        <time>2021-08-14T08:33:05.000Z</time>
      </trkpt>
      <trkpt lat="49.88814" lon="4.82248">
        <ele>159</ele>
        <time>2021-08-14T08:33:06.000Z</time>
      </trkpt>
      <trkpt lat="49.88808" lon="4.82248">
        <ele>159</ele>
        <time>2021-08-14T08:33:07.000Z</time>
      </trkpt>
      <trkpt lat="49.88802" lon="4.82249">
        <ele>159</ele>
        <time>2021-08-14T08:33:08.000Z</time>
      </trkpt>
      <trkpt lat="49.88796" lon="4.8225">
        <ele>159</ele>
        <time>2021-08-14T08:33:09.000Z</time>
      </trkpt>
      <trkpt lat="49.8879" lon="4.82251">
        <ele>159</ele>
        <time>2021-08-14T08:33:10.000Z</time>
      </trkpt>
      <trkpt lat="49.88784" lon="4.82252">
        <ele>159</ele>
        <time>2021-08-14T08:33:11.000Z</time>
      </trkpt>
      <trkpt lat="49.88778" lon="4.82253">
        <ele>159</ele>
        <time>2021-08-14T08:33:12.000Z</time>
      </trkpt>
      <trkpt lat="49.88772" lon="4.82253">
        <ele>159</ele>
        <time>2021-08-14T08:33:13.000Z</time>
      </trkpt>
      <trkpt lat="49.88766" lon="4.82254">
        <ele>159</ele>
        <time>2021-08-14T08:33:14.000Z</time>
      </trkpt>
      <trkpt lat="49.8876" lon="4.82255">
        <ele>159</ele>
        <time>2021-08-14T08:33:15.000Z</time>
      </trkpt>
      <trkpt lat="49.88754" lon="4.82256">
        <ele>160</ele>
        <time>2021-08-14T08:33:16.000Z</time>
      </trkpt>
      <trkpt lat="49.88748" lon="4.82257">
        <ele>160</ele>
        <time>2021-08-14T08:33:17.000Z</time>
      </trkpt>
      <trkpt lat="49.88742" lon="4.82258">
        <ele>160</ele>
        <time>2021-08-14T08:33:18.000Z</time>
      </trkpt>
      <trkpt lat="49.88736" lon="4.82259">
        <ele>160</ele>
        <time>2021-08-14T08:33:19.000Z</time>
      </trkpt>
      <trkpt lat="49.8873" lon="4.8226">
        <ele>160</ele>
        <time>2021-08-14T08:33:20.000Z</time>
      </trkpt>
      <trkpt lat="49.88725" lon="4.82261">
        <ele>160</ele>
        <time>2021-08-14T08:33:21.000Z</time>
      </trkpt>
      <trkpt lat="49.88719" lon="4.82261">
        <ele>160</ele>
        <time>2021-08-14T08:33:22.000Z</time>
      </trkpt>
      <trkpt lat="49.88713" lon="4.82262">
        <ele>160</ele>
        <time>2021-08-14T08:33:23.000Z</time>
      </trkpt>
      <trkpt lat="49.88707" lon="4.82263">
        <ele>160</ele>
        <time>2021-08-14T08:33:24.000Z</time>
      </trkpt>
      <trkpt lat="49.88701" lon="4.82263">
        <ele>160</ele>
        <time>2021-08-14T08:33:25.000Z</time>
      </trkpt>
      <trkpt lat="49.88695" lon="4.82264">
        <ele>160</ele>
        <time>2021-08-14T08:33:26.000Z</time>
      </trkpt>
      <trkpt lat="49.88689" lon="4.82265">
        <ele>161</ele>
        <time>2021-08-14T08:33:27.000Z</time>
      </trkpt>
      <trkpt lat="49.88684" lon="4.82265">
        <ele>161</ele>
        <time>2021-08-14T08:33:28.000Z</time>
      </trkpt>
      <trkpt lat="49.88678" lon="4.82266">
        <ele>161</ele>
        <time>2021-08-14T08:33:29.000Z</time>
      </trkpt>
      <trkpt lat="49.88672" lon="4.82266">
        <ele>161</ele>
        <time>2021-08-14T08:33:30.000Z</time>
      </trkpt>
      <trkpt lat="49.88666" lon="4.82267">
        <ele>161</ele>
        <time>2021-08-14T08:33:31.000Z</time>
      </trkpt>
      <trkpt lat="49.88661" lon="4.82268">
        <ele>161</ele>
        <time>2021-08-14T08:33:32.000Z</time>
      </trkpt>
      <trkpt lat="49.88655" lon="4.82269">
        <ele>162</ele>
        <time>2021-08-14T08:33:33.000Z</time>
      </trkpt>
      <trkpt lat="49.88649" lon="4.8227">
        <ele>162</ele>
        <time>2021-08-14T08:33:34.000Z</time>
      </trkpt>
      <trkpt lat="49.88643" lon="4.82271">
        <ele>162</ele>
        <time>2021-08-14T08:33:35.000Z</time>
      </trkpt>
      <trkpt lat="49.88637" lon="4.82272">
        <ele>162</ele>
        <time>2021-08-14T08:33:36.000Z</time>
      </trkpt>
      <trkpt lat="49.88631" lon="4.82273">
        <ele>162</ele>
        <time>2021-08-14T08:33:37.000Z</time>
      </trkpt>
      <trkpt lat="49.88625" lon="4.82274">
        <ele>162</ele>
        <time>2021-08-14T08:33:38.000Z</time>
      </trkpt>
      <trkpt lat="49.8862" lon="4.82276">
        <ele>162</ele>
        <time>2021-08-14T08:33:39.000Z</time>
      </trkpt>
      <trkpt lat="49.88614" lon="4.82278">
        <ele>162</ele>
        <time>2021-08-14T08:33:40.000Z</time>
      </trkpt>
      <trkpt lat="49.88608" lon="4.8228">
        <ele>162</ele>
        <time>2021-08-14T08:33:41.000Z</time>
      </trkpt>
      <trkpt lat="49.88602" lon="4.82282">
        <ele>162</ele>
        <time>2021-08-14T08:33:42.000Z</time>
      </trkpt>
      <trkpt lat="49.88596" lon="4.82284">
        <ele>162</ele>
        <time>2021-08-14T08:33:43.000Z</time>
      </trkpt>
      <trkpt lat="49.88591" lon="4.82287">
        <ele>162</ele>
        <time>2021-08-14T08:33:44.000Z</time>
      </trkpt>
      <trkpt lat="49.88585" lon="4.82289">
        <ele>162</ele>
        <time>2021-08-14T08:33:45.000Z</time>
      </trkpt>
      <trkpt lat="49.8858" lon="4.82291">
        <ele>162</ele>
        <time>2021-08-14T08:33:46.000Z</time>
      </trkpt>
      <trkpt lat="49.88575" lon="4.82293">
        <ele>162</ele>
        <time>2021-08-14T08:33:47.000Z</time>
      </trkpt>
      <trkpt lat="49.88569" lon="4.82295">
        <ele>162</ele>
        <time>2021-08-14T08:33:48.000Z</time>
      </trkpt>
      <trkpt lat="49.88564" lon="4.82297">
        <ele>162</ele>
        <time>2021-08-14T08:33:49.000Z</time>
      </trkpt>
      <trkpt lat="49.88558" lon="4.82299">
        <ele>162</ele>
        <time>2021-08-14T08:33:50.000Z</time>
      </trkpt>
      <trkpt lat="49.88552" lon="4.82301">
        <ele>161</ele>
        <time>2021-08-14T08:33:51.000Z</time>
      </trkpt>
      <trkpt lat="49.88547" lon="4.82303">
        <ele>161</ele>
        <time>2021-08-14T08:33:52.000Z</time>
      </trkpt>
      <trkpt lat="49.88542" lon="4.82306">
        <ele>161</ele>
        <time>2021-08-14T08:33:53.000Z</time>
      </trkpt>
      <trkpt lat="49.88536" lon="4.82307">
        <ele>161</ele>
        <time>2021-08-14T08:33:54.000Z</time>
      </trkpt>
      <trkpt lat="49.88532" lon="4.82309">
        <ele>161</ele>
        <time>2021-08-14T08:33:55.000Z</time>
      </trkpt>
      <trkpt lat="49.88527" lon="4.8231">
        <ele>161</ele>
        <time>2021-08-14T08:33:56.000Z</time>
      </trkpt>
      <trkpt lat="49.88522" lon="4.82312">
        <ele>161</ele>
        <time>2021-08-14T08:33:57.000Z</time>
      </trkpt>
      <trkpt lat="49.88519" lon="4.82315">
        <ele>161</ele>
        <time>2021-08-14T08:33:58.000Z</time>
      </trkpt>
      <trkpt lat="49.88518" lon="4.82319">
        <ele>161</ele>
        <time>2021-08-14T08:33:59.000Z</time>
      </trkpt>
      <trkpt lat="49.88519" lon="4.82323">
        <ele>161</ele>
        <time>2021-08-14T08:34:00.000Z</time>
      </trkpt>
      <trkpt lat="49.88522" lon="4.82326">
        <ele>161</ele>
        <time>2021-08-14T08:34:01.000Z</time>
      </trkpt>
      <trkpt lat="49.88525" lon="4.82329">
        <ele>161</ele>
        <time>2021-08-14T08:34:02.000Z</time>
      </trkpt>
      <trkpt lat="49.88528" lon="4.82331">
        <ele>161</ele>
        <time>2021-08-14T08:34:03.000Z</time>
      </trkpt>
      <trkpt lat="49.88532" lon="4.82333">
        <ele>161</ele>
        <time>2021-08-14T08:34:04.000Z</time>
      </trkpt>
      <trkpt lat="49.88535" lon="4.82335">
        <ele>161</ele>
        <time>2021-08-14T08:34:05.000Z</time>
      </trkpt>
      <trkpt lat="49.88539" lon="4.82336">
        <ele>162</ele>
        <time>2021-08-14T08:34:06.000Z</time>
      </trkpt>
      <trkpt lat="49.88543" lon="4.82337">
        <ele>162</ele>
        <time>2021-08-14T08:34:07.000Z</time>
      </trkpt>
      <trkpt lat="49.88547" lon="4.82338">
        <ele>162</ele>
        <time>2021-08-14T08:34:08.000Z</time>
      </trkpt>
      <trkpt lat="49.8855" lon="4.82339">
        <ele>162</ele>
        <time>2021-08-14T08:34:09.000Z</time>
      </trkpt>
      <trkpt lat="49.88553" lon="4.82341">
        <ele>162</ele>
        <time>2021-08-14T08:34:10.000Z</time>
      </trkpt>
      <trkpt lat="49.88556" lon="4.82342">
        <ele>162</ele>
        <time>2021-08-14T08:34:11.000Z</time>
      </trkpt>
      <trkpt lat="49.88559" lon="4.82343">
        <ele>163</ele>
        <time>2021-08-14T08:34:12.000Z</time>
      </trkpt>
      <trkpt lat="49.88562" lon="4.82344">
        <ele>163</ele>
        <time>2021-08-14T08:34:13.000Z</time>
      </trkpt>
      <trkpt lat="49.88565" lon="4.82346">
        <ele>163</ele>
        <time>2021-08-14T08:34:14.000Z</time>
      </trkpt>
      <trkpt lat="49.88567" lon="4.82349">
        <ele>163</ele>
        <time>2021-08-14T08:34:15.000Z</time>
      </trkpt>
      <trkpt lat="49.88568" lon="4.82352">
        <ele>163</ele>
        <time>2021-08-14T08:34:16.000Z</time>
      </trkpt>
      <trkpt lat="49.88569" lon="4.82355">
        <ele>164</ele>
        <time>2021-08-14T08:34:17.000Z</time>
      </trkpt>
      <trkpt lat="49.88569" lon="4.82359">
        <ele>164</ele>
        <time>2021-08-14T08:34:18.000Z</time>
      </trkpt>
      <trkpt lat="49.88569" lon="4.82362">
        <ele>164</ele>
        <time>2021-08-14T08:34:19.000Z</time>
      </trkpt>
      <trkpt lat="49.88569" lon="4.82365">
        <ele>164</ele>
        <time>2021-08-14T08:34:20.000Z</time>
      </trkpt>
      <trkpt lat="49.88569" lon="4.82368">
        <ele>165</ele>
        <time>2021-08-14T08:34:21.000Z</time>
      </trkpt>
      <trkpt lat="49.88567" lon="4.82371">
        <ele>165</ele>
        <time>2021-08-14T08:34:22.000Z</time>
      </trkpt>
      <trkpt lat="49.88566" lon="4.82374">
        <ele>165</ele>
        <time>2021-08-14T08:34:23.000Z</time>
      </trkpt>
      <trkpt lat="49.88564" lon="4.82377">
        <ele>165</ele>
        <time>2021-08-14T08:34:24.000Z</time>
      </trkpt>
      <trkpt lat="49.88562" lon="4.8238">
        <ele>165</ele>
        <time>2021-08-14T08:34:25.000Z</time>
      </trkpt>
      <trkpt lat="49.88561" lon="4.82382">
        <ele>165</ele>
        <time>2021-08-14T08:34:26.000Z</time>
      </trkpt>
      <trkpt lat="49.88558" lon="4.82385">
        <ele>165</ele>
        <time>2021-08-14T08:34:27.000Z</time>
      </trkpt>
      <trkpt lat="49.88555" lon="4.82386">
        <ele>165</ele>
        <time>2021-08-14T08:34:28.000Z</time>
      </trkpt>
      <trkpt lat="49.88552" lon="4.82387">
        <ele>165</ele>
        <time>2021-08-14T08:34:29.000Z</time>
      </trkpt>
      <trkpt lat="49.88547" lon="4.82388">
        <ele>165</ele>
        <time>2021-08-14T08:34:30.000Z</time>
      </trkpt>
      <trkpt lat="49.88543" lon="4.82388">
        <ele>165</ele>
        <time>2021-08-14T08:34:31.000Z</time>
      </trkpt>
      <trkpt lat="49.88539" lon="4.82389">
        <ele>165</ele>
        <time>2021-08-14T08:34:32.000Z</time>
      </trkpt>
      <trkpt lat="49.88534" lon="4.82389">
        <ele>165</ele>
        <time>2021-08-14T08:34:33.000Z</time>
      </trkpt>
      <trkpt lat="49.88529" lon="4.82389">
        <ele>165</ele>
        <time>2021-08-14T08:34:34.000Z</time>
      </trkpt>
      <trkpt lat="49.88524" lon="4.8239">
        <ele>165</ele>
        <time>2021-08-14T08:34:35.000Z</time>
      </trkpt>
      <trkpt lat="49.88519" lon="4.82391">
        <ele>165</ele>
        <time>2021-08-14T08:34:36.000Z</time>
      </trkpt>
      <trkpt lat="49.88514" lon="4.82392">
        <ele>165</ele>
        <time>2021-08-14T08:34:37.000Z</time>
      </trkpt>
      <trkpt lat="49.88508" lon="4.82393">
        <ele>165</ele>
        <time>2021-08-14T08:34:38.000Z</time>
      </trkpt>
      <trkpt lat="49.88504" lon="4.82395">
        <ele>165</ele>
        <time>2021-08-14T08:34:39.000Z</time>
      </trkpt>
      <trkpt lat="49.88499" lon="4.82397">
        <ele>165</ele>
        <time>2021-08-14T08:34:40.000Z</time>
      </trkpt>
      <trkpt lat="49.88495" lon="4.82399">
        <ele>165</ele>
        <time>2021-08-14T08:34:41.000Z</time>
      </trkpt>
      <trkpt lat="49.88492" lon="4.82402">
        <ele>165</ele>
        <time>2021-08-14T08:34:42.000Z</time>
      </trkpt>
      <trkpt lat="49.88489" lon="4.82404">
        <ele>165</ele>
        <time>2021-08-14T08:34:43.000Z</time>
      </trkpt>
      <trkpt lat="49.88489" lon="4.82404">
        <ele>165</ele>
        <time>2021-08-14T08:34:44.000Z</time>
      </trkpt>
      <trkpt lat="49.88489" lon="4.82405">
        <ele>165</ele>
        <time>2021-08-14T08:34:45.000Z</time>
      </trkpt>
      <trkpt lat="49.88488" lon="4.82405">
        <ele>165</ele>
        <time>2021-08-14T08:34:46.000Z</time>
      </trkpt>
      <trkpt lat="49.88488" lon="4.82406">
        <ele>165</ele>
        <time>2021-08-14T08:34:47.000Z</time>
      </trkpt>
      <trkpt lat="49.88488" lon="4.82406">
        <ele>165</ele>
        <time>2021-08-14T08:34:48.000Z</time>
      </trkpt>
      <trkpt lat="49.88487" lon="4.82406">
        <ele>165</ele>
        <time>2021-08-14T08:34:49.000Z</time>
      </trkpt>
      <trkpt lat="49.88486" lon="4.82406">
        <ele>165</ele>
        <time>2021-08-14T08:34:50.000Z</time>
      </trkpt>
      <trkpt lat="49.88485" lon="4.82406">
        <ele>165</ele>
        <time>2021-08-14T08:34:51.000Z</time>
      </trkpt>
      <trkpt lat="49.88484" lon="4.82407">
        <ele>165</ele>
        <time>2021-08-14T08:34:52.000Z</time>
      </trkpt>
      <trkpt lat="49.88483" lon="4.82407">
        <ele>165</ele>
        <time>2021-08-14T08:34:53.000Z</time>
      </trkpt>
      <trkpt lat="49.88483" lon="4.82407">
        <ele>165</ele>
        <time>2021-08-14T08:34:54.000Z</time>
      </trkpt>
      <trkpt lat="49.88483" lon="4.82406">
        <ele>165</ele>
        <time>2021-08-14T08:34:55.000Z</time>
      </trkpt>
      <trkpt lat="49.88483" lon="4.82407">
        <ele>165</ele>
        <time>2021-08-14T08:34:56.000Z</time>
      </trkpt>
      <trkpt lat="49.88483" lon="4.82407">
        <ele>165</ele>
        <time>2021-08-14T08:34:57.000Z</time>
      </trkpt>
      <trkpt lat="49.88482" lon="4.82408">
        <ele>165</ele>
        <time>2021-08-14T08:34:58.000Z</time>
      </trkpt>
      <trkpt lat="49.88482" lon="4.82407">
        <ele>166</ele>
        <time>2021-08-14T08:34:59.000Z</time>
      </trkpt>
      <trkpt lat="49.88482" lon="4.82407">
        <ele>166</ele>
        <time>2021-08-14T08:35:00.000Z</time>
      </trkpt>
      <trkpt lat="49.88482" lon="4.82407">
        <ele>166</ele>
        <time>2021-08-14T08:35:01.000Z</time>
      </trkpt>
      <trkpt lat="49.88482" lon="4.82407">
        <ele>166</ele>
        <time>2021-08-14T08:35:02.000Z</time>
      </trkpt>
      <trkpt lat="49.88482" lon="4.82407">
        <ele>166</ele>
        <time>2021-08-14T08:35:03.000Z</time>
      </trkpt>
      <trkpt lat="49.88482" lon="4.82407">
        <ele>166</ele>
        <time>2021-08-14T08:35:04.000Z</time>
      </trkpt>
      <trkpt lat="49.88482" lon="4.82407">
        <ele>166</ele>
        <time>2021-08-14T08:35:05.000Z</time>
      </trkpt>
      <trkpt lat="49.88482" lon="4.82407">
        <ele>166</ele>
        <time>2021-08-14T08:35:06.000Z</time>
      </trkpt>
      <trkpt lat="49.88482" lon="4.82407">
        <ele>166</ele>
        <time>2021-08-14T08:35:07.000Z</time>
      </trkpt>
      <trkpt lat="49.88483" lon="4.82407">
        <ele>166</ele>
        <time>2021-08-14T08:35:08.000Z</time>
      </trkpt>
      <trkpt lat="49.88483" lon="4.82408">
        <ele>166</ele>
        <time>2021-08-14T08:35:09.000Z</time>
      </trkpt>
      <trkpt lat="49.88484" lon="4.82408">
        <ele>166</ele>
        <time>2021-08-14T08:35:10.000Z</time>
      </trkpt>
      <trkpt lat="49.88484" lon="4.82408">
        <ele>166</ele>
        <time>2021-08-14T08:35:11.000Z</time>
      </trkpt>
      <trkpt lat="49.88484" lon="4.82408">
        <ele>166</ele>
        <time>2021-08-14T08:35:12.000Z</time>
      </trkpt>
      <trkpt lat="49.88484" lon="4.82408">
        <ele>166</ele>
        <time>2021-08-14T08:35:13.000Z</time>
      </trkpt>
      <trkpt lat="49.88485" lon="4.82408">
        <ele>166</ele>
        <time>2021-08-14T08:35:14.000Z</time>
      </trkpt>
      <trkpt lat="49.88485" lon="4.82408">
        <ele>166</ele>
        <time>2021-08-14T08:35:15.000Z</time>
      </trkpt>
      <trkpt lat="49.88485" lon="4.82407">
        <ele>166</ele>
        <time>2021-08-14T08:35:16.000Z</time>
      </trkpt>
      <trkpt lat="49.88486" lon="4.82407">
        <ele>166</ele>
        <time>2021-08-14T08:35:17.000Z</time>
      </trkpt>
      <trkpt lat="49.88487" lon="4.82406">
        <ele>166</ele>
        <time>2021-08-14T08:35:18.000Z</time>
      </trkpt>
      <trkpt lat="49.88489" lon="4.82404">
        <ele>166</ele>
        <time>2021-08-14T08:35:19.000Z</time>
      </trkpt>
      <trkpt lat="49.88492" lon="4.82403">
        <ele>166</ele>
        <time>2021-08-14T08:35:20.000Z</time>
      </trkpt>
      <trkpt lat="49.88495" lon="4.82401">
        <ele>166</ele>
        <time>2021-08-14T08:35:21.000Z</time>
      </trkpt>
      <trkpt lat="49.88498" lon="4.82399">
        <ele>166</ele>
        <time>2021-08-14T08:35:22.000Z</time>
      </trkpt>
      <trkpt lat="49.88502" lon="4.82397">
        <ele>166</ele>
        <time>2021-08-14T08:35:23.000Z</time>
      </trkpt>
      <trkpt lat="49.88507" lon="4.82396">
        <ele>166</ele>
        <time>2021-08-14T08:35:24.000Z</time>
      </trkpt>
      <trkpt lat="49.88511" lon="4.82394">
        <ele>166</ele>
        <time>2021-08-14T08:35:25.000Z</time>
      </trkpt>
      <trkpt lat="49.88516" lon="4.82392">
        <ele>166</ele>
        <time>2021-08-14T08:35:26.000Z</time>
      </trkpt>
      <trkpt lat="49.88521" lon="4.82391">
        <ele>166</ele>
        <time>2021-08-14T08:35:27.000Z</time>
      </trkpt>
      <trkpt lat="49.88526" lon="4.82391">
        <ele>167</ele>
        <time>2021-08-14T08:35:28.000Z</time>
      </trkpt>
      <trkpt lat="49.88531" lon="4.8239">
        <ele>167</ele>
        <time>2021-08-14T08:35:29.000Z</time>
      </trkpt>
      <trkpt lat="49.88536" lon="4.8239">
        <ele>167</ele>
        <time>2021-08-14T08:35:30.000Z</time>
      </trkpt>
      <trkpt lat="49.88541" lon="4.82389">
        <ele>167</ele>
        <time>2021-08-14T08:35:31.000Z</time>
      </trkpt>
      <trkpt lat="49.88546" lon="4.82388">
        <ele>167</ele>
        <time>2021-08-14T08:35:32.000Z</time>
      </trkpt>
      <trkpt lat="49.88551" lon="4.82386">
        <ele>167</ele>
        <time>2021-08-14T08:35:33.000Z</time>
      </trkpt>
      <trkpt lat="49.88556" lon="4.82384">
        <ele>167</ele>
        <time>2021-08-14T08:35:34.000Z</time>
      </trkpt>
      <trkpt lat="49.8856" lon="4.82381">
        <ele>166</ele>
        <time>2021-08-14T08:35:35.000Z</time>
      </trkpt>
      <trkpt lat="49.88563" lon="4.82376">
        <ele>166</ele>
        <time>2021-08-14T08:35:36.000Z</time>
      </trkpt>
      <trkpt lat="49.88566" lon="4.8237">
        <ele>166</ele>
        <time>2021-08-14T08:35:37.000Z</time>
      </trkpt>
      <trkpt lat="49.88569" lon="4.82364">
        <ele>166</ele>
        <time>2021-08-14T08:35:38.000Z</time>
      </trkpt>
      <trkpt lat="49.88572" lon="4.82357">
        <ele>166</ele>
        <time>2021-08-14T08:35:39.000Z</time>
      </trkpt>
      <trkpt lat="49.88576" lon="4.82352">
        <ele>166</ele>
        <time>2021-08-14T08:35:40.000Z</time>
      </trkpt>
      <trkpt lat="49.88582" lon="4.82349">
        <ele>166</ele>
        <time>2021-08-14T08:35:41.000Z</time>
      </trkpt>
      <trkpt lat="49.88587" lon="4.82348">
        <ele>166</ele>
        <time>2021-08-14T08:35:42.000Z</time>
      </trkpt>
      <trkpt lat="49.88593" lon="4.82347">
        <ele>166</ele>
        <time>2021-08-14T08:35:43.000Z</time>
      </trkpt>
      <trkpt lat="49.88598" lon="4.82346">
        <ele>166</ele>
        <time>2021-08-14T08:35:44.000Z</time>
      </trkpt>
      <trkpt lat="49.88603" lon="4.82344">
        <ele>166</ele>
        <time>2021-08-14T08:35:45.000Z</time>
      </trkpt>
      <trkpt lat="49.88607" lon="4.82343">
        <ele>166</ele>
        <time>2021-08-14T08:35:46.000Z</time>
      </trkpt>
      <trkpt lat="49.88612" lon="4.82342">
        <ele>166</ele>
        <time>2021-08-14T08:35:47.000Z</time>
      </trkpt>
      <trkpt lat="49.88616" lon="4.82342">
        <ele>167</ele>
        <time>2021-08-14T08:35:48.000Z</time>
      </trkpt>
      <trkpt lat="49.88621" lon="4.82341">
        <ele>167</ele>
        <time>2021-08-14T08:35:49.000Z</time>
      </trkpt>
      <trkpt lat="49.88624" lon="4.8234">
        <ele>167</ele>
        <time>2021-08-14T08:35:50.000Z</time>
      </trkpt>
      <trkpt lat="49.88628" lon="4.8234">
        <ele>167</ele>
        <time>2021-08-14T08:35:51.000Z</time>
      </trkpt>
      <trkpt lat="49.88631" lon="4.8234">
        <ele>167</ele>
        <time>2021-08-14T08:35:52.000Z</time>
      </trkpt>
      <trkpt lat="49.88635" lon="4.82341">
        <ele>167</ele>
        <time>2021-08-14T08:35:53.000Z</time>
      </trkpt>
      <trkpt lat="49.88638" lon="4.82342">
        <ele>167</ele>
        <time>2021-08-14T08:35:54.000Z</time>
      </trkpt>
      <trkpt lat="49.88641" lon="4.82343">
        <ele>167</ele>
        <time>2021-08-14T08:35:55.000Z</time>
      </trkpt>
      <trkpt lat="49.88645" lon="4.82345">
        <ele>167</ele>
        <time>2021-08-14T08:35:56.000Z</time>
      </trkpt>
      <trkpt lat="49.88648" lon="4.82348">
        <ele>168</ele>
        <time>2021-08-14T08:35:57.000Z</time>
      </trkpt>
      <trkpt lat="49.88651" lon="4.8235">
        <ele>168</ele>
        <time>2021-08-14T08:35:58.000Z</time>
      </trkpt>
      <trkpt lat="49.88654" lon="4.82353">
        <ele>168</ele>
        <time>2021-08-14T08:35:59.000Z</time>
      </trkpt>
      <trkpt lat="49.88657" lon="4.82356">
        <ele>168</ele>
        <time>2021-08-14T08:36:00.000Z</time>
      </trkpt>
      <trkpt lat="49.88659" lon="4.8236">
        <ele>168</ele>
        <time>2021-08-14T08:36:01.000Z</time>
      </trkpt>
      <trkpt lat="49.88661" lon="4.82363">
        <ele>168</ele>
        <time>2021-08-14T08:36:02.000Z</time>
      </trkpt>
      <trkpt lat="49.88664" lon="4.82366">
        <ele>168</ele>
        <time>2021-08-14T08:36:03.000Z</time>
      </trkpt>
      <trkpt lat="49.88666" lon="4.82369">
        <ele>169</ele>
        <time>2021-08-14T08:36:04.000Z</time>
      </trkpt>
      <trkpt lat="49.88668" lon="4.82371">
        <ele>169</ele>
        <time>2021-08-14T08:36:05.000Z</time>
      </trkpt>
      <trkpt lat="49.8867" lon="4.82373">
        <ele>169</ele>
        <time>2021-08-14T08:36:06.000Z</time>
      </trkpt>
      <trkpt lat="49.88672" lon="4.82375">
        <ele>169</ele>
        <time>2021-08-14T08:36:07.000Z</time>
      </trkpt>
      <trkpt lat="49.88675" lon="4.82376">
        <ele>169</ele>
        <time>2021-08-14T08:36:08.000Z</time>
      </trkpt>
      <trkpt lat="49.88677" lon="4.82378">
        <ele>169</ele>
        <time>2021-08-14T08:36:09.000Z</time>
      </trkpt>
      <trkpt lat="49.88679" lon="4.82379">
        <ele>170</ele>
        <time>2021-08-14T08:36:10.000Z</time>
      </trkpt>
      <trkpt lat="49.88681" lon="4.82381">
        <ele>170</ele>
        <time>2021-08-14T08:36:11.000Z</time>
      </trkpt>
      <trkpt lat="49.88683" lon="4.82382">
        <ele>170</ele>
        <time>2021-08-14T08:36:12.000Z</time>
      </trkpt>
      <trkpt lat="49.88685" lon="4.82382">
        <ele>170</ele>
        <time>2021-08-14T08:36:13.000Z</time>
      </trkpt>
      <trkpt lat="49.88687" lon="4.82382">
        <ele>171</ele>
        <time>2021-08-14T08:36:14.000Z</time>
      </trkpt>
      <trkpt lat="49.88688" lon="4.82383">
        <ele>171</ele>
        <time>2021-08-14T08:36:15.000Z</time>
      </trkpt>
      <trkpt lat="49.8869" lon="4.82383">
        <ele>171</ele>
        <time>2021-08-14T08:36:16.000Z</time>
      </trkpt>
      <trkpt lat="49.88692" lon="4.82384">
        <ele>171</ele>
        <time>2021-08-14T08:36:17.000Z</time>
      </trkpt>
      <trkpt lat="49.88692" lon="4.82384">
        <ele>171</ele>
        <time>2021-08-14T08:36:18.000Z</time>
      </trkpt>
      <trkpt lat="49.88694" lon="4.82384">
        <ele>172</ele>
        <time>2021-08-14T08:36:19.000Z</time>
      </trkpt>
      <trkpt lat="49.88696" lon="4.82384">
        <ele>172</ele>
        <time>2021-08-14T08:36:20.000Z</time>
      </trkpt>
      <trkpt lat="49.88698" lon="4.82385">
        <ele>172</ele>
        <time>2021-08-14T08:36:21.000Z</time>
      </trkpt>
      <trkpt lat="49.887" lon="4.82386">
        <ele>172</ele>
        <time>2021-08-14T08:36:22.000Z</time>
      </trkpt>
      <trkpt lat="49.88702" lon="4.82387">
        <ele>172</ele>
        <time>2021-08-14T08:36:23.000Z</time>
      </trkpt>
      <trkpt lat="49.88705" lon="4.82387">
        <ele>172</ele>
        <time>2021-08-14T08:36:24.000Z</time>
      </trkpt>
      <trkpt lat="49.88708" lon="4.82388">
        <ele>173</ele>
        <time>2021-08-14T08:36:25.000Z</time>
      </trkpt>
      <trkpt lat="49.8871" lon="4.82389">
        <ele>173</ele>
        <time>2021-08-14T08:36:26.000Z</time>
      </trkpt>
      <trkpt lat="49.88712" lon="4.8239">
        <ele>173</ele>
        <time>2021-08-14T08:36:27.000Z</time>
      </trkpt>
      <trkpt lat="49.88714" lon="4.82391">
        <ele>173</ele>
        <time>2021-08-14T08:36:28.000Z</time>
      </trkpt>
      <trkpt lat="49.88715" lon="4.82392">
        <ele>174</ele>
        <time>2021-08-14T08:36:29.000Z</time>
      </trkpt>
      <trkpt lat="49.88717" lon="4.82393">
        <ele>174</ele>
        <time>2021-08-14T08:36:30.000Z</time>
      </trkpt>
      <trkpt lat="49.88719" lon="4.82393">
        <ele>174</ele>
        <time>2021-08-14T08:36:31.000Z</time>
      </trkpt>
      <trkpt lat="49.88721" lon="4.82394">
        <ele>174</ele>
        <time>2021-08-14T08:36:32.000Z</time>
      </trkpt>
      <trkpt lat="49.88723" lon="4.82395">
        <ele>175</ele>
        <time>2021-08-14T08:36:33.000Z</time>
      </trkpt>
      <trkpt lat="49.88725" lon="4.82396">
        <ele>175</ele>
        <time>2021-08-14T08:36:34.000Z</time>
      </trkpt>
      <trkpt lat="49.88727" lon="4.82397">
        <ele>175</ele>
        <time>2021-08-14T08:36:35.000Z</time>
      </trkpt>
      <trkpt lat="49.88729" lon="4.82397">
        <ele>176</ele>
        <time>2021-08-14T08:36:36.000Z</time>
      </trkpt>
      <trkpt lat="49.88732" lon="4.82398">
        <ele>176</ele>
        <time>2021-08-14T08:36:37.000Z</time>
      </trkpt>
      <trkpt lat="49.88734" lon="4.82399">
        <ele>177</ele>
        <time>2021-08-14T08:36:38.000Z</time>
      </trkpt>
      <trkpt lat="49.88736" lon="4.824">
        <ele>177</ele>
        <time>2021-08-14T08:36:39.000Z</time>
      </trkpt>
      <trkpt lat="49.88738" lon="4.82401">
        <ele>177</ele>
        <time>2021-08-14T08:36:40.000Z</time>
      </trkpt>
      <trkpt lat="49.8874" lon="4.82401">
        <ele>178</ele>
        <time>2021-08-14T08:36:41.000Z</time>
      </trkpt>
      <trkpt lat="49.88741" lon="4.82402">
        <ele>178</ele>
        <time>2021-08-14T08:36:42.000Z</time>
      </trkpt>
      <trkpt lat="49.88743" lon="4.82403">
        <ele>179</ele>
        <time>2021-08-14T08:36:43.000Z</time>
      </trkpt>
      <trkpt lat="49.88746" lon="4.82404">
        <ele>179</ele>
        <time>2021-08-14T08:36:44.000Z</time>
      </trkpt>
      <trkpt lat="49.88748" lon="4.82405">
        <ele>180</ele>
        <time>2021-08-14T08:36:45.000Z</time>
      </trkpt>
      <trkpt lat="49.8875" lon="4.82406">
        <ele>180</ele>
        <time>2021-08-14T08:36:46.000Z</time>
      </trkpt>
      <trkpt lat="49.88752" lon="4.82406">
        <ele>181</ele>
        <time>2021-08-14T08:36:47.000Z</time>
      </trkpt>
      <trkpt lat="49.88755" lon="4.82407">
        <ele>181</ele>
        <time>2021-08-14T08:36:48.000Z</time>
      </trkpt>
      <trkpt lat="49.88757" lon="4.82408">
        <ele>182</ele>
        <time>2021-08-14T08:36:49.000Z</time>
      </trkpt>
      <trkpt lat="49.8876" lon="4.82409">
        <ele>182</ele>
        <time>2021-08-14T08:36:50.000Z</time>
      </trkpt>
      <trkpt lat="49.88763" lon="4.82409">
        <ele>183</ele>
        <time>2021-08-14T08:36:51.000Z</time>
      </trkpt>
      <trkpt lat="49.88765" lon="4.8241">
        <ele>183</ele>
        <time>2021-08-14T08:36:52.000Z</time>
      </trkpt>
      <trkpt lat="49.88767" lon="4.8241">
        <ele>184</ele>
        <time>2021-08-14T08:36:53.000Z</time>
      </trkpt>
      <trkpt lat="49.88769" lon="4.82411">
        <ele>184</ele>
        <time>2021-08-14T08:36:54.000Z</time>
      </trkpt>
      <trkpt lat="49.88772" lon="4.82411">
        <ele>184</ele>
        <time>2021-08-14T08:36:55.000Z</time>
      </trkpt>
      <trkpt lat="49.88774" lon="4.82412">
        <ele>185</ele>
        <time>2021-08-14T08:36:56.000Z</time>
      </trkpt>
      <trkpt lat="49.88776" lon="4.82412">
        <ele>185</ele>
        <time>2021-08-14T08:36:57.000Z</time>
      </trkpt>
      <trkpt lat="49.88777" lon="4.82412">
        <ele>186</ele>
        <time>2021-08-14T08:36:58.000Z</time>
      </trkpt>
      <trkpt lat="49.88779" lon="4.82411">
        <ele>186</ele>
        <time>2021-08-14T08:36:59.000Z</time>
      </trkpt>
      <trkpt lat="49.88782" lon="4.82412">
        <ele>187</ele>
        <time>2021-08-14T08:37:00.000Z</time>
      </trkpt>
      <trkpt lat="49.88784" lon="4.82413">
        <ele>187</ele>
        <time>2021-08-14T08:37:01.000Z</time>
      </trkpt>
      <trkpt lat="49.88787" lon="4.82414">
        <ele>188</ele>
        <time>2021-08-14T08:37:02.000Z</time>
      </trkpt>
      <trkpt lat="49.88789" lon="4.82414">
        <ele>188</ele>
        <time>2021-08-14T08:37:03.000Z</time>
      </trkpt>
      <trkpt lat="49.88791" lon="4.82416">
        <ele>189</ele>
        <time>2021-08-14T08:37:04.000Z</time>
      </trkpt>
      <trkpt lat="49.88793" lon="4.82416">
        <ele>189</ele>
        <time>2021-08-14T08:37:05.000Z</time>
      </trkpt>
      <trkpt lat="49.88795" lon="4.82416">
        <ele>189</ele>
        <time>2021-08-14T08:37:06.000Z</time>
      </trkpt>
      <trkpt lat="49.88798" lon="4.82417">
        <ele>190</ele>
        <time>2021-08-14T08:37:07.000Z</time>
      </trkpt>
      <trkpt lat="49.888" lon="4.82416">
        <ele>190</ele>
        <time>2021-08-14T08:37:08.000Z</time>
      </trkpt>
      <trkpt lat="49.88802" lon="4.82416">
        <ele>190</ele>
        <time>2021-08-14T08:37:09.000Z</time>
      </trkpt>
      <trkpt lat="49.88804" lon="4.82416">
        <ele>191</ele>
        <time>2021-08-14T08:37:10.000Z</time>
      </trkpt>
      <trkpt lat="49.88806" lon="4.82416">
        <ele>191</ele>
        <time>2021-08-14T08:37:11.000Z</time>
      </trkpt>
      <trkpt lat="49.88809" lon="4.82416">
        <ele>192</ele>
        <time>2021-08-14T08:37:12.000Z</time>
      </trkpt>
      <trkpt lat="49.88811" lon="4.82416">
        <ele>192</ele>
        <time>2021-08-14T08:37:13.000Z</time>
      </trkpt>
      <trkpt lat="49.88813" lon="4.82416">
        <ele>192</ele>
        <time>2021-08-14T08:37:14.000Z</time>
      </trkpt>
      <trkpt lat="49.88816" lon="4.82417">
        <ele>192</ele>
        <time>2021-08-14T08:37:15.000Z</time>
      </trkpt>
      <trkpt lat="49.88818" lon="4.82417">
        <ele>193</ele>
        <time>2021-08-14T08:37:16.000Z</time>
      </trkpt>
      <trkpt lat="49.8882" lon="4.82416">
        <ele>193</ele>
        <time>2021-08-14T08:37:17.000Z</time>
      </trkpt>
      <trkpt lat="49.88822" lon="4.82415">
        <ele>193</ele>
        <time>2021-08-14T08:37:18.000Z</time>
      </trkpt>
      <trkpt lat="49.88824" lon="4.82415">
        <ele>194</ele>
        <time>2021-08-14T08:37:19.000Z</time>
      </trkpt>
      <trkpt lat="49.88826" lon="4.82414">
        <ele>194</ele>
        <time>2021-08-14T08:37:20.000Z</time>
      </trkpt>
      <trkpt lat="49.88828" lon="4.82414">
        <ele>194</ele>
        <time>2021-08-14T08:37:21.000Z</time>
      </trkpt>
      <trkpt lat="49.8883" lon="4.82414">
        <ele>195</ele>
        <time>2021-08-14T08:37:22.000Z</time>
      </trkpt>
      <trkpt lat="49.88833" lon="4.82413">
        <ele>195</ele>
        <time>2021-08-14T08:37:23.000Z</time>
      </trkpt>
      <trkpt lat="49.88835" lon="4.82412">
        <ele>196</ele>
        <time>2021-08-14T08:37:24.000Z</time>
      </trkpt>
      <trkpt lat="49.88837" lon="4.82412">
        <ele>196</ele>
        <time>2021-08-14T08:37:25.000Z</time>
      </trkpt>
      <trkpt lat="49.88839" lon="4.82411">
        <ele>196</ele>
        <time>2021-08-14T08:37:26.000Z</time>
      </trkpt>
      <trkpt lat="49.8884" lon="4.8241">
        <ele>197</ele>
        <time>2021-08-14T08:37:27.000Z</time>
      </trkpt>
      <trkpt lat="49.88842" lon="4.8241">
        <ele>197</ele>
        <time>2021-08-14T08:37:28.000Z</time>
      </trkpt>
      <trkpt lat="49.88844" lon="4.82409">
        <ele>197</ele>
        <time>2021-08-14T08:37:29.000Z</time>
      </trkpt>
      <trkpt lat="49.88846" lon="4.82408">
        <ele>198</ele>
        <time>2021-08-14T08:37:30.000Z</time>
      </trkpt>
      <trkpt lat="49.88848" lon="4.82408">
        <ele>198</ele>
        <time>2021-08-14T08:37:31.000Z</time>
      </trkpt>
      <trkpt lat="49.88851" lon="4.82407">
        <ele>198</ele>
        <time>2021-08-14T08:37:32.000Z</time>
      </trkpt>
      <trkpt lat="49.88854" lon="4.82407">
        <ele>199</ele>
        <time>2021-08-14T08:37:33.000Z</time>
      </trkpt>
      <trkpt lat="49.88857" lon="4.82407">
        <ele>199</ele>
        <time>2021-08-14T08:37:34.000Z</time>
      </trkpt>
      <trkpt lat="49.8886" lon="4.82406">
        <ele>200</ele>
        <time>2021-08-14T08:37:35.000Z</time>
      </trkpt>
      <trkpt lat="49.88862" lon="4.82407">
        <ele>200</ele>
        <time>2021-08-14T08:37:36.000Z</time>
      </trkpt>
      <trkpt lat="49.88865" lon="4.82406">
        <ele>201</ele>
        <time>2021-08-14T08:37:37.000Z</time>
      </trkpt>
      <trkpt lat="49.88867" lon="4.82406">
        <ele>201</ele>
        <time>2021-08-14T08:37:38.000Z</time>
      </trkpt>
      <trkpt lat="49.8887" lon="4.82408">
        <ele>202</ele>
        <time>2021-08-14T08:37:39.000Z</time>
      </trkpt>
      <trkpt lat="49.88873" lon="4.82409">
        <ele>202</ele>
        <time>2021-08-14T08:37:40.000Z</time>
      </trkpt>
      <trkpt lat="49.88875" lon="4.82409">
        <ele>203</ele>
        <time>2021-08-14T08:37:41.000Z</time>
      </trkpt>
      <trkpt lat="49.88877" lon="4.8241">
        <ele>203</ele>
        <time>2021-08-14T08:37:42.000Z</time>
      </trkpt>
      <trkpt lat="49.8888" lon="4.82411">
        <ele>203</ele>
        <time>2021-08-14T08:37:43.000Z</time>
      </trkpt>
      <trkpt lat="49.88882" lon="4.82411">
        <ele>204</ele>
        <time>2021-08-14T08:37:44.000Z</time>
      </trkpt>
      <trkpt lat="49.88884" lon="4.8241">
        <ele>204</ele>
        <time>2021-08-14T08:37:45.000Z</time>
      </trkpt>
      <trkpt lat="49.88887" lon="4.8241">
        <ele>205</ele>
        <time>2021-08-14T08:37:46.000Z</time>
      </trkpt>
      <trkpt lat="49.88889" lon="4.82409">
        <ele>205</ele>
        <time>2021-08-14T08:37:47.000Z</time>
      </trkpt>
      <trkpt lat="49.88891" lon="4.82409">
        <ele>206</ele>
        <time>2021-08-14T08:37:48.000Z</time>
      </trkpt>
      <trkpt lat="49.88893" lon="4.82408">
        <ele>206</ele>
        <time>2021-08-14T08:37:49.000Z</time>
      </trkpt>
      <trkpt lat="49.88895" lon="4.82408">
        <ele>207</ele>
        <time>2021-08-14T08:37:50.000Z</time>
      </trkpt>
      <trkpt lat="49.88897" lon="4.82407">
        <ele>207</ele>
        <time>2021-08-14T08:37:51.000Z</time>
      </trkpt>
      <trkpt lat="49.88899" lon="4.82407">
        <ele>207</ele>
        <time>2021-08-14T08:37:52.000Z</time>
      </trkpt>
      <trkpt lat="49.88901" lon="4.82407">
        <ele>208</ele>
        <time>2021-08-14T08:37:53.000Z</time>
      </trkpt>
      <trkpt lat="49.88903" lon="4.82408">
        <ele>208</ele>
        <time>2021-08-14T08:37:54.000Z</time>
      </trkpt>
      <trkpt lat="49.88905" lon="4.82407">
        <ele>208</ele>
        <time>2021-08-14T08:37:55.000Z</time>
      </trkpt>
      <trkpt lat="49.88907" lon="4.82407">
        <ele>209</ele>
        <time>2021-08-14T08:37:56.000Z</time>
      </trkpt>
      <trkpt lat="49.88909" lon="4.82407">
        <ele>209</ele>
        <time>2021-08-14T08:37:57.000Z</time>
      </trkpt>
      <trkpt lat="49.88912" lon="4.82407">
        <ele>209</ele>
        <time>2021-08-14T08:37:58.000Z</time>
      </trkpt>
      <trkpt lat="49.88914" lon="4.82406">
        <ele>210</ele>
        <time>2021-08-14T08:37:59.000Z</time>
      </trkpt>
      <trkpt lat="49.88917" lon="4.82406">
        <ele>210</ele>
        <time>2021-08-14T08:38:00.000Z</time>
      </trkpt>
      <trkpt lat="49.8892" lon="4.82406">
        <ele>210</ele>
        <time>2021-08-14T08:38:01.000Z</time>
      </trkpt>
      <trkpt lat="49.88922" lon="4.82406">
        <ele>211</ele>
        <time>2021-08-14T08:38:02.000Z</time>
      </trkpt>
      <trkpt lat="49.88925" lon="4.82406">
        <ele>211</ele>
        <time>2021-08-14T08:38:03.000Z</time>
      </trkpt>
      <trkpt lat="49.88927" lon="4.82405">
        <ele>211</ele>
        <time>2021-08-14T08:38:04.000Z</time>
      </trkpt>
      <trkpt lat="49.88929" lon="4.82405">
        <ele>212</ele>
        <time>2021-08-14T08:38:05.000Z</time>
      </trkpt>
      <trkpt lat="49.88931" lon="4.82405">
        <ele>212</ele>
        <time>2021-08-14T08:38:06.000Z</time>
      </trkpt>
      <trkpt lat="49.88934" lon="4.82405">
        <ele>212</ele>
        <time>2021-08-14T08:38:07.000Z</time>
      </trkpt>
      <trkpt lat="49.88936" lon="4.82404">
        <ele>212</ele>
        <time>2021-08-14T08:38:08.000Z</time>
      </trkpt>
      <trkpt lat="49.88939" lon="4.82404">
        <ele>212</ele>
        <time>2021-08-14T08:38:09.000Z</time>
      </trkpt>
      <trkpt lat="49.88941" lon="4.82404">
        <ele>212</ele>
        <time>2021-08-14T08:38:10.000Z</time>
      </trkpt>
      <trkpt lat="49.88943" lon="4.82404">
        <ele>213</ele>
        <time>2021-08-14T08:38:11.000Z</time>
      </trkpt>
      <trkpt lat="49.88945" lon="4.82404">
        <ele>213</ele>
        <time>2021-08-14T08:38:12.000Z</time>
      </trkpt>
      <trkpt lat="49.88947" lon="4.82404">
        <ele>213</ele>
        <time>2021-08-14T08:38:13.000Z</time>
      </trkpt>
      <trkpt lat="49.88949" lon="4.82403">
        <ele>214</ele>
        <time>2021-08-14T08:38:14.000Z</time>
      </trkpt>
      <trkpt lat="49.88952" lon="4.82403">
        <ele>214</ele>
        <time>2021-08-14T08:38:15.000Z</time>
      </trkpt>
      <trkpt lat="49.88954" lon="4.82404">
        <ele>214</ele>
        <time>2021-08-14T08:38:16.000Z</time>
      </trkpt>
      <trkpt lat="49.88957" lon="4.82403">
        <ele>215</ele>
        <time>2021-08-14T08:38:17.000Z</time>
      </trkpt>
      <trkpt lat="49.8896" lon="4.82403">
        <ele>215</ele>
        <time>2021-08-14T08:38:18.000Z</time>
      </trkpt>
      <trkpt lat="49.88962" lon="4.82402">
        <ele>215</ele>
        <time>2021-08-14T08:38:19.000Z</time>
      </trkpt>
      <trkpt lat="49.88964" lon="4.82401">
        <ele>215</ele>
        <time>2021-08-14T08:38:20.000Z</time>
      </trkpt>
      <trkpt lat="49.88966" lon="4.824">
        <ele>216</ele>
        <time>2021-08-14T08:38:21.000Z</time>
      </trkpt>
      <trkpt lat="49.88969" lon="4.82399">
        <ele>216</ele>
        <time>2021-08-14T08:38:22.000Z</time>
      </trkpt>
      <trkpt lat="49.88971" lon="4.82398">
        <ele>216</ele>
        <time>2021-08-14T08:38:23.000Z</time>
      </trkpt>
      <trkpt lat="49.88973" lon="4.82397">
        <ele>216</ele>
        <time>2021-08-14T08:38:24.000Z</time>
      </trkpt>
      <trkpt lat="49.88976" lon="4.82396">
        <ele>216</ele>
        <time>2021-08-14T08:38:25.000Z</time>
      </trkpt>
      <trkpt lat="49.88978" lon="4.82396">
        <ele>216</ele>
        <time>2021-08-14T08:38:26.000Z</time>
      </trkpt>
      <trkpt lat="49.8898" lon="4.82396">
        <ele>216</ele>
        <time>2021-08-14T08:38:27.000Z</time>
      </trkpt>
      <trkpt lat="49.88982" lon="4.82395">
        <ele>216</ele>
        <time>2021-08-14T08:38:28.000Z</time>
      </trkpt>
      <trkpt lat="49.88985" lon="4.82395">
        <ele>217</ele>
        <time>2021-08-14T08:38:29.000Z</time>
      </trkpt>
      <trkpt lat="49.88987" lon="4.82395">
        <ele>217</ele>
        <time>2021-08-14T08:38:30.000Z</time>
      </trkpt>
      <trkpt lat="49.88989" lon="4.82395">
        <ele>217</ele>
        <time>2021-08-14T08:38:31.000Z</time>
      </trkpt>
      <trkpt lat="49.88992" lon="4.82395">
        <ele>217</ele>
        <time>2021-08-14T08:38:32.000Z</time>
      </trkpt>
      <trkpt lat="49.88994" lon="4.82395">
        <ele>217</ele>
        <time>2021-08-14T08:38:33.000Z</time>
      </trkpt>
      <trkpt lat="49.88997" lon="4.82396">
        <ele>217</ele>
        <time>2021-08-14T08:38:34.000Z</time>
      </trkpt>
      <trkpt lat="49.88999" lon="4.82396">
        <ele>217</ele>
        <time>2021-08-14T08:38:35.000Z</time>
      </trkpt>
      <trkpt lat="49.89002" lon="4.82396">
        <ele>217</ele>
        <time>2021-08-14T08:38:36.000Z</time>
      </trkpt>
      <trkpt lat="49.89004" lon="4.82397">
        <ele>217</ele>
        <time>2021-08-14T08:38:37.000Z</time>
      </trkpt>
      <trkpt lat="49.89006" lon="4.82398">
        <ele>217</ele>
        <time>2021-08-14T08:38:38.000Z</time>
      </trkpt>
      <trkpt lat="49.89008" lon="4.82397">
        <ele>217</ele>
        <time>2021-08-14T08:38:39.000Z</time>
      </trkpt>
      <trkpt lat="49.89011" lon="4.82397">
        <ele>217</ele>
        <time>2021-08-14T08:38:40.000Z</time>
      </trkpt>
      <trkpt lat="49.89013" lon="4.82397">
        <ele>217</ele>
        <time>2021-08-14T08:38:41.000Z</time>
      </trkpt>
      <trkpt lat="49.89015" lon="4.82397">
        <ele>217</ele>
        <time>2021-08-14T08:38:42.000Z</time>
      </trkpt>
      <trkpt lat="49.89018" lon="4.82397">
        <ele>217</ele>
        <time>2021-08-14T08:38:43.000Z</time>
      </trkpt>
      <trkpt lat="49.8902" lon="4.82396">
        <ele>217</ele>
        <time>2021-08-14T08:38:44.000Z</time>
      </trkpt>
      <trkpt lat="49.89023" lon="4.82396">
        <ele>217</ele>
        <time>2021-08-14T08:38:45.000Z</time>
      </trkpt>
      <trkpt lat="49.89025" lon="4.82396">
        <ele>217</ele>
        <time>2021-08-14T08:38:46.000Z</time>
      </trkpt>
      <trkpt lat="49.89026" lon="4.82395">
        <ele>217</ele>
        <time>2021-08-14T08:38:47.000Z</time>
      </trkpt>
      <trkpt lat="49.89028" lon="4.82395">
        <ele>217</ele>
        <time>2021-08-14T08:38:48.000Z</time>
      </trkpt>
      <trkpt lat="49.89031" lon="4.82394">
        <ele>218</ele>
        <time>2021-08-14T08:38:49.000Z</time>
      </trkpt>
      <trkpt lat="49.89033" lon="4.82394">
        <ele>218</ele>
        <time>2021-08-14T08:38:50.000Z</time>
      </trkpt>
      <trkpt lat="49.89035" lon="4.82393">
        <ele>218</ele>
        <time>2021-08-14T08:38:51.000Z</time>
      </trkpt>
      <trkpt lat="49.89038" lon="4.82392">
        <ele>218</ele>
        <time>2021-08-14T08:38:52.000Z</time>
      </trkpt>
      <trkpt lat="49.8904" lon="4.8239">
        <ele>218</ele>
        <time>2021-08-14T08:38:53.000Z</time>
      </trkpt>
      <trkpt lat="49.89043" lon="4.82389">
        <ele>219</ele>
        <time>2021-08-14T08:38:54.000Z</time>
      </trkpt>
      <trkpt lat="49.89045" lon="4.82388">
        <ele>219</ele>
        <time>2021-08-14T08:38:55.000Z</time>
      </trkpt>
      <trkpt lat="49.89048" lon="4.82387">
        <ele>219</ele>
        <time>2021-08-14T08:38:56.000Z</time>
      </trkpt>
      <trkpt lat="49.8905" lon="4.82386">
        <ele>220</ele>
        <time>2021-08-14T08:38:57.000Z</time>
      </trkpt>
      <trkpt lat="49.89052" lon="4.82384">
        <ele>220</ele>
        <time>2021-08-14T08:38:58.000Z</time>
      </trkpt>
      <trkpt lat="49.89055" lon="4.82384">
        <ele>220</ele>
        <time>2021-08-14T08:38:59.000Z</time>
      </trkpt>
      <trkpt lat="49.89057" lon="4.82384">
        <ele>220</ele>
        <time>2021-08-14T08:39:00.000Z</time>
      </trkpt>
      <trkpt lat="49.89059" lon="4.82383">
        <ele>221</ele>
        <time>2021-08-14T08:39:01.000Z</time>
      </trkpt>
      <trkpt lat="49.89062" lon="4.82383">
        <ele>221</ele>
        <time>2021-08-14T08:39:02.000Z</time>
      </trkpt>
      <trkpt lat="49.89064" lon="4.82382">
        <ele>221</ele>
        <time>2021-08-14T08:39:03.000Z</time>
      </trkpt>
      <trkpt lat="49.89066" lon="4.82381">
        <ele>221</ele>
        <time>2021-08-14T08:39:04.000Z</time>
      </trkpt>
      <trkpt lat="49.89069" lon="4.82379">
        <ele>222</ele>
        <time>2021-08-14T08:39:05.000Z</time>
      </trkpt>
      <trkpt lat="49.89071" lon="4.82378">
        <ele>222</ele>
        <time>2021-08-14T08:39:06.000Z</time>
      </trkpt>
      <trkpt lat="49.89073" lon="4.82377">
        <ele>222</ele>
        <time>2021-08-14T08:39:07.000Z</time>
      </trkpt>
      <trkpt lat="49.89076" lon="4.82376">
        <ele>222</ele>
        <time>2021-08-14T08:39:08.000Z</time>
      </trkpt>
      <trkpt lat="49.89078" lon="4.82375">
        <ele>223</ele>
        <time>2021-08-14T08:39:09.000Z</time>
      </trkpt>
      <trkpt lat="49.8908" lon="4.82374">
        <ele>223</ele>
        <time>2021-08-14T08:39:10.000Z</time>
      </trkpt>
      <trkpt lat="49.89083" lon="4.82373">
        <ele>223</ele>
        <time>2021-08-14T08:39:11.000Z</time>
      </trkpt>
      <trkpt lat="49.89085" lon="4.82372">
        <ele>224</ele>
        <time>2021-08-14T08:39:12.000Z</time>
      </trkpt>
      <trkpt lat="49.89087" lon="4.8237">
        <ele>224</ele>
        <time>2021-08-14T08:39:13.000Z</time>
      </trkpt>
      <trkpt lat="49.8909" lon="4.82369">
        <ele>224</ele>
        <time>2021-08-14T08:39:14.000Z</time>
      </trkpt>
      <trkpt lat="49.89092" lon="4.82369">
        <ele>224</ele>
        <time>2021-08-14T08:39:15.000Z</time>
      </trkpt>
      <trkpt lat="49.89094" lon="4.82368">
        <ele>225</ele>
        <time>2021-08-14T08:39:16.000Z</time>
      </trkpt>
      <trkpt lat="49.89097" lon="4.82367">
        <ele>225</ele>
        <time>2021-08-14T08:39:17.000Z</time>
      </trkpt>
      <trkpt lat="49.89099" lon="4.82367">
        <ele>225</ele>
        <time>2021-08-14T08:39:18.000Z</time>
      </trkpt>
      <trkpt lat="49.89101" lon="4.82366">
        <ele>225</ele>
        <time>2021-08-14T08:39:19.000Z</time>
      </trkpt>
      <trkpt lat="49.89104" lon="4.82365">
        <ele>226</ele>
        <time>2021-08-14T08:39:20.000Z</time>
      </trkpt>
      <trkpt lat="49.89106" lon="4.82364">
        <ele>226</ele>
        <time>2021-08-14T08:39:21.000Z</time>
      </trkpt>
      <trkpt lat="49.89109" lon="4.82363">
        <ele>226</ele>
        <time>2021-08-14T08:39:22.000Z</time>
      </trkpt>
      <trkpt lat="49.89111" lon="4.82363">
        <ele>226</ele>
        <time>2021-08-14T08:39:23.000Z</time>
      </trkpt>
      <trkpt lat="49.89113" lon="4.82363">
        <ele>226</ele>
        <time>2021-08-14T08:39:24.000Z</time>
      </trkpt>
      <trkpt lat="49.89116" lon="4.82362">
        <ele>226</ele>
        <time>2021-08-14T08:39:25.000Z</time>
      </trkpt>
      <trkpt lat="49.89118" lon="4.82362">
        <ele>227</ele>
        <time>2021-08-14T08:39:26.000Z</time>
      </trkpt>
      <trkpt lat="49.89121" lon="4.82361">
        <ele>227</ele>
        <time>2021-08-14T08:39:27.000Z</time>
      </trkpt>
      <trkpt lat="49.89123" lon="4.82361">
        <ele>227</ele>
        <time>2021-08-14T08:39:28.000Z</time>
      </trkpt>
      <trkpt lat="49.89126" lon="4.82361">
        <ele>227</ele>
        <time>2021-08-14T08:39:29.000Z</time>
      </trkpt>
      <trkpt lat="49.89128" lon="4.82361">
        <ele>227</ele>
        <time>2021-08-14T08:39:30.000Z</time>
      </trkpt>
      <trkpt lat="49.8913" lon="4.8236">
        <ele>227</ele>
        <time>2021-08-14T08:39:31.000Z</time>
      </trkpt>
      <trkpt lat="49.89133" lon="4.8236">
        <ele>227</ele>
        <time>2021-08-14T08:39:32.000Z</time>
      </trkpt>
      <trkpt lat="49.89135" lon="4.8236">
        <ele>228</ele>
        <time>2021-08-14T08:39:33.000Z</time>
      </trkpt>
      <trkpt lat="49.89137" lon="4.8236">
        <ele>228</ele>
        <time>2021-08-14T08:39:34.000Z</time>
      </trkpt>
      <trkpt lat="49.8914" lon="4.8236">
        <ele>228</ele>
        <time>2021-08-14T08:39:35.000Z</time>
      </trkpt>
      <trkpt lat="49.89142" lon="4.82359">
        <ele>228</ele>
        <time>2021-08-14T08:39:36.000Z</time>
      </trkpt>
      <trkpt lat="49.89144" lon="4.82358">
        <ele>228</ele>
        <time>2021-08-14T08:39:37.000Z</time>
      </trkpt>
      <trkpt lat="49.89146" lon="4.82358">
        <ele>229</ele>
        <time>2021-08-14T08:39:38.000Z</time>
      </trkpt>
      <trkpt lat="49.89149" lon="4.82358">
        <ele>229</ele>
        <time>2021-08-14T08:39:39.000Z</time>
      </trkpt>
      <trkpt lat="49.89151" lon="4.82357">
        <ele>229</ele>
        <time>2021-08-14T08:39:40.000Z</time>
      </trkpt>
      <trkpt lat="49.89154" lon="4.82356">
        <ele>230</ele>
        <time>2021-08-14T08:39:41.000Z</time>
      </trkpt>
      <trkpt lat="49.89156" lon="4.82355">
        <ele>230</ele>
        <time>2021-08-14T08:39:42.000Z</time>
      </trkpt>
      <trkpt lat="49.89158" lon="4.82355">
        <ele>230</ele>
        <time>2021-08-14T08:39:43.000Z</time>
      </trkpt>
      <trkpt lat="49.8916" lon="4.82355">
        <ele>231</ele>
        <time>2021-08-14T08:39:44.000Z</time>
      </trkpt>
      <trkpt lat="49.89163" lon="4.82355">
        <ele>231</ele>
        <time>2021-08-14T08:39:45.000Z</time>
      </trkpt>
      <trkpt lat="49.89165" lon="4.82355">
        <ele>231</ele>
        <time>2021-08-14T08:39:46.000Z</time>
      </trkpt>
      <trkpt lat="49.89167" lon="4.82355">
        <ele>231</ele>
        <time>2021-08-14T08:39:47.000Z</time>
      </trkpt>
      <trkpt lat="49.89169" lon="4.82354">
        <ele>232</ele>
        <time>2021-08-14T08:39:48.000Z</time>
      </trkpt>
      <trkpt lat="49.89171" lon="4.82354">
        <ele>232</ele>
        <time>2021-08-14T08:39:49.000Z</time>
      </trkpt>
      <trkpt lat="49.89173" lon="4.82354">
        <ele>233</ele>
        <time>2021-08-14T08:39:50.000Z</time>
      </trkpt>
      <trkpt lat="49.89175" lon="4.82354">
        <ele>233</ele>
        <time>2021-08-14T08:39:51.000Z</time>
      </trkpt>
      <trkpt lat="49.89177" lon="4.82355">
        <ele>233</ele>
        <time>2021-08-14T08:39:52.000Z</time>
      </trkpt>
      <trkpt lat="49.89179" lon="4.82355">
        <ele>233</ele>
        <time>2021-08-14T08:39:53.000Z</time>
      </trkpt>
      <trkpt lat="49.89181" lon="4.82356">
        <ele>234</ele>
        <time>2021-08-14T08:39:54.000Z</time>
      </trkpt>
      <trkpt lat="49.89184" lon="4.82357">
        <ele>234</ele>
        <time>2021-08-14T08:39:55.000Z</time>
      </trkpt>
      <trkpt lat="49.89186" lon="4.82359">
        <ele>234</ele>
        <time>2021-08-14T08:39:56.000Z</time>
      </trkpt>
      <trkpt lat="49.89188" lon="4.8236">
        <ele>234</ele>
        <time>2021-08-14T08:39:57.000Z</time>
      </trkpt>
      <trkpt lat="49.8919" lon="4.82361">
        <ele>234</ele>
        <time>2021-08-14T08:39:58.000Z</time>
      </trkpt>
      <trkpt lat="49.89192" lon="4.82362">
        <ele>234</ele>
        <time>2021-08-14T08:39:59.000Z</time>
      </trkpt>
      <trkpt lat="49.89194" lon="4.82364">
        <ele>235</ele>
        <time>2021-08-14T08:40:00.000Z</time>
      </trkpt>
      <trkpt lat="49.89195" lon="4.82364">
        <ele>235</ele>
        <time>2021-08-14T08:40:01.000Z</time>
      </trkpt>
      <trkpt lat="49.89198" lon="4.82365">
        <ele>235</ele>
        <time>2021-08-14T08:40:02.000Z</time>
      </trkpt>
      <trkpt lat="49.89199" lon="4.82365">
        <ele>235</ele>
        <time>2021-08-14T08:40:03.000Z</time>
      </trkpt>
      <trkpt lat="49.89201" lon="4.82366">
        <ele>236</ele>
        <time>2021-08-14T08:40:04.000Z</time>
      </trkpt>
      <trkpt lat="49.89203" lon="4.82367">
        <ele>236</ele>
        <time>2021-08-14T08:40:05.000Z</time>
      </trkpt>
      <trkpt lat="49.89205" lon="4.82368">
        <ele>236</ele>
        <time>2021-08-14T08:40:06.000Z</time>
      </trkpt>
      <trkpt lat="49.89207" lon="4.8237">
        <ele>236</ele>
        <time>2021-08-14T08:40:07.000Z</time>
      </trkpt>
      <trkpt lat="49.89209" lon="4.82371">
        <ele>237</ele>
        <time>2021-08-14T08:40:08.000Z</time>
      </trkpt>
      <trkpt lat="49.89212" lon="4.82372">
        <ele>237</ele>
        <time>2021-08-14T08:40:09.000Z</time>
      </trkpt>
      <trkpt lat="49.89214" lon="4.82373">
        <ele>237</ele>
        <time>2021-08-14T08:40:10.000Z</time>
      </trkpt>
      <trkpt lat="49.89217" lon="4.82375">
        <ele>237</ele>
        <time>2021-08-14T08:40:11.000Z</time>
      </trkpt>
      <trkpt lat="49.8922" lon="4.82376">
        <ele>237</ele>
        <time>2021-08-14T08:40:12.000Z</time>
      </trkpt>
      <trkpt lat="49.89222" lon="4.82377">
        <ele>237</ele>
        <time>2021-08-14T08:40:13.000Z</time>
      </trkpt>
      <trkpt lat="49.89224" lon="4.82379">
        <ele>237</ele>
        <time>2021-08-14T08:40:14.000Z</time>
      </trkpt>
      <trkpt lat="49.89226" lon="4.8238">
        <ele>237</ele>
        <time>2021-08-14T08:40:15.000Z</time>
      </trkpt>
      <trkpt lat="49.89228" lon="4.82381">
        <ele>237</ele>
        <time>2021-08-14T08:40:16.000Z</time>
      </trkpt>
      <trkpt lat="49.8923" lon="4.82382">
        <ele>237</ele>
        <time>2021-08-14T08:40:17.000Z</time>
      </trkpt>
      <trkpt lat="49.89231" lon="4.82383">
        <ele>238</ele>
        <time>2021-08-14T08:40:18.000Z</time>
      </trkpt>
      <trkpt lat="49.89233" lon="4.82385">
        <ele>238</ele>
        <time>2021-08-14T08:40:19.000Z</time>
      </trkpt>
      <trkpt lat="49.89235" lon="4.82386">
        <ele>238</ele>
        <time>2021-08-14T08:40:20.000Z</time>
      </trkpt>
      <trkpt lat="49.89238" lon="4.82386">
        <ele>238</ele>
        <time>2021-08-14T08:40:21.000Z</time>
      </trkpt>
      <trkpt lat="49.8924" lon="4.82387">
        <ele>238</ele>
        <time>2021-08-14T08:40:22.000Z</time>
      </trkpt>
      <trkpt lat="49.89243" lon="4.82388">
        <ele>238</ele>
        <time>2021-08-14T08:40:23.000Z</time>
      </trkpt>
      <trkpt lat="49.89245" lon="4.82389">
        <ele>239</ele>
        <time>2021-08-14T08:40:24.000Z</time>
      </trkpt>
      <trkpt lat="49.89247" lon="4.8239">
        <ele>239</ele>
        <time>2021-08-14T08:40:25.000Z</time>
      </trkpt>
      <trkpt lat="49.8925" lon="4.8239">
        <ele>239</ele>
        <time>2021-08-14T08:40:26.000Z</time>
      </trkpt>
      <trkpt lat="49.89252" lon="4.8239">
        <ele>240</ele>
        <time>2021-08-14T08:40:27.000Z</time>
      </trkpt>
      <trkpt lat="49.89255" lon="4.8239">
        <ele>240</ele>
        <time>2021-08-14T08:40:28.000Z</time>
      </trkpt>
      <trkpt lat="49.89257" lon="4.82391">
        <ele>240</ele>
        <time>2021-08-14T08:40:29.000Z</time>
      </trkpt>
      <trkpt lat="49.89259" lon="4.82391">
        <ele>241</ele>
        <time>2021-08-14T08:40:30.000Z</time>
      </trkpt>
      <trkpt lat="49.89262" lon="4.82392">
        <ele>241</ele>
        <time>2021-08-14T08:40:31.000Z</time>
      </trkpt>
      <trkpt lat="49.89264" lon="4.82392">
        <ele>241</ele>
        <time>2021-08-14T08:40:32.000Z</time>
      </trkpt>
      <trkpt lat="49.89266" lon="4.82392">
        <ele>242</ele>
        <time>2021-08-14T08:40:33.000Z</time>
      </trkpt>
      <trkpt lat="49.89269" lon="4.82393">
        <ele>242</ele>
        <time>2021-08-14T08:40:34.000Z</time>
      </trkpt>
      <trkpt lat="49.89271" lon="4.82393">
        <ele>242</ele>
        <time>2021-08-14T08:40:35.000Z</time>
      </trkpt>
      <trkpt lat="49.89273" lon="4.82393">
        <ele>243</ele>
        <time>2021-08-14T08:40:36.000Z</time>
      </trkpt>
      <trkpt lat="49.89276" lon="4.82393">
        <ele>243</ele>
        <time>2021-08-14T08:40:37.000Z</time>
      </trkpt>
      <trkpt lat="49.89278" lon="4.82393">
        <ele>243</ele>
        <time>2021-08-14T08:40:38.000Z</time>
      </trkpt>
      <trkpt lat="49.8928" lon="4.82394">
        <ele>244</ele>
        <time>2021-08-14T08:40:39.000Z</time>
      </trkpt>
      <trkpt lat="49.89282" lon="4.82394">
        <ele>244</ele>
        <time>2021-08-14T08:40:40.000Z</time>
      </trkpt>
      <trkpt lat="49.89285" lon="4.82394">
        <ele>245</ele>
        <time>2021-08-14T08:40:41.000Z</time>
      </trkpt>
      <trkpt lat="49.89287" lon="4.82394">
        <ele>245</ele>
        <time>2021-08-14T08:40:42.000Z</time>
      </trkpt>
      <trkpt lat="49.89289" lon="4.82393">
        <ele>245</ele>
        <time>2021-08-14T08:40:43.000Z</time>
      </trkpt>
      <trkpt lat="49.89291" lon="4.82393">
        <ele>246</ele>
        <time>2021-08-14T08:40:44.000Z</time>
      </trkpt>
      <trkpt lat="49.89293" lon="4.82393">
        <ele>246</ele>
        <time>2021-08-14T08:40:45.000Z</time>
      </trkpt>
      <trkpt lat="49.89295" lon="4.82392">
        <ele>246</ele>
        <time>2021-08-14T08:40:46.000Z</time>
      </trkpt>
      <trkpt lat="49.89297" lon="4.82392">
        <ele>247</ele>
        <time>2021-08-14T08:40:47.000Z</time>
      </trkpt>
      <trkpt lat="49.89299" lon="4.82393">
        <ele>247</ele>
        <time>2021-08-14T08:40:48.000Z</time>
      </trkpt>
      <trkpt lat="49.89301" lon="4.82392">
        <ele>247</ele>
        <time>2021-08-14T08:40:49.000Z</time>
      </trkpt>
      <trkpt lat="49.89303" lon="4.82391">
        <ele>248</ele>
        <time>2021-08-14T08:40:50.000Z</time>
      </trkpt>
      <trkpt lat="49.89304" lon="4.8239">
        <ele>248</ele>
        <time>2021-08-14T08:40:51.000Z</time>
      </trkpt>
      <trkpt lat="49.89306" lon="4.82388">
        <ele>248</ele>
        <time>2021-08-14T08:40:52.000Z</time>
      </trkpt>
      <trkpt lat="49.89308" lon="4.82387">
        <ele>249</ele>
        <time>2021-08-14T08:40:53.000Z</time>
      </trkpt>
      <trkpt lat="49.8931" lon="4.82385">
        <ele>249</ele>
        <time>2021-08-14T08:40:54.000Z</time>
      </trkpt>
      <trkpt lat="49.89312" lon="4.82383">
        <ele>250</ele>
        <time>2021-08-14T08:40:55.000Z</time>
      </trkpt>
      <trkpt lat="49.89314" lon="4.82381">
        <ele>250</ele>
        <time>2021-08-14T08:40:56.000Z</time>
      </trkpt>
      <trkpt lat="49.89316" lon="4.82379">
        <ele>250</ele>
        <time>2021-08-14T08:40:57.000Z</time>
      </trkpt>
      <trkpt lat="49.89317" lon="4.82377">
        <ele>251</ele>
        <time>2021-08-14T08:40:58.000Z</time>
      </trkpt>
      <trkpt lat="49.89319" lon="4.82374">
        <ele>251</ele>
        <time>2021-08-14T08:40:59.000Z</time>
      </trkpt>
      <trkpt lat="49.8932" lon="4.82372">
        <ele>251</ele>
        <time>2021-08-14T08:41:00.000Z</time>
      </trkpt>
      <trkpt lat="49.89322" lon="4.82369">
        <ele>252</ele>
        <time>2021-08-14T08:41:01.000Z</time>
      </trkpt>
      <trkpt lat="49.89323" lon="4.82366">
        <ele>252</ele>
        <time>2021-08-14T08:41:02.000Z</time>
      </trkpt>
      <trkpt lat="49.89324" lon="4.82364">
        <ele>252</ele>
        <time>2021-08-14T08:41:03.000Z</time>
      </trkpt>
      <trkpt lat="49.89326" lon="4.82361">
        <ele>252</ele>
        <time>2021-08-14T08:41:04.000Z</time>
      </trkpt>
      <trkpt lat="49.89326" lon="4.82357">
        <ele>252</ele>
        <time>2021-08-14T08:41:05.000Z</time>
      </trkpt>
      <trkpt lat="49.89327" lon="4.82354">
        <ele>252</ele>
        <time>2021-08-14T08:41:06.000Z</time>
      </trkpt>
      <trkpt lat="49.89328" lon="4.82351">
        <ele>253</ele>
        <time>2021-08-14T08:41:07.000Z</time>
      </trkpt>
      <trkpt lat="49.89329" lon="4.82349">
        <ele>253</ele>
        <time>2021-08-14T08:41:08.000Z</time>
      </trkpt>
      <trkpt lat="49.89331" lon="4.82346">
        <ele>253</ele>
        <time>2021-08-14T08:41:09.000Z</time>
      </trkpt>
      <trkpt lat="49.89332" lon="4.82343">
        <ele>253</ele>
        <time>2021-08-14T08:41:10.000Z</time>
      </trkpt>
      <trkpt lat="49.89333" lon="4.8234">
        <ele>254</ele>
        <time>2021-08-14T08:41:11.000Z</time>
      </trkpt>
      <trkpt lat="49.89334" lon="4.82337">
        <ele>254</ele>
        <time>2021-08-14T08:41:12.000Z</time>
      </trkpt>
      <trkpt lat="49.89335" lon="4.82335">
        <ele>254</ele>
        <time>2021-08-14T08:41:13.000Z</time>
      </trkpt>
      <trkpt lat="49.89337" lon="4.82333">
        <ele>254</ele>
        <time>2021-08-14T08:41:14.000Z</time>
      </trkpt>
      <trkpt lat="49.89338" lon="4.82331">
        <ele>254</ele>
        <time>2021-08-14T08:41:15.000Z</time>
      </trkpt>
      <trkpt lat="49.8934" lon="4.82328">
        <ele>254</ele>
        <time>2021-08-14T08:41:16.000Z</time>
      </trkpt>
      <trkpt lat="49.89341" lon="4.82325">
        <ele>255</ele>
        <time>2021-08-14T08:41:17.000Z</time>
      </trkpt>
      <trkpt lat="49.89342" lon="4.82322">
        <ele>255</ele>
        <time>2021-08-14T08:41:18.000Z</time>
      </trkpt>
      <trkpt lat="49.89344" lon="4.82319">
        <ele>255</ele>
        <time>2021-08-14T08:41:19.000Z</time>
      </trkpt>
      <trkpt lat="49.89346" lon="4.82317">
        <ele>255</ele>
        <time>2021-08-14T08:41:20.000Z</time>
      </trkpt>
      <trkpt lat="49.89348" lon="4.82315">
        <ele>255</ele>
        <time>2021-08-14T08:41:21.000Z</time>
      </trkpt>
      <trkpt lat="49.8935" lon="4.82312">
        <ele>256</ele>
        <time>2021-08-14T08:41:22.000Z</time>
      </trkpt>
      <trkpt lat="49.89353" lon="4.8231">
        <ele>256</ele>
        <time>2021-08-14T08:41:23.000Z</time>
      </trkpt>
      <trkpt lat="49.89355" lon="4.82308">
        <ele>256</ele>
        <time>2021-08-14T08:41:24.000Z</time>
      </trkpt>
      <trkpt lat="49.89358" lon="4.82306">
        <ele>256</ele>
        <time>2021-08-14T08:41:25.000Z</time>
      </trkpt>
      <trkpt lat="49.8936" lon="4.82305">
        <ele>256</ele>
        <time>2021-08-14T08:41:26.000Z</time>
      </trkpt>
      <trkpt lat="49.89362" lon="4.82304">
        <ele>256</ele>
        <time>2021-08-14T08:41:27.000Z</time>
      </trkpt>
      <trkpt lat="49.89365" lon="4.82302">
        <ele>256</ele>
        <time>2021-08-14T08:41:28.000Z</time>
      </trkpt>
      <trkpt lat="49.89367" lon="4.82301">
        <ele>256</ele>
        <time>2021-08-14T08:41:29.000Z</time>
      </trkpt>
      <trkpt lat="49.8937" lon="4.823">
        <ele>256</ele>
        <time>2021-08-14T08:41:30.000Z</time>
      </trkpt>
      <trkpt lat="49.89372" lon="4.82299">
        <ele>256</ele>
        <time>2021-08-14T08:41:31.000Z</time>
      </trkpt>
      <trkpt lat="49.89374" lon="4.82299">
        <ele>257</ele>
        <time>2021-08-14T08:41:32.000Z</time>
      </trkpt>
      <trkpt lat="49.89377" lon="4.82298">
        <ele>257</ele>
        <time>2021-08-14T08:41:33.000Z</time>
      </trkpt>
      <trkpt lat="49.89379" lon="4.82298">
        <ele>257</ele>
        <time>2021-08-14T08:41:34.000Z</time>
      </trkpt>
      <trkpt lat="49.89381" lon="4.82298">
        <ele>257</ele>
        <time>2021-08-14T08:41:35.000Z</time>
      </trkpt>
      <trkpt lat="49.89383" lon="4.82298">
        <ele>258</ele>
        <time>2021-08-14T08:41:36.000Z</time>
      </trkpt>
      <trkpt lat="49.89385" lon="4.82298">
        <ele>258</ele>
        <time>2021-08-14T08:41:37.000Z</time>
      </trkpt>
      <trkpt lat="49.89388" lon="4.82298">
        <ele>258</ele>
        <time>2021-08-14T08:41:38.000Z</time>
      </trkpt>
      <trkpt lat="49.8939" lon="4.82299">
        <ele>258</ele>
        <time>2021-08-14T08:41:39.000Z</time>
      </trkpt>
      <trkpt lat="49.89392" lon="4.82299">
        <ele>258</ele>
        <time>2021-08-14T08:41:40.000Z</time>
      </trkpt>
      <trkpt lat="49.89394" lon="4.823">
        <ele>258</ele>
        <time>2021-08-14T08:41:41.000Z</time>
      </trkpt>
      <trkpt lat="49.89397" lon="4.82301">
        <ele>259</ele>
        <time>2021-08-14T08:41:42.000Z</time>
      </trkpt>
      <trkpt lat="49.89399" lon="4.82301">
        <ele>259</ele>
        <time>2021-08-14T08:41:43.000Z</time>
      </trkpt>
      <trkpt lat="49.89401" lon="4.82302">
        <ele>259</ele>
        <time>2021-08-14T08:41:44.000Z</time>
      </trkpt>
      <trkpt lat="49.89404" lon="4.82302">
        <ele>259</ele>
        <time>2021-08-14T08:41:45.000Z</time>
      </trkpt>
      <trkpt lat="49.89405" lon="4.82304">
        <ele>259</ele>
        <time>2021-08-14T08:41:46.000Z</time>
      </trkpt>
      <trkpt lat="49.89407" lon="4.82305">
        <ele>259</ele>
        <time>2021-08-14T08:41:47.000Z</time>
      </trkpt>
      <trkpt lat="49.89409" lon="4.82305">
        <ele>259</ele>
        <time>2021-08-14T08:41:48.000Z</time>
      </trkpt>
      <trkpt lat="49.89412" lon="4.82306">
        <ele>260</ele>
        <time>2021-08-14T08:41:49.000Z</time>
      </trkpt>
      <trkpt lat="49.89414" lon="4.82306">
        <ele>260</ele>
        <time>2021-08-14T08:41:50.000Z</time>
      </trkpt>
      <trkpt lat="49.89417" lon="4.82307">
        <ele>260</ele>
        <time>2021-08-14T08:41:51.000Z</time>
      </trkpt>
      <trkpt lat="49.89419" lon="4.82308">
        <ele>260</ele>
        <time>2021-08-14T08:41:52.000Z</time>
      </trkpt>
      <trkpt lat="49.89421" lon="4.82308">
        <ele>261</ele>
        <time>2021-08-14T08:41:53.000Z</time>
      </trkpt>
      <trkpt lat="49.89424" lon="4.82308">
        <ele>261</ele>
        <time>2021-08-14T08:41:54.000Z</time>
      </trkpt>
      <trkpt lat="49.89426" lon="4.82309">
        <ele>261</ele>
        <time>2021-08-14T08:41:55.000Z</time>
      </trkpt>
      <trkpt lat="49.89428" lon="4.82309">
        <ele>262</ele>
        <time>2021-08-14T08:41:56.000Z</time>
      </trkpt>
      <trkpt lat="49.89431" lon="4.82309">
        <ele>262</ele>
        <time>2021-08-14T08:41:57.000Z</time>
      </trkpt>
      <trkpt lat="49.89432" lon="4.82309">
        <ele>263</ele>
        <time>2021-08-14T08:41:58.000Z</time>
      </trkpt>
      <trkpt lat="49.89434" lon="4.82308">
        <ele>263</ele>
        <time>2021-08-14T08:41:59.000Z</time>
      </trkpt>
      <trkpt lat="49.89436" lon="4.82308">
        <ele>264</ele>
        <time>2021-08-14T08:42:00.000Z</time>
      </trkpt>
      <trkpt lat="49.89438" lon="4.82308">
        <ele>264</ele>
        <time>2021-08-14T08:42:01.000Z</time>
      </trkpt>
      <trkpt lat="49.89439" lon="4.82308">
        <ele>265</ele>
        <time>2021-08-14T08:42:02.000Z</time>
      </trkpt>
      <trkpt lat="49.89441" lon="4.82309">
        <ele>265</ele>
        <time>2021-08-14T08:42:03.000Z</time>
      </trkpt>
      <trkpt lat="49.89443" lon="4.8231">
        <ele>265</ele>
        <time>2021-08-14T08:42:04.000Z</time>
      </trkpt>
      <trkpt lat="49.89445" lon="4.82311">
        <ele>266</ele>
        <time>2021-08-14T08:42:05.000Z</time>
      </trkpt>
      <trkpt lat="49.89447" lon="4.82311">
        <ele>266</ele>
        <time>2021-08-14T08:42:06.000Z</time>
      </trkpt>
      <trkpt lat="49.89448" lon="4.82312">
        <ele>266</ele>
        <time>2021-08-14T08:42:07.000Z</time>
      </trkpt>
      <trkpt lat="49.89451" lon="4.82312">
        <ele>267</ele>
        <time>2021-08-14T08:42:08.000Z</time>
      </trkpt>
      <trkpt lat="49.89453" lon="4.82312">
        <ele>267</ele>
        <time>2021-08-14T08:42:09.000Z</time>
      </trkpt>
      <trkpt lat="49.89455" lon="4.82312">
        <ele>268</ele>
        <time>2021-08-14T08:42:10.000Z</time>
      </trkpt>
      <trkpt lat="49.89456" lon="4.82311">
        <ele>268</ele>
        <time>2021-08-14T08:42:11.000Z</time>
      </trkpt>
      <trkpt lat="49.89458" lon="4.82311">
        <ele>269</ele>
        <time>2021-08-14T08:42:12.000Z</time>
      </trkpt>
      <trkpt lat="49.89461" lon="4.82312">
        <ele>269</ele>
        <time>2021-08-14T08:42:13.000Z</time>
      </trkpt>
      <trkpt lat="49.89463" lon="4.82312">
        <ele>270</ele>
        <time>2021-08-14T08:42:14.000Z</time>
      </trkpt>
      <trkpt lat="49.89465" lon="4.82313">
        <ele>270</ele>
        <time>2021-08-14T08:42:15.000Z</time>
      </trkpt>
      <trkpt lat="49.89467" lon="4.82312">
        <ele>271</ele>
        <time>2021-08-14T08:42:16.000Z</time>
      </trkpt>
      <trkpt lat="49.89469" lon="4.82313">
        <ele>271</ele>
        <time>2021-08-14T08:42:17.000Z</time>
      </trkpt>
      <trkpt lat="49.89471" lon="4.82312">
        <ele>271</ele>
        <time>2021-08-14T08:42:18.000Z</time>
      </trkpt>
      <trkpt lat="49.89473" lon="4.82312">
        <ele>272</ele>
        <time>2021-08-14T08:42:19.000Z</time>
      </trkpt>
      <trkpt lat="49.89475" lon="4.82313">
        <ele>272</ele>
        <time>2021-08-14T08:42:20.000Z</time>
      </trkpt>
      <trkpt lat="49.89477" lon="4.82313">
        <ele>273</ele>
        <time>2021-08-14T08:42:21.000Z</time>
      </trkpt>
      <trkpt lat="49.89479" lon="4.82314">
        <ele>273</ele>
        <time>2021-08-14T08:42:22.000Z</time>
      </trkpt>
      <trkpt lat="49.89482" lon="4.82315">
        <ele>273</ele>
        <time>2021-08-14T08:42:23.000Z</time>
      </trkpt>
      <trkpt lat="49.89484" lon="4.82316">
        <ele>274</ele>
        <time>2021-08-14T08:42:24.000Z</time>
      </trkpt>
      <trkpt lat="49.89487" lon="4.82316">
        <ele>274</ele>
        <time>2021-08-14T08:42:25.000Z</time>
      </trkpt>
      <trkpt lat="49.89489" lon="4.82316">
        <ele>275</ele>
        <time>2021-08-14T08:42:26.000Z</time>
      </trkpt>
      <trkpt lat="49.89492" lon="4.82316">
        <ele>275</ele>
        <time>2021-08-14T08:42:27.000Z</time>
      </trkpt>
      <trkpt lat="49.89494" lon="4.82316">
        <ele>275</ele>
        <time>2021-08-14T08:42:28.000Z</time>
      </trkpt>
      <trkpt lat="49.89495" lon="4.82316">
        <ele>275</ele>
        <time>2021-08-14T08:42:29.000Z</time>
      </trkpt>
      <trkpt lat="49.89497" lon="4.82316">
        <ele>276</ele>
        <time>2021-08-14T08:42:30.000Z</time>
      </trkpt>
      <trkpt lat="49.89499" lon="4.82315">
        <ele>276</ele>
        <time>2021-08-14T08:42:31.000Z</time>
      </trkpt>
      <trkpt lat="49.89501" lon="4.82314">
        <ele>276</ele>
        <time>2021-08-14T08:42:32.000Z</time>
      </trkpt>
      <trkpt lat="49.89503" lon="4.82313">
        <ele>276</ele>
        <time>2021-08-14T08:42:33.000Z</time>
      </trkpt>
      <trkpt lat="49.89505" lon="4.82313">
        <ele>276</ele>
        <time>2021-08-14T08:42:34.000Z</time>
      </trkpt>
      <trkpt lat="49.89507" lon="4.82312">
        <ele>277</ele>
        <time>2021-08-14T08:42:35.000Z</time>
      </trkpt>
      <trkpt lat="49.89509" lon="4.82312">
        <ele>277</ele>
        <time>2021-08-14T08:42:36.000Z</time>
      </trkpt>
      <trkpt lat="49.89511" lon="4.82311">
        <ele>277</ele>
        <time>2021-08-14T08:42:37.000Z</time>
      </trkpt>
      <trkpt lat="49.89513" lon="4.82311">
        <ele>277</ele>
        <time>2021-08-14T08:42:38.000Z</time>
      </trkpt>
      <trkpt lat="49.89516" lon="4.82311">
        <ele>277</ele>
        <time>2021-08-14T08:42:39.000Z</time>
      </trkpt>
      <trkpt lat="49.89518" lon="4.8231">
        <ele>278</ele>
        <time>2021-08-14T08:42:40.000Z</time>
      </trkpt>
      <trkpt lat="49.8952" lon="4.82309">
        <ele>278</ele>
        <time>2021-08-14T08:42:41.000Z</time>
      </trkpt>
      <trkpt lat="49.89522" lon="4.82309">
        <ele>278</ele>
        <time>2021-08-14T08:42:42.000Z</time>
      </trkpt>
      <trkpt lat="49.89524" lon="4.8231">
        <ele>278</ele>
        <time>2021-08-14T08:42:43.000Z</time>
      </trkpt>
      <trkpt lat="49.89526" lon="4.82309">
        <ele>278</ele>
        <time>2021-08-14T08:42:44.000Z</time>
      </trkpt>
      <trkpt lat="49.89528" lon="4.82309">
        <ele>278</ele>
        <time>2021-08-14T08:42:45.000Z</time>
      </trkpt>
      <trkpt lat="49.8953" lon="4.82309">
        <ele>278</ele>
        <time>2021-08-14T08:42:46.000Z</time>
      </trkpt>
      <trkpt lat="49.89533" lon="4.82309">
        <ele>279</ele>
        <time>2021-08-14T08:42:47.000Z</time>
      </trkpt>
      <trkpt lat="49.89535" lon="4.8231">
        <ele>279</ele>
        <time>2021-08-14T08:42:48.000Z</time>
      </trkpt>
      <trkpt lat="49.89537" lon="4.8231">
        <ele>279</ele>
        <time>2021-08-14T08:42:49.000Z</time>
      </trkpt>
      <trkpt lat="49.89539" lon="4.8231">
        <ele>279</ele>
        <time>2021-08-14T08:42:50.000Z</time>
      </trkpt>
      <trkpt lat="49.89541" lon="4.8231">
        <ele>279</ele>
        <time>2021-08-14T08:42:51.000Z</time>
      </trkpt>
      <trkpt lat="49.89543" lon="4.82311">
        <ele>279</ele>
        <time>2021-08-14T08:42:52.000Z</time>
      </trkpt>
      <trkpt lat="49.89545" lon="4.82311">
        <ele>279</ele>
        <time>2021-08-14T08:42:53.000Z</time>
      </trkpt>
      <trkpt lat="49.89547" lon="4.82312">
        <ele>280</ele>
        <time>2021-08-14T08:42:54.000Z</time>
      </trkpt>
      <trkpt lat="49.89549" lon="4.82313">
        <ele>280</ele>
        <time>2021-08-14T08:42:55.000Z</time>
      </trkpt>
      <trkpt lat="49.89551" lon="4.82313">
        <ele>280</ele>
        <time>2021-08-14T08:42:56.000Z</time>
      </trkpt>
      <trkpt lat="49.89553" lon="4.82313">
        <ele>280</ele>
        <time>2021-08-14T08:42:57.000Z</time>
      </trkpt>
      <trkpt lat="49.89555" lon="4.82314">
        <ele>280</ele>
        <time>2021-08-14T08:42:58.000Z</time>
      </trkpt>
      <trkpt lat="49.89557" lon="4.82313">
        <ele>280</ele>
        <time>2021-08-14T08:42:59.000Z</time>
      </trkpt>
      <trkpt lat="49.89559" lon="4.82312">
        <ele>281</ele>
        <time>2021-08-14T08:43:00.000Z</time>
      </trkpt>
      <trkpt lat="49.89561" lon="4.82311">
        <ele>281</ele>
        <time>2021-08-14T08:43:01.000Z</time>
      </trkpt>
      <trkpt lat="49.89563" lon="4.8231">
        <ele>281</ele>
        <time>2021-08-14T08:43:02.000Z</time>
      </trkpt>
      <trkpt lat="49.89565" lon="4.82309">
        <ele>281</ele>
        <time>2021-08-14T08:43:03.000Z</time>
      </trkpt>
      <trkpt lat="49.89567" lon="4.82307">
        <ele>281</ele>
        <time>2021-08-14T08:43:04.000Z</time>
      </trkpt>
      <trkpt lat="49.89569" lon="4.82306">
        <ele>282</ele>
        <time>2021-08-14T08:43:05.000Z</time>
      </trkpt>
      <trkpt lat="49.89571" lon="4.82304">
        <ele>282</ele>
        <time>2021-08-14T08:43:06.000Z</time>
      </trkpt>
      <trkpt lat="49.89573" lon="4.82303">
        <ele>282</ele>
        <time>2021-08-14T08:43:07.000Z</time>
      </trkpt>
      <trkpt lat="49.89575" lon="4.82302">
        <ele>282</ele>
        <time>2021-08-14T08:43:08.000Z</time>
      </trkpt>
      <trkpt lat="49.89577" lon="4.82301">
        <ele>283</ele>
        <time>2021-08-14T08:43:09.000Z</time>
      </trkpt>
      <trkpt lat="49.89578" lon="4.82299">
        <ele>283</ele>
        <time>2021-08-14T08:43:10.000Z</time>
      </trkpt>
      <trkpt lat="49.8958" lon="4.82298">
        <ele>283</ele>
        <time>2021-08-14T08:43:11.000Z</time>
      </trkpt>
      <trkpt lat="49.89581" lon="4.82296">
        <ele>283</ele>
        <time>2021-08-14T08:43:12.000Z</time>
      </trkpt>
      <trkpt lat="49.89582" lon="4.82293">
        <ele>284</ele>
        <time>2021-08-14T08:43:13.000Z</time>
      </trkpt>
      <trkpt lat="49.89583" lon="4.82291">
        <ele>284</ele>
        <time>2021-08-14T08:43:14.000Z</time>
      </trkpt>
      <trkpt lat="49.89584" lon="4.82288">
        <ele>284</ele>
        <time>2021-08-14T08:43:15.000Z</time>
      </trkpt>
      <trkpt lat="49.89585" lon="4.82285">
        <ele>284</ele>
        <time>2021-08-14T08:43:16.000Z</time>
      </trkpt>
      <trkpt lat="49.89586" lon="4.82281">
        <ele>284</ele>
        <time>2021-08-14T08:43:17.000Z</time>
      </trkpt>
      <trkpt lat="49.89586" lon="4.82278">
        <ele>284</ele>
        <time>2021-08-14T08:43:18.000Z</time>
      </trkpt>
      <trkpt lat="49.89587" lon="4.82275">
        <ele>284</ele>
        <time>2021-08-14T08:43:19.000Z</time>
      </trkpt>
      <trkpt lat="49.89587" lon="4.82271">
        <ele>284</ele>
        <time>2021-08-14T08:43:20.000Z</time>
      </trkpt>
      <trkpt lat="49.89588" lon="4.82267">
        <ele>285</ele>
        <time>2021-08-14T08:43:21.000Z</time>
      </trkpt>
      <trkpt lat="49.89588" lon="4.82264">
        <ele>285</ele>
        <time>2021-08-14T08:43:22.000Z</time>
      </trkpt>
      <trkpt lat="49.89588" lon="4.82259">
        <ele>285</ele>
        <time>2021-08-14T08:43:23.000Z</time>
      </trkpt>
      <trkpt lat="49.89588" lon="4.82256">
        <ele>285</ele>
        <time>2021-08-14T08:43:24.000Z</time>
      </trkpt>
      <trkpt lat="49.89588" lon="4.82252">
        <ele>285</ele>
        <time>2021-08-14T08:43:25.000Z</time>
      </trkpt>
      <trkpt lat="49.89588" lon="4.82248">
        <ele>285</ele>
        <time>2021-08-14T08:43:26.000Z</time>
      </trkpt>
      <trkpt lat="49.89588" lon="4.82244">
        <ele>285</ele>
        <time>2021-08-14T08:43:27.000Z</time>
      </trkpt>
      <trkpt lat="49.89588" lon="4.8224">
        <ele>285</ele>
        <time>2021-08-14T08:43:28.000Z</time>
      </trkpt>
      <trkpt lat="49.89588" lon="4.82237">
        <ele>285</ele>
        <time>2021-08-14T08:43:29.000Z</time>
      </trkpt>
      <trkpt lat="49.89588" lon="4.82234">
        <ele>285</ele>
        <time>2021-08-14T08:43:30.000Z</time>
      </trkpt>
      <trkpt lat="49.89588" lon="4.82231">
        <ele>285</ele>
        <time>2021-08-14T08:43:31.000Z</time>
      </trkpt>
      <trkpt lat="49.89588" lon="4.82228">
        <ele>285</ele>
        <time>2021-08-14T08:43:32.000Z</time>
      </trkpt>
      <trkpt lat="49.89587" lon="4.82225">
        <ele>285</ele>
        <time>2021-08-14T08:43:33.000Z</time>
      </trkpt>
      <trkpt lat="49.89588" lon="4.82222">
        <ele>285</ele>
        <time>2021-08-14T08:43:34.000Z</time>
      </trkpt>
      <trkpt lat="49.89587" lon="4.82219">
        <ele>285</ele>
        <time>2021-08-14T08:43:35.000Z</time>
      </trkpt>
      <trkpt lat="49.89587" lon="4.82216">
        <ele>285</ele>
        <time>2021-08-14T08:43:36.000Z</time>
      </trkpt>
      <trkpt lat="49.89587" lon="4.82212">
        <ele>285</ele>
        <time>2021-08-14T08:43:37.000Z</time>
      </trkpt>
      <trkpt lat="49.89587" lon="4.82209">
        <ele>285</ele>
        <time>2021-08-14T08:43:38.000Z</time>
      </trkpt>
      <trkpt lat="49.89587" lon="4.82205">
        <ele>285</ele>
        <time>2021-08-14T08:43:39.000Z</time>
      </trkpt>
      <trkpt lat="49.89586" lon="4.82202">
        <ele>285</ele>
        <time>2021-08-14T08:43:40.000Z</time>
      </trkpt>
      <trkpt lat="49.89586" lon="4.82199">
        <ele>285</ele>
        <time>2021-08-14T08:43:41.000Z</time>
      </trkpt>
      <trkpt lat="49.89585" lon="4.82196">
        <ele>285</ele>
        <time>2021-08-14T08:43:42.000Z</time>
      </trkpt>
      <trkpt lat="49.89585" lon="4.82193">
        <ele>285</ele>
        <time>2021-08-14T08:43:43.000Z</time>
      </trkpt>
      <trkpt lat="49.89585" lon="4.82189">
        <ele>285</ele>
        <time>2021-08-14T08:43:44.000Z</time>
      </trkpt>
      <trkpt lat="49.89585" lon="4.82186">
        <ele>285</ele>
        <time>2021-08-14T08:43:45.000Z</time>
      </trkpt>
      <trkpt lat="49.89584" lon="4.82183">
        <ele>285</ele>
        <time>2021-08-14T08:43:46.000Z</time>
      </trkpt>
      <trkpt lat="49.89584" lon="4.82179">
        <ele>285</ele>
        <time>2021-08-14T08:43:47.000Z</time>
      </trkpt>
      <trkpt lat="49.89584" lon="4.82176">
        <ele>285</ele>
        <time>2021-08-14T08:43:48.000Z</time>
      </trkpt>
      <trkpt lat="49.89583" lon="4.82172">
        <ele>285</ele>
        <time>2021-08-14T08:43:49.000Z</time>
      </trkpt>
      <trkpt lat="49.89583" lon="4.82169">
        <ele>285</ele>
        <time>2021-08-14T08:43:50.000Z</time>
      </trkpt>
      <trkpt lat="49.89583" lon="4.82165">
        <ele>285</ele>
        <time>2021-08-14T08:43:51.000Z</time>
      </trkpt>
      <trkpt lat="49.89582" lon="4.82162">
        <ele>285</ele>
        <time>2021-08-14T08:43:52.000Z</time>
      </trkpt>
      <trkpt lat="49.89582" lon="4.82158">
        <ele>285</ele>
        <time>2021-08-14T08:43:53.000Z</time>
      </trkpt>
      <trkpt lat="49.89582" lon="4.82155">
        <ele>285</ele>
        <time>2021-08-14T08:43:54.000Z</time>
      </trkpt>
      <trkpt lat="49.89582" lon="4.82152">
        <ele>285</ele>
        <time>2021-08-14T08:43:55.000Z</time>
      </trkpt>
      <trkpt lat="49.89582" lon="4.82149">
        <ele>285</ele>
        <time>2021-08-14T08:43:56.000Z</time>
      </trkpt>
      <trkpt lat="49.89582" lon="4.82146">
        <ele>286</ele>
        <time>2021-08-14T08:43:57.000Z</time>
      </trkpt>
      <trkpt lat="49.89582" lon="4.82143">
        <ele>286</ele>
        <time>2021-08-14T08:43:58.000Z</time>
      </trkpt>
      <trkpt lat="49.89582" lon="4.82139">
        <ele>286</ele>
        <time>2021-08-14T08:43:59.000Z</time>
      </trkpt>
      <trkpt lat="49.89582" lon="4.82136">
        <ele>286</ele>
        <time>2021-08-14T08:44:00.000Z</time>
      </trkpt>
      <trkpt lat="49.89582" lon="4.82132">
        <ele>286</ele>
        <time>2021-08-14T08:44:01.000Z</time>
      </trkpt>
      <trkpt lat="49.89583" lon="4.82129">
        <ele>285</ele>
        <time>2021-08-14T08:44:02.000Z</time>
      </trkpt>
      <trkpt lat="49.89583" lon="4.82125">
        <ele>286</ele>
        <time>2021-08-14T08:44:03.000Z</time>
      </trkpt>
      <trkpt lat="49.89583" lon="4.82121">
        <ele>286</ele>
        <time>2021-08-14T08:44:04.000Z</time>
      </trkpt>
      <trkpt lat="49.89584" lon="4.82118">
        <ele>286</ele>
        <time>2021-08-14T08:44:05.000Z</time>
      </trkpt>
      <trkpt lat="49.89584" lon="4.82114">
        <ele>286</ele>
        <time>2021-08-14T08:44:06.000Z</time>
      </trkpt>
      <trkpt lat="49.89585" lon="4.82111">
        <ele>286</ele>
        <time>2021-08-14T08:44:07.000Z</time>
      </trkpt>
      <trkpt lat="49.89585" lon="4.82107">
        <ele>286</ele>
        <time>2021-08-14T08:44:08.000Z</time>
      </trkpt>
      <trkpt lat="49.89585" lon="4.82103">
        <ele>287</ele>
        <time>2021-08-14T08:44:09.000Z</time>
      </trkpt>
      <trkpt lat="49.89586" lon="4.82099">
        <ele>287</ele>
        <time>2021-08-14T08:44:10.000Z</time>
      </trkpt>
      <trkpt lat="49.89587" lon="4.82096">
        <ele>287</ele>
        <time>2021-08-14T08:44:11.000Z</time>
      </trkpt>
      <trkpt lat="49.89588" lon="4.82092">
        <ele>287</ele>
        <time>2021-08-14T08:44:12.000Z</time>
      </trkpt>
      <trkpt lat="49.89589" lon="4.82088">
        <ele>288</ele>
        <time>2021-08-14T08:44:13.000Z</time>
      </trkpt>
      <trkpt lat="49.8959" lon="4.82085">
        <ele>288</ele>
        <time>2021-08-14T08:44:14.000Z</time>
      </trkpt>
      <trkpt lat="49.89591" lon="4.82082">
        <ele>288</ele>
        <time>2021-08-14T08:44:15.000Z</time>
      </trkpt>
      <trkpt lat="49.89593" lon="4.82079">
        <ele>289</ele>
        <time>2021-08-14T08:44:16.000Z</time>
      </trkpt>
      <trkpt lat="49.89594" lon="4.82075">
        <ele>289</ele>
        <time>2021-08-14T08:44:17.000Z</time>
      </trkpt>
      <trkpt lat="49.89595" lon="4.82072">
        <ele>290</ele>
        <time>2021-08-14T08:44:18.000Z</time>
      </trkpt>
      <trkpt lat="49.89597" lon="4.8207">
        <ele>290</ele>
        <time>2021-08-14T08:44:19.000Z</time>
      </trkpt>
      <trkpt lat="49.89599" lon="4.82068">
        <ele>290</ele>
        <time>2021-08-14T08:44:20.000Z</time>
      </trkpt>
      <trkpt lat="49.89601" lon="4.82066">
        <ele>291</ele>
        <time>2021-08-14T08:44:21.000Z</time>
      </trkpt>
      <trkpt lat="49.89603" lon="4.82063">
        <ele>291</ele>
        <time>2021-08-14T08:44:22.000Z</time>
      </trkpt>
      <trkpt lat="49.89605" lon="4.8206">
        <ele>292</ele>
        <time>2021-08-14T08:44:23.000Z</time>
      </trkpt>
      <trkpt lat="49.89606" lon="4.82057">
        <ele>292</ele>
        <time>2021-08-14T08:44:24.000Z</time>
      </trkpt>
      <trkpt lat="49.89608" lon="4.82054">
        <ele>292</ele>
        <time>2021-08-14T08:44:25.000Z</time>
      </trkpt>
      <trkpt lat="49.8961" lon="4.82051">
        <ele>293</ele>
        <time>2021-08-14T08:44:26.000Z</time>
      </trkpt>
      <trkpt lat="49.89611" lon="4.82048">
        <ele>293</ele>
        <time>2021-08-14T08:44:27.000Z</time>
      </trkpt>
      <trkpt lat="49.89613" lon="4.82045">
        <ele>293</ele>
        <time>2021-08-14T08:44:28.000Z</time>
      </trkpt>
      <trkpt lat="49.89614" lon="4.82042">
        <ele>294</ele>
        <time>2021-08-14T08:44:29.000Z</time>
      </trkpt>
      <trkpt lat="49.89616" lon="4.82039">
        <ele>294</ele>
        <time>2021-08-14T08:44:30.000Z</time>
      </trkpt>
      <trkpt lat="49.89617" lon="4.82036">
        <ele>294</ele>
        <time>2021-08-14T08:44:31.000Z</time>
      </trkpt>
      <trkpt lat="49.89619" lon="4.82034">
        <ele>294</ele>
        <time>2021-08-14T08:44:32.000Z</time>
      </trkpt>
      <trkpt lat="49.8962" lon="4.82031">
        <ele>295</ele>
        <time>2021-08-14T08:44:33.000Z</time>
      </trkpt>
      <trkpt lat="49.89622" lon="4.82029">
        <ele>295</ele>
        <time>2021-08-14T08:44:34.000Z</time>
      </trkpt>
      <trkpt lat="49.89624" lon="4.82028">
        <ele>295</ele>
        <time>2021-08-14T08:44:35.000Z</time>
      </trkpt>
      <trkpt lat="49.89626" lon="4.82026">
        <ele>295</ele>
        <time>2021-08-14T08:44:36.000Z</time>
      </trkpt>
      <trkpt lat="49.89627" lon="4.82025">
        <ele>296</ele>
        <time>2021-08-14T08:44:37.000Z</time>
      </trkpt>
      <trkpt lat="49.89629" lon="4.82023">
        <ele>296</ele>
        <time>2021-08-14T08:44:38.000Z</time>
      </trkpt>
      <trkpt lat="49.89631" lon="4.82022">
        <ele>296</ele>
        <time>2021-08-14T08:44:39.000Z</time>
      </trkpt>
      <trkpt lat="49.89633" lon="4.82021">
        <ele>296</ele>
        <time>2021-08-14T08:44:40.000Z</time>
      </trkpt>
      <trkpt lat="49.89636" lon="4.8202">
        <ele>297</ele>
        <time>2021-08-14T08:44:41.000Z</time>
      </trkpt>
      <trkpt lat="49.89638" lon="4.8202">
        <ele>297</ele>
        <time>2021-08-14T08:44:42.000Z</time>
      </trkpt>
      <trkpt lat="49.8964" lon="4.8202">
        <ele>297</ele>
        <time>2021-08-14T08:44:43.000Z</time>
      </trkpt>
      <trkpt lat="49.89643" lon="4.82019">
        <ele>297</ele>
        <time>2021-08-14T08:44:44.000Z</time>
      </trkpt>
      <trkpt lat="49.89645" lon="4.82018">
        <ele>298</ele>
        <time>2021-08-14T08:44:45.000Z</time>
      </trkpt>
      <trkpt lat="49.89648" lon="4.82016">
        <ele>298</ele>
        <time>2021-08-14T08:44:46.000Z</time>
      </trkpt>
      <trkpt lat="49.8965" lon="4.82015">
        <ele>298</ele>
        <time>2021-08-14T08:44:47.000Z</time>
      </trkpt>
      <trkpt lat="49.89653" lon="4.82014">
        <ele>299</ele>
        <time>2021-08-14T08:44:48.000Z</time>
      </trkpt>
      <trkpt lat="49.89655" lon="4.82013">
        <ele>299</ele>
        <time>2021-08-14T08:44:49.000Z</time>
      </trkpt>
      <trkpt lat="49.89657" lon="4.82011">
        <ele>299</ele>
        <time>2021-08-14T08:44:50.000Z</time>
      </trkpt>
      <trkpt lat="49.89659" lon="4.8201">
        <ele>300</ele>
        <time>2021-08-14T08:44:51.000Z</time>
      </trkpt>
      <trkpt lat="49.89661" lon="4.82009">
        <ele>300</ele>
        <time>2021-08-14T08:44:52.000Z</time>
      </trkpt>
      <trkpt lat="49.89663" lon="4.82008">
        <ele>300</ele>
        <time>2021-08-14T08:44:53.000Z</time>
      </trkpt>
      <trkpt lat="49.89664" lon="4.82007">
        <ele>301</ele>
        <time>2021-08-14T08:44:54.000Z</time>
      </trkpt>
      <trkpt lat="49.89666" lon="4.82006">
        <ele>301</ele>
        <time>2021-08-14T08:44:55.000Z</time>
      </trkpt>
      <trkpt lat="49.89668" lon="4.82005">
        <ele>301</ele>
        <time>2021-08-14T08:44:56.000Z</time>
      </trkpt>
      <trkpt lat="49.8967" lon="4.82003">
        <ele>301</ele>
        <time>2021-08-14T08:44:57.000Z</time>
      </trkpt>
      <trkpt lat="49.89672" lon="4.82002">
        <ele>302</ele>
        <time>2021-08-14T08:44:58.000Z</time>
      </trkpt>
      <trkpt lat="49.89673" lon="4.82">
        <ele>302</ele>
        <time>2021-08-14T08:44:59.000Z</time>
      </trkpt>
      <trkpt lat="49.89675" lon="4.81998">
        <ele>303</ele>
        <time>2021-08-14T08:45:00.000Z</time>
      </trkpt>
      <trkpt lat="49.89677" lon="4.81997">
        <ele>303</ele>
        <time>2021-08-14T08:45:01.000Z</time>
      </trkpt>
      <trkpt lat="49.89679" lon="4.81995">
        <ele>303</ele>
        <time>2021-08-14T08:45:02.000Z</time>
      </trkpt>
      <trkpt lat="49.89681" lon="4.81995">
        <ele>304</ele>
        <time>2021-08-14T08:45:03.000Z</time>
      </trkpt>
      <trkpt lat="49.89684" lon="4.81994">
        <ele>304</ele>
        <time>2021-08-14T08:45:04.000Z</time>
      </trkpt>
      <trkpt lat="49.89686" lon="4.81993">
        <ele>305</ele>
        <time>2021-08-14T08:45:05.000Z</time>
      </trkpt>
      <trkpt lat="49.89688" lon="4.81992">
        <ele>305</ele>
        <time>2021-08-14T08:45:06.000Z</time>
      </trkpt>
      <trkpt lat="49.8969" lon="4.81991">
        <ele>305</ele>
        <time>2021-08-14T08:45:07.000Z</time>
      </trkpt>
      <trkpt lat="49.89693" lon="4.81989">
        <ele>306</ele>
        <time>2021-08-14T08:45:08.000Z</time>
      </trkpt>
      <trkpt lat="49.89695" lon="4.81988">
        <ele>306</ele>
        <time>2021-08-14T08:45:09.000Z</time>
      </trkpt>
      <trkpt lat="49.89697" lon="4.81986">
        <ele>307</ele>
        <time>2021-08-14T08:45:10.000Z</time>
      </trkpt>
      <trkpt lat="49.897" lon="4.81985">
        <ele>307</ele>
        <time>2021-08-14T08:45:11.000Z</time>
      </trkpt>
      <trkpt lat="49.89702" lon="4.81984">
        <ele>307</ele>
        <time>2021-08-14T08:45:12.000Z</time>
      </trkpt>
      <trkpt lat="49.89705" lon="4.81982">
        <ele>308</ele>
        <time>2021-08-14T08:45:13.000Z</time>
      </trkpt>
      <trkpt lat="49.89707" lon="4.8198">
        <ele>308</ele>
        <time>2021-08-14T08:45:14.000Z</time>
      </trkpt>
      <trkpt lat="49.89709" lon="4.81979">
        <ele>309</ele>
        <time>2021-08-14T08:45:15.000Z</time>
      </trkpt>
      <trkpt lat="49.89711" lon="4.81977">
        <ele>309</ele>
        <time>2021-08-14T08:45:16.000Z</time>
      </trkpt>
      <trkpt lat="49.89714" lon="4.81976">
        <ele>309</ele>
        <time>2021-08-14T08:45:17.000Z</time>
      </trkpt>
      <trkpt lat="49.89716" lon="4.81975">
        <ele>310</ele>
        <time>2021-08-14T08:45:18.000Z</time>
      </trkpt>
      <trkpt lat="49.89718" lon="4.81974">
        <ele>310</ele>
        <time>2021-08-14T08:45:19.000Z</time>
      </trkpt>
      <trkpt lat="49.8972" lon="4.81972">
        <ele>310</ele>
        <time>2021-08-14T08:45:20.000Z</time>
      </trkpt>
      <trkpt lat="49.89722" lon="4.81971">
        <ele>310</ele>
        <time>2021-08-14T08:45:21.000Z</time>
      </trkpt>
      <trkpt lat="49.89724" lon="4.81971">
        <ele>311</ele>
        <time>2021-08-14T08:45:22.000Z</time>
      </trkpt>
      <trkpt lat="49.89726" lon="4.8197">
        <ele>311</ele>
        <time>2021-08-14T08:45:23.000Z</time>
      </trkpt>
      <trkpt lat="49.89728" lon="4.8197">
        <ele>311</ele>
        <time>2021-08-14T08:45:24.000Z</time>
      </trkpt>
      <trkpt lat="49.89731" lon="4.81969">
        <ele>311</ele>
        <time>2021-08-14T08:45:25.000Z</time>
      </trkpt>
      <trkpt lat="49.89733" lon="4.81969">
        <ele>312</ele>
        <time>2021-08-14T08:45:26.000Z</time>
      </trkpt>
      <trkpt lat="49.89735" lon="4.81968">
        <ele>312</ele>
        <time>2021-08-14T08:45:27.000Z</time>
      </trkpt>
      <trkpt lat="49.89736" lon="4.81968">
        <ele>312</ele>
        <time>2021-08-14T08:45:28.000Z</time>
      </trkpt>
      <trkpt lat="49.89739" lon="4.81969">
        <ele>312</ele>
        <time>2021-08-14T08:45:29.000Z</time>
      </trkpt>
      <trkpt lat="49.89741" lon="4.81969">
        <ele>312</ele>
        <time>2021-08-14T08:45:30.000Z</time>
      </trkpt>
      <trkpt lat="49.89743" lon="4.8197">
        <ele>313</ele>
        <time>2021-08-14T08:45:31.000Z</time>
      </trkpt>
      <trkpt lat="49.89744" lon="4.81971">
        <ele>313</ele>
        <time>2021-08-14T08:45:32.000Z</time>
      </trkpt>
      <trkpt lat="49.89746" lon="4.81971">
        <ele>313</ele>
        <time>2021-08-14T08:45:33.000Z</time>
      </trkpt>
      <trkpt lat="49.89748" lon="4.81972">
        <ele>313</ele>
        <time>2021-08-14T08:45:34.000Z</time>
      </trkpt>
      <trkpt lat="49.8975" lon="4.81972">
        <ele>313</ele>
        <time>2021-08-14T08:45:35.000Z</time>
      </trkpt>
      <trkpt lat="49.89753" lon="4.81973">
        <ele>313</ele>
        <time>2021-08-14T08:45:36.000Z</time>
      </trkpt>
      <trkpt lat="49.89755" lon="4.81974">
        <ele>313</ele>
        <time>2021-08-14T08:45:37.000Z</time>
      </trkpt>
      <trkpt lat="49.89758" lon="4.81975">
        <ele>313</ele>
        <time>2021-08-14T08:45:38.000Z</time>
      </trkpt>
      <trkpt lat="49.89761" lon="4.81977">
        <ele>314</ele>
        <time>2021-08-14T08:45:39.000Z</time>
      </trkpt>
      <trkpt lat="49.89764" lon="4.81978">
        <ele>314</ele>
        <time>2021-08-14T08:45:40.000Z</time>
      </trkpt>
      <trkpt lat="49.89767" lon="4.81979">
        <ele>314</ele>
        <time>2021-08-14T08:45:41.000Z</time>
      </trkpt>
      <trkpt lat="49.89769" lon="4.8198">
        <ele>314</ele>
        <time>2021-08-14T08:45:42.000Z</time>
      </trkpt>
      <trkpt lat="49.89772" lon="4.8198">
        <ele>314</ele>
        <time>2021-08-14T08:45:43.000Z</time>
      </trkpt>
      <trkpt lat="49.89775" lon="4.81981">
        <ele>315</ele>
        <time>2021-08-14T08:45:44.000Z</time>
      </trkpt>
      <trkpt lat="49.89777" lon="4.81982">
        <ele>315</ele>
        <time>2021-08-14T08:45:45.000Z</time>
      </trkpt>
      <trkpt lat="49.89779" lon="4.81983">
        <ele>315</ele>
        <time>2021-08-14T08:45:46.000Z</time>
      </trkpt>
      <trkpt lat="49.89781" lon="4.81983">
        <ele>315</ele>
        <time>2021-08-14T08:45:47.000Z</time>
      </trkpt>
      <trkpt lat="49.89784" lon="4.81984">
        <ele>315</ele>
        <time>2021-08-14T08:45:48.000Z</time>
      </trkpt>
      <trkpt lat="49.89787" lon="4.81985">
        <ele>316</ele>
        <time>2021-08-14T08:45:49.000Z</time>
      </trkpt>
      <trkpt lat="49.8979" lon="4.81986">
        <ele>316</ele>
        <time>2021-08-14T08:45:50.000Z</time>
      </trkpt>
      <trkpt lat="49.89792" lon="4.81987">
        <ele>316</ele>
        <time>2021-08-14T08:45:51.000Z</time>
      </trkpt>
      <trkpt lat="49.89795" lon="4.81988">
        <ele>316</ele>
        <time>2021-08-14T08:45:52.000Z</time>
      </trkpt>
      <trkpt lat="49.89797" lon="4.81989">
        <ele>317</ele>
        <time>2021-08-14T08:45:53.000Z</time>
      </trkpt>
      <trkpt lat="49.89799" lon="4.8199">
        <ele>317</ele>
        <time>2021-08-14T08:45:54.000Z</time>
      </trkpt>
      <trkpt lat="49.89801" lon="4.81989">
        <ele>317</ele>
        <time>2021-08-14T08:45:55.000Z</time>
      </trkpt>
      <trkpt lat="49.89803" lon="4.81989">
        <ele>318</ele>
        <time>2021-08-14T08:45:56.000Z</time>
      </trkpt>
      <trkpt lat="49.89804" lon="4.81987">
        <ele>318</ele>
        <time>2021-08-14T08:45:57.000Z</time>
      </trkpt>
      <trkpt lat="49.89806" lon="4.81986">
        <ele>318</ele>
        <time>2021-08-14T08:45:58.000Z</time>
      </trkpt>
      <trkpt lat="49.89807" lon="4.81983">
        <ele>318</ele>
        <time>2021-08-14T08:45:59.000Z</time>
      </trkpt>
      <trkpt lat="49.89809" lon="4.8198">
        <ele>319</ele>
        <time>2021-08-14T08:46:00.000Z</time>
      </trkpt>
      <trkpt lat="49.8981" lon="4.81978">
        <ele>319</ele>
        <time>2021-08-14T08:46:01.000Z</time>
      </trkpt>
      <trkpt lat="49.89812" lon="4.81975">
        <ele>320</ele>
        <time>2021-08-14T08:46:02.000Z</time>
      </trkpt>
      <trkpt lat="49.89813" lon="4.81973">
        <ele>320</ele>
        <time>2021-08-14T08:46:03.000Z</time>
      </trkpt>
      <trkpt lat="49.89815" lon="4.8197">
        <ele>321</ele>
        <time>2021-08-14T08:46:04.000Z</time>
      </trkpt>
      <trkpt lat="49.89815" lon="4.81967">
        <ele>321</ele>
        <time>2021-08-14T08:46:05.000Z</time>
      </trkpt>
      <trkpt lat="49.89817" lon="4.81964">
        <ele>321</ele>
        <time>2021-08-14T08:46:06.000Z</time>
      </trkpt>
      <trkpt lat="49.89818" lon="4.81961">
        <ele>322</ele>
        <time>2021-08-14T08:46:07.000Z</time>
      </trkpt>
      <trkpt lat="49.8982" lon="4.81958">
        <ele>322</ele>
        <time>2021-08-14T08:46:08.000Z</time>
      </trkpt>
      <trkpt lat="49.89821" lon="4.81955">
        <ele>323</ele>
        <time>2021-08-14T08:46:09.000Z</time>
      </trkpt>
      <trkpt lat="49.89823" lon="4.81952">
        <ele>323</ele>
        <time>2021-08-14T08:46:10.000Z</time>
      </trkpt>
      <trkpt lat="49.89825" lon="4.81949">
        <ele>323</ele>
        <time>2021-08-14T08:46:11.000Z</time>
      </trkpt>
      <trkpt lat="49.89826" lon="4.81947">
        <ele>324</ele>
        <time>2021-08-14T08:46:12.000Z</time>
      </trkpt>
      <trkpt lat="49.89829" lon="4.81944">
        <ele>324</ele>
        <time>2021-08-14T08:46:13.000Z</time>
      </trkpt>
      <trkpt lat="49.89831" lon="4.81942">
        <ele>324</ele>
        <time>2021-08-14T08:46:14.000Z</time>
      </trkpt>
      <trkpt lat="49.89833" lon="4.81941">
        <ele>324</ele>
        <time>2021-08-14T08:46:15.000Z</time>
      </trkpt>
      <trkpt lat="49.89835" lon="4.8194">
        <ele>325</ele>
        <time>2021-08-14T08:46:16.000Z</time>
      </trkpt>
      <trkpt lat="49.89837" lon="4.81939">
        <ele>325</ele>
        <time>2021-08-14T08:46:17.000Z</time>
      </trkpt>
      <trkpt lat="49.89839" lon="4.81939">
        <ele>325</ele>
        <time>2021-08-14T08:46:18.000Z</time>
      </trkpt>
      <trkpt lat="49.89842" lon="4.8194">
        <ele>325</ele>
        <time>2021-08-14T08:46:19.000Z</time>
      </trkpt>
      <trkpt lat="49.89844" lon="4.8194">
        <ele>326</ele>
        <time>2021-08-14T08:46:20.000Z</time>
      </trkpt>
      <trkpt lat="49.89846" lon="4.81942">
        <ele>326</ele>
        <time>2021-08-14T08:46:21.000Z</time>
      </trkpt>
      <trkpt lat="49.89848" lon="4.81943">
        <ele>326</ele>
        <time>2021-08-14T08:46:22.000Z</time>
      </trkpt>
      <trkpt lat="49.8985" lon="4.81945">
        <ele>326</ele>
        <time>2021-08-14T08:46:23.000Z</time>
      </trkpt>
      <trkpt lat="49.89852" lon="4.81947">
        <ele>326</ele>
        <time>2021-08-14T08:46:24.000Z</time>
      </trkpt>
      <trkpt lat="49.89854" lon="4.8195">
        <ele>326</ele>
        <time>2021-08-14T08:46:25.000Z</time>
      </trkpt>
      <trkpt lat="49.89856" lon="4.81952">
        <ele>326</ele>
        <time>2021-08-14T08:46:26.000Z</time>
      </trkpt>
      <trkpt lat="49.89858" lon="4.81954">
        <ele>326</ele>
        <time>2021-08-14T08:46:27.000Z</time>
      </trkpt>
      <trkpt lat="49.89859" lon="4.81957">
        <ele>325</ele>
        <time>2021-08-14T08:46:28.000Z</time>
      </trkpt>
      <trkpt lat="49.89861" lon="4.81958">
        <ele>325</ele>
        <time>2021-08-14T08:46:29.000Z</time>
      </trkpt>
      <trkpt lat="49.89862" lon="4.81961">
        <ele>325</ele>
        <time>2021-08-14T08:46:30.000Z</time>
      </trkpt>
      <trkpt lat="49.89864" lon="4.81963">
        <ele>325</ele>
        <time>2021-08-14T08:46:31.000Z</time>
      </trkpt>
      <trkpt lat="49.89865" lon="4.81967">
        <ele>325</ele>
        <time>2021-08-14T08:46:32.000Z</time>
      </trkpt>
      <trkpt lat="49.89867" lon="4.8197">
        <ele>325</ele>
        <time>2021-08-14T08:46:33.000Z</time>
      </trkpt>
      <trkpt lat="49.89869" lon="4.81973">
        <ele>325</ele>
        <time>2021-08-14T08:46:34.000Z</time>
      </trkpt>
      <trkpt lat="49.89871" lon="4.81976">
        <ele>325</ele>
        <time>2021-08-14T08:46:35.000Z</time>
      </trkpt>
      <trkpt lat="49.89872" lon="4.81979">
        <ele>325</ele>
        <time>2021-08-14T08:46:36.000Z</time>
      </trkpt>
      <trkpt lat="49.89874" lon="4.81982">
        <ele>325</ele>
        <time>2021-08-14T08:46:37.000Z</time>
      </trkpt>
      <trkpt lat="49.89876" lon="4.81986">
        <ele>325</ele>
        <time>2021-08-14T08:46:38.000Z</time>
      </trkpt>
      <trkpt lat="49.89877" lon="4.81989">
        <ele>325</ele>
        <time>2021-08-14T08:46:39.000Z</time>
      </trkpt>
      <trkpt lat="49.89878" lon="4.81992">
        <ele>325</ele>
        <time>2021-08-14T08:46:40.000Z</time>
      </trkpt>
      <trkpt lat="49.89879" lon="4.81995">
        <ele>325</ele>
        <time>2021-08-14T08:46:41.000Z</time>
      </trkpt>
      <trkpt lat="49.8988" lon="4.81998">
        <ele>325</ele>
        <time>2021-08-14T08:46:42.000Z</time>
      </trkpt>
      <trkpt lat="49.89881" lon="4.82">
        <ele>325</ele>
        <time>2021-08-14T08:46:43.000Z</time>
      </trkpt>
      <trkpt lat="49.89882" lon="4.82003">
        <ele>325</ele>
        <time>2021-08-14T08:46:44.000Z</time>
      </trkpt>
      <trkpt lat="49.89883" lon="4.82006">
        <ele>325</ele>
        <time>2021-08-14T08:46:45.000Z</time>
      </trkpt>
      <trkpt lat="49.89883" lon="4.82009">
        <ele>325</ele>
        <time>2021-08-14T08:46:46.000Z</time>
      </trkpt>
      <trkpt lat="49.89884" lon="4.82012">
        <ele>325</ele>
        <time>2021-08-14T08:46:47.000Z</time>
      </trkpt>
      <trkpt lat="49.89886" lon="4.82014">
        <ele>325</ele>
        <time>2021-08-14T08:46:48.000Z</time>
      </trkpt>
      <trkpt lat="49.89888" lon="4.82017">
        <ele>326</ele>
        <time>2021-08-14T08:46:49.000Z</time>
      </trkpt>
      <trkpt lat="49.89891" lon="4.82019">
        <ele>326</ele>
        <time>2021-08-14T08:46:50.000Z</time>
      </trkpt>
      <trkpt lat="49.89892" lon="4.82022">
        <ele>326</ele>
        <time>2021-08-14T08:46:51.000Z</time>
      </trkpt>
      <trkpt lat="49.89894" lon="4.82025">
        <ele>326</ele>
        <time>2021-08-14T08:46:52.000Z</time>
      </trkpt>
      <trkpt lat="49.89896" lon="4.82028">
        <ele>327</ele>
        <time>2021-08-14T08:46:53.000Z</time>
      </trkpt>
      <trkpt lat="49.89898" lon="4.82031">
        <ele>327</ele>
        <time>2021-08-14T08:46:54.000Z</time>
      </trkpt>
      <trkpt lat="49.899" lon="4.82033">
        <ele>327</ele>
        <time>2021-08-14T08:46:55.000Z</time>
      </trkpt>
      <trkpt lat="49.89901" lon="4.82036">
        <ele>327</ele>
        <time>2021-08-14T08:46:56.000Z</time>
      </trkpt>
      <trkpt lat="49.89903" lon="4.82039">
        <ele>328</ele>
        <time>2021-08-14T08:46:57.000Z</time>
      </trkpt>
      <trkpt lat="49.89904" lon="4.82042">
        <ele>328</ele>
        <time>2021-08-14T08:46:58.000Z</time>
      </trkpt>
      <trkpt lat="49.89906" lon="4.82045">
        <ele>328</ele>
        <time>2021-08-14T08:46:59.000Z</time>
      </trkpt>
      <trkpt lat="49.89907" lon="4.82048">
        <ele>328</ele>
        <time>2021-08-14T08:47:00.000Z</time>
      </trkpt>
      <trkpt lat="49.89909" lon="4.82051">
        <ele>329</ele>
        <time>2021-08-14T08:47:01.000Z</time>
      </trkpt>
      <trkpt lat="49.8991" lon="4.82053">
        <ele>329</ele>
        <time>2021-08-14T08:47:02.000Z</time>
      </trkpt>
      <trkpt lat="49.89912" lon="4.82056">
        <ele>329</ele>
        <time>2021-08-14T08:47:03.000Z</time>
      </trkpt>
      <trkpt lat="49.89914" lon="4.82058">
        <ele>330</ele>
        <time>2021-08-14T08:47:04.000Z</time>
      </trkpt>
      <trkpt lat="49.89915" lon="4.82061">
        <ele>330</ele>
        <time>2021-08-14T08:47:05.000Z</time>
      </trkpt>
      <trkpt lat="49.89917" lon="4.82064">
        <ele>330</ele>
        <time>2021-08-14T08:47:06.000Z</time>
      </trkpt>
      <trkpt lat="49.89919" lon="4.82067">
        <ele>331</ele>
        <time>2021-08-14T08:47:07.000Z</time>
      </trkpt>
      <trkpt lat="49.89921" lon="4.82069">
        <ele>331</ele>
        <time>2021-08-14T08:47:08.000Z</time>
      </trkpt>
      <trkpt lat="49.89922" lon="4.82072">
        <ele>331</ele>
        <time>2021-08-14T08:47:09.000Z</time>
      </trkpt>
      <trkpt lat="49.89925" lon="4.82074">
        <ele>331</ele>
        <time>2021-08-14T08:47:10.000Z</time>
      </trkpt>
      <trkpt lat="49.89927" lon="4.82076">
        <ele>332</ele>
        <time>2021-08-14T08:47:11.000Z</time>
      </trkpt>
      <trkpt lat="49.89928" lon="4.82078">
        <ele>332</ele>
        <time>2021-08-14T08:47:12.000Z</time>
      </trkpt>
      <trkpt lat="49.8993" lon="4.8208">
        <ele>332</ele>
        <time>2021-08-14T08:47:13.000Z</time>
      </trkpt>
      <trkpt lat="49.8993" lon="4.82083">
        <ele>332</ele>
        <time>2021-08-14T08:47:14.000Z</time>
      </trkpt>
      <trkpt lat="49.89931" lon="4.82085">
        <ele>332</ele>
        <time>2021-08-14T08:47:15.000Z</time>
      </trkpt>
      <trkpt lat="49.89932" lon="4.82087">
        <ele>333</ele>
        <time>2021-08-14T08:47:16.000Z</time>
      </trkpt>
      <trkpt lat="49.89933" lon="4.82088">
        <ele>333</ele>
        <time>2021-08-14T08:47:17.000Z</time>
      </trkpt>
      <trkpt lat="49.89935" lon="4.8209">
        <ele>333</ele>
        <time>2021-08-14T08:47:18.000Z</time>
      </trkpt>
      <trkpt lat="49.89936" lon="4.82091">
        <ele>333</ele>
        <time>2021-08-14T08:47:19.000Z</time>
      </trkpt>
      <trkpt lat="49.89937" lon="4.82093">
        <ele>334</ele>
        <time>2021-08-14T08:47:20.000Z</time>
      </trkpt>
      <trkpt lat="49.89938" lon="4.82094">
        <ele>334</ele>
        <time>2021-08-14T08:47:21.000Z</time>
      </trkpt>
      <trkpt lat="49.89939" lon="4.82096">
        <ele>335</ele>
        <time>2021-08-14T08:47:22.000Z</time>
      </trkpt>
      <trkpt lat="49.89941" lon="4.82097">
        <ele>335</ele>
        <time>2021-08-14T08:47:23.000Z</time>
      </trkpt>
      <trkpt lat="49.89942" lon="4.82099">
        <ele>335</ele>
        <time>2021-08-14T08:47:24.000Z</time>
      </trkpt>
      <trkpt lat="49.89944" lon="4.82101">
        <ele>336</ele>
        <time>2021-08-14T08:47:25.000Z</time>
      </trkpt>
      <trkpt lat="49.89946" lon="4.82103">
        <ele>336</ele>
        <time>2021-08-14T08:47:26.000Z</time>
      </trkpt>
      <trkpt lat="49.89947" lon="4.82104">
        <ele>336</ele>
        <time>2021-08-14T08:47:27.000Z</time>
      </trkpt>
      <trkpt lat="49.89949" lon="4.82106">
        <ele>337</ele>
        <time>2021-08-14T08:47:28.000Z</time>
      </trkpt>
      <trkpt lat="49.8995" lon="4.82108">
        <ele>337</ele>
        <time>2021-08-14T08:47:29.000Z</time>
      </trkpt>
      <trkpt lat="49.89951" lon="4.82109">
        <ele>337</ele>
        <time>2021-08-14T08:47:30.000Z</time>
      </trkpt>
      <trkpt lat="49.89953" lon="4.82111">
        <ele>337</ele>
        <time>2021-08-14T08:47:31.000Z</time>
      </trkpt>
      <trkpt lat="49.89954" lon="4.82112">
        <ele>338</ele>
        <time>2021-08-14T08:47:32.000Z</time>
      </trkpt>
      <trkpt lat="49.89956" lon="4.82113">
        <ele>338</ele>
        <time>2021-08-14T08:47:33.000Z</time>
      </trkpt>
      <trkpt lat="49.89958" lon="4.82115">
        <ele>338</ele>
        <time>2021-08-14T08:47:34.000Z</time>
      </trkpt>
      <trkpt lat="49.8996" lon="4.82117">
        <ele>339</ele>
        <time>2021-08-14T08:47:35.000Z</time>
      </trkpt>
      <trkpt lat="49.89962" lon="4.82118">
        <ele>339</ele>
        <time>2021-08-14T08:47:36.000Z</time>
      </trkpt>
      <trkpt lat="49.89965" lon="4.82119">
        <ele>339</ele>
        <time>2021-08-14T08:47:37.000Z</time>
      </trkpt>
      <trkpt lat="49.89968" lon="4.82121">
        <ele>340</ele>
        <time>2021-08-14T08:47:38.000Z</time>
      </trkpt>
      <trkpt lat="49.8997" lon="4.82123">
        <ele>340</ele>
        <time>2021-08-14T08:47:39.000Z</time>
      </trkpt>
      <trkpt lat="49.89972" lon="4.82124">
        <ele>341</ele>
        <time>2021-08-14T08:47:40.000Z</time>
      </trkpt>
      <trkpt lat="49.89975" lon="4.82125">
        <ele>341</ele>
        <time>2021-08-14T08:47:41.000Z</time>
      </trkpt>
      <trkpt lat="49.89977" lon="4.82126">
        <ele>341</ele>
        <time>2021-08-14T08:47:42.000Z</time>
      </trkpt>
      <trkpt lat="49.8998" lon="4.82127">
        <ele>342</ele>
        <time>2021-08-14T08:47:43.000Z</time>
      </trkpt>
      <trkpt lat="49.89982" lon="4.82128">
        <ele>342</ele>
        <time>2021-08-14T08:47:44.000Z</time>
      </trkpt>
      <trkpt lat="49.89984" lon="4.82128">
        <ele>342</ele>
        <time>2021-08-14T08:47:45.000Z</time>
      </trkpt>
      <trkpt lat="49.89986" lon="4.82129">
        <ele>343</ele>
        <time>2021-08-14T08:47:46.000Z</time>
      </trkpt>
      <trkpt lat="49.89988" lon="4.82129">
        <ele>343</ele>
        <time>2021-08-14T08:47:47.000Z</time>
      </trkpt>
      <trkpt lat="49.8999" lon="4.8213">
        <ele>343</ele>
        <time>2021-08-14T08:47:48.000Z</time>
      </trkpt>
      <trkpt lat="49.89992" lon="4.82131">
        <ele>343</ele>
        <time>2021-08-14T08:47:49.000Z</time>
      </trkpt>
      <trkpt lat="49.89995" lon="4.82132">
        <ele>344</ele>
        <time>2021-08-14T08:47:50.000Z</time>
      </trkpt>
      <trkpt lat="49.89996" lon="4.82133">
        <ele>344</ele>
        <time>2021-08-14T08:47:51.000Z</time>
      </trkpt>
      <trkpt lat="49.89998" lon="4.82133">
        <ele>344</ele>
        <time>2021-08-14T08:47:52.000Z</time>
      </trkpt>
      <trkpt lat="49.9" lon="4.82134">
        <ele>345</ele>
        <time>2021-08-14T08:47:53.000Z</time>
      </trkpt>
      <trkpt lat="49.90002" lon="4.82136">
        <ele>345</ele>
        <time>2021-08-14T08:47:54.000Z</time>
      </trkpt>
      <trkpt lat="49.90004" lon="4.82137">
        <ele>345</ele>
        <time>2021-08-14T08:47:55.000Z</time>
      </trkpt>
      <trkpt lat="49.90006" lon="4.82137">
        <ele>345</ele>
        <time>2021-08-14T08:47:56.000Z</time>
      </trkpt>
      <trkpt lat="49.90008" lon="4.82138">
        <ele>345</ele>
        <time>2021-08-14T08:47:57.000Z</time>
      </trkpt>
      <trkpt lat="49.9001" lon="4.82139">
        <ele>345</ele>
        <time>2021-08-14T08:47:58.000Z</time>
      </trkpt>
      <trkpt lat="49.90012" lon="4.82139">
        <ele>346</ele>
        <time>2021-08-14T08:47:59.000Z</time>
      </trkpt>
      <trkpt lat="49.90014" lon="4.8214">
        <ele>346</ele>
        <time>2021-08-14T08:48:00.000Z</time>
      </trkpt>
      <trkpt lat="49.90016" lon="4.82142">
        <ele>346</ele>
        <time>2021-08-14T08:48:01.000Z</time>
      </trkpt>
      <trkpt lat="49.90019" lon="4.82143">
        <ele>346</ele>
        <time>2021-08-14T08:48:02.000Z</time>
      </trkpt>
      <trkpt lat="49.90021" lon="4.82144">
        <ele>346</ele>
        <time>2021-08-14T08:48:03.000Z</time>
      </trkpt>
      <trkpt lat="49.90023" lon="4.82145">
        <ele>347</ele>
        <time>2021-08-14T08:48:04.000Z</time>
      </trkpt>
      <trkpt lat="49.90026" lon="4.82146">
        <ele>347</ele>
        <time>2021-08-14T08:48:05.000Z</time>
      </trkpt>
      <trkpt lat="49.90028" lon="4.82147">
        <ele>347</ele>
        <time>2021-08-14T08:48:06.000Z</time>
      </trkpt>
      <trkpt lat="49.90031" lon="4.82148">
        <ele>347</ele>
        <time>2021-08-14T08:48:07.000Z</time>
      </trkpt>
      <trkpt lat="49.90034" lon="4.8215">
        <ele>347</ele>
        <time>2021-08-14T08:48:08.000Z</time>
      </trkpt>
      <trkpt lat="49.90036" lon="4.82152">
        <ele>347</ele>
        <time>2021-08-14T08:48:09.000Z</time>
      </trkpt>
      <trkpt lat="49.90039" lon="4.82153">
        <ele>347</ele>
        <time>2021-08-14T08:48:10.000Z</time>
      </trkpt>
      <trkpt lat="49.90041" lon="4.82155">
        <ele>347</ele>
        <time>2021-08-14T08:48:11.000Z</time>
      </trkpt>
      <trkpt lat="49.90044" lon="4.82156">
        <ele>347</ele>
        <time>2021-08-14T08:48:12.000Z</time>
      </trkpt>
      <trkpt lat="49.90046" lon="4.82158">
        <ele>347</ele>
        <time>2021-08-14T08:48:13.000Z</time>
      </trkpt>
      <trkpt lat="49.90049" lon="4.82159">
        <ele>347</ele>
        <time>2021-08-14T08:48:14.000Z</time>
      </trkpt>
      <trkpt lat="49.90052" lon="4.82162">
        <ele>348</ele>
        <time>2021-08-14T08:48:15.000Z</time>
      </trkpt>
      <trkpt lat="49.90054" lon="4.82164">
        <ele>348</ele>
        <time>2021-08-14T08:48:16.000Z</time>
      </trkpt>
      <trkpt lat="49.90057" lon="4.82166">
        <ele>348</ele>
        <time>2021-08-14T08:48:17.000Z</time>
      </trkpt>
      <trkpt lat="49.90059" lon="4.82169">
        <ele>348</ele>
        <time>2021-08-14T08:48:18.000Z</time>
      </trkpt>
      <trkpt lat="49.90062" lon="4.82171">
        <ele>348</ele>
        <time>2021-08-14T08:48:19.000Z</time>
      </trkpt>
      <trkpt lat="49.90064" lon="4.82174">
        <ele>348</ele>
        <time>2021-08-14T08:48:20.000Z</time>
      </trkpt>
      <trkpt lat="49.90066" lon="4.82177">
        <ele>348</ele>
        <time>2021-08-14T08:48:21.000Z</time>
      </trkpt>
      <trkpt lat="49.90068" lon="4.8218">
        <ele>349</ele>
        <time>2021-08-14T08:48:22.000Z</time>
      </trkpt>
      <trkpt lat="49.90071" lon="4.82183">
        <ele>349</ele>
        <time>2021-08-14T08:48:23.000Z</time>
      </trkpt>
      <trkpt lat="49.90071" lon="4.82183">
        <ele>349</ele>
        <time>2021-08-14T08:48:24.000Z</time>
      </trkpt>
      <trkpt lat="49.90075" lon="4.82189">
        <ele>349</ele>
        <time>2021-08-14T08:48:25.000Z</time>
      </trkpt>
      <trkpt lat="49.90076" lon="4.82192">
        <ele>349</ele>
        <time>2021-08-14T08:48:26.000Z</time>
      </trkpt>
      <trkpt lat="49.90078" lon="4.82194">
        <ele>349</ele>
        <time>2021-08-14T08:48:27.000Z</time>
      </trkpt>
      <trkpt lat="49.9008" lon="4.82197">
        <ele>349</ele>
        <time>2021-08-14T08:48:28.000Z</time>
      </trkpt>
      <trkpt lat="49.90083" lon="4.822">
        <ele>349</ele>
        <time>2021-08-14T08:48:29.000Z</time>
      </trkpt>
      <trkpt lat="49.90085" lon="4.82203">
        <ele>349</ele>
        <time>2021-08-14T08:48:30.000Z</time>
      </trkpt>
      <trkpt lat="49.90087" lon="4.82206">
        <ele>349</ele>
        <time>2021-08-14T08:48:31.000Z</time>
      </trkpt>
      <trkpt lat="49.90089" lon="4.82209">
        <ele>349</ele>
        <time>2021-08-14T08:48:32.000Z</time>
      </trkpt>
      <trkpt lat="49.90092" lon="4.82212">
        <ele>349</ele>
        <time>2021-08-14T08:48:33.000Z</time>
      </trkpt>
      <trkpt lat="49.90094" lon="4.82214">
        <ele>349</ele>
        <time>2021-08-14T08:48:34.000Z</time>
      </trkpt>
      <trkpt lat="49.90096" lon="4.82217">
        <ele>349</ele>
        <time>2021-08-14T08:48:35.000Z</time>
      </trkpt>
      <trkpt lat="49.90098" lon="4.8222">
        <ele>349</ele>
        <time>2021-08-14T08:48:36.000Z</time>
      </trkpt>
      <trkpt lat="49.901" lon="4.82222">
        <ele>349</ele>
        <time>2021-08-14T08:48:37.000Z</time>
      </trkpt>
      <trkpt lat="49.90103" lon="4.82222">
        <ele>350</ele>
        <time>2021-08-14T08:48:38.000Z</time>
      </trkpt>
      <trkpt lat="49.90105" lon="4.82221">
        <ele>350</ele>
        <time>2021-08-14T08:48:39.000Z</time>
      </trkpt>
      <trkpt lat="49.90107" lon="4.82219">
        <ele>350</ele>
        <time>2021-08-14T08:48:40.000Z</time>
      </trkpt>
      <trkpt lat="49.90109" lon="4.82217">
        <ele>350</ele>
        <time>2021-08-14T08:48:41.000Z</time>
      </trkpt>
      <trkpt lat="49.90112" lon="4.82215">
        <ele>350</ele>
        <time>2021-08-14T08:48:42.000Z</time>
      </trkpt>
      <trkpt lat="49.90114" lon="4.82214">
        <ele>350</ele>
        <time>2021-08-14T08:48:43.000Z</time>
      </trkpt>
      <trkpt lat="49.90117" lon="4.82213">
        <ele>351</ele>
        <time>2021-08-14T08:48:44.000Z</time>
      </trkpt>
      <trkpt lat="49.9012" lon="4.82213">
        <ele>351</ele>
        <time>2021-08-14T08:48:45.000Z</time>
      </trkpt>
      <trkpt lat="49.90122" lon="4.82213">
        <ele>351</ele>
        <time>2021-08-14T08:48:46.000Z</time>
      </trkpt>
      <trkpt lat="49.90125" lon="4.82213">
        <ele>351</ele>
        <time>2021-08-14T08:48:47.000Z</time>
      </trkpt>
      <trkpt lat="49.90128" lon="4.82212">
        <ele>351</ele>
        <time>2021-08-14T08:48:48.000Z</time>
      </trkpt>
      <trkpt lat="49.90131" lon="4.82212">
        <ele>351</ele>
        <time>2021-08-14T08:48:49.000Z</time>
      </trkpt>
      <trkpt lat="49.90134" lon="4.82212">
        <ele>352</ele>
        <time>2021-08-14T08:48:50.000Z</time>
      </trkpt>
      <trkpt lat="49.90137" lon="4.82212">
        <ele>352</ele>
        <time>2021-08-14T08:48:51.000Z</time>
      </trkpt>
      <trkpt lat="49.90139" lon="4.82212">
        <ele>352</ele>
        <time>2021-08-14T08:48:52.000Z</time>
      </trkpt>
      <trkpt lat="49.90139" lon="4.82212">
        <ele>352</ele>
        <time>2021-08-14T08:48:53.000Z</time>
      </trkpt>
      <trkpt lat="49.90145" lon="4.82213">
        <ele>352</ele>
        <time>2021-08-14T08:48:54.000Z</time>
      </trkpt>
      <trkpt lat="49.90148" lon="4.82213">
        <ele>353</ele>
        <time>2021-08-14T08:48:55.000Z</time>
      </trkpt>
      <trkpt lat="49.9015" lon="4.82213">
        <ele>353</ele>
        <time>2021-08-14T08:48:56.000Z</time>
      </trkpt>
      <trkpt lat="49.90152" lon="4.82213">
        <ele>353</ele>
        <time>2021-08-14T08:48:57.000Z</time>
      </trkpt>
      <trkpt lat="49.90155" lon="4.82212">
        <ele>353</ele>
        <time>2021-08-14T08:48:58.000Z</time>
      </trkpt>
      <trkpt lat="49.90157" lon="4.8221">
        <ele>353</ele>
        <time>2021-08-14T08:48:59.000Z</time>
      </trkpt>
      <trkpt lat="49.90159" lon="4.82208">
        <ele>353</ele>
        <time>2021-08-14T08:49:00.000Z</time>
      </trkpt>
      <trkpt lat="49.90159" lon="4.82207">
        <ele>353</ele>
        <time>2021-08-14T08:49:01.000Z</time>
      </trkpt>
      <trkpt lat="49.9016" lon="4.82207">
        <ele>353</ele>
        <time>2021-08-14T08:49:02.000Z</time>
      </trkpt>
      <trkpt lat="49.9016" lon="4.82207">
        <ele>353</ele>
        <time>2021-08-14T08:49:03.000Z</time>
      </trkpt>
      <trkpt lat="49.90161" lon="4.82206">
        <ele>353</ele>
        <time>2021-08-14T08:49:04.000Z</time>
      </trkpt>
      <trkpt lat="49.90162" lon="4.82207">
        <ele>353</ele>
        <time>2021-08-14T08:49:05.000Z</time>
      </trkpt>
      <trkpt lat="49.90163" lon="4.82207">
        <ele>353</ele>
        <time>2021-08-14T08:49:06.000Z</time>
      </trkpt>
      <trkpt lat="49.90164" lon="4.82207">
        <ele>353</ele>
        <time>2021-08-14T08:49:07.000Z</time>
      </trkpt>
      <trkpt lat="49.90164" lon="4.82207">
        <ele>353</ele>
        <time>2021-08-14T08:49:08.000Z</time>
      </trkpt>
      <trkpt lat="49.90164" lon="4.82207">
        <ele>353</ele>
        <time>2021-08-14T08:49:09.000Z</time>
      </trkpt>
      <trkpt lat="49.90164" lon="4.82207">
        <ele>354</ele>
        <time>2021-08-14T08:49:10.000Z</time>
      </trkpt>
      <trkpt lat="49.90165" lon="4.82207">
        <ele>354</ele>
        <time>2021-08-14T08:49:11.000Z</time>
      </trkpt>
      <trkpt lat="49.90166" lon="4.82207">
        <ele>354</ele>
        <time>2021-08-14T08:49:12.000Z</time>
      </trkpt>
      <trkpt lat="49.90167" lon="4.82207">
        <ele>354</ele>
        <time>2021-08-14T08:49:13.000Z</time>
      </trkpt>
      <trkpt lat="49.90169" lon="4.82207">
        <ele>354</ele>
        <time>2021-08-14T08:49:14.000Z</time>
      </trkpt>
      <trkpt lat="49.90171" lon="4.82205">
        <ele>354</ele>
        <time>2021-08-14T08:49:15.000Z</time>
      </trkpt>
      <trkpt lat="49.90174" lon="4.82204">
        <ele>354</ele>
        <time>2021-08-14T08:49:16.000Z</time>
      </trkpt>
      <trkpt lat="49.90176" lon="4.82202">
        <ele>354</ele>
        <time>2021-08-14T08:49:17.000Z</time>
      </trkpt>
      <trkpt lat="49.90179" lon="4.82202">
        <ele>354</ele>
        <time>2021-08-14T08:49:18.000Z</time>
      </trkpt>
      <trkpt lat="49.90181" lon="4.82202">
        <ele>354</ele>
        <time>2021-08-14T08:49:19.000Z</time>
      </trkpt>
      <trkpt lat="49.90181" lon="4.82202">
        <ele>354</ele>
        <time>2021-08-14T08:49:20.000Z</time>
      </trkpt>
      <trkpt lat="49.90186" lon="4.822">
        <ele>354</ele>
        <time>2021-08-14T08:49:21.000Z</time>
      </trkpt>
      <trkpt lat="49.90186" lon="4.822">
        <ele>354</ele>
        <time>2021-08-14T08:49:22.000Z</time>
      </trkpt>
      <trkpt lat="49.9019" lon="4.82198">
        <ele>354</ele>
        <time>2021-08-14T08:49:23.000Z</time>
      </trkpt>
      <trkpt lat="49.90192" lon="4.82197">
        <ele>354</ele>
        <time>2021-08-14T08:49:24.000Z</time>
      </trkpt>
      <trkpt lat="49.90194" lon="4.82197">
        <ele>355</ele>
        <time>2021-08-14T08:49:25.000Z</time>
      </trkpt>
      <trkpt lat="49.90196" lon="4.82196">
        <ele>355</ele>
        <time>2021-08-14T08:49:26.000Z</time>
      </trkpt>
      <trkpt lat="49.90198" lon="4.82195">
        <ele>355</ele>
        <time>2021-08-14T08:49:27.000Z</time>
      </trkpt>
      <trkpt lat="49.902" lon="4.82194">
        <ele>355</ele>
        <time>2021-08-14T08:49:28.000Z</time>
      </trkpt>
      <trkpt lat="49.90202" lon="4.82193">
        <ele>355</ele>
        <time>2021-08-14T08:49:29.000Z</time>
      </trkpt>
      <trkpt lat="49.90204" lon="4.82192">
        <ele>356</ele>
        <time>2021-08-14T08:49:30.000Z</time>
      </trkpt>
      <trkpt lat="49.90204" lon="4.82192">
        <ele>356</ele>
        <time>2021-08-14T08:49:31.000Z</time>
      </trkpt>
      <trkpt lat="49.90208" lon="4.8219">
        <ele>356</ele>
        <time>2021-08-14T08:49:32.000Z</time>
      </trkpt>
      <trkpt lat="49.9021" lon="4.82189">
        <ele>357</ele>
        <time>2021-08-14T08:49:33.000Z</time>
      </trkpt>
      <trkpt lat="49.90212" lon="4.82188">
        <ele>357</ele>
        <time>2021-08-14T08:49:34.000Z</time>
      </trkpt>
      <trkpt lat="49.90215" lon="4.82187">
        <ele>357</ele>
        <time>2021-08-14T08:49:35.000Z</time>
      </trkpt>
      <trkpt lat="49.90217" lon="4.82186">
        <ele>358</ele>
        <time>2021-08-14T08:49:36.000Z</time>
      </trkpt>
      <trkpt lat="49.90219" lon="4.82185">
        <ele>358</ele>
        <time>2021-08-14T08:49:37.000Z</time>
      </trkpt>
      <trkpt lat="49.90221" lon="4.82185">
        <ele>359</ele>
        <time>2021-08-14T08:49:38.000Z</time>
      </trkpt>
      <trkpt lat="49.90223" lon="4.82183">
        <ele>359</ele>
        <time>2021-08-14T08:49:39.000Z</time>
      </trkpt>
      <trkpt lat="49.90225" lon="4.82182">
        <ele>359</ele>
        <time>2021-08-14T08:49:40.000Z</time>
      </trkpt>
      <trkpt lat="49.90227" lon="4.82181">
        <ele>360</ele>
        <time>2021-08-14T08:49:41.000Z</time>
      </trkpt>
      <trkpt lat="49.9023" lon="4.8218">
        <ele>360</ele>
        <time>2021-08-14T08:49:42.000Z</time>
      </trkpt>
      <trkpt lat="49.90232" lon="4.8218">
        <ele>360</ele>
        <time>2021-08-14T08:49:43.000Z</time>
      </trkpt>
      <trkpt lat="49.90234" lon="4.8218">
        <ele>361</ele>
        <time>2021-08-14T08:49:44.000Z</time>
      </trkpt>
      <trkpt lat="49.90237" lon="4.82179">
        <ele>361</ele>
        <time>2021-08-14T08:49:45.000Z</time>
      </trkpt>
      <trkpt lat="49.90239" lon="4.82178">
        <ele>362</ele>
        <time>2021-08-14T08:49:46.000Z</time>
      </trkpt>
      <trkpt lat="49.90241" lon="4.82177">
        <ele>362</ele>
        <time>2021-08-14T08:49:47.000Z</time>
      </trkpt>
      <trkpt lat="49.90243" lon="4.82176">
        <ele>362</ele>
        <time>2021-08-14T08:49:48.000Z</time>
      </trkpt>
      <trkpt lat="49.90245" lon="4.82175">
        <ele>363</ele>
        <time>2021-08-14T08:49:49.000Z</time>
      </trkpt>
      <trkpt lat="49.90247" lon="4.82174">
        <ele>363</ele>
        <time>2021-08-14T08:49:50.000Z</time>
      </trkpt>
      <trkpt lat="49.9025" lon="4.82173">
        <ele>363</ele>
        <time>2021-08-14T08:49:51.000Z</time>
      </trkpt>
      <trkpt lat="49.90253" lon="4.82173">
        <ele>364</ele>
        <time>2021-08-14T08:49:52.000Z</time>
      </trkpt>
      <trkpt lat="49.90255" lon="4.82173">
        <ele>364</ele>
        <time>2021-08-14T08:49:53.000Z</time>
      </trkpt>
      <trkpt lat="49.90257" lon="4.82172">
        <ele>364</ele>
        <time>2021-08-14T08:49:54.000Z</time>
      </trkpt>
      <trkpt lat="49.90259" lon="4.82172">
        <ele>365</ele>
        <time>2021-08-14T08:49:55.000Z</time>
      </trkpt>
      <trkpt lat="49.90261" lon="4.8217">
        <ele>365</ele>
        <time>2021-08-14T08:49:56.000Z</time>
      </trkpt>
      <trkpt lat="49.90263" lon="4.8217">
        <ele>365</ele>
        <time>2021-08-14T08:49:57.000Z</time>
      </trkpt>
      <trkpt lat="49.90265" lon="4.82168">
        <ele>366</ele>
        <time>2021-08-14T08:49:58.000Z</time>
      </trkpt>
      <trkpt lat="49.90268" lon="4.82167">
        <ele>366</ele>
        <time>2021-08-14T08:49:59.000Z</time>
      </trkpt>
      <trkpt lat="49.9027" lon="4.82165">
        <ele>366</ele>
        <time>2021-08-14T08:50:00.000Z</time>
      </trkpt>
      <trkpt lat="49.90273" lon="4.82163">
        <ele>366</ele>
        <time>2021-08-14T08:50:01.000Z</time>
      </trkpt>
      <trkpt lat="49.90275" lon="4.82161">
        <ele>367</ele>
        <time>2021-08-14T08:50:02.000Z</time>
      </trkpt>
      <trkpt lat="49.90277" lon="4.8216">
        <ele>367</ele>
        <time>2021-08-14T08:50:03.000Z</time>
      </trkpt>
      <trkpt lat="49.9028" lon="4.82157">
        <ele>367</ele>
        <time>2021-08-14T08:50:04.000Z</time>
      </trkpt>
      <trkpt lat="49.90283" lon="4.82155">
        <ele>367</ele>
        <time>2021-08-14T08:50:05.000Z</time>
      </trkpt>
      <trkpt lat="49.90285" lon="4.82153">
        <ele>367</ele>
        <time>2021-08-14T08:50:06.000Z</time>
      </trkpt>
      <trkpt lat="49.90288" lon="4.82151">
        <ele>367</ele>
        <time>2021-08-14T08:50:07.000Z</time>
      </trkpt>
      <trkpt lat="49.90291" lon="4.82149">
        <ele>368</ele>
        <time>2021-08-14T08:50:08.000Z</time>
      </trkpt>
      <trkpt lat="49.90293" lon="4.82147">
        <ele>368</ele>
        <time>2021-08-14T08:50:09.000Z</time>
      </trkpt>
      <trkpt lat="49.90296" lon="4.82145">
        <ele>368</ele>
        <time>2021-08-14T08:50:10.000Z</time>
      </trkpt>
      <trkpt lat="49.90298" lon="4.82143">
        <ele>368</ele>
        <time>2021-08-14T08:50:11.000Z</time>
      </trkpt>
      <trkpt lat="49.90301" lon="4.82142">
        <ele>368</ele>
        <time>2021-08-14T08:50:12.000Z</time>
      </trkpt>
      <trkpt lat="49.90304" lon="4.8214">
        <ele>369</ele>
        <time>2021-08-14T08:50:13.000Z</time>
      </trkpt>
      <trkpt lat="49.90306" lon="4.82138">
        <ele>369</ele>
        <time>2021-08-14T08:50:14.000Z</time>
      </trkpt>
      <trkpt lat="49.90308" lon="4.82135">
        <ele>369</ele>
        <time>2021-08-14T08:50:15.000Z</time>
      </trkpt>
      <trkpt lat="49.90311" lon="4.82133">
        <ele>369</ele>
        <time>2021-08-14T08:50:16.000Z</time>
      </trkpt>
      <trkpt lat="49.90313" lon="4.82131">
        <ele>369</ele>
        <time>2021-08-14T08:50:17.000Z</time>
      </trkpt>
      <trkpt lat="49.90313" lon="4.82131">
        <ele>369</ele>
        <time>2021-08-14T08:50:18.000Z</time>
      </trkpt>
      <trkpt lat="49.90317" lon="4.82126">
        <ele>370</ele>
        <time>2021-08-14T08:50:19.000Z</time>
      </trkpt>
      <trkpt lat="49.9032" lon="4.82123">
        <ele>370</ele>
        <time>2021-08-14T08:50:20.000Z</time>
      </trkpt>
      <trkpt lat="49.90322" lon="4.8212">
        <ele>370</ele>
        <time>2021-08-14T08:50:21.000Z</time>
      </trkpt>
      <trkpt lat="49.90325" lon="4.82117">
        <ele>370</ele>
        <time>2021-08-14T08:50:22.000Z</time>
      </trkpt>
      <trkpt lat="49.90328" lon="4.82114">
        <ele>370</ele>
        <time>2021-08-14T08:50:23.000Z</time>
      </trkpt>
      <trkpt lat="49.9033" lon="4.82111">
        <ele>371</ele>
        <time>2021-08-14T08:50:24.000Z</time>
      </trkpt>
      <trkpt lat="49.90333" lon="4.82108">
        <ele>371</ele>
        <time>2021-08-14T08:50:25.000Z</time>
      </trkpt>
      <trkpt lat="49.90336" lon="4.82105">
        <ele>371</ele>
        <time>2021-08-14T08:50:26.000Z</time>
      </trkpt>
      <trkpt lat="49.90338" lon="4.82103">
        <ele>371</ele>
        <time>2021-08-14T08:50:27.000Z</time>
      </trkpt>
      <trkpt lat="49.90341" lon="4.821">
        <ele>371</ele>
        <time>2021-08-14T08:50:28.000Z</time>
      </trkpt>
      <trkpt lat="49.90343" lon="4.82097">
        <ele>371</ele>
        <time>2021-08-14T08:50:29.000Z</time>
      </trkpt>
      <trkpt lat="49.90345" lon="4.82094">
        <ele>371</ele>
        <time>2021-08-14T08:50:30.000Z</time>
      </trkpt>
      <trkpt lat="49.90348" lon="4.82091">
        <ele>372</ele>
        <time>2021-08-14T08:50:31.000Z</time>
      </trkpt>
      <trkpt lat="49.9035" lon="4.82088">
        <ele>372</ele>
        <time>2021-08-14T08:50:32.000Z</time>
      </trkpt>
      <trkpt lat="49.90352" lon="4.82084">
        <ele>372</ele>
        <time>2021-08-14T08:50:33.000Z</time>
      </trkpt>
      <trkpt lat="49.90354" lon="4.8208">
        <ele>372</ele>
        <time>2021-08-14T08:50:34.000Z</time>
      </trkpt>
      <trkpt lat="49.90356" lon="4.82076">
        <ele>372</ele>
        <time>2021-08-14T08:50:35.000Z</time>
      </trkpt>
      <trkpt lat="49.90359" lon="4.82073">
        <ele>372</ele>
        <time>2021-08-14T08:50:36.000Z</time>
      </trkpt>
      <trkpt lat="49.90361" lon="4.8207">
        <ele>372</ele>
        <time>2021-08-14T08:50:37.000Z</time>
      </trkpt>
      <trkpt lat="49.90364" lon="4.82067">
        <ele>373</ele>
        <time>2021-08-14T08:50:38.000Z</time>
      </trkpt>
      <trkpt lat="49.90367" lon="4.82063">
        <ele>373</ele>
        <time>2021-08-14T08:50:39.000Z</time>
      </trkpt>
      <trkpt lat="49.90369" lon="4.82059">
        <ele>373</ele>
        <time>2021-08-14T08:50:40.000Z</time>
      </trkpt>
      <trkpt lat="49.90372" lon="4.82056">
        <ele>373</ele>
        <time>2021-08-14T08:50:41.000Z</time>
      </trkpt>
      <trkpt lat="49.90374" lon="4.82053">
        <ele>373</ele>
        <time>2021-08-14T08:50:42.000Z</time>
      </trkpt>
      <trkpt lat="49.90377" lon="4.82051">
        <ele>373</ele>
        <time>2021-08-14T08:50:43.000Z</time>
      </trkpt>
      <trkpt lat="49.9038" lon="4.82048">
        <ele>373</ele>
        <time>2021-08-14T08:50:44.000Z</time>
      </trkpt>
      <trkpt lat="49.90382" lon="4.82047">
        <ele>373</ele>
        <time>2021-08-14T08:50:45.000Z</time>
      </trkpt>
      <trkpt lat="49.90383" lon="4.82046">
        <ele>373</ele>
        <time>2021-08-14T08:50:46.000Z</time>
      </trkpt>
      <trkpt lat="49.90385" lon="4.82044">
        <ele>374</ele>
        <time>2021-08-14T08:50:47.000Z</time>
      </trkpt>
      <trkpt lat="49.90387" lon="4.82042">
        <ele>374</ele>
        <time>2021-08-14T08:50:48.000Z</time>
      </trkpt>
      <trkpt lat="49.90387" lon="4.82042">
        <ele>374</ele>
        <time>2021-08-14T08:50:49.000Z</time>
      </trkpt>
      <trkpt lat="49.9039" lon="4.82037">
        <ele>374</ele>
        <time>2021-08-14T08:50:50.000Z</time>
      </trkpt>
      <trkpt lat="49.90392" lon="4.82034">
        <ele>374</ele>
        <time>2021-08-14T08:50:51.000Z</time>
      </trkpt>
      <trkpt lat="49.90395" lon="4.82031">
        <ele>374</ele>
        <time>2021-08-14T08:50:52.000Z</time>
      </trkpt>
      <trkpt lat="49.90397" lon="4.82027">
        <ele>374</ele>
        <time>2021-08-14T08:50:53.000Z</time>
      </trkpt>
      <trkpt lat="49.904" lon="4.82023">
        <ele>374</ele>
        <time>2021-08-14T08:50:54.000Z</time>
      </trkpt>
      <trkpt lat="49.90402" lon="4.82019">
        <ele>374</ele>
        <time>2021-08-14T08:50:55.000Z</time>
      </trkpt>
      <trkpt lat="49.90404" lon="4.82015">
        <ele>375</ele>
        <time>2021-08-14T08:50:56.000Z</time>
      </trkpt>
      <trkpt lat="49.90407" lon="4.82012">
        <ele>375</ele>
        <time>2021-08-14T08:50:57.000Z</time>
      </trkpt>
      <trkpt lat="49.9041" lon="4.82009">
        <ele>375</ele>
        <time>2021-08-14T08:50:58.000Z</time>
      </trkpt>
      <trkpt lat="49.90413" lon="4.82006">
        <ele>375</ele>
        <time>2021-08-14T08:50:59.000Z</time>
      </trkpt>
      <trkpt lat="49.90415" lon="4.82002">
        <ele>375</ele>
        <time>2021-08-14T08:51:00.000Z</time>
      </trkpt>
      <trkpt lat="49.90418" lon="4.81999">
        <ele>376</ele>
        <time>2021-08-14T08:51:01.000Z</time>
      </trkpt>
      <trkpt lat="49.90418" lon="4.81999">
        <ele>376</ele>
        <time>2021-08-14T08:51:02.000Z</time>
      </trkpt>
      <trkpt lat="49.90423" lon="4.81991">
        <ele>376</ele>
        <time>2021-08-14T08:51:03.000Z</time>
      </trkpt>
      <trkpt lat="49.90426" lon="4.81988">
        <ele>376</ele>
        <time>2021-08-14T08:51:04.000Z</time>
      </trkpt>
      <trkpt lat="49.9043" lon="4.81985">
        <ele>376</ele>
        <time>2021-08-14T08:51:05.000Z</time>
      </trkpt>
      <trkpt lat="49.90433" lon="4.81981">
        <ele>377</ele>
        <time>2021-08-14T08:51:06.000Z</time>
      </trkpt>
      <trkpt lat="49.90436" lon="4.81979">
        <ele>377</ele>
        <time>2021-08-14T08:51:07.000Z</time>
      </trkpt>
      <trkpt lat="49.90439" lon="4.81976">
        <ele>377</ele>
        <time>2021-08-14T08:51:08.000Z</time>
      </trkpt>
      <trkpt lat="49.90442" lon="4.81973">
        <ele>377</ele>
        <time>2021-08-14T08:51:09.000Z</time>
      </trkpt>
      <trkpt lat="49.90444" lon="4.8197">
        <ele>377</ele>
        <time>2021-08-14T08:51:10.000Z</time>
      </trkpt>
      <trkpt lat="49.90447" lon="4.81968">
        <ele>377</ele>
        <time>2021-08-14T08:51:11.000Z</time>
      </trkpt>
      <trkpt lat="49.90449" lon="4.81965">
        <ele>377</ele>
        <time>2021-08-14T08:51:12.000Z</time>
      </trkpt>
      <trkpt lat="49.90451" lon="4.81963">
        <ele>377</ele>
        <time>2021-08-14T08:51:13.000Z</time>
      </trkpt>
      <trkpt lat="49.90454" lon="4.8196">
        <ele>377</ele>
        <time>2021-08-14T08:51:14.000Z</time>
      </trkpt>
      <trkpt lat="49.90457" lon="4.81958">
        <ele>377</ele>
        <time>2021-08-14T08:51:15.000Z</time>
      </trkpt>
      <trkpt lat="49.90459" lon="4.81955">
        <ele>378</ele>
        <time>2021-08-14T08:51:16.000Z</time>
      </trkpt>
      <trkpt lat="49.90459" lon="4.81955">
        <ele>378</ele>
        <time>2021-08-14T08:51:17.000Z</time>
      </trkpt>
      <trkpt lat="49.90465" lon="4.81949">
        <ele>378</ele>
        <time>2021-08-14T08:51:18.000Z</time>
      </trkpt>
      <trkpt lat="49.90468" lon="4.81946">
        <ele>378</ele>
        <time>2021-08-14T08:51:19.000Z</time>
      </trkpt>
      <trkpt lat="49.90471" lon="4.81943">
        <ele>378</ele>
        <time>2021-08-14T08:51:20.000Z</time>
      </trkpt>
      <trkpt lat="49.90474" lon="4.81939">
        <ele>378</ele>
        <time>2021-08-14T08:51:21.000Z</time>
      </trkpt>
      <trkpt lat="49.90476" lon="4.81936">
        <ele>378</ele>
        <time>2021-08-14T08:51:22.000Z</time>
      </trkpt>
      <trkpt lat="49.90476" lon="4.81936">
        <ele>378</ele>
        <time>2021-08-14T08:51:23.000Z</time>
      </trkpt>
      <trkpt lat="49.90482" lon="4.8193">
        <ele>379</ele>
        <time>2021-08-14T08:51:24.000Z</time>
      </trkpt>
      <trkpt lat="49.90484" lon="4.81928">
        <ele>379</ele>
        <time>2021-08-14T08:51:25.000Z</time>
      </trkpt>
      <trkpt lat="49.90486" lon="4.81925">
        <ele>379</ele>
        <time>2021-08-14T08:51:26.000Z</time>
      </trkpt>
      <trkpt lat="49.90487" lon="4.81924">
        <ele>379</ele>
        <time>2021-08-14T08:51:27.000Z</time>
      </trkpt>
      <trkpt lat="49.90488" lon="4.81922">
        <ele>379</ele>
        <time>2021-08-14T08:51:28.000Z</time>
      </trkpt>
      <trkpt lat="49.9049" lon="4.81921">
        <ele>379</ele>
        <time>2021-08-14T08:51:29.000Z</time>
      </trkpt>
      <trkpt lat="49.9049" lon="4.81919">
        <ele>380</ele>
        <time>2021-08-14T08:51:30.000Z</time>
      </trkpt>
      <trkpt lat="49.90492" lon="4.81917">
        <ele>380</ele>
        <time>2021-08-14T08:51:31.000Z</time>
      </trkpt>
      <trkpt lat="49.90493" lon="4.81916">
        <ele>380</ele>
        <time>2021-08-14T08:51:32.000Z</time>
      </trkpt>
      <trkpt lat="49.90493" lon="4.81916">
        <ele>380</ele>
        <time>2021-08-14T08:51:33.000Z</time>
      </trkpt>
      <trkpt lat="49.90494" lon="4.81914">
        <ele>380</ele>
        <time>2021-08-14T08:51:34.000Z</time>
      </trkpt>
      <trkpt lat="49.90498" lon="4.81909">
        <ele>380</ele>
        <time>2021-08-14T08:51:35.000Z</time>
      </trkpt>
      <trkpt lat="49.905" lon="4.81906">
        <ele>381</ele>
        <time>2021-08-14T08:51:36.000Z</time>
      </trkpt>
      <trkpt lat="49.90502" lon="4.81904">
        <ele>381</ele>
        <time>2021-08-14T08:51:37.000Z</time>
      </trkpt>
      <trkpt lat="49.90505" lon="4.81901">
        <ele>381</ele>
        <time>2021-08-14T08:51:38.000Z</time>
      </trkpt>
      <trkpt lat="49.90507" lon="4.81899">
        <ele>381</ele>
        <time>2021-08-14T08:51:39.000Z</time>
      </trkpt>
      <trkpt lat="49.90509" lon="4.81895">
        <ele>381</ele>
        <time>2021-08-14T08:51:40.000Z</time>
      </trkpt>
      <trkpt lat="49.90512" lon="4.81892">
        <ele>381</ele>
        <time>2021-08-14T08:51:41.000Z</time>
      </trkpt>
      <trkpt lat="49.90512" lon="4.81892">
        <ele>381</ele>
        <time>2021-08-14T08:51:42.000Z</time>
      </trkpt>
      <trkpt lat="49.90517" lon="4.81885">
        <ele>382</ele>
        <time>2021-08-14T08:51:43.000Z</time>
      </trkpt>
      <trkpt lat="49.9052" lon="4.81882">
        <ele>382</ele>
        <time>2021-08-14T08:51:44.000Z</time>
      </trkpt>
      <trkpt lat="49.90522" lon="4.81879">
        <ele>382</ele>
        <time>2021-08-14T08:51:45.000Z</time>
      </trkpt>
      <trkpt lat="49.90524" lon="4.81875">
        <ele>382</ele>
        <time>2021-08-14T08:51:46.000Z</time>
      </trkpt>
      <trkpt lat="49.90526" lon="4.81872">
        <ele>382</ele>
        <time>2021-08-14T08:51:47.000Z</time>
      </trkpt>
      <trkpt lat="49.90528" lon="4.81869">
        <ele>382</ele>
        <time>2021-08-14T08:51:48.000Z</time>
      </trkpt>
      <trkpt lat="49.90529" lon="4.81865">
        <ele>383</ele>
        <time>2021-08-14T08:51:49.000Z</time>
      </trkpt>
      <trkpt lat="49.9053" lon="4.81861">
        <ele>383</ele>
        <time>2021-08-14T08:51:50.000Z</time>
      </trkpt>
      <trkpt lat="49.9053" lon="4.81856">
        <ele>383</ele>
        <time>2021-08-14T08:51:51.000Z</time>
      </trkpt>
      <trkpt lat="49.9053" lon="4.81852">
        <ele>383</ele>
        <time>2021-08-14T08:51:52.000Z</time>
      </trkpt>
      <trkpt lat="49.90529" lon="4.81846">
        <ele>383</ele>
        <time>2021-08-14T08:51:53.000Z</time>
      </trkpt>
      <trkpt lat="49.90529" lon="4.81841">
        <ele>384</ele>
        <time>2021-08-14T08:51:54.000Z</time>
      </trkpt>
      <trkpt lat="49.90529" lon="4.81837">
        <ele>384</ele>
        <time>2021-08-14T08:51:55.000Z</time>
      </trkpt>
      <trkpt lat="49.90528" lon="4.81833">
        <ele>384</ele>
        <time>2021-08-14T08:51:56.000Z</time>
      </trkpt>
      <trkpt lat="49.90528" lon="4.81833">
        <ele>384</ele>
        <time>2021-08-14T08:51:57.000Z</time>
      </trkpt>
      <trkpt lat="49.90526" lon="4.81823">
        <ele>385</ele>
        <time>2021-08-14T08:51:58.000Z</time>
      </trkpt>
      <trkpt lat="49.90526" lon="4.81823">
        <ele>385</ele>
        <time>2021-08-14T08:51:59.000Z</time>
      </trkpt>
      <trkpt lat="49.90525" lon="4.81812">
        <ele>385</ele>
        <time>2021-08-14T08:52:00.000Z</time>
      </trkpt>
      <trkpt lat="49.90524" lon="4.81807">
        <ele>385</ele>
        <time>2021-08-14T08:52:01.000Z</time>
      </trkpt>
      <trkpt lat="49.90524" lon="4.81801">
        <ele>385</ele>
        <time>2021-08-14T08:52:02.000Z</time>
      </trkpt>
      <trkpt lat="49.90523" lon="4.81795">
        <ele>385</ele>
        <time>2021-08-14T08:52:03.000Z</time>
      </trkpt>
      <trkpt lat="49.90523" lon="4.81789">
        <ele>385</ele>
        <time>2021-08-14T08:52:04.000Z</time>
      </trkpt>
      <trkpt lat="49.90522" lon="4.81783">
        <ele>385</ele>
        <time>2021-08-14T08:52:05.000Z</time>
      </trkpt>
      <trkpt lat="49.90521" lon="4.81776">
        <ele>385</ele>
        <time>2021-08-14T08:52:06.000Z</time>
      </trkpt>
      <trkpt lat="49.90521" lon="4.81769">
        <ele>385</ele>
        <time>2021-08-14T08:52:07.000Z</time>
      </trkpt>
      <trkpt lat="49.9052" lon="4.81762">
        <ele>385</ele>
        <time>2021-08-14T08:52:08.000Z</time>
      </trkpt>
      <trkpt lat="49.90519" lon="4.81755">
        <ele>385</ele>
        <time>2021-08-14T08:52:09.000Z</time>
      </trkpt>
      <trkpt lat="49.90519" lon="4.81747">
        <ele>385</ele>
        <time>2021-08-14T08:52:10.000Z</time>
      </trkpt>
      <trkpt lat="49.90518" lon="4.8174">
        <ele>385</ele>
        <time>2021-08-14T08:52:11.000Z</time>
      </trkpt>
      <trkpt lat="49.90517" lon="4.81731">
        <ele>384</ele>
        <time>2021-08-14T08:52:12.000Z</time>
      </trkpt>
      <trkpt lat="49.90517" lon="4.81722">
        <ele>384</ele>
        <time>2021-08-14T08:52:13.000Z</time>
      </trkpt>
      <trkpt lat="49.90516" lon="4.81713">
        <ele>384</ele>
        <time>2021-08-14T08:52:14.000Z</time>
      </trkpt>
      <trkpt lat="49.90516" lon="4.81703">
        <ele>384</ele>
        <time>2021-08-14T08:52:15.000Z</time>
      </trkpt>
      <trkpt lat="49.90516" lon="4.81694">
        <ele>383</ele>
        <time>2021-08-14T08:52:16.000Z</time>
      </trkpt>
      <trkpt lat="49.90516" lon="4.81685">
        <ele>383</ele>
        <time>2021-08-14T08:52:17.000Z</time>
      </trkpt>
      <trkpt lat="49.90516" lon="4.81676">
        <ele>383</ele>
        <time>2021-08-14T08:52:18.000Z</time>
      </trkpt>
      <trkpt lat="49.90516" lon="4.81668">
        <ele>383</ele>
        <time>2021-08-14T08:52:19.000Z</time>
      </trkpt>
      <trkpt lat="49.90516" lon="4.81659">
        <ele>383</ele>
        <time>2021-08-14T08:52:20.000Z</time>
      </trkpt>
      <trkpt lat="49.90517" lon="4.8165">
        <ele>382</ele>
        <time>2021-08-14T08:52:21.000Z</time>
      </trkpt>
      <trkpt lat="49.90517" lon="4.81642">
        <ele>382</ele>
        <time>2021-08-14T08:52:22.000Z</time>
      </trkpt>
      <trkpt lat="49.90518" lon="4.81634">
        <ele>382</ele>
        <time>2021-08-14T08:52:23.000Z</time>
      </trkpt>
      <trkpt lat="49.90518" lon="4.81625">
        <ele>382</ele>
        <time>2021-08-14T08:52:24.000Z</time>
      </trkpt>
      <trkpt lat="49.90518" lon="4.81617">
        <ele>382</ele>
        <time>2021-08-14T08:52:25.000Z</time>
      </trkpt>
      <trkpt lat="49.90519" lon="4.81609">
        <ele>382</ele>
        <time>2021-08-14T08:52:26.000Z</time>
      </trkpt>
      <trkpt lat="49.90521" lon="4.81601">
        <ele>382</ele>
        <time>2021-08-14T08:52:27.000Z</time>
      </trkpt>
      <trkpt lat="49.90521" lon="4.81592">
        <ele>382</ele>
        <time>2021-08-14T08:52:28.000Z</time>
      </trkpt>
      <trkpt lat="49.90522" lon="4.81584">
        <ele>382</ele>
        <time>2021-08-14T08:52:29.000Z</time>
      </trkpt>
      <trkpt lat="49.90524" lon="4.81577">
        <ele>382</ele>
        <time>2021-08-14T08:52:30.000Z</time>
      </trkpt>
      <trkpt lat="49.90526" lon="4.8157">
        <ele>382</ele>
        <time>2021-08-14T08:52:31.000Z</time>
      </trkpt>
      <trkpt lat="49.90527" lon="4.81563">
        <ele>382</ele>
        <time>2021-08-14T08:52:32.000Z</time>
      </trkpt>
      <trkpt lat="49.90528" lon="4.81557">
        <ele>382</ele>
        <time>2021-08-14T08:52:33.000Z</time>
      </trkpt>
      <trkpt lat="49.90528" lon="4.81553">
        <ele>382</ele>
        <time>2021-08-14T08:52:34.000Z</time>
      </trkpt>
      <trkpt lat="49.90529" lon="4.81551">
        <ele>382</ele>
        <time>2021-08-14T08:52:35.000Z</time>
      </trkpt>
      <trkpt lat="49.90529" lon="4.81549">
        <ele>382</ele>
        <time>2021-08-14T08:52:36.000Z</time>
      </trkpt>
      <trkpt lat="49.90529" lon="4.81548">
        <ele>382</ele>
        <time>2021-08-14T08:52:37.000Z</time>
      </trkpt>
      <trkpt lat="49.90531" lon="4.81548">
        <ele>382</ele>
        <time>2021-08-14T08:52:38.000Z</time>
      </trkpt>
      <trkpt lat="49.90531" lon="4.81546">
        <ele>382</ele>
        <time>2021-08-14T08:52:39.000Z</time>
      </trkpt>
      <trkpt lat="49.90532" lon="4.81545">
        <ele>382</ele>
        <time>2021-08-14T08:52:40.000Z</time>
      </trkpt>
      <trkpt lat="49.90532" lon="4.81545">
        <ele>382</ele>
        <time>2021-08-14T08:52:41.000Z</time>
      </trkpt>
      <trkpt lat="49.90533" lon="4.81544">
        <ele>382</ele>
        <time>2021-08-14T08:52:42.000Z</time>
      </trkpt>
      <trkpt lat="49.90533" lon="4.81543">
        <ele>383</ele>
        <time>2021-08-14T08:52:43.000Z</time>
      </trkpt>
      <trkpt lat="49.90533" lon="4.81541">
        <ele>383</ele>
        <time>2021-08-14T08:52:44.000Z</time>
      </trkpt>
      <trkpt lat="49.90533" lon="4.8154">
        <ele>383</ele>
        <time>2021-08-14T08:52:45.000Z</time>
      </trkpt>
      <trkpt lat="49.90533" lon="4.81537">
        <ele>383</ele>
        <time>2021-08-14T08:52:46.000Z</time>
      </trkpt>
      <trkpt lat="49.90534" lon="4.81533">
        <ele>384</ele>
        <time>2021-08-14T08:52:47.000Z</time>
      </trkpt>
      <trkpt lat="49.90534" lon="4.81533">
        <ele>384</ele>
        <time>2021-08-14T08:52:48.000Z</time>
      </trkpt>
      <trkpt lat="49.90536" lon="4.81526">
        <ele>384</ele>
        <time>2021-08-14T08:52:49.000Z</time>
      </trkpt>
      <trkpt lat="49.90538" lon="4.81522">
        <ele>384</ele>
        <time>2021-08-14T08:52:50.000Z</time>
      </trkpt>
      <trkpt lat="49.90539" lon="4.81517">
        <ele>384</ele>
        <time>2021-08-14T08:52:51.000Z</time>
      </trkpt>
      <trkpt lat="49.9054" lon="4.81512">
        <ele>385</ele>
        <time>2021-08-14T08:52:52.000Z</time>
      </trkpt>
      <trkpt lat="49.90541" lon="4.81508">
        <ele>385</ele>
        <time>2021-08-14T08:52:53.000Z</time>
      </trkpt>
      <trkpt lat="49.90542" lon="4.81503">
        <ele>385</ele>
        <time>2021-08-14T08:52:54.000Z</time>
      </trkpt>
      <trkpt lat="49.90543" lon="4.81498">
        <ele>385</ele>
        <time>2021-08-14T08:52:55.000Z</time>
      </trkpt>
      <trkpt lat="49.90543" lon="4.81492">
        <ele>385</ele>
        <time>2021-08-14T08:52:56.000Z</time>
      </trkpt>
      <trkpt lat="49.90544" lon="4.81487">
        <ele>386</ele>
        <time>2021-08-14T08:52:57.000Z</time>
      </trkpt>
      <trkpt lat="49.90544" lon="4.81482">
        <ele>386</ele>
        <time>2021-08-14T08:52:58.000Z</time>
      </trkpt>
      <trkpt lat="49.90546" lon="4.81477">
        <ele>386</ele>
        <time>2021-08-14T08:52:59.000Z</time>
      </trkpt>
      <trkpt lat="49.90547" lon="4.81473">
        <ele>386</ele>
        <time>2021-08-14T08:53:00.000Z</time>
      </trkpt>
      <trkpt lat="49.90547" lon="4.81473">
        <ele>386</ele>
        <time>2021-08-14T08:53:01.000Z</time>
      </trkpt>
      <trkpt lat="49.90549" lon="4.81465">
        <ele>386</ele>
        <time>2021-08-14T08:53:02.000Z</time>
      </trkpt>
      <trkpt lat="49.90549" lon="4.81465">
        <ele>386</ele>
        <time>2021-08-14T08:53:03.000Z</time>
      </trkpt>
      <trkpt lat="49.90551" lon="4.81456">
        <ele>386</ele>
        <time>2021-08-14T08:53:04.000Z</time>
      </trkpt>
      <trkpt lat="49.90552" lon="4.81452">
        <ele>386</ele>
        <time>2021-08-14T08:53:05.000Z</time>
      </trkpt>
      <trkpt lat="49.90552" lon="4.81447">
        <ele>386</ele>
        <time>2021-08-14T08:53:06.000Z</time>
      </trkpt>
      <trkpt lat="49.90552" lon="4.81447">
        <ele>386</ele>
        <time>2021-08-14T08:53:07.000Z</time>
      </trkpt>
      <trkpt lat="49.90553" lon="4.81439">
        <ele>387</ele>
        <time>2021-08-14T08:53:08.000Z</time>
      </trkpt>
      <trkpt lat="49.90553" lon="4.81439">
        <ele>387</ele>
        <time>2021-08-14T08:53:09.000Z</time>
      </trkpt>
      <trkpt lat="49.90554" lon="4.8143">
        <ele>387</ele>
        <time>2021-08-14T08:53:10.000Z</time>
      </trkpt>
      <trkpt lat="49.90555" lon="4.81425">
        <ele>387</ele>
        <time>2021-08-14T08:53:11.000Z</time>
      </trkpt>
      <trkpt lat="49.90555" lon="4.8142">
        <ele>387</ele>
        <time>2021-08-14T08:53:12.000Z</time>
      </trkpt>
      <trkpt lat="49.90556" lon="4.81415">
        <ele>387</ele>
        <time>2021-08-14T08:53:13.000Z</time>
      </trkpt>
      <trkpt lat="49.90556" lon="4.81411">
        <ele>387</ele>
        <time>2021-08-14T08:53:14.000Z</time>
      </trkpt>
      <trkpt lat="49.90556" lon="4.81406">
        <ele>388</ele>
        <time>2021-08-14T08:53:15.000Z</time>
      </trkpt>
      <trkpt lat="49.90556" lon="4.81401">
        <ele>388</ele>
        <time>2021-08-14T08:53:16.000Z</time>
      </trkpt>
      <trkpt lat="49.90556" lon="4.81396">
        <ele>388</ele>
        <time>2021-08-14T08:53:17.000Z</time>
      </trkpt>
      <trkpt lat="49.90557" lon="4.81391">
        <ele>388</ele>
        <time>2021-08-14T08:53:18.000Z</time>
      </trkpt>
      <trkpt lat="49.90557" lon="4.81391">
        <ele>388</ele>
        <time>2021-08-14T08:53:19.000Z</time>
      </trkpt>
      <trkpt lat="49.90557" lon="4.81381">
        <ele>388</ele>
        <time>2021-08-14T08:53:20.000Z</time>
      </trkpt>
      <trkpt lat="49.90557" lon="4.81376">
        <ele>389</ele>
        <time>2021-08-14T08:53:21.000Z</time>
      </trkpt>
      <trkpt lat="49.90557" lon="4.81371">
        <ele>389</ele>
        <time>2021-08-14T08:53:22.000Z</time>
      </trkpt>
      <trkpt lat="49.90557" lon="4.81371">
        <ele>389</ele>
        <time>2021-08-14T08:53:23.000Z</time>
      </trkpt>
      <trkpt lat="49.90557" lon="4.81362">
        <ele>389</ele>
        <time>2021-08-14T08:53:24.000Z</time>
      </trkpt>
      <trkpt lat="49.90557" lon="4.81358">
        <ele>389</ele>
        <time>2021-08-14T08:53:25.000Z</time>
      </trkpt>
      <trkpt lat="49.90557" lon="4.81354">
        <ele>389</ele>
        <time>2021-08-14T08:53:26.000Z</time>
      </trkpt>
      <trkpt lat="49.90557" lon="4.81349">
        <ele>389</ele>
        <time>2021-08-14T08:53:27.000Z</time>
      </trkpt>
      <trkpt lat="49.90557" lon="4.81346">
        <ele>389</ele>
        <time>2021-08-14T08:53:28.000Z</time>
      </trkpt>
      <trkpt lat="49.90558" lon="4.81343">
        <ele>389</ele>
        <time>2021-08-14T08:53:29.000Z</time>
      </trkpt>
      <trkpt lat="49.90558" lon="4.81341">
        <ele>389</ele>
        <time>2021-08-14T08:53:30.000Z</time>
      </trkpt>
      <trkpt lat="49.90558" lon="4.81339">
        <ele>389</ele>
        <time>2021-08-14T08:53:31.000Z</time>
      </trkpt>
      <trkpt lat="49.90558" lon="4.81337">
        <ele>389</ele>
        <time>2021-08-14T08:53:32.000Z</time>
      </trkpt>
      <trkpt lat="49.90558" lon="4.81334">
        <ele>389</ele>
        <time>2021-08-14T08:53:33.000Z</time>
      </trkpt>
      <trkpt lat="49.90557" lon="4.81331">
        <ele>390</ele>
        <time>2021-08-14T08:53:34.000Z</time>
      </trkpt>
      <trkpt lat="49.90558" lon="4.81328">
        <ele>390</ele>
        <time>2021-08-14T08:53:35.000Z</time>
      </trkpt>
      <trkpt lat="49.90559" lon="4.81325">
        <ele>390</ele>
        <time>2021-08-14T08:53:36.000Z</time>
      </trkpt>
      <trkpt lat="49.90559" lon="4.81325">
        <ele>390</ele>
        <time>2021-08-14T08:53:37.000Z</time>
      </trkpt>
      <trkpt lat="49.90561" lon="4.81319">
        <ele>390</ele>
        <time>2021-08-14T08:53:38.000Z</time>
      </trkpt>
      <trkpt lat="49.90562" lon="4.81316">
        <ele>390</ele>
        <time>2021-08-14T08:53:39.000Z</time>
      </trkpt>
      <trkpt lat="49.90562" lon="4.81313">
        <ele>390</ele>
        <time>2021-08-14T08:53:40.000Z</time>
      </trkpt>
      <trkpt lat="49.90562" lon="4.8131">
        <ele>390</ele>
        <time>2021-08-14T08:53:41.000Z</time>
      </trkpt>
      <trkpt lat="49.90562" lon="4.81308">
        <ele>390</ele>
        <time>2021-08-14T08:53:42.000Z</time>
      </trkpt>
      <trkpt lat="49.90562" lon="4.81308">
        <ele>390</ele>
        <time>2021-08-14T08:53:43.000Z</time>
      </trkpt>
      <trkpt lat="49.90562" lon="4.81301">
        <ele>390</ele>
        <time>2021-08-14T08:53:44.000Z</time>
      </trkpt>
      <trkpt lat="49.90561" lon="4.81297">
        <ele>390</ele>
        <time>2021-08-14T08:53:45.000Z</time>
      </trkpt>
      <trkpt lat="49.90561" lon="4.81297">
        <ele>390</ele>
        <time>2021-08-14T08:53:46.000Z</time>
      </trkpt>
      <trkpt lat="49.9056" lon="4.8129">
        <ele>391</ele>
        <time>2021-08-14T08:53:47.000Z</time>
      </trkpt>
      <trkpt lat="49.9056" lon="4.81287">
        <ele>391</ele>
        <time>2021-08-14T08:53:48.000Z</time>
      </trkpt>
      <trkpt lat="49.9056" lon="4.81287">
        <ele>391</ele>
        <time>2021-08-14T08:53:49.000Z</time>
      </trkpt>
      <trkpt lat="49.9056" lon="4.81282">
        <ele>392</ele>
        <time>2021-08-14T08:53:50.000Z</time>
      </trkpt>
      <trkpt lat="49.9056" lon="4.81279">
        <ele>392</ele>
        <time>2021-08-14T08:53:51.000Z</time>
      </trkpt>
      <trkpt lat="49.9056" lon="4.81277">
        <ele>392</ele>
        <time>2021-08-14T08:53:52.000Z</time>
      </trkpt>
      <trkpt lat="49.9056" lon="4.81273">
        <ele>392</ele>
        <time>2021-08-14T08:53:53.000Z</time>
      </trkpt>
      <trkpt lat="49.9056" lon="4.8127">
        <ele>393</ele>
        <time>2021-08-14T08:53:54.000Z</time>
      </trkpt>
      <trkpt lat="49.9056" lon="4.8127">
        <ele>393</ele>
        <time>2021-08-14T08:53:55.000Z</time>
      </trkpt>
      <trkpt lat="49.90559" lon="4.81262">
        <ele>393</ele>
        <time>2021-08-14T08:53:56.000Z</time>
      </trkpt>
      <trkpt lat="49.90559" lon="4.81258">
        <ele>393</ele>
        <time>2021-08-14T08:53:57.000Z</time>
      </trkpt>
      <trkpt lat="49.90558" lon="4.81253">
        <ele>394</ele>
        <time>2021-08-14T08:53:58.000Z</time>
      </trkpt>
      <trkpt lat="49.90558" lon="4.8125">
        <ele>394</ele>
        <time>2021-08-14T08:53:59.000Z</time>
      </trkpt>
      <trkpt lat="49.90557" lon="4.81246">
        <ele>394</ele>
        <time>2021-08-14T08:54:00.000Z</time>
      </trkpt>
      <trkpt lat="49.90556" lon="4.81243">
        <ele>394</ele>
        <time>2021-08-14T08:54:01.000Z</time>
      </trkpt>
      <trkpt lat="49.90556" lon="4.8124">
        <ele>394</ele>
        <time>2021-08-14T08:54:02.000Z</time>
      </trkpt>
      <trkpt lat="49.90556" lon="4.8124">
        <ele>394</ele>
        <time>2021-08-14T08:54:03.000Z</time>
      </trkpt>
      <trkpt lat="49.90555" lon="4.81233">
        <ele>395</ele>
        <time>2021-08-14T08:54:04.000Z</time>
      </trkpt>
      <trkpt lat="49.90555" lon="4.8123">
        <ele>395</ele>
        <time>2021-08-14T08:54:05.000Z</time>
      </trkpt>
      <trkpt lat="49.90555" lon="4.81227">
        <ele>395</ele>
        <time>2021-08-14T08:54:06.000Z</time>
      </trkpt>
      <trkpt lat="49.90555" lon="4.81224">
        <ele>396</ele>
        <time>2021-08-14T08:54:07.000Z</time>
      </trkpt>
      <trkpt lat="49.90554" lon="4.8122">
        <ele>396</ele>
        <time>2021-08-14T08:54:08.000Z</time>
      </trkpt>
      <trkpt lat="49.90554" lon="4.8122">
        <ele>396</ele>
        <time>2021-08-14T08:54:09.000Z</time>
      </trkpt>
      <trkpt lat="49.90554" lon="4.81214">
        <ele>396</ele>
        <time>2021-08-14T08:54:10.000Z</time>
      </trkpt>
      <trkpt lat="49.90553" lon="4.81211">
        <ele>396</ele>
        <time>2021-08-14T08:54:11.000Z</time>
      </trkpt>
      <trkpt lat="49.90553" lon="4.81208">
        <ele>396</ele>
        <time>2021-08-14T08:54:12.000Z</time>
      </trkpt>
      <trkpt lat="49.90554" lon="4.81205">
        <ele>396</ele>
        <time>2021-08-14T08:54:13.000Z</time>
      </trkpt>
      <trkpt lat="49.90553" lon="4.81201">
        <ele>397</ele>
        <time>2021-08-14T08:54:14.000Z</time>
      </trkpt>
      <trkpt lat="49.90553" lon="4.81201">
        <ele>397</ele>
        <time>2021-08-14T08:54:15.000Z</time>
      </trkpt>
      <trkpt lat="49.90553" lon="4.81193">
        <ele>397</ele>
        <time>2021-08-14T08:54:16.000Z</time>
      </trkpt>
      <trkpt lat="49.90553" lon="4.81189">
        <ele>397</ele>
        <time>2021-08-14T08:54:17.000Z</time>
      </trkpt>
      <trkpt lat="49.90552" lon="4.81184">
        <ele>397</ele>
        <time>2021-08-14T08:54:18.000Z</time>
      </trkpt>
      <trkpt lat="49.90552" lon="4.81184">
        <ele>397</ele>
        <time>2021-08-14T08:54:19.000Z</time>
      </trkpt>
      <trkpt lat="49.90551" lon="4.81175">
        <ele>397</ele>
        <time>2021-08-14T08:54:20.000Z</time>
      </trkpt>
      <trkpt lat="49.90551" lon="4.81175">
        <ele>397</ele>
        <time>2021-08-14T08:54:21.000Z</time>
      </trkpt>
      <trkpt lat="49.9055" lon="4.8117">
        <ele>397</ele>
        <time>2021-08-14T08:54:22.000Z</time>
      </trkpt>
      <trkpt lat="49.9055" lon="4.81162">
        <ele>398</ele>
        <time>2021-08-14T08:54:23.000Z</time>
      </trkpt>
      <trkpt lat="49.9055" lon="4.81157">
        <ele>398</ele>
        <time>2021-08-14T08:54:24.000Z</time>
      </trkpt>
      <trkpt lat="49.90549" lon="4.81153">
        <ele>398</ele>
        <time>2021-08-14T08:54:25.000Z</time>
      </trkpt>
      <trkpt lat="49.90549" lon="4.81149">
        <ele>398</ele>
        <time>2021-08-14T08:54:26.000Z</time>
      </trkpt>
      <trkpt lat="49.90549" lon="4.81143">
        <ele>398</ele>
        <time>2021-08-14T08:54:27.000Z</time>
      </trkpt>
      <trkpt lat="49.90549" lon="4.81143">
        <ele>398</ele>
        <time>2021-08-14T08:54:28.000Z</time>
      </trkpt>
      <trkpt lat="49.90549" lon="4.81135">
        <ele>398</ele>
        <time>2021-08-14T08:54:29.000Z</time>
      </trkpt>
      <trkpt lat="49.90549" lon="4.81131">
        <ele>398</ele>
        <time>2021-08-14T08:54:30.000Z</time>
      </trkpt>
      <trkpt lat="49.90549" lon="4.81128">
        <ele>398</ele>
        <time>2021-08-14T08:54:31.000Z</time>
      </trkpt>
      <trkpt lat="49.90549" lon="4.81124">
        <ele>399</ele>
        <time>2021-08-14T08:54:32.000Z</time>
      </trkpt>
      <trkpt lat="49.90548" lon="4.81119">
        <ele>399</ele>
        <time>2021-08-14T08:54:33.000Z</time>
      </trkpt>
      <trkpt lat="49.90548" lon="4.81115">
        <ele>399</ele>
        <time>2021-08-14T08:54:34.000Z</time>
      </trkpt>
      <trkpt lat="49.90548" lon="4.81115">
        <ele>399</ele>
        <time>2021-08-14T08:54:35.000Z</time>
      </trkpt>
      <trkpt lat="49.90548" lon="4.81111">
        <ele>399</ele>
        <time>2021-08-14T08:54:36.000Z</time>
      </trkpt>
      <trkpt lat="49.90548" lon="4.81104">
        <ele>399</ele>
        <time>2021-08-14T08:54:37.000Z</time>
      </trkpt>
      <trkpt lat="49.90548" lon="4.81104">
        <ele>399</ele>
        <time>2021-08-14T08:54:38.000Z</time>
      </trkpt>
      <trkpt lat="49.90548" lon="4.81094">
        <ele>399</ele>
        <time>2021-08-14T08:54:39.000Z</time>
      </trkpt>
      <trkpt lat="49.90548" lon="4.81089">
        <ele>400</ele>
        <time>2021-08-14T08:54:40.000Z</time>
      </trkpt>
      <trkpt lat="49.90548" lon="4.81085">
        <ele>400</ele>
        <time>2021-08-14T08:54:41.000Z</time>
      </trkpt>
      <trkpt lat="49.90548" lon="4.81081">
        <ele>400</ele>
        <time>2021-08-14T08:54:42.000Z</time>
      </trkpt>
      <trkpt lat="49.90548" lon="4.81081">
        <ele>400</ele>
        <time>2021-08-14T08:54:43.000Z</time>
      </trkpt>
      <trkpt lat="49.90548" lon="4.81072">
        <ele>400</ele>
        <time>2021-08-14T08:54:44.000Z</time>
      </trkpt>
      <trkpt lat="49.90548" lon="4.81072">
        <ele>400</ele>
        <time>2021-08-14T08:54:45.000Z</time>
      </trkpt>
      <trkpt lat="49.90547" lon="4.81068">
        <ele>400</ele>
        <time>2021-08-14T08:54:46.000Z</time>
      </trkpt>
      <trkpt lat="49.90546" lon="4.81056">
        <ele>400</ele>
        <time>2021-08-14T08:54:47.000Z</time>
      </trkpt>
      <trkpt lat="49.90545" lon="4.8105">
        <ele>400</ele>
        <time>2021-08-14T08:54:48.000Z</time>
      </trkpt>
      <trkpt lat="49.90545" lon="4.81045">
        <ele>400</ele>
        <time>2021-08-14T08:54:49.000Z</time>
      </trkpt>
      <trkpt lat="49.90544" lon="4.81039">
        <ele>401</ele>
        <time>2021-08-14T08:54:50.000Z</time>
      </trkpt>
      <trkpt lat="49.90543" lon="4.81033">
        <ele>401</ele>
        <time>2021-08-14T08:54:51.000Z</time>
      </trkpt>
      <trkpt lat="49.90543" lon="4.81033">
        <ele>401</ele>
        <time>2021-08-14T08:54:52.000Z</time>
      </trkpt>
      <trkpt lat="49.90542" lon="4.81027">
        <ele>401</ele>
        <time>2021-08-14T08:54:53.000Z</time>
      </trkpt>
      <trkpt lat="49.90542" lon="4.81014">
        <ele>401</ele>
        <time>2021-08-14T08:54:54.000Z</time>
      </trkpt>
      <trkpt lat="49.90541" lon="4.81007">
        <ele>401</ele>
        <time>2021-08-14T08:54:55.000Z</time>
      </trkpt>
      <trkpt lat="49.90541" lon="4.81">
        <ele>401</ele>
        <time>2021-08-14T08:54:56.000Z</time>
      </trkpt>
      <trkpt lat="49.90541" lon="4.80993">
        <ele>401</ele>
        <time>2021-08-14T08:54:57.000Z</time>
      </trkpt>
      <trkpt lat="49.90541" lon="4.80987">
        <ele>401</ele>
        <time>2021-08-14T08:54:58.000Z</time>
      </trkpt>
      <trkpt lat="49.90542" lon="4.80982">
        <ele>402</ele>
        <time>2021-08-14T08:54:59.000Z</time>
      </trkpt>
      <trkpt lat="49.90543" lon="4.80976">
        <ele>402</ele>
        <time>2021-08-14T08:55:00.000Z</time>
      </trkpt>
      <trkpt lat="49.90543" lon="4.80971">
        <ele>402</ele>
        <time>2021-08-14T08:55:01.000Z</time>
      </trkpt>
      <trkpt lat="49.90543" lon="4.80966">
        <ele>402</ele>
        <time>2021-08-14T08:55:02.000Z</time>
      </trkpt>
      <trkpt lat="49.90543" lon="4.80961">
        <ele>402</ele>
        <time>2021-08-14T08:55:03.000Z</time>
      </trkpt>
      <trkpt lat="49.90543" lon="4.80961">
        <ele>402</ele>
        <time>2021-08-14T08:55:04.000Z</time>
      </trkpt>
      <trkpt lat="49.90544" lon="4.80949">
        <ele>402</ele>
        <time>2021-08-14T08:55:05.000Z</time>
      </trkpt>
      <trkpt lat="49.90545" lon="4.80943">
        <ele>402</ele>
        <time>2021-08-14T08:55:06.000Z</time>
      </trkpt>
      <trkpt lat="49.90545" lon="4.80943">
        <ele>402</ele>
        <time>2021-08-14T08:55:07.000Z</time>
      </trkpt>
      <trkpt lat="49.90546" lon="4.80933">
        <ele>402</ele>
        <time>2021-08-14T08:55:08.000Z</time>
      </trkpt>
      <trkpt lat="49.90547" lon="4.80928">
        <ele>402</ele>
        <time>2021-08-14T08:55:09.000Z</time>
      </trkpt>
      <trkpt lat="49.90548" lon="4.80924">
        <ele>402</ele>
        <time>2021-08-14T08:55:10.000Z</time>
      </trkpt>
      <trkpt lat="49.90549" lon="4.80919">
        <ele>402</ele>
        <time>2021-08-14T08:55:11.000Z</time>
      </trkpt>
      <trkpt lat="49.90551" lon="4.80913">
        <ele>402</ele>
        <time>2021-08-14T08:55:12.000Z</time>
      </trkpt>
      <trkpt lat="49.90552" lon="4.80908">
        <ele>402</ele>
        <time>2021-08-14T08:55:13.000Z</time>
      </trkpt>
      <trkpt lat="49.90554" lon="4.80903">
        <ele>402</ele>
        <time>2021-08-14T08:55:14.000Z</time>
      </trkpt>
      <trkpt lat="49.90555" lon="4.80898">
        <ele>402</ele>
        <time>2021-08-14T08:55:15.000Z</time>
      </trkpt>
      <trkpt lat="49.90557" lon="4.80894">
        <ele>402</ele>
        <time>2021-08-14T08:55:16.000Z</time>
      </trkpt>
      <trkpt lat="49.90558" lon="4.8089">
        <ele>402</ele>
        <time>2021-08-14T08:55:17.000Z</time>
      </trkpt>
      <trkpt lat="49.90559" lon="4.80886">
        <ele>402</ele>
        <time>2021-08-14T08:55:18.000Z</time>
      </trkpt>
      <trkpt lat="49.90561" lon="4.80881">
        <ele>402</ele>
        <time>2021-08-14T08:55:19.000Z</time>
      </trkpt>
      <trkpt lat="49.90562" lon="4.80877">
        <ele>402</ele>
        <time>2021-08-14T08:55:20.000Z</time>
      </trkpt>
      <trkpt lat="49.90564" lon="4.80872">
        <ele>402</ele>
        <time>2021-08-14T08:55:21.000Z</time>
      </trkpt>
      <trkpt lat="49.90564" lon="4.80868">
        <ele>402</ele>
        <time>2021-08-14T08:55:22.000Z</time>
      </trkpt>
      <trkpt lat="49.90565" lon="4.80866">
        <ele>402</ele>
        <time>2021-08-14T08:55:23.000Z</time>
      </trkpt>
      <trkpt lat="49.90566" lon="4.80865">
        <ele>402</ele>
        <time>2021-08-14T08:55:24.000Z</time>
      </trkpt>
      <trkpt lat="49.90566" lon="4.80863">
        <ele>401</ele>
        <time>2021-08-14T08:55:25.000Z</time>
      </trkpt>
      <trkpt lat="49.90567" lon="4.80861">
        <ele>401</ele>
        <time>2021-08-14T08:55:26.000Z</time>
      </trkpt>
      <trkpt lat="49.90568" lon="4.8086">
        <ele>401</ele>
        <time>2021-08-14T08:55:27.000Z</time>
      </trkpt>
      <trkpt lat="49.90569" lon="4.80858">
        <ele>400</ele>
        <time>2021-08-14T08:55:28.000Z</time>
      </trkpt>
      <trkpt lat="49.90569" lon="4.80856">
        <ele>400</ele>
        <time>2021-08-14T08:55:29.000Z</time>
      </trkpt>
      <trkpt lat="49.9057" lon="4.80854">
        <ele>400</ele>
        <time>2021-08-14T08:55:30.000Z</time>
      </trkpt>
      <trkpt lat="49.9057" lon="4.80853">
        <ele>400</ele>
        <time>2021-08-14T08:55:31.000Z</time>
      </trkpt>
      <trkpt lat="49.90571" lon="4.80851">
        <ele>399</ele>
        <time>2021-08-14T08:55:32.000Z</time>
      </trkpt>
      <trkpt lat="49.90571" lon="4.80848">
        <ele>399</ele>
        <time>2021-08-14T08:55:33.000Z</time>
      </trkpt>
      <trkpt lat="49.90571" lon="4.80846">
        <ele>399</ele>
        <time>2021-08-14T08:55:34.000Z</time>
      </trkpt>
      <trkpt lat="49.90572" lon="4.80844">
        <ele>399</ele>
        <time>2021-08-14T08:55:35.000Z</time>
      </trkpt>
      <trkpt lat="49.90572" lon="4.80843">
        <ele>399</ele>
        <time>2021-08-14T08:55:36.000Z</time>
      </trkpt>
      <trkpt lat="49.90573" lon="4.80842">
        <ele>398</ele>
        <time>2021-08-14T08:55:37.000Z</time>
      </trkpt>
      <trkpt lat="49.90573" lon="4.80841">
        <ele>398</ele>
        <time>2021-08-14T08:55:38.000Z</time>
      </trkpt>
      <trkpt lat="49.90573" lon="4.8084">
        <ele>398</ele>
        <time>2021-08-14T08:55:39.000Z</time>
      </trkpt>
      <trkpt lat="49.90573" lon="4.80839">
        <ele>398</ele>
        <time>2021-08-14T08:55:40.000Z</time>
      </trkpt>
      <trkpt lat="49.90573" lon="4.80838">
        <ele>398</ele>
        <time>2021-08-14T08:55:41.000Z</time>
      </trkpt>
      <trkpt lat="49.90572" lon="4.80838">
        <ele>398</ele>
        <time>2021-08-14T08:55:42.000Z</time>
      </trkpt>
      <trkpt lat="49.90572" lon="4.80836">
        <ele>398</ele>
        <time>2021-08-14T08:55:43.000Z</time>
      </trkpt>
      <trkpt lat="49.90572" lon="4.80834">
        <ele>398</ele>
        <time>2021-08-14T08:55:44.000Z</time>
      </trkpt>
      <trkpt lat="49.90572" lon="4.80831">
        <ele>398</ele>
        <time>2021-08-14T08:55:45.000Z</time>
      </trkpt>
      <trkpt lat="49.90571" lon="4.80828">
        <ele>398</ele>
        <time>2021-08-14T08:55:46.000Z</time>
      </trkpt>
      <trkpt lat="49.90571" lon="4.80828">
        <ele>398</ele>
        <time>2021-08-14T08:55:47.000Z</time>
      </trkpt>
      <trkpt lat="49.90568" lon="4.80821">
        <ele>398</ele>
        <time>2021-08-14T08:55:48.000Z</time>
      </trkpt>
      <trkpt lat="49.90567" lon="4.80817">
        <ele>398</ele>
        <time>2021-08-14T08:55:49.000Z</time>
      </trkpt>
      <trkpt lat="49.90566" lon="4.80813">
        <ele>398</ele>
        <time>2021-08-14T08:55:50.000Z</time>
      </trkpt>
      <trkpt lat="49.90565" lon="4.80809">
        <ele>398</ele>
        <time>2021-08-14T08:55:51.000Z</time>
      </trkpt>
      <trkpt lat="49.90564" lon="4.80805">
        <ele>398</ele>
        <time>2021-08-14T08:55:52.000Z</time>
      </trkpt>
      <trkpt lat="49.90563" lon="4.80801">
        <ele>398</ele>
        <time>2021-08-14T08:55:53.000Z</time>
      </trkpt>
      <trkpt lat="49.90562" lon="4.80797">
        <ele>397</ele>
        <time>2021-08-14T08:55:54.000Z</time>
      </trkpt>
      <trkpt lat="49.90561" lon="4.80794">
        <ele>397</ele>
        <time>2021-08-14T08:55:55.000Z</time>
      </trkpt>
      <trkpt lat="49.9056" lon="4.80789">
        <ele>397</ele>
        <time>2021-08-14T08:55:56.000Z</time>
      </trkpt>
      <trkpt lat="49.9056" lon="4.80785">
        <ele>398</ele>
        <time>2021-08-14T08:55:57.000Z</time>
      </trkpt>
      <trkpt lat="49.90559" lon="4.80781">
        <ele>398</ele>
        <time>2021-08-14T08:55:58.000Z</time>
      </trkpt>
      <trkpt lat="49.90558" lon="4.80777">
        <ele>398</ele>
        <time>2021-08-14T08:55:59.000Z</time>
      </trkpt>
      <trkpt lat="49.90558" lon="4.80772">
        <ele>397</ele>
        <time>2021-08-14T08:56:00.000Z</time>
      </trkpt>
      <trkpt lat="49.90557" lon="4.80768">
        <ele>397</ele>
        <time>2021-08-14T08:56:01.000Z</time>
      </trkpt>
      <trkpt lat="49.90556" lon="4.80763">
        <ele>397</ele>
        <time>2021-08-14T08:56:02.000Z</time>
      </trkpt>
      <trkpt lat="49.90555" lon="4.80759">
        <ele>397</ele>
        <time>2021-08-14T08:56:03.000Z</time>
      </trkpt>
      <trkpt lat="49.90554" lon="4.80754">
        <ele>397</ele>
        <time>2021-08-14T08:56:04.000Z</time>
      </trkpt>
      <trkpt lat="49.90554" lon="4.80754">
        <ele>397</ele>
        <time>2021-08-14T08:56:05.000Z</time>
      </trkpt>
      <trkpt lat="49.90553" lon="4.80745">
        <ele>397</ele>
        <time>2021-08-14T08:56:06.000Z</time>
      </trkpt>
      <trkpt lat="49.90552" lon="4.80741">
        <ele>397</ele>
        <time>2021-08-14T08:56:07.000Z</time>
      </trkpt>
      <trkpt lat="49.90551" lon="4.80736">
        <ele>397</ele>
        <time>2021-08-14T08:56:08.000Z</time>
      </trkpt>
      <trkpt lat="49.90551" lon="4.80732">
        <ele>397</ele>
        <time>2021-08-14T08:56:09.000Z</time>
      </trkpt>
      <trkpt lat="49.90551" lon="4.80728">
        <ele>397</ele>
        <time>2021-08-14T08:56:10.000Z</time>
      </trkpt>
      <trkpt lat="49.90551" lon="4.80725">
        <ele>397</ele>
        <time>2021-08-14T08:56:11.000Z</time>
      </trkpt>
      <trkpt lat="49.9055" lon="4.80721">
        <ele>397</ele>
        <time>2021-08-14T08:56:12.000Z</time>
      </trkpt>
      <trkpt lat="49.90549" lon="4.80718">
        <ele>397</ele>
        <time>2021-08-14T08:56:13.000Z</time>
      </trkpt>
      <trkpt lat="49.90548" lon="4.80715">
        <ele>397</ele>
        <time>2021-08-14T08:56:14.000Z</time>
      </trkpt>
      <trkpt lat="49.90547" lon="4.80711">
        <ele>397</ele>
        <time>2021-08-14T08:56:15.000Z</time>
      </trkpt>
      <trkpt lat="49.90547" lon="4.80707">
        <ele>397</ele>
        <time>2021-08-14T08:56:16.000Z</time>
      </trkpt>
      <trkpt lat="49.90546" lon="4.80704">
        <ele>397</ele>
        <time>2021-08-14T08:56:17.000Z</time>
      </trkpt>
      <trkpt lat="49.90545" lon="4.80699">
        <ele>397</ele>
        <time>2021-08-14T08:56:18.000Z</time>
      </trkpt>
      <trkpt lat="49.90544" lon="4.80696">
        <ele>397</ele>
        <time>2021-08-14T08:56:19.000Z</time>
      </trkpt>
      <trkpt lat="49.90543" lon="4.80692">
        <ele>397</ele>
        <time>2021-08-14T08:56:20.000Z</time>
      </trkpt>
      <trkpt lat="49.90542" lon="4.80689">
        <ele>397</ele>
        <time>2021-08-14T08:56:21.000Z</time>
      </trkpt>
      <trkpt lat="49.90541" lon="4.80685">
        <ele>397</ele>
        <time>2021-08-14T08:56:22.000Z</time>
      </trkpt>
      <trkpt lat="49.9054" lon="4.80682">
        <ele>397</ele>
        <time>2021-08-14T08:56:23.000Z</time>
      </trkpt>
      <trkpt lat="49.9054" lon="4.80679">
        <ele>398</ele>
        <time>2021-08-14T08:56:24.000Z</time>
      </trkpt>
      <trkpt lat="49.9054" lon="4.80679">
        <ele>398</ele>
        <time>2021-08-14T08:56:25.000Z</time>
      </trkpt>
      <trkpt lat="49.90537" lon="4.80673">
        <ele>398</ele>
        <time>2021-08-14T08:56:26.000Z</time>
      </trkpt>
      <trkpt lat="49.90536" lon="4.80669">
        <ele>398</ele>
        <time>2021-08-14T08:56:27.000Z</time>
      </trkpt>
      <trkpt lat="49.90535" lon="4.80665">
        <ele>398</ele>
        <time>2021-08-14T08:56:28.000Z</time>
      </trkpt>
      <trkpt lat="49.90534" lon="4.80662">
        <ele>398</ele>
        <time>2021-08-14T08:56:29.000Z</time>
      </trkpt>
      <trkpt lat="49.90533" lon="4.80659">
        <ele>398</ele>
        <time>2021-08-14T08:56:30.000Z</time>
      </trkpt>
      <trkpt lat="49.90532" lon="4.80655">
        <ele>398</ele>
        <time>2021-08-14T08:56:31.000Z</time>
      </trkpt>
      <trkpt lat="49.90531" lon="4.80652">
        <ele>398</ele>
        <time>2021-08-14T08:56:32.000Z</time>
      </trkpt>
      <trkpt lat="49.9053" lon="4.80649">
        <ele>398</ele>
        <time>2021-08-14T08:56:33.000Z</time>
      </trkpt>
      <trkpt lat="49.90529" lon="4.80646">
        <ele>398</ele>
        <time>2021-08-14T08:56:34.000Z</time>
      </trkpt>
      <trkpt lat="49.90529" lon="4.80646">
        <ele>398</ele>
        <time>2021-08-14T08:56:35.000Z</time>
      </trkpt>
      <trkpt lat="49.90527" lon="4.80641">
        <ele>398</ele>
        <time>2021-08-14T08:56:36.000Z</time>
      </trkpt>
      <trkpt lat="49.90526" lon="4.80639">
        <ele>398</ele>
        <time>2021-08-14T08:56:37.000Z</time>
      </trkpt>
      <trkpt lat="49.90525" lon="4.80636">
        <ele>398</ele>
        <time>2021-08-14T08:56:38.000Z</time>
      </trkpt>
      <trkpt lat="49.90525" lon="4.80633">
        <ele>399</ele>
        <time>2021-08-14T08:56:39.000Z</time>
      </trkpt>
      <trkpt lat="49.90524" lon="4.80631">
        <ele>399</ele>
        <time>2021-08-14T08:56:40.000Z</time>
      </trkpt>
      <trkpt lat="49.90524" lon="4.80631">
        <ele>399</ele>
        <time>2021-08-14T08:56:41.000Z</time>
      </trkpt>
      <trkpt lat="49.90523" lon="4.80628">
        <ele>399</ele>
        <time>2021-08-14T08:56:42.000Z</time>
      </trkpt>
      <trkpt lat="49.9052" lon="4.80623">
        <ele>399</ele>
        <time>2021-08-14T08:56:43.000Z</time>
      </trkpt>
      <trkpt lat="49.90519" lon="4.8062">
        <ele>400</ele>
        <time>2021-08-14T08:56:44.000Z</time>
      </trkpt>
      <trkpt lat="49.90518" lon="4.80618">
        <ele>400</ele>
        <time>2021-08-14T08:56:45.000Z</time>
      </trkpt>
      <trkpt lat="49.90517" lon="4.80615">
        <ele>400</ele>
        <time>2021-08-14T08:56:46.000Z</time>
      </trkpt>
      <trkpt lat="49.90515" lon="4.80612">
        <ele>400</ele>
        <time>2021-08-14T08:56:47.000Z</time>
      </trkpt>
      <trkpt lat="49.90514" lon="4.80609">
        <ele>400</ele>
        <time>2021-08-14T08:56:48.000Z</time>
      </trkpt>
      <trkpt lat="49.90512" lon="4.80606">
        <ele>400</ele>
        <time>2021-08-14T08:56:49.000Z</time>
      </trkpt>
      <trkpt lat="49.90512" lon="4.80606">
        <ele>400</ele>
        <time>2021-08-14T08:56:50.000Z</time>
      </trkpt>
      <trkpt lat="49.9051" lon="4.806">
        <ele>400</ele>
        <time>2021-08-14T08:56:51.000Z</time>
      </trkpt>
      <trkpt lat="49.90509" lon="4.80597">
        <ele>401</ele>
        <time>2021-08-14T08:56:52.000Z</time>
      </trkpt>
      <trkpt lat="49.90508" lon="4.80594">
        <ele>401</ele>
        <time>2021-08-14T08:56:53.000Z</time>
      </trkpt>
      <trkpt lat="49.90507" lon="4.80591">
        <ele>401</ele>
        <time>2021-08-14T08:56:54.000Z</time>
      </trkpt>
      <trkpt lat="49.90506" lon="4.80588">
        <ele>401</ele>
        <time>2021-08-14T08:56:55.000Z</time>
      </trkpt>
      <trkpt lat="49.90505" lon="4.80585">
        <ele>401</ele>
        <time>2021-08-14T08:56:56.000Z</time>
      </trkpt>
      <trkpt lat="49.90504" lon="4.80582">
        <ele>401</ele>
        <time>2021-08-14T08:56:57.000Z</time>
      </trkpt>
      <trkpt lat="49.90503" lon="4.80579">
        <ele>401</ele>
        <time>2021-08-14T08:56:58.000Z</time>
      </trkpt>
      <trkpt lat="49.90502" lon="4.80575">
        <ele>402</ele>
        <time>2021-08-14T08:56:59.000Z</time>
      </trkpt>
      <trkpt lat="49.90502" lon="4.80575">
        <ele>402</ele>
        <time>2021-08-14T08:57:00.000Z</time>
      </trkpt>
      <trkpt lat="49.90499" lon="4.80569">
        <ele>402</ele>
        <time>2021-08-14T08:57:01.000Z</time>
      </trkpt>
      <trkpt lat="49.90497" lon="4.80565">
        <ele>402</ele>
        <time>2021-08-14T08:57:02.000Z</time>
      </trkpt>
      <trkpt lat="49.90495" lon="4.80562">
        <ele>402</ele>
        <time>2021-08-14T08:57:03.000Z</time>
      </trkpt>
      <trkpt lat="49.90494" lon="4.80559">
        <ele>403</ele>
        <time>2021-08-14T08:57:04.000Z</time>
      </trkpt>
      <trkpt lat="49.90493" lon="4.80555">
        <ele>403</ele>
        <time>2021-08-14T08:57:05.000Z</time>
      </trkpt>
      <trkpt lat="49.90492" lon="4.80551">
        <ele>403</ele>
        <time>2021-08-14T08:57:06.000Z</time>
      </trkpt>
      <trkpt lat="49.9049" lon="4.80548">
        <ele>403</ele>
        <time>2021-08-14T08:57:07.000Z</time>
      </trkpt>
      <trkpt lat="49.90489" lon="4.80544">
        <ele>403</ele>
        <time>2021-08-14T08:57:08.000Z</time>
      </trkpt>
      <trkpt lat="49.90488" lon="4.80541">
        <ele>403</ele>
        <time>2021-08-14T08:57:09.000Z</time>
      </trkpt>
      <trkpt lat="49.90486" lon="4.80537">
        <ele>403</ele>
        <time>2021-08-14T08:57:10.000Z</time>
      </trkpt>
      <trkpt lat="49.90485" lon="4.80534">
        <ele>404</ele>
        <time>2021-08-14T08:57:11.000Z</time>
      </trkpt>
      <trkpt lat="49.90483" lon="4.80531">
        <ele>404</ele>
        <time>2021-08-14T08:57:12.000Z</time>
      </trkpt>
      <trkpt lat="49.90482" lon="4.80528">
        <ele>404</ele>
        <time>2021-08-14T08:57:13.000Z</time>
      </trkpt>
      <trkpt lat="49.9048" lon="4.80525">
        <ele>404</ele>
        <time>2021-08-14T08:57:14.000Z</time>
      </trkpt>
      <trkpt lat="49.90479" lon="4.80522">
        <ele>404</ele>
        <time>2021-08-14T08:57:15.000Z</time>
      </trkpt>
      <trkpt lat="49.90479" lon="4.80522">
        <ele>404</ele>
        <time>2021-08-14T08:57:16.000Z</time>
      </trkpt>
      <trkpt lat="49.90477" lon="4.80515">
        <ele>405</ele>
        <time>2021-08-14T08:57:17.000Z</time>
      </trkpt>
      <trkpt lat="49.90476" lon="4.80512">
        <ele>405</ele>
        <time>2021-08-14T08:57:18.000Z</time>
      </trkpt>
      <trkpt lat="49.90476" lon="4.80512">
        <ele>405</ele>
        <time>2021-08-14T08:57:19.000Z</time>
      </trkpt>
      <trkpt lat="49.90475" lon="4.80506">
        <ele>405</ele>
        <time>2021-08-14T08:57:20.000Z</time>
      </trkpt>
      <trkpt lat="49.90474" lon="4.80502">
        <ele>405</ele>
        <time>2021-08-14T08:57:21.000Z</time>
      </trkpt>
      <trkpt lat="49.90473" lon="4.80499">
        <ele>405</ele>
        <time>2021-08-14T08:57:22.000Z</time>
      </trkpt>
      <trkpt lat="49.90473" lon="4.80497">
        <ele>405</ele>
        <time>2021-08-14T08:57:23.000Z</time>
      </trkpt>
      <trkpt lat="49.90472" lon="4.80494">
        <ele>405</ele>
        <time>2021-08-14T08:57:24.000Z</time>
      </trkpt>
      <trkpt lat="49.90471" lon="4.80491">
        <ele>406</ele>
        <time>2021-08-14T08:57:25.000Z</time>
      </trkpt>
      <trkpt lat="49.90471" lon="4.80491">
        <ele>406</ele>
        <time>2021-08-14T08:57:26.000Z</time>
      </trkpt>
      <trkpt lat="49.9047" lon="4.80485">
        <ele>406</ele>
        <time>2021-08-14T08:57:27.000Z</time>
      </trkpt>
      <trkpt lat="49.9047" lon="4.80485">
        <ele>406</ele>
        <time>2021-08-14T08:57:28.000Z</time>
      </trkpt>
      <trkpt lat="49.90468" lon="4.80479">
        <ele>406</ele>
        <time>2021-08-14T08:57:29.000Z</time>
      </trkpt>
      <trkpt lat="49.90467" lon="4.80476">
        <ele>406</ele>
        <time>2021-08-14T08:57:30.000Z</time>
      </trkpt>
      <trkpt lat="49.90466" lon="4.80474">
        <ele>406</ele>
        <time>2021-08-14T08:57:31.000Z</time>
      </trkpt>
      <trkpt lat="49.90464" lon="4.80471">
        <ele>406</ele>
        <time>2021-08-14T08:57:32.000Z</time>
      </trkpt>
      <trkpt lat="49.90464" lon="4.80468">
        <ele>406</ele>
        <time>2021-08-14T08:57:33.000Z</time>
      </trkpt>
      <trkpt lat="49.90463" lon="4.80465">
        <ele>406</ele>
        <time>2021-08-14T08:57:34.000Z</time>
      </trkpt>
      <trkpt lat="49.90462" lon="4.80461">
        <ele>406</ele>
        <time>2021-08-14T08:57:35.000Z</time>
      </trkpt>
      <trkpt lat="49.90462" lon="4.80461">
        <ele>406</ele>
        <time>2021-08-14T08:57:36.000Z</time>
      </trkpt>
      <trkpt lat="49.9046" lon="4.80454">
        <ele>407</ele>
        <time>2021-08-14T08:57:37.000Z</time>
      </trkpt>
      <trkpt lat="49.9046" lon="4.8045">
        <ele>407</ele>
        <time>2021-08-14T08:57:38.000Z</time>
      </trkpt>
      <trkpt lat="49.90459" lon="4.80446">
        <ele>407</ele>
        <time>2021-08-14T08:57:39.000Z</time>
      </trkpt>
      <trkpt lat="49.90459" lon="4.80442">
        <ele>407</ele>
        <time>2021-08-14T08:57:40.000Z</time>
      </trkpt>
      <trkpt lat="49.90458" lon="4.80439">
        <ele>407</ele>
        <time>2021-08-14T08:57:41.000Z</time>
      </trkpt>
      <trkpt lat="49.90457" lon="4.80435">
        <ele>407</ele>
        <time>2021-08-14T08:57:42.000Z</time>
      </trkpt>
      <trkpt lat="49.90456" lon="4.8043">
        <ele>407</ele>
        <time>2021-08-14T08:57:43.000Z</time>
      </trkpt>
      <trkpt lat="49.90454" lon="4.80426">
        <ele>407</ele>
        <time>2021-08-14T08:57:44.000Z</time>
      </trkpt>
      <trkpt lat="49.90454" lon="4.80426">
        <ele>407</ele>
        <time>2021-08-14T08:57:45.000Z</time>
      </trkpt>
      <trkpt lat="49.90452" lon="4.80417">
        <ele>408</ele>
        <time>2021-08-14T08:57:46.000Z</time>
      </trkpt>
      <trkpt lat="49.9045" lon="4.80413">
        <ele>408</ele>
        <time>2021-08-14T08:57:47.000Z</time>
      </trkpt>
      <trkpt lat="49.9045" lon="4.80413">
        <ele>408</ele>
        <time>2021-08-14T08:57:48.000Z</time>
      </trkpt>
      <trkpt lat="49.90448" lon="4.80406">
        <ele>408</ele>
        <time>2021-08-14T08:57:49.000Z</time>
      </trkpt>
      <trkpt lat="49.90447" lon="4.80402">
        <ele>408</ele>
        <time>2021-08-14T08:57:50.000Z</time>
      </trkpt>
      <trkpt lat="49.90446" lon="4.80398">
        <ele>408</ele>
        <time>2021-08-14T08:57:51.000Z</time>
      </trkpt>
      <trkpt lat="49.90445" lon="4.80393">
        <ele>408</ele>
        <time>2021-08-14T08:57:52.000Z</time>
      </trkpt>
      <trkpt lat="49.90444" lon="4.80389">
        <ele>408</ele>
        <time>2021-08-14T08:57:53.000Z</time>
      </trkpt>
      <trkpt lat="49.90443" lon="4.80385">
        <ele>408</ele>
        <time>2021-08-14T08:57:54.000Z</time>
      </trkpt>
      <trkpt lat="49.90442" lon="4.80382">
        <ele>408</ele>
        <time>2021-08-14T08:57:55.000Z</time>
      </trkpt>
      <trkpt lat="49.9044" lon="4.80379">
        <ele>408</ele>
        <time>2021-08-14T08:57:56.000Z</time>
      </trkpt>
      <trkpt lat="49.90439" lon="4.80376">
        <ele>408</ele>
        <time>2021-08-14T08:57:57.000Z</time>
      </trkpt>
      <trkpt lat="49.90438" lon="4.80373">
        <ele>408</ele>
        <time>2021-08-14T08:57:58.000Z</time>
      </trkpt>
      <trkpt lat="49.90437" lon="4.80369">
        <ele>408</ele>
        <time>2021-08-14T08:57:59.000Z</time>
      </trkpt>
      <trkpt lat="49.90436" lon="4.80365">
        <ele>408</ele>
        <time>2021-08-14T08:58:00.000Z</time>
      </trkpt>
      <trkpt lat="49.90435" lon="4.80361">
        <ele>408</ele>
        <time>2021-08-14T08:58:01.000Z</time>
      </trkpt>
      <trkpt lat="49.90435" lon="4.80361">
        <ele>408</ele>
        <time>2021-08-14T08:58:02.000Z</time>
      </trkpt>
      <trkpt lat="49.90432" lon="4.80354">
        <ele>409</ele>
        <time>2021-08-14T08:58:03.000Z</time>
      </trkpt>
      <trkpt lat="49.90431" lon="4.8035">
        <ele>409</ele>
        <time>2021-08-14T08:58:04.000Z</time>
      </trkpt>
      <trkpt lat="49.90431" lon="4.8035">
        <ele>409</ele>
        <time>2021-08-14T08:58:05.000Z</time>
      </trkpt>
      <trkpt lat="49.90428" lon="4.80343">
        <ele>409</ele>
        <time>2021-08-14T08:58:06.000Z</time>
      </trkpt>
      <trkpt lat="49.90426" lon="4.8034">
        <ele>409</ele>
        <time>2021-08-14T08:58:07.000Z</time>
      </trkpt>
      <trkpt lat="49.90424" lon="4.80336">
        <ele>409</ele>
        <time>2021-08-14T08:58:08.000Z</time>
      </trkpt>
      <trkpt lat="49.90424" lon="4.80336">
        <ele>409</ele>
        <time>2021-08-14T08:58:09.000Z</time>
      </trkpt>
      <trkpt lat="49.90421" lon="4.80329">
        <ele>409</ele>
        <time>2021-08-14T08:58:10.000Z</time>
      </trkpt>
      <trkpt lat="49.90419" lon="4.80326">
        <ele>409</ele>
        <time>2021-08-14T08:58:11.000Z</time>
      </trkpt>
      <trkpt lat="49.90417" lon="4.80323">
        <ele>409</ele>
        <time>2021-08-14T08:58:12.000Z</time>
      </trkpt>
      <trkpt lat="49.90416" lon="4.80319">
        <ele>410</ele>
        <time>2021-08-14T08:58:13.000Z</time>
      </trkpt>
      <trkpt lat="49.90416" lon="4.80319">
        <ele>410</ele>
        <time>2021-08-14T08:58:14.000Z</time>
      </trkpt>
      <trkpt lat="49.90414" lon="4.80315">
        <ele>410</ele>
        <time>2021-08-14T08:58:15.000Z</time>
      </trkpt>
      <trkpt lat="49.90413" lon="4.80312">
        <ele>410</ele>
        <time>2021-08-14T08:58:16.000Z</time>
      </trkpt>
      <trkpt lat="49.90411" lon="4.80309">
        <ele>410</ele>
        <time>2021-08-14T08:58:17.000Z</time>
      </trkpt>
      <trkpt lat="49.9041" lon="4.80305">
        <ele>410</ele>
        <time>2021-08-14T08:58:18.000Z</time>
      </trkpt>
      <trkpt lat="49.90408" lon="4.80301">
        <ele>410</ele>
        <time>2021-08-14T08:58:19.000Z</time>
      </trkpt>
      <trkpt lat="49.90407" lon="4.80297">
        <ele>410</ele>
        <time>2021-08-14T08:58:20.000Z</time>
      </trkpt>
      <trkpt lat="49.90406" lon="4.80294">
        <ele>410</ele>
        <time>2021-08-14T08:58:21.000Z</time>
      </trkpt>
      <trkpt lat="49.90404" lon="4.80291">
        <ele>411</ele>
        <time>2021-08-14T08:58:22.000Z</time>
      </trkpt>
      <trkpt lat="49.90404" lon="4.80287">
        <ele>411</ele>
        <time>2021-08-14T08:58:23.000Z</time>
      </trkpt>
      <trkpt lat="49.90402" lon="4.80281">
        <ele>411</ele>
        <time>2021-08-14T08:58:24.000Z</time>
      </trkpt>
      <trkpt lat="49.90402" lon="4.80281">
        <ele>411</ele>
        <time>2021-08-14T08:58:25.000Z</time>
      </trkpt>
      <trkpt lat="49.90401" lon="4.80278">
        <ele>411</ele>
        <time>2021-08-14T08:58:26.000Z</time>
      </trkpt>
      <trkpt lat="49.904" lon="4.80274">
        <ele>412</ele>
        <time>2021-08-14T08:58:27.000Z</time>
      </trkpt>
      <trkpt lat="49.90399" lon="4.80267">
        <ele>412</ele>
        <time>2021-08-14T08:58:28.000Z</time>
      </trkpt>
      <trkpt lat="49.90399" lon="4.80267">
        <ele>412</ele>
        <time>2021-08-14T08:58:29.000Z</time>
      </trkpt>
      <trkpt lat="49.90398" lon="4.80264">
        <ele>412</ele>
        <time>2021-08-14T08:58:30.000Z</time>
      </trkpt>
      <trkpt lat="49.90396" lon="4.80258">
        <ele>413</ele>
        <time>2021-08-14T08:58:31.000Z</time>
      </trkpt>
      <trkpt lat="49.90394" lon="4.80256">
        <ele>413</ele>
        <time>2021-08-14T08:58:32.000Z</time>
      </trkpt>
      <trkpt lat="49.90393" lon="4.80253">
        <ele>413</ele>
        <time>2021-08-14T08:58:33.000Z</time>
      </trkpt>
      <trkpt lat="49.90392" lon="4.80249">
        <ele>413</ele>
        <time>2021-08-14T08:58:34.000Z</time>
      </trkpt>
      <trkpt lat="49.90392" lon="4.80249">
        <ele>413</ele>
        <time>2021-08-14T08:58:35.000Z</time>
      </trkpt>
      <trkpt lat="49.9039" lon="4.80242">
        <ele>414</ele>
        <time>2021-08-14T08:58:36.000Z</time>
      </trkpt>
      <trkpt lat="49.90389" lon="4.80239">
        <ele>414</ele>
        <time>2021-08-14T08:58:37.000Z</time>
      </trkpt>
      <trkpt lat="49.90387" lon="4.80235">
        <ele>414</ele>
        <time>2021-08-14T08:58:38.000Z</time>
      </trkpt>
      <trkpt lat="49.90386" lon="4.80232">
        <ele>414</ele>
        <time>2021-08-14T08:58:39.000Z</time>
      </trkpt>
      <trkpt lat="49.90386" lon="4.80232">
        <ele>414</ele>
        <time>2021-08-14T08:58:40.000Z</time>
      </trkpt>
      <trkpt lat="49.90385" lon="4.80228">
        <ele>414</ele>
        <time>2021-08-14T08:58:41.000Z</time>
      </trkpt>
      <trkpt lat="49.90384" lon="4.80225">
        <ele>414</ele>
        <time>2021-08-14T08:58:42.000Z</time>
      </trkpt>
      <trkpt lat="49.90383" lon="4.80222">
        <ele>414</ele>
        <time>2021-08-14T08:58:43.000Z</time>
      </trkpt>
      <trkpt lat="49.90382" lon="4.80219">
        <ele>414</ele>
        <time>2021-08-14T08:58:44.000Z</time>
      </trkpt>
      <trkpt lat="49.90381" lon="4.80215">
        <ele>414</ele>
        <time>2021-08-14T08:58:45.000Z</time>
      </trkpt>
      <trkpt lat="49.9038" lon="4.80212">
        <ele>415</ele>
        <time>2021-08-14T08:58:46.000Z</time>
      </trkpt>
      <trkpt lat="49.90378" lon="4.80208">
        <ele>415</ele>
        <time>2021-08-14T08:58:47.000Z</time>
      </trkpt>
      <trkpt lat="49.90377" lon="4.80204">
        <ele>415</ele>
        <time>2021-08-14T08:58:48.000Z</time>
      </trkpt>
      <trkpt lat="49.90376" lon="4.80201">
        <ele>415</ele>
        <time>2021-08-14T08:58:49.000Z</time>
      </trkpt>
      <trkpt lat="49.90375" lon="4.80197">
        <ele>415</ele>
        <time>2021-08-14T08:58:50.000Z</time>
      </trkpt>
      <trkpt lat="49.90373" lon="4.80194">
        <ele>415</ele>
        <time>2021-08-14T08:58:51.000Z</time>
      </trkpt>
      <trkpt lat="49.90372" lon="4.8019">
        <ele>415</ele>
        <time>2021-08-14T08:58:52.000Z</time>
      </trkpt>
      <trkpt lat="49.90372" lon="4.80187">
        <ele>416</ele>
        <time>2021-08-14T08:58:53.000Z</time>
      </trkpt>
      <trkpt lat="49.90371" lon="4.80184">
        <ele>416</ele>
        <time>2021-08-14T08:58:54.000Z</time>
      </trkpt>
      <trkpt lat="49.9037" lon="4.8018">
        <ele>416</ele>
        <time>2021-08-14T08:58:55.000Z</time>
      </trkpt>
      <trkpt lat="49.90369" lon="4.80176">
        <ele>416</ele>
        <time>2021-08-14T08:58:56.000Z</time>
      </trkpt>
      <trkpt lat="49.90368" lon="4.80172">
        <ele>416</ele>
        <time>2021-08-14T08:58:57.000Z</time>
      </trkpt>
      <trkpt lat="49.90367" lon="4.80168">
        <ele>415</ele>
        <time>2021-08-14T08:58:58.000Z</time>
      </trkpt>
      <trkpt lat="49.90366" lon="4.80164">
        <ele>415</ele>
        <time>2021-08-14T08:58:59.000Z</time>
      </trkpt>
      <trkpt lat="49.90366" lon="4.8016">
        <ele>415</ele>
        <time>2021-08-14T08:59:00.000Z</time>
      </trkpt>
      <trkpt lat="49.90365" lon="4.80158">
        <ele>415</ele>
        <time>2021-08-14T08:59:01.000Z</time>
      </trkpt>
      <trkpt lat="49.90364" lon="4.80155">
        <ele>415</ele>
        <time>2021-08-14T08:59:02.000Z</time>
      </trkpt>
      <trkpt lat="49.90363" lon="4.80152">
        <ele>416</ele>
        <time>2021-08-14T08:59:03.000Z</time>
      </trkpt>
      <trkpt lat="49.90362" lon="4.80148">
        <ele>416</ele>
        <time>2021-08-14T08:59:04.000Z</time>
      </trkpt>
      <trkpt lat="49.90361" lon="4.80145">
        <ele>416</ele>
        <time>2021-08-14T08:59:05.000Z</time>
      </trkpt>
      <trkpt lat="49.9036" lon="4.80142">
        <ele>416</ele>
        <time>2021-08-14T08:59:06.000Z</time>
      </trkpt>
      <trkpt lat="49.9036" lon="4.80138">
        <ele>416</ele>
        <time>2021-08-14T08:59:07.000Z</time>
      </trkpt>
      <trkpt lat="49.90359" lon="4.80135">
        <ele>416</ele>
        <time>2021-08-14T08:59:08.000Z</time>
      </trkpt>
      <trkpt lat="49.90358" lon="4.8013">
        <ele>416</ele>
        <time>2021-08-14T08:59:09.000Z</time>
      </trkpt>
      <trkpt lat="49.90357" lon="4.80126">
        <ele>416</ele>
        <time>2021-08-14T08:59:10.000Z</time>
      </trkpt>
      <trkpt lat="49.90356" lon="4.80123">
        <ele>416</ele>
        <time>2021-08-14T08:59:11.000Z</time>
      </trkpt>
      <trkpt lat="49.90355" lon="4.80119">
        <ele>416</ele>
        <time>2021-08-14T08:59:12.000Z</time>
      </trkpt>
      <trkpt lat="49.90353" lon="4.80115">
        <ele>416</ele>
        <time>2021-08-14T08:59:13.000Z</time>
      </trkpt>
      <trkpt lat="49.90352" lon="4.80111">
        <ele>416</ele>
        <time>2021-08-14T08:59:14.000Z</time>
      </trkpt>
      <trkpt lat="49.90351" lon="4.80107">
        <ele>416</ele>
        <time>2021-08-14T08:59:15.000Z</time>
      </trkpt>
      <trkpt lat="49.9035" lon="4.80104">
        <ele>416</ele>
        <time>2021-08-14T08:59:16.000Z</time>
      </trkpt>
      <trkpt lat="49.90347" lon="4.80098">
        <ele>416</ele>
        <time>2021-08-14T08:59:17.000Z</time>
      </trkpt>
      <trkpt lat="49.90347" lon="4.80098">
        <ele>416</ele>
        <time>2021-08-14T08:59:18.000Z</time>
      </trkpt>
      <trkpt lat="49.90346" lon="4.80094">
        <ele>416</ele>
        <time>2021-08-14T08:59:19.000Z</time>
      </trkpt>
      <trkpt lat="49.90345" lon="4.80091">
        <ele>416</ele>
        <time>2021-08-14T08:59:20.000Z</time>
      </trkpt>
      <trkpt lat="49.90343" lon="4.80088">
        <ele>416</ele>
        <time>2021-08-14T08:59:21.000Z</time>
      </trkpt>
      <trkpt lat="49.90341" lon="4.80084">
        <ele>416</ele>
        <time>2021-08-14T08:59:22.000Z</time>
      </trkpt>
      <trkpt lat="49.9034" lon="4.80081">
        <ele>416</ele>
        <time>2021-08-14T08:59:23.000Z</time>
      </trkpt>
      <trkpt lat="49.90339" lon="4.80078">
        <ele>416</ele>
        <time>2021-08-14T08:59:24.000Z</time>
      </trkpt>
      <trkpt lat="49.90338" lon="4.80075">
        <ele>417</ele>
        <time>2021-08-14T08:59:25.000Z</time>
      </trkpt>
      <trkpt lat="49.90337" lon="4.80072">
        <ele>417</ele>
        <time>2021-08-14T08:59:26.000Z</time>
      </trkpt>
      <trkpt lat="49.90335" lon="4.80068">
        <ele>417</ele>
        <time>2021-08-14T08:59:27.000Z</time>
      </trkpt>
      <trkpt lat="49.90333" lon="4.80065">
        <ele>417</ele>
        <time>2021-08-14T08:59:28.000Z</time>
      </trkpt>
      <trkpt lat="49.90332" lon="4.80061">
        <ele>417</ele>
        <time>2021-08-14T08:59:29.000Z</time>
      </trkpt>
      <trkpt lat="49.9033" lon="4.80058">
        <ele>417</ele>
        <time>2021-08-14T08:59:30.000Z</time>
      </trkpt>
      <trkpt lat="49.90328" lon="4.80054">
        <ele>418</ele>
        <time>2021-08-14T08:59:31.000Z</time>
      </trkpt>
      <trkpt lat="49.90326" lon="4.8005">
        <ele>418</ele>
        <time>2021-08-14T08:59:32.000Z</time>
      </trkpt>
      <trkpt lat="49.90324" lon="4.80046">
        <ele>418</ele>
        <time>2021-08-14T08:59:33.000Z</time>
      </trkpt>
      <trkpt lat="49.90323" lon="4.80041">
        <ele>418</ele>
        <time>2021-08-14T08:59:34.000Z</time>
      </trkpt>
      <trkpt lat="49.90321" lon="4.80037">
        <ele>418</ele>
        <time>2021-08-14T08:59:35.000Z</time>
      </trkpt>
      <trkpt lat="49.9032" lon="4.80033">
        <ele>418</ele>
        <time>2021-08-14T08:59:36.000Z</time>
      </trkpt>
      <trkpt lat="49.90318" lon="4.80029">
        <ele>419</ele>
        <time>2021-08-14T08:59:37.000Z</time>
      </trkpt>
      <trkpt lat="49.90317" lon="4.80025">
        <ele>419</ele>
        <time>2021-08-14T08:59:38.000Z</time>
      </trkpt>
      <trkpt lat="49.90316" lon="4.80022">
        <ele>419</ele>
        <time>2021-08-14T08:59:39.000Z</time>
      </trkpt>
      <trkpt lat="49.90315" lon="4.80018">
        <ele>419</ele>
        <time>2021-08-14T08:59:40.000Z</time>
      </trkpt>
      <trkpt lat="49.90314" lon="4.80014">
        <ele>419</ele>
        <time>2021-08-14T08:59:41.000Z</time>
      </trkpt>
      <trkpt lat="49.90312" lon="4.80009">
        <ele>419</ele>
        <time>2021-08-14T08:59:42.000Z</time>
      </trkpt>
      <trkpt lat="49.90311" lon="4.80005">
        <ele>420</ele>
        <time>2021-08-14T08:59:43.000Z</time>
      </trkpt>
      <trkpt lat="49.9031" lon="4.80001">
        <ele>420</ele>
        <time>2021-08-14T08:59:44.000Z</time>
      </trkpt>
      <trkpt lat="49.90309" lon="4.79997">
        <ele>420</ele>
        <time>2021-08-14T08:59:45.000Z</time>
      </trkpt>
      <trkpt lat="49.90308" lon="4.79992">
        <ele>420</ele>
        <time>2021-08-14T08:59:46.000Z</time>
      </trkpt>
      <trkpt lat="49.90307" lon="4.79988">
        <ele>420</ele>
        <time>2021-08-14T08:59:47.000Z</time>
      </trkpt>
      <trkpt lat="49.90306" lon="4.79984">
        <ele>420</ele>
        <time>2021-08-14T08:59:48.000Z</time>
      </trkpt>
      <trkpt lat="49.90305" lon="4.7998">
        <ele>420</ele>
        <time>2021-08-14T08:59:49.000Z</time>
      </trkpt>
      <trkpt lat="49.90304" lon="4.79976">
        <ele>420</ele>
        <time>2021-08-14T08:59:50.000Z</time>
      </trkpt>
      <trkpt lat="49.90303" lon="4.79971">
        <ele>420</ele>
        <time>2021-08-14T08:59:51.000Z</time>
      </trkpt>
      <trkpt lat="49.90302" lon="4.79967">
        <ele>420</ele>
        <time>2021-08-14T08:59:52.000Z</time>
      </trkpt>
      <trkpt lat="49.903" lon="4.79962">
        <ele>420</ele>
        <time>2021-08-14T08:59:53.000Z</time>
      </trkpt>
      <trkpt lat="49.90299" lon="4.79957">
        <ele>420</ele>
        <time>2021-08-14T08:59:54.000Z</time>
      </trkpt>
      <trkpt lat="49.90298" lon="4.79952">
        <ele>420</ele>
        <time>2021-08-14T08:59:55.000Z</time>
      </trkpt>
      <trkpt lat="49.90296" lon="4.79948">
        <ele>420</ele>
        <time>2021-08-14T08:59:56.000Z</time>
      </trkpt>
      <trkpt lat="49.90295" lon="4.79943">
        <ele>420</ele>
        <time>2021-08-14T08:59:57.000Z</time>
      </trkpt>
      <trkpt lat="49.90295" lon="4.79938">
        <ele>420</ele>
        <time>2021-08-14T08:59:58.000Z</time>
      </trkpt>
      <trkpt lat="49.90294" lon="4.79933">
        <ele>420</ele>
        <time>2021-08-14T08:59:59.000Z</time>
      </trkpt>
      <trkpt lat="49.90292" lon="4.79929">
        <ele>420</ele>
        <time>2021-08-14T09:00:00.000Z</time>
      </trkpt>
      <trkpt lat="49.9029" lon="4.79924">
        <ele>420</ele>
        <time>2021-08-14T09:00:01.000Z</time>
      </trkpt>
      <trkpt lat="49.90288" lon="4.79919">
        <ele>420</ele>
        <time>2021-08-14T09:00:02.000Z</time>
      </trkpt>
      <trkpt lat="49.90286" lon="4.79914">
        <ele>419</ele>
        <time>2021-08-14T09:00:03.000Z</time>
      </trkpt>
      <trkpt lat="49.90285" lon="4.7991">
        <ele>419</ele>
        <time>2021-08-14T09:00:04.000Z</time>
      </trkpt>
      <trkpt lat="49.90284" lon="4.79907">
        <ele>419</ele>
        <time>2021-08-14T09:00:05.000Z</time>
      </trkpt>
      <trkpt lat="49.90283" lon="4.79903">
        <ele>419</ele>
        <time>2021-08-14T09:00:06.000Z</time>
      </trkpt>
      <trkpt lat="49.90282" lon="4.79898">
        <ele>419</ele>
        <time>2021-08-14T09:00:07.000Z</time>
      </trkpt>
      <trkpt lat="49.90281" lon="4.79893">
        <ele>419</ele>
        <time>2021-08-14T09:00:08.000Z</time>
      </trkpt>
      <trkpt lat="49.9028" lon="4.79887">
        <ele>419</ele>
        <time>2021-08-14T09:00:09.000Z</time>
      </trkpt>
      <trkpt lat="49.90278" lon="4.79881">
        <ele>420</ele>
        <time>2021-08-14T09:00:10.000Z</time>
      </trkpt>
      <trkpt lat="49.90277" lon="4.79876">
        <ele>420</ele>
        <time>2021-08-14T09:00:11.000Z</time>
      </trkpt>
      <trkpt lat="49.90276" lon="4.7987">
        <ele>420</ele>
        <time>2021-08-14T09:00:12.000Z</time>
      </trkpt>
      <trkpt lat="49.90276" lon="4.79866">
        <ele>420</ele>
        <time>2021-08-14T09:00:13.000Z</time>
      </trkpt>
      <trkpt lat="49.90275" lon="4.79861">
        <ele>420</ele>
        <time>2021-08-14T09:00:14.000Z</time>
      </trkpt>
      <trkpt lat="49.90274" lon="4.79855">
        <ele>420</ele>
        <time>2021-08-14T09:00:15.000Z</time>
      </trkpt>
      <trkpt lat="49.90274" lon="4.79849">
        <ele>421</ele>
        <time>2021-08-14T09:00:16.000Z</time>
      </trkpt>
      <trkpt lat="49.90274" lon="4.79843">
        <ele>421</ele>
        <time>2021-08-14T09:00:17.000Z</time>
      </trkpt>
      <trkpt lat="49.90273" lon="4.79837">
        <ele>421</ele>
        <time>2021-08-14T09:00:18.000Z</time>
      </trkpt>
      <trkpt lat="49.90272" lon="4.7983">
        <ele>421</ele>
        <time>2021-08-14T09:00:19.000Z</time>
      </trkpt>
      <trkpt lat="49.90271" lon="4.79825">
        <ele>422</ele>
        <time>2021-08-14T09:00:20.000Z</time>
      </trkpt>
      <trkpt lat="49.90271" lon="4.7982">
        <ele>422</ele>
        <time>2021-08-14T09:00:21.000Z</time>
      </trkpt>
      <trkpt lat="49.90271" lon="4.79814">
        <ele>422</ele>
        <time>2021-08-14T09:00:22.000Z</time>
      </trkpt>
      <trkpt lat="49.90271" lon="4.79809">
        <ele>423</ele>
        <time>2021-08-14T09:00:23.000Z</time>
      </trkpt>
      <trkpt lat="49.9027" lon="4.79805">
        <ele>423</ele>
        <time>2021-08-14T09:00:24.000Z</time>
      </trkpt>
      <trkpt lat="49.9027" lon="4.79799">
        <ele>423</ele>
        <time>2021-08-14T09:00:25.000Z</time>
      </trkpt>
      <trkpt lat="49.9027" lon="4.79793">
        <ele>424</ele>
        <time>2021-08-14T09:00:26.000Z</time>
      </trkpt>
      <trkpt lat="49.9027" lon="4.79787">
        <ele>424</ele>
        <time>2021-08-14T09:00:27.000Z</time>
      </trkpt>
      <trkpt lat="49.9027" lon="4.79781">
        <ele>424</ele>
        <time>2021-08-14T09:00:28.000Z</time>
      </trkpt>
      <trkpt lat="49.9027" lon="4.79774">
        <ele>425</ele>
        <time>2021-08-14T09:00:29.000Z</time>
      </trkpt>
      <trkpt lat="49.90269" lon="4.79767">
        <ele>425</ele>
        <time>2021-08-14T09:00:30.000Z</time>
      </trkpt>
      <trkpt lat="49.90269" lon="4.7976">
        <ele>425</ele>
        <time>2021-08-14T09:00:31.000Z</time>
      </trkpt>
      <trkpt lat="49.90268" lon="4.79753">
        <ele>425</ele>
        <time>2021-08-14T09:00:32.000Z</time>
      </trkpt>
      <trkpt lat="49.90269" lon="4.79747">
        <ele>426</ele>
        <time>2021-08-14T09:00:33.000Z</time>
      </trkpt>
      <trkpt lat="49.90269" lon="4.79732">
        <ele>426</ele>
        <time>2021-08-14T09:00:34.000Z</time>
      </trkpt>
      <trkpt lat="49.90269" lon="4.79732">
        <ele>426</ele>
        <time>2021-08-14T09:00:35.000Z</time>
      </trkpt>
      <trkpt lat="49.90269" lon="4.79717">
        <ele>427</ele>
        <time>2021-08-14T09:00:36.000Z</time>
      </trkpt>
      <trkpt lat="49.90269" lon="4.79709">
        <ele>427</ele>
        <time>2021-08-14T09:00:37.000Z</time>
      </trkpt>
      <trkpt lat="49.90268" lon="4.797">
        <ele>427</ele>
        <time>2021-08-14T09:00:38.000Z</time>
      </trkpt>
      <trkpt lat="49.90268" lon="4.797">
        <ele>427</ele>
        <time>2021-08-14T09:00:39.000Z</time>
      </trkpt>
      <trkpt lat="49.90267" lon="4.79685">
        <ele>427</ele>
        <time>2021-08-14T09:00:40.000Z</time>
      </trkpt>
      <trkpt lat="49.90266" lon="4.79678">
        <ele>428</ele>
        <time>2021-08-14T09:00:41.000Z</time>
      </trkpt>
      <trkpt lat="49.90266" lon="4.7967">
        <ele>428</ele>
        <time>2021-08-14T09:00:42.000Z</time>
      </trkpt>
      <trkpt lat="49.90266" lon="4.7967">
        <ele>428</ele>
        <time>2021-08-14T09:00:43.000Z</time>
      </trkpt>
      <trkpt lat="49.90266" lon="4.79663">
        <ele>428</ele>
        <time>2021-08-14T09:00:44.000Z</time>
      </trkpt>
      <trkpt lat="49.90266" lon="4.79648">
        <ele>428</ele>
        <time>2021-08-14T09:00:45.000Z</time>
      </trkpt>
      <trkpt lat="49.90266" lon="4.79641">
        <ele>428</ele>
        <time>2021-08-14T09:00:46.000Z</time>
      </trkpt>
      <trkpt lat="49.90266" lon="4.79635">
        <ele>428</ele>
        <time>2021-08-14T09:00:47.000Z</time>
      </trkpt>
      <trkpt lat="49.90266" lon="4.79635">
        <ele>428</ele>
        <time>2021-08-14T09:00:48.000Z</time>
      </trkpt>
      <trkpt lat="49.90265" lon="4.79629">
        <ele>428</ele>
        <time>2021-08-14T09:00:49.000Z</time>
      </trkpt>
      <trkpt lat="49.90266" lon="4.79619">
        <ele>428</ele>
        <time>2021-08-14T09:00:50.000Z</time>
      </trkpt>
      <trkpt lat="49.90266" lon="4.79614">
        <ele>428</ele>
        <time>2021-08-14T09:00:51.000Z</time>
      </trkpt>
      <trkpt lat="49.90267" lon="4.79609">
        <ele>428</ele>
        <time>2021-08-14T09:00:52.000Z</time>
      </trkpt>
      <trkpt lat="49.90268" lon="4.79604">
        <ele>428</ele>
        <time>2021-08-14T09:00:53.000Z</time>
      </trkpt>
      <trkpt lat="49.90268" lon="4.79604">
        <ele>428</ele>
        <time>2021-08-14T09:00:54.000Z</time>
      </trkpt>
      <trkpt lat="49.90269" lon="4.796">
        <ele>428</ele>
        <time>2021-08-14T09:00:55.000Z</time>
      </trkpt>
      <trkpt lat="49.90269" lon="4.79596">
        <ele>428</ele>
        <time>2021-08-14T09:00:56.000Z</time>
      </trkpt>
      <trkpt lat="49.90269" lon="4.79594">
        <ele>428</ele>
        <time>2021-08-14T09:00:57.000Z</time>
      </trkpt>
      <trkpt lat="49.90269" lon="4.79593">
        <ele>428</ele>
        <time>2021-08-14T09:00:58.000Z</time>
      </trkpt>
      <trkpt lat="49.9027" lon="4.79592">
        <ele>428</ele>
        <time>2021-08-14T09:00:59.000Z</time>
      </trkpt>
      <trkpt lat="49.90271" lon="4.79592">
        <ele>428</ele>
        <time>2021-08-14T09:01:00.000Z</time>
      </trkpt>
      <trkpt lat="49.90272" lon="4.79591">
        <ele>428</ele>
        <time>2021-08-14T09:01:01.000Z</time>
      </trkpt>
      <trkpt lat="49.90273" lon="4.7959">
        <ele>428</ele>
        <time>2021-08-14T09:01:02.000Z</time>
      </trkpt>
      <trkpt lat="49.90274" lon="4.79589">
        <ele>428</ele>
        <time>2021-08-14T09:01:03.000Z</time>
      </trkpt>
      <trkpt lat="49.90274" lon="4.79589">
        <ele>428</ele>
        <time>2021-08-14T09:01:04.000Z</time>
      </trkpt>
      <trkpt lat="49.90275" lon="4.79588">
        <ele>428</ele>
        <time>2021-08-14T09:01:05.000Z</time>
      </trkpt>
      <trkpt lat="49.90275" lon="4.79588">
        <ele>428</ele>
        <time>2021-08-14T09:01:06.000Z</time>
      </trkpt>
      <trkpt lat="49.90277" lon="4.79586">
        <ele>428</ele>
        <time>2021-08-14T09:01:07.000Z</time>
      </trkpt>
      <trkpt lat="49.90278" lon="4.79585">
        <ele>428</ele>
        <time>2021-08-14T09:01:08.000Z</time>
      </trkpt>
      <trkpt lat="49.90279" lon="4.79584">
        <ele>428</ele>
        <time>2021-08-14T09:01:09.000Z</time>
      </trkpt>
      <trkpt lat="49.9028" lon="4.79582">
        <ele>428</ele>
        <time>2021-08-14T09:01:10.000Z</time>
      </trkpt>
      <trkpt lat="49.90282" lon="4.7958">
        <ele>427</ele>
        <time>2021-08-14T09:01:11.000Z</time>
      </trkpt>
      <trkpt lat="49.90282" lon="4.79578">
        <ele>427</ele>
        <time>2021-08-14T09:01:12.000Z</time>
      </trkpt>
      <trkpt lat="49.90283" lon="4.79576">
        <ele>427</ele>
        <time>2021-08-14T09:01:13.000Z</time>
      </trkpt>
      <trkpt lat="49.90283" lon="4.79575">
        <ele>427</ele>
        <time>2021-08-14T09:01:14.000Z</time>
      </trkpt>
      <trkpt lat="49.90282" lon="4.79574">
        <ele>427</ele>
        <time>2021-08-14T09:01:15.000Z</time>
      </trkpt>
      <trkpt lat="49.9028" lon="4.79573">
        <ele>426</ele>
        <time>2021-08-14T09:01:16.000Z</time>
      </trkpt>
      <trkpt lat="49.90279" lon="4.79573">
        <ele>426</ele>
        <time>2021-08-14T09:01:17.000Z</time>
      </trkpt>
      <trkpt lat="49.90277" lon="4.79573">
        <ele>426</ele>
        <time>2021-08-14T09:01:18.000Z</time>
      </trkpt>
      <trkpt lat="49.90275" lon="4.79573">
        <ele>425</ele>
        <time>2021-08-14T09:01:19.000Z</time>
      </trkpt>
      <trkpt lat="49.90273" lon="4.79571">
        <ele>425</ele>
        <time>2021-08-14T09:01:20.000Z</time>
      </trkpt>
      <trkpt lat="49.90271" lon="4.79567">
        <ele>425</ele>
        <time>2021-08-14T09:01:21.000Z</time>
      </trkpt>
      <trkpt lat="49.9027" lon="4.79562">
        <ele>424</ele>
        <time>2021-08-14T09:01:22.000Z</time>
      </trkpt>
      <trkpt lat="49.90269" lon="4.79558">
        <ele>424</ele>
        <time>2021-08-14T09:01:23.000Z</time>
      </trkpt>
      <trkpt lat="49.90269" lon="4.79554">
        <ele>424</ele>
        <time>2021-08-14T09:01:24.000Z</time>
      </trkpt>
      <trkpt lat="49.90269" lon="4.7955">
        <ele>424</ele>
        <time>2021-08-14T09:01:25.000Z</time>
      </trkpt>
      <trkpt lat="49.90268" lon="4.79545">
        <ele>423</ele>
        <time>2021-08-14T09:01:26.000Z</time>
      </trkpt>
      <trkpt lat="49.90268" lon="4.7954">
        <ele>423</ele>
        <time>2021-08-14T09:01:27.000Z</time>
      </trkpt>
      <trkpt lat="49.90267" lon="4.79535">
        <ele>423</ele>
        <time>2021-08-14T09:01:28.000Z</time>
      </trkpt>
      <trkpt lat="49.90266" lon="4.79531">
        <ele>423</ele>
        <time>2021-08-14T09:01:29.000Z</time>
      </trkpt>
      <trkpt lat="49.90265" lon="4.79526">
        <ele>423</ele>
        <time>2021-08-14T09:01:30.000Z</time>
      </trkpt>
      <trkpt lat="49.90264" lon="4.79522">
        <ele>423</ele>
        <time>2021-08-14T09:01:31.000Z</time>
      </trkpt>
      <trkpt lat="49.90264" lon="4.79517">
        <ele>423</ele>
        <time>2021-08-14T09:01:32.000Z</time>
      </trkpt>
      <trkpt lat="49.90263" lon="4.79513">
        <ele>423</ele>
        <time>2021-08-14T09:01:33.000Z</time>
      </trkpt>
      <trkpt lat="49.90263" lon="4.79508">
        <ele>423</ele>
        <time>2021-08-14T09:01:34.000Z</time>
      </trkpt>
      <trkpt lat="49.90262" lon="4.79504">
        <ele>423</ele>
        <time>2021-08-14T09:01:35.000Z</time>
      </trkpt>
      <trkpt lat="49.90262" lon="4.79498">
        <ele>423</ele>
        <time>2021-08-14T09:01:36.000Z</time>
      </trkpt>
      <trkpt lat="49.90261" lon="4.79493">
        <ele>423</ele>
        <time>2021-08-14T09:01:37.000Z</time>
      </trkpt>
      <trkpt lat="49.9026" lon="4.79488">
        <ele>423</ele>
        <time>2021-08-14T09:01:38.000Z</time>
      </trkpt>
      <trkpt lat="49.9026" lon="4.79483">
        <ele>423</ele>
        <time>2021-08-14T09:01:39.000Z</time>
      </trkpt>
      <trkpt lat="49.90259" lon="4.79478">
        <ele>423</ele>
        <time>2021-08-14T09:01:40.000Z</time>
      </trkpt>
      <trkpt lat="49.90259" lon="4.79473">
        <ele>423</ele>
        <time>2021-08-14T09:01:41.000Z</time>
      </trkpt>
      <trkpt lat="49.90259" lon="4.79467">
        <ele>423</ele>
        <time>2021-08-14T09:01:42.000Z</time>
      </trkpt>
      <trkpt lat="49.90259" lon="4.79461">
        <ele>423</ele>
        <time>2021-08-14T09:01:43.000Z</time>
      </trkpt>
      <trkpt lat="49.90258" lon="4.79455">
        <ele>423</ele>
        <time>2021-08-14T09:01:44.000Z</time>
      </trkpt>
      <trkpt lat="49.90258" lon="4.79448">
        <ele>423</ele>
        <time>2021-08-14T09:01:45.000Z</time>
      </trkpt>
      <trkpt lat="49.90257" lon="4.79442">
        <ele>423</ele>
        <time>2021-08-14T09:01:46.000Z</time>
      </trkpt>
      <trkpt lat="49.90255" lon="4.79435">
        <ele>423</ele>
        <time>2021-08-14T09:01:47.000Z</time>
      </trkpt>
      <trkpt lat="49.90254" lon="4.79427">
        <ele>423</ele>
        <time>2021-08-14T09:01:48.000Z</time>
      </trkpt>
      <trkpt lat="49.90254" lon="4.7942">
        <ele>423</ele>
        <time>2021-08-14T09:01:49.000Z</time>
      </trkpt>
      <trkpt lat="49.90253" lon="4.79413">
        <ele>423</ele>
        <time>2021-08-14T09:01:50.000Z</time>
      </trkpt>
      <trkpt lat="49.90252" lon="4.79406">
        <ele>423</ele>
        <time>2021-08-14T09:01:51.000Z</time>
      </trkpt>
      <trkpt lat="49.90251" lon="4.794">
        <ele>423</ele>
        <time>2021-08-14T09:01:52.000Z</time>
      </trkpt>
      <trkpt lat="49.90251" lon="4.79394">
        <ele>423</ele>
        <time>2021-08-14T09:01:53.000Z</time>
      </trkpt>
      <trkpt lat="49.90249" lon="4.79389">
        <ele>422</ele>
        <time>2021-08-14T09:01:54.000Z</time>
      </trkpt>
      <trkpt lat="49.90248" lon="4.79384">
        <ele>422</ele>
        <time>2021-08-14T09:01:55.000Z</time>
      </trkpt>
      <trkpt lat="49.90247" lon="4.79379">
        <ele>422</ele>
        <time>2021-08-14T09:01:56.000Z</time>
      </trkpt>
      <trkpt lat="49.90245" lon="4.79374">
        <ele>422</ele>
        <time>2021-08-14T09:01:57.000Z</time>
      </trkpt>
      <trkpt lat="49.90243" lon="4.79368">
        <ele>422</ele>
        <time>2021-08-14T09:01:58.000Z</time>
      </trkpt>
      <trkpt lat="49.90242" lon="4.79363">
        <ele>422</ele>
        <time>2021-08-14T09:01:59.000Z</time>
      </trkpt>
      <trkpt lat="49.90241" lon="4.79358">
        <ele>421</ele>
        <time>2021-08-14T09:02:00.000Z</time>
      </trkpt>
      <trkpt lat="49.9024" lon="4.79353">
        <ele>421</ele>
        <time>2021-08-14T09:02:01.000Z</time>
      </trkpt>
      <trkpt lat="49.90238" lon="4.79349">
        <ele>421</ele>
        <time>2021-08-14T09:02:02.000Z</time>
      </trkpt>
      <trkpt lat="49.90236" lon="4.79343">
        <ele>421</ele>
        <time>2021-08-14T09:02:03.000Z</time>
      </trkpt>
      <trkpt lat="49.90234" lon="4.79338">
        <ele>421</ele>
        <time>2021-08-14T09:02:04.000Z</time>
      </trkpt>
      <trkpt lat="49.90232" lon="4.79333">
        <ele>420</ele>
        <time>2021-08-14T09:02:05.000Z</time>
      </trkpt>
      <trkpt lat="49.90227" lon="4.79322">
        <ele>420</ele>
        <time>2021-08-14T09:02:06.000Z</time>
      </trkpt>
      <trkpt lat="49.90225" lon="4.79318">
        <ele>419</ele>
        <time>2021-08-14T09:02:07.000Z</time>
      </trkpt>
      <trkpt lat="49.90223" lon="4.79313">
        <ele>419</ele>
        <time>2021-08-14T09:02:08.000Z</time>
      </trkpt>
      <trkpt lat="49.90223" lon="4.79313">
        <ele>419</ele>
        <time>2021-08-14T09:02:09.000Z</time>
      </trkpt>
      <trkpt lat="49.90221" lon="4.79305">
        <ele>419</ele>
        <time>2021-08-14T09:02:10.000Z</time>
      </trkpt>
      <trkpt lat="49.9022" lon="4.79301">
        <ele>418</ele>
        <time>2021-08-14T09:02:11.000Z</time>
      </trkpt>
      <trkpt lat="49.9022" lon="4.79301">
        <ele>418</ele>
        <time>2021-08-14T09:02:12.000Z</time>
      </trkpt>
      <trkpt lat="49.90217" lon="4.79291">
        <ele>418</ele>
        <time>2021-08-14T09:02:13.000Z</time>
      </trkpt>
      <trkpt lat="49.90215" lon="4.79286">
        <ele>417</ele>
        <time>2021-08-14T09:02:14.000Z</time>
      </trkpt>
      <trkpt lat="49.90215" lon="4.79286">
        <ele>417</ele>
        <time>2021-08-14T09:02:15.000Z</time>
      </trkpt>
      <trkpt lat="49.90213" lon="4.79281">
        <ele>417</ele>
        <time>2021-08-14T09:02:16.000Z</time>
      </trkpt>
      <trkpt lat="49.90211" lon="4.79276">
        <ele>417</ele>
        <time>2021-08-14T09:02:17.000Z</time>
      </trkpt>
      <trkpt lat="49.90208" lon="4.79265">
        <ele>416</ele>
        <time>2021-08-14T09:02:18.000Z</time>
      </trkpt>
      <trkpt lat="49.90207" lon="4.79259">
        <ele>416</ele>
        <time>2021-08-14T09:02:19.000Z</time>
      </trkpt>
      <trkpt lat="49.90207" lon="4.79252">
        <ele>416</ele>
        <time>2021-08-14T09:02:20.000Z</time>
      </trkpt>
      <trkpt lat="49.90206" lon="4.79247">
        <ele>415</ele>
        <time>2021-08-14T09:02:21.000Z</time>
      </trkpt>
      <trkpt lat="49.90206" lon="4.79247">
        <ele>415</ele>
        <time>2021-08-14T09:02:22.000Z</time>
      </trkpt>
      <trkpt lat="49.90205" lon="4.79242">
        <ele>415</ele>
        <time>2021-08-14T09:02:23.000Z</time>
      </trkpt>
      <trkpt lat="49.90204" lon="4.79236">
        <ele>414</ele>
        <time>2021-08-14T09:02:24.000Z</time>
      </trkpt>
      <trkpt lat="49.90204" lon="4.79224">
        <ele>414</ele>
        <time>2021-08-14T09:02:25.000Z</time>
      </trkpt>
      <trkpt lat="49.90204" lon="4.79218">
        <ele>413</ele>
        <time>2021-08-14T09:02:26.000Z</time>
      </trkpt>
      <trkpt lat="49.90203" lon="4.79212">
        <ele>413</ele>
        <time>2021-08-14T09:02:27.000Z</time>
      </trkpt>
      <trkpt lat="49.90202" lon="4.79207">
        <ele>412</ele>
        <time>2021-08-14T09:02:28.000Z</time>
      </trkpt>
      <trkpt lat="49.902" lon="4.79202">
        <ele>412</ele>
        <time>2021-08-14T09:02:29.000Z</time>
      </trkpt>
      <trkpt lat="49.90198" lon="4.79197">
        <ele>412</ele>
        <time>2021-08-14T09:02:30.000Z</time>
      </trkpt>
      <trkpt lat="49.90197" lon="4.79192">
        <ele>411</ele>
        <time>2021-08-14T09:02:31.000Z</time>
      </trkpt>
      <trkpt lat="49.90196" lon="4.79186">
        <ele>411</ele>
        <time>2021-08-14T09:02:32.000Z</time>
      </trkpt>
      <trkpt lat="49.90195" lon="4.79181">
        <ele>410</ele>
        <time>2021-08-14T09:02:33.000Z</time>
      </trkpt>
      <trkpt lat="49.90194" lon="4.79176">
        <ele>410</ele>
        <time>2021-08-14T09:02:34.000Z</time>
      </trkpt>
      <trkpt lat="49.90193" lon="4.79171">
        <ele>409</ele>
        <time>2021-08-14T09:02:35.000Z</time>
      </trkpt>
      <trkpt lat="49.90193" lon="4.79166">
        <ele>409</ele>
        <time>2021-08-14T09:02:36.000Z</time>
      </trkpt>
      <trkpt lat="49.90192" lon="4.79161">
        <ele>408</ele>
        <time>2021-08-14T09:02:37.000Z</time>
      </trkpt>
      <trkpt lat="49.9019" lon="4.79158">
        <ele>408</ele>
        <time>2021-08-14T09:02:38.000Z</time>
      </trkpt>
      <trkpt lat="49.90189" lon="4.79155">
        <ele>408</ele>
        <time>2021-08-14T09:02:39.000Z</time>
      </trkpt>
      <trkpt lat="49.90188" lon="4.79153">
        <ele>407</ele>
        <time>2021-08-14T09:02:40.000Z</time>
      </trkpt>
      <trkpt lat="49.90187" lon="4.79151">
        <ele>407</ele>
        <time>2021-08-14T09:02:41.000Z</time>
      </trkpt>
      <trkpt lat="49.90186" lon="4.79149">
        <ele>406</ele>
        <time>2021-08-14T09:02:42.000Z</time>
      </trkpt>
      <trkpt lat="49.90185" lon="4.79146">
        <ele>406</ele>
        <time>2021-08-14T09:02:43.000Z</time>
      </trkpt>
      <trkpt lat="49.90185" lon="4.79146">
        <ele>406</ele>
        <time>2021-08-14T09:02:44.000Z</time>
      </trkpt>
      <trkpt lat="49.90185" lon="4.79144">
        <ele>406</ele>
        <time>2021-08-14T09:02:45.000Z</time>
      </trkpt>
      <trkpt lat="49.90184" lon="4.79142">
        <ele>405</ele>
        <time>2021-08-14T09:02:46.000Z</time>
      </trkpt>
      <trkpt lat="49.90183" lon="4.79138">
        <ele>405</ele>
        <time>2021-08-14T09:02:47.000Z</time>
      </trkpt>
      <trkpt lat="49.90183" lon="4.79138">
        <ele>405</ele>
        <time>2021-08-14T09:02:48.000Z</time>
      </trkpt>
      <trkpt lat="49.90182" lon="4.79137">
        <ele>404</ele>
        <time>2021-08-14T09:02:49.000Z</time>
      </trkpt>
      <trkpt lat="49.90181" lon="4.79135">
        <ele>404</ele>
        <time>2021-08-14T09:02:50.000Z</time>
      </trkpt>
      <trkpt lat="49.90179" lon="4.79133">
        <ele>404</ele>
        <time>2021-08-14T09:02:51.000Z</time>
      </trkpt>
      <trkpt lat="49.90178" lon="4.79131">
        <ele>403</ele>
        <time>2021-08-14T09:02:52.000Z</time>
      </trkpt>
      <trkpt lat="49.90176" lon="4.79129">
        <ele>403</ele>
        <time>2021-08-14T09:02:53.000Z</time>
      </trkpt>
      <trkpt lat="49.90175" lon="4.79127">
        <ele>403</ele>
        <time>2021-08-14T09:02:54.000Z</time>
      </trkpt>
      <trkpt lat="49.90174" lon="4.79126">
        <ele>403</ele>
        <time>2021-08-14T09:02:55.000Z</time>
      </trkpt>
      <trkpt lat="49.90172" lon="4.79124">
        <ele>402</ele>
        <time>2021-08-14T09:02:56.000Z</time>
      </trkpt>
      <trkpt lat="49.90171" lon="4.79122">
        <ele>402</ele>
        <time>2021-08-14T09:02:57.000Z</time>
      </trkpt>
      <trkpt lat="49.90169" lon="4.7912">
        <ele>402</ele>
        <time>2021-08-14T09:02:58.000Z</time>
      </trkpt>
      <trkpt lat="49.90168" lon="4.79119">
        <ele>402</ele>
        <time>2021-08-14T09:02:59.000Z</time>
      </trkpt>
      <trkpt lat="49.90168" lon="4.79117">
        <ele>402</ele>
        <time>2021-08-14T09:03:00.000Z</time>
      </trkpt>
      <trkpt lat="49.90167" lon="4.79115">
        <ele>401</ele>
        <time>2021-08-14T09:03:01.000Z</time>
      </trkpt>
      <trkpt lat="49.90166" lon="4.79112">
        <ele>401</ele>
        <time>2021-08-14T09:03:02.000Z</time>
      </trkpt>
      <trkpt lat="49.90165" lon="4.7911">
        <ele>401</ele>
        <time>2021-08-14T09:03:03.000Z</time>
      </trkpt>
      <trkpt lat="49.90164" lon="4.79108">
        <ele>401</ele>
        <time>2021-08-14T09:03:04.000Z</time>
      </trkpt>
      <trkpt lat="49.90164" lon="4.79106">
        <ele>401</ele>
        <time>2021-08-14T09:03:05.000Z</time>
      </trkpt>
      <trkpt lat="49.90162" lon="4.79104">
        <ele>401</ele>
        <time>2021-08-14T09:03:06.000Z</time>
      </trkpt>
      <trkpt lat="49.90161" lon="4.79102">
        <ele>401</ele>
        <time>2021-08-14T09:03:07.000Z</time>
      </trkpt>
      <trkpt lat="49.90161" lon="4.791">
        <ele>401</ele>
        <time>2021-08-14T09:03:08.000Z</time>
      </trkpt>
      <trkpt lat="49.9016" lon="4.79097">
        <ele>401</ele>
        <time>2021-08-14T09:03:09.000Z</time>
      </trkpt>
      <trkpt lat="49.90159" lon="4.79094">
        <ele>401</ele>
        <time>2021-08-14T09:03:10.000Z</time>
      </trkpt>
      <trkpt lat="49.90158" lon="4.79092">
        <ele>401</ele>
        <time>2021-08-14T09:03:11.000Z</time>
      </trkpt>
      <trkpt lat="49.90157" lon="4.7909">
        <ele>401</ele>
        <time>2021-08-14T09:03:12.000Z</time>
      </trkpt>
      <trkpt lat="49.90157" lon="4.79088">
        <ele>401</ele>
        <time>2021-08-14T09:03:13.000Z</time>
      </trkpt>
      <trkpt lat="49.90156" lon="4.79087">
        <ele>401</ele>
        <time>2021-08-14T09:03:14.000Z</time>
      </trkpt>
      <trkpt lat="49.90155" lon="4.79085">
        <ele>401</ele>
        <time>2021-08-14T09:03:15.000Z</time>
      </trkpt>
      <trkpt lat="49.90154" lon="4.79083">
        <ele>401</ele>
        <time>2021-08-14T09:03:16.000Z</time>
      </trkpt>
      <trkpt lat="49.90154" lon="4.79081">
        <ele>401</ele>
        <time>2021-08-14T09:03:17.000Z</time>
      </trkpt>
      <trkpt lat="49.90153" lon="4.79079">
        <ele>401</ele>
        <time>2021-08-14T09:03:18.000Z</time>
      </trkpt>
      <trkpt lat="49.90153" lon="4.79077">
        <ele>401</ele>
        <time>2021-08-14T09:03:19.000Z</time>
      </trkpt>
      <trkpt lat="49.90152" lon="4.79076">
        <ele>401</ele>
        <time>2021-08-14T09:03:20.000Z</time>
      </trkpt>
      <trkpt lat="49.90151" lon="4.79074">
        <ele>402</ele>
        <time>2021-08-14T09:03:21.000Z</time>
      </trkpt>
      <trkpt lat="49.9015" lon="4.79072">
        <ele>402</ele>
        <time>2021-08-14T09:03:22.000Z</time>
      </trkpt>
      <trkpt lat="49.9015" lon="4.7907">
        <ele>402</ele>
        <time>2021-08-14T09:03:23.000Z</time>
      </trkpt>
      <trkpt lat="49.90149" lon="4.79068">
        <ele>402</ele>
        <time>2021-08-14T09:03:24.000Z</time>
      </trkpt>
      <trkpt lat="49.90148" lon="4.79066">
        <ele>402</ele>
        <time>2021-08-14T09:03:25.000Z</time>
      </trkpt>
      <trkpt lat="49.90147" lon="4.79064">
        <ele>402</ele>
        <time>2021-08-14T09:03:26.000Z</time>
      </trkpt>
      <trkpt lat="49.90146" lon="4.79063">
        <ele>402</ele>
        <time>2021-08-14T09:03:27.000Z</time>
      </trkpt>
      <trkpt lat="49.90145" lon="4.79061">
        <ele>403</ele>
        <time>2021-08-14T09:03:28.000Z</time>
      </trkpt>
      <trkpt lat="49.90144" lon="4.7906">
        <ele>403</ele>
        <time>2021-08-14T09:03:29.000Z</time>
      </trkpt>
      <trkpt lat="49.90143" lon="4.79059">
        <ele>403</ele>
        <time>2021-08-14T09:03:30.000Z</time>
      </trkpt>
      <trkpt lat="49.90142" lon="4.79057">
        <ele>403</ele>
        <time>2021-08-14T09:03:31.000Z</time>
      </trkpt>
      <trkpt lat="49.90141" lon="4.79055">
        <ele>403</ele>
        <time>2021-08-14T09:03:32.000Z</time>
      </trkpt>
      <trkpt lat="49.9014" lon="4.79053">
        <ele>403</ele>
        <time>2021-08-14T09:03:33.000Z</time>
      </trkpt>
      <trkpt lat="49.90139" lon="4.79052">
        <ele>403</ele>
        <time>2021-08-14T09:03:34.000Z</time>
      </trkpt>
      <trkpt lat="49.90138" lon="4.7905">
        <ele>403</ele>
        <time>2021-08-14T09:03:35.000Z</time>
      </trkpt>
      <trkpt lat="49.90137" lon="4.79049">
        <ele>403</ele>
        <time>2021-08-14T09:03:36.000Z</time>
      </trkpt>
      <trkpt lat="49.90136" lon="4.79047">
        <ele>403</ele>
        <time>2021-08-14T09:03:37.000Z</time>
      </trkpt>
      <trkpt lat="49.90135" lon="4.79046">
        <ele>403</ele>
        <time>2021-08-14T09:03:38.000Z</time>
      </trkpt>
      <trkpt lat="49.90135" lon="4.79044">
        <ele>404</ele>
        <time>2021-08-14T09:03:39.000Z</time>
      </trkpt>
      <trkpt lat="49.90134" lon="4.79043">
        <ele>404</ele>
        <time>2021-08-14T09:03:40.000Z</time>
      </trkpt>
      <trkpt lat="49.90133" lon="4.79042">
        <ele>404</ele>
        <time>2021-08-14T09:03:41.000Z</time>
      </trkpt>
      <trkpt lat="49.90133" lon="4.7904">
        <ele>404</ele>
        <time>2021-08-14T09:03:42.000Z</time>
      </trkpt>
      <trkpt lat="49.90132" lon="4.79038">
        <ele>404</ele>
        <time>2021-08-14T09:03:43.000Z</time>
      </trkpt>
      <trkpt lat="49.90131" lon="4.79037">
        <ele>404</ele>
        <time>2021-08-14T09:03:44.000Z</time>
      </trkpt>
      <trkpt lat="49.90131" lon="4.79035">
        <ele>405</ele>
        <time>2021-08-14T09:03:45.000Z</time>
      </trkpt>
      <trkpt lat="49.9013" lon="4.79033">
        <ele>405</ele>
        <time>2021-08-14T09:03:46.000Z</time>
      </trkpt>
      <trkpt lat="49.90129" lon="4.79031">
        <ele>405</ele>
        <time>2021-08-14T09:03:47.000Z</time>
      </trkpt>
      <trkpt lat="49.90128" lon="4.79029">
        <ele>405</ele>
        <time>2021-08-14T09:03:48.000Z</time>
      </trkpt>
      <trkpt lat="49.90126" lon="4.79027">
        <ele>405</ele>
        <time>2021-08-14T09:03:49.000Z</time>
      </trkpt>
      <trkpt lat="49.90125" lon="4.79026">
        <ele>406</ele>
        <time>2021-08-14T09:03:50.000Z</time>
      </trkpt>
      <trkpt lat="49.90124" lon="4.79024">
        <ele>406</ele>
        <time>2021-08-14T09:03:51.000Z</time>
      </trkpt>
      <trkpt lat="49.90123" lon="4.79022">
        <ele>406</ele>
        <time>2021-08-14T09:03:52.000Z</time>
      </trkpt>
      <trkpt lat="49.90122" lon="4.79021">
        <ele>406</ele>
        <time>2021-08-14T09:03:53.000Z</time>
      </trkpt>
      <trkpt lat="49.90121" lon="4.79018">
        <ele>406</ele>
        <time>2021-08-14T09:03:54.000Z</time>
      </trkpt>
      <trkpt lat="49.9012" lon="4.79017">
        <ele>406</ele>
        <time>2021-08-14T09:03:55.000Z</time>
      </trkpt>
      <trkpt lat="49.90119" lon="4.79015">
        <ele>407</ele>
        <time>2021-08-14T09:03:56.000Z</time>
      </trkpt>
      <trkpt lat="49.90118" lon="4.79014">
        <ele>407</ele>
        <time>2021-08-14T09:03:57.000Z</time>
      </trkpt>
      <trkpt lat="49.90117" lon="4.79012">
        <ele>407</ele>
        <time>2021-08-14T09:03:58.000Z</time>
      </trkpt>
      <trkpt lat="49.90116" lon="4.7901">
        <ele>407</ele>
        <time>2021-08-14T09:03:59.000Z</time>
      </trkpt>
      <trkpt lat="49.90115" lon="4.79009">
        <ele>407</ele>
        <time>2021-08-14T09:04:00.000Z</time>
      </trkpt>
      <trkpt lat="49.90114" lon="4.79007">
        <ele>407</ele>
        <time>2021-08-14T09:04:01.000Z</time>
      </trkpt>
      <trkpt lat="49.90113" lon="4.79006">
        <ele>408</ele>
        <time>2021-08-14T09:04:02.000Z</time>
      </trkpt>
      <trkpt lat="49.90112" lon="4.79004">
        <ele>408</ele>
        <time>2021-08-14T09:04:03.000Z</time>
      </trkpt>
      <trkpt lat="49.90111" lon="4.79002">
        <ele>408</ele>
        <time>2021-08-14T09:04:04.000Z</time>
      </trkpt>
      <trkpt lat="49.9011" lon="4.79">
        <ele>408</ele>
        <time>2021-08-14T09:04:05.000Z</time>
      </trkpt>
      <trkpt lat="49.90109" lon="4.78998">
        <ele>408</ele>
        <time>2021-08-14T09:04:06.000Z</time>
      </trkpt>
      <trkpt lat="49.90108" lon="4.78996">
        <ele>409</ele>
        <time>2021-08-14T09:04:07.000Z</time>
      </trkpt>
      <trkpt lat="49.90107" lon="4.78995">
        <ele>409</ele>
        <time>2021-08-14T09:04:08.000Z</time>
      </trkpt>
      <trkpt lat="49.90106" lon="4.78993">
        <ele>409</ele>
        <time>2021-08-14T09:04:09.000Z</time>
      </trkpt>
      <trkpt lat="49.90105" lon="4.78991">
        <ele>409</ele>
        <time>2021-08-14T09:04:10.000Z</time>
      </trkpt>
      <trkpt lat="49.90104" lon="4.78989">
        <ele>409</ele>
        <time>2021-08-14T09:04:11.000Z</time>
      </trkpt>
      <trkpt lat="49.90103" lon="4.78988">
        <ele>410</ele>
        <time>2021-08-14T09:04:12.000Z</time>
      </trkpt>
      <trkpt lat="49.90102" lon="4.78986">
        <ele>410</ele>
        <time>2021-08-14T09:04:13.000Z</time>
      </trkpt>
      <trkpt lat="49.90101" lon="4.78985">
        <ele>410</ele>
        <time>2021-08-14T09:04:14.000Z</time>
      </trkpt>
      <trkpt lat="49.901" lon="4.78984">
        <ele>411</ele>
        <time>2021-08-14T09:04:15.000Z</time>
      </trkpt>
      <trkpt lat="49.90099" lon="4.78983">
        <ele>411</ele>
        <time>2021-08-14T09:04:16.000Z</time>
      </trkpt>
      <trkpt lat="49.90098" lon="4.78981">
        <ele>411</ele>
        <time>2021-08-14T09:04:17.000Z</time>
      </trkpt>
      <trkpt lat="49.90097" lon="4.78979">
        <ele>411</ele>
        <time>2021-08-14T09:04:18.000Z</time>
      </trkpt>
      <trkpt lat="49.90096" lon="4.78977">
        <ele>411</ele>
        <time>2021-08-14T09:04:19.000Z</time>
      </trkpt>
      <trkpt lat="49.90095" lon="4.78975">
        <ele>411</ele>
        <time>2021-08-14T09:04:20.000Z</time>
      </trkpt>
      <trkpt lat="49.90094" lon="4.78974">
        <ele>412</ele>
        <time>2021-08-14T09:04:21.000Z</time>
      </trkpt>
      <trkpt lat="49.90093" lon="4.78973">
        <ele>412</ele>
        <time>2021-08-14T09:04:22.000Z</time>
      </trkpt>
      <trkpt lat="49.90092" lon="4.78971">
        <ele>412</ele>
        <time>2021-08-14T09:04:23.000Z</time>
      </trkpt>
      <trkpt lat="49.9009" lon="4.78969">
        <ele>412</ele>
        <time>2021-08-14T09:04:24.000Z</time>
      </trkpt>
      <trkpt lat="49.9009" lon="4.78968">
        <ele>412</ele>
        <time>2021-08-14T09:04:25.000Z</time>
      </trkpt>
      <trkpt lat="49.90089" lon="4.78966">
        <ele>412</ele>
        <time>2021-08-14T09:04:26.000Z</time>
      </trkpt>
      <trkpt lat="49.90087" lon="4.78963">
        <ele>413</ele>
        <time>2021-08-14T09:04:27.000Z</time>
      </trkpt>
      <trkpt lat="49.90086" lon="4.78961">
        <ele>413</ele>
        <time>2021-08-14T09:04:28.000Z</time>
      </trkpt>
      <trkpt lat="49.90085" lon="4.7896">
        <ele>413</ele>
        <time>2021-08-14T09:04:29.000Z</time>
      </trkpt>
      <trkpt lat="49.90084" lon="4.78958">
        <ele>413</ele>
        <time>2021-08-14T09:04:30.000Z</time>
      </trkpt>
      <trkpt lat="49.90083" lon="4.78956">
        <ele>413</ele>
        <time>2021-08-14T09:04:31.000Z</time>
      </trkpt>
      <trkpt lat="49.90082" lon="4.78953">
        <ele>413</ele>
        <time>2021-08-14T09:04:32.000Z</time>
      </trkpt>
      <trkpt lat="49.90081" lon="4.78952">
        <ele>414</ele>
        <time>2021-08-14T09:04:33.000Z</time>
      </trkpt>
      <trkpt lat="49.9008" lon="4.7895">
        <ele>414</ele>
        <time>2021-08-14T09:04:34.000Z</time>
      </trkpt>
      <trkpt lat="49.90079" lon="4.78948">
        <ele>414</ele>
        <time>2021-08-14T09:04:35.000Z</time>
      </trkpt>
      <trkpt lat="49.90078" lon="4.78946">
        <ele>414</ele>
        <time>2021-08-14T09:04:36.000Z</time>
      </trkpt>
      <trkpt lat="49.90077" lon="4.78945">
        <ele>414</ele>
        <time>2021-08-14T09:04:37.000Z</time>
      </trkpt>
      <trkpt lat="49.90075" lon="4.78943">
        <ele>414</ele>
        <time>2021-08-14T09:04:38.000Z</time>
      </trkpt>
      <trkpt lat="49.90074" lon="4.78942">
        <ele>414</ele>
        <time>2021-08-14T09:04:39.000Z</time>
      </trkpt>
      <trkpt lat="49.90072" lon="4.78941">
        <ele>415</ele>
        <time>2021-08-14T09:04:40.000Z</time>
      </trkpt>
      <trkpt lat="49.9007" lon="4.7894">
        <ele>415</ele>
        <time>2021-08-14T09:04:41.000Z</time>
      </trkpt>
      <trkpt lat="49.90069" lon="4.78938">
        <ele>415</ele>
        <time>2021-08-14T09:04:42.000Z</time>
      </trkpt>
      <trkpt lat="49.90068" lon="4.78936">
        <ele>415</ele>
        <time>2021-08-14T09:04:43.000Z</time>
      </trkpt>
      <trkpt lat="49.90066" lon="4.78935">
        <ele>416</ele>
        <time>2021-08-14T09:04:44.000Z</time>
      </trkpt>
      <trkpt lat="49.90065" lon="4.78933">
        <ele>416</ele>
        <time>2021-08-14T09:04:45.000Z</time>
      </trkpt>
      <trkpt lat="49.90063" lon="4.78932">
        <ele>416</ele>
        <time>2021-08-14T09:04:46.000Z</time>
      </trkpt>
      <trkpt lat="49.90061" lon="4.7893">
        <ele>416</ele>
        <time>2021-08-14T09:04:47.000Z</time>
      </trkpt>
      <trkpt lat="49.9006" lon="4.78928">
        <ele>417</ele>
        <time>2021-08-14T09:04:48.000Z</time>
      </trkpt>
      <trkpt lat="49.90059" lon="4.78927">
        <ele>417</ele>
        <time>2021-08-14T09:04:49.000Z</time>
      </trkpt>
      <trkpt lat="49.90057" lon="4.78925">
        <ele>417</ele>
        <time>2021-08-14T09:04:50.000Z</time>
      </trkpt>
      <trkpt lat="49.90055" lon="4.78923">
        <ele>417</ele>
        <time>2021-08-14T09:04:51.000Z</time>
      </trkpt>
      <trkpt lat="49.90054" lon="4.78921">
        <ele>417</ele>
        <time>2021-08-14T09:04:52.000Z</time>
      </trkpt>
      <trkpt lat="49.90052" lon="4.7892">
        <ele>417</ele>
        <time>2021-08-14T09:04:53.000Z</time>
      </trkpt>
      <trkpt lat="49.9005" lon="4.78918">
        <ele>418</ele>
        <time>2021-08-14T09:04:54.000Z</time>
      </trkpt>
      <trkpt lat="49.90049" lon="4.78916">
        <ele>418</ele>
        <time>2021-08-14T09:04:55.000Z</time>
      </trkpt>
      <trkpt lat="49.90047" lon="4.78914">
        <ele>418</ele>
        <time>2021-08-14T09:04:56.000Z</time>
      </trkpt>
      <trkpt lat="49.90046" lon="4.78912">
        <ele>418</ele>
        <time>2021-08-14T09:04:57.000Z</time>
      </trkpt>
      <trkpt lat="49.90044" lon="4.7891">
        <ele>418</ele>
        <time>2021-08-14T09:04:58.000Z</time>
      </trkpt>
      <trkpt lat="49.90042" lon="4.78908">
        <ele>418</ele>
        <time>2021-08-14T09:04:59.000Z</time>
      </trkpt>
      <trkpt lat="49.90041" lon="4.78907">
        <ele>418</ele>
        <time>2021-08-14T09:05:00.000Z</time>
      </trkpt>
      <trkpt lat="49.90039" lon="4.78905">
        <ele>418</ele>
        <time>2021-08-14T09:05:01.000Z</time>
      </trkpt>
      <trkpt lat="49.90037" lon="4.78903">
        <ele>419</ele>
        <time>2021-08-14T09:05:02.000Z</time>
      </trkpt>
      <trkpt lat="49.90035" lon="4.78901">
        <ele>419</ele>
        <time>2021-08-14T09:05:03.000Z</time>
      </trkpt>
      <trkpt lat="49.90032" lon="4.78899">
        <ele>419</ele>
        <time>2021-08-14T09:05:04.000Z</time>
      </trkpt>
      <trkpt lat="49.90031" lon="4.78898">
        <ele>419</ele>
        <time>2021-08-14T09:05:05.000Z</time>
      </trkpt>
      <trkpt lat="49.90028" lon="4.78896">
        <ele>419</ele>
        <time>2021-08-14T09:05:06.000Z</time>
      </trkpt>
      <trkpt lat="49.90026" lon="4.78893">
        <ele>420</ele>
        <time>2021-08-14T09:05:07.000Z</time>
      </trkpt>
      <trkpt lat="49.90025" lon="4.78891">
        <ele>420</ele>
        <time>2021-08-14T09:05:08.000Z</time>
      </trkpt>
      <trkpt lat="49.90023" lon="4.78889">
        <ele>420</ele>
        <time>2021-08-14T09:05:09.000Z</time>
      </trkpt>
      <trkpt lat="49.90021" lon="4.78887">
        <ele>420</ele>
        <time>2021-08-14T09:05:10.000Z</time>
      </trkpt>
      <trkpt lat="49.90018" lon="4.78885">
        <ele>420</ele>
        <time>2021-08-14T09:05:11.000Z</time>
      </trkpt>
      <trkpt lat="49.90016" lon="4.78882">
        <ele>420</ele>
        <time>2021-08-14T09:05:12.000Z</time>
      </trkpt>
      <trkpt lat="49.90013" lon="4.7888">
        <ele>420</ele>
        <time>2021-08-14T09:05:13.000Z</time>
      </trkpt>
      <trkpt lat="49.90012" lon="4.78877">
        <ele>420</ele>
        <time>2021-08-14T09:05:14.000Z</time>
      </trkpt>
      <trkpt lat="49.9001" lon="4.78874">
        <ele>420</ele>
        <time>2021-08-14T09:05:15.000Z</time>
      </trkpt>
      <trkpt lat="49.90007" lon="4.78872">
        <ele>420</ele>
        <time>2021-08-14T09:05:16.000Z</time>
      </trkpt>
      <trkpt lat="49.90005" lon="4.78869">
        <ele>421</ele>
        <time>2021-08-14T09:05:17.000Z</time>
      </trkpt>
      <trkpt lat="49.90003" lon="4.78866">
        <ele>421</ele>
        <time>2021-08-14T09:05:18.000Z</time>
      </trkpt>
      <trkpt lat="49.9" lon="4.78863">
        <ele>421</ele>
        <time>2021-08-14T09:05:19.000Z</time>
      </trkpt>
      <trkpt lat="49.89998" lon="4.78859">
        <ele>421</ele>
        <time>2021-08-14T09:05:20.000Z</time>
      </trkpt>
      <trkpt lat="49.89995" lon="4.78856">
        <ele>421</ele>
        <time>2021-08-14T09:05:21.000Z</time>
      </trkpt>
      <trkpt lat="49.89994" lon="4.78853">
        <ele>421</ele>
        <time>2021-08-14T09:05:22.000Z</time>
      </trkpt>
      <trkpt lat="49.89992" lon="4.7885">
        <ele>421</ele>
        <time>2021-08-14T09:05:23.000Z</time>
      </trkpt>
      <trkpt lat="49.8999" lon="4.78848">
        <ele>422</ele>
        <time>2021-08-14T09:05:24.000Z</time>
      </trkpt>
      <trkpt lat="49.89988" lon="4.78846">
        <ele>422</ele>
        <time>2021-08-14T09:05:25.000Z</time>
      </trkpt>
      <trkpt lat="49.89987" lon="4.78845">
        <ele>422</ele>
        <time>2021-08-14T09:05:26.000Z</time>
      </trkpt>
      <trkpt lat="49.89987" lon="4.78845">
        <ele>422</ele>
        <time>2021-08-14T09:05:27.000Z</time>
      </trkpt>
      <trkpt lat="49.89987" lon="4.78845">
        <ele>422</ele>
        <time>2021-08-14T09:05:28.000Z</time>
      </trkpt>
      <trkpt lat="49.89987" lon="4.78845">
        <ele>423</ele>
        <time>2021-08-14T09:05:29.000Z</time>
      </trkpt>
      <trkpt lat="49.89987" lon="4.78844">
        <ele>423</ele>
        <time>2021-08-14T09:05:30.000Z</time>
      </trkpt>
      <trkpt lat="49.89987" lon="4.78844">
        <ele>423</ele>
        <time>2021-08-14T09:05:31.000Z</time>
      </trkpt>
      <trkpt lat="49.89987" lon="4.78844">
        <ele>423</ele>
        <time>2021-08-14T09:05:32.000Z</time>
      </trkpt>
      <trkpt lat="49.89987" lon="4.78844">
        <ele>423</ele>
        <time>2021-08-14T09:05:33.000Z</time>
      </trkpt>
      <trkpt lat="49.89987" lon="4.78844">
        <ele>423</ele>
        <time>2021-08-14T09:05:34.000Z</time>
      </trkpt>
      <trkpt lat="49.89987" lon="4.78844">
        <ele>423</ele>
        <time>2021-08-14T09:05:35.000Z</time>
      </trkpt>
      <trkpt lat="49.89987" lon="4.78844">
        <ele>424</ele>
        <time>2021-08-14T09:05:36.000Z</time>
      </trkpt>
      <trkpt lat="49.89987" lon="4.78844">
        <ele>424</ele>
        <time>2021-08-14T09:05:37.000Z</time>
      </trkpt>
      <trkpt lat="49.89987" lon="4.78844">
        <ele>424</ele>
        <time>2021-08-14T09:05:38.000Z</time>
      </trkpt>
      <trkpt lat="49.89987" lon="4.78844">
        <ele>424</ele>
        <time>2021-08-14T09:05:39.000Z</time>
      </trkpt>
      <trkpt lat="49.89987" lon="4.78844">
        <ele>424</ele>
        <time>2021-08-14T09:05:40.000Z</time>
      </trkpt>
      <trkpt lat="49.89986" lon="4.78844">
        <ele>424</ele>
        <time>2021-08-14T09:05:41.000Z</time>
      </trkpt>
      <trkpt lat="49.89986" lon="4.78843">
        <ele>424</ele>
        <time>2021-08-14T09:05:42.000Z</time>
      </trkpt>
      <trkpt lat="49.89986" lon="4.78843">
        <ele>424</ele>
        <time>2021-08-14T09:05:43.000Z</time>
      </trkpt>
      <trkpt lat="49.89986" lon="4.78843">
        <ele>424</ele>
        <time>2021-08-14T09:05:44.000Z</time>
      </trkpt>
      <trkpt lat="49.89986" lon="4.78843">
        <ele>424</ele>
        <time>2021-08-14T09:05:45.000Z</time>
      </trkpt>
      <trkpt lat="49.89986" lon="4.78843">
        <ele>424</ele>
        <time>2021-08-14T09:05:46.000Z</time>
      </trkpt>
      <trkpt lat="49.89986" lon="4.78843">
        <ele>424</ele>
        <time>2021-08-14T09:05:47.000Z</time>
      </trkpt>
      <trkpt lat="49.89986" lon="4.78843">
        <ele>424</ele>
        <time>2021-08-14T09:05:48.000Z</time>
      </trkpt>
      <trkpt lat="49.89986" lon="4.78843">
        <ele>424</ele>
        <time>2021-08-14T09:05:49.000Z</time>
      </trkpt>
      <trkpt lat="49.89986" lon="4.78843">
        <ele>424</ele>
        <time>2021-08-14T09:05:50.000Z</time>
      </trkpt>
      <trkpt lat="49.89986" lon="4.78843">
        <ele>424</ele>
        <time>2021-08-14T09:05:51.000Z</time>
      </trkpt>
      <trkpt lat="49.89986" lon="4.78843">
        <ele>424</ele>
        <time>2021-08-14T09:05:52.000Z</time>
      </trkpt>
      <trkpt lat="49.89986" lon="4.78843">
        <ele>424</ele>
        <time>2021-08-14T09:05:53.000Z</time>
      </trkpt>
      <trkpt lat="49.89986" lon="4.78843">
        <ele>424</ele>
        <time>2021-08-14T09:05:54.000Z</time>
      </trkpt>
      <trkpt lat="49.89986" lon="4.78843">
        <ele>424</ele>
        <time>2021-08-14T09:05:55.000Z</time>
      </trkpt>
      <trkpt lat="49.89986" lon="4.78843">
        <ele>425</ele>
        <time>2021-08-14T09:05:56.000Z</time>
      </trkpt>
      <trkpt lat="49.89986" lon="4.78844">
        <ele>425</ele>
        <time>2021-08-14T09:05:57.000Z</time>
      </trkpt>
      <trkpt lat="49.89986" lon="4.78844">
        <ele>425</ele>
        <time>2021-08-14T09:05:58.000Z</time>
      </trkpt>
      <trkpt lat="49.89986" lon="4.78844">
        <ele>425</ele>
        <time>2021-08-14T09:05:59.000Z</time>
      </trkpt>
      <trkpt lat="49.89986" lon="4.78843">
        <ele>425</ele>
        <time>2021-08-14T09:06:00.000Z</time>
      </trkpt>
      <trkpt lat="49.89986" lon="4.78843">
        <ele>425</ele>
        <time>2021-08-14T09:06:01.000Z</time>
      </trkpt>
      <trkpt lat="49.89986" lon="4.78843">
        <ele>425</ele>
        <time>2021-08-14T09:06:02.000Z</time>
      </trkpt>
      <trkpt lat="49.89985" lon="4.78843">
        <ele>425</ele>
        <time>2021-08-14T09:06:03.000Z</time>
      </trkpt>
      <trkpt lat="49.89985" lon="4.78842">
        <ele>425</ele>
        <time>2021-08-14T09:06:04.000Z</time>
      </trkpt>
      <trkpt lat="49.89984" lon="4.78841">
        <ele>425</ele>
        <time>2021-08-14T09:06:05.000Z</time>
      </trkpt>
      <trkpt lat="49.89983" lon="4.7884">
        <ele>425</ele>
        <time>2021-08-14T09:06:06.000Z</time>
      </trkpt>
      <trkpt lat="49.89983" lon="4.78839">
        <ele>425</ele>
        <time>2021-08-14T09:06:07.000Z</time>
      </trkpt>
      <trkpt lat="49.89983" lon="4.78839">
        <ele>426</ele>
        <time>2021-08-14T09:06:08.000Z</time>
      </trkpt>
      <trkpt lat="49.89983" lon="4.78838">
        <ele>426</ele>
        <time>2021-08-14T09:06:09.000Z</time>
      </trkpt>
      <trkpt lat="49.89983" lon="4.78838">
        <ele>426</ele>
        <time>2021-08-14T09:06:10.000Z</time>
      </trkpt>
      <trkpt lat="49.89983" lon="4.78838">
        <ele>426</ele>
        <time>2021-08-14T09:06:11.000Z</time>
      </trkpt>
      <trkpt lat="49.89982" lon="4.78838">
        <ele>426</ele>
        <time>2021-08-14T09:06:12.000Z</time>
      </trkpt>
      <trkpt lat="49.89982" lon="4.78838">
        <ele>426</ele>
        <time>2021-08-14T09:06:13.000Z</time>
      </trkpt>
      <trkpt lat="49.89982" lon="4.78838">
        <ele>426</ele>
        <time>2021-08-14T09:06:14.000Z</time>
      </trkpt>
      <trkpt lat="49.89982" lon="4.78838">
        <ele>426</ele>
        <time>2021-08-14T09:06:15.000Z</time>
      </trkpt>
      <trkpt lat="49.89982" lon="4.78838">
        <ele>426</ele>
        <time>2021-08-14T09:06:16.000Z</time>
      </trkpt>
      <trkpt lat="49.89982" lon="4.78838">
        <ele>426</ele>
        <time>2021-08-14T09:06:17.000Z</time>
      </trkpt>
      <trkpt lat="49.89981" lon="4.78838">
        <ele>426</ele>
        <time>2021-08-14T09:06:18.000Z</time>
      </trkpt>
      <trkpt lat="49.89981" lon="4.78838">
        <ele>426</ele>
        <time>2021-08-14T09:06:19.000Z</time>
      </trkpt>
      <trkpt lat="49.89981" lon="4.78838">
        <ele>426</ele>
        <time>2021-08-14T09:06:20.000Z</time>
      </trkpt>
      <trkpt lat="49.89981" lon="4.78838">
        <ele>426</ele>
        <time>2021-08-14T09:06:21.000Z</time>
      </trkpt>
      <trkpt lat="49.89981" lon="4.78838">
        <ele>426</ele>
        <time>2021-08-14T09:06:22.000Z</time>
      </trkpt>
      <trkpt lat="49.89981" lon="4.78838">
        <ele>426</ele>
        <time>2021-08-14T09:06:23.000Z</time>
      </trkpt>
      <trkpt lat="49.8998" lon="4.78838">
        <ele>426</ele>
        <time>2021-08-14T09:06:24.000Z</time>
      </trkpt>
      <trkpt lat="49.8998" lon="4.78838">
        <ele>426</ele>
        <time>2021-08-14T09:06:25.000Z</time>
      </trkpt>
      <trkpt lat="49.8998" lon="4.78838">
        <ele>426</ele>
        <time>2021-08-14T09:06:26.000Z</time>
      </trkpt>
      <trkpt lat="49.8998" lon="4.78838">
        <ele>426</ele>
        <time>2021-08-14T09:06:27.000Z</time>
      </trkpt>
      <trkpt lat="49.8998" lon="4.78837">
        <ele>426</ele>
        <time>2021-08-14T09:06:28.000Z</time>
      </trkpt>
      <trkpt lat="49.8998" lon="4.78837">
        <ele>426</ele>
        <time>2021-08-14T09:06:29.000Z</time>
      </trkpt>
      <trkpt lat="49.8998" lon="4.78837">
        <ele>426</ele>
        <time>2021-08-14T09:06:30.000Z</time>
      </trkpt>
      <trkpt lat="49.8998" lon="4.78837">
        <ele>426</ele>
        <time>2021-08-14T09:06:31.000Z</time>
      </trkpt>
      <trkpt lat="49.8998" lon="4.78837">
        <ele>426</ele>
        <time>2021-08-14T09:06:32.000Z</time>
      </trkpt>
      <trkpt lat="49.8998" lon="4.78837">
        <ele>426</ele>
        <time>2021-08-14T09:06:33.000Z</time>
      </trkpt>
      <trkpt lat="49.8998" lon="4.78837">
        <ele>426</ele>
        <time>2021-08-14T09:06:34.000Z</time>
      </trkpt>
      <trkpt lat="49.89979" lon="4.78837">
        <ele>426</ele>
        <time>2021-08-14T09:06:35.000Z</time>
      </trkpt>
      <trkpt lat="49.89979" lon="4.78837">
        <ele>426</ele>
        <time>2021-08-14T09:06:36.000Z</time>
      </trkpt>
      <trkpt lat="49.89979" lon="4.78837">
        <ele>426</ele>
        <time>2021-08-14T09:06:37.000Z</time>
      </trkpt>
      <trkpt lat="49.89979" lon="4.78837">
        <ele>426</ele>
        <time>2021-08-14T09:06:38.000Z</time>
      </trkpt>
      <trkpt lat="49.89979" lon="4.78837">
        <ele>426</ele>
        <time>2021-08-14T09:06:39.000Z</time>
      </trkpt>
      <trkpt lat="49.89979" lon="4.78837">
        <ele>426</ele>
        <time>2021-08-14T09:06:40.000Z</time>
      </trkpt>
      <trkpt lat="49.89979" lon="4.78837">
        <ele>426</ele>
        <time>2021-08-14T09:06:41.000Z</time>
      </trkpt>
      <trkpt lat="49.89979" lon="4.78837">
        <ele>426</ele>
        <time>2021-08-14T09:06:42.000Z</time>
      </trkpt>
      <trkpt lat="49.89979" lon="4.78837">
        <ele>426</ele>
        <time>2021-08-14T09:06:43.000Z</time>
      </trkpt>
      <trkpt lat="49.89978" lon="4.78837">
        <ele>426</ele>
        <time>2021-08-14T09:06:44.000Z</time>
      </trkpt>
      <trkpt lat="49.89978" lon="4.78836">
        <ele>426</ele>
        <time>2021-08-14T09:06:45.000Z</time>
      </trkpt>
      <trkpt lat="49.89977" lon="4.78834">
        <ele>426</ele>
        <time>2021-08-14T09:06:46.000Z</time>
      </trkpt>
      <trkpt lat="49.89976" lon="4.78832">
        <ele>426</ele>
        <time>2021-08-14T09:06:47.000Z</time>
      </trkpt>
      <trkpt lat="49.89974" lon="4.78829">
        <ele>426</ele>
        <time>2021-08-14T09:06:48.000Z</time>
      </trkpt>
      <trkpt lat="49.89973" lon="4.78827">
        <ele>426</ele>
        <time>2021-08-14T09:06:49.000Z</time>
      </trkpt>
      <trkpt lat="49.89972" lon="4.78825">
        <ele>426</ele>
        <time>2021-08-14T09:06:50.000Z</time>
      </trkpt>
      <trkpt lat="49.8997" lon="4.78822">
        <ele>426</ele>
        <time>2021-08-14T09:06:51.000Z</time>
      </trkpt>
      <trkpt lat="49.89968" lon="4.78818">
        <ele>426</ele>
        <time>2021-08-14T09:06:52.000Z</time>
      </trkpt>
      <trkpt lat="49.89966" lon="4.78815">
        <ele>426</ele>
        <time>2021-08-14T09:06:53.000Z</time>
      </trkpt>
      <trkpt lat="49.89964" lon="4.78811">
        <ele>426</ele>
        <time>2021-08-14T09:06:54.000Z</time>
      </trkpt>
      <trkpt lat="49.89961" lon="4.78807">
        <ele>426</ele>
        <time>2021-08-14T09:06:55.000Z</time>
      </trkpt>
      <trkpt lat="49.89959" lon="4.78803">
        <ele>426</ele>
        <time>2021-08-14T09:06:56.000Z</time>
      </trkpt>
      <trkpt lat="49.89956" lon="4.78799">
        <ele>426</ele>
        <time>2021-08-14T09:06:57.000Z</time>
      </trkpt>
      <trkpt lat="49.89953" lon="4.78794">
        <ele>426</ele>
        <time>2021-08-14T09:06:58.000Z</time>
      </trkpt>
      <trkpt lat="49.8995" lon="4.78789">
        <ele>426</ele>
        <time>2021-08-14T09:06:59.000Z</time>
      </trkpt>
      <trkpt lat="49.89947" lon="4.78785">
        <ele>426</ele>
        <time>2021-08-14T09:07:00.000Z</time>
      </trkpt>
      <trkpt lat="49.89944" lon="4.7878">
        <ele>426</ele>
        <time>2021-08-14T09:07:01.000Z</time>
      </trkpt>
      <trkpt lat="49.8994" lon="4.78775">
        <ele>426</ele>
        <time>2021-08-14T09:07:02.000Z</time>
      </trkpt>
      <trkpt lat="49.89936" lon="4.78772">
        <ele>425</ele>
        <time>2021-08-14T09:07:03.000Z</time>
      </trkpt>
      <trkpt lat="49.89933" lon="4.78768">
        <ele>425</ele>
        <time>2021-08-14T09:07:04.000Z</time>
      </trkpt>
      <trkpt lat="49.89928" lon="4.78764">
        <ele>425</ele>
        <time>2021-08-14T09:07:05.000Z</time>
      </trkpt>
      <trkpt lat="49.89924" lon="4.7876">
        <ele>425</ele>
        <time>2021-08-14T09:07:06.000Z</time>
      </trkpt>
      <trkpt lat="49.89919" lon="4.78756">
        <ele>425</ele>
        <time>2021-08-14T09:07:07.000Z</time>
      </trkpt>
      <trkpt lat="49.89915" lon="4.78751">
        <ele>425</ele>
        <time>2021-08-14T09:07:08.000Z</time>
      </trkpt>
      <trkpt lat="49.8991" lon="4.78746">
        <ele>425</ele>
        <time>2021-08-14T09:07:09.000Z</time>
      </trkpt>
      <trkpt lat="49.89906" lon="4.78741">
        <ele>425</ele>
        <time>2021-08-14T09:07:10.000Z</time>
      </trkpt>
      <trkpt lat="49.89902" lon="4.78737">
        <ele>425</ele>
        <time>2021-08-14T09:07:11.000Z</time>
      </trkpt>
      <trkpt lat="49.89898" lon="4.78732">
        <ele>424</ele>
        <time>2021-08-14T09:07:12.000Z</time>
      </trkpt>
      <trkpt lat="49.89893" lon="4.78728">
        <ele>424</ele>
        <time>2021-08-14T09:07:13.000Z</time>
      </trkpt>
      <trkpt lat="49.89888" lon="4.78724">
        <ele>424</ele>
        <time>2021-08-14T09:07:14.000Z</time>
      </trkpt>
      <trkpt lat="49.89884" lon="4.7872">
        <ele>424</ele>
        <time>2021-08-14T09:07:15.000Z</time>
      </trkpt>
      <trkpt lat="49.8988" lon="4.78715">
        <ele>424</ele>
        <time>2021-08-14T09:07:16.000Z</time>
      </trkpt>
      <trkpt lat="49.89877" lon="4.7871">
        <ele>424</ele>
        <time>2021-08-14T09:07:17.000Z</time>
      </trkpt>
      <trkpt lat="49.89873" lon="4.78704">
        <ele>423</ele>
        <time>2021-08-14T09:07:18.000Z</time>
      </trkpt>
      <trkpt lat="49.89869" lon="4.78698">
        <ele>423</ele>
        <time>2021-08-14T09:07:19.000Z</time>
      </trkpt>
      <trkpt lat="49.89866" lon="4.78693">
        <ele>423</ele>
        <time>2021-08-14T09:07:20.000Z</time>
      </trkpt>
      <trkpt lat="49.89863" lon="4.78688">
        <ele>423</ele>
        <time>2021-08-14T09:07:21.000Z</time>
      </trkpt>
      <trkpt lat="49.89859" lon="4.78685">
        <ele>423</ele>
        <time>2021-08-14T09:07:22.000Z</time>
      </trkpt>
      <trkpt lat="49.89854" lon="4.78681">
        <ele>423</ele>
        <time>2021-08-14T09:07:23.000Z</time>
      </trkpt>
      <trkpt lat="49.8985" lon="4.78677">
        <ele>423</ele>
        <time>2021-08-14T09:07:24.000Z</time>
      </trkpt>
      <trkpt lat="49.89845" lon="4.78674">
        <ele>422</ele>
        <time>2021-08-14T09:07:25.000Z</time>
      </trkpt>
      <trkpt lat="49.89842" lon="4.7867">
        <ele>422</ele>
        <time>2021-08-14T09:07:26.000Z</time>
      </trkpt>
      <trkpt lat="49.89838" lon="4.78666">
        <ele>422</ele>
        <time>2021-08-14T09:07:27.000Z</time>
      </trkpt>
      <trkpt lat="49.89835" lon="4.78662">
        <ele>422</ele>
        <time>2021-08-14T09:07:28.000Z</time>
      </trkpt>
      <trkpt lat="49.89831" lon="4.78658">
        <ele>422</ele>
        <time>2021-08-14T09:07:29.000Z</time>
      </trkpt>
      <trkpt lat="49.89826" lon="4.78654">
        <ele>422</ele>
        <time>2021-08-14T09:07:30.000Z</time>
      </trkpt>
      <trkpt lat="49.89822" lon="4.7865">
        <ele>422</ele>
        <time>2021-08-14T09:07:31.000Z</time>
      </trkpt>
      <trkpt lat="49.89817" lon="4.78646">
        <ele>421</ele>
        <time>2021-08-14T09:07:32.000Z</time>
      </trkpt>
      <trkpt lat="49.89812" lon="4.78642">
        <ele>421</ele>
        <time>2021-08-14T09:07:33.000Z</time>
      </trkpt>
      <trkpt lat="49.89807" lon="4.78638">
        <ele>421</ele>
        <time>2021-08-14T09:07:34.000Z</time>
      </trkpt>
      <trkpt lat="49.89802" lon="4.78634">
        <ele>421</ele>
        <time>2021-08-14T09:07:35.000Z</time>
      </trkpt>
      <trkpt lat="49.89798" lon="4.7863">
        <ele>420</ele>
        <time>2021-08-14T09:07:36.000Z</time>
      </trkpt>
      <trkpt lat="49.89793" lon="4.78627">
        <ele>420</ele>
        <time>2021-08-14T09:07:37.000Z</time>
      </trkpt>
      <trkpt lat="49.89789" lon="4.78623">
        <ele>420</ele>
        <time>2021-08-14T09:07:38.000Z</time>
      </trkpt>
      <trkpt lat="49.89784" lon="4.78619">
        <ele>420</ele>
        <time>2021-08-14T09:07:39.000Z</time>
      </trkpt>
      <trkpt lat="49.8978" lon="4.78615">
        <ele>419</ele>
        <time>2021-08-14T09:07:40.000Z</time>
      </trkpt>
      <trkpt lat="49.89775" lon="4.78612">
        <ele>419</ele>
        <time>2021-08-14T09:07:41.000Z</time>
      </trkpt>
      <trkpt lat="49.8977" lon="4.78608">
        <ele>419</ele>
        <time>2021-08-14T09:07:42.000Z</time>
      </trkpt>
      <trkpt lat="49.89765" lon="4.78605">
        <ele>419</ele>
        <time>2021-08-14T09:07:43.000Z</time>
      </trkpt>
      <trkpt lat="49.8976" lon="4.78602">
        <ele>419</ele>
        <time>2021-08-14T09:07:44.000Z</time>
      </trkpt>
      <trkpt lat="49.89756" lon="4.78599">
        <ele>419</ele>
        <time>2021-08-14T09:07:45.000Z</time>
      </trkpt>
      <trkpt lat="49.89751" lon="4.78596">
        <ele>418</ele>
        <time>2021-08-14T09:07:46.000Z</time>
      </trkpt>
      <trkpt lat="49.89747" lon="4.78593">
        <ele>418</ele>
        <time>2021-08-14T09:07:47.000Z</time>
      </trkpt>
      <trkpt lat="49.89742" lon="4.7859">
        <ele>418</ele>
        <time>2021-08-14T09:07:48.000Z</time>
      </trkpt>
      <trkpt lat="49.89737" lon="4.78587">
        <ele>418</ele>
        <time>2021-08-14T09:07:49.000Z</time>
      </trkpt>
      <trkpt lat="49.89732" lon="4.78583">
        <ele>418</ele>
        <time>2021-08-14T09:07:50.000Z</time>
      </trkpt>
      <trkpt lat="49.89727" lon="4.78579">
        <ele>418</ele>
        <time>2021-08-14T09:07:51.000Z</time>
      </trkpt>
      <trkpt lat="49.89722" lon="4.78576">
        <ele>417</ele>
        <time>2021-08-14T09:07:52.000Z</time>
      </trkpt>
      <trkpt lat="49.89717" lon="4.78572">
        <ele>417</ele>
        <time>2021-08-14T09:07:53.000Z</time>
      </trkpt>
      <trkpt lat="49.89712" lon="4.78569">
        <ele>417</ele>
        <time>2021-08-14T09:07:54.000Z</time>
      </trkpt>
      <trkpt lat="49.89707" lon="4.78564">
        <ele>417</ele>
        <time>2021-08-14T09:07:55.000Z</time>
      </trkpt>
      <trkpt lat="49.89702" lon="4.7856">
        <ele>417</ele>
        <time>2021-08-14T09:07:56.000Z</time>
      </trkpt>
      <trkpt lat="49.89697" lon="4.78555">
        <ele>416</ele>
        <time>2021-08-14T09:07:57.000Z</time>
      </trkpt>
      <trkpt lat="49.89693" lon="4.7855">
        <ele>416</ele>
        <time>2021-08-14T09:07:58.000Z</time>
      </trkpt>
      <trkpt lat="49.89688" lon="4.78545">
        <ele>416</ele>
        <time>2021-08-14T09:07:59.000Z</time>
      </trkpt>
      <trkpt lat="49.89683" lon="4.7854">
        <ele>415</ele>
        <time>2021-08-14T09:08:00.000Z</time>
      </trkpt>
      <trkpt lat="49.89678" lon="4.78535">
        <ele>415</ele>
        <time>2021-08-14T09:08:01.000Z</time>
      </trkpt>
      <trkpt lat="49.89673" lon="4.7853">
        <ele>414</ele>
        <time>2021-08-14T09:08:02.000Z</time>
      </trkpt>
      <trkpt lat="49.89669" lon="4.78525">
        <ele>414</ele>
        <time>2021-08-14T09:08:03.000Z</time>
      </trkpt>
      <trkpt lat="49.89664" lon="4.7852">
        <ele>413</ele>
        <time>2021-08-14T09:08:04.000Z</time>
      </trkpt>
      <trkpt lat="49.8966" lon="4.78516">
        <ele>413</ele>
        <time>2021-08-14T09:08:05.000Z</time>
      </trkpt>
      <trkpt lat="49.89656" lon="4.78511">
        <ele>413</ele>
        <time>2021-08-14T09:08:06.000Z</time>
      </trkpt>
      <trkpt lat="49.89652" lon="4.78507">
        <ele>413</ele>
        <time>2021-08-14T09:08:07.000Z</time>
      </trkpt>
      <trkpt lat="49.89648" lon="4.78502">
        <ele>412</ele>
        <time>2021-08-14T09:08:08.000Z</time>
      </trkpt>
      <trkpt lat="49.89645" lon="4.78497">
        <ele>412</ele>
        <time>2021-08-14T09:08:09.000Z</time>
      </trkpt>
      <trkpt lat="49.89643" lon="4.78492">
        <ele>412</ele>
        <time>2021-08-14T09:08:10.000Z</time>
      </trkpt>
      <trkpt lat="49.8964" lon="4.78486">
        <ele>412</ele>
        <time>2021-08-14T09:08:11.000Z</time>
      </trkpt>
      <trkpt lat="49.89639" lon="4.78481">
        <ele>412</ele>
        <time>2021-08-14T09:08:12.000Z</time>
      </trkpt>
      <trkpt lat="49.89638" lon="4.78475">
        <ele>412</ele>
        <time>2021-08-14T09:08:13.000Z</time>
      </trkpt>
      <trkpt lat="49.89637" lon="4.7847">
        <ele>411</ele>
        <time>2021-08-14T09:08:14.000Z</time>
      </trkpt>
      <trkpt lat="49.89636" lon="4.78464">
        <ele>411</ele>
        <time>2021-08-14T09:08:15.000Z</time>
      </trkpt>
      <trkpt lat="49.89635" lon="4.78459">
        <ele>411</ele>
        <time>2021-08-14T09:08:16.000Z</time>
      </trkpt>
      <trkpt lat="49.89635" lon="4.78454">
        <ele>411</ele>
        <time>2021-08-14T09:08:17.000Z</time>
      </trkpt>
      <trkpt lat="49.89634" lon="4.7845">
        <ele>411</ele>
        <time>2021-08-14T09:08:18.000Z</time>
      </trkpt>
      <trkpt lat="49.89633" lon="4.78447">
        <ele>411</ele>
        <time>2021-08-14T09:08:19.000Z</time>
      </trkpt>
      <trkpt lat="49.8963" lon="4.78446">
        <ele>411</ele>
        <time>2021-08-14T09:08:20.000Z</time>
      </trkpt>
      <trkpt lat="49.89628" lon="4.78443">
        <ele>411</ele>
        <time>2021-08-14T09:08:21.000Z</time>
      </trkpt>
      <trkpt lat="49.89624" lon="4.78441">
        <ele>411</ele>
        <time>2021-08-14T09:08:22.000Z</time>
      </trkpt>
      <trkpt lat="49.8962" lon="4.78439">
        <ele>411</ele>
        <time>2021-08-14T09:08:23.000Z</time>
      </trkpt>
      <trkpt lat="49.89618" lon="4.78437">
        <ele>411</ele>
        <time>2021-08-14T09:08:24.000Z</time>
      </trkpt>
      <trkpt lat="49.89614" lon="4.78435">
        <ele>411</ele>
        <time>2021-08-14T09:08:25.000Z</time>
      </trkpt>
      <trkpt lat="49.89611" lon="4.78433">
        <ele>411</ele>
        <time>2021-08-14T09:08:26.000Z</time>
      </trkpt>
      <trkpt lat="49.89608" lon="4.78432">
        <ele>411</ele>
        <time>2021-08-14T09:08:27.000Z</time>
      </trkpt>
      <trkpt lat="49.89605" lon="4.78429">
        <ele>411</ele>
        <time>2021-08-14T09:08:28.000Z</time>
      </trkpt>
      <trkpt lat="49.89602" lon="4.78427">
        <ele>411</ele>
        <time>2021-08-14T09:08:29.000Z</time>
      </trkpt>
      <trkpt lat="49.89599" lon="4.78424">
        <ele>411</ele>
        <time>2021-08-14T09:08:30.000Z</time>
      </trkpt>
      <trkpt lat="49.89596" lon="4.78421">
        <ele>411</ele>
        <time>2021-08-14T09:08:31.000Z</time>
      </trkpt>
      <trkpt lat="49.89594" lon="4.78419">
        <ele>411</ele>
        <time>2021-08-14T09:08:32.000Z</time>
      </trkpt>
      <trkpt lat="49.89592" lon="4.78416">
        <ele>411</ele>
        <time>2021-08-14T09:08:33.000Z</time>
      </trkpt>
      <trkpt lat="49.8959" lon="4.78413">
        <ele>411</ele>
        <time>2021-08-14T09:08:34.000Z</time>
      </trkpt>
      <trkpt lat="49.89589" lon="4.78411">
        <ele>411</ele>
        <time>2021-08-14T09:08:35.000Z</time>
      </trkpt>
      <trkpt lat="49.89588" lon="4.78409">
        <ele>411</ele>
        <time>2021-08-14T09:08:36.000Z</time>
      </trkpt>
      <trkpt lat="49.89586" lon="4.78406">
        <ele>411</ele>
        <time>2021-08-14T09:08:37.000Z</time>
      </trkpt>
      <trkpt lat="49.89585" lon="4.78404">
        <ele>411</ele>
        <time>2021-08-14T09:08:38.000Z</time>
      </trkpt>
      <trkpt lat="49.89583" lon="4.78401">
        <ele>411</ele>
        <time>2021-08-14T09:08:39.000Z</time>
      </trkpt>
      <trkpt lat="49.89582" lon="4.78399">
        <ele>411</ele>
        <time>2021-08-14T09:08:40.000Z</time>
      </trkpt>
      <trkpt lat="49.8958" lon="4.78397">
        <ele>411</ele>
        <time>2021-08-14T09:08:41.000Z</time>
      </trkpt>
      <trkpt lat="49.89579" lon="4.78394">
        <ele>411</ele>
        <time>2021-08-14T09:08:42.000Z</time>
      </trkpt>
      <trkpt lat="49.89577" lon="4.78391">
        <ele>411</ele>
        <time>2021-08-14T09:08:43.000Z</time>
      </trkpt>
      <trkpt lat="49.89576" lon="4.78389">
        <ele>411</ele>
        <time>2021-08-14T09:08:44.000Z</time>
      </trkpt>
      <trkpt lat="49.89575" lon="4.78387">
        <ele>412</ele>
        <time>2021-08-14T09:08:45.000Z</time>
      </trkpt>
      <trkpt lat="49.89574" lon="4.78384">
        <ele>412</ele>
        <time>2021-08-14T09:08:46.000Z</time>
      </trkpt>
      <trkpt lat="49.89574" lon="4.78382">
        <ele>412</ele>
        <time>2021-08-14T09:08:47.000Z</time>
      </trkpt>
      <trkpt lat="49.89573" lon="4.7838">
        <ele>412</ele>
        <time>2021-08-14T09:08:48.000Z</time>
      </trkpt>
      <trkpt lat="49.89573" lon="4.78377">
        <ele>412</ele>
        <time>2021-08-14T09:08:49.000Z</time>
      </trkpt>
      <trkpt lat="49.89572" lon="4.78376">
        <ele>413</ele>
        <time>2021-08-14T09:08:50.000Z</time>
      </trkpt>
      <trkpt lat="49.89571" lon="4.78374">
        <ele>413</ele>
        <time>2021-08-14T09:08:51.000Z</time>
      </trkpt>
      <trkpt lat="49.8957" lon="4.78372">
        <ele>413</ele>
        <time>2021-08-14T09:08:52.000Z</time>
      </trkpt>
      <trkpt lat="49.8957" lon="4.78369">
        <ele>414</ele>
        <time>2021-08-14T09:08:53.000Z</time>
      </trkpt>
      <trkpt lat="49.89569" lon="4.78366">
        <ele>414</ele>
        <time>2021-08-14T09:08:54.000Z</time>
      </trkpt>
      <trkpt lat="49.89568" lon="4.78364">
        <ele>414</ele>
        <time>2021-08-14T09:08:55.000Z</time>
      </trkpt>
      <trkpt lat="49.89567" lon="4.78361">
        <ele>414</ele>
        <time>2021-08-14T09:08:56.000Z</time>
      </trkpt>
      <trkpt lat="49.89566" lon="4.78359">
        <ele>415</ele>
        <time>2021-08-14T09:08:57.000Z</time>
      </trkpt>
      <trkpt lat="49.89565" lon="4.78357">
        <ele>415</ele>
        <time>2021-08-14T09:08:58.000Z</time>
      </trkpt>
      <trkpt lat="49.89564" lon="4.78354">
        <ele>415</ele>
        <time>2021-08-14T09:08:59.000Z</time>
      </trkpt>
      <trkpt lat="49.89563" lon="4.78352">
        <ele>415</ele>
        <time>2021-08-14T09:09:00.000Z</time>
      </trkpt>
      <trkpt lat="49.89562" lon="4.7835">
        <ele>415</ele>
        <time>2021-08-14T09:09:01.000Z</time>
      </trkpt>
      <trkpt lat="49.89561" lon="4.78348">
        <ele>415</ele>
        <time>2021-08-14T09:09:02.000Z</time>
      </trkpt>
      <trkpt lat="49.89561" lon="4.78345">
        <ele>416</ele>
        <time>2021-08-14T09:09:03.000Z</time>
      </trkpt>
      <trkpt lat="49.89561" lon="4.78343">
        <ele>416</ele>
        <time>2021-08-14T09:09:04.000Z</time>
      </trkpt>
      <trkpt lat="49.8956" lon="4.7834">
        <ele>416</ele>
        <time>2021-08-14T09:09:05.000Z</time>
      </trkpt>
      <trkpt lat="49.89559" lon="4.78337">
        <ele>416</ele>
        <time>2021-08-14T09:09:06.000Z</time>
      </trkpt>
      <trkpt lat="49.89558" lon="4.78335">
        <ele>416</ele>
        <time>2021-08-14T09:09:07.000Z</time>
      </trkpt>
      <trkpt lat="49.89557" lon="4.78332">
        <ele>417</ele>
        <time>2021-08-14T09:09:08.000Z</time>
      </trkpt>
      <trkpt lat="49.89556" lon="4.78329">
        <ele>417</ele>
        <time>2021-08-14T09:09:09.000Z</time>
      </trkpt>
      <trkpt lat="49.89555" lon="4.78326">
        <ele>417</ele>
        <time>2021-08-14T09:09:10.000Z</time>
      </trkpt>
      <trkpt lat="49.89554" lon="4.78323">
        <ele>417</ele>
        <time>2021-08-14T09:09:11.000Z</time>
      </trkpt>
      <trkpt lat="49.89553" lon="4.78321">
        <ele>417</ele>
        <time>2021-08-14T09:09:12.000Z</time>
      </trkpt>
      <trkpt lat="49.89551" lon="4.78318">
        <ele>417</ele>
        <time>2021-08-14T09:09:13.000Z</time>
      </trkpt>
      <trkpt lat="49.8955" lon="4.78314">
        <ele>417</ele>
        <time>2021-08-14T09:09:14.000Z</time>
      </trkpt>
      <trkpt lat="49.89549" lon="4.78311">
        <ele>417</ele>
        <time>2021-08-14T09:09:15.000Z</time>
      </trkpt>
      <trkpt lat="49.89548" lon="4.78307">
        <ele>418</ele>
        <time>2021-08-14T09:09:16.000Z</time>
      </trkpt>
      <trkpt lat="49.89548" lon="4.78304">
        <ele>418</ele>
        <time>2021-08-14T09:09:17.000Z</time>
      </trkpt>
      <trkpt lat="49.89547" lon="4.783">
        <ele>418</ele>
        <time>2021-08-14T09:09:18.000Z</time>
      </trkpt>
      <trkpt lat="49.89547" lon="4.78297">
        <ele>418</ele>
        <time>2021-08-14T09:09:19.000Z</time>
      </trkpt>
      <trkpt lat="49.89546" lon="4.78293">
        <ele>418</ele>
        <time>2021-08-14T09:09:20.000Z</time>
      </trkpt>
      <trkpt lat="49.89545" lon="4.7829">
        <ele>418</ele>
        <time>2021-08-14T09:09:21.000Z</time>
      </trkpt>
      <trkpt lat="49.89544" lon="4.78288">
        <ele>418</ele>
        <time>2021-08-14T09:09:22.000Z</time>
      </trkpt>
      <trkpt lat="49.89543" lon="4.78285">
        <ele>418</ele>
        <time>2021-08-14T09:09:23.000Z</time>
      </trkpt>
      <trkpt lat="49.89542" lon="4.78282">
        <ele>418</ele>
        <time>2021-08-14T09:09:24.000Z</time>
      </trkpt>
      <trkpt lat="49.89541" lon="4.7828">
        <ele>418</ele>
        <time>2021-08-14T09:09:25.000Z</time>
      </trkpt>
      <trkpt lat="49.8954" lon="4.78277">
        <ele>418</ele>
        <time>2021-08-14T09:09:26.000Z</time>
      </trkpt>
      <trkpt lat="49.8954" lon="4.78274">
        <ele>418</ele>
        <time>2021-08-14T09:09:27.000Z</time>
      </trkpt>
      <trkpt lat="49.8954" lon="4.78271">
        <ele>418</ele>
        <time>2021-08-14T09:09:28.000Z</time>
      </trkpt>
      <trkpt lat="49.8954" lon="4.78268">
        <ele>418</ele>
        <time>2021-08-14T09:09:29.000Z</time>
      </trkpt>
      <trkpt lat="49.8954" lon="4.78264">
        <ele>419</ele>
        <time>2021-08-14T09:09:30.000Z</time>
      </trkpt>
      <trkpt lat="49.8954" lon="4.7826">
        <ele>419</ele>
        <time>2021-08-14T09:09:31.000Z</time>
      </trkpt>
      <trkpt lat="49.89539" lon="4.78257">
        <ele>419</ele>
        <time>2021-08-14T09:09:32.000Z</time>
      </trkpt>
      <trkpt lat="49.89538" lon="4.78254">
        <ele>420</ele>
        <time>2021-08-14T09:09:33.000Z</time>
      </trkpt>
      <trkpt lat="49.89537" lon="4.78251">
        <ele>420</ele>
        <time>2021-08-14T09:09:34.000Z</time>
      </trkpt>
      <trkpt lat="49.89537" lon="4.78248">
        <ele>420</ele>
        <time>2021-08-14T09:09:35.000Z</time>
      </trkpt>
      <trkpt lat="49.89536" lon="4.78245">
        <ele>420</ele>
        <time>2021-08-14T09:09:36.000Z</time>
      </trkpt>
      <trkpt lat="49.89535" lon="4.78242">
        <ele>421</ele>
        <time>2021-08-14T09:09:37.000Z</time>
      </trkpt>
      <trkpt lat="49.89533" lon="4.78238">
        <ele>421</ele>
        <time>2021-08-14T09:09:38.000Z</time>
      </trkpt>
      <trkpt lat="49.89532" lon="4.78234">
        <ele>421</ele>
        <time>2021-08-14T09:09:39.000Z</time>
      </trkpt>
      <trkpt lat="49.89531" lon="4.7823">
        <ele>421</ele>
        <time>2021-08-14T09:09:40.000Z</time>
      </trkpt>
      <trkpt lat="49.89529" lon="4.78226">
        <ele>422</ele>
        <time>2021-08-14T09:09:41.000Z</time>
      </trkpt>
      <trkpt lat="49.89528" lon="4.78222">
        <ele>422</ele>
        <time>2021-08-14T09:09:42.000Z</time>
      </trkpt>
      <trkpt lat="49.89526" lon="4.78218">
        <ele>422</ele>
        <time>2021-08-14T09:09:43.000Z</time>
      </trkpt>
      <trkpt lat="49.89524" lon="4.78214">
        <ele>422</ele>
        <time>2021-08-14T09:09:44.000Z</time>
      </trkpt>
      <trkpt lat="49.89522" lon="4.7821">
        <ele>423</ele>
        <time>2021-08-14T09:09:45.000Z</time>
      </trkpt>
      <trkpt lat="49.8952" lon="4.78206">
        <ele>423</ele>
        <time>2021-08-14T09:09:46.000Z</time>
      </trkpt>
      <trkpt lat="49.89517" lon="4.78202">
        <ele>423</ele>
        <time>2021-08-14T09:09:47.000Z</time>
      </trkpt>
      <trkpt lat="49.89515" lon="4.78198">
        <ele>423</ele>
        <time>2021-08-14T09:09:48.000Z</time>
      </trkpt>
      <trkpt lat="49.89512" lon="4.78196">
        <ele>423</ele>
        <time>2021-08-14T09:09:49.000Z</time>
      </trkpt>
      <trkpt lat="49.8951" lon="4.78195">
        <ele>423</ele>
        <time>2021-08-14T09:09:50.000Z</time>
      </trkpt>
      <trkpt lat="49.89509" lon="4.78193">
        <ele>423</ele>
        <time>2021-08-14T09:09:51.000Z</time>
      </trkpt>
      <trkpt lat="49.89508" lon="4.7819">
        <ele>423</ele>
        <time>2021-08-14T09:09:52.000Z</time>
      </trkpt>
      <trkpt lat="49.89508" lon="4.78186">
        <ele>423</ele>
        <time>2021-08-14T09:09:53.000Z</time>
      </trkpt>
      <trkpt lat="49.89507" lon="4.78181">
        <ele>423</ele>
        <time>2021-08-14T09:09:54.000Z</time>
      </trkpt>
      <trkpt lat="49.89507" lon="4.78177">
        <ele>423</ele>
        <time>2021-08-14T09:09:55.000Z</time>
      </trkpt>
      <trkpt lat="49.89507" lon="4.78172">
        <ele>423</ele>
        <time>2021-08-14T09:09:56.000Z</time>
      </trkpt>
      <trkpt lat="49.89506" lon="4.78167">
        <ele>423</ele>
        <time>2021-08-14T09:09:57.000Z</time>
      </trkpt>
      <trkpt lat="49.89505" lon="4.78162">
        <ele>423</ele>
        <time>2021-08-14T09:09:58.000Z</time>
      </trkpt>
      <trkpt lat="49.89504" lon="4.78156">
        <ele>423</ele>
        <time>2021-08-14T09:09:59.000Z</time>
      </trkpt>
      <trkpt lat="49.89503" lon="4.7815">
        <ele>424</ele>
        <time>2021-08-14T09:10:00.000Z</time>
      </trkpt>
      <trkpt lat="49.89502" lon="4.78145">
        <ele>424</ele>
        <time>2021-08-14T09:10:01.000Z</time>
      </trkpt>
      <trkpt lat="49.895" lon="4.78139">
        <ele>424</ele>
        <time>2021-08-14T09:10:02.000Z</time>
      </trkpt>
      <trkpt lat="49.89498" lon="4.78132">
        <ele>424</ele>
        <time>2021-08-14T09:10:03.000Z</time>
      </trkpt>
      <trkpt lat="49.89496" lon="4.78125">
        <ele>424</ele>
        <time>2021-08-14T09:10:04.000Z</time>
      </trkpt>
      <trkpt lat="49.89494" lon="4.78118">
        <ele>424</ele>
        <time>2021-08-14T09:10:05.000Z</time>
      </trkpt>
      <trkpt lat="49.89492" lon="4.78111">
        <ele>424</ele>
        <time>2021-08-14T09:10:06.000Z</time>
      </trkpt>
      <trkpt lat="49.8949" lon="4.78104">
        <ele>425</ele>
        <time>2021-08-14T09:10:07.000Z</time>
      </trkpt>
      <trkpt lat="49.89489" lon="4.78097">
        <ele>425</ele>
        <time>2021-08-14T09:10:08.000Z</time>
      </trkpt>
      <trkpt lat="49.89486" lon="4.7809">
        <ele>425</ele>
        <time>2021-08-14T09:10:09.000Z</time>
      </trkpt>
      <trkpt lat="49.89484" lon="4.78084">
        <ele>425</ele>
        <time>2021-08-14T09:10:10.000Z</time>
      </trkpt>
      <trkpt lat="49.89481" lon="4.78077">
        <ele>425</ele>
        <time>2021-08-14T09:10:11.000Z</time>
      </trkpt>
      <trkpt lat="49.89478" lon="4.78069">
        <ele>425</ele>
        <time>2021-08-14T09:10:12.000Z</time>
      </trkpt>
      <trkpt lat="49.89476" lon="4.78061">
        <ele>426</ele>
        <time>2021-08-14T09:10:13.000Z</time>
      </trkpt>
      <trkpt lat="49.89474" lon="4.78052">
        <ele>426</ele>
        <time>2021-08-14T09:10:14.000Z</time>
      </trkpt>
      <trkpt lat="49.89471" lon="4.78043">
        <ele>426</ele>
        <time>2021-08-14T09:10:15.000Z</time>
      </trkpt>
      <trkpt lat="49.89469" lon="4.78034">
        <ele>426</ele>
        <time>2021-08-14T09:10:16.000Z</time>
      </trkpt>
      <trkpt lat="49.89467" lon="4.78027">
        <ele>426</ele>
        <time>2021-08-14T09:10:17.000Z</time>
      </trkpt>
      <trkpt lat="49.89466" lon="4.7802">
        <ele>426</ele>
        <time>2021-08-14T09:10:18.000Z</time>
      </trkpt>
      <trkpt lat="49.89464" lon="4.78013">
        <ele>426</ele>
        <time>2021-08-14T09:10:19.000Z</time>
      </trkpt>
      <trkpt lat="49.89461" lon="4.78006">
        <ele>426</ele>
        <time>2021-08-14T09:10:20.000Z</time>
      </trkpt>
      <trkpt lat="49.89459" lon="4.77999">
        <ele>425</ele>
        <time>2021-08-14T09:10:21.000Z</time>
      </trkpt>
      <trkpt lat="49.89458" lon="4.77994">
        <ele>425</ele>
        <time>2021-08-14T09:10:22.000Z</time>
      </trkpt>
      <trkpt lat="49.89457" lon="4.77988">
        <ele>425</ele>
        <time>2021-08-14T09:10:23.000Z</time>
      </trkpt>
      <trkpt lat="49.89456" lon="4.77983">
        <ele>425</ele>
        <time>2021-08-14T09:10:24.000Z</time>
      </trkpt>
      <trkpt lat="49.89454" lon="4.77978">
        <ele>425</ele>
        <time>2021-08-14T09:10:25.000Z</time>
      </trkpt>
      <trkpt lat="49.89453" lon="4.77973">
        <ele>425</ele>
        <time>2021-08-14T09:10:26.000Z</time>
      </trkpt>
      <trkpt lat="49.89453" lon="4.77967">
        <ele>425</ele>
        <time>2021-08-14T09:10:27.000Z</time>
      </trkpt>
      <trkpt lat="49.89452" lon="4.77959">
        <ele>425</ele>
        <time>2021-08-14T09:10:28.000Z</time>
      </trkpt>
      <trkpt lat="49.89451" lon="4.77952">
        <ele>425</ele>
        <time>2021-08-14T09:10:29.000Z</time>
      </trkpt>
      <trkpt lat="49.8945" lon="4.77945">
        <ele>425</ele>
        <time>2021-08-14T09:10:30.000Z</time>
      </trkpt>
      <trkpt lat="49.8945" lon="4.77938">
        <ele>425</ele>
        <time>2021-08-14T09:10:31.000Z</time>
      </trkpt>
      <trkpt lat="49.89449" lon="4.7793">
        <ele>424</ele>
        <time>2021-08-14T09:10:32.000Z</time>
      </trkpt>
      <trkpt lat="49.89449" lon="4.77922">
        <ele>424</ele>
        <time>2021-08-14T09:10:33.000Z</time>
      </trkpt>
      <trkpt lat="49.89448" lon="4.77915">
        <ele>424</ele>
        <time>2021-08-14T09:10:34.000Z</time>
      </trkpt>
      <trkpt lat="49.89446" lon="4.77908">
        <ele>424</ele>
        <time>2021-08-14T09:10:35.000Z</time>
      </trkpt>
      <trkpt lat="49.89444" lon="4.77901">
        <ele>424</ele>
        <time>2021-08-14T09:10:36.000Z</time>
      </trkpt>
      <trkpt lat="49.89443" lon="4.77894">
        <ele>423</ele>
        <time>2021-08-14T09:10:37.000Z</time>
      </trkpt>
      <trkpt lat="49.89441" lon="4.77887">
        <ele>423</ele>
        <time>2021-08-14T09:10:38.000Z</time>
      </trkpt>
      <trkpt lat="49.89438" lon="4.7788">
        <ele>423</ele>
        <time>2021-08-14T09:10:39.000Z</time>
      </trkpt>
      <trkpt lat="49.89435" lon="4.77873">
        <ele>422</ele>
        <time>2021-08-14T09:10:40.000Z</time>
      </trkpt>
      <trkpt lat="49.89433" lon="4.77866">
        <ele>422</ele>
        <time>2021-08-14T09:10:41.000Z</time>
      </trkpt>
      <trkpt lat="49.89431" lon="4.7786">
        <ele>422</ele>
        <time>2021-08-14T09:10:42.000Z</time>
      </trkpt>
      <trkpt lat="49.89429" lon="4.77852">
        <ele>421</ele>
        <time>2021-08-14T09:10:43.000Z</time>
      </trkpt>
      <trkpt lat="49.89429" lon="4.77844">
        <ele>421</ele>
        <time>2021-08-14T09:10:44.000Z</time>
      </trkpt>
      <trkpt lat="49.89428" lon="4.77837">
        <ele>420</ele>
        <time>2021-08-14T09:10:45.000Z</time>
      </trkpt>
      <trkpt lat="49.89426" lon="4.77829">
        <ele>420</ele>
        <time>2021-08-14T09:10:46.000Z</time>
      </trkpt>
      <trkpt lat="49.89426" lon="4.77822">
        <ele>419</ele>
        <time>2021-08-14T09:10:47.000Z</time>
      </trkpt>
      <trkpt lat="49.89424" lon="4.77815">
        <ele>419</ele>
        <time>2021-08-14T09:10:48.000Z</time>
      </trkpt>
      <trkpt lat="49.89423" lon="4.7781">
        <ele>419</ele>
        <time>2021-08-14T09:10:49.000Z</time>
      </trkpt>
      <trkpt lat="49.89421" lon="4.77803">
        <ele>418</ele>
        <time>2021-08-14T09:10:50.000Z</time>
      </trkpt>
      <trkpt lat="49.89419" lon="4.77797">
        <ele>418</ele>
        <time>2021-08-14T09:10:51.000Z</time>
      </trkpt>
      <trkpt lat="49.89418" lon="4.77791">
        <ele>417</ele>
        <time>2021-08-14T09:10:52.000Z</time>
      </trkpt>
      <trkpt lat="49.89418" lon="4.77786">
        <ele>417</ele>
        <time>2021-08-14T09:10:53.000Z</time>
      </trkpt>
      <trkpt lat="49.89418" lon="4.77782">
        <ele>416</ele>
        <time>2021-08-14T09:10:54.000Z</time>
      </trkpt>
      <trkpt lat="49.89419" lon="4.77779">
        <ele>416</ele>
        <time>2021-08-14T09:10:55.000Z</time>
      </trkpt>
      <trkpt lat="49.8942" lon="4.77777">
        <ele>416</ele>
        <time>2021-08-14T09:10:56.000Z</time>
      </trkpt>
      <trkpt lat="49.89421" lon="4.77775">
        <ele>415</ele>
        <time>2021-08-14T09:10:57.000Z</time>
      </trkpt>
      <trkpt lat="49.89423" lon="4.77774">
        <ele>415</ele>
        <time>2021-08-14T09:10:58.000Z</time>
      </trkpt>
      <trkpt lat="49.89424" lon="4.77771">
        <ele>415</ele>
        <time>2021-08-14T09:10:59.000Z</time>
      </trkpt>
      <trkpt lat="49.89425" lon="4.77766">
        <ele>414</ele>
        <time>2021-08-14T09:11:00.000Z</time>
      </trkpt>
      <trkpt lat="49.89427" lon="4.77761">
        <ele>414</ele>
        <time>2021-08-14T09:11:01.000Z</time>
      </trkpt>
      <trkpt lat="49.89427" lon="4.77756">
        <ele>414</ele>
        <time>2021-08-14T09:11:02.000Z</time>
      </trkpt>
      <trkpt lat="49.89427" lon="4.7775">
        <ele>413</ele>
        <time>2021-08-14T09:11:03.000Z</time>
      </trkpt>
      <trkpt lat="49.89425" lon="4.77744">
        <ele>413</ele>
        <time>2021-08-14T09:11:04.000Z</time>
      </trkpt>
      <trkpt lat="49.89424" lon="4.77738">
        <ele>413</ele>
        <time>2021-08-14T09:11:05.000Z</time>
      </trkpt>
      <trkpt lat="49.89421" lon="4.77732">
        <ele>413</ele>
        <time>2021-08-14T09:11:06.000Z</time>
      </trkpt>
      <trkpt lat="49.8942" lon="4.77724">
        <ele>412</ele>
        <time>2021-08-14T09:11:07.000Z</time>
      </trkpt>
      <trkpt lat="49.89418" lon="4.77717">
        <ele>412</ele>
        <time>2021-08-14T09:11:08.000Z</time>
      </trkpt>
      <trkpt lat="49.89416" lon="4.77709">
        <ele>411</ele>
        <time>2021-08-14T09:11:09.000Z</time>
      </trkpt>
      <trkpt lat="49.89414" lon="4.77702">
        <ele>411</ele>
        <time>2021-08-14T09:11:10.000Z</time>
      </trkpt>
      <trkpt lat="49.89412" lon="4.77696">
        <ele>410</ele>
        <time>2021-08-14T09:11:11.000Z</time>
      </trkpt>
      <trkpt lat="49.89409" lon="4.77689">
        <ele>410</ele>
        <time>2021-08-14T09:11:12.000Z</time>
      </trkpt>
      <trkpt lat="49.89406" lon="4.77681">
        <ele>409</ele>
        <time>2021-08-14T09:11:13.000Z</time>
      </trkpt>
      <trkpt lat="49.89404" lon="4.77675">
        <ele>409</ele>
        <time>2021-08-14T09:11:14.000Z</time>
      </trkpt>
      <trkpt lat="49.89402" lon="4.77669">
        <ele>408</ele>
        <time>2021-08-14T09:11:15.000Z</time>
      </trkpt>
      <trkpt lat="49.894" lon="4.77663">
        <ele>408</ele>
        <time>2021-08-14T09:11:16.000Z</time>
      </trkpt>
      <trkpt lat="49.89398" lon="4.77656">
        <ele>407</ele>
        <time>2021-08-14T09:11:17.000Z</time>
      </trkpt>
      <trkpt lat="49.89395" lon="4.7765">
        <ele>406</ele>
        <time>2021-08-14T09:11:18.000Z</time>
      </trkpt>
      <trkpt lat="49.89393" lon="4.77646">
        <ele>406</ele>
        <time>2021-08-14T09:11:19.000Z</time>
      </trkpt>
      <trkpt lat="49.89391" lon="4.77641">
        <ele>405</ele>
        <time>2021-08-14T09:11:20.000Z</time>
      </trkpt>
      <trkpt lat="49.89388" lon="4.77635">
        <ele>405</ele>
        <time>2021-08-14T09:11:21.000Z</time>
      </trkpt>
      <trkpt lat="49.89385" lon="4.7763">
        <ele>404</ele>
        <time>2021-08-14T09:11:22.000Z</time>
      </trkpt>
      <trkpt lat="49.89381" lon="4.77624">
        <ele>404</ele>
        <time>2021-08-14T09:11:23.000Z</time>
      </trkpt>
      <trkpt lat="49.89377" lon="4.77619">
        <ele>403</ele>
        <time>2021-08-14T09:11:24.000Z</time>
      </trkpt>
      <trkpt lat="49.89373" lon="4.77615">
        <ele>403</ele>
        <time>2021-08-14T09:11:25.000Z</time>
      </trkpt>
      <trkpt lat="49.89369" lon="4.77609">
        <ele>402</ele>
        <time>2021-08-14T09:11:26.000Z</time>
      </trkpt>
      <trkpt lat="49.89366" lon="4.77602">
        <ele>402</ele>
        <time>2021-08-14T09:11:27.000Z</time>
      </trkpt>
      <trkpt lat="49.89364" lon="4.77595">
        <ele>401</ele>
        <time>2021-08-14T09:11:28.000Z</time>
      </trkpt>
      <trkpt lat="49.89361" lon="4.77588">
        <ele>400</ele>
        <time>2021-08-14T09:11:29.000Z</time>
      </trkpt>
      <trkpt lat="49.89358" lon="4.77582">
        <ele>400</ele>
        <time>2021-08-14T09:11:30.000Z</time>
      </trkpt>
      <trkpt lat="49.89354" lon="4.77577">
        <ele>399</ele>
        <time>2021-08-14T09:11:31.000Z</time>
      </trkpt>
      <trkpt lat="49.89349" lon="4.77571">
        <ele>398</ele>
        <time>2021-08-14T09:11:32.000Z</time>
      </trkpt>
      <trkpt lat="49.89344" lon="4.77565">
        <ele>398</ele>
        <time>2021-08-14T09:11:33.000Z</time>
      </trkpt>
      <trkpt lat="49.8934" lon="4.77558">
        <ele>397</ele>
        <time>2021-08-14T09:11:34.000Z</time>
      </trkpt>
      <trkpt lat="49.89336" lon="4.77552">
        <ele>396</ele>
        <time>2021-08-14T09:11:35.000Z</time>
      </trkpt>
      <trkpt lat="49.89332" lon="4.77545">
        <ele>396</ele>
        <time>2021-08-14T09:11:36.000Z</time>
      </trkpt>
      <trkpt lat="49.89328" lon="4.77538">
        <ele>395</ele>
        <time>2021-08-14T09:11:37.000Z</time>
      </trkpt>
      <trkpt lat="49.89325" lon="4.77531">
        <ele>394</ele>
        <time>2021-08-14T09:11:38.000Z</time>
      </trkpt>
      <trkpt lat="49.89323" lon="4.77524">
        <ele>394</ele>
        <time>2021-08-14T09:11:39.000Z</time>
      </trkpt>
      <trkpt lat="49.8932" lon="4.77517">
        <ele>393</ele>
        <time>2021-08-14T09:11:40.000Z</time>
      </trkpt>
      <trkpt lat="49.89317" lon="4.77509">
        <ele>392</ele>
        <time>2021-08-14T09:11:41.000Z</time>
      </trkpt>
      <trkpt lat="49.89314" lon="4.77503">
        <ele>392</ele>
        <time>2021-08-14T09:11:42.000Z</time>
      </trkpt>
      <trkpt lat="49.8931" lon="4.77496">
        <ele>391</ele>
        <time>2021-08-14T09:11:43.000Z</time>
      </trkpt>
      <trkpt lat="49.89306" lon="4.77489">
        <ele>390</ele>
        <time>2021-08-14T09:11:44.000Z</time>
      </trkpt>
      <trkpt lat="49.89303" lon="4.77481">
        <ele>390</ele>
        <time>2021-08-14T09:11:45.000Z</time>
      </trkpt>
      <trkpt lat="49.89299" lon="4.77474">
        <ele>389</ele>
        <time>2021-08-14T09:11:46.000Z</time>
      </trkpt>
      <trkpt lat="49.89296" lon="4.77467">
        <ele>388</ele>
        <time>2021-08-14T09:11:47.000Z</time>
      </trkpt>
      <trkpt lat="49.89293" lon="4.7746">
        <ele>387</ele>
        <time>2021-08-14T09:11:48.000Z</time>
      </trkpt>
      <trkpt lat="49.89291" lon="4.77454">
        <ele>387</ele>
        <time>2021-08-14T09:11:49.000Z</time>
      </trkpt>
      <trkpt lat="49.89289" lon="4.77448">
        <ele>386</ele>
        <time>2021-08-14T09:11:50.000Z</time>
      </trkpt>
      <trkpt lat="49.89287" lon="4.77445">
        <ele>385</ele>
        <time>2021-08-14T09:11:51.000Z</time>
      </trkpt>
      <trkpt lat="49.89285" lon="4.77443">
        <ele>384</ele>
        <time>2021-08-14T09:11:52.000Z</time>
      </trkpt>
      <trkpt lat="49.89284" lon="4.77442">
        <ele>384</ele>
        <time>2021-08-14T09:11:53.000Z</time>
      </trkpt>
      <trkpt lat="49.89283" lon="4.77441">
        <ele>383</ele>
        <time>2021-08-14T09:11:54.000Z</time>
      </trkpt>
      <trkpt lat="49.89281" lon="4.77439">
        <ele>382</ele>
        <time>2021-08-14T09:11:55.000Z</time>
      </trkpt>
      <trkpt lat="49.8928" lon="4.77437">
        <ele>382</ele>
        <time>2021-08-14T09:11:56.000Z</time>
      </trkpt>
      <trkpt lat="49.89277" lon="4.77436">
        <ele>381</ele>
        <time>2021-08-14T09:11:57.000Z</time>
      </trkpt>
      <trkpt lat="49.89275" lon="4.77436">
        <ele>380</ele>
        <time>2021-08-14T09:11:58.000Z</time>
      </trkpt>
      <trkpt lat="49.89272" lon="4.77435">
        <ele>380</ele>
        <time>2021-08-14T09:11:59.000Z</time>
      </trkpt>
      <trkpt lat="49.8927" lon="4.77433">
        <ele>379</ele>
        <time>2021-08-14T09:12:00.000Z</time>
      </trkpt>
      <trkpt lat="49.89269" lon="4.77431">
        <ele>379</ele>
        <time>2021-08-14T09:12:01.000Z</time>
      </trkpt>
      <trkpt lat="49.89266" lon="4.7743">
        <ele>378</ele>
        <time>2021-08-14T09:12:02.000Z</time>
      </trkpt>
      <trkpt lat="49.89263" lon="4.77428">
        <ele>378</ele>
        <time>2021-08-14T09:12:03.000Z</time>
      </trkpt>
      <trkpt lat="49.89262" lon="4.77426">
        <ele>377</ele>
        <time>2021-08-14T09:12:04.000Z</time>
      </trkpt>
      <trkpt lat="49.8926" lon="4.77422">
        <ele>377</ele>
        <time>2021-08-14T09:12:05.000Z</time>
      </trkpt>
      <trkpt lat="49.89259" lon="4.77416">
        <ele>377</ele>
        <time>2021-08-14T09:12:06.000Z</time>
      </trkpt>
      <trkpt lat="49.89258" lon="4.7741">
        <ele>376</ele>
        <time>2021-08-14T09:12:07.000Z</time>
      </trkpt>
      <trkpt lat="49.89257" lon="4.77404">
        <ele>376</ele>
        <time>2021-08-14T09:12:08.000Z</time>
      </trkpt>
      <trkpt lat="49.89257" lon="4.774">
        <ele>375</ele>
        <time>2021-08-14T09:12:09.000Z</time>
      </trkpt>
      <trkpt lat="49.89258" lon="4.77396">
        <ele>375</ele>
        <time>2021-08-14T09:12:10.000Z</time>
      </trkpt>
      <trkpt lat="49.89258" lon="4.77392">
        <ele>375</ele>
        <time>2021-08-14T09:12:11.000Z</time>
      </trkpt>
      <trkpt lat="49.89258" lon="4.77389">
        <ele>375</ele>
        <time>2021-08-14T09:12:12.000Z</time>
      </trkpt>
      <trkpt lat="49.89256" lon="4.77385">
        <ele>374</ele>
        <time>2021-08-14T09:12:13.000Z</time>
      </trkpt>
      <trkpt lat="49.89255" lon="4.7738">
        <ele>374</ele>
        <time>2021-08-14T09:12:14.000Z</time>
      </trkpt>
      <trkpt lat="49.89253" lon="4.77375">
        <ele>374</ele>
        <time>2021-08-14T09:12:15.000Z</time>
      </trkpt>
      <trkpt lat="49.8925" lon="4.7737">
        <ele>374</ele>
        <time>2021-08-14T09:12:16.000Z</time>
      </trkpt>
      <trkpt lat="49.89248" lon="4.77364">
        <ele>373</ele>
        <time>2021-08-14T09:12:17.000Z</time>
      </trkpt>
      <trkpt lat="49.89246" lon="4.77358">
        <ele>373</ele>
        <time>2021-08-14T09:12:18.000Z</time>
      </trkpt>
      <trkpt lat="49.89244" lon="4.77352">
        <ele>373</ele>
        <time>2021-08-14T09:12:19.000Z</time>
      </trkpt>
      <trkpt lat="49.89241" lon="4.77346">
        <ele>373</ele>
        <time>2021-08-14T09:12:20.000Z</time>
      </trkpt>
      <trkpt lat="49.89239" lon="4.7734">
        <ele>372</ele>
        <time>2021-08-14T09:12:21.000Z</time>
      </trkpt>
      <trkpt lat="49.89236" lon="4.77333">
        <ele>372</ele>
        <time>2021-08-14T09:12:22.000Z</time>
      </trkpt>
      <trkpt lat="49.89234" lon="4.77327">
        <ele>372</ele>
        <time>2021-08-14T09:12:23.000Z</time>
      </trkpt>
      <trkpt lat="49.89232" lon="4.77321">
        <ele>372</ele>
        <time>2021-08-14T09:12:24.000Z</time>
      </trkpt>
      <trkpt lat="49.89232" lon="4.77314">
        <ele>372</ele>
        <time>2021-08-14T09:12:25.000Z</time>
      </trkpt>
      <trkpt lat="49.89232" lon="4.77308">
        <ele>372</ele>
        <time>2021-08-14T09:12:26.000Z</time>
      </trkpt>
      <trkpt lat="49.89232" lon="4.77301">
        <ele>372</ele>
        <time>2021-08-14T09:12:27.000Z</time>
      </trkpt>
      <trkpt lat="49.89233" lon="4.77294">
        <ele>372</ele>
        <time>2021-08-14T09:12:28.000Z</time>
      </trkpt>
      <trkpt lat="49.89232" lon="4.77286">
        <ele>371</ele>
        <time>2021-08-14T09:12:29.000Z</time>
      </trkpt>
      <trkpt lat="49.89231" lon="4.77278">
        <ele>371</ele>
        <time>2021-08-14T09:12:30.000Z</time>
      </trkpt>
      <trkpt lat="49.89229" lon="4.7727">
        <ele>371</ele>
        <time>2021-08-14T09:12:31.000Z</time>
      </trkpt>
      <trkpt lat="49.89227" lon="4.77264">
        <ele>371</ele>
        <time>2021-08-14T09:12:32.000Z</time>
      </trkpt>
      <trkpt lat="49.89225" lon="4.77258">
        <ele>371</ele>
        <time>2021-08-14T09:12:33.000Z</time>
      </trkpt>
      <trkpt lat="49.89223" lon="4.77251">
        <ele>370</ele>
        <time>2021-08-14T09:12:34.000Z</time>
      </trkpt>
      <trkpt lat="49.89223" lon="4.77244">
        <ele>370</ele>
        <time>2021-08-14T09:12:35.000Z</time>
      </trkpt>
      <trkpt lat="49.89224" lon="4.77236">
        <ele>370</ele>
        <time>2021-08-14T09:12:36.000Z</time>
      </trkpt>
      <trkpt lat="49.89227" lon="4.77229">
        <ele>370</ele>
        <time>2021-08-14T09:12:37.000Z</time>
      </trkpt>
      <trkpt lat="49.89229" lon="4.77224">
        <ele>370</ele>
        <time>2021-08-14T09:12:38.000Z</time>
      </trkpt>
      <trkpt lat="49.89231" lon="4.77219">
        <ele>370</ele>
        <time>2021-08-14T09:12:39.000Z</time>
      </trkpt>
      <trkpt lat="49.89232" lon="4.77214">
        <ele>369</ele>
        <time>2021-08-14T09:12:40.000Z</time>
      </trkpt>
      <trkpt lat="49.89232" lon="4.77209">
        <ele>369</ele>
        <time>2021-08-14T09:12:41.000Z</time>
      </trkpt>
      <trkpt lat="49.89232" lon="4.77204">
        <ele>369</ele>
        <time>2021-08-14T09:12:42.000Z</time>
      </trkpt>
      <trkpt lat="49.8923" lon="4.77198">
        <ele>369</ele>
        <time>2021-08-14T09:12:43.000Z</time>
      </trkpt>
      <trkpt lat="49.89229" lon="4.77192">
        <ele>369</ele>
        <time>2021-08-14T09:12:44.000Z</time>
      </trkpt>
      <trkpt lat="49.89227" lon="4.77185">
        <ele>368</ele>
        <time>2021-08-14T09:12:45.000Z</time>
      </trkpt>
      <trkpt lat="49.89225" lon="4.77178">
        <ele>368</ele>
        <time>2021-08-14T09:12:46.000Z</time>
      </trkpt>
      <trkpt lat="49.89223" lon="4.77171">
        <ele>368</ele>
        <time>2021-08-14T09:12:47.000Z</time>
      </trkpt>
      <trkpt lat="49.89221" lon="4.77166">
        <ele>368</ele>
        <time>2021-08-14T09:12:48.000Z</time>
      </trkpt>
      <trkpt lat="49.89217" lon="4.77161">
        <ele>367</ele>
        <time>2021-08-14T09:12:49.000Z</time>
      </trkpt>
      <trkpt lat="49.89214" lon="4.77156">
        <ele>367</ele>
        <time>2021-08-14T09:12:50.000Z</time>
      </trkpt>
      <trkpt lat="49.89212" lon="4.77153">
        <ele>367</ele>
        <time>2021-08-14T09:12:51.000Z</time>
      </trkpt>
      <trkpt lat="49.89209" lon="4.7715">
        <ele>366</ele>
        <time>2021-08-14T09:12:52.000Z</time>
      </trkpt>
      <trkpt lat="49.89206" lon="4.77147">
        <ele>366</ele>
        <time>2021-08-14T09:12:53.000Z</time>
      </trkpt>
      <trkpt lat="49.89203" lon="4.77143">
        <ele>366</ele>
        <time>2021-08-14T09:12:54.000Z</time>
      </trkpt>
      <trkpt lat="49.892" lon="4.77139">
        <ele>365</ele>
        <time>2021-08-14T09:12:55.000Z</time>
      </trkpt>
      <trkpt lat="49.89197" lon="4.77136">
        <ele>365</ele>
        <time>2021-08-14T09:12:56.000Z</time>
      </trkpt>
      <trkpt lat="49.89194" lon="4.77134">
        <ele>364</ele>
        <time>2021-08-14T09:12:57.000Z</time>
      </trkpt>
      <trkpt lat="49.89192" lon="4.77133">
        <ele>364</ele>
        <time>2021-08-14T09:12:58.000Z</time>
      </trkpt>
      <trkpt lat="49.8919" lon="4.77132">
        <ele>364</ele>
        <time>2021-08-14T09:12:59.000Z</time>
      </trkpt>
      <trkpt lat="49.89188" lon="4.77131">
        <ele>363</ele>
        <time>2021-08-14T09:13:00.000Z</time>
      </trkpt>
      <trkpt lat="49.89186" lon="4.7713">
        <ele>363</ele>
        <time>2021-08-14T09:13:01.000Z</time>
      </trkpt>
      <trkpt lat="49.89184" lon="4.77128">
        <ele>363</ele>
        <time>2021-08-14T09:13:02.000Z</time>
      </trkpt>
      <trkpt lat="49.89181" lon="4.77129">
        <ele>362</ele>
        <time>2021-08-14T09:13:03.000Z</time>
      </trkpt>
      <trkpt lat="49.89179" lon="4.7713">
        <ele>362</ele>
        <time>2021-08-14T09:13:04.000Z</time>
      </trkpt>
      <trkpt lat="49.89178" lon="4.77131">
        <ele>362</ele>
        <time>2021-08-14T09:13:05.000Z</time>
      </trkpt>
      <trkpt lat="49.89178" lon="4.77133">
        <ele>362</ele>
        <time>2021-08-14T09:13:06.000Z</time>
      </trkpt>
      <trkpt lat="49.89178" lon="4.77135">
        <ele>361</ele>
        <time>2021-08-14T09:13:07.000Z</time>
      </trkpt>
      <trkpt lat="49.89179" lon="4.77137">
        <ele>361</ele>
        <time>2021-08-14T09:13:08.000Z</time>
      </trkpt>
      <trkpt lat="49.8918" lon="4.77141">
        <ele>361</ele>
        <time>2021-08-14T09:13:09.000Z</time>
      </trkpt>
      <trkpt lat="49.89181" lon="4.77143">
        <ele>360</ele>
        <time>2021-08-14T09:13:10.000Z</time>
      </trkpt>
      <trkpt lat="49.89181" lon="4.77146">
        <ele>360</ele>
        <time>2021-08-14T09:13:11.000Z</time>
      </trkpt>
      <trkpt lat="49.89182" lon="4.77149">
        <ele>359</ele>
        <time>2021-08-14T09:13:12.000Z</time>
      </trkpt>
      <trkpt lat="49.89183" lon="4.77152">
        <ele>359</ele>
        <time>2021-08-14T09:13:13.000Z</time>
      </trkpt>
      <trkpt lat="49.89184" lon="4.77156">
        <ele>359</ele>
        <time>2021-08-14T09:13:14.000Z</time>
      </trkpt>
      <trkpt lat="49.89185" lon="4.77159">
        <ele>358</ele>
        <time>2021-08-14T09:13:15.000Z</time>
      </trkpt>
      <trkpt lat="49.89186" lon="4.77163">
        <ele>358</ele>
        <time>2021-08-14T09:13:16.000Z</time>
      </trkpt>
      <trkpt lat="49.89187" lon="4.77166">
        <ele>358</ele>
        <time>2021-08-14T09:13:17.000Z</time>
      </trkpt>
      <trkpt lat="49.89189" lon="4.77171">
        <ele>358</ele>
        <time>2021-08-14T09:13:18.000Z</time>
      </trkpt>
      <trkpt lat="49.8919" lon="4.77175">
        <ele>358</ele>
        <time>2021-08-14T09:13:19.000Z</time>
      </trkpt>
      <trkpt lat="49.89191" lon="4.77178">
        <ele>357</ele>
        <time>2021-08-14T09:13:20.000Z</time>
      </trkpt>
      <trkpt lat="49.89193" lon="4.77182">
        <ele>357</ele>
        <time>2021-08-14T09:13:21.000Z</time>
      </trkpt>
      <trkpt lat="49.89195" lon="4.77187">
        <ele>357</ele>
        <time>2021-08-14T09:13:22.000Z</time>
      </trkpt>
      <trkpt lat="49.89196" lon="4.77192">
        <ele>357</ele>
        <time>2021-08-14T09:13:23.000Z</time>
      </trkpt>
      <trkpt lat="49.89198" lon="4.77197">
        <ele>357</ele>
        <time>2021-08-14T09:13:24.000Z</time>
      </trkpt>
      <trkpt lat="49.89199" lon="4.77202">
        <ele>357</ele>
        <time>2021-08-14T09:13:25.000Z</time>
      </trkpt>
      <trkpt lat="49.892" lon="4.77208">
        <ele>357</ele>
        <time>2021-08-14T09:13:26.000Z</time>
      </trkpt>
      <trkpt lat="49.89202" lon="4.77214">
        <ele>357</ele>
        <time>2021-08-14T09:13:27.000Z</time>
      </trkpt>
      <trkpt lat="49.89203" lon="4.7722">
        <ele>357</ele>
        <time>2021-08-14T09:13:28.000Z</time>
      </trkpt>
      <trkpt lat="49.89205" lon="4.77226">
        <ele>357</ele>
        <time>2021-08-14T09:13:29.000Z</time>
      </trkpt>
      <trkpt lat="49.89206" lon="4.77232">
        <ele>357</ele>
        <time>2021-08-14T09:13:30.000Z</time>
      </trkpt>
      <trkpt lat="49.89207" lon="4.77239">
        <ele>357</ele>
        <time>2021-08-14T09:13:31.000Z</time>
      </trkpt>
      <trkpt lat="49.89209" lon="4.77245">
        <ele>357</ele>
        <time>2021-08-14T09:13:32.000Z</time>
      </trkpt>
      <trkpt lat="49.89211" lon="4.77251">
        <ele>357</ele>
        <time>2021-08-14T09:13:33.000Z</time>
      </trkpt>
      <trkpt lat="49.89213" lon="4.77257">
        <ele>357</ele>
        <time>2021-08-14T09:13:34.000Z</time>
      </trkpt>
      <trkpt lat="49.89214" lon="4.77263">
        <ele>357</ele>
        <time>2021-08-14T09:13:35.000Z</time>
      </trkpt>
      <trkpt lat="49.89215" lon="4.7727">
        <ele>358</ele>
        <time>2021-08-14T09:13:36.000Z</time>
      </trkpt>
      <trkpt lat="49.89217" lon="4.77276">
        <ele>358</ele>
        <time>2021-08-14T09:13:37.000Z</time>
      </trkpt>
      <trkpt lat="49.89218" lon="4.77282">
        <ele>358</ele>
        <time>2021-08-14T09:13:38.000Z</time>
      </trkpt>
      <trkpt lat="49.8922" lon="4.77288">
        <ele>358</ele>
        <time>2021-08-14T09:13:39.000Z</time>
      </trkpt>
      <trkpt lat="49.89222" lon="4.77294">
        <ele>358</ele>
        <time>2021-08-14T09:13:40.000Z</time>
      </trkpt>
      <trkpt lat="49.89224" lon="4.773">
        <ele>358</ele>
        <time>2021-08-14T09:13:41.000Z</time>
      </trkpt>
      <trkpt lat="49.89225" lon="4.77306">
        <ele>358</ele>
        <time>2021-08-14T09:13:42.000Z</time>
      </trkpt>
      <trkpt lat="49.89226" lon="4.77312">
        <ele>358</ele>
        <time>2021-08-14T09:13:43.000Z</time>
      </trkpt>
      <trkpt lat="49.89228" lon="4.77319">
        <ele>358</ele>
        <time>2021-08-14T09:13:44.000Z</time>
      </trkpt>
      <trkpt lat="49.89229" lon="4.77325">
        <ele>359</ele>
        <time>2021-08-14T09:13:45.000Z</time>
      </trkpt>
      <trkpt lat="49.89231" lon="4.77331">
        <ele>359</ele>
        <time>2021-08-14T09:13:46.000Z</time>
      </trkpt>
      <trkpt lat="49.89233" lon="4.77337">
        <ele>359</ele>
        <time>2021-08-14T09:13:47.000Z</time>
      </trkpt>
      <trkpt lat="49.89234" lon="4.77343">
        <ele>359</ele>
        <time>2021-08-14T09:13:48.000Z</time>
      </trkpt>
      <trkpt lat="49.89236" lon="4.77349">
        <ele>359</ele>
        <time>2021-08-14T09:13:49.000Z</time>
      </trkpt>
      <trkpt lat="49.89237" lon="4.77355">
        <ele>359</ele>
        <time>2021-08-14T09:13:50.000Z</time>
      </trkpt>
      <trkpt lat="49.89239" lon="4.77361">
        <ele>359</ele>
        <time>2021-08-14T09:13:51.000Z</time>
      </trkpt>
      <trkpt lat="49.8924" lon="4.77367">
        <ele>359</ele>
        <time>2021-08-14T09:13:52.000Z</time>
      </trkpt>
      <trkpt lat="49.89242" lon="4.77372">
        <ele>359</ele>
        <time>2021-08-14T09:13:53.000Z</time>
      </trkpt>
      <trkpt lat="49.89243" lon="4.77378">
        <ele>360</ele>
        <time>2021-08-14T09:13:54.000Z</time>
      </trkpt>
      <trkpt lat="49.89245" lon="4.77383">
        <ele>360</ele>
        <time>2021-08-14T09:13:55.000Z</time>
      </trkpt>
      <trkpt lat="49.89246" lon="4.77388">
        <ele>360</ele>
        <time>2021-08-14T09:13:56.000Z</time>
      </trkpt>
      <trkpt lat="49.89247" lon="4.77393">
        <ele>360</ele>
        <time>2021-08-14T09:13:57.000Z</time>
      </trkpt>
      <trkpt lat="49.89248" lon="4.77398">
        <ele>360</ele>
        <time>2021-08-14T09:13:58.000Z</time>
      </trkpt>
      <trkpt lat="49.89249" lon="4.77402">
        <ele>360</ele>
        <time>2021-08-14T09:13:59.000Z</time>
      </trkpt>
      <trkpt lat="49.8925" lon="4.77406">
        <ele>361</ele>
        <time>2021-08-14T09:14:00.000Z</time>
      </trkpt>
      <trkpt lat="49.89251" lon="4.7741">
        <ele>361</ele>
        <time>2021-08-14T09:14:01.000Z</time>
      </trkpt>
      <trkpt lat="49.89252" lon="4.77414">
        <ele>361</ele>
        <time>2021-08-14T09:14:02.000Z</time>
      </trkpt>
      <trkpt lat="49.89253" lon="4.77418">
        <ele>361</ele>
        <time>2021-08-14T09:14:03.000Z</time>
      </trkpt>
      <trkpt lat="49.89254" lon="4.77423">
        <ele>361</ele>
        <time>2021-08-14T09:14:04.000Z</time>
      </trkpt>
      <trkpt lat="49.89255" lon="4.77427">
        <ele>361</ele>
        <time>2021-08-14T09:14:05.000Z</time>
      </trkpt>
      <trkpt lat="49.89256" lon="4.77431">
        <ele>361</ele>
        <time>2021-08-14T09:14:06.000Z</time>
      </trkpt>
      <trkpt lat="49.89257" lon="4.77436">
        <ele>361</ele>
        <time>2021-08-14T09:14:07.000Z</time>
      </trkpt>
      <trkpt lat="49.89258" lon="4.7744">
        <ele>362</ele>
        <time>2021-08-14T09:14:08.000Z</time>
      </trkpt>
      <trkpt lat="49.89259" lon="4.77444">
        <ele>362</ele>
        <time>2021-08-14T09:14:09.000Z</time>
      </trkpt>
      <trkpt lat="49.8926" lon="4.77448">
        <ele>362</ele>
        <time>2021-08-14T09:14:10.000Z</time>
      </trkpt>
      <trkpt lat="49.89261" lon="4.77452">
        <ele>362</ele>
        <time>2021-08-14T09:14:11.000Z</time>
      </trkpt>
      <trkpt lat="49.89262" lon="4.77456">
        <ele>362</ele>
        <time>2021-08-14T09:14:12.000Z</time>
      </trkpt>
      <trkpt lat="49.89263" lon="4.7746">
        <ele>363</ele>
        <time>2021-08-14T09:14:13.000Z</time>
      </trkpt>
      <trkpt lat="49.89264" lon="4.77465">
        <ele>363</ele>
        <time>2021-08-14T09:14:14.000Z</time>
      </trkpt>
      <trkpt lat="49.89265" lon="4.77469">
        <ele>363</ele>
        <time>2021-08-14T09:14:15.000Z</time>
      </trkpt>
      <trkpt lat="49.89267" lon="4.77473">
        <ele>363</ele>
        <time>2021-08-14T09:14:16.000Z</time>
      </trkpt>
      <trkpt lat="49.89268" lon="4.77477">
        <ele>363</ele>
        <time>2021-08-14T09:14:17.000Z</time>
      </trkpt>
      <trkpt lat="49.89269" lon="4.77482">
        <ele>364</ele>
        <time>2021-08-14T09:14:18.000Z</time>
      </trkpt>
      <trkpt lat="49.8927" lon="4.77486">
        <ele>364</ele>
        <time>2021-08-14T09:14:19.000Z</time>
      </trkpt>
      <trkpt lat="49.89271" lon="4.7749">
        <ele>364</ele>
        <time>2021-08-14T09:14:20.000Z</time>
      </trkpt>
      <trkpt lat="49.89272" lon="4.77494">
        <ele>364</ele>
        <time>2021-08-14T09:14:21.000Z</time>
      </trkpt>
      <trkpt lat="49.89272" lon="4.77498">
        <ele>364</ele>
        <time>2021-08-14T09:14:22.000Z</time>
      </trkpt>
      <trkpt lat="49.89272" lon="4.77503">
        <ele>365</ele>
        <time>2021-08-14T09:14:23.000Z</time>
      </trkpt>
      <trkpt lat="49.89273" lon="4.77507">
        <ele>365</ele>
        <time>2021-08-14T09:14:24.000Z</time>
      </trkpt>
      <trkpt lat="49.89273" lon="4.77511">
        <ele>365</ele>
        <time>2021-08-14T09:14:25.000Z</time>
      </trkpt>
      <trkpt lat="49.89273" lon="4.77516">
        <ele>365</ele>
        <time>2021-08-14T09:14:26.000Z</time>
      </trkpt>
      <trkpt lat="49.89273" lon="4.7752">
        <ele>365</ele>
        <time>2021-08-14T09:14:27.000Z</time>
      </trkpt>
      <trkpt lat="49.89273" lon="4.77524">
        <ele>365</ele>
        <time>2021-08-14T09:14:28.000Z</time>
      </trkpt>
      <trkpt lat="49.89273" lon="4.77528">
        <ele>365</ele>
        <time>2021-08-14T09:14:29.000Z</time>
      </trkpt>
      <trkpt lat="49.89273" lon="4.77533">
        <ele>365</ele>
        <time>2021-08-14T09:14:30.000Z</time>
      </trkpt>
      <trkpt lat="49.89273" lon="4.77537">
        <ele>366</ele>
        <time>2021-08-14T09:14:31.000Z</time>
      </trkpt>
      <trkpt lat="49.89273" lon="4.77541">
        <ele>366</ele>
        <time>2021-08-14T09:14:32.000Z</time>
      </trkpt>
      <trkpt lat="49.89273" lon="4.77546">
        <ele>366</ele>
        <time>2021-08-14T09:14:33.000Z</time>
      </trkpt>
      <trkpt lat="49.89273" lon="4.7755">
        <ele>366</ele>
        <time>2021-08-14T09:14:34.000Z</time>
      </trkpt>
      <trkpt lat="49.89273" lon="4.77554">
        <ele>366</ele>
        <time>2021-08-14T09:14:35.000Z</time>
      </trkpt>
      <trkpt lat="49.89273" lon="4.77559">
        <ele>367</ele>
        <time>2021-08-14T09:14:36.000Z</time>
      </trkpt>
      <trkpt lat="49.89273" lon="4.77563">
        <ele>367</ele>
        <time>2021-08-14T09:14:37.000Z</time>
      </trkpt>
      <trkpt lat="49.89274" lon="4.77567">
        <ele>367</ele>
        <time>2021-08-14T09:14:38.000Z</time>
      </trkpt>
      <trkpt lat="49.89274" lon="4.77572">
        <ele>367</ele>
        <time>2021-08-14T09:14:39.000Z</time>
      </trkpt>
      <trkpt lat="49.89274" lon="4.77576">
        <ele>368</ele>
        <time>2021-08-14T09:14:40.000Z</time>
      </trkpt>
      <trkpt lat="49.89275" lon="4.7758">
        <ele>368</ele>
        <time>2021-08-14T09:14:41.000Z</time>
      </trkpt>
      <trkpt lat="49.89275" lon="4.77584">
        <ele>368</ele>
        <time>2021-08-14T09:14:42.000Z</time>
      </trkpt>
      <trkpt lat="49.89275" lon="4.77588">
        <ele>368</ele>
        <time>2021-08-14T09:14:43.000Z</time>
      </trkpt>
      <trkpt lat="49.89276" lon="4.77593">
        <ele>369</ele>
        <time>2021-08-14T09:14:44.000Z</time>
      </trkpt>
      <trkpt lat="49.89276" lon="4.77597">
        <ele>369</ele>
        <time>2021-08-14T09:14:45.000Z</time>
      </trkpt>
      <trkpt lat="49.89277" lon="4.77601">
        <ele>369</ele>
        <time>2021-08-14T09:14:46.000Z</time>
      </trkpt>
      <trkpt lat="49.89278" lon="4.77605">
        <ele>369</ele>
        <time>2021-08-14T09:14:47.000Z</time>
      </trkpt>
      <trkpt lat="49.89278" lon="4.77609">
        <ele>369</ele>
        <time>2021-08-14T09:14:48.000Z</time>
      </trkpt>
      <trkpt lat="49.89279" lon="4.77614">
        <ele>370</ele>
        <time>2021-08-14T09:14:49.000Z</time>
      </trkpt>
      <trkpt lat="49.89279" lon="4.77618">
        <ele>370</ele>
        <time>2021-08-14T09:14:50.000Z</time>
      </trkpt>
      <trkpt lat="49.8928" lon="4.77623">
        <ele>370</ele>
        <time>2021-08-14T09:14:51.000Z</time>
      </trkpt>
      <trkpt lat="49.8928" lon="4.77627">
        <ele>370</ele>
        <time>2021-08-14T09:14:52.000Z</time>
      </trkpt>
      <trkpt lat="49.89281" lon="4.77631">
        <ele>370</ele>
        <time>2021-08-14T09:14:53.000Z</time>
      </trkpt>
      <trkpt lat="49.89281" lon="4.77636">
        <ele>371</ele>
        <time>2021-08-14T09:14:54.000Z</time>
      </trkpt>
      <trkpt lat="49.89281" lon="4.7764">
        <ele>371</ele>
        <time>2021-08-14T09:14:55.000Z</time>
      </trkpt>
      <trkpt lat="49.89281" lon="4.77644">
        <ele>371</ele>
        <time>2021-08-14T09:14:56.000Z</time>
      </trkpt>
      <trkpt lat="49.89282" lon="4.77648">
        <ele>371</ele>
        <time>2021-08-14T09:14:57.000Z</time>
      </trkpt>
      <trkpt lat="49.89281" lon="4.77652">
        <ele>372</ele>
        <time>2021-08-14T09:14:58.000Z</time>
      </trkpt>
      <trkpt lat="49.89281" lon="4.77657">
        <ele>372</ele>
        <time>2021-08-14T09:14:59.000Z</time>
      </trkpt>
      <trkpt lat="49.89281" lon="4.77661">
        <ele>372</ele>
        <time>2021-08-14T09:15:00.000Z</time>
      </trkpt>
      <trkpt lat="49.89281" lon="4.77665">
        <ele>372</ele>
        <time>2021-08-14T09:15:01.000Z</time>
      </trkpt>
      <trkpt lat="49.89281" lon="4.77669">
        <ele>373</ele>
        <time>2021-08-14T09:15:02.000Z</time>
      </trkpt>
      <trkpt lat="49.89281" lon="4.77673">
        <ele>373</ele>
        <time>2021-08-14T09:15:03.000Z</time>
      </trkpt>
      <trkpt lat="49.89281" lon="4.77678">
        <ele>373</ele>
        <time>2021-08-14T09:15:04.000Z</time>
      </trkpt>
      <trkpt lat="49.89281" lon="4.77682">
        <ele>374</ele>
        <time>2021-08-14T09:15:05.000Z</time>
      </trkpt>
      <trkpt lat="49.89281" lon="4.77686">
        <ele>374</ele>
        <time>2021-08-14T09:15:06.000Z</time>
      </trkpt>
      <trkpt lat="49.89281" lon="4.7769">
        <ele>374</ele>
        <time>2021-08-14T09:15:07.000Z</time>
      </trkpt>
      <trkpt lat="49.89281" lon="4.77695">
        <ele>375</ele>
        <time>2021-08-14T09:15:08.000Z</time>
      </trkpt>
      <trkpt lat="49.89281" lon="4.77699">
        <ele>375</ele>
        <time>2021-08-14T09:15:09.000Z</time>
      </trkpt>
      <trkpt lat="49.89281" lon="4.77703">
        <ele>375</ele>
        <time>2021-08-14T09:15:10.000Z</time>
      </trkpt>
      <trkpt lat="49.89281" lon="4.77707">
        <ele>375</ele>
        <time>2021-08-14T09:15:11.000Z</time>
      </trkpt>
      <trkpt lat="49.89281" lon="4.77712">
        <ele>376</ele>
        <time>2021-08-14T09:15:12.000Z</time>
      </trkpt>
      <trkpt lat="49.89282" lon="4.77716">
        <ele>376</ele>
        <time>2021-08-14T09:15:13.000Z</time>
      </trkpt>
      <trkpt lat="49.89281" lon="4.7772">
        <ele>376</ele>
        <time>2021-08-14T09:15:14.000Z</time>
      </trkpt>
      <trkpt lat="49.89281" lon="4.77724">
        <ele>377</ele>
        <time>2021-08-14T09:15:15.000Z</time>
      </trkpt>
      <trkpt lat="49.89282" lon="4.77729">
        <ele>377</ele>
        <time>2021-08-14T09:15:16.000Z</time>
      </trkpt>
      <trkpt lat="49.89282" lon="4.77733">
        <ele>377</ele>
        <time>2021-08-14T09:15:17.000Z</time>
      </trkpt>
      <trkpt lat="49.89282" lon="4.77737">
        <ele>378</ele>
        <time>2021-08-14T09:15:18.000Z</time>
      </trkpt>
      <trkpt lat="49.89282" lon="4.77741">
        <ele>378</ele>
        <time>2021-08-14T09:15:19.000Z</time>
      </trkpt>
      <trkpt lat="49.89282" lon="4.77745">
        <ele>378</ele>
        <time>2021-08-14T09:15:20.000Z</time>
      </trkpt>
      <trkpt lat="49.89282" lon="4.77749">
        <ele>379</ele>
        <time>2021-08-14T09:15:21.000Z</time>
      </trkpt>
      <trkpt lat="49.89283" lon="4.77754">
        <ele>379</ele>
        <time>2021-08-14T09:15:22.000Z</time>
      </trkpt>
      <trkpt lat="49.89283" lon="4.77758">
        <ele>379</ele>
        <time>2021-08-14T09:15:23.000Z</time>
      </trkpt>
      <trkpt lat="49.89283" lon="4.77762">
        <ele>380</ele>
        <time>2021-08-14T09:15:24.000Z</time>
      </trkpt>
      <trkpt lat="49.89284" lon="4.77766">
        <ele>380</ele>
        <time>2021-08-14T09:15:25.000Z</time>
      </trkpt>
      <trkpt lat="49.89284" lon="4.7777">
        <ele>380</ele>
        <time>2021-08-14T09:15:26.000Z</time>
      </trkpt>
      <trkpt lat="49.89285" lon="4.77774">
        <ele>381</ele>
        <time>2021-08-14T09:15:27.000Z</time>
      </trkpt>
      <trkpt lat="49.89286" lon="4.77778">
        <ele>381</ele>
        <time>2021-08-14T09:15:28.000Z</time>
      </trkpt>
      <trkpt lat="49.89287" lon="4.77782">
        <ele>381</ele>
        <time>2021-08-14T09:15:29.000Z</time>
      </trkpt>
      <trkpt lat="49.89288" lon="4.77786">
        <ele>381</ele>
        <time>2021-08-14T09:15:30.000Z</time>
      </trkpt>
      <trkpt lat="49.89288" lon="4.7779">
        <ele>382</ele>
        <time>2021-08-14T09:15:31.000Z</time>
      </trkpt>
      <trkpt lat="49.89289" lon="4.77794">
        <ele>382</ele>
        <time>2021-08-14T09:15:32.000Z</time>
      </trkpt>
      <trkpt lat="49.8929" lon="4.77798">
        <ele>382</ele>
        <time>2021-08-14T09:15:33.000Z</time>
      </trkpt>
      <trkpt lat="49.89291" lon="4.77803">
        <ele>383</ele>
        <time>2021-08-14T09:15:34.000Z</time>
      </trkpt>
      <trkpt lat="49.89291" lon="4.77807">
        <ele>383</ele>
        <time>2021-08-14T09:15:35.000Z</time>
      </trkpt>
      <trkpt lat="49.89292" lon="4.77811">
        <ele>383</ele>
        <time>2021-08-14T09:15:36.000Z</time>
      </trkpt>
      <trkpt lat="49.89293" lon="4.77815">
        <ele>383</ele>
        <time>2021-08-14T09:15:37.000Z</time>
      </trkpt>
      <trkpt lat="49.89293" lon="4.77819">
        <ele>384</ele>
        <time>2021-08-14T09:15:38.000Z</time>
      </trkpt>
      <trkpt lat="49.89294" lon="4.77823">
        <ele>384</ele>
        <time>2021-08-14T09:15:39.000Z</time>
      </trkpt>
      <trkpt lat="49.89295" lon="4.77828">
        <ele>384</ele>
        <time>2021-08-14T09:15:40.000Z</time>
      </trkpt>
      <trkpt lat="49.89296" lon="4.77832">
        <ele>385</ele>
        <time>2021-08-14T09:15:41.000Z</time>
      </trkpt>
      <trkpt lat="49.89296" lon="4.77836">
        <ele>385</ele>
        <time>2021-08-14T09:15:42.000Z</time>
      </trkpt>
      <trkpt lat="49.89297" lon="4.7784">
        <ele>385</ele>
        <time>2021-08-14T09:15:43.000Z</time>
      </trkpt>
      <trkpt lat="49.89297" lon="4.77845">
        <ele>385</ele>
        <time>2021-08-14T09:15:44.000Z</time>
      </trkpt>
      <trkpt lat="49.89298" lon="4.77849">
        <ele>386</ele>
        <time>2021-08-14T09:15:45.000Z</time>
      </trkpt>
      <trkpt lat="49.89299" lon="4.77853">
        <ele>386</ele>
        <time>2021-08-14T09:15:46.000Z</time>
      </trkpt>
      <trkpt lat="49.89299" lon="4.77857">
        <ele>386</ele>
        <time>2021-08-14T09:15:47.000Z</time>
      </trkpt>
      <trkpt lat="49.89299" lon="4.77861">
        <ele>387</ele>
        <time>2021-08-14T09:15:48.000Z</time>
      </trkpt>
      <trkpt lat="49.89299" lon="4.77866">
        <ele>387</ele>
        <time>2021-08-14T09:15:49.000Z</time>
      </trkpt>
      <trkpt lat="49.89299" lon="4.7787">
        <ele>387</ele>
        <time>2021-08-14T09:15:50.000Z</time>
      </trkpt>
      <trkpt lat="49.893" lon="4.77874">
        <ele>387</ele>
        <time>2021-08-14T09:15:51.000Z</time>
      </trkpt>
      <trkpt lat="49.893" lon="4.77878">
        <ele>388</ele>
        <time>2021-08-14T09:15:52.000Z</time>
      </trkpt>
      <trkpt lat="49.893" lon="4.77882">
        <ele>388</ele>
        <time>2021-08-14T09:15:53.000Z</time>
      </trkpt>
      <trkpt lat="49.893" lon="4.77886">
        <ele>388</ele>
        <time>2021-08-14T09:15:54.000Z</time>
      </trkpt>
      <trkpt lat="49.89299" lon="4.7789">
        <ele>389</ele>
        <time>2021-08-14T09:15:55.000Z</time>
      </trkpt>
      <trkpt lat="49.89299" lon="4.77894">
        <ele>389</ele>
        <time>2021-08-14T09:15:56.000Z</time>
      </trkpt>
      <trkpt lat="49.89299" lon="4.77898">
        <ele>389</ele>
        <time>2021-08-14T09:15:57.000Z</time>
      </trkpt>
      <trkpt lat="49.89298" lon="4.77902">
        <ele>389</ele>
        <time>2021-08-14T09:15:58.000Z</time>
      </trkpt>
      <trkpt lat="49.89297" lon="4.77906">
        <ele>390</ele>
        <time>2021-08-14T09:15:59.000Z</time>
      </trkpt>
      <trkpt lat="49.89296" lon="4.7791">
        <ele>390</ele>
        <time>2021-08-14T09:16:00.000Z</time>
      </trkpt>
      <trkpt lat="49.89295" lon="4.77914">
        <ele>390</ele>
        <time>2021-08-14T09:16:01.000Z</time>
      </trkpt>
      <trkpt lat="49.89295" lon="4.77918">
        <ele>391</ele>
        <time>2021-08-14T09:16:02.000Z</time>
      </trkpt>
      <trkpt lat="49.89294" lon="4.77922">
        <ele>391</ele>
        <time>2021-08-14T09:16:03.000Z</time>
      </trkpt>
      <trkpt lat="49.89293" lon="4.77926">
        <ele>391</ele>
        <time>2021-08-14T09:16:04.000Z</time>
      </trkpt>
      <trkpt lat="49.89292" lon="4.7793">
        <ele>392</ele>
        <time>2021-08-14T09:16:05.000Z</time>
      </trkpt>
      <trkpt lat="49.89291" lon="4.77933">
        <ele>392</ele>
        <time>2021-08-14T09:16:06.000Z</time>
      </trkpt>
      <trkpt lat="49.89289" lon="4.77937">
        <ele>392</ele>
        <time>2021-08-14T09:16:07.000Z</time>
      </trkpt>
      <trkpt lat="49.89288" lon="4.7794">
        <ele>393</ele>
        <time>2021-08-14T09:16:08.000Z</time>
      </trkpt>
      <trkpt lat="49.89287" lon="4.77944">
        <ele>393</ele>
        <time>2021-08-14T09:16:09.000Z</time>
      </trkpt>
      <trkpt lat="49.89285" lon="4.77948">
        <ele>393</ele>
        <time>2021-08-14T09:16:10.000Z</time>
      </trkpt>
      <trkpt lat="49.89284" lon="4.77952">
        <ele>394</ele>
        <time>2021-08-14T09:16:11.000Z</time>
      </trkpt>
      <trkpt lat="49.89283" lon="4.77955">
        <ele>394</ele>
        <time>2021-08-14T09:16:12.000Z</time>
      </trkpt>
      <trkpt lat="49.89281" lon="4.77959">
        <ele>395</ele>
        <time>2021-08-14T09:16:13.000Z</time>
      </trkpt>
      <trkpt lat="49.89279" lon="4.77962">
        <ele>395</ele>
        <time>2021-08-14T09:16:14.000Z</time>
      </trkpt>
      <trkpt lat="49.89278" lon="4.77965">
        <ele>396</ele>
        <time>2021-08-14T09:16:15.000Z</time>
      </trkpt>
      <trkpt lat="49.89276" lon="4.77969">
        <ele>396</ele>
        <time>2021-08-14T09:16:16.000Z</time>
      </trkpt>
      <trkpt lat="49.89274" lon="4.77972">
        <ele>396</ele>
        <time>2021-08-14T09:16:17.000Z</time>
      </trkpt>
      <trkpt lat="49.89272" lon="4.77976">
        <ele>397</ele>
        <time>2021-08-14T09:16:18.000Z</time>
      </trkpt>
      <trkpt lat="49.89271" lon="4.77979">
        <ele>397</ele>
        <time>2021-08-14T09:16:19.000Z</time>
      </trkpt>
      <trkpt lat="49.89269" lon="4.77983">
        <ele>398</ele>
        <time>2021-08-14T09:16:20.000Z</time>
      </trkpt>
      <trkpt lat="49.89268" lon="4.77987">
        <ele>398</ele>
        <time>2021-08-14T09:16:21.000Z</time>
      </trkpt>
      <trkpt lat="49.89267" lon="4.77991">
        <ele>398</ele>
        <time>2021-08-14T09:16:22.000Z</time>
      </trkpt>
      <trkpt lat="49.89266" lon="4.77995">
        <ele>399</ele>
        <time>2021-08-14T09:16:23.000Z</time>
      </trkpt>
      <trkpt lat="49.89265" lon="4.77999">
        <ele>399</ele>
        <time>2021-08-14T09:16:24.000Z</time>
      </trkpt>
      <trkpt lat="49.89264" lon="4.78003">
        <ele>400</ele>
        <time>2021-08-14T09:16:25.000Z</time>
      </trkpt>
      <trkpt lat="49.89263" lon="4.78007">
        <ele>400</ele>
        <time>2021-08-14T09:16:26.000Z</time>
      </trkpt>
      <trkpt lat="49.89262" lon="4.78011">
        <ele>401</ele>
        <time>2021-08-14T09:16:27.000Z</time>
      </trkpt>
      <trkpt lat="49.89261" lon="4.78015">
        <ele>401</ele>
        <time>2021-08-14T09:16:28.000Z</time>
      </trkpt>
      <trkpt lat="49.8926" lon="4.78019">
        <ele>401</ele>
        <time>2021-08-14T09:16:29.000Z</time>
      </trkpt>
      <trkpt lat="49.8926" lon="4.78023">
        <ele>402</ele>
        <time>2021-08-14T09:16:30.000Z</time>
      </trkpt>
      <trkpt lat="49.89259" lon="4.78027">
        <ele>402</ele>
        <time>2021-08-14T09:16:31.000Z</time>
      </trkpt>
      <trkpt lat="49.89258" lon="4.78031">
        <ele>402</ele>
        <time>2021-08-14T09:16:32.000Z</time>
      </trkpt>
      <trkpt lat="49.89258" lon="4.78035">
        <ele>403</ele>
        <time>2021-08-14T09:16:33.000Z</time>
      </trkpt>
      <trkpt lat="49.89258" lon="4.7804">
        <ele>403</ele>
        <time>2021-08-14T09:16:34.000Z</time>
      </trkpt>
      <trkpt lat="49.89257" lon="4.78044">
        <ele>403</ele>
        <time>2021-08-14T09:16:35.000Z</time>
      </trkpt>
      <trkpt lat="49.89257" lon="4.78048">
        <ele>403</ele>
        <time>2021-08-14T09:16:36.000Z</time>
      </trkpt>
      <trkpt lat="49.89257" lon="4.78053">
        <ele>403</ele>
        <time>2021-08-14T09:16:37.000Z</time>
      </trkpt>
      <trkpt lat="49.89257" lon="4.78057">
        <ele>403</ele>
        <time>2021-08-14T09:16:38.000Z</time>
      </trkpt>
      <trkpt lat="49.89257" lon="4.78061">
        <ele>404</ele>
        <time>2021-08-14T09:16:39.000Z</time>
      </trkpt>
      <trkpt lat="49.89256" lon="4.78065">
        <ele>404</ele>
        <time>2021-08-14T09:16:40.000Z</time>
      </trkpt>
      <trkpt lat="49.89256" lon="4.78069">
        <ele>404</ele>
        <time>2021-08-14T09:16:41.000Z</time>
      </trkpt>
      <trkpt lat="49.89256" lon="4.78073">
        <ele>404</ele>
        <time>2021-08-14T09:16:42.000Z</time>
      </trkpt>
      <trkpt lat="49.89255" lon="4.78078">
        <ele>404</ele>
        <time>2021-08-14T09:16:43.000Z</time>
      </trkpt>
      <trkpt lat="49.89255" lon="4.78082">
        <ele>404</ele>
        <time>2021-08-14T09:16:44.000Z</time>
      </trkpt>
      <trkpt lat="49.89254" lon="4.78086">
        <ele>404</ele>
        <time>2021-08-14T09:16:45.000Z</time>
      </trkpt>
      <trkpt lat="49.89254" lon="4.7809">
        <ele>404</ele>
        <time>2021-08-14T09:16:46.000Z</time>
      </trkpt>
      <trkpt lat="49.89253" lon="4.78094">
        <ele>404</ele>
        <time>2021-08-14T09:16:47.000Z</time>
      </trkpt>
      <trkpt lat="49.89252" lon="4.78098">
        <ele>405</ele>
        <time>2021-08-14T09:16:48.000Z</time>
      </trkpt>
      <trkpt lat="49.89251" lon="4.78102">
        <ele>405</ele>
        <time>2021-08-14T09:16:49.000Z</time>
      </trkpt>
      <trkpt lat="49.89251" lon="4.78106">
        <ele>405</ele>
        <time>2021-08-14T09:16:50.000Z</time>
      </trkpt>
      <trkpt lat="49.8925" lon="4.7811">
        <ele>405</ele>
        <time>2021-08-14T09:16:51.000Z</time>
      </trkpt>
      <trkpt lat="49.89249" lon="4.78114">
        <ele>405</ele>
        <time>2021-08-14T09:16:52.000Z</time>
      </trkpt>
      <trkpt lat="49.89248" lon="4.78117">
        <ele>405</ele>
        <time>2021-08-14T09:16:53.000Z</time>
      </trkpt>
      <trkpt lat="49.89247" lon="4.78121">
        <ele>406</ele>
        <time>2021-08-14T09:16:54.000Z</time>
      </trkpt>
      <trkpt lat="49.89246" lon="4.78125">
        <ele>406</ele>
        <time>2021-08-14T09:16:55.000Z</time>
      </trkpt>
      <trkpt lat="49.89245" lon="4.78128">
        <ele>406</ele>
        <time>2021-08-14T09:16:56.000Z</time>
      </trkpt>
      <trkpt lat="49.89244" lon="4.78132">
        <ele>406</ele>
        <time>2021-08-14T09:16:57.000Z</time>
      </trkpt>
      <trkpt lat="49.89243" lon="4.78136">
        <ele>406</ele>
        <time>2021-08-14T09:16:58.000Z</time>
      </trkpt>
      <trkpt lat="49.89242" lon="4.7814">
        <ele>407</ele>
        <time>2021-08-14T09:16:59.000Z</time>
      </trkpt>
      <trkpt lat="49.89241" lon="4.78144">
        <ele>407</ele>
        <time>2021-08-14T09:17:00.000Z</time>
      </trkpt>
      <trkpt lat="49.8924" lon="4.78148">
        <ele>407</ele>
        <time>2021-08-14T09:17:01.000Z</time>
      </trkpt>
      <trkpt lat="49.89239" lon="4.78152">
        <ele>407</ele>
        <time>2021-08-14T09:17:02.000Z</time>
      </trkpt>
      <trkpt lat="49.89237" lon="4.78156">
        <ele>407</ele>
        <time>2021-08-14T09:17:03.000Z</time>
      </trkpt>
      <trkpt lat="49.89236" lon="4.7816">
        <ele>407</ele>
        <time>2021-08-14T09:17:04.000Z</time>
      </trkpt>
      <trkpt lat="49.89235" lon="4.78164">
        <ele>408</ele>
        <time>2021-08-14T09:17:05.000Z</time>
      </trkpt>
      <trkpt lat="49.89235" lon="4.78168">
        <ele>408</ele>
        <time>2021-08-14T09:17:06.000Z</time>
      </trkpt>
      <trkpt lat="49.89234" lon="4.78172">
        <ele>408</ele>
        <time>2021-08-14T09:17:07.000Z</time>
      </trkpt>
      <trkpt lat="49.89233" lon="4.78176">
        <ele>408</ele>
        <time>2021-08-14T09:17:08.000Z</time>
      </trkpt>
      <trkpt lat="49.89232" lon="4.7818">
        <ele>409</ele>
        <time>2021-08-14T09:17:09.000Z</time>
      </trkpt>
      <trkpt lat="49.89232" lon="4.78184">
        <ele>409</ele>
        <time>2021-08-14T09:17:10.000Z</time>
      </trkpt>
      <trkpt lat="49.89231" lon="4.78188">
        <ele>409</ele>
        <time>2021-08-14T09:17:11.000Z</time>
      </trkpt>
      <trkpt lat="49.89231" lon="4.78193">
        <ele>409</ele>
        <time>2021-08-14T09:17:12.000Z</time>
      </trkpt>
      <trkpt lat="49.89232" lon="4.78197">
        <ele>409</ele>
        <time>2021-08-14T09:17:13.000Z</time>
      </trkpt>
      <trkpt lat="49.89232" lon="4.78202">
        <ele>409</ele>
        <time>2021-08-14T09:17:14.000Z</time>
      </trkpt>
      <trkpt lat="49.89233" lon="4.78206">
        <ele>410</ele>
        <time>2021-08-14T09:17:15.000Z</time>
      </trkpt>
      <trkpt lat="49.89234" lon="4.7821">
        <ele>410</ele>
        <time>2021-08-14T09:17:16.000Z</time>
      </trkpt>
      <trkpt lat="49.89235" lon="4.78214">
        <ele>410</ele>
        <time>2021-08-14T09:17:17.000Z</time>
      </trkpt>
      <trkpt lat="49.89236" lon="4.78218">
        <ele>410</ele>
        <time>2021-08-14T09:17:18.000Z</time>
      </trkpt>
      <trkpt lat="49.89238" lon="4.78222">
        <ele>410</ele>
        <time>2021-08-14T09:17:19.000Z</time>
      </trkpt>
      <trkpt lat="49.89239" lon="4.78226">
        <ele>410</ele>
        <time>2021-08-14T09:17:20.000Z</time>
      </trkpt>
      <trkpt lat="49.89241" lon="4.78229">
        <ele>410</ele>
        <time>2021-08-14T09:17:21.000Z</time>
      </trkpt>
      <trkpt lat="49.89242" lon="4.78233">
        <ele>411</ele>
        <time>2021-08-14T09:17:22.000Z</time>
      </trkpt>
      <trkpt lat="49.89244" lon="4.78236">
        <ele>411</ele>
        <time>2021-08-14T09:17:23.000Z</time>
      </trkpt>
      <trkpt lat="49.89246" lon="4.7824">
        <ele>411</ele>
        <time>2021-08-14T09:17:24.000Z</time>
      </trkpt>
      <trkpt lat="49.89248" lon="4.78243">
        <ele>411</ele>
        <time>2021-08-14T09:17:25.000Z</time>
      </trkpt>
      <trkpt lat="49.8925" lon="4.78247">
        <ele>411</ele>
        <time>2021-08-14T09:17:26.000Z</time>
      </trkpt>
      <trkpt lat="49.89252" lon="4.7825">
        <ele>411</ele>
        <time>2021-08-14T09:17:27.000Z</time>
      </trkpt>
      <trkpt lat="49.89254" lon="4.78254">
        <ele>412</ele>
        <time>2021-08-14T09:17:28.000Z</time>
      </trkpt>
      <trkpt lat="49.89256" lon="4.78257">
        <ele>412</ele>
        <time>2021-08-14T09:17:29.000Z</time>
      </trkpt>
      <trkpt lat="49.89259" lon="4.7826">
        <ele>412</ele>
        <time>2021-08-14T09:17:30.000Z</time>
      </trkpt>
      <trkpt lat="49.89261" lon="4.78263">
        <ele>412</ele>
        <time>2021-08-14T09:17:31.000Z</time>
      </trkpt>
      <trkpt lat="49.89263" lon="4.78267">
        <ele>412</ele>
        <time>2021-08-14T09:17:32.000Z</time>
      </trkpt>
      <trkpt lat="49.89265" lon="4.78271">
        <ele>412</ele>
        <time>2021-08-14T09:17:33.000Z</time>
      </trkpt>
      <trkpt lat="49.89266" lon="4.78274">
        <ele>412</ele>
        <time>2021-08-14T09:17:34.000Z</time>
      </trkpt>
      <trkpt lat="49.89266" lon="4.78277">
        <ele>412</ele>
        <time>2021-08-14T09:17:35.000Z</time>
      </trkpt>
      <trkpt lat="49.89264" lon="4.78281">
        <ele>412</ele>
        <time>2021-08-14T09:17:36.000Z</time>
      </trkpt>
      <trkpt lat="49.89263" lon="4.78284">
        <ele>412</ele>
        <time>2021-08-14T09:17:37.000Z</time>
      </trkpt>
      <trkpt lat="49.89262" lon="4.78287">
        <ele>412</ele>
        <time>2021-08-14T09:17:38.000Z</time>
      </trkpt>
      <trkpt lat="49.89261" lon="4.78291">
        <ele>413</ele>
        <time>2021-08-14T09:17:39.000Z</time>
      </trkpt>
      <trkpt lat="49.89258" lon="4.78295">
        <ele>413</ele>
        <time>2021-08-14T09:17:40.000Z</time>
      </trkpt>
      <trkpt lat="49.89256" lon="4.78298">
        <ele>413</ele>
        <time>2021-08-14T09:17:41.000Z</time>
      </trkpt>
      <trkpt lat="49.89253" lon="4.78302">
        <ele>413</ele>
        <time>2021-08-14T09:17:42.000Z</time>
      </trkpt>
      <trkpt lat="49.89251" lon="4.78305">
        <ele>413</ele>
        <time>2021-08-14T09:17:43.000Z</time>
      </trkpt>
      <trkpt lat="49.89248" lon="4.78309">
        <ele>413</ele>
        <time>2021-08-14T09:17:44.000Z</time>
      </trkpt>
      <trkpt lat="49.89246" lon="4.78312">
        <ele>413</ele>
        <time>2021-08-14T09:17:45.000Z</time>
      </trkpt>
      <trkpt lat="49.89243" lon="4.78316">
        <ele>414</ele>
        <time>2021-08-14T09:17:46.000Z</time>
      </trkpt>
      <trkpt lat="49.8924" lon="4.78319">
        <ele>414</ele>
        <time>2021-08-14T09:17:47.000Z</time>
      </trkpt>
      <trkpt lat="49.89238" lon="4.78323">
        <ele>414</ele>
        <time>2021-08-14T09:17:48.000Z</time>
      </trkpt>
      <trkpt lat="49.89234" lon="4.78327">
        <ele>414</ele>
        <time>2021-08-14T09:17:49.000Z</time>
      </trkpt>
      <trkpt lat="49.89231" lon="4.7833">
        <ele>414</ele>
        <time>2021-08-14T09:17:50.000Z</time>
      </trkpt>
      <trkpt lat="49.89227" lon="4.78333">
        <ele>415</ele>
        <time>2021-08-14T09:17:51.000Z</time>
      </trkpt>
      <trkpt lat="49.89224" lon="4.78336">
        <ele>415</ele>
        <time>2021-08-14T09:17:52.000Z</time>
      </trkpt>
      <trkpt lat="49.8922" lon="4.78338">
        <ele>415</ele>
        <time>2021-08-14T09:17:53.000Z</time>
      </trkpt>
      <trkpt lat="49.89217" lon="4.78341">
        <ele>415</ele>
        <time>2021-08-14T09:17:54.000Z</time>
      </trkpt>
      <trkpt lat="49.89213" lon="4.78343">
        <ele>415</ele>
        <time>2021-08-14T09:17:55.000Z</time>
      </trkpt>
      <trkpt lat="49.8921" lon="4.78347">
        <ele>415</ele>
        <time>2021-08-14T09:17:56.000Z</time>
      </trkpt>
      <trkpt lat="49.89207" lon="4.7835">
        <ele>415</ele>
        <time>2021-08-14T09:17:57.000Z</time>
      </trkpt>
      <trkpt lat="49.89203" lon="4.78354">
        <ele>415</ele>
        <time>2021-08-14T09:17:58.000Z</time>
      </trkpt>
      <trkpt lat="49.89199" lon="4.78357">
        <ele>415</ele>
        <time>2021-08-14T09:17:59.000Z</time>
      </trkpt>
      <trkpt lat="49.89195" lon="4.78361">
        <ele>415</ele>
        <time>2021-08-14T09:18:00.000Z</time>
      </trkpt>
      <trkpt lat="49.89192" lon="4.78363">
        <ele>416</ele>
        <time>2021-08-14T09:18:01.000Z</time>
      </trkpt>
      <trkpt lat="49.89189" lon="4.78365">
        <ele>416</ele>
        <time>2021-08-14T09:18:02.000Z</time>
      </trkpt>
      <trkpt lat="49.89186" lon="4.78368">
        <ele>416</ele>
        <time>2021-08-14T09:18:03.000Z</time>
      </trkpt>
      <trkpt lat="49.89182" lon="4.78371">
        <ele>416</ele>
        <time>2021-08-14T09:18:04.000Z</time>
      </trkpt>
      <trkpt lat="49.89179" lon="4.78374">
        <ele>416</ele>
        <time>2021-08-14T09:18:05.000Z</time>
      </trkpt>
      <trkpt lat="49.89176" lon="4.78376">
        <ele>417</ele>
        <time>2021-08-14T09:18:06.000Z</time>
      </trkpt>
      <trkpt lat="49.89172" lon="4.7838">
        <ele>417</ele>
        <time>2021-08-14T09:18:07.000Z</time>
      </trkpt>
      <trkpt lat="49.89169" lon="4.78383">
        <ele>417</ele>
        <time>2021-08-14T09:18:08.000Z</time>
      </trkpt>
      <trkpt lat="49.89166" lon="4.78386">
        <ele>417</ele>
        <time>2021-08-14T09:18:09.000Z</time>
      </trkpt>
      <trkpt lat="49.89163" lon="4.78389">
        <ele>418</ele>
        <time>2021-08-14T09:18:10.000Z</time>
      </trkpt>
      <trkpt lat="49.89159" lon="4.78392">
        <ele>418</ele>
        <time>2021-08-14T09:18:11.000Z</time>
      </trkpt>
      <trkpt lat="49.89156" lon="4.78395">
        <ele>418</ele>
        <time>2021-08-14T09:18:12.000Z</time>
      </trkpt>
      <trkpt lat="49.89153" lon="4.78399">
        <ele>418</ele>
        <time>2021-08-14T09:18:13.000Z</time>
      </trkpt>
      <trkpt lat="49.8915" lon="4.78403">
        <ele>419</ele>
        <time>2021-08-14T09:18:14.000Z</time>
      </trkpt>
      <trkpt lat="49.89147" lon="4.78407">
        <ele>419</ele>
        <time>2021-08-14T09:18:15.000Z</time>
      </trkpt>
      <trkpt lat="49.89144" lon="4.78411">
        <ele>419</ele>
        <time>2021-08-14T09:18:16.000Z</time>
      </trkpt>
      <trkpt lat="49.89141" lon="4.78414">
        <ele>419</ele>
        <time>2021-08-14T09:18:17.000Z</time>
      </trkpt>
      <trkpt lat="49.89136" lon="4.78415">
        <ele>419</ele>
        <time>2021-08-14T09:18:18.000Z</time>
      </trkpt>
      <trkpt lat="49.89132" lon="4.78417">
        <ele>419</ele>
        <time>2021-08-14T09:18:19.000Z</time>
      </trkpt>
      <trkpt lat="49.89129" lon="4.78418">
        <ele>419</ele>
        <time>2021-08-14T09:18:20.000Z</time>
      </trkpt>
      <trkpt lat="49.89125" lon="4.78419">
        <ele>419</ele>
        <time>2021-08-14T09:18:21.000Z</time>
      </trkpt>
      <trkpt lat="49.89122" lon="4.7842">
        <ele>419</ele>
        <time>2021-08-14T09:18:22.000Z</time>
      </trkpt>
      <trkpt lat="49.89119" lon="4.78422">
        <ele>419</ele>
        <time>2021-08-14T09:18:23.000Z</time>
      </trkpt>
      <trkpt lat="49.89115" lon="4.78423">
        <ele>419</ele>
        <time>2021-08-14T09:18:24.000Z</time>
      </trkpt>
      <trkpt lat="49.8911" lon="4.78424">
        <ele>419</ele>
        <time>2021-08-14T09:18:25.000Z</time>
      </trkpt>
      <trkpt lat="49.89105" lon="4.78425">
        <ele>419</ele>
        <time>2021-08-14T09:18:26.000Z</time>
      </trkpt>
      <trkpt lat="49.891" lon="4.78429">
        <ele>418</ele>
        <time>2021-08-14T09:18:27.000Z</time>
      </trkpt>
      <trkpt lat="49.89094" lon="4.78432">
        <ele>418</ele>
        <time>2021-08-14T09:18:28.000Z</time>
      </trkpt>
      <trkpt lat="49.89089" lon="4.78437">
        <ele>418</ele>
        <time>2021-08-14T09:18:29.000Z</time>
      </trkpt>
      <trkpt lat="49.89083" lon="4.78442">
        <ele>418</ele>
        <time>2021-08-14T09:18:30.000Z</time>
      </trkpt>
      <trkpt lat="49.89078" lon="4.78448">
        <ele>417</ele>
        <time>2021-08-14T09:18:31.000Z</time>
      </trkpt>
      <trkpt lat="49.89073" lon="4.78454">
        <ele>417</ele>
        <time>2021-08-14T09:18:32.000Z</time>
      </trkpt>
      <trkpt lat="49.89068" lon="4.7846">
        <ele>417</ele>
        <time>2021-08-14T09:18:33.000Z</time>
      </trkpt>
      <trkpt lat="49.89063" lon="4.78466">
        <ele>417</ele>
        <time>2021-08-14T09:18:34.000Z</time>
      </trkpt>
      <trkpt lat="49.89057" lon="4.78471">
        <ele>417</ele>
        <time>2021-08-14T09:18:35.000Z</time>
      </trkpt>
      <trkpt lat="49.89051" lon="4.78476">
        <ele>416</ele>
        <time>2021-08-14T09:18:36.000Z</time>
      </trkpt>
      <trkpt lat="49.89046" lon="4.7848">
        <ele>416</ele>
        <time>2021-08-14T09:18:37.000Z</time>
      </trkpt>
      <trkpt lat="49.8904" lon="4.78484">
        <ele>416</ele>
        <time>2021-08-14T09:18:38.000Z</time>
      </trkpt>
      <trkpt lat="49.89035" lon="4.78487">
        <ele>416</ele>
        <time>2021-08-14T09:18:39.000Z</time>
      </trkpt>
      <trkpt lat="49.89029" lon="4.7849">
        <ele>416</ele>
        <time>2021-08-14T09:18:40.000Z</time>
      </trkpt>
      <trkpt lat="49.89023" lon="4.78492">
        <ele>415</ele>
        <time>2021-08-14T09:18:41.000Z</time>
      </trkpt>
      <trkpt lat="49.89017" lon="4.78494">
        <ele>415</ele>
        <time>2021-08-14T09:18:42.000Z</time>
      </trkpt>
      <trkpt lat="49.89011" lon="4.78496">
        <ele>415</ele>
        <time>2021-08-14T09:18:43.000Z</time>
      </trkpt>
      <trkpt lat="49.89005" lon="4.78498">
        <ele>414</ele>
        <time>2021-08-14T09:18:44.000Z</time>
      </trkpt>
      <trkpt lat="49.88999" lon="4.785">
        <ele>414</ele>
        <time>2021-08-14T09:18:45.000Z</time>
      </trkpt>
      <trkpt lat="49.88992" lon="4.78501">
        <ele>414</ele>
        <time>2021-08-14T09:18:46.000Z</time>
      </trkpt>
      <trkpt lat="49.88986" lon="4.78502">
        <ele>413</ele>
        <time>2021-08-14T09:18:47.000Z</time>
      </trkpt>
      <trkpt lat="49.8898" lon="4.78504">
        <ele>413</ele>
        <time>2021-08-14T09:18:48.000Z</time>
      </trkpt>
      <trkpt lat="49.88974" lon="4.78505">
        <ele>412</ele>
        <time>2021-08-14T09:18:49.000Z</time>
      </trkpt>
      <trkpt lat="49.88969" lon="4.78507">
        <ele>412</ele>
        <time>2021-08-14T09:18:50.000Z</time>
      </trkpt>
      <trkpt lat="49.88963" lon="4.78509">
        <ele>412</ele>
        <time>2021-08-14T09:18:51.000Z</time>
      </trkpt>
      <trkpt lat="49.88958" lon="4.7851">
        <ele>411</ele>
        <time>2021-08-14T09:18:52.000Z</time>
      </trkpt>
      <trkpt lat="49.88953" lon="4.78511">
        <ele>411</ele>
        <time>2021-08-14T09:18:53.000Z</time>
      </trkpt>
      <trkpt lat="49.88949" lon="4.78512">
        <ele>411</ele>
        <time>2021-08-14T09:18:54.000Z</time>
      </trkpt>
      <trkpt lat="49.88944" lon="4.78513">
        <ele>410</ele>
        <time>2021-08-14T09:18:55.000Z</time>
      </trkpt>
      <trkpt lat="49.88939" lon="4.78514">
        <ele>410</ele>
        <time>2021-08-14T09:18:56.000Z</time>
      </trkpt>
      <trkpt lat="49.88933" lon="4.78514">
        <ele>410</ele>
        <time>2021-08-14T09:18:57.000Z</time>
      </trkpt>
      <trkpt lat="49.88928" lon="4.78515">
        <ele>409</ele>
        <time>2021-08-14T09:18:58.000Z</time>
      </trkpt>
      <trkpt lat="49.88923" lon="4.78515">
        <ele>409</ele>
        <time>2021-08-14T09:18:59.000Z</time>
      </trkpt>
      <trkpt lat="49.88918" lon="4.78516">
        <ele>409</ele>
        <time>2021-08-14T09:19:00.000Z</time>
      </trkpt>
      <trkpt lat="49.88912" lon="4.78516">
        <ele>408</ele>
        <time>2021-08-14T09:19:01.000Z</time>
      </trkpt>
      <trkpt lat="49.88908" lon="4.78515">
        <ele>408</ele>
        <time>2021-08-14T09:19:02.000Z</time>
      </trkpt>
      <trkpt lat="49.88903" lon="4.78515">
        <ele>408</ele>
        <time>2021-08-14T09:19:03.000Z</time>
      </trkpt>
      <trkpt lat="49.88898" lon="4.78515">
        <ele>407</ele>
        <time>2021-08-14T09:19:04.000Z</time>
      </trkpt>
      <trkpt lat="49.88893" lon="4.78515">
        <ele>407</ele>
        <time>2021-08-14T09:19:05.000Z</time>
      </trkpt>
      <trkpt lat="49.88888" lon="4.78516">
        <ele>407</ele>
        <time>2021-08-14T09:19:06.000Z</time>
      </trkpt>
      <trkpt lat="49.88884" lon="4.78517">
        <ele>406</ele>
        <time>2021-08-14T09:19:07.000Z</time>
      </trkpt>
      <trkpt lat="49.88878" lon="4.78518">
        <ele>406</ele>
        <time>2021-08-14T09:19:08.000Z</time>
      </trkpt>
      <trkpt lat="49.88873" lon="4.78518">
        <ele>405</ele>
        <time>2021-08-14T09:19:09.000Z</time>
      </trkpt>
      <trkpt lat="49.88867" lon="4.78519">
        <ele>405</ele>
        <time>2021-08-14T09:19:10.000Z</time>
      </trkpt>
      <trkpt lat="49.88862" lon="4.78519">
        <ele>404</ele>
        <time>2021-08-14T09:19:11.000Z</time>
      </trkpt>
      <trkpt lat="49.88856" lon="4.78519">
        <ele>404</ele>
        <time>2021-08-14T09:19:12.000Z</time>
      </trkpt>
      <trkpt lat="49.88851" lon="4.7852">
        <ele>404</ele>
        <time>2021-08-14T09:19:13.000Z</time>
      </trkpt>
      <trkpt lat="49.88845" lon="4.78519">
        <ele>403</ele>
        <time>2021-08-14T09:19:14.000Z</time>
      </trkpt>
      <trkpt lat="49.8884" lon="4.78519">
        <ele>403</ele>
        <time>2021-08-14T09:19:15.000Z</time>
      </trkpt>
      <trkpt lat="49.88834" lon="4.78519">
        <ele>402</ele>
        <time>2021-08-14T09:19:16.000Z</time>
      </trkpt>
      <trkpt lat="49.88829" lon="4.78519">
        <ele>402</ele>
        <time>2021-08-14T09:19:17.000Z</time>
      </trkpt>
      <trkpt lat="49.88824" lon="4.78518">
        <ele>402</ele>
        <time>2021-08-14T09:19:18.000Z</time>
      </trkpt>
      <trkpt lat="49.8882" lon="4.78518">
        <ele>402</ele>
        <time>2021-08-14T09:19:19.000Z</time>
      </trkpt>
      <trkpt lat="49.88815" lon="4.78516">
        <ele>401</ele>
        <time>2021-08-14T09:19:20.000Z</time>
      </trkpt>
      <trkpt lat="49.8881" lon="4.78515">
        <ele>401</ele>
        <time>2021-08-14T09:19:21.000Z</time>
      </trkpt>
      <trkpt lat="49.88805" lon="4.78512">
        <ele>401</ele>
        <time>2021-08-14T09:19:22.000Z</time>
      </trkpt>
      <trkpt lat="49.88801" lon="4.7851">
        <ele>400</ele>
        <time>2021-08-14T09:19:23.000Z</time>
      </trkpt>
      <trkpt lat="49.88797" lon="4.78507">
        <ele>400</ele>
        <time>2021-08-14T09:19:24.000Z</time>
      </trkpt>
      <trkpt lat="49.88793" lon="4.78504">
        <ele>400</ele>
        <time>2021-08-14T09:19:25.000Z</time>
      </trkpt>
      <trkpt lat="49.88789" lon="4.78501">
        <ele>399</ele>
        <time>2021-08-14T09:19:26.000Z</time>
      </trkpt>
      <trkpt lat="49.88785" lon="4.78498">
        <ele>399</ele>
        <time>2021-08-14T09:19:27.000Z</time>
      </trkpt>
      <trkpt lat="49.88781" lon="4.78496">
        <ele>398</ele>
        <time>2021-08-14T09:19:28.000Z</time>
      </trkpt>
      <trkpt lat="49.88777" lon="4.78494">
        <ele>398</ele>
        <time>2021-08-14T09:19:29.000Z</time>
      </trkpt>
      <trkpt lat="49.88773" lon="4.78491">
        <ele>398</ele>
        <time>2021-08-14T09:19:30.000Z</time>
      </trkpt>
      <trkpt lat="49.88768" lon="4.78488">
        <ele>397</ele>
        <time>2021-08-14T09:19:31.000Z</time>
      </trkpt>
      <trkpt lat="49.88764" lon="4.78485">
        <ele>397</ele>
        <time>2021-08-14T09:19:32.000Z</time>
      </trkpt>
      <trkpt lat="49.88761" lon="4.78484">
        <ele>397</ele>
        <time>2021-08-14T09:19:33.000Z</time>
      </trkpt>
      <trkpt lat="49.88757" lon="4.78483">
        <ele>396</ele>
        <time>2021-08-14T09:19:34.000Z</time>
      </trkpt>
      <trkpt lat="49.88754" lon="4.78481">
        <ele>396</ele>
        <time>2021-08-14T09:19:35.000Z</time>
      </trkpt>
      <trkpt lat="49.8875" lon="4.78479">
        <ele>396</ele>
        <time>2021-08-14T09:19:36.000Z</time>
      </trkpt>
      <trkpt lat="49.88746" lon="4.78477">
        <ele>396</ele>
        <time>2021-08-14T09:19:37.000Z</time>
      </trkpt>
      <trkpt lat="49.88741" lon="4.78477">
        <ele>395</ele>
        <time>2021-08-14T09:19:38.000Z</time>
      </trkpt>
      <trkpt lat="49.88735" lon="4.78477">
        <ele>395</ele>
        <time>2021-08-14T09:19:39.000Z</time>
      </trkpt>
      <trkpt lat="49.8873" lon="4.78476">
        <ele>395</ele>
        <time>2021-08-14T09:19:40.000Z</time>
      </trkpt>
      <trkpt lat="49.88725" lon="4.78475">
        <ele>394</ele>
        <time>2021-08-14T09:19:41.000Z</time>
      </trkpt>
      <trkpt lat="49.8872" lon="4.78475">
        <ele>394</ele>
        <time>2021-08-14T09:19:42.000Z</time>
      </trkpt>
      <trkpt lat="49.88715" lon="4.78473">
        <ele>394</ele>
        <time>2021-08-14T09:19:43.000Z</time>
      </trkpt>
      <trkpt lat="49.8871" lon="4.78473">
        <ele>393</ele>
        <time>2021-08-14T09:19:44.000Z</time>
      </trkpt>
      <trkpt lat="49.88706" lon="4.78472">
        <ele>393</ele>
        <time>2021-08-14T09:19:45.000Z</time>
      </trkpt>
      <trkpt lat="49.88701" lon="4.78471">
        <ele>393</ele>
        <time>2021-08-14T09:19:46.000Z</time>
      </trkpt>
      <trkpt lat="49.88696" lon="4.78469">
        <ele>392</ele>
        <time>2021-08-14T09:19:47.000Z</time>
      </trkpt>
      <trkpt lat="49.88693" lon="4.78468">
        <ele>392</ele>
        <time>2021-08-14T09:19:48.000Z</time>
      </trkpt>
      <trkpt lat="49.8869" lon="4.78467">
        <ele>392</ele>
        <time>2021-08-14T09:19:49.000Z</time>
      </trkpt>
      <trkpt lat="49.88687" lon="4.78467">
        <ele>391</ele>
        <time>2021-08-14T09:19:50.000Z</time>
      </trkpt>
      <trkpt lat="49.88682" lon="4.78465">
        <ele>391</ele>
        <time>2021-08-14T09:19:51.000Z</time>
      </trkpt>
      <trkpt lat="49.88678" lon="4.78464">
        <ele>391</ele>
        <time>2021-08-14T09:19:52.000Z</time>
      </trkpt>
      <trkpt lat="49.88674" lon="4.78462">
        <ele>391</ele>
        <time>2021-08-14T09:19:53.000Z</time>
      </trkpt>
      <trkpt lat="49.8867" lon="4.7846">
        <ele>390</ele>
        <time>2021-08-14T09:19:54.000Z</time>
      </trkpt>
      <trkpt lat="49.88666" lon="4.78458">
        <ele>390</ele>
        <time>2021-08-14T09:19:55.000Z</time>
      </trkpt>
      <trkpt lat="49.88661" lon="4.78456">
        <ele>390</ele>
        <time>2021-08-14T09:19:56.000Z</time>
      </trkpt>
      <trkpt lat="49.88657" lon="4.78453">
        <ele>389</ele>
        <time>2021-08-14T09:19:57.000Z</time>
      </trkpt>
      <trkpt lat="49.88653" lon="4.7845">
        <ele>389</ele>
        <time>2021-08-14T09:19:58.000Z</time>
      </trkpt>
      <trkpt lat="49.8865" lon="4.78448">
        <ele>389</ele>
        <time>2021-08-14T09:19:59.000Z</time>
      </trkpt>
      <trkpt lat="49.88646" lon="4.78446">
        <ele>388</ele>
        <time>2021-08-14T09:20:00.000Z</time>
      </trkpt>
      <trkpt lat="49.88642" lon="4.78445">
        <ele>388</ele>
        <time>2021-08-14T09:20:01.000Z</time>
      </trkpt>
      <trkpt lat="49.88638" lon="4.78444">
        <ele>387</ele>
        <time>2021-08-14T09:20:02.000Z</time>
      </trkpt>
      <trkpt lat="49.88635" lon="4.78445">
        <ele>387</ele>
        <time>2021-08-14T09:20:03.000Z</time>
      </trkpt>
      <trkpt lat="49.8863" lon="4.78445">
        <ele>386</ele>
        <time>2021-08-14T09:20:04.000Z</time>
      </trkpt>
      <trkpt lat="49.88625" lon="4.78444">
        <ele>386</ele>
        <time>2021-08-14T09:20:05.000Z</time>
      </trkpt>
      <trkpt lat="49.8862" lon="4.78443">
        <ele>385</ele>
        <time>2021-08-14T09:20:06.000Z</time>
      </trkpt>
      <trkpt lat="49.88615" lon="4.78442">
        <ele>385</ele>
        <time>2021-08-14T09:20:07.000Z</time>
      </trkpt>
      <trkpt lat="49.8861" lon="4.7844">
        <ele>384</ele>
        <time>2021-08-14T09:20:08.000Z</time>
      </trkpt>
      <trkpt lat="49.88605" lon="4.78439">
        <ele>384</ele>
        <time>2021-08-14T09:20:09.000Z</time>
      </trkpt>
      <trkpt lat="49.886" lon="4.78438">
        <ele>384</ele>
        <time>2021-08-14T09:20:10.000Z</time>
      </trkpt>
      <trkpt lat="49.88595" lon="4.78435">
        <ele>383</ele>
        <time>2021-08-14T09:20:11.000Z</time>
      </trkpt>
      <trkpt lat="49.88591" lon="4.78434">
        <ele>383</ele>
        <time>2021-08-14T09:20:12.000Z</time>
      </trkpt>
      <trkpt lat="49.88587" lon="4.78433">
        <ele>382</ele>
        <time>2021-08-14T09:20:13.000Z</time>
      </trkpt>
      <trkpt lat="49.88583" lon="4.78432">
        <ele>382</ele>
        <time>2021-08-14T09:20:14.000Z</time>
      </trkpt>
      <trkpt lat="49.88579" lon="4.78431">
        <ele>381</ele>
        <time>2021-08-14T09:20:15.000Z</time>
      </trkpt>
      <trkpt lat="49.88575" lon="4.78429">
        <ele>381</ele>
        <time>2021-08-14T09:20:16.000Z</time>
      </trkpt>
      <trkpt lat="49.88571" lon="4.78428">
        <ele>380</ele>
        <time>2021-08-14T09:20:17.000Z</time>
      </trkpt>
      <trkpt lat="49.88567" lon="4.78426">
        <ele>380</ele>
        <time>2021-08-14T09:20:18.000Z</time>
      </trkpt>
      <trkpt lat="49.88564" lon="4.78425">
        <ele>379</ele>
        <time>2021-08-14T09:20:19.000Z</time>
      </trkpt>
      <trkpt lat="49.88561" lon="4.78424">
        <ele>379</ele>
        <time>2021-08-14T09:20:20.000Z</time>
      </trkpt>
      <trkpt lat="49.88558" lon="4.78423">
        <ele>378</ele>
        <time>2021-08-14T09:20:21.000Z</time>
      </trkpt>
      <trkpt lat="49.88555" lon="4.78422">
        <ele>377</ele>
        <time>2021-08-14T09:20:22.000Z</time>
      </trkpt>
      <trkpt lat="49.88552" lon="4.78421">
        <ele>377</ele>
        <time>2021-08-14T09:20:23.000Z</time>
      </trkpt>
      <trkpt lat="49.88549" lon="4.7842">
        <ele>376</ele>
        <time>2021-08-14T09:20:24.000Z</time>
      </trkpt>
      <trkpt lat="49.88546" lon="4.78419">
        <ele>376</ele>
        <time>2021-08-14T09:20:25.000Z</time>
      </trkpt>
      <trkpt lat="49.88543" lon="4.78418">
        <ele>375</ele>
        <time>2021-08-14T09:20:26.000Z</time>
      </trkpt>
      <trkpt lat="49.8854" lon="4.78417">
        <ele>375</ele>
        <time>2021-08-14T09:20:27.000Z</time>
      </trkpt>
      <trkpt lat="49.88536" lon="4.78417">
        <ele>374</ele>
        <time>2021-08-14T09:20:28.000Z</time>
      </trkpt>
      <trkpt lat="49.88533" lon="4.78416">
        <ele>374</ele>
        <time>2021-08-14T09:20:29.000Z</time>
      </trkpt>
      <trkpt lat="49.88529" lon="4.78415">
        <ele>373</ele>
        <time>2021-08-14T09:20:30.000Z</time>
      </trkpt>
      <trkpt lat="49.88525" lon="4.78415">
        <ele>373</ele>
        <time>2021-08-14T09:20:31.000Z</time>
      </trkpt>
      <trkpt lat="49.88522" lon="4.78415">
        <ele>373</ele>
        <time>2021-08-14T09:20:32.000Z</time>
      </trkpt>
      <trkpt lat="49.88519" lon="4.78415">
        <ele>372</ele>
        <time>2021-08-14T09:20:33.000Z</time>
      </trkpt>
      <trkpt lat="49.88517" lon="4.78414">
        <ele>372</ele>
        <time>2021-08-14T09:20:34.000Z</time>
      </trkpt>
      <trkpt lat="49.88515" lon="4.78414">
        <ele>372</ele>
        <time>2021-08-14T09:20:35.000Z</time>
      </trkpt>
      <trkpt lat="49.88513" lon="4.78414">
        <ele>371</ele>
        <time>2021-08-14T09:20:36.000Z</time>
      </trkpt>
      <trkpt lat="49.8851" lon="4.78414">
        <ele>371</ele>
        <time>2021-08-14T09:20:37.000Z</time>
      </trkpt>
      <trkpt lat="49.88508" lon="4.78415">
        <ele>370</ele>
        <time>2021-08-14T09:20:38.000Z</time>
      </trkpt>
      <trkpt lat="49.88506" lon="4.78416">
        <ele>370</ele>
        <time>2021-08-14T09:20:39.000Z</time>
      </trkpt>
      <trkpt lat="49.88503" lon="4.78417">
        <ele>370</ele>
        <time>2021-08-14T09:20:40.000Z</time>
      </trkpt>
      <trkpt lat="49.88501" lon="4.78417">
        <ele>369</ele>
        <time>2021-08-14T09:20:41.000Z</time>
      </trkpt>
      <trkpt lat="49.88499" lon="4.78419">
        <ele>369</ele>
        <time>2021-08-14T09:20:42.000Z</time>
      </trkpt>
      <trkpt lat="49.88497" lon="4.78419">
        <ele>368</ele>
        <time>2021-08-14T09:20:43.000Z</time>
      </trkpt>
      <trkpt lat="49.88494" lon="4.7842">
        <ele>368</ele>
        <time>2021-08-14T09:20:44.000Z</time>
      </trkpt>
      <trkpt lat="49.88492" lon="4.7842">
        <ele>367</ele>
        <time>2021-08-14T09:20:45.000Z</time>
      </trkpt>
      <trkpt lat="49.88489" lon="4.7842">
        <ele>367</ele>
        <time>2021-08-14T09:20:46.000Z</time>
      </trkpt>
      <trkpt lat="49.88487" lon="4.78421">
        <ele>366</ele>
        <time>2021-08-14T09:20:47.000Z</time>
      </trkpt>
      <trkpt lat="49.88484" lon="4.78422">
        <ele>366</ele>
        <time>2021-08-14T09:20:48.000Z</time>
      </trkpt>
      <trkpt lat="49.8848" lon="4.78422">
        <ele>365</ele>
        <time>2021-08-14T09:20:49.000Z</time>
      </trkpt>
      <trkpt lat="49.88476" lon="4.78422">
        <ele>365</ele>
        <time>2021-08-14T09:20:50.000Z</time>
      </trkpt>
      <trkpt lat="49.88472" lon="4.78421">
        <ele>364</ele>
        <time>2021-08-14T09:20:51.000Z</time>
      </trkpt>
      <trkpt lat="49.88468" lon="4.78421">
        <ele>364</ele>
        <time>2021-08-14T09:20:52.000Z</time>
      </trkpt>
      <trkpt lat="49.88464" lon="4.78421">
        <ele>363</ele>
        <time>2021-08-14T09:20:53.000Z</time>
      </trkpt>
      <trkpt lat="49.8846" lon="4.7842">
        <ele>363</ele>
        <time>2021-08-14T09:20:54.000Z</time>
      </trkpt>
      <trkpt lat="49.88456" lon="4.7842">
        <ele>362</ele>
        <time>2021-08-14T09:20:55.000Z</time>
      </trkpt>
      <trkpt lat="49.88453" lon="4.7842">
        <ele>362</ele>
        <time>2021-08-14T09:20:56.000Z</time>
      </trkpt>
      <trkpt lat="49.8845" lon="4.7842">
        <ele>361</ele>
        <time>2021-08-14T09:20:57.000Z</time>
      </trkpt>
      <trkpt lat="49.88447" lon="4.78419">
        <ele>361</ele>
        <time>2021-08-14T09:20:58.000Z</time>
      </trkpt>
      <trkpt lat="49.88445" lon="4.7842">
        <ele>360</ele>
        <time>2021-08-14T09:20:59.000Z</time>
      </trkpt>
      <trkpt lat="49.88442" lon="4.78419">
        <ele>360</ele>
        <time>2021-08-14T09:21:00.000Z</time>
      </trkpt>
      <trkpt lat="49.8844" lon="4.7842">
        <ele>359</ele>
        <time>2021-08-14T09:21:01.000Z</time>
      </trkpt>
      <trkpt lat="49.88437" lon="4.7842">
        <ele>359</ele>
        <time>2021-08-14T09:21:02.000Z</time>
      </trkpt>
      <trkpt lat="49.88435" lon="4.7842">
        <ele>358</ele>
        <time>2021-08-14T09:21:03.000Z</time>
      </trkpt>
      <trkpt lat="49.88433" lon="4.78421">
        <ele>358</ele>
        <time>2021-08-14T09:21:04.000Z</time>
      </trkpt>
      <trkpt lat="49.88431" lon="4.78422">
        <ele>357</ele>
        <time>2021-08-14T09:21:05.000Z</time>
      </trkpt>
      <trkpt lat="49.88429" lon="4.78422">
        <ele>357</ele>
        <time>2021-08-14T09:21:06.000Z</time>
      </trkpt>
      <trkpt lat="49.88427" lon="4.78422">
        <ele>356</ele>
        <time>2021-08-14T09:21:07.000Z</time>
      </trkpt>
      <trkpt lat="49.88425" lon="4.78423">
        <ele>356</ele>
        <time>2021-08-14T09:21:08.000Z</time>
      </trkpt>
      <trkpt lat="49.88423" lon="4.78423">
        <ele>355</ele>
        <time>2021-08-14T09:21:09.000Z</time>
      </trkpt>
      <trkpt lat="49.88421" lon="4.78423">
        <ele>355</ele>
        <time>2021-08-14T09:21:10.000Z</time>
      </trkpt>
      <trkpt lat="49.88419" lon="4.78423">
        <ele>354</ele>
        <time>2021-08-14T09:21:11.000Z</time>
      </trkpt>
      <trkpt lat="49.88417" lon="4.78423">
        <ele>354</ele>
        <time>2021-08-14T09:21:12.000Z</time>
      </trkpt>
      <trkpt lat="49.88414" lon="4.78423">
        <ele>353</ele>
        <time>2021-08-14T09:21:13.000Z</time>
      </trkpt>
      <trkpt lat="49.88412" lon="4.78423">
        <ele>353</ele>
        <time>2021-08-14T09:21:14.000Z</time>
      </trkpt>
      <trkpt lat="49.8841" lon="4.78423">
        <ele>352</ele>
        <time>2021-08-14T09:21:15.000Z</time>
      </trkpt>
      <trkpt lat="49.88408" lon="4.78424">
        <ele>352</ele>
        <time>2021-08-14T09:21:16.000Z</time>
      </trkpt>
      <trkpt lat="49.88406" lon="4.78424">
        <ele>351</ele>
        <time>2021-08-14T09:21:17.000Z</time>
      </trkpt>
      <trkpt lat="49.88403" lon="4.78424">
        <ele>351</ele>
        <time>2021-08-14T09:21:18.000Z</time>
      </trkpt>
      <trkpt lat="49.88401" lon="4.78425">
        <ele>351</ele>
        <time>2021-08-14T09:21:19.000Z</time>
      </trkpt>
      <trkpt lat="49.88398" lon="4.78425">
        <ele>350</ele>
        <time>2021-08-14T09:21:20.000Z</time>
      </trkpt>
      <trkpt lat="49.88395" lon="4.78425">
        <ele>350</ele>
        <time>2021-08-14T09:21:21.000Z</time>
      </trkpt>
      <trkpt lat="49.88392" lon="4.78425">
        <ele>349</ele>
        <time>2021-08-14T09:21:22.000Z</time>
      </trkpt>
      <trkpt lat="49.88389" lon="4.78426">
        <ele>349</ele>
        <time>2021-08-14T09:21:23.000Z</time>
      </trkpt>
      <trkpt lat="49.88386" lon="4.78427">
        <ele>349</ele>
        <time>2021-08-14T09:21:24.000Z</time>
      </trkpt>
      <trkpt lat="49.88384" lon="4.78427">
        <ele>348</ele>
        <time>2021-08-14T09:21:25.000Z</time>
      </trkpt>
      <trkpt lat="49.88381" lon="4.78428">
        <ele>348</ele>
        <time>2021-08-14T09:21:26.000Z</time>
      </trkpt>
      <trkpt lat="49.88378" lon="4.7843">
        <ele>347</ele>
        <time>2021-08-14T09:21:27.000Z</time>
      </trkpt>
      <trkpt lat="49.88376" lon="4.78431">
        <ele>347</ele>
        <time>2021-08-14T09:21:28.000Z</time>
      </trkpt>
      <trkpt lat="49.88374" lon="4.78432">
        <ele>346</ele>
        <time>2021-08-14T09:21:29.000Z</time>
      </trkpt>
      <trkpt lat="49.88371" lon="4.78433">
        <ele>346</ele>
        <time>2021-08-14T09:21:30.000Z</time>
      </trkpt>
      <trkpt lat="49.88369" lon="4.78434">
        <ele>346</ele>
        <time>2021-08-14T09:21:31.000Z</time>
      </trkpt>
      <trkpt lat="49.88366" lon="4.78436">
        <ele>345</ele>
        <time>2021-08-14T09:21:32.000Z</time>
      </trkpt>
      <trkpt lat="49.88363" lon="4.78437">
        <ele>345</ele>
        <time>2021-08-14T09:21:33.000Z</time>
      </trkpt>
      <trkpt lat="49.88361" lon="4.78438">
        <ele>344</ele>
        <time>2021-08-14T09:21:34.000Z</time>
      </trkpt>
      <trkpt lat="49.88359" lon="4.78439">
        <ele>344</ele>
        <time>2021-08-14T09:21:35.000Z</time>
      </trkpt>
      <trkpt lat="49.88357" lon="4.78439">
        <ele>343</ele>
        <time>2021-08-14T09:21:36.000Z</time>
      </trkpt>
      <trkpt lat="49.88355" lon="4.78441">
        <ele>343</ele>
        <time>2021-08-14T09:21:37.000Z</time>
      </trkpt>
      <trkpt lat="49.88352" lon="4.78442">
        <ele>343</ele>
        <time>2021-08-14T09:21:38.000Z</time>
      </trkpt>
      <trkpt lat="49.88349" lon="4.78443">
        <ele>342</ele>
        <time>2021-08-14T09:21:39.000Z</time>
      </trkpt>
      <trkpt lat="49.88347" lon="4.78445">
        <ele>341</ele>
        <time>2021-08-14T09:21:40.000Z</time>
      </trkpt>
      <trkpt lat="49.88344" lon="4.78447">
        <ele>341</ele>
        <time>2021-08-14T09:21:41.000Z</time>
      </trkpt>
      <trkpt lat="49.88342" lon="4.78448">
        <ele>340</ele>
        <time>2021-08-14T09:21:42.000Z</time>
      </trkpt>
      <trkpt lat="49.88339" lon="4.78449">
        <ele>340</ele>
        <time>2021-08-14T09:21:43.000Z</time>
      </trkpt>
      <trkpt lat="49.88336" lon="4.7845">
        <ele>339</ele>
        <time>2021-08-14T09:21:44.000Z</time>
      </trkpt>
      <trkpt lat="49.88332" lon="4.78452">
        <ele>339</ele>
        <time>2021-08-14T09:21:45.000Z</time>
      </trkpt>
      <trkpt lat="49.88329" lon="4.78453">
        <ele>338</ele>
        <time>2021-08-14T09:21:46.000Z</time>
      </trkpt>
      <trkpt lat="49.88326" lon="4.78455">
        <ele>338</ele>
        <time>2021-08-14T09:21:47.000Z</time>
      </trkpt>
      <trkpt lat="49.88323" lon="4.78457">
        <ele>337</ele>
        <time>2021-08-14T09:21:48.000Z</time>
      </trkpt>
      <trkpt lat="49.88321" lon="4.78458">
        <ele>337</ele>
        <time>2021-08-14T09:21:49.000Z</time>
      </trkpt>
      <trkpt lat="49.88318" lon="4.78459">
        <ele>336</ele>
        <time>2021-08-14T09:21:50.000Z</time>
      </trkpt>
      <trkpt lat="49.88316" lon="4.7846">
        <ele>336</ele>
        <time>2021-08-14T09:21:51.000Z</time>
      </trkpt>
      <trkpt lat="49.88314" lon="4.78461">
        <ele>335</ele>
        <time>2021-08-14T09:21:52.000Z</time>
      </trkpt>
      <trkpt lat="49.88311" lon="4.78462">
        <ele>334</ele>
        <time>2021-08-14T09:21:53.000Z</time>
      </trkpt>
      <trkpt lat="49.88308" lon="4.78463">
        <ele>334</ele>
        <time>2021-08-14T09:21:54.000Z</time>
      </trkpt>
      <trkpt lat="49.88305" lon="4.78464">
        <ele>333</ele>
        <time>2021-08-14T09:21:55.000Z</time>
      </trkpt>
      <trkpt lat="49.88302" lon="4.78465">
        <ele>333</ele>
        <time>2021-08-14T09:21:56.000Z</time>
      </trkpt>
      <trkpt lat="49.88299" lon="4.78466">
        <ele>332</ele>
        <time>2021-08-14T09:21:57.000Z</time>
      </trkpt>
      <trkpt lat="49.88296" lon="4.78467">
        <ele>331</ele>
        <time>2021-08-14T09:21:58.000Z</time>
      </trkpt>
      <trkpt lat="49.88293" lon="4.78468">
        <ele>331</ele>
        <time>2021-08-14T09:21:59.000Z</time>
      </trkpt>
      <trkpt lat="49.88291" lon="4.78469">
        <ele>330</ele>
        <time>2021-08-14T09:22:00.000Z</time>
      </trkpt>
      <trkpt lat="49.88289" lon="4.78471">
        <ele>330</ele>
        <time>2021-08-14T09:22:01.000Z</time>
      </trkpt>
      <trkpt lat="49.88287" lon="4.78473">
        <ele>329</ele>
        <time>2021-08-14T09:22:02.000Z</time>
      </trkpt>
      <trkpt lat="49.88284" lon="4.78474">
        <ele>329</ele>
        <time>2021-08-14T09:22:03.000Z</time>
      </trkpt>
      <trkpt lat="49.88281" lon="4.78475">
        <ele>328</ele>
        <time>2021-08-14T09:22:04.000Z</time>
      </trkpt>
      <trkpt lat="49.88279" lon="4.78476">
        <ele>327</ele>
        <time>2021-08-14T09:22:05.000Z</time>
      </trkpt>
      <trkpt lat="49.88277" lon="4.78478">
        <ele>327</ele>
        <time>2021-08-14T09:22:06.000Z</time>
      </trkpt>
      <trkpt lat="49.88275" lon="4.7848">
        <ele>326</ele>
        <time>2021-08-14T09:22:07.000Z</time>
      </trkpt>
      <trkpt lat="49.88273" lon="4.78481">
        <ele>326</ele>
        <time>2021-08-14T09:22:08.000Z</time>
      </trkpt>
      <trkpt lat="49.88271" lon="4.78482">
        <ele>325</ele>
        <time>2021-08-14T09:22:09.000Z</time>
      </trkpt>
      <trkpt lat="49.88269" lon="4.78483">
        <ele>325</ele>
        <time>2021-08-14T09:22:10.000Z</time>
      </trkpt>
      <trkpt lat="49.88266" lon="4.78485">
        <ele>324</ele>
        <time>2021-08-14T09:22:11.000Z</time>
      </trkpt>
      <trkpt lat="49.88264" lon="4.78486">
        <ele>324</ele>
        <time>2021-08-14T09:22:12.000Z</time>
      </trkpt>
      <trkpt lat="49.88261" lon="4.78487">
        <ele>323</ele>
        <time>2021-08-14T09:22:13.000Z</time>
      </trkpt>
      <trkpt lat="49.88258" lon="4.78487">
        <ele>322</ele>
        <time>2021-08-14T09:22:14.000Z</time>
      </trkpt>
      <trkpt lat="49.88255" lon="4.78487">
        <ele>322</ele>
        <time>2021-08-14T09:22:15.000Z</time>
      </trkpt>
      <trkpt lat="49.88253" lon="4.78487">
        <ele>321</ele>
        <time>2021-08-14T09:22:16.000Z</time>
      </trkpt>
      <trkpt lat="49.88251" lon="4.78488">
        <ele>321</ele>
        <time>2021-08-14T09:22:17.000Z</time>
      </trkpt>
      <trkpt lat="49.88249" lon="4.78488">
        <ele>320</ele>
        <time>2021-08-14T09:22:18.000Z</time>
      </trkpt>
      <trkpt lat="49.88248" lon="4.78489">
        <ele>320</ele>
        <time>2021-08-14T09:22:19.000Z</time>
      </trkpt>
      <trkpt lat="49.88247" lon="4.7849">
        <ele>319</ele>
        <time>2021-08-14T09:22:20.000Z</time>
      </trkpt>
      <trkpt lat="49.88245" lon="4.7849">
        <ele>319</ele>
        <time>2021-08-14T09:22:21.000Z</time>
      </trkpt>
      <trkpt lat="49.88242" lon="4.78491">
        <ele>318</ele>
        <time>2021-08-14T09:22:22.000Z</time>
      </trkpt>
      <trkpt lat="49.88239" lon="4.78491">
        <ele>317</ele>
        <time>2021-08-14T09:22:23.000Z</time>
      </trkpt>
      <trkpt lat="49.88237" lon="4.78492">
        <ele>317</ele>
        <time>2021-08-14T09:22:24.000Z</time>
      </trkpt>
      <trkpt lat="49.88235" lon="4.78494">
        <ele>316</ele>
        <time>2021-08-14T09:22:25.000Z</time>
      </trkpt>
      <trkpt lat="49.88233" lon="4.78496">
        <ele>316</ele>
        <time>2021-08-14T09:22:26.000Z</time>
      </trkpt>
      <trkpt lat="49.88231" lon="4.78497">
        <ele>316</ele>
        <time>2021-08-14T09:22:27.000Z</time>
      </trkpt>
      <trkpt lat="49.88229" lon="4.78498">
        <ele>315</ele>
        <time>2021-08-14T09:22:28.000Z</time>
      </trkpt>
      <trkpt lat="49.88228" lon="4.78499">
        <ele>315</ele>
        <time>2021-08-14T09:22:29.000Z</time>
      </trkpt>
      <trkpt lat="49.88226" lon="4.78501">
        <ele>315</ele>
        <time>2021-08-14T09:22:30.000Z</time>
      </trkpt>
      <trkpt lat="49.88224" lon="4.78502">
        <ele>314</ele>
        <time>2021-08-14T09:22:31.000Z</time>
      </trkpt>
      <trkpt lat="49.88223" lon="4.78504">
        <ele>314</ele>
        <time>2021-08-14T09:22:32.000Z</time>
      </trkpt>
      <trkpt lat="49.88221" lon="4.78506">
        <ele>313</ele>
        <time>2021-08-14T09:22:33.000Z</time>
      </trkpt>
      <trkpt lat="49.88219" lon="4.78508">
        <ele>313</ele>
        <time>2021-08-14T09:22:34.000Z</time>
      </trkpt>
      <trkpt lat="49.88217" lon="4.7851">
        <ele>313</ele>
        <time>2021-08-14T09:22:35.000Z</time>
      </trkpt>
      <trkpt lat="49.88216" lon="4.78512">
        <ele>312</ele>
        <time>2021-08-14T09:22:36.000Z</time>
      </trkpt>
      <trkpt lat="49.88214" lon="4.78513">
        <ele>312</ele>
        <time>2021-08-14T09:22:37.000Z</time>
      </trkpt>
      <trkpt lat="49.88213" lon="4.78515">
        <ele>312</ele>
        <time>2021-08-14T09:22:38.000Z</time>
      </trkpt>
      <trkpt lat="49.88211" lon="4.78517">
        <ele>311</ele>
        <time>2021-08-14T09:22:39.000Z</time>
      </trkpt>
      <trkpt lat="49.88209" lon="4.78519">
        <ele>311</ele>
        <time>2021-08-14T09:22:40.000Z</time>
      </trkpt>
      <trkpt lat="49.88207" lon="4.78521">
        <ele>311</ele>
        <time>2021-08-14T09:22:41.000Z</time>
      </trkpt>
      <trkpt lat="49.88205" lon="4.78522">
        <ele>310</ele>
        <time>2021-08-14T09:22:42.000Z</time>
      </trkpt>
      <trkpt lat="49.88204" lon="4.78523">
        <ele>310</ele>
        <time>2021-08-14T09:22:43.000Z</time>
      </trkpt>
      <trkpt lat="49.88203" lon="4.78524">
        <ele>310</ele>
        <time>2021-08-14T09:22:44.000Z</time>
      </trkpt>
      <trkpt lat="49.88201" lon="4.78526">
        <ele>310</ele>
        <time>2021-08-14T09:22:45.000Z</time>
      </trkpt>
      <trkpt lat="49.88199" lon="4.78527">
        <ele>309</ele>
        <time>2021-08-14T09:22:46.000Z</time>
      </trkpt>
      <trkpt lat="49.88197" lon="4.78529">
        <ele>309</ele>
        <time>2021-08-14T09:22:47.000Z</time>
      </trkpt>
      <trkpt lat="49.88196" lon="4.78531">
        <ele>309</ele>
        <time>2021-08-14T09:22:48.000Z</time>
      </trkpt>
      <trkpt lat="49.88194" lon="4.78533">
        <ele>309</ele>
        <time>2021-08-14T09:22:49.000Z</time>
      </trkpt>
      <trkpt lat="49.88192" lon="4.78534">
        <ele>308</ele>
        <time>2021-08-14T09:22:50.000Z</time>
      </trkpt>
      <trkpt lat="49.8819" lon="4.78536">
        <ele>308</ele>
        <time>2021-08-14T09:22:51.000Z</time>
      </trkpt>
      <trkpt lat="49.88189" lon="4.78538">
        <ele>308</ele>
        <time>2021-08-14T09:22:52.000Z</time>
      </trkpt>
      <trkpt lat="49.88187" lon="4.7854">
        <ele>308</ele>
        <time>2021-08-14T09:22:53.000Z</time>
      </trkpt>
      <trkpt lat="49.88185" lon="4.78541">
        <ele>308</ele>
        <time>2021-08-14T09:22:54.000Z</time>
      </trkpt>
      <trkpt lat="49.88184" lon="4.78542">
        <ele>307</ele>
        <time>2021-08-14T09:22:55.000Z</time>
      </trkpt>
      <trkpt lat="49.88182" lon="4.78544">
        <ele>307</ele>
        <time>2021-08-14T09:22:56.000Z</time>
      </trkpt>
      <trkpt lat="49.88181" lon="4.78545">
        <ele>307</ele>
        <time>2021-08-14T09:22:57.000Z</time>
      </trkpt>
      <trkpt lat="49.88179" lon="4.78545">
        <ele>307</ele>
        <time>2021-08-14T09:22:58.000Z</time>
      </trkpt>
      <trkpt lat="49.88177" lon="4.78545">
        <ele>307</ele>
        <time>2021-08-14T09:22:59.000Z</time>
      </trkpt>
      <trkpt lat="49.88175" lon="4.78544">
        <ele>306</ele>
        <time>2021-08-14T09:23:00.000Z</time>
      </trkpt>
      <trkpt lat="49.88173" lon="4.78543">
        <ele>306</ele>
        <time>2021-08-14T09:23:01.000Z</time>
      </trkpt>
      <trkpt lat="49.88171" lon="4.78541">
        <ele>306</ele>
        <time>2021-08-14T09:23:02.000Z</time>
      </trkpt>
      <trkpt lat="49.88168" lon="4.78541">
        <ele>305</ele>
        <time>2021-08-14T09:23:03.000Z</time>
      </trkpt>
      <trkpt lat="49.88165" lon="4.7854">
        <ele>305</ele>
        <time>2021-08-14T09:23:04.000Z</time>
      </trkpt>
      <trkpt lat="49.88162" lon="4.78539">
        <ele>304</ele>
        <time>2021-08-14T09:23:05.000Z</time>
      </trkpt>
      <trkpt lat="49.88159" lon="4.78538">
        <ele>304</ele>
        <time>2021-08-14T09:23:06.000Z</time>
      </trkpt>
      <trkpt lat="49.88156" lon="4.78537">
        <ele>304</ele>
        <time>2021-08-14T09:23:07.000Z</time>
      </trkpt>
      <trkpt lat="49.88154" lon="4.78536">
        <ele>303</ele>
        <time>2021-08-14T09:23:08.000Z</time>
      </trkpt>
      <trkpt lat="49.88152" lon="4.78534">
        <ele>303</ele>
        <time>2021-08-14T09:23:09.000Z</time>
      </trkpt>
      <trkpt lat="49.88149" lon="4.78533">
        <ele>302</ele>
        <time>2021-08-14T09:23:10.000Z</time>
      </trkpt>
      <trkpt lat="49.88147" lon="4.78531">
        <ele>302</ele>
        <time>2021-08-14T09:23:11.000Z</time>
      </trkpt>
      <trkpt lat="49.88143" lon="4.7853">
        <ele>301</ele>
        <time>2021-08-14T09:23:12.000Z</time>
      </trkpt>
      <trkpt lat="49.8814" lon="4.78529">
        <ele>301</ele>
        <time>2021-08-14T09:23:13.000Z</time>
      </trkpt>
      <trkpt lat="49.88137" lon="4.78528">
        <ele>301</ele>
        <time>2021-08-14T09:23:14.000Z</time>
      </trkpt>
      <trkpt lat="49.88135" lon="4.78526">
        <ele>300</ele>
        <time>2021-08-14T09:23:15.000Z</time>
      </trkpt>
      <trkpt lat="49.88132" lon="4.78525">
        <ele>300</ele>
        <time>2021-08-14T09:23:16.000Z</time>
      </trkpt>
      <trkpt lat="49.8813" lon="4.78525">
        <ele>299</ele>
        <time>2021-08-14T09:23:17.000Z</time>
      </trkpt>
      <trkpt lat="49.88127" lon="4.78524">
        <ele>299</ele>
        <time>2021-08-14T09:23:18.000Z</time>
      </trkpt>
      <trkpt lat="49.88125" lon="4.78523">
        <ele>299</ele>
        <time>2021-08-14T09:23:19.000Z</time>
      </trkpt>
      <trkpt lat="49.88123" lon="4.78523">
        <ele>298</ele>
        <time>2021-08-14T09:23:20.000Z</time>
      </trkpt>
      <trkpt lat="49.8812" lon="4.78524">
        <ele>298</ele>
        <time>2021-08-14T09:23:21.000Z</time>
      </trkpt>
      <trkpt lat="49.88118" lon="4.78526">
        <ele>297</ele>
        <time>2021-08-14T09:23:22.000Z</time>
      </trkpt>
      <trkpt lat="49.88115" lon="4.78528">
        <ele>296</ele>
        <time>2021-08-14T09:23:23.000Z</time>
      </trkpt>
      <trkpt lat="49.88113" lon="4.7853">
        <ele>296</ele>
        <time>2021-08-14T09:23:24.000Z</time>
      </trkpt>
      <trkpt lat="49.8811" lon="4.78531">
        <ele>295</ele>
        <time>2021-08-14T09:23:25.000Z</time>
      </trkpt>
      <trkpt lat="49.88107" lon="4.78533">
        <ele>295</ele>
        <time>2021-08-14T09:23:26.000Z</time>
      </trkpt>
      <trkpt lat="49.88104" lon="4.78536">
        <ele>295</ele>
        <time>2021-08-14T09:23:27.000Z</time>
      </trkpt>
      <trkpt lat="49.88101" lon="4.78538">
        <ele>294</ele>
        <time>2021-08-14T09:23:28.000Z</time>
      </trkpt>
      <trkpt lat="49.88099" lon="4.7854">
        <ele>294</ele>
        <time>2021-08-14T09:23:29.000Z</time>
      </trkpt>
      <trkpt lat="49.88097" lon="4.78541">
        <ele>294</ele>
        <time>2021-08-14T09:23:30.000Z</time>
      </trkpt>
      <trkpt lat="49.88095" lon="4.78543">
        <ele>293</ele>
        <time>2021-08-14T09:23:31.000Z</time>
      </trkpt>
      <trkpt lat="49.88093" lon="4.78543">
        <ele>293</ele>
        <time>2021-08-14T09:23:32.000Z</time>
      </trkpt>
      <trkpt lat="49.88091" lon="4.78544">
        <ele>293</ele>
        <time>2021-08-14T09:23:33.000Z</time>
      </trkpt>
      <trkpt lat="49.8809" lon="4.78545">
        <ele>293</ele>
        <time>2021-08-14T09:23:34.000Z</time>
      </trkpt>
      <trkpt lat="49.88089" lon="4.78544">
        <ele>293</ele>
        <time>2021-08-14T09:23:35.000Z</time>
      </trkpt>
      <trkpt lat="49.88088" lon="4.78544">
        <ele>292</ele>
        <time>2021-08-14T09:23:36.000Z</time>
      </trkpt>
      <trkpt lat="49.88087" lon="4.78545">
        <ele>292</ele>
        <time>2021-08-14T09:23:37.000Z</time>
      </trkpt>
      <trkpt lat="49.88087" lon="4.78545">
        <ele>292</ele>
        <time>2021-08-14T09:23:38.000Z</time>
      </trkpt>
      <trkpt lat="49.88086" lon="4.78545">
        <ele>291</ele>
        <time>2021-08-14T09:23:39.000Z</time>
      </trkpt>
      <trkpt lat="49.88085" lon="4.78546">
        <ele>291</ele>
        <time>2021-08-14T09:23:40.000Z</time>
      </trkpt>
      <trkpt lat="49.88084" lon="4.78547">
        <ele>290</ele>
        <time>2021-08-14T09:23:41.000Z</time>
      </trkpt>
      <trkpt lat="49.88082" lon="4.78548">
        <ele>290</ele>
        <time>2021-08-14T09:23:42.000Z</time>
      </trkpt>
      <trkpt lat="49.8808" lon="4.7855">
        <ele>290</ele>
        <time>2021-08-14T09:23:43.000Z</time>
      </trkpt>
      <trkpt lat="49.88078" lon="4.78552">
        <ele>289</ele>
        <time>2021-08-14T09:23:44.000Z</time>
      </trkpt>
      <trkpt lat="49.88076" lon="4.78553">
        <ele>289</ele>
        <time>2021-08-14T09:23:45.000Z</time>
      </trkpt>
      <trkpt lat="49.88074" lon="4.78554">
        <ele>288</ele>
        <time>2021-08-14T09:23:46.000Z</time>
      </trkpt>
      <trkpt lat="49.88074" lon="4.78554">
        <ele>288</ele>
        <time>2021-08-14T09:23:47.000Z</time>
      </trkpt>
      <trkpt lat="49.88073" lon="4.78555">
        <ele>288</ele>
        <time>2021-08-14T09:23:48.000Z</time>
      </trkpt>
      <trkpt lat="49.88073" lon="4.78555">
        <ele>288</ele>
        <time>2021-08-14T09:23:49.000Z</time>
      </trkpt>
      <trkpt lat="49.88072" lon="4.78555">
        <ele>288</ele>
        <time>2021-08-14T09:23:50.000Z</time>
      </trkpt>
      <trkpt lat="49.88072" lon="4.78556">
        <ele>287</ele>
        <time>2021-08-14T09:23:51.000Z</time>
      </trkpt>
      <trkpt lat="49.88071" lon="4.78556">
        <ele>287</ele>
        <time>2021-08-14T09:23:52.000Z</time>
      </trkpt>
      <trkpt lat="49.88071" lon="4.78556">
        <ele>287</ele>
        <time>2021-08-14T09:23:53.000Z</time>
      </trkpt>
      <trkpt lat="49.8807" lon="4.78557">
        <ele>287</ele>
        <time>2021-08-14T09:23:54.000Z</time>
      </trkpt>
      <trkpt lat="49.8807" lon="4.78557">
        <ele>287</ele>
        <time>2021-08-14T09:23:55.000Z</time>
      </trkpt>
      <trkpt lat="49.88068" lon="4.78558">
        <ele>286</ele>
        <time>2021-08-14T09:23:56.000Z</time>
      </trkpt>
      <trkpt lat="49.88067" lon="4.78559">
        <ele>286</ele>
        <time>2021-08-14T09:23:57.000Z</time>
      </trkpt>
      <trkpt lat="49.88065" lon="4.7856">
        <ele>286</ele>
        <time>2021-08-14T09:23:58.000Z</time>
      </trkpt>
      <trkpt lat="49.88064" lon="4.78561">
        <ele>286</ele>
        <time>2021-08-14T09:23:59.000Z</time>
      </trkpt>
      <trkpt lat="49.88064" lon="4.78562">
        <ele>285</ele>
        <time>2021-08-14T09:24:00.000Z</time>
      </trkpt>
      <trkpt lat="49.88062" lon="4.78564">
        <ele>285</ele>
        <time>2021-08-14T09:24:01.000Z</time>
      </trkpt>
      <trkpt lat="49.88061" lon="4.78566">
        <ele>285</ele>
        <time>2021-08-14T09:24:02.000Z</time>
      </trkpt>
      <trkpt lat="49.88059" lon="4.78568">
        <ele>285</ele>
        <time>2021-08-14T09:24:03.000Z</time>
      </trkpt>
      <trkpt lat="49.88058" lon="4.7857">
        <ele>284</ele>
        <time>2021-08-14T09:24:04.000Z</time>
      </trkpt>
      <trkpt lat="49.88056" lon="4.78572">
        <ele>284</ele>
        <time>2021-08-14T09:24:05.000Z</time>
      </trkpt>
      <trkpt lat="49.88054" lon="4.78574">
        <ele>284</ele>
        <time>2021-08-14T09:24:06.000Z</time>
      </trkpt>
      <trkpt lat="49.88053" lon="4.78577">
        <ele>284</ele>
        <time>2021-08-14T09:24:07.000Z</time>
      </trkpt>
      <trkpt lat="49.88051" lon="4.78579">
        <ele>283</ele>
        <time>2021-08-14T09:24:08.000Z</time>
      </trkpt>
      <trkpt lat="49.88049" lon="4.78581">
        <ele>283</ele>
        <time>2021-08-14T09:24:09.000Z</time>
      </trkpt>
      <trkpt lat="49.88047" lon="4.78583">
        <ele>282</ele>
        <time>2021-08-14T09:24:10.000Z</time>
      </trkpt>
      <trkpt lat="49.88045" lon="4.78584">
        <ele>282</ele>
        <time>2021-08-14T09:24:11.000Z</time>
      </trkpt>
      <trkpt lat="49.88043" lon="4.78586">
        <ele>282</ele>
        <time>2021-08-14T09:24:12.000Z</time>
      </trkpt>
      <trkpt lat="49.88041" lon="4.78588">
        <ele>281</ele>
        <time>2021-08-14T09:24:13.000Z</time>
      </trkpt>
      <trkpt lat="49.88039" lon="4.7859">
        <ele>281</ele>
        <time>2021-08-14T09:24:14.000Z</time>
      </trkpt>
      <trkpt lat="49.88037" lon="4.78591">
        <ele>281</ele>
        <time>2021-08-14T09:24:15.000Z</time>
      </trkpt>
      <trkpt lat="49.88035" lon="4.78593">
        <ele>280</ele>
        <time>2021-08-14T09:24:16.000Z</time>
      </trkpt>
      <trkpt lat="49.88034" lon="4.78595">
        <ele>280</ele>
        <time>2021-08-14T09:24:17.000Z</time>
      </trkpt>
      <trkpt lat="49.88032" lon="4.78597">
        <ele>280</ele>
        <time>2021-08-14T09:24:18.000Z</time>
      </trkpt>
      <trkpt lat="49.88032" lon="4.78598">
        <ele>280</ele>
        <time>2021-08-14T09:24:19.000Z</time>
      </trkpt>
      <trkpt lat="49.88031" lon="4.78599">
        <ele>279</ele>
        <time>2021-08-14T09:24:20.000Z</time>
      </trkpt>
      <trkpt lat="49.8803" lon="4.78601">
        <ele>279</ele>
        <time>2021-08-14T09:24:21.000Z</time>
      </trkpt>
      <trkpt lat="49.88028" lon="4.78603">
        <ele>279</ele>
        <time>2021-08-14T09:24:22.000Z</time>
      </trkpt>
      <trkpt lat="49.88027" lon="4.78606">
        <ele>279</ele>
        <time>2021-08-14T09:24:23.000Z</time>
      </trkpt>
      <trkpt lat="49.88025" lon="4.78608">
        <ele>279</ele>
        <time>2021-08-14T09:24:24.000Z</time>
      </trkpt>
      <trkpt lat="49.88023" lon="4.7861">
        <ele>278</ele>
        <time>2021-08-14T09:24:25.000Z</time>
      </trkpt>
      <trkpt lat="49.88021" lon="4.78612">
        <ele>278</ele>
        <time>2021-08-14T09:24:26.000Z</time>
      </trkpt>
      <trkpt lat="49.8802" lon="4.78614">
        <ele>278</ele>
        <time>2021-08-14T09:24:27.000Z</time>
      </trkpt>
      <trkpt lat="49.88018" lon="4.78616">
        <ele>277</ele>
        <time>2021-08-14T09:24:28.000Z</time>
      </trkpt>
      <trkpt lat="49.88016" lon="4.78618">
        <ele>277</ele>
        <time>2021-08-14T09:24:29.000Z</time>
      </trkpt>
      <trkpt lat="49.88015" lon="4.78621">
        <ele>277</ele>
        <time>2021-08-14T09:24:30.000Z</time>
      </trkpt>
      <trkpt lat="49.88013" lon="4.78623">
        <ele>276</ele>
        <time>2021-08-14T09:24:31.000Z</time>
      </trkpt>
      <trkpt lat="49.88011" lon="4.78626">
        <ele>276</ele>
        <time>2021-08-14T09:24:32.000Z</time>
      </trkpt>
      <trkpt lat="49.88009" lon="4.78629">
        <ele>276</ele>
        <time>2021-08-14T09:24:33.000Z</time>
      </trkpt>
      <trkpt lat="49.88006" lon="4.78632">
        <ele>276</ele>
        <time>2021-08-14T09:24:34.000Z</time>
      </trkpt>
      <trkpt lat="49.88004" lon="4.78635">
        <ele>275</ele>
        <time>2021-08-14T09:24:35.000Z</time>
      </trkpt>
      <trkpt lat="49.88002" lon="4.78638">
        <ele>275</ele>
        <time>2021-08-14T09:24:36.000Z</time>
      </trkpt>
      <trkpt lat="49.88" lon="4.78641">
        <ele>275</ele>
        <time>2021-08-14T09:24:37.000Z</time>
      </trkpt>
      <trkpt lat="49.87998" lon="4.78645">
        <ele>274</ele>
        <time>2021-08-14T09:24:38.000Z</time>
      </trkpt>
      <trkpt lat="49.87995" lon="4.78648">
        <ele>274</ele>
        <time>2021-08-14T09:24:39.000Z</time>
      </trkpt>
      <trkpt lat="49.87993" lon="4.78652">
        <ele>274</ele>
        <time>2021-08-14T09:24:40.000Z</time>
      </trkpt>
      <trkpt lat="49.87991" lon="4.78657">
        <ele>274</ele>
        <time>2021-08-14T09:24:41.000Z</time>
      </trkpt>
      <trkpt lat="49.87988" lon="4.78661">
        <ele>273</ele>
        <time>2021-08-14T09:24:42.000Z</time>
      </trkpt>
      <trkpt lat="49.87986" lon="4.78666">
        <ele>273</ele>
        <time>2021-08-14T09:24:43.000Z</time>
      </trkpt>
      <trkpt lat="49.87983" lon="4.7867">
        <ele>273</ele>
        <time>2021-08-14T09:24:44.000Z</time>
      </trkpt>
      <trkpt lat="49.87981" lon="4.78675">
        <ele>273</ele>
        <time>2021-08-14T09:24:45.000Z</time>
      </trkpt>
      <trkpt lat="49.87979" lon="4.7868">
        <ele>272</ele>
        <time>2021-08-14T09:24:46.000Z</time>
      </trkpt>
      <trkpt lat="49.87977" lon="4.78685">
        <ele>272</ele>
        <time>2021-08-14T09:24:47.000Z</time>
      </trkpt>
      <trkpt lat="49.87975" lon="4.78691">
        <ele>272</ele>
        <time>2021-08-14T09:24:48.000Z</time>
      </trkpt>
      <trkpt lat="49.87973" lon="4.78697">
        <ele>271</ele>
        <time>2021-08-14T09:24:49.000Z</time>
      </trkpt>
      <trkpt lat="49.87971" lon="4.78703">
        <ele>271</ele>
        <time>2021-08-14T09:24:50.000Z</time>
      </trkpt>
      <trkpt lat="49.87968" lon="4.78708">
        <ele>271</ele>
        <time>2021-08-14T09:24:51.000Z</time>
      </trkpt>
      <trkpt lat="49.87966" lon="4.78713">
        <ele>271</ele>
        <time>2021-08-14T09:24:52.000Z</time>
      </trkpt>
      <trkpt lat="49.87964" lon="4.78717">
        <ele>270</ele>
        <time>2021-08-14T09:24:53.000Z</time>
      </trkpt>
      <trkpt lat="49.87962" lon="4.78721">
        <ele>270</ele>
        <time>2021-08-14T09:24:54.000Z</time>
      </trkpt>
      <trkpt lat="49.87961" lon="4.78725">
        <ele>270</ele>
        <time>2021-08-14T09:24:55.000Z</time>
      </trkpt>
      <trkpt lat="49.87959" lon="4.78729">
        <ele>270</ele>
        <time>2021-08-14T09:24:56.000Z</time>
      </trkpt>
      <trkpt lat="49.87958" lon="4.78733">
        <ele>270</ele>
        <time>2021-08-14T09:24:57.000Z</time>
      </trkpt>
      <trkpt lat="49.87957" lon="4.78736">
        <ele>269</ele>
        <time>2021-08-14T09:24:58.000Z</time>
      </trkpt>
      <trkpt lat="49.87956" lon="4.7874">
        <ele>269</ele>
        <time>2021-08-14T09:24:59.000Z</time>
      </trkpt>
      <trkpt lat="49.87953" lon="4.78743">
        <ele>269</ele>
        <time>2021-08-14T09:25:00.000Z</time>
      </trkpt>
      <trkpt lat="49.87952" lon="4.78747">
        <ele>269</ele>
        <time>2021-08-14T09:25:01.000Z</time>
      </trkpt>
      <trkpt lat="49.8795" lon="4.7875">
        <ele>269</ele>
        <time>2021-08-14T09:25:02.000Z</time>
      </trkpt>
      <trkpt lat="49.87949" lon="4.78753">
        <ele>269</ele>
        <time>2021-08-14T09:25:03.000Z</time>
      </trkpt>
      <trkpt lat="49.87947" lon="4.78756">
        <ele>269</ele>
        <time>2021-08-14T09:25:04.000Z</time>
      </trkpt>
      <trkpt lat="49.87946" lon="4.78758">
        <ele>269</ele>
        <time>2021-08-14T09:25:05.000Z</time>
      </trkpt>
      <trkpt lat="49.87944" lon="4.7876">
        <ele>268</ele>
        <time>2021-08-14T09:25:06.000Z</time>
      </trkpt>
      <trkpt lat="49.87944" lon="4.78762">
        <ele>268</ele>
        <time>2021-08-14T09:25:07.000Z</time>
      </trkpt>
      <trkpt lat="49.87944" lon="4.78765">
        <ele>267</ele>
        <time>2021-08-14T09:25:08.000Z</time>
      </trkpt>
      <trkpt lat="49.87943" lon="4.78766">
        <ele>267</ele>
        <time>2021-08-14T09:25:09.000Z</time>
      </trkpt>
      <trkpt lat="49.87942" lon="4.78767">
        <ele>267</ele>
        <time>2021-08-14T09:25:10.000Z</time>
      </trkpt>
      <trkpt lat="49.8794" lon="4.78768">
        <ele>267</ele>
        <time>2021-08-14T09:25:11.000Z</time>
      </trkpt>
      <trkpt lat="49.87939" lon="4.7877">
        <ele>266</ele>
        <time>2021-08-14T09:25:12.000Z</time>
      </trkpt>
      <trkpt lat="49.87937" lon="4.78772">
        <ele>266</ele>
        <time>2021-08-14T09:25:13.000Z</time>
      </trkpt>
      <trkpt lat="49.87934" lon="4.78775">
        <ele>266</ele>
        <time>2021-08-14T09:25:14.000Z</time>
      </trkpt>
      <trkpt lat="49.87932" lon="4.78779">
        <ele>265</ele>
        <time>2021-08-14T09:25:15.000Z</time>
      </trkpt>
      <trkpt lat="49.87929" lon="4.78785">
        <ele>265</ele>
        <time>2021-08-14T09:25:16.000Z</time>
      </trkpt>
      <trkpt lat="49.87926" lon="4.78791">
        <ele>265</ele>
        <time>2021-08-14T09:25:17.000Z</time>
      </trkpt>
      <trkpt lat="49.87922" lon="4.78796">
        <ele>264</ele>
        <time>2021-08-14T09:25:18.000Z</time>
      </trkpt>
      <trkpt lat="49.87919" lon="4.78802">
        <ele>264</ele>
        <time>2021-08-14T09:25:19.000Z</time>
      </trkpt>
      <trkpt lat="49.87917" lon="4.78808">
        <ele>264</ele>
        <time>2021-08-14T09:25:20.000Z</time>
      </trkpt>
      <trkpt lat="49.87915" lon="4.78815">
        <ele>263</ele>
        <time>2021-08-14T09:25:21.000Z</time>
      </trkpt>
      <trkpt lat="49.87912" lon="4.78823">
        <ele>263</ele>
        <time>2021-08-14T09:25:22.000Z</time>
      </trkpt>
      <trkpt lat="49.87909" lon="4.7883">
        <ele>263</ele>
        <time>2021-08-14T09:25:23.000Z</time>
      </trkpt>
      <trkpt lat="49.87908" lon="4.78835">
        <ele>262</ele>
        <time>2021-08-14T09:25:24.000Z</time>
      </trkpt>
      <trkpt lat="49.87905" lon="4.78841">
        <ele>262</ele>
        <time>2021-08-14T09:25:25.000Z</time>
      </trkpt>
      <trkpt lat="49.87904" lon="4.78848">
        <ele>261</ele>
        <time>2021-08-14T09:25:26.000Z</time>
      </trkpt>
      <trkpt lat="49.87902" lon="4.78854">
        <ele>261</ele>
        <time>2021-08-14T09:25:27.000Z</time>
      </trkpt>
      <trkpt lat="49.87901" lon="4.7886">
        <ele>261</ele>
        <time>2021-08-14T09:25:28.000Z</time>
      </trkpt>
      <trkpt lat="49.87899" lon="4.78867">
        <ele>260</ele>
        <time>2021-08-14T09:25:29.000Z</time>
      </trkpt>
      <trkpt lat="49.87897" lon="4.78873">
        <ele>260</ele>
        <time>2021-08-14T09:25:30.000Z</time>
      </trkpt>
      <trkpt lat="49.87895" lon="4.78879">
        <ele>259</ele>
        <time>2021-08-14T09:25:31.000Z</time>
      </trkpt>
      <trkpt lat="49.87894" lon="4.78884">
        <ele>259</ele>
        <time>2021-08-14T09:25:32.000Z</time>
      </trkpt>
      <trkpt lat="49.87892" lon="4.78889">
        <ele>258</ele>
        <time>2021-08-14T09:25:33.000Z</time>
      </trkpt>
      <trkpt lat="49.8789" lon="4.78894">
        <ele>258</ele>
        <time>2021-08-14T09:25:34.000Z</time>
      </trkpt>
      <trkpt lat="49.87889" lon="4.789">
        <ele>258</ele>
        <time>2021-08-14T09:25:35.000Z</time>
      </trkpt>
      <trkpt lat="49.87888" lon="4.78905">
        <ele>257</ele>
        <time>2021-08-14T09:25:36.000Z</time>
      </trkpt>
      <trkpt lat="49.87886" lon="4.7891">
        <ele>257</ele>
        <time>2021-08-14T09:25:37.000Z</time>
      </trkpt>
      <trkpt lat="49.87885" lon="4.78916">
        <ele>257</ele>
        <time>2021-08-14T09:25:38.000Z</time>
      </trkpt>
      <trkpt lat="49.87883" lon="4.78922">
        <ele>256</ele>
        <time>2021-08-14T09:25:39.000Z</time>
      </trkpt>
      <trkpt lat="49.87881" lon="4.78928">
        <ele>256</ele>
        <time>2021-08-14T09:25:40.000Z</time>
      </trkpt>
      <trkpt lat="49.8788" lon="4.78934">
        <ele>255</ele>
        <time>2021-08-14T09:25:41.000Z</time>
      </trkpt>
      <trkpt lat="49.87878" lon="4.78941">
        <ele>255</ele>
        <time>2021-08-14T09:25:42.000Z</time>
      </trkpt>
      <trkpt lat="49.87876" lon="4.78948">
        <ele>255</ele>
        <time>2021-08-14T09:25:43.000Z</time>
      </trkpt>
      <trkpt lat="49.87874" lon="4.78954">
        <ele>254</ele>
        <time>2021-08-14T09:25:44.000Z</time>
      </trkpt>
      <trkpt lat="49.87873" lon="4.78959">
        <ele>254</ele>
        <time>2021-08-14T09:25:45.000Z</time>
      </trkpt>
      <trkpt lat="49.87871" lon="4.78964">
        <ele>253</ele>
        <time>2021-08-14T09:25:46.000Z</time>
      </trkpt>
      <trkpt lat="49.87869" lon="4.78968">
        <ele>253</ele>
        <time>2021-08-14T09:25:47.000Z</time>
      </trkpt>
      <trkpt lat="49.87867" lon="4.78972">
        <ele>252</ele>
        <time>2021-08-14T09:25:48.000Z</time>
      </trkpt>
      <trkpt lat="49.87865" lon="4.78977">
        <ele>252</ele>
        <time>2021-08-14T09:25:49.000Z</time>
      </trkpt>
      <trkpt lat="49.87862" lon="4.78983">
        <ele>251</ele>
        <time>2021-08-14T09:25:50.000Z</time>
      </trkpt>
      <trkpt lat="49.87859" lon="4.78988">
        <ele>251</ele>
        <time>2021-08-14T09:25:51.000Z</time>
      </trkpt>
      <trkpt lat="49.87856" lon="4.78993">
        <ele>250</ele>
        <time>2021-08-14T09:25:52.000Z</time>
      </trkpt>
      <trkpt lat="49.87853" lon="4.78998">
        <ele>250</ele>
        <time>2021-08-14T09:25:53.000Z</time>
      </trkpt>
      <trkpt lat="49.8785" lon="4.79004">
        <ele>249</ele>
        <time>2021-08-14T09:25:54.000Z</time>
      </trkpt>
      <trkpt lat="49.87847" lon="4.79009">
        <ele>249</ele>
        <time>2021-08-14T09:25:55.000Z</time>
      </trkpt>
      <trkpt lat="49.87845" lon="4.79013">
        <ele>249</ele>
        <time>2021-08-14T09:25:56.000Z</time>
      </trkpt>
      <trkpt lat="49.87843" lon="4.79018">
        <ele>248</ele>
        <time>2021-08-14T09:25:57.000Z</time>
      </trkpt>
      <trkpt lat="49.87841" lon="4.79021">
        <ele>248</ele>
        <time>2021-08-14T09:25:58.000Z</time>
      </trkpt>
      <trkpt lat="49.87839" lon="4.79023">
        <ele>247</ele>
        <time>2021-08-14T09:25:59.000Z</time>
      </trkpt>
      <trkpt lat="49.87837" lon="4.79025">
        <ele>247</ele>
        <time>2021-08-14T09:26:00.000Z</time>
      </trkpt>
      <trkpt lat="49.87836" lon="4.79027">
        <ele>247</ele>
        <time>2021-08-14T09:26:01.000Z</time>
      </trkpt>
      <trkpt lat="49.87834" lon="4.7903">
        <ele>246</ele>
        <time>2021-08-14T09:26:02.000Z</time>
      </trkpt>
      <trkpt lat="49.87831" lon="4.79033">
        <ele>246</ele>
        <time>2021-08-14T09:26:03.000Z</time>
      </trkpt>
      <trkpt lat="49.87828" lon="4.79038">
        <ele>245</ele>
        <time>2021-08-14T09:26:04.000Z</time>
      </trkpt>
      <trkpt lat="49.87825" lon="4.79043">
        <ele>245</ele>
        <time>2021-08-14T09:26:05.000Z</time>
      </trkpt>
      <trkpt lat="49.87822" lon="4.79048">
        <ele>245</ele>
        <time>2021-08-14T09:26:06.000Z</time>
      </trkpt>
      <trkpt lat="49.8782" lon="4.79054">
        <ele>244</ele>
        <time>2021-08-14T09:26:07.000Z</time>
      </trkpt>
      <trkpt lat="49.87817" lon="4.79058">
        <ele>244</ele>
        <time>2021-08-14T09:26:08.000Z</time>
      </trkpt>
      <trkpt lat="49.87814" lon="4.79063">
        <ele>243</ele>
        <time>2021-08-14T09:26:09.000Z</time>
      </trkpt>
      <trkpt lat="49.87812" lon="4.79068">
        <ele>243</ele>
        <time>2021-08-14T09:26:10.000Z</time>
      </trkpt>
      <trkpt lat="49.87808" lon="4.79074">
        <ele>243</ele>
        <time>2021-08-14T09:26:11.000Z</time>
      </trkpt>
      <trkpt lat="49.87805" lon="4.79079">
        <ele>242</ele>
        <time>2021-08-14T09:26:12.000Z</time>
      </trkpt>
      <trkpt lat="49.87801" lon="4.79085">
        <ele>242</ele>
        <time>2021-08-14T09:26:13.000Z</time>
      </trkpt>
      <trkpt lat="49.87798" lon="4.79091">
        <ele>242</ele>
        <time>2021-08-14T09:26:14.000Z</time>
      </trkpt>
      <trkpt lat="49.87794" lon="4.79095">
        <ele>241</ele>
        <time>2021-08-14T09:26:15.000Z</time>
      </trkpt>
      <trkpt lat="49.8779" lon="4.791">
        <ele>241</ele>
        <time>2021-08-14T09:26:16.000Z</time>
      </trkpt>
      <trkpt lat="49.87787" lon="4.79105">
        <ele>241</ele>
        <time>2021-08-14T09:26:17.000Z</time>
      </trkpt>
      <trkpt lat="49.87783" lon="4.79108">
        <ele>240</ele>
        <time>2021-08-14T09:26:18.000Z</time>
      </trkpt>
      <trkpt lat="49.87779" lon="4.79112">
        <ele>240</ele>
        <time>2021-08-14T09:26:19.000Z</time>
      </trkpt>
      <trkpt lat="49.87776" lon="4.79115">
        <ele>240</ele>
        <time>2021-08-14T09:26:20.000Z</time>
      </trkpt>
      <trkpt lat="49.87773" lon="4.79118">
        <ele>239</ele>
        <time>2021-08-14T09:26:21.000Z</time>
      </trkpt>
      <trkpt lat="49.8777" lon="4.79121">
        <ele>239</ele>
        <time>2021-08-14T09:26:22.000Z</time>
      </trkpt>
      <trkpt lat="49.87766" lon="4.79124">
        <ele>239</ele>
        <time>2021-08-14T09:26:23.000Z</time>
      </trkpt>
      <trkpt lat="49.87762" lon="4.79126">
        <ele>238</ele>
        <time>2021-08-14T09:26:24.000Z</time>
      </trkpt>
      <trkpt lat="49.87758" lon="4.79127">
        <ele>238</ele>
        <time>2021-08-14T09:26:25.000Z</time>
      </trkpt>
      <trkpt lat="49.87754" lon="4.79127">
        <ele>237</ele>
        <time>2021-08-14T09:26:26.000Z</time>
      </trkpt>
      <trkpt lat="49.8775" lon="4.79127">
        <ele>237</ele>
        <time>2021-08-14T09:26:27.000Z</time>
      </trkpt>
      <trkpt lat="49.87746" lon="4.79127">
        <ele>237</ele>
        <time>2021-08-14T09:26:28.000Z</time>
      </trkpt>
      <trkpt lat="49.87741" lon="4.79127">
        <ele>236</ele>
        <time>2021-08-14T09:26:29.000Z</time>
      </trkpt>
      <trkpt lat="49.87737" lon="4.79127">
        <ele>236</ele>
        <time>2021-08-14T09:26:30.000Z</time>
      </trkpt>
      <trkpt lat="49.87732" lon="4.79127">
        <ele>235</ele>
        <time>2021-08-14T09:26:31.000Z</time>
      </trkpt>
      <trkpt lat="49.87726" lon="4.79127">
        <ele>235</ele>
        <time>2021-08-14T09:26:32.000Z</time>
      </trkpt>
      <trkpt lat="49.87722" lon="4.79126">
        <ele>234</ele>
        <time>2021-08-14T09:26:33.000Z</time>
      </trkpt>
      <trkpt lat="49.87719" lon="4.79125">
        <ele>234</ele>
        <time>2021-08-14T09:26:34.000Z</time>
      </trkpt>
      <trkpt lat="49.87715" lon="4.79124">
        <ele>233</ele>
        <time>2021-08-14T09:26:35.000Z</time>
      </trkpt>
      <trkpt lat="49.87711" lon="4.79123">
        <ele>233</ele>
        <time>2021-08-14T09:26:36.000Z</time>
      </trkpt>
      <trkpt lat="49.87707" lon="4.79123">
        <ele>232</ele>
        <time>2021-08-14T09:26:37.000Z</time>
      </trkpt>
      <trkpt lat="49.87703" lon="4.79122">
        <ele>232</ele>
        <time>2021-08-14T09:26:38.000Z</time>
      </trkpt>
      <trkpt lat="49.877" lon="4.79121">
        <ele>231</ele>
        <time>2021-08-14T09:26:39.000Z</time>
      </trkpt>
      <trkpt lat="49.87698" lon="4.79122">
        <ele>231</ele>
        <time>2021-08-14T09:26:40.000Z</time>
      </trkpt>
      <trkpt lat="49.87697" lon="4.79125">
        <ele>230</ele>
        <time>2021-08-14T09:26:41.000Z</time>
      </trkpt>
      <trkpt lat="49.87697" lon="4.79128">
        <ele>230</ele>
        <time>2021-08-14T09:26:42.000Z</time>
      </trkpt>
      <trkpt lat="49.87696" lon="4.79133">
        <ele>229</ele>
        <time>2021-08-14T09:26:43.000Z</time>
      </trkpt>
      <trkpt lat="49.87695" lon="4.79137">
        <ele>229</ele>
        <time>2021-08-14T09:26:44.000Z</time>
      </trkpt>
      <trkpt lat="49.87695" lon="4.79142">
        <ele>228</ele>
        <time>2021-08-14T09:26:45.000Z</time>
      </trkpt>
      <trkpt lat="49.87695" lon="4.79148">
        <ele>227</ele>
        <time>2021-08-14T09:26:46.000Z</time>
      </trkpt>
      <trkpt lat="49.87694" lon="4.79153">
        <ele>227</ele>
        <time>2021-08-14T09:26:47.000Z</time>
      </trkpt>
      <trkpt lat="49.87695" lon="4.79157">
        <ele>226</ele>
        <time>2021-08-14T09:26:48.000Z</time>
      </trkpt>
      <trkpt lat="49.87697" lon="4.79161">
        <ele>226</ele>
        <time>2021-08-14T09:26:49.000Z</time>
      </trkpt>
      <trkpt lat="49.877" lon="4.79164">
        <ele>225</ele>
        <time>2021-08-14T09:26:50.000Z</time>
      </trkpt>
      <trkpt lat="49.87703" lon="4.79166">
        <ele>225</ele>
        <time>2021-08-14T09:26:51.000Z</time>
      </trkpt>
      <trkpt lat="49.87706" lon="4.79169">
        <ele>224</ele>
        <time>2021-08-14T09:26:52.000Z</time>
      </trkpt>
      <trkpt lat="49.87709" lon="4.79172">
        <ele>224</ele>
        <time>2021-08-14T09:26:53.000Z</time>
      </trkpt>
      <trkpt lat="49.87713" lon="4.79175">
        <ele>223</ele>
        <time>2021-08-14T09:26:54.000Z</time>
      </trkpt>
      <trkpt lat="49.87716" lon="4.79177">
        <ele>223</ele>
        <time>2021-08-14T09:26:55.000Z</time>
      </trkpt>
      <trkpt lat="49.87719" lon="4.7918">
        <ele>223</ele>
        <time>2021-08-14T09:26:56.000Z</time>
      </trkpt>
      <trkpt lat="49.87722" lon="4.79183">
        <ele>222</ele>
        <time>2021-08-14T09:26:57.000Z</time>
      </trkpt>
      <trkpt lat="49.87725" lon="4.79185">
        <ele>222</ele>
        <time>2021-08-14T09:26:58.000Z</time>
      </trkpt>
      <trkpt lat="49.8773" lon="4.79188">
        <ele>222</ele>
        <time>2021-08-14T09:26:59.000Z</time>
      </trkpt>
      <trkpt lat="49.87734" lon="4.79191">
        <ele>222</ele>
        <time>2021-08-14T09:27:00.000Z</time>
      </trkpt>
      <trkpt lat="49.87738" lon="4.79194">
        <ele>221</ele>
        <time>2021-08-14T09:27:01.000Z</time>
      </trkpt>
      <trkpt lat="49.87743" lon="4.79196">
        <ele>221</ele>
        <time>2021-08-14T09:27:02.000Z</time>
      </trkpt>
      <trkpt lat="49.87748" lon="4.79196">
        <ele>221</ele>
        <time>2021-08-14T09:27:03.000Z</time>
      </trkpt>
      <trkpt lat="49.87754" lon="4.79196">
        <ele>221</ele>
        <time>2021-08-14T09:27:04.000Z</time>
      </trkpt>
      <trkpt lat="49.8776" lon="4.79195">
        <ele>221</ele>
        <time>2021-08-14T09:27:05.000Z</time>
      </trkpt>
      <trkpt lat="49.87765" lon="4.79194">
        <ele>220</ele>
        <time>2021-08-14T09:27:06.000Z</time>
      </trkpt>
      <trkpt lat="49.87771" lon="4.79193">
        <ele>220</ele>
        <time>2021-08-14T09:27:07.000Z</time>
      </trkpt>
      <trkpt lat="49.87776" lon="4.79192">
        <ele>220</ele>
        <time>2021-08-14T09:27:08.000Z</time>
      </trkpt>
      <trkpt lat="49.87782" lon="4.79191">
        <ele>220</ele>
        <time>2021-08-14T09:27:09.000Z</time>
      </trkpt>
      <trkpt lat="49.87786" lon="4.79189">
        <ele>220</ele>
        <time>2021-08-14T09:27:10.000Z</time>
      </trkpt>
      <trkpt lat="49.87791" lon="4.79187">
        <ele>220</ele>
        <time>2021-08-14T09:27:11.000Z</time>
      </trkpt>
      <trkpt lat="49.87796" lon="4.79185">
        <ele>220</ele>
        <time>2021-08-14T09:27:12.000Z</time>
      </trkpt>
      <trkpt lat="49.87801" lon="4.79182">
        <ele>219</ele>
        <time>2021-08-14T09:27:13.000Z</time>
      </trkpt>
      <trkpt lat="49.87805" lon="4.79179">
        <ele>219</ele>
        <time>2021-08-14T09:27:14.000Z</time>
      </trkpt>
      <trkpt lat="49.87809" lon="4.79176">
        <ele>219</ele>
        <time>2021-08-14T09:27:15.000Z</time>
      </trkpt>
      <trkpt lat="49.87814" lon="4.79174">
        <ele>219</ele>
        <time>2021-08-14T09:27:16.000Z</time>
      </trkpt>
      <trkpt lat="49.87818" lon="4.79171">
        <ele>219</ele>
        <time>2021-08-14T09:27:17.000Z</time>
      </trkpt>
      <trkpt lat="49.87823" lon="4.79168">
        <ele>219</ele>
        <time>2021-08-14T09:27:18.000Z</time>
      </trkpt>
      <trkpt lat="49.87828" lon="4.79166">
        <ele>219</ele>
        <time>2021-08-14T09:27:19.000Z</time>
      </trkpt>
      <trkpt lat="49.87832" lon="4.79163">
        <ele>219</ele>
        <time>2021-08-14T09:27:20.000Z</time>
      </trkpt>
      <trkpt lat="49.87837" lon="4.79161">
        <ele>219</ele>
        <time>2021-08-14T09:27:21.000Z</time>
      </trkpt>
      <trkpt lat="49.87842" lon="4.79159">
        <ele>219</ele>
        <time>2021-08-14T09:27:22.000Z</time>
      </trkpt>
      <trkpt lat="49.87846" lon="4.79157">
        <ele>219</ele>
        <time>2021-08-14T09:27:23.000Z</time>
      </trkpt>
      <trkpt lat="49.87851" lon="4.79156">
        <ele>219</ele>
        <time>2021-08-14T09:27:24.000Z</time>
      </trkpt>
      <trkpt lat="49.87856" lon="4.79154">
        <ele>219</ele>
        <time>2021-08-14T09:27:25.000Z</time>
      </trkpt>
      <trkpt lat="49.87861" lon="4.79153">
        <ele>219</ele>
        <time>2021-08-14T09:27:26.000Z</time>
      </trkpt>
      <trkpt lat="49.87867" lon="4.79151">
        <ele>219</ele>
        <time>2021-08-14T09:27:27.000Z</time>
      </trkpt>
      <trkpt lat="49.87873" lon="4.79149">
        <ele>219</ele>
        <time>2021-08-14T09:27:28.000Z</time>
      </trkpt>
      <trkpt lat="49.87878" lon="4.79147">
        <ele>219</ele>
        <time>2021-08-14T09:27:29.000Z</time>
      </trkpt>
      <trkpt lat="49.87883" lon="4.79146">
        <ele>219</ele>
        <time>2021-08-14T09:27:30.000Z</time>
      </trkpt>
      <trkpt lat="49.87889" lon="4.79146">
        <ele>219</ele>
        <time>2021-08-14T09:27:31.000Z</time>
      </trkpt>
      <trkpt lat="49.87894" lon="4.79145">
        <ele>218</ele>
        <time>2021-08-14T09:27:32.000Z</time>
      </trkpt>
      <trkpt lat="49.879" lon="4.79145">
        <ele>218</ele>
        <time>2021-08-14T09:27:33.000Z</time>
      </trkpt>
      <trkpt lat="49.87906" lon="4.79146">
        <ele>218</ele>
        <time>2021-08-14T09:27:34.000Z</time>
      </trkpt>
      <trkpt lat="49.87911" lon="4.79149">
        <ele>218</ele>
        <time>2021-08-14T09:27:35.000Z</time>
      </trkpt>
      <trkpt lat="49.87917" lon="4.79151">
        <ele>218</ele>
        <time>2021-08-14T09:27:36.000Z</time>
      </trkpt>
      <trkpt lat="49.87923" lon="4.79155">
        <ele>217</ele>
        <time>2021-08-14T09:27:37.000Z</time>
      </trkpt>
      <trkpt lat="49.87928" lon="4.7916">
        <ele>217</ele>
        <time>2021-08-14T09:27:38.000Z</time>
      </trkpt>
      <trkpt lat="49.87933" lon="4.79165">
        <ele>217</ele>
        <time>2021-08-14T09:27:39.000Z</time>
      </trkpt>
      <trkpt lat="49.87937" lon="4.79169">
        <ele>217</ele>
        <time>2021-08-14T09:27:40.000Z</time>
      </trkpt>
      <trkpt lat="49.87941" lon="4.79172">
        <ele>217</ele>
        <time>2021-08-14T09:27:41.000Z</time>
      </trkpt>
      <trkpt lat="49.87945" lon="4.79175">
        <ele>216</ele>
        <time>2021-08-14T09:27:42.000Z</time>
      </trkpt>
      <trkpt lat="49.8795" lon="4.79178">
        <ele>216</ele>
        <time>2021-08-14T09:27:43.000Z</time>
      </trkpt>
      <trkpt lat="49.87954" lon="4.7918">
        <ele>216</ele>
        <time>2021-08-14T09:27:44.000Z</time>
      </trkpt>
      <trkpt lat="49.87957" lon="4.79182">
        <ele>216</ele>
        <time>2021-08-14T09:27:45.000Z</time>
      </trkpt>
      <trkpt lat="49.8796" lon="4.79185">
        <ele>216</ele>
        <time>2021-08-14T09:27:46.000Z</time>
      </trkpt>
      <trkpt lat="49.87963" lon="4.79188">
        <ele>216</ele>
        <time>2021-08-14T09:27:47.000Z</time>
      </trkpt>
      <trkpt lat="49.87965" lon="4.7919">
        <ele>216</ele>
        <time>2021-08-14T09:27:48.000Z</time>
      </trkpt>
      <trkpt lat="49.87967" lon="4.79192">
        <ele>216</ele>
        <time>2021-08-14T09:27:49.000Z</time>
      </trkpt>
      <trkpt lat="49.87969" lon="4.79194">
        <ele>216</ele>
        <time>2021-08-14T09:27:50.000Z</time>
      </trkpt>
      <trkpt lat="49.8797" lon="4.79195">
        <ele>216</ele>
        <time>2021-08-14T09:27:51.000Z</time>
      </trkpt>
      <trkpt lat="49.87972" lon="4.79198">
        <ele>216</ele>
        <time>2021-08-14T09:27:52.000Z</time>
      </trkpt>
      <trkpt lat="49.87973" lon="4.79199">
        <ele>215</ele>
        <time>2021-08-14T09:27:53.000Z</time>
      </trkpt>
      <trkpt lat="49.87974" lon="4.792">
        <ele>215</ele>
        <time>2021-08-14T09:27:54.000Z</time>
      </trkpt>
      <trkpt lat="49.87975" lon="4.79201">
        <ele>215</ele>
        <time>2021-08-14T09:27:55.000Z</time>
      </trkpt>
      <trkpt lat="49.87976" lon="4.79203">
        <ele>216</ele>
        <time>2021-08-14T09:27:56.000Z</time>
      </trkpt>
      <trkpt lat="49.87977" lon="4.79203">
        <ele>216</ele>
        <time>2021-08-14T09:27:57.000Z</time>
      </trkpt>
      <trkpt lat="49.87979" lon="4.79205">
        <ele>216</ele>
        <time>2021-08-14T09:27:58.000Z</time>
      </trkpt>
      <trkpt lat="49.8798" lon="4.79206">
        <ele>216</ele>
        <time>2021-08-14T09:27:59.000Z</time>
      </trkpt>
      <trkpt lat="49.87981" lon="4.79207">
        <ele>216</ele>
        <time>2021-08-14T09:28:00.000Z</time>
      </trkpt>
      <trkpt lat="49.87982" lon="4.79208">
        <ele>216</ele>
        <time>2021-08-14T09:28:01.000Z</time>
      </trkpt>
      <trkpt lat="49.87983" lon="4.79209">
        <ele>216</ele>
        <time>2021-08-14T09:28:02.000Z</time>
      </trkpt>
      <trkpt lat="49.87985" lon="4.79211">
        <ele>216</ele>
        <time>2021-08-14T09:28:03.000Z</time>
      </trkpt>
      <trkpt lat="49.87986" lon="4.79212">
        <ele>216</ele>
        <time>2021-08-14T09:28:04.000Z</time>
      </trkpt>
      <trkpt lat="49.87987" lon="4.79213">
        <ele>217</ele>
        <time>2021-08-14T09:28:05.000Z</time>
      </trkpt>
      <trkpt lat="49.87988" lon="4.79215">
        <ele>217</ele>
        <time>2021-08-14T09:28:06.000Z</time>
      </trkpt>
      <trkpt lat="49.87988" lon="4.79216">
        <ele>217</ele>
        <time>2021-08-14T09:28:07.000Z</time>
      </trkpt>
      <trkpt lat="49.87989" lon="4.79217">
        <ele>217</ele>
        <time>2021-08-14T09:28:08.000Z</time>
      </trkpt>
      <trkpt lat="49.8799" lon="4.79219">
        <ele>218</ele>
        <time>2021-08-14T09:28:09.000Z</time>
      </trkpt>
      <trkpt lat="49.87991" lon="4.79222">
        <ele>218</ele>
        <time>2021-08-14T09:28:10.000Z</time>
      </trkpt>
      <trkpt lat="49.87992" lon="4.79224">
        <ele>218</ele>
        <time>2021-08-14T09:28:11.000Z</time>
      </trkpt>
      <trkpt lat="49.87994" lon="4.79226">
        <ele>218</ele>
        <time>2021-08-14T09:28:12.000Z</time>
      </trkpt>
      <trkpt lat="49.87995" lon="4.79228">
        <ele>218</ele>
        <time>2021-08-14T09:28:13.000Z</time>
      </trkpt>
      <trkpt lat="49.87997" lon="4.7923">
        <ele>219</ele>
        <time>2021-08-14T09:28:14.000Z</time>
      </trkpt>
      <trkpt lat="49.87999" lon="4.79232">
        <ele>219</ele>
        <time>2021-08-14T09:28:15.000Z</time>
      </trkpt>
      <trkpt lat="49.88001" lon="4.79234">
        <ele>219</ele>
        <time>2021-08-14T09:28:16.000Z</time>
      </trkpt>
      <trkpt lat="49.88003" lon="4.79235">
        <ele>219</ele>
        <time>2021-08-14T09:28:17.000Z</time>
      </trkpt>
      <trkpt lat="49.88004" lon="4.79237">
        <ele>219</ele>
        <time>2021-08-14T09:28:18.000Z</time>
      </trkpt>
      <trkpt lat="49.88006" lon="4.79239">
        <ele>219</ele>
        <time>2021-08-14T09:28:19.000Z</time>
      </trkpt>
      <trkpt lat="49.88007" lon="4.79241">
        <ele>219</ele>
        <time>2021-08-14T09:28:20.000Z</time>
      </trkpt>
      <trkpt lat="49.88009" lon="4.79244">
        <ele>220</ele>
        <time>2021-08-14T09:28:21.000Z</time>
      </trkpt>
      <trkpt lat="49.8801" lon="4.79246">
        <ele>220</ele>
        <time>2021-08-14T09:28:22.000Z</time>
      </trkpt>
      <trkpt lat="49.88012" lon="4.79249">
        <ele>220</ele>
        <time>2021-08-14T09:28:23.000Z</time>
      </trkpt>
      <trkpt lat="49.88013" lon="4.79251">
        <ele>220</ele>
        <time>2021-08-14T09:28:24.000Z</time>
      </trkpt>
      <trkpt lat="49.88014" lon="4.79254">
        <ele>220</ele>
        <time>2021-08-14T09:28:25.000Z</time>
      </trkpt>
      <trkpt lat="49.88016" lon="4.79256">
        <ele>221</ele>
        <time>2021-08-14T09:28:26.000Z</time>
      </trkpt>
      <trkpt lat="49.88018" lon="4.79258">
        <ele>221</ele>
        <time>2021-08-14T09:28:27.000Z</time>
      </trkpt>
      <trkpt lat="49.88019" lon="4.7926">
        <ele>221</ele>
        <time>2021-08-14T09:28:28.000Z</time>
      </trkpt>
      <trkpt lat="49.8802" lon="4.79262">
        <ele>221</ele>
        <time>2021-08-14T09:28:29.000Z</time>
      </trkpt>
      <trkpt lat="49.88021" lon="4.79265">
        <ele>221</ele>
        <time>2021-08-14T09:28:30.000Z</time>
      </trkpt>
      <trkpt lat="49.88022" lon="4.79266">
        <ele>221</ele>
        <time>2021-08-14T09:28:31.000Z</time>
      </trkpt>
      <trkpt lat="49.88024" lon="4.79269">
        <ele>221</ele>
        <time>2021-08-14T09:28:32.000Z</time>
      </trkpt>
      <trkpt lat="49.88025" lon="4.7927">
        <ele>220</ele>
        <time>2021-08-14T09:28:33.000Z</time>
      </trkpt>
      <trkpt lat="49.88026" lon="4.79272">
        <ele>220</ele>
        <time>2021-08-14T09:28:34.000Z</time>
      </trkpt>
      <trkpt lat="49.88028" lon="4.79275">
        <ele>220</ele>
        <time>2021-08-14T09:28:35.000Z</time>
      </trkpt>
      <trkpt lat="49.88029" lon="4.79277">
        <ele>220</ele>
        <time>2021-08-14T09:28:36.000Z</time>
      </trkpt>
      <trkpt lat="49.8803" lon="4.79278">
        <ele>220</ele>
        <time>2021-08-14T09:28:37.000Z</time>
      </trkpt>
      <trkpt lat="49.88032" lon="4.79281">
        <ele>220</ele>
        <time>2021-08-14T09:28:38.000Z</time>
      </trkpt>
      <trkpt lat="49.88033" lon="4.79283">
        <ele>220</ele>
        <time>2021-08-14T09:28:39.000Z</time>
      </trkpt>
      <trkpt lat="49.88034" lon="4.79285">
        <ele>220</ele>
        <time>2021-08-14T09:28:40.000Z</time>
      </trkpt>
      <trkpt lat="49.88035" lon="4.79288">
        <ele>220</ele>
        <time>2021-08-14T09:28:41.000Z</time>
      </trkpt>
      <trkpt lat="49.88036" lon="4.79291">
        <ele>220</ele>
        <time>2021-08-14T09:28:42.000Z</time>
      </trkpt>
      <trkpt lat="49.88036" lon="4.79293">
        <ele>220</ele>
        <time>2021-08-14T09:28:43.000Z</time>
      </trkpt>
      <trkpt lat="49.88037" lon="4.79296">
        <ele>220</ele>
        <time>2021-08-14T09:28:44.000Z</time>
      </trkpt>
      <trkpt lat="49.88038" lon="4.79298">
        <ele>220</ele>
        <time>2021-08-14T09:28:45.000Z</time>
      </trkpt>
      <trkpt lat="49.88038" lon="4.793">
        <ele>220</ele>
        <time>2021-08-14T09:28:46.000Z</time>
      </trkpt>
      <trkpt lat="49.88039" lon="4.79302">
        <ele>220</ele>
        <time>2021-08-14T09:28:47.000Z</time>
      </trkpt>
      <trkpt lat="49.8804" lon="4.79304">
        <ele>220</ele>
        <time>2021-08-14T09:28:48.000Z</time>
      </trkpt>
      <trkpt lat="49.8804" lon="4.79306">
        <ele>220</ele>
        <time>2021-08-14T09:28:49.000Z</time>
      </trkpt>
      <trkpt lat="49.88041" lon="4.79308">
        <ele>220</ele>
        <time>2021-08-14T09:28:50.000Z</time>
      </trkpt>
      <trkpt lat="49.88043" lon="4.79311">
        <ele>220</ele>
        <time>2021-08-14T09:28:51.000Z</time>
      </trkpt>
      <trkpt lat="49.88044" lon="4.79313">
        <ele>221</ele>
        <time>2021-08-14T09:28:52.000Z</time>
      </trkpt>
      <trkpt lat="49.88046" lon="4.79315">
        <ele>221</ele>
        <time>2021-08-14T09:28:53.000Z</time>
      </trkpt>
      <trkpt lat="49.88048" lon="4.79317">
        <ele>221</ele>
        <time>2021-08-14T09:28:54.000Z</time>
      </trkpt>
      <trkpt lat="49.8805" lon="4.79319">
        <ele>221</ele>
        <time>2021-08-14T09:28:55.000Z</time>
      </trkpt>
      <trkpt lat="49.88051" lon="4.79321">
        <ele>221</ele>
        <time>2021-08-14T09:28:56.000Z</time>
      </trkpt>
      <trkpt lat="49.88053" lon="4.79324">
        <ele>221</ele>
        <time>2021-08-14T09:28:57.000Z</time>
      </trkpt>
      <trkpt lat="49.88055" lon="4.79327">
        <ele>221</ele>
        <time>2021-08-14T09:28:58.000Z</time>
      </trkpt>
      <trkpt lat="49.88057" lon="4.7933">
        <ele>221</ele>
        <time>2021-08-14T09:28:59.000Z</time>
      </trkpt>
      <trkpt lat="49.8806" lon="4.79332">
        <ele>221</ele>
        <time>2021-08-14T09:29:00.000Z</time>
      </trkpt>
      <trkpt lat="49.88062" lon="4.79335">
        <ele>220</ele>
        <time>2021-08-14T09:29:01.000Z</time>
      </trkpt>
      <trkpt lat="49.88064" lon="4.79338">
        <ele>220</ele>
        <time>2021-08-14T09:29:02.000Z</time>
      </trkpt>
      <trkpt lat="49.88065" lon="4.7934">
        <ele>221</ele>
        <time>2021-08-14T09:29:03.000Z</time>
      </trkpt>
      <trkpt lat="49.88067" lon="4.79342">
        <ele>221</ele>
        <time>2021-08-14T09:29:04.000Z</time>
      </trkpt>
      <trkpt lat="49.88068" lon="4.79344">
        <ele>221</ele>
        <time>2021-08-14T09:29:05.000Z</time>
      </trkpt>
      <trkpt lat="49.8807" lon="4.79347">
        <ele>221</ele>
        <time>2021-08-14T09:29:06.000Z</time>
      </trkpt>
      <trkpt lat="49.88072" lon="4.79349">
        <ele>221</ele>
        <time>2021-08-14T09:29:07.000Z</time>
      </trkpt>
      <trkpt lat="49.88074" lon="4.79351">
        <ele>221</ele>
        <time>2021-08-14T09:29:08.000Z</time>
      </trkpt>
      <trkpt lat="49.88076" lon="4.79352">
        <ele>221</ele>
        <time>2021-08-14T09:29:09.000Z</time>
      </trkpt>
      <trkpt lat="49.88078" lon="4.79354">
        <ele>222</ele>
        <time>2021-08-14T09:29:10.000Z</time>
      </trkpt>
      <trkpt lat="49.8808" lon="4.79356">
        <ele>222</ele>
        <time>2021-08-14T09:29:11.000Z</time>
      </trkpt>
      <trkpt lat="49.88082" lon="4.79358">
        <ele>222</ele>
        <time>2021-08-14T09:29:12.000Z</time>
      </trkpt>
      <trkpt lat="49.88084" lon="4.7936">
        <ele>222</ele>
        <time>2021-08-14T09:29:13.000Z</time>
      </trkpt>
      <trkpt lat="49.88086" lon="4.79362">
        <ele>222</ele>
        <time>2021-08-14T09:29:14.000Z</time>
      </trkpt>
      <trkpt lat="49.88087" lon="4.79364">
        <ele>222</ele>
        <time>2021-08-14T09:29:15.000Z</time>
      </trkpt>
      <trkpt lat="49.88088" lon="4.79365">
        <ele>223</ele>
        <time>2021-08-14T09:29:16.000Z</time>
      </trkpt>
      <trkpt lat="49.88089" lon="4.79366">
        <ele>223</ele>
        <time>2021-08-14T09:29:17.000Z</time>
      </trkpt>
      <trkpt lat="49.8809" lon="4.79368">
        <ele>223</ele>
        <time>2021-08-14T09:29:18.000Z</time>
      </trkpt>
      <trkpt lat="49.88091" lon="4.79371">
        <ele>223</ele>
        <time>2021-08-14T09:29:19.000Z</time>
      </trkpt>
      <trkpt lat="49.88091" lon="4.79373">
        <ele>223</ele>
        <time>2021-08-14T09:29:20.000Z</time>
      </trkpt>
      <trkpt lat="49.88092" lon="4.79375">
        <ele>223</ele>
        <time>2021-08-14T09:29:21.000Z</time>
      </trkpt>
      <trkpt lat="49.88093" lon="4.79378">
        <ele>223</ele>
        <time>2021-08-14T09:29:22.000Z</time>
      </trkpt>
      <trkpt lat="49.88095" lon="4.79381">
        <ele>224</ele>
        <time>2021-08-14T09:29:23.000Z</time>
      </trkpt>
      <trkpt lat="49.88097" lon="4.79384">
        <ele>224</ele>
        <time>2021-08-14T09:29:24.000Z</time>
      </trkpt>
      <trkpt lat="49.88097" lon="4.79386">
        <ele>224</ele>
        <time>2021-08-14T09:29:25.000Z</time>
      </trkpt>
      <trkpt lat="49.88098" lon="4.79388">
        <ele>224</ele>
        <time>2021-08-14T09:29:26.000Z</time>
      </trkpt>
      <trkpt lat="49.88099" lon="4.79391">
        <ele>224</ele>
        <time>2021-08-14T09:29:27.000Z</time>
      </trkpt>
      <trkpt lat="49.881" lon="4.79393">
        <ele>225</ele>
        <time>2021-08-14T09:29:28.000Z</time>
      </trkpt>
      <trkpt lat="49.881" lon="4.79395">
        <ele>225</ele>
        <time>2021-08-14T09:29:29.000Z</time>
      </trkpt>
      <trkpt lat="49.88101" lon="4.79397">
        <ele>225</ele>
        <time>2021-08-14T09:29:30.000Z</time>
      </trkpt>
      <trkpt lat="49.88102" lon="4.79399">
        <ele>226</ele>
        <time>2021-08-14T09:29:31.000Z</time>
      </trkpt>
      <trkpt lat="49.88103" lon="4.79401">
        <ele>226</ele>
        <time>2021-08-14T09:29:32.000Z</time>
      </trkpt>
      <trkpt lat="49.88104" lon="4.79402">
        <ele>226</ele>
        <time>2021-08-14T09:29:33.000Z</time>
      </trkpt>
      <trkpt lat="49.88105" lon="4.79404">
        <ele>226</ele>
        <time>2021-08-14T09:29:34.000Z</time>
      </trkpt>
      <trkpt lat="49.88106" lon="4.79406">
        <ele>227</ele>
        <time>2021-08-14T09:29:35.000Z</time>
      </trkpt>
      <trkpt lat="49.88108" lon="4.79409">
        <ele>227</ele>
        <time>2021-08-14T09:29:36.000Z</time>
      </trkpt>
      <trkpt lat="49.88109" lon="4.79411">
        <ele>227</ele>
        <time>2021-08-14T09:29:37.000Z</time>
      </trkpt>
      <trkpt lat="49.8811" lon="4.79413">
        <ele>227</ele>
        <time>2021-08-14T09:29:38.000Z</time>
      </trkpt>
      <trkpt lat="49.88112" lon="4.79415">
        <ele>228</ele>
        <time>2021-08-14T09:29:39.000Z</time>
      </trkpt>
      <trkpt lat="49.88113" lon="4.79417">
        <ele>228</ele>
        <time>2021-08-14T09:29:40.000Z</time>
      </trkpt>
      <trkpt lat="49.88115" lon="4.79419">
        <ele>228</ele>
        <time>2021-08-14T09:29:41.000Z</time>
      </trkpt>
      <trkpt lat="49.88117" lon="4.79422">
        <ele>228</ele>
        <time>2021-08-14T09:29:42.000Z</time>
      </trkpt>
      <trkpt lat="49.88119" lon="4.79424">
        <ele>228</ele>
        <time>2021-08-14T09:29:43.000Z</time>
      </trkpt>
      <trkpt lat="49.88121" lon="4.79426">
        <ele>228</ele>
        <time>2021-08-14T09:29:44.000Z</time>
      </trkpt>
      <trkpt lat="49.88123" lon="4.79427">
        <ele>228</ele>
        <time>2021-08-14T09:29:45.000Z</time>
      </trkpt>
      <trkpt lat="49.88125" lon="4.79429">
        <ele>228</ele>
        <time>2021-08-14T09:29:46.000Z</time>
      </trkpt>
      <trkpt lat="49.88127" lon="4.79431">
        <ele>228</ele>
        <time>2021-08-14T09:29:47.000Z</time>
      </trkpt>
      <trkpt lat="49.88129" lon="4.79434">
        <ele>228</ele>
        <time>2021-08-14T09:29:48.000Z</time>
      </trkpt>
      <trkpt lat="49.8813" lon="4.79436">
        <ele>228</ele>
        <time>2021-08-14T09:29:49.000Z</time>
      </trkpt>
      <trkpt lat="49.88131" lon="4.79438">
        <ele>228</ele>
        <time>2021-08-14T09:29:50.000Z</time>
      </trkpt>
      <trkpt lat="49.88132" lon="4.7944">
        <ele>227</ele>
        <time>2021-08-14T09:29:51.000Z</time>
      </trkpt>
      <trkpt lat="49.88134" lon="4.79442">
        <ele>227</ele>
        <time>2021-08-14T09:29:52.000Z</time>
      </trkpt>
      <trkpt lat="49.88135" lon="4.79445">
        <ele>227</ele>
        <time>2021-08-14T09:29:53.000Z</time>
      </trkpt>
      <trkpt lat="49.88136" lon="4.79446">
        <ele>227</ele>
        <time>2021-08-14T09:29:54.000Z</time>
      </trkpt>
      <trkpt lat="49.88137" lon="4.79448">
        <ele>227</ele>
        <time>2021-08-14T09:29:55.000Z</time>
      </trkpt>
      <trkpt lat="49.88138" lon="4.7945">
        <ele>227</ele>
        <time>2021-08-14T09:29:56.000Z</time>
      </trkpt>
      <trkpt lat="49.88139" lon="4.79452">
        <ele>227</ele>
        <time>2021-08-14T09:29:57.000Z</time>
      </trkpt>
      <trkpt lat="49.8814" lon="4.79454">
        <ele>227</ele>
        <time>2021-08-14T09:29:58.000Z</time>
      </trkpt>
      <trkpt lat="49.88141" lon="4.79456">
        <ele>227</ele>
        <time>2021-08-14T09:29:59.000Z</time>
      </trkpt>
      <trkpt lat="49.88142" lon="4.79458">
        <ele>227</ele>
        <time>2021-08-14T09:30:00.000Z</time>
      </trkpt>
      <trkpt lat="49.88143" lon="4.79461">
        <ele>227</ele>
        <time>2021-08-14T09:30:01.000Z</time>
      </trkpt>
      <trkpt lat="49.88144" lon="4.79463">
        <ele>227</ele>
        <time>2021-08-14T09:30:02.000Z</time>
      </trkpt>
      <trkpt lat="49.88144" lon="4.79466">
        <ele>228</ele>
        <time>2021-08-14T09:30:03.000Z</time>
      </trkpt>
      <trkpt lat="49.88145" lon="4.79468">
        <ele>228</ele>
        <time>2021-08-14T09:30:04.000Z</time>
      </trkpt>
      <trkpt lat="49.88146" lon="4.79472">
        <ele>228</ele>
        <time>2021-08-14T09:30:05.000Z</time>
      </trkpt>
      <trkpt lat="49.88147" lon="4.79475">
        <ele>228</ele>
        <time>2021-08-14T09:30:06.000Z</time>
      </trkpt>
      <trkpt lat="49.88149" lon="4.79478">
        <ele>228</ele>
        <time>2021-08-14T09:30:07.000Z</time>
      </trkpt>
      <trkpt lat="49.88151" lon="4.7948">
        <ele>228</ele>
        <time>2021-08-14T09:30:08.000Z</time>
      </trkpt>
      <trkpt lat="49.88152" lon="4.79482">
        <ele>229</ele>
        <time>2021-08-14T09:30:09.000Z</time>
      </trkpt>
      <trkpt lat="49.88153" lon="4.79485">
        <ele>229</ele>
        <time>2021-08-14T09:30:10.000Z</time>
      </trkpt>
      <trkpt lat="49.88154" lon="4.79487">
        <ele>229</ele>
        <time>2021-08-14T09:30:11.000Z</time>
      </trkpt>
      <trkpt lat="49.88156" lon="4.7949">
        <ele>229</ele>
        <time>2021-08-14T09:30:12.000Z</time>
      </trkpt>
      <trkpt lat="49.88158" lon="4.79493">
        <ele>229</ele>
        <time>2021-08-14T09:30:13.000Z</time>
      </trkpt>
      <trkpt lat="49.88161" lon="4.79496">
        <ele>229</ele>
        <time>2021-08-14T09:30:14.000Z</time>
      </trkpt>
      <trkpt lat="49.88163" lon="4.79498">
        <ele>229</ele>
        <time>2021-08-14T09:30:15.000Z</time>
      </trkpt>
      <trkpt lat="49.88166" lon="4.79501">
        <ele>229</ele>
        <time>2021-08-14T09:30:16.000Z</time>
      </trkpt>
      <trkpt lat="49.8817" lon="4.79503">
        <ele>229</ele>
        <time>2021-08-14T09:30:17.000Z</time>
      </trkpt>
      <trkpt lat="49.88173" lon="4.79506">
        <ele>229</ele>
        <time>2021-08-14T09:30:18.000Z</time>
      </trkpt>
      <trkpt lat="49.88176" lon="4.79508">
        <ele>229</ele>
        <time>2021-08-14T09:30:19.000Z</time>
      </trkpt>
      <trkpt lat="49.88178" lon="4.79511">
        <ele>229</ele>
        <time>2021-08-14T09:30:20.000Z</time>
      </trkpt>
      <trkpt lat="49.8818" lon="4.79515">
        <ele>229</ele>
        <time>2021-08-14T09:30:21.000Z</time>
      </trkpt>
      <trkpt lat="49.88182" lon="4.79518">
        <ele>229</ele>
        <time>2021-08-14T09:30:22.000Z</time>
      </trkpt>
      <trkpt lat="49.88183" lon="4.79522">
        <ele>229</ele>
        <time>2021-08-14T09:30:23.000Z</time>
      </trkpt>
      <trkpt lat="49.88186" lon="4.79525">
        <ele>229</ele>
        <time>2021-08-14T09:30:24.000Z</time>
      </trkpt>
      <trkpt lat="49.88187" lon="4.79529">
        <ele>229</ele>
        <time>2021-08-14T09:30:25.000Z</time>
      </trkpt>
      <trkpt lat="49.88189" lon="4.79533">
        <ele>229</ele>
        <time>2021-08-14T09:30:26.000Z</time>
      </trkpt>
      <trkpt lat="49.8819" lon="4.79537">
        <ele>229</ele>
        <time>2021-08-14T09:30:27.000Z</time>
      </trkpt>
      <trkpt lat="49.88192" lon="4.79541">
        <ele>229</ele>
        <time>2021-08-14T09:30:28.000Z</time>
      </trkpt>
      <trkpt lat="49.88192" lon="4.79546">
        <ele>229</ele>
        <time>2021-08-14T09:30:29.000Z</time>
      </trkpt>
      <trkpt lat="49.88193" lon="4.79551">
        <ele>229</ele>
        <time>2021-08-14T09:30:30.000Z</time>
      </trkpt>
      <trkpt lat="49.88193" lon="4.79557">
        <ele>229</ele>
        <time>2021-08-14T09:30:31.000Z</time>
      </trkpt>
      <trkpt lat="49.88193" lon="4.79564">
        <ele>229</ele>
        <time>2021-08-14T09:30:32.000Z</time>
      </trkpt>
      <trkpt lat="49.88192" lon="4.7957">
        <ele>229</ele>
        <time>2021-08-14T09:30:33.000Z</time>
      </trkpt>
      <trkpt lat="49.88192" lon="4.79576">
        <ele>229</ele>
        <time>2021-08-14T09:30:34.000Z</time>
      </trkpt>
      <trkpt lat="49.88191" lon="4.79581">
        <ele>229</ele>
        <time>2021-08-14T09:30:35.000Z</time>
      </trkpt>
      <trkpt lat="49.8819" lon="4.79588">
        <ele>230</ele>
        <time>2021-08-14T09:30:36.000Z</time>
      </trkpt>
      <trkpt lat="49.88189" lon="4.79594">
        <ele>230</ele>
        <time>2021-08-14T09:30:37.000Z</time>
      </trkpt>
      <trkpt lat="49.88187" lon="4.79601">
        <ele>230</ele>
        <time>2021-08-14T09:30:38.000Z</time>
      </trkpt>
      <trkpt lat="49.88185" lon="4.79607">
        <ele>230</ele>
        <time>2021-08-14T09:30:39.000Z</time>
      </trkpt>
      <trkpt lat="49.88182" lon="4.79613">
        <ele>230</ele>
        <time>2021-08-14T09:30:40.000Z</time>
      </trkpt>
      <trkpt lat="49.88179" lon="4.79619">
        <ele>230</ele>
        <time>2021-08-14T09:30:41.000Z</time>
      </trkpt>
      <trkpt lat="49.88176" lon="4.79626">
        <ele>230</ele>
        <time>2021-08-14T09:30:42.000Z</time>
      </trkpt>
      <trkpt lat="49.88173" lon="4.79632">
        <ele>231</ele>
        <time>2021-08-14T09:30:43.000Z</time>
      </trkpt>
      <trkpt lat="49.8817" lon="4.79639">
        <ele>231</ele>
        <time>2021-08-14T09:30:44.000Z</time>
      </trkpt>
      <trkpt lat="49.88167" lon="4.79646">
        <ele>231</ele>
        <time>2021-08-14T09:30:45.000Z</time>
      </trkpt>
      <trkpt lat="49.88164" lon="4.79653">
        <ele>231</ele>
        <time>2021-08-14T09:30:46.000Z</time>
      </trkpt>
      <trkpt lat="49.88161" lon="4.79659">
        <ele>232</ele>
        <time>2021-08-14T09:30:47.000Z</time>
      </trkpt>
      <trkpt lat="49.88159" lon="4.79665">
        <ele>232</ele>
        <time>2021-08-14T09:30:48.000Z</time>
      </trkpt>
      <trkpt lat="49.88156" lon="4.7967">
        <ele>232</ele>
        <time>2021-08-14T09:30:49.000Z</time>
      </trkpt>
      <trkpt lat="49.88153" lon="4.79676">
        <ele>232</ele>
        <time>2021-08-14T09:30:50.000Z</time>
      </trkpt>
      <trkpt lat="49.8815" lon="4.79682">
        <ele>232</ele>
        <time>2021-08-14T09:30:51.000Z</time>
      </trkpt>
      <trkpt lat="49.88147" lon="4.79688">
        <ele>232</ele>
        <time>2021-08-14T09:30:52.000Z</time>
      </trkpt>
      <trkpt lat="49.88143" lon="4.79694">
        <ele>232</ele>
        <time>2021-08-14T09:30:53.000Z</time>
      </trkpt>
      <trkpt lat="49.88139" lon="4.797">
        <ele>232</ele>
        <time>2021-08-14T09:30:54.000Z</time>
      </trkpt>
      <trkpt lat="49.88136" lon="4.79706">
        <ele>232</ele>
        <time>2021-08-14T09:30:55.000Z</time>
      </trkpt>
      <trkpt lat="49.88132" lon="4.79711">
        <ele>232</ele>
        <time>2021-08-14T09:30:56.000Z</time>
      </trkpt>
      <trkpt lat="49.88128" lon="4.79717">
        <ele>232</ele>
        <time>2021-08-14T09:30:57.000Z</time>
      </trkpt>
      <trkpt lat="49.88124" lon="4.79724">
        <ele>232</ele>
        <time>2021-08-14T09:30:58.000Z</time>
      </trkpt>
      <trkpt lat="49.88121" lon="4.79732">
        <ele>232</ele>
        <time>2021-08-14T09:30:59.000Z</time>
      </trkpt>
      <trkpt lat="49.88118" lon="4.7974">
        <ele>233</ele>
        <time>2021-08-14T09:31:00.000Z</time>
      </trkpt>
      <trkpt lat="49.88115" lon="4.79748">
        <ele>233</ele>
        <time>2021-08-14T09:31:01.000Z</time>
      </trkpt>
      <trkpt lat="49.88111" lon="4.79755">
        <ele>233</ele>
        <time>2021-08-14T09:31:02.000Z</time>
      </trkpt>
      <trkpt lat="49.88108" lon="4.79762">
        <ele>233</ele>
        <time>2021-08-14T09:31:03.000Z</time>
      </trkpt>
      <trkpt lat="49.88104" lon="4.7977">
        <ele>233</ele>
        <time>2021-08-14T09:31:04.000Z</time>
      </trkpt>
      <trkpt lat="49.88101" lon="4.79777">
        <ele>233</ele>
        <time>2021-08-14T09:31:05.000Z</time>
      </trkpt>
      <trkpt lat="49.88099" lon="4.79784">
        <ele>233</ele>
        <time>2021-08-14T09:31:06.000Z</time>
      </trkpt>
      <trkpt lat="49.88096" lon="4.79791">
        <ele>233</ele>
        <time>2021-08-14T09:31:07.000Z</time>
      </trkpt>
      <trkpt lat="49.88092" lon="4.79796">
        <ele>233</ele>
        <time>2021-08-14T09:31:08.000Z</time>
      </trkpt>
      <trkpt lat="49.88088" lon="4.79799">
        <ele>233</ele>
        <time>2021-08-14T09:31:09.000Z</time>
      </trkpt>
      <trkpt lat="49.88084" lon="4.798">
        <ele>233</ele>
        <time>2021-08-14T09:31:10.000Z</time>
      </trkpt>
      <trkpt lat="49.8808" lon="4.798">
        <ele>233</ele>
        <time>2021-08-14T09:31:11.000Z</time>
      </trkpt>
      <trkpt lat="49.88077" lon="4.79799">
        <ele>233</ele>
        <time>2021-08-14T09:31:12.000Z</time>
      </trkpt>
      <trkpt lat="49.88075" lon="4.79799">
        <ele>233</ele>
        <time>2021-08-14T09:31:13.000Z</time>
      </trkpt>
      <trkpt lat="49.88073" lon="4.79799">
        <ele>233</ele>
        <time>2021-08-14T09:31:14.000Z</time>
      </trkpt>
      <trkpt lat="49.88072" lon="4.798">
        <ele>233</ele>
        <time>2021-08-14T09:31:15.000Z</time>
      </trkpt>
      <trkpt lat="49.88071" lon="4.79803">
        <ele>233</ele>
        <time>2021-08-14T09:31:16.000Z</time>
      </trkpt>
      <trkpt lat="49.88069" lon="4.79806">
        <ele>233</ele>
        <time>2021-08-14T09:31:17.000Z</time>
      </trkpt>
      <trkpt lat="49.88067" lon="4.79809">
        <ele>233</ele>
        <time>2021-08-14T09:31:18.000Z</time>
      </trkpt>
      <trkpt lat="49.88064" lon="4.79812">
        <ele>233</ele>
        <time>2021-08-14T09:31:19.000Z</time>
      </trkpt>
      <trkpt lat="49.88061" lon="4.79815">
        <ele>233</ele>
        <time>2021-08-14T09:31:20.000Z</time>
      </trkpt>
      <trkpt lat="49.88058" lon="4.79818">
        <ele>233</ele>
        <time>2021-08-14T09:31:21.000Z</time>
      </trkpt>
      <trkpt lat="49.88054" lon="4.7982">
        <ele>233</ele>
        <time>2021-08-14T09:31:22.000Z</time>
      </trkpt>
      <trkpt lat="49.8805" lon="4.79822">
        <ele>233</ele>
        <time>2021-08-14T09:31:23.000Z</time>
      </trkpt>
      <trkpt lat="49.88046" lon="4.79825">
        <ele>233</ele>
        <time>2021-08-14T09:31:24.000Z</time>
      </trkpt>
      <trkpt lat="49.88043" lon="4.79828">
        <ele>233</ele>
        <time>2021-08-14T09:31:25.000Z</time>
      </trkpt>
      <trkpt lat="49.8804" lon="4.79831">
        <ele>233</ele>
        <time>2021-08-14T09:31:26.000Z</time>
      </trkpt>
      <trkpt lat="49.88036" lon="4.79834">
        <ele>232</ele>
        <time>2021-08-14T09:31:27.000Z</time>
      </trkpt>
      <trkpt lat="49.88031" lon="4.79836">
        <ele>232</ele>
        <time>2021-08-14T09:31:28.000Z</time>
      </trkpt>
      <trkpt lat="49.88027" lon="4.79839">
        <ele>232</ele>
        <time>2021-08-14T09:31:29.000Z</time>
      </trkpt>
      <trkpt lat="49.88023" lon="4.79841">
        <ele>232</ele>
        <time>2021-08-14T09:31:30.000Z</time>
      </trkpt>
      <trkpt lat="49.88019" lon="4.79842">
        <ele>232</ele>
        <time>2021-08-14T09:31:31.000Z</time>
      </trkpt>
      <trkpt lat="49.88015" lon="4.79844">
        <ele>232</ele>
        <time>2021-08-14T09:31:32.000Z</time>
      </trkpt>
      <trkpt lat="49.88011" lon="4.79846">
        <ele>232</ele>
        <time>2021-08-14T09:31:33.000Z</time>
      </trkpt>
      <trkpt lat="49.88007" lon="4.79848">
        <ele>232</ele>
        <time>2021-08-14T09:31:34.000Z</time>
      </trkpt>
      <trkpt lat="49.88003" lon="4.79849">
        <ele>231</ele>
        <time>2021-08-14T09:31:35.000Z</time>
      </trkpt>
      <trkpt lat="49.87998" lon="4.79851">
        <ele>231</ele>
        <time>2021-08-14T09:31:36.000Z</time>
      </trkpt>
      <trkpt lat="49.87994" lon="4.79853">
        <ele>231</ele>
        <time>2021-08-14T09:31:37.000Z</time>
      </trkpt>
      <trkpt lat="49.87989" lon="4.79856">
        <ele>231</ele>
        <time>2021-08-14T09:31:38.000Z</time>
      </trkpt>
      <trkpt lat="49.87985" lon="4.79858">
        <ele>231</ele>
        <time>2021-08-14T09:31:39.000Z</time>
      </trkpt>
      <trkpt lat="49.8798" lon="4.79861">
        <ele>231</ele>
        <time>2021-08-14T09:31:40.000Z</time>
      </trkpt>
      <trkpt lat="49.87977" lon="4.79864">
        <ele>231</ele>
        <time>2021-08-14T09:31:41.000Z</time>
      </trkpt>
      <trkpt lat="49.87973" lon="4.79865">
        <ele>231</ele>
        <time>2021-08-14T09:31:42.000Z</time>
      </trkpt>
      <trkpt lat="49.87969" lon="4.79867">
        <ele>231</ele>
        <time>2021-08-14T09:31:43.000Z</time>
      </trkpt>
      <trkpt lat="49.87965" lon="4.79869">
        <ele>230</ele>
        <time>2021-08-14T09:31:44.000Z</time>
      </trkpt>
      <trkpt lat="49.87961" lon="4.79871">
        <ele>230</ele>
        <time>2021-08-14T09:31:45.000Z</time>
      </trkpt>
      <trkpt lat="49.87957" lon="4.79873">
        <ele>230</ele>
        <time>2021-08-14T09:31:46.000Z</time>
      </trkpt>
      <trkpt lat="49.87954" lon="4.79874">
        <ele>230</ele>
        <time>2021-08-14T09:31:47.000Z</time>
      </trkpt>
      <trkpt lat="49.8795" lon="4.79875">
        <ele>230</ele>
        <time>2021-08-14T09:31:48.000Z</time>
      </trkpt>
      <trkpt lat="49.87945" lon="4.79876">
        <ele>230</ele>
        <time>2021-08-14T09:31:49.000Z</time>
      </trkpt>
      <trkpt lat="49.87941" lon="4.79878">
        <ele>230</ele>
        <time>2021-08-14T09:31:50.000Z</time>
      </trkpt>
      <trkpt lat="49.87936" lon="4.79881">
        <ele>230</ele>
        <time>2021-08-14T09:31:51.000Z</time>
      </trkpt>
      <trkpt lat="49.87931" lon="4.79884">
        <ele>229</ele>
        <time>2021-08-14T09:31:52.000Z</time>
      </trkpt>
      <trkpt lat="49.87925" lon="4.79886">
        <ele>229</ele>
        <time>2021-08-14T09:31:53.000Z</time>
      </trkpt>
      <trkpt lat="49.8792" lon="4.79889">
        <ele>229</ele>
        <time>2021-08-14T09:31:54.000Z</time>
      </trkpt>
      <trkpt lat="49.87914" lon="4.79892">
        <ele>229</ele>
        <time>2021-08-14T09:31:55.000Z</time>
      </trkpt>
      <trkpt lat="49.87909" lon="4.79895">
        <ele>229</ele>
        <time>2021-08-14T09:31:56.000Z</time>
      </trkpt>
      <trkpt lat="49.87904" lon="4.79899">
        <ele>229</ele>
        <time>2021-08-14T09:31:57.000Z</time>
      </trkpt>
      <trkpt lat="49.87899" lon="4.79901">
        <ele>229</ele>
        <time>2021-08-14T09:31:58.000Z</time>
      </trkpt>
      <trkpt lat="49.87895" lon="4.79904">
        <ele>228</ele>
        <time>2021-08-14T09:31:59.000Z</time>
      </trkpt>
      <trkpt lat="49.8789" lon="4.79906">
        <ele>228</ele>
        <time>2021-08-14T09:32:00.000Z</time>
      </trkpt>
      <trkpt lat="49.87886" lon="4.79909">
        <ele>228</ele>
        <time>2021-08-14T09:32:01.000Z</time>
      </trkpt>
      <trkpt lat="49.87881" lon="4.79912">
        <ele>228</ele>
        <time>2021-08-14T09:32:02.000Z</time>
      </trkpt>
      <trkpt lat="49.87876" lon="4.79914">
        <ele>228</ele>
        <time>2021-08-14T09:32:03.000Z</time>
      </trkpt>
      <trkpt lat="49.87872" lon="4.79916">
        <ele>228</ele>
        <time>2021-08-14T09:32:04.000Z</time>
      </trkpt>
      <trkpt lat="49.87867" lon="4.79919">
        <ele>227</ele>
        <time>2021-08-14T09:32:05.000Z</time>
      </trkpt>
      <trkpt lat="49.87862" lon="4.79922">
        <ele>227</ele>
        <time>2021-08-14T09:32:06.000Z</time>
      </trkpt>
      <trkpt lat="49.87857" lon="4.79925">
        <ele>227</ele>
        <time>2021-08-14T09:32:07.000Z</time>
      </trkpt>
      <trkpt lat="49.87852" lon="4.79928">
        <ele>227</ele>
        <time>2021-08-14T09:32:08.000Z</time>
      </trkpt>
      <trkpt lat="49.87847" lon="4.79932">
        <ele>226</ele>
        <time>2021-08-14T09:32:09.000Z</time>
      </trkpt>
      <trkpt lat="49.87842" lon="4.79935">
        <ele>226</ele>
        <time>2021-08-14T09:32:10.000Z</time>
      </trkpt>
      <trkpt lat="49.87837" lon="4.79939">
        <ele>226</ele>
        <time>2021-08-14T09:32:11.000Z</time>
      </trkpt>
      <trkpt lat="49.87832" lon="4.79942">
        <ele>226</ele>
        <time>2021-08-14T09:32:12.000Z</time>
      </trkpt>
      <trkpt lat="49.87826" lon="4.79945">
        <ele>225</ele>
        <time>2021-08-14T09:32:13.000Z</time>
      </trkpt>
      <trkpt lat="49.87822" lon="4.79948">
        <ele>225</ele>
        <time>2021-08-14T09:32:14.000Z</time>
      </trkpt>
      <trkpt lat="49.87817" lon="4.79952">
        <ele>225</ele>
        <time>2021-08-14T09:32:15.000Z</time>
      </trkpt>
      <trkpt lat="49.87812" lon="4.79955">
        <ele>224</ele>
        <time>2021-08-14T09:32:16.000Z</time>
      </trkpt>
      <trkpt lat="49.87807" lon="4.79959">
        <ele>224</ele>
        <time>2021-08-14T09:32:17.000Z</time>
      </trkpt>
      <trkpt lat="49.87802" lon="4.79962">
        <ele>224</ele>
        <time>2021-08-14T09:32:18.000Z</time>
      </trkpt>
      <trkpt lat="49.87798" lon="4.79967">
        <ele>224</ele>
        <time>2021-08-14T09:32:19.000Z</time>
      </trkpt>
      <trkpt lat="49.87793" lon="4.79973">
        <ele>224</ele>
        <time>2021-08-14T09:32:20.000Z</time>
      </trkpt>
      <trkpt lat="49.87789" lon="4.7998">
        <ele>223</ele>
        <time>2021-08-14T09:32:21.000Z</time>
      </trkpt>
      <trkpt lat="49.87785" lon="4.79988">
        <ele>223</ele>
        <time>2021-08-14T09:32:22.000Z</time>
      </trkpt>
      <trkpt lat="49.87781" lon="4.79994">
        <ele>223</ele>
        <time>2021-08-14T09:32:23.000Z</time>
      </trkpt>
      <trkpt lat="49.87776" lon="4.79998">
        <ele>223</ele>
        <time>2021-08-14T09:32:24.000Z</time>
      </trkpt>
      <trkpt lat="49.87769" lon="4.79999">
        <ele>222</ele>
        <time>2021-08-14T09:32:25.000Z</time>
      </trkpt>
      <trkpt lat="49.87763" lon="4.79998">
        <ele>222</ele>
        <time>2021-08-14T09:32:26.000Z</time>
      </trkpt>
      <trkpt lat="49.87757" lon="4.79996">
        <ele>221</ele>
        <time>2021-08-14T09:32:27.000Z</time>
      </trkpt>
      <trkpt lat="49.87753" lon="4.79992">
        <ele>221</ele>
        <time>2021-08-14T09:32:28.000Z</time>
      </trkpt>
      <trkpt lat="49.87748" lon="4.79988">
        <ele>221</ele>
        <time>2021-08-14T09:32:29.000Z</time>
      </trkpt>
      <trkpt lat="49.87744" lon="4.79985">
        <ele>220</ele>
        <time>2021-08-14T09:32:30.000Z</time>
      </trkpt>
      <trkpt lat="49.8774" lon="4.79981">
        <ele>220</ele>
        <time>2021-08-14T09:32:31.000Z</time>
      </trkpt>
      <trkpt lat="49.87736" lon="4.79976">
        <ele>220</ele>
        <time>2021-08-14T09:32:32.000Z</time>
      </trkpt>
      <trkpt lat="49.87732" lon="4.79971">
        <ele>220</ele>
        <time>2021-08-14T09:32:33.000Z</time>
      </trkpt>
      <trkpt lat="49.87728" lon="4.79966">
        <ele>219</ele>
        <time>2021-08-14T09:32:34.000Z</time>
      </trkpt>
      <trkpt lat="49.87725" lon="4.79961">
        <ele>219</ele>
        <time>2021-08-14T09:32:35.000Z</time>
      </trkpt>
      <trkpt lat="49.87721" lon="4.79956">
        <ele>219</ele>
        <time>2021-08-14T09:32:36.000Z</time>
      </trkpt>
      <trkpt lat="49.87718" lon="4.79952">
        <ele>219</ele>
        <time>2021-08-14T09:32:37.000Z</time>
      </trkpt>
      <trkpt lat="49.87715" lon="4.79949">
        <ele>219</ele>
        <time>2021-08-14T09:32:38.000Z</time>
      </trkpt>
      <trkpt lat="49.87712" lon="4.79946">
        <ele>219</ele>
        <time>2021-08-14T09:32:39.000Z</time>
      </trkpt>
      <trkpt lat="49.87709" lon="4.79943">
        <ele>218</ele>
        <time>2021-08-14T09:32:40.000Z</time>
      </trkpt>
      <trkpt lat="49.87706" lon="4.79941">
        <ele>218</ele>
        <time>2021-08-14T09:32:41.000Z</time>
      </trkpt>
      <trkpt lat="49.87703" lon="4.79938">
        <ele>218</ele>
        <time>2021-08-14T09:32:42.000Z</time>
      </trkpt>
      <trkpt lat="49.87701" lon="4.79936">
        <ele>218</ele>
        <time>2021-08-14T09:32:43.000Z</time>
      </trkpt>
      <trkpt lat="49.87699" lon="4.79934">
        <ele>218</ele>
        <time>2021-08-14T09:32:44.000Z</time>
      </trkpt>
      <trkpt lat="49.87697" lon="4.79932">
        <ele>218</ele>
        <time>2021-08-14T09:32:45.000Z</time>
      </trkpt>
      <trkpt lat="49.87695" lon="4.7993">
        <ele>217</ele>
        <time>2021-08-14T09:32:46.000Z</time>
      </trkpt>
      <trkpt lat="49.87693" lon="4.79927">
        <ele>217</ele>
        <time>2021-08-14T09:32:47.000Z</time>
      </trkpt>
      <trkpt lat="49.87691" lon="4.79925">
        <ele>217</ele>
        <time>2021-08-14T09:32:48.000Z</time>
      </trkpt>
      <trkpt lat="49.87689" lon="4.79923">
        <ele>217</ele>
        <time>2021-08-14T09:32:49.000Z</time>
      </trkpt>
      <trkpt lat="49.87686" lon="4.7992">
        <ele>217</ele>
        <time>2021-08-14T09:32:50.000Z</time>
      </trkpt>
      <trkpt lat="49.87684" lon="4.79919">
        <ele>216</ele>
        <time>2021-08-14T09:32:51.000Z</time>
      </trkpt>
      <trkpt lat="49.87682" lon="4.79917">
        <ele>216</ele>
        <time>2021-08-14T09:32:52.000Z</time>
      </trkpt>
      <trkpt lat="49.87681" lon="4.79915">
        <ele>216</ele>
        <time>2021-08-14T09:32:53.000Z</time>
      </trkpt>
      <trkpt lat="49.87678" lon="4.79914">
        <ele>216</ele>
        <time>2021-08-14T09:32:54.000Z</time>
      </trkpt>
      <trkpt lat="49.87675" lon="4.79913">
        <ele>216</ele>
        <time>2021-08-14T09:32:55.000Z</time>
      </trkpt>
      <trkpt lat="49.87672" lon="4.79912">
        <ele>215</ele>
        <time>2021-08-14T09:32:56.000Z</time>
      </trkpt>
      <trkpt lat="49.87668" lon="4.79911">
        <ele>215</ele>
        <time>2021-08-14T09:32:57.000Z</time>
      </trkpt>
      <trkpt lat="49.87664" lon="4.7991">
        <ele>215</ele>
        <time>2021-08-14T09:32:58.000Z</time>
      </trkpt>
      <trkpt lat="49.87661" lon="4.79909">
        <ele>215</ele>
        <time>2021-08-14T09:32:59.000Z</time>
      </trkpt>
      <trkpt lat="49.87657" lon="4.79907">
        <ele>214</ele>
        <time>2021-08-14T09:33:00.000Z</time>
      </trkpt>
      <trkpt lat="49.87654" lon="4.79906">
        <ele>214</ele>
        <time>2021-08-14T09:33:01.000Z</time>
      </trkpt>
      <trkpt lat="49.87651" lon="4.79905">
        <ele>214</ele>
        <time>2021-08-14T09:33:02.000Z</time>
      </trkpt>
      <trkpt lat="49.87648" lon="4.79904">
        <ele>214</ele>
        <time>2021-08-14T09:33:03.000Z</time>
      </trkpt>
      <trkpt lat="49.87645" lon="4.79903">
        <ele>213</ele>
        <time>2021-08-14T09:33:04.000Z</time>
      </trkpt>
      <trkpt lat="49.87644" lon="4.79901">
        <ele>213</ele>
        <time>2021-08-14T09:33:05.000Z</time>
      </trkpt>
      <trkpt lat="49.87641" lon="4.799">
        <ele>213</ele>
        <time>2021-08-14T09:33:06.000Z</time>
      </trkpt>
      <trkpt lat="49.87638" lon="4.79899">
        <ele>213</ele>
        <time>2021-08-14T09:33:07.000Z</time>
      </trkpt>
      <trkpt lat="49.87636" lon="4.79899">
        <ele>212</ele>
        <time>2021-08-14T09:33:08.000Z</time>
      </trkpt>
      <trkpt lat="49.87634" lon="4.799">
        <ele>212</ele>
        <time>2021-08-14T09:33:09.000Z</time>
      </trkpt>
      <trkpt lat="49.87632" lon="4.79903">
        <ele>212</ele>
        <time>2021-08-14T09:33:10.000Z</time>
      </trkpt>
      <trkpt lat="49.8763" lon="4.79907">
        <ele>212</ele>
        <time>2021-08-14T09:33:11.000Z</time>
      </trkpt>
      <trkpt lat="49.87629" lon="4.79912">
        <ele>212</ele>
        <time>2021-08-14T09:33:12.000Z</time>
      </trkpt>
      <trkpt lat="49.87627" lon="4.79917">
        <ele>212</ele>
        <time>2021-08-14T09:33:13.000Z</time>
      </trkpt>
      <trkpt lat="49.87625" lon="4.79923">
        <ele>211</ele>
        <time>2021-08-14T09:33:14.000Z</time>
      </trkpt>
      <trkpt lat="49.87623" lon="4.79928">
        <ele>211</ele>
        <time>2021-08-14T09:33:15.000Z</time>
      </trkpt>
      <trkpt lat="49.87621" lon="4.79934">
        <ele>211</ele>
        <time>2021-08-14T09:33:16.000Z</time>
      </trkpt>
      <trkpt lat="49.87619" lon="4.79941">
        <ele>211</ele>
        <time>2021-08-14T09:33:17.000Z</time>
      </trkpt>
      <trkpt lat="49.87618" lon="4.79946">
        <ele>211</ele>
        <time>2021-08-14T09:33:18.000Z</time>
      </trkpt>
      <trkpt lat="49.87616" lon="4.79952">
        <ele>211</ele>
        <time>2021-08-14T09:33:19.000Z</time>
      </trkpt>
      <trkpt lat="49.87614" lon="4.79957">
        <ele>211</ele>
        <time>2021-08-14T09:33:20.000Z</time>
      </trkpt>
      <trkpt lat="49.87613" lon="4.79964">
        <ele>211</ele>
        <time>2021-08-14T09:33:21.000Z</time>
      </trkpt>
      <trkpt lat="49.87611" lon="4.79971">
        <ele>211</ele>
        <time>2021-08-14T09:33:22.000Z</time>
      </trkpt>
      <trkpt lat="49.87609" lon="4.79978">
        <ele>211</ele>
        <time>2021-08-14T09:33:23.000Z</time>
      </trkpt>
      <trkpt lat="49.87607" lon="4.79985">
        <ele>211</ele>
        <time>2021-08-14T09:33:24.000Z</time>
      </trkpt>
      <trkpt lat="49.87605" lon="4.79992">
        <ele>211</ele>
        <time>2021-08-14T09:33:25.000Z</time>
      </trkpt>
      <trkpt lat="49.87603" lon="4.79998">
        <ele>210</ele>
        <time>2021-08-14T09:33:26.000Z</time>
      </trkpt>
      <trkpt lat="49.87601" lon="4.80004">
        <ele>210</ele>
        <time>2021-08-14T09:33:27.000Z</time>
      </trkpt>
      <trkpt lat="49.87599" lon="4.80009">
        <ele>210</ele>
        <time>2021-08-14T09:33:28.000Z</time>
      </trkpt>
      <trkpt lat="49.87597" lon="4.80015">
        <ele>210</ele>
        <time>2021-08-14T09:33:29.000Z</time>
      </trkpt>
      <trkpt lat="49.87595" lon="4.80021">
        <ele>209</ele>
        <time>2021-08-14T09:33:30.000Z</time>
      </trkpt>
      <trkpt lat="49.87593" lon="4.80028">
        <ele>209</ele>
        <time>2021-08-14T09:33:31.000Z</time>
      </trkpt>
      <trkpt lat="49.87591" lon="4.80035">
        <ele>209</ele>
        <time>2021-08-14T09:33:32.000Z</time>
      </trkpt>
      <trkpt lat="49.87589" lon="4.80042">
        <ele>209</ele>
        <time>2021-08-14T09:33:33.000Z</time>
      </trkpt>
      <trkpt lat="49.87587" lon="4.8005">
        <ele>208</ele>
        <time>2021-08-14T09:33:34.000Z</time>
      </trkpt>
      <trkpt lat="49.87586" lon="4.80058">
        <ele>208</ele>
        <time>2021-08-14T09:33:35.000Z</time>
      </trkpt>
      <trkpt lat="49.87585" lon="4.80066">
        <ele>208</ele>
        <time>2021-08-14T09:33:36.000Z</time>
      </trkpt>
      <trkpt lat="49.87583" lon="4.80074">
        <ele>208</ele>
        <time>2021-08-14T09:33:37.000Z</time>
      </trkpt>
      <trkpt lat="49.87582" lon="4.80082">
        <ele>208</ele>
        <time>2021-08-14T09:33:38.000Z</time>
      </trkpt>
      <trkpt lat="49.8758" lon="4.80089">
        <ele>207</ele>
        <time>2021-08-14T09:33:39.000Z</time>
      </trkpt>
      <trkpt lat="49.87578" lon="4.80098">
        <ele>207</ele>
        <time>2021-08-14T09:33:40.000Z</time>
      </trkpt>
      <trkpt lat="49.87576" lon="4.80106">
        <ele>207</ele>
        <time>2021-08-14T09:33:41.000Z</time>
      </trkpt>
      <trkpt lat="49.87574" lon="4.80114">
        <ele>207</ele>
        <time>2021-08-14T09:33:42.000Z</time>
      </trkpt>
      <trkpt lat="49.87571" lon="4.80122">
        <ele>207</ele>
        <time>2021-08-14T09:33:43.000Z</time>
      </trkpt>
      <trkpt lat="49.87569" lon="4.80129">
        <ele>206</ele>
        <time>2021-08-14T09:33:44.000Z</time>
      </trkpt>
      <trkpt lat="49.87567" lon="4.80136">
        <ele>206</ele>
        <time>2021-08-14T09:33:45.000Z</time>
      </trkpt>
      <trkpt lat="49.87567" lon="4.80141">
        <ele>206</ele>
        <time>2021-08-14T09:33:46.000Z</time>
      </trkpt>
      <trkpt lat="49.87567" lon="4.80145">
        <ele>206</ele>
        <time>2021-08-14T09:33:47.000Z</time>
      </trkpt>
      <trkpt lat="49.87567" lon="4.80148">
        <ele>205</ele>
        <time>2021-08-14T09:33:48.000Z</time>
      </trkpt>
      <trkpt lat="49.87567" lon="4.80151">
        <ele>205</ele>
        <time>2021-08-14T09:33:49.000Z</time>
      </trkpt>
      <trkpt lat="49.87567" lon="4.80154">
        <ele>205</ele>
        <time>2021-08-14T09:33:50.000Z</time>
      </trkpt>
      <trkpt lat="49.87567" lon="4.80157">
        <ele>205</ele>
        <time>2021-08-14T09:33:51.000Z</time>
      </trkpt>
      <trkpt lat="49.87566" lon="4.80159">
        <ele>204</ele>
        <time>2021-08-14T09:33:52.000Z</time>
      </trkpt>
      <trkpt lat="49.87564" lon="4.80159">
        <ele>204</ele>
        <time>2021-08-14T09:33:53.000Z</time>
      </trkpt>
      <trkpt lat="49.87563" lon="4.80158">
        <ele>204</ele>
        <time>2021-08-14T09:33:54.000Z</time>
      </trkpt>
      <trkpt lat="49.8756" lon="4.80158">
        <ele>203</ele>
        <time>2021-08-14T09:33:55.000Z</time>
      </trkpt>
      <trkpt lat="49.87558" lon="4.80158">
        <ele>203</ele>
        <time>2021-08-14T09:33:56.000Z</time>
      </trkpt>
      <trkpt lat="49.87555" lon="4.80158">
        <ele>202</ele>
        <time>2021-08-14T09:33:57.000Z</time>
      </trkpt>
      <trkpt lat="49.87552" lon="4.80159">
        <ele>202</ele>
        <time>2021-08-14T09:33:58.000Z</time>
      </trkpt>
      <trkpt lat="49.87548" lon="4.80161">
        <ele>202</ele>
        <time>2021-08-14T09:33:59.000Z</time>
      </trkpt>
      <trkpt lat="49.87544" lon="4.80162">
        <ele>202</ele>
        <time>2021-08-14T09:34:00.000Z</time>
      </trkpt>
      <trkpt lat="49.87541" lon="4.80164">
        <ele>201</ele>
        <time>2021-08-14T09:34:01.000Z</time>
      </trkpt>
      <trkpt lat="49.87538" lon="4.80166">
        <ele>201</ele>
        <time>2021-08-14T09:34:02.000Z</time>
      </trkpt>
      <trkpt lat="49.87535" lon="4.80166">
        <ele>201</ele>
        <time>2021-08-14T09:34:03.000Z</time>
      </trkpt>
      <trkpt lat="49.8753" lon="4.80166">
        <ele>201</ele>
        <time>2021-08-14T09:34:04.000Z</time>
      </trkpt>
      <trkpt lat="49.87526" lon="4.80166">
        <ele>200</ele>
        <time>2021-08-14T09:34:05.000Z</time>
      </trkpt>
      <trkpt lat="49.87521" lon="4.80167">
        <ele>200</ele>
        <time>2021-08-14T09:34:06.000Z</time>
      </trkpt>
      <trkpt lat="49.87515" lon="4.80167">
        <ele>200</ele>
        <time>2021-08-14T09:34:07.000Z</time>
      </trkpt>
      <trkpt lat="49.87509" lon="4.80167">
        <ele>200</ele>
        <time>2021-08-14T09:34:08.000Z</time>
      </trkpt>
      <trkpt lat="49.87504" lon="4.80167">
        <ele>199</ele>
        <time>2021-08-14T09:34:09.000Z</time>
      </trkpt>
      <trkpt lat="49.87499" lon="4.80168">
        <ele>199</ele>
        <time>2021-08-14T09:34:10.000Z</time>
      </trkpt>
      <trkpt lat="49.87495" lon="4.8017">
        <ele>199</ele>
        <time>2021-08-14T09:34:11.000Z</time>
      </trkpt>
      <trkpt lat="49.87494" lon="4.80172">
        <ele>198</ele>
        <time>2021-08-14T09:34:12.000Z</time>
      </trkpt>
      <trkpt lat="49.87493" lon="4.80173">
        <ele>198</ele>
        <time>2021-08-14T09:34:13.000Z</time>
      </trkpt>
      <trkpt lat="49.87492" lon="4.80173">
        <ele>198</ele>
        <time>2021-08-14T09:34:14.000Z</time>
      </trkpt>
      <trkpt lat="49.87492" lon="4.80173">
        <ele>198</ele>
        <time>2021-08-14T09:34:15.000Z</time>
      </trkpt>
      <trkpt lat="49.87491" lon="4.80173">
        <ele>197</ele>
        <time>2021-08-14T09:34:16.000Z</time>
      </trkpt>
      <trkpt lat="49.87491" lon="4.80173">
        <ele>197</ele>
        <time>2021-08-14T09:34:17.000Z</time>
      </trkpt>
      <trkpt lat="49.87491" lon="4.80173">
        <ele>197</ele>
        <time>2021-08-14T09:34:18.000Z</time>
      </trkpt>
      <trkpt lat="49.87491" lon="4.80173">
        <ele>197</ele>
        <time>2021-08-14T09:34:19.000Z</time>
      </trkpt>
      <trkpt lat="49.8749" lon="4.80173">
        <ele>197</ele>
        <time>2021-08-14T09:34:20.000Z</time>
      </trkpt>
      <trkpt lat="49.8749" lon="4.80174">
        <ele>197</ele>
        <time>2021-08-14T09:34:21.000Z</time>
      </trkpt>
      <trkpt lat="49.8749" lon="4.80174">
        <ele>197</ele>
        <time>2021-08-14T09:34:22.000Z</time>
      </trkpt>
      <trkpt lat="49.8749" lon="4.80174">
        <ele>197</ele>
        <time>2021-08-14T09:34:23.000Z</time>
      </trkpt>
      <trkpt lat="49.8749" lon="4.80174">
        <ele>197</ele>
        <time>2021-08-14T09:34:24.000Z</time>
      </trkpt>
      <trkpt lat="49.8749" lon="4.80174">
        <ele>197</ele>
        <time>2021-08-14T09:34:25.000Z</time>
      </trkpt>
      <trkpt lat="49.8749" lon="4.80174">
        <ele>197</ele>
        <time>2021-08-14T09:34:26.000Z</time>
      </trkpt>
      <trkpt lat="49.87489" lon="4.80174">
        <ele>197</ele>
        <time>2021-08-14T09:34:27.000Z</time>
      </trkpt>
      <trkpt lat="49.87489" lon="4.80174">
        <ele>197</ele>
        <time>2021-08-14T09:34:28.000Z</time>
      </trkpt>
      <trkpt lat="49.87489" lon="4.80175">
        <ele>197</ele>
        <time>2021-08-14T09:34:29.000Z</time>
      </trkpt>
      <trkpt lat="49.87489" lon="4.80175">
        <ele>197</ele>
        <time>2021-08-14T09:34:30.000Z</time>
      </trkpt>
      <trkpt lat="49.87489" lon="4.80175">
        <ele>197</ele>
        <time>2021-08-14T09:34:31.000Z</time>
      </trkpt>
      <trkpt lat="49.87489" lon="4.80175">
        <ele>197</ele>
        <time>2021-08-14T09:34:32.000Z</time>
      </trkpt>
      <trkpt lat="49.8749" lon="4.80175">
        <ele>197</ele>
        <time>2021-08-14T09:34:33.000Z</time>
      </trkpt>
      <trkpt lat="49.8749" lon="4.80176">
        <ele>197</ele>
        <time>2021-08-14T09:34:34.000Z</time>
      </trkpt>
      <trkpt lat="49.8749" lon="4.80176">
        <ele>197</ele>
        <time>2021-08-14T09:34:35.000Z</time>
      </trkpt>
      <trkpt lat="49.8749" lon="4.80176">
        <ele>197</ele>
        <time>2021-08-14T09:34:36.000Z</time>
      </trkpt>
      <trkpt lat="49.8749" lon="4.80177">
        <ele>197</ele>
        <time>2021-08-14T09:34:37.000Z</time>
      </trkpt>
      <trkpt lat="49.87491" lon="4.80177">
        <ele>197</ele>
        <time>2021-08-14T09:34:38.000Z</time>
      </trkpt>
      <trkpt lat="49.87491" lon="4.80178">
        <ele>197</ele>
        <time>2021-08-14T09:34:39.000Z</time>
      </trkpt>
      <trkpt lat="49.87492" lon="4.80179">
        <ele>197</ele>
        <time>2021-08-14T09:34:40.000Z</time>
      </trkpt>
      <trkpt lat="49.87492" lon="4.8018">
        <ele>197</ele>
        <time>2021-08-14T09:34:41.000Z</time>
      </trkpt>
      <trkpt lat="49.87491" lon="4.80183">
        <ele>197</ele>
        <time>2021-08-14T09:34:42.000Z</time>
      </trkpt>
      <trkpt lat="49.8749" lon="4.80186">
        <ele>197</ele>
        <time>2021-08-14T09:34:43.000Z</time>
      </trkpt>
      <trkpt lat="49.87488" lon="4.8019">
        <ele>197</ele>
        <time>2021-08-14T09:34:44.000Z</time>
      </trkpt>
      <trkpt lat="49.87487" lon="4.80194">
        <ele>196</ele>
        <time>2021-08-14T09:34:45.000Z</time>
      </trkpt>
      <trkpt lat="49.87485" lon="4.80199">
        <ele>196</ele>
        <time>2021-08-14T09:34:46.000Z</time>
      </trkpt>
      <trkpt lat="49.87483" lon="4.80204">
        <ele>196</ele>
        <time>2021-08-14T09:34:47.000Z</time>
      </trkpt>
      <trkpt lat="49.87482" lon="4.80209">
        <ele>196</ele>
        <time>2021-08-14T09:34:48.000Z</time>
      </trkpt>
      <trkpt lat="49.8748" lon="4.80215">
        <ele>196</ele>
        <time>2021-08-14T09:34:49.000Z</time>
      </trkpt>
      <trkpt lat="49.87478" lon="4.80221">
        <ele>195</ele>
        <time>2021-08-14T09:34:50.000Z</time>
      </trkpt>
      <trkpt lat="49.87475" lon="4.80225">
        <ele>195</ele>
        <time>2021-08-14T09:34:51.000Z</time>
      </trkpt>
      <trkpt lat="49.87472" lon="4.80226">
        <ele>195</ele>
        <time>2021-08-14T09:34:52.000Z</time>
      </trkpt>
      <trkpt lat="49.87468" lon="4.80227">
        <ele>194</ele>
        <time>2021-08-14T09:34:53.000Z</time>
      </trkpt>
      <trkpt lat="49.87465" lon="4.80228">
        <ele>194</ele>
        <time>2021-08-14T09:34:54.000Z</time>
      </trkpt>
      <trkpt lat="49.87462" lon="4.8023">
        <ele>194</ele>
        <time>2021-08-14T09:34:55.000Z</time>
      </trkpt>
      <trkpt lat="49.87459" lon="4.80232">
        <ele>194</ele>
        <time>2021-08-14T09:34:56.000Z</time>
      </trkpt>
      <trkpt lat="49.87456" lon="4.80234">
        <ele>193</ele>
        <time>2021-08-14T09:34:57.000Z</time>
      </trkpt>
      <trkpt lat="49.87453" lon="4.80236">
        <ele>193</ele>
        <time>2021-08-14T09:34:58.000Z</time>
      </trkpt>
      <trkpt lat="49.87451" lon="4.80238">
        <ele>193</ele>
        <time>2021-08-14T09:34:59.000Z</time>
      </trkpt>
      <trkpt lat="49.87448" lon="4.80238">
        <ele>193</ele>
        <time>2021-08-14T09:35:00.000Z</time>
      </trkpt>
      <trkpt lat="49.87446" lon="4.8024">
        <ele>192</ele>
        <time>2021-08-14T09:35:01.000Z</time>
      </trkpt>
      <trkpt lat="49.87445" lon="4.80243">
        <ele>192</ele>
        <time>2021-08-14T09:35:02.000Z</time>
      </trkpt>
      <trkpt lat="49.87446" lon="4.80247">
        <ele>192</ele>
        <time>2021-08-14T09:35:03.000Z</time>
      </trkpt>
      <trkpt lat="49.87446" lon="4.80252">
        <ele>191</ele>
        <time>2021-08-14T09:35:04.000Z</time>
      </trkpt>
      <trkpt lat="49.87445" lon="4.80256">
        <ele>191</ele>
        <time>2021-08-14T09:35:05.000Z</time>
      </trkpt>
      <trkpt lat="49.87443" lon="4.80259">
        <ele>190</ele>
        <time>2021-08-14T09:35:06.000Z</time>
      </trkpt>
      <trkpt lat="49.87441" lon="4.80263">
        <ele>190</ele>
        <time>2021-08-14T09:35:07.000Z</time>
      </trkpt>
      <trkpt lat="49.87439" lon="4.80268">
        <ele>190</ele>
        <time>2021-08-14T09:35:08.000Z</time>
      </trkpt>
      <trkpt lat="49.87438" lon="4.80274">
        <ele>190</ele>
        <time>2021-08-14T09:35:09.000Z</time>
      </trkpt>
      <trkpt lat="49.87437" lon="4.80282">
        <ele>189</ele>
        <time>2021-08-14T09:35:10.000Z</time>
      </trkpt>
      <trkpt lat="49.87435" lon="4.80289">
        <ele>189</ele>
        <time>2021-08-14T09:35:11.000Z</time>
      </trkpt>
      <trkpt lat="49.87435" lon="4.80296">
        <ele>189</ele>
        <time>2021-08-14T09:35:12.000Z</time>
      </trkpt>
      <trkpt lat="49.87434" lon="4.80304">
        <ele>189</ele>
        <time>2021-08-14T09:35:13.000Z</time>
      </trkpt>
      <trkpt lat="49.87433" lon="4.80312">
        <ele>188</ele>
        <time>2021-08-14T09:35:14.000Z</time>
      </trkpt>
      <trkpt lat="49.87431" lon="4.8032">
        <ele>188</ele>
        <time>2021-08-14T09:35:15.000Z</time>
      </trkpt>
      <trkpt lat="49.87429" lon="4.80328">
        <ele>188</ele>
        <time>2021-08-14T09:35:16.000Z</time>
      </trkpt>
      <trkpt lat="49.87427" lon="4.80335">
        <ele>188</ele>
        <time>2021-08-14T09:35:17.000Z</time>
      </trkpt>
      <trkpt lat="49.87425" lon="4.80341">
        <ele>188</ele>
        <time>2021-08-14T09:35:18.000Z</time>
      </trkpt>
      <trkpt lat="49.87423" lon="4.80349">
        <ele>187</ele>
        <time>2021-08-14T09:35:19.000Z</time>
      </trkpt>
      <trkpt lat="49.87422" lon="4.80356">
        <ele>187</ele>
        <time>2021-08-14T09:35:20.000Z</time>
      </trkpt>
      <trkpt lat="49.8742" lon="4.80362">
        <ele>187</ele>
        <time>2021-08-14T09:35:21.000Z</time>
      </trkpt>
      <trkpt lat="49.87419" lon="4.8037">
        <ele>187</ele>
        <time>2021-08-14T09:35:22.000Z</time>
      </trkpt>
      <trkpt lat="49.87417" lon="4.80377">
        <ele>186</ele>
        <time>2021-08-14T09:35:23.000Z</time>
      </trkpt>
      <trkpt lat="49.87414" lon="4.80383">
        <ele>186</ele>
        <time>2021-08-14T09:35:24.000Z</time>
      </trkpt>
      <trkpt lat="49.87412" lon="4.8039">
        <ele>186</ele>
        <time>2021-08-14T09:35:25.000Z</time>
      </trkpt>
      <trkpt lat="49.8741" lon="4.80395">
        <ele>185</ele>
        <time>2021-08-14T09:35:26.000Z</time>
      </trkpt>
      <trkpt lat="49.87409" lon="4.80402">
        <ele>185</ele>
        <time>2021-08-14T09:35:27.000Z</time>
      </trkpt>
      <trkpt lat="49.87408" lon="4.80408">
        <ele>185</ele>
        <time>2021-08-14T09:35:28.000Z</time>
      </trkpt>
      <trkpt lat="49.87406" lon="4.80414">
        <ele>184</ele>
        <time>2021-08-14T09:35:29.000Z</time>
      </trkpt>
      <trkpt lat="49.87405" lon="4.80421">
        <ele>184</ele>
        <time>2021-08-14T09:35:30.000Z</time>
      </trkpt>
      <trkpt lat="49.87403" lon="4.80429">
        <ele>183</ele>
        <time>2021-08-14T09:35:31.000Z</time>
      </trkpt>
      <trkpt lat="49.87402" lon="4.80438">
        <ele>183</ele>
        <time>2021-08-14T09:35:32.000Z</time>
      </trkpt>
      <trkpt lat="49.87401" lon="4.80448">
        <ele>182</ele>
        <time>2021-08-14T09:35:33.000Z</time>
      </trkpt>
      <trkpt lat="49.874" lon="4.80459">
        <ele>181</ele>
        <time>2021-08-14T09:35:34.000Z</time>
      </trkpt>
      <trkpt lat="49.87399" lon="4.80469">
        <ele>180</ele>
        <time>2021-08-14T09:35:35.000Z</time>
      </trkpt>
      <trkpt lat="49.87397" lon="4.8048">
        <ele>180</ele>
        <time>2021-08-14T09:35:36.000Z</time>
      </trkpt>
      <trkpt lat="49.87395" lon="4.80489">
        <ele>179</ele>
        <time>2021-08-14T09:35:37.000Z</time>
      </trkpt>
      <trkpt lat="49.87393" lon="4.80498">
        <ele>178</ele>
        <time>2021-08-14T09:35:38.000Z</time>
      </trkpt>
      <trkpt lat="49.87391" lon="4.80506">
        <ele>178</ele>
        <time>2021-08-14T09:35:39.000Z</time>
      </trkpt>
      <trkpt lat="49.87389" lon="4.80514">
        <ele>177</ele>
        <time>2021-08-14T09:35:40.000Z</time>
      </trkpt>
      <trkpt lat="49.87387" lon="4.80522">
        <ele>176</ele>
        <time>2021-08-14T09:35:41.000Z</time>
      </trkpt>
      <trkpt lat="49.87385" lon="4.80531">
        <ele>175</ele>
        <time>2021-08-14T09:35:42.000Z</time>
      </trkpt>
      <trkpt lat="49.87383" lon="4.8054">
        <ele>175</ele>
        <time>2021-08-14T09:35:43.000Z</time>
      </trkpt>
      <trkpt lat="49.87382" lon="4.80549">
        <ele>174</ele>
        <time>2021-08-14T09:35:44.000Z</time>
      </trkpt>
      <trkpt lat="49.87381" lon="4.80558">
        <ele>173</ele>
        <time>2021-08-14T09:35:45.000Z</time>
      </trkpt>
      <trkpt lat="49.87379" lon="4.80568">
        <ele>172</ele>
        <time>2021-08-14T09:35:46.000Z</time>
      </trkpt>
      <trkpt lat="49.87378" lon="4.80577">
        <ele>172</ele>
        <time>2021-08-14T09:35:47.000Z</time>
      </trkpt>
      <trkpt lat="49.87377" lon="4.80587">
        <ele>171</ele>
        <time>2021-08-14T09:35:48.000Z</time>
      </trkpt>
      <trkpt lat="49.87376" lon="4.80596">
        <ele>170</ele>
        <time>2021-08-14T09:35:49.000Z</time>
      </trkpt>
      <trkpt lat="49.87374" lon="4.80605">
        <ele>170</ele>
        <time>2021-08-14T09:35:50.000Z</time>
      </trkpt>
      <trkpt lat="49.87373" lon="4.80615">
        <ele>169</ele>
        <time>2021-08-14T09:35:51.000Z</time>
      </trkpt>
      <trkpt lat="49.87372" lon="4.80624">
        <ele>168</ele>
        <time>2021-08-14T09:35:52.000Z</time>
      </trkpt>
      <trkpt lat="49.8737" lon="4.80633">
        <ele>168</ele>
        <time>2021-08-14T09:35:53.000Z</time>
      </trkpt>
      <trkpt lat="49.87369" lon="4.80642">
        <ele>167</ele>
        <time>2021-08-14T09:35:54.000Z</time>
      </trkpt>
      <trkpt lat="49.87368" lon="4.80651">
        <ele>167</ele>
        <time>2021-08-14T09:35:55.000Z</time>
      </trkpt>
      <trkpt lat="49.87366" lon="4.80659">
        <ele>167</ele>
        <time>2021-08-14T09:35:56.000Z</time>
      </trkpt>
      <trkpt lat="49.87364" lon="4.80668">
        <ele>166</ele>
        <time>2021-08-14T09:35:57.000Z</time>
      </trkpt>
      <trkpt lat="49.87363" lon="4.80677">
        <ele>166</ele>
        <time>2021-08-14T09:35:58.000Z</time>
      </trkpt>
      <trkpt lat="49.87361" lon="4.80685">
        <ele>165</ele>
        <time>2021-08-14T09:35:59.000Z</time>
      </trkpt>
      <trkpt lat="49.87359" lon="4.80694">
        <ele>165</ele>
        <time>2021-08-14T09:36:00.000Z</time>
      </trkpt>
      <trkpt lat="49.87357" lon="4.80703">
        <ele>164</ele>
        <time>2021-08-14T09:36:01.000Z</time>
      </trkpt>
      <trkpt lat="49.87356" lon="4.80711">
        <ele>164</ele>
        <time>2021-08-14T09:36:02.000Z</time>
      </trkpt>
      <trkpt lat="49.87355" lon="4.8072">
        <ele>163</ele>
        <time>2021-08-14T09:36:03.000Z</time>
      </trkpt>
      <trkpt lat="49.87354" lon="4.80729">
        <ele>163</ele>
        <time>2021-08-14T09:36:04.000Z</time>
      </trkpt>
      <trkpt lat="49.87355" lon="4.80737">
        <ele>163</ele>
        <time>2021-08-14T09:36:05.000Z</time>
      </trkpt>
      <trkpt lat="49.87357" lon="4.80745">
        <ele>162</ele>
        <time>2021-08-14T09:36:06.000Z</time>
      </trkpt>
      <trkpt lat="49.87358" lon="4.80752">
        <ele>162</ele>
        <time>2021-08-14T09:36:07.000Z</time>
      </trkpt>
      <trkpt lat="49.8736" lon="4.80759">
        <ele>162</ele>
        <time>2021-08-14T09:36:08.000Z</time>
      </trkpt>
      <trkpt lat="49.87361" lon="4.80766">
        <ele>161</ele>
        <time>2021-08-14T09:36:09.000Z</time>
      </trkpt>
      <trkpt lat="49.87362" lon="4.80774">
        <ele>161</ele>
        <time>2021-08-14T09:36:10.000Z</time>
      </trkpt>
      <trkpt lat="49.87363" lon="4.80781">
        <ele>161</ele>
        <time>2021-08-14T09:36:11.000Z</time>
      </trkpt>
      <trkpt lat="49.87363" lon="4.80789">
        <ele>161</ele>
        <time>2021-08-14T09:36:12.000Z</time>
      </trkpt>
      <trkpt lat="49.87362" lon="4.80797">
        <ele>160</ele>
        <time>2021-08-14T09:36:13.000Z</time>
      </trkpt>
      <trkpt lat="49.87362" lon="4.80804">
        <ele>160</ele>
        <time>2021-08-14T09:36:14.000Z</time>
      </trkpt>
      <trkpt lat="49.87362" lon="4.80812">
        <ele>160</ele>
        <time>2021-08-14T09:36:15.000Z</time>
      </trkpt>
      <trkpt lat="49.8736" lon="4.80818">
        <ele>160</ele>
        <time>2021-08-14T09:36:16.000Z</time>
      </trkpt>
      <trkpt lat="49.87356" lon="4.80822">
        <ele>160</ele>
        <time>2021-08-14T09:36:17.000Z</time>
      </trkpt>
      <trkpt lat="49.87352" lon="4.80823">
        <ele>159</ele>
        <time>2021-08-14T09:36:18.000Z</time>
      </trkpt>
      <trkpt lat="49.8735" lon="4.80825">
        <ele>159</ele>
        <time>2021-08-14T09:36:19.000Z</time>
      </trkpt>
      <trkpt lat="49.87349" lon="4.80828">
        <ele>159</ele>
        <time>2021-08-14T09:36:20.000Z</time>
      </trkpt>
      <trkpt lat="49.87349" lon="4.8083">
        <ele>159</ele>
        <time>2021-08-14T09:36:21.000Z</time>
      </trkpt>
      <trkpt lat="49.87351" lon="4.80831">
        <ele>159</ele>
        <time>2021-08-14T09:36:22.000Z</time>
      </trkpt>
      <trkpt lat="49.87355" lon="4.80831">
        <ele>158</ele>
        <time>2021-08-14T09:36:23.000Z</time>
      </trkpt>
      <trkpt lat="49.87359" lon="4.80831">
        <ele>158</ele>
        <time>2021-08-14T09:36:24.000Z</time>
      </trkpt>
      <trkpt lat="49.87364" lon="4.80831">
        <ele>158</ele>
        <time>2021-08-14T09:36:25.000Z</time>
      </trkpt>
      <trkpt lat="49.87369" lon="4.80831">
        <ele>158</ele>
        <time>2021-08-14T09:36:26.000Z</time>
      </trkpt>
      <trkpt lat="49.87373" lon="4.8083">
        <ele>158</ele>
        <time>2021-08-14T09:36:27.000Z</time>
      </trkpt>
      <trkpt lat="49.87377" lon="4.80831">
        <ele>158</ele>
        <time>2021-08-14T09:36:28.000Z</time>
      </trkpt>
      <trkpt lat="49.87381" lon="4.80831">
        <ele>158</ele>
        <time>2021-08-14T09:36:29.000Z</time>
      </trkpt>
      <trkpt lat="49.87386" lon="4.8083">
        <ele>158</ele>
        <time>2021-08-14T09:36:30.000Z</time>
      </trkpt>
      <trkpt lat="49.8739" lon="4.80831">
        <ele>158</ele>
        <time>2021-08-14T09:36:31.000Z</time>
      </trkpt>
      <trkpt lat="49.87394" lon="4.80831">
        <ele>157</ele>
        <time>2021-08-14T09:36:32.000Z</time>
      </trkpt>
      <trkpt lat="49.87399" lon="4.80831">
        <ele>157</ele>
        <time>2021-08-14T09:36:33.000Z</time>
      </trkpt>
      <trkpt lat="49.87404" lon="4.80831">
        <ele>157</ele>
        <time>2021-08-14T09:36:34.000Z</time>
      </trkpt>
      <trkpt lat="49.87409" lon="4.80831">
        <ele>157</ele>
        <time>2021-08-14T09:36:35.000Z</time>
      </trkpt>
      <trkpt lat="49.87413" lon="4.80831">
        <ele>157</ele>
        <time>2021-08-14T09:36:36.000Z</time>
      </trkpt>
      <trkpt lat="49.87418" lon="4.80831">
        <ele>157</ele>
        <time>2021-08-14T09:36:37.000Z</time>
      </trkpt>
      <trkpt lat="49.87423" lon="4.80831">
        <ele>157</ele>
        <time>2021-08-14T09:36:38.000Z</time>
      </trkpt>
      <trkpt lat="49.87427" lon="4.80832">
        <ele>157</ele>
        <time>2021-08-14T09:36:39.000Z</time>
      </trkpt>
      <trkpt lat="49.87432" lon="4.80832">
        <ele>157</ele>
        <time>2021-08-14T09:36:40.000Z</time>
      </trkpt>
      <trkpt lat="49.87436" lon="4.80833">
        <ele>157</ele>
        <time>2021-08-14T09:36:41.000Z</time>
      </trkpt>
      <trkpt lat="49.8744" lon="4.80833">
        <ele>157</ele>
        <time>2021-08-14T09:36:42.000Z</time>
      </trkpt>
      <trkpt lat="49.87444" lon="4.80833">
        <ele>156</ele>
        <time>2021-08-14T09:36:43.000Z</time>
      </trkpt>
      <trkpt lat="49.87446" lon="4.80835">
        <ele>156</ele>
        <time>2021-08-14T09:36:44.000Z</time>
      </trkpt>
      <trkpt lat="49.87449" lon="4.80836">
        <ele>156</ele>
        <time>2021-08-14T09:36:45.000Z</time>
      </trkpt>
      <trkpt lat="49.87453" lon="4.80836">
        <ele>156</ele>
        <time>2021-08-14T09:36:46.000Z</time>
      </trkpt>
      <trkpt lat="49.87456" lon="4.80836">
        <ele>156</ele>
        <time>2021-08-14T09:36:47.000Z</time>
      </trkpt>
      <trkpt lat="49.8746" lon="4.80835">
        <ele>156</ele>
        <time>2021-08-14T09:36:48.000Z</time>
      </trkpt>
      <trkpt lat="49.87464" lon="4.80835">
        <ele>156</ele>
        <time>2021-08-14T09:36:49.000Z</time>
      </trkpt>
      <trkpt lat="49.87468" lon="4.80835">
        <ele>156</ele>
        <time>2021-08-14T09:36:50.000Z</time>
      </trkpt>
      <trkpt lat="49.87472" lon="4.80834">
        <ele>156</ele>
        <time>2021-08-14T09:36:51.000Z</time>
      </trkpt>
      <trkpt lat="49.87476" lon="4.80833">
        <ele>156</ele>
        <time>2021-08-14T09:36:52.000Z</time>
      </trkpt>
      <trkpt lat="49.8748" lon="4.80833">
        <ele>156</ele>
        <time>2021-08-14T09:36:53.000Z</time>
      </trkpt>
      <trkpt lat="49.87483" lon="4.80833">
        <ele>156</ele>
        <time>2021-08-14T09:36:54.000Z</time>
      </trkpt>
      <trkpt lat="49.87487" lon="4.80833">
        <ele>156</ele>
        <time>2021-08-14T09:36:55.000Z</time>
      </trkpt>
      <trkpt lat="49.8749" lon="4.80835">
        <ele>156</ele>
        <time>2021-08-14T09:36:56.000Z</time>
      </trkpt>
      <trkpt lat="49.87493" lon="4.80836">
        <ele>156</ele>
        <time>2021-08-14T09:36:57.000Z</time>
      </trkpt>
      <trkpt lat="49.87496" lon="4.80838">
        <ele>156</ele>
        <time>2021-08-14T09:36:58.000Z</time>
      </trkpt>
      <trkpt lat="49.87499" lon="4.80839">
        <ele>156</ele>
        <time>2021-08-14T09:36:59.000Z</time>
      </trkpt>
      <trkpt lat="49.87502" lon="4.80841">
        <ele>156</ele>
        <time>2021-08-14T09:37:00.000Z</time>
      </trkpt>
      <trkpt lat="49.87505" lon="4.80844">
        <ele>156</ele>
        <time>2021-08-14T09:37:01.000Z</time>
      </trkpt>
      <trkpt lat="49.87506" lon="4.80847">
        <ele>156</ele>
        <time>2021-08-14T09:37:02.000Z</time>
      </trkpt>
      <trkpt lat="49.87506" lon="4.80851">
        <ele>155</ele>
        <time>2021-08-14T09:37:03.000Z</time>
      </trkpt>
      <trkpt lat="49.87503" lon="4.80851">
        <ele>155</ele>
        <time>2021-08-14T09:37:04.000Z</time>
      </trkpt>
      <trkpt lat="49.87501" lon="4.80849">
        <ele>155</ele>
        <time>2021-08-14T09:37:05.000Z</time>
      </trkpt>
      <trkpt lat="49.87498" lon="4.80846">
        <ele>155</ele>
        <time>2021-08-14T09:37:06.000Z</time>
      </trkpt>
      <trkpt lat="49.87495" lon="4.80842">
        <ele>155</ele>
        <time>2021-08-14T09:37:07.000Z</time>
      </trkpt>
      <trkpt lat="49.87492" lon="4.8084">
        <ele>155</ele>
        <time>2021-08-14T09:37:08.000Z</time>
      </trkpt>
      <trkpt lat="49.87488" lon="4.80838">
        <ele>155</ele>
        <time>2021-08-14T09:37:09.000Z</time>
      </trkpt>
      <trkpt lat="49.87484" lon="4.80836">
        <ele>155</ele>
        <time>2021-08-14T09:37:10.000Z</time>
      </trkpt>
      <trkpt lat="49.8748" lon="4.80835">
        <ele>155</ele>
        <time>2021-08-14T09:37:11.000Z</time>
      </trkpt>
      <trkpt lat="49.87475" lon="4.80834">
        <ele>155</ele>
        <time>2021-08-14T09:37:12.000Z</time>
      </trkpt>
      <trkpt lat="49.87471" lon="4.80834">
        <ele>155</ele>
        <time>2021-08-14T09:37:13.000Z</time>
      </trkpt>
      <trkpt lat="49.87466" lon="4.80833">
        <ele>155</ele>
        <time>2021-08-14T09:37:14.000Z</time>
      </trkpt>
      <trkpt lat="49.87461" lon="4.80833">
        <ele>155</ele>
        <time>2021-08-14T09:37:15.000Z</time>
      </trkpt>
      <trkpt lat="49.87457" lon="4.80833">
        <ele>154</ele>
        <time>2021-08-14T09:37:16.000Z</time>
      </trkpt>
      <trkpt lat="49.87452" lon="4.80832">
        <ele>154</ele>
        <time>2021-08-14T09:37:17.000Z</time>
      </trkpt>
      <trkpt lat="49.87448" lon="4.80832">
        <ele>154</ele>
        <time>2021-08-14T09:37:18.000Z</time>
      </trkpt>
      <trkpt lat="49.87443" lon="4.80832">
        <ele>154</ele>
        <time>2021-08-14T09:37:19.000Z</time>
      </trkpt>
      <trkpt lat="49.87439" lon="4.80832">
        <ele>154</ele>
        <time>2021-08-14T09:37:20.000Z</time>
      </trkpt>
      <trkpt lat="49.87435" lon="4.80831">
        <ele>154</ele>
        <time>2021-08-14T09:37:21.000Z</time>
      </trkpt>
      <trkpt lat="49.87431" lon="4.80831">
        <ele>154</ele>
        <time>2021-08-14T09:37:22.000Z</time>
      </trkpt>
      <trkpt lat="49.87427" lon="4.80831">
        <ele>154</ele>
        <time>2021-08-14T09:37:23.000Z</time>
      </trkpt>
      <trkpt lat="49.87423" lon="4.80831">
        <ele>154</ele>
        <time>2021-08-14T09:37:24.000Z</time>
      </trkpt>
      <trkpt lat="49.87419" lon="4.80831">
        <ele>154</ele>
        <time>2021-08-14T09:37:25.000Z</time>
      </trkpt>
      <trkpt lat="49.87416" lon="4.80831">
        <ele>154</ele>
        <time>2021-08-14T09:37:26.000Z</time>
      </trkpt>
      <trkpt lat="49.87412" lon="4.80831">
        <ele>154</ele>
        <time>2021-08-14T09:37:27.000Z</time>
      </trkpt>
      <trkpt lat="49.87408" lon="4.8083">
        <ele>154</ele>
        <time>2021-08-14T09:37:28.000Z</time>
      </trkpt>
      <trkpt lat="49.87405" lon="4.8083">
        <ele>154</ele>
        <time>2021-08-14T09:37:29.000Z</time>
      </trkpt>
      <trkpt lat="49.87401" lon="4.8083">
        <ele>154</ele>
        <time>2021-08-14T09:37:30.000Z</time>
      </trkpt>
      <trkpt lat="49.87398" lon="4.8083">
        <ele>154</ele>
        <time>2021-08-14T09:37:31.000Z</time>
      </trkpt>
      <trkpt lat="49.87395" lon="4.80831">
        <ele>154</ele>
        <time>2021-08-14T09:37:32.000Z</time>
      </trkpt>
      <trkpt lat="49.87395" lon="4.80835">
        <ele>154</ele>
        <time>2021-08-14T09:37:33.000Z</time>
      </trkpt>
      <trkpt lat="49.87396" lon="4.80839">
        <ele>154</ele>
        <time>2021-08-14T09:37:34.000Z</time>
      </trkpt>
      <trkpt lat="49.87397" lon="4.80844">
        <ele>155</ele>
        <time>2021-08-14T09:37:35.000Z</time>
      </trkpt>
      <trkpt lat="49.87398" lon="4.80847">
        <ele>155</ele>
        <time>2021-08-14T09:37:36.000Z</time>
      </trkpt>
      <trkpt lat="49.87399" lon="4.80851">
        <ele>155</ele>
        <time>2021-08-14T09:37:37.000Z</time>
      </trkpt>
      <trkpt lat="49.87399" lon="4.80854">
        <ele>155</ele>
        <time>2021-08-14T09:37:38.000Z</time>
      </trkpt>
      <trkpt lat="49.87399" lon="4.80859">
        <ele>155</ele>
        <time>2021-08-14T09:37:39.000Z</time>
      </trkpt>
      <trkpt lat="49.87399" lon="4.80863">
        <ele>155</ele>
        <time>2021-08-14T09:37:40.000Z</time>
      </trkpt>
      <trkpt lat="49.87398" lon="4.80866">
        <ele>155</ele>
        <time>2021-08-14T09:37:41.000Z</time>
      </trkpt>
      <trkpt lat="49.87398" lon="4.80873">
        <ele>155</ele>
        <time>2021-08-14T09:37:42.000Z</time>
      </trkpt>
      <trkpt lat="49.87397" lon="4.8088">
        <ele>155</ele>
        <time>2021-08-14T09:37:43.000Z</time>
      </trkpt>
      <trkpt lat="49.87396" lon="4.80888">
        <ele>155</ele>
        <time>2021-08-14T09:37:44.000Z</time>
      </trkpt>
      <trkpt lat="49.87395" lon="4.80895">
        <ele>155</ele>
        <time>2021-08-14T09:37:45.000Z</time>
      </trkpt>
      <trkpt lat="49.87394" lon="4.80903">
        <ele>155</ele>
        <time>2021-08-14T09:37:46.000Z</time>
      </trkpt>
      <trkpt lat="49.87394" lon="4.80911">
        <ele>155</ele>
        <time>2021-08-14T09:37:47.000Z</time>
      </trkpt>
      <trkpt lat="49.87393" lon="4.80919">
        <ele>155</ele>
        <time>2021-08-14T09:37:48.000Z</time>
      </trkpt>
      <trkpt lat="49.87391" lon="4.80927">
        <ele>155</ele>
        <time>2021-08-14T09:37:49.000Z</time>
      </trkpt>
      <trkpt lat="49.8739" lon="4.80935">
        <ele>155</ele>
        <time>2021-08-14T09:37:50.000Z</time>
      </trkpt>
      <trkpt lat="49.87388" lon="4.80942">
        <ele>155</ele>
        <time>2021-08-14T09:37:51.000Z</time>
      </trkpt>
      <trkpt lat="49.87387" lon="4.80949">
        <ele>155</ele>
        <time>2021-08-14T09:37:52.000Z</time>
      </trkpt>
      <trkpt lat="49.87386" lon="4.80954">
        <ele>155</ele>
        <time>2021-08-14T09:37:53.000Z</time>
      </trkpt>
      <trkpt lat="49.87385" lon="4.8096">
        <ele>155</ele>
        <time>2021-08-14T09:37:54.000Z</time>
      </trkpt>
      <trkpt lat="49.87385" lon="4.80965">
        <ele>155</ele>
        <time>2021-08-14T09:37:55.000Z</time>
      </trkpt>
      <trkpt lat="49.87384" lon="4.8097">
        <ele>155</ele>
        <time>2021-08-14T09:37:56.000Z</time>
      </trkpt>
      <trkpt lat="49.87384" lon="4.80974">
        <ele>155</ele>
        <time>2021-08-14T09:37:57.000Z</time>
      </trkpt>
      <trkpt lat="49.87385" lon="4.80977">
        <ele>155</ele>
        <time>2021-08-14T09:37:58.000Z</time>
      </trkpt>
      <trkpt lat="49.87386" lon="4.80981">
        <ele>155</ele>
        <time>2021-08-14T09:37:59.000Z</time>
      </trkpt>
      <trkpt lat="49.87388" lon="4.80985">
        <ele>155</ele>
        <time>2021-08-14T09:38:00.000Z</time>
      </trkpt>
      <trkpt lat="49.87389" lon="4.80989">
        <ele>155</ele>
        <time>2021-08-14T09:38:01.000Z</time>
      </trkpt>
      <trkpt lat="49.87389" lon="4.80992">
        <ele>155</ele>
        <time>2021-08-14T09:38:02.000Z</time>
      </trkpt>
      <trkpt lat="49.87389" lon="4.80995">
        <ele>155</ele>
        <time>2021-08-14T09:38:03.000Z</time>
      </trkpt>
      <trkpt lat="49.87386" lon="4.80996">
        <ele>155</ele>
        <time>2021-08-14T09:38:04.000Z</time>
      </trkpt>
      <trkpt lat="49.87383" lon="4.80997">
        <ele>154</ele>
        <time>2021-08-14T09:38:05.000Z</time>
      </trkpt>
      <trkpt lat="49.87379" lon="4.80999">
        <ele>154</ele>
        <time>2021-08-14T09:38:06.000Z</time>
      </trkpt>
      <trkpt lat="49.87376" lon="4.81">
        <ele>154</ele>
        <time>2021-08-14T09:38:07.000Z</time>
      </trkpt>
      <trkpt lat="49.87372" lon="4.81001">
        <ele>154</ele>
        <time>2021-08-14T09:38:08.000Z</time>
      </trkpt>
      <trkpt lat="49.87369" lon="4.81002">
        <ele>154</ele>
        <time>2021-08-14T09:38:09.000Z</time>
      </trkpt>
      <trkpt lat="49.87365" lon="4.81003">
        <ele>154</ele>
        <time>2021-08-14T09:38:10.000Z</time>
      </trkpt>
      <trkpt lat="49.87361" lon="4.81004">
        <ele>154</ele>
        <time>2021-08-14T09:38:11.000Z</time>
      </trkpt>
      <trkpt lat="49.87357" lon="4.81005">
        <ele>154</ele>
        <time>2021-08-14T09:38:12.000Z</time>
      </trkpt>
      <trkpt lat="49.87352" lon="4.81006">
        <ele>153</ele>
        <time>2021-08-14T09:38:13.000Z</time>
      </trkpt>
      <trkpt lat="49.87348" lon="4.81007">
        <ele>153</ele>
        <time>2021-08-14T09:38:14.000Z</time>
      </trkpt>
      <trkpt lat="49.87344" lon="4.81008">
        <ele>153</ele>
        <time>2021-08-14T09:38:15.000Z</time>
      </trkpt>
      <trkpt lat="49.87339" lon="4.81009">
        <ele>153</ele>
        <time>2021-08-14T09:38:16.000Z</time>
      </trkpt>
      <trkpt lat="49.87335" lon="4.8101">
        <ele>153</ele>
        <time>2021-08-14T09:38:17.000Z</time>
      </trkpt>
      <trkpt lat="49.87331" lon="4.81011">
        <ele>153</ele>
        <time>2021-08-14T09:38:18.000Z</time>
      </trkpt>
      <trkpt lat="49.87326" lon="4.81011">
        <ele>153</ele>
        <time>2021-08-14T09:38:19.000Z</time>
      </trkpt>
      <trkpt lat="49.87322" lon="4.81011">
        <ele>153</ele>
        <time>2021-08-14T09:38:20.000Z</time>
      </trkpt>
      <trkpt lat="49.87318" lon="4.8101">
        <ele>152</ele>
        <time>2021-08-14T09:38:21.000Z</time>
      </trkpt>
      <trkpt lat="49.87316" lon="4.81007">
        <ele>152</ele>
        <time>2021-08-14T09:38:22.000Z</time>
      </trkpt>
      <trkpt lat="49.87315" lon="4.81002">
        <ele>152</ele>
        <time>2021-08-14T09:38:23.000Z</time>
      </trkpt>
      <trkpt lat="49.87315" lon="4.80997">
        <ele>152</ele>
        <time>2021-08-14T09:38:24.000Z</time>
      </trkpt>
      <trkpt lat="49.87315" lon="4.80992">
        <ele>152</ele>
        <time>2021-08-14T09:38:25.000Z</time>
      </trkpt>
      <trkpt lat="49.87315" lon="4.80987">
        <ele>152</ele>
        <time>2021-08-14T09:38:26.000Z</time>
      </trkpt>
      <trkpt lat="49.87315" lon="4.80982">
        <ele>152</ele>
        <time>2021-08-14T09:38:27.000Z</time>
      </trkpt>
      <trkpt lat="49.87316" lon="4.80976">
        <ele>153</ele>
        <time>2021-08-14T09:38:28.000Z</time>
      </trkpt>
      <trkpt lat="49.87316" lon="4.80971">
        <ele>153</ele>
        <time>2021-08-14T09:38:29.000Z</time>
      </trkpt>
      <trkpt lat="49.87317" lon="4.80966">
        <ele>153</ele>
        <time>2021-08-14T09:38:30.000Z</time>
      </trkpt>
      <trkpt lat="49.87317" lon="4.80961">
        <ele>153</ele>
        <time>2021-08-14T09:38:31.000Z</time>
      </trkpt>
      <trkpt lat="49.87317" lon="4.80956">
        <ele>153</ele>
        <time>2021-08-14T09:38:32.000Z</time>
      </trkpt>
      <trkpt lat="49.87317" lon="4.80952">
        <ele>153</ele>
        <time>2021-08-14T09:38:33.000Z</time>
      </trkpt>
      <trkpt lat="49.87317" lon="4.80949">
        <ele>153</ele>
        <time>2021-08-14T09:38:34.000Z</time>
      </trkpt>
      <trkpt lat="49.87319" lon="4.80947">
        <ele>154</ele>
        <time>2021-08-14T09:38:35.000Z</time>
      </trkpt>
      <trkpt lat="49.8732" lon="4.80949">
        <ele>154</ele>
        <time>2021-08-14T09:38:36.000Z</time>
      </trkpt>
      <trkpt lat="49.87321" lon="4.80953">
        <ele>154</ele>
        <time>2021-08-14T09:38:37.000Z</time>
      </trkpt>
      <trkpt lat="49.87321" lon="4.80957">
        <ele>154</ele>
        <time>2021-08-14T09:38:38.000Z</time>
      </trkpt>
      <trkpt lat="49.87322" lon="4.80962">
        <ele>154</ele>
        <time>2021-08-14T09:38:39.000Z</time>
      </trkpt>
      <trkpt lat="49.87322" lon="4.80968">
        <ele>154</ele>
        <time>2021-08-14T09:38:40.000Z</time>
      </trkpt>
      <trkpt lat="49.87322" lon="4.80973">
        <ele>154</ele>
        <time>2021-08-14T09:38:41.000Z</time>
      </trkpt>
      <trkpt lat="49.87322" lon="4.80979">
        <ele>155</ele>
        <time>2021-08-14T09:38:42.000Z</time>
      </trkpt>
      <trkpt lat="49.87322" lon="4.80984">
        <ele>155</ele>
        <time>2021-08-14T09:38:43.000Z</time>
      </trkpt>
      <trkpt lat="49.87322" lon="4.80989">
        <ele>155</ele>
        <time>2021-08-14T09:38:44.000Z</time>
      </trkpt>
      <trkpt lat="49.87322" lon="4.80995">
        <ele>155</ele>
        <time>2021-08-14T09:38:45.000Z</time>
      </trkpt>
      <trkpt lat="49.87322" lon="4.81001">
        <ele>155</ele>
        <time>2021-08-14T09:38:46.000Z</time>
      </trkpt>
      <trkpt lat="49.87322" lon="4.81007">
        <ele>155</ele>
        <time>2021-08-14T09:38:47.000Z</time>
      </trkpt>
      <trkpt lat="49.87322" lon="4.81013">
        <ele>156</ele>
        <time>2021-08-14T09:38:48.000Z</time>
      </trkpt>
      <trkpt lat="49.87322" lon="4.81019">
        <ele>156</ele>
        <time>2021-08-14T09:38:49.000Z</time>
      </trkpt>
      <trkpt lat="49.87322" lon="4.81026">
        <ele>156</ele>
        <time>2021-08-14T09:38:50.000Z</time>
      </trkpt>
      <trkpt lat="49.87322" lon="4.81032">
        <ele>156</ele>
        <time>2021-08-14T09:38:51.000Z</time>
      </trkpt>
      <trkpt lat="49.87322" lon="4.81039">
        <ele>156</ele>
        <time>2021-08-14T09:38:52.000Z</time>
      </trkpt>
      <trkpt lat="49.87323" lon="4.81046">
        <ele>156</ele>
        <time>2021-08-14T09:38:53.000Z</time>
      </trkpt>
      <trkpt lat="49.87323" lon="4.81052">
        <ele>156</ele>
        <time>2021-08-14T09:38:54.000Z</time>
      </trkpt>
      <trkpt lat="49.87323" lon="4.81059">
        <ele>156</ele>
        <time>2021-08-14T09:38:55.000Z</time>
      </trkpt>
      <trkpt lat="49.87323" lon="4.81066">
        <ele>156</ele>
        <time>2021-08-14T09:38:56.000Z</time>
      </trkpt>
      <trkpt lat="49.87323" lon="4.81074">
        <ele>156</ele>
        <time>2021-08-14T09:38:57.000Z</time>
      </trkpt>
      <trkpt lat="49.87324" lon="4.81081">
        <ele>156</ele>
        <time>2021-08-14T09:38:58.000Z</time>
      </trkpt>
      <trkpt lat="49.87324" lon="4.81089">
        <ele>156</ele>
        <time>2021-08-14T09:38:59.000Z</time>
      </trkpt>
      <trkpt lat="49.87324" lon="4.81096">
        <ele>156</ele>
        <time>2021-08-14T09:39:00.000Z</time>
      </trkpt>
      <trkpt lat="49.87325" lon="4.81104">
        <ele>156</ele>
        <time>2021-08-14T09:39:01.000Z</time>
      </trkpt>
      <trkpt lat="49.87327" lon="4.81111">
        <ele>156</ele>
        <time>2021-08-14T09:39:02.000Z</time>
      </trkpt>
      <trkpt lat="49.87329" lon="4.81116">
        <ele>156</ele>
        <time>2021-08-14T09:39:03.000Z</time>
      </trkpt>
      <trkpt lat="49.87333" lon="4.8112">
        <ele>156</ele>
        <time>2021-08-14T09:39:04.000Z</time>
      </trkpt>
      <trkpt lat="49.87336" lon="4.81123">
        <ele>156</ele>
        <time>2021-08-14T09:39:05.000Z</time>
      </trkpt>
      <trkpt lat="49.8734" lon="4.81123">
        <ele>157</ele>
        <time>2021-08-14T09:39:06.000Z</time>
      </trkpt>
      <trkpt lat="49.87344" lon="4.81124">
        <ele>157</ele>
        <time>2021-08-14T09:39:07.000Z</time>
      </trkpt>
      <trkpt lat="49.87348" lon="4.81124">
        <ele>157</ele>
        <time>2021-08-14T09:39:08.000Z</time>
      </trkpt>
      <trkpt lat="49.87351" lon="4.81124">
        <ele>157</ele>
        <time>2021-08-14T09:39:09.000Z</time>
      </trkpt>
      <trkpt lat="49.87354" lon="4.81123">
        <ele>158</ele>
        <time>2021-08-14T09:39:10.000Z</time>
      </trkpt>
      <trkpt lat="49.87357" lon="4.81123">
        <ele>158</ele>
        <time>2021-08-14T09:39:11.000Z</time>
      </trkpt>
      <trkpt lat="49.8736" lon="4.81123">
        <ele>158</ele>
        <time>2021-08-14T09:39:12.000Z</time>
      </trkpt>
      <trkpt lat="49.87364" lon="4.81123">
        <ele>159</ele>
        <time>2021-08-14T09:39:13.000Z</time>
      </trkpt>
      <trkpt lat="49.87367" lon="4.81123">
        <ele>159</ele>
        <time>2021-08-14T09:39:14.000Z</time>
      </trkpt>
      <trkpt lat="49.8737" lon="4.81123">
        <ele>159</ele>
        <time>2021-08-14T09:39:15.000Z</time>
      </trkpt>
      <trkpt lat="49.87374" lon="4.81123">
        <ele>160</ele>
        <time>2021-08-14T09:39:16.000Z</time>
      </trkpt>
      <trkpt lat="49.87377" lon="4.81123">
        <ele>160</ele>
        <time>2021-08-14T09:39:17.000Z</time>
      </trkpt>
      <trkpt lat="49.8738" lon="4.81124">
        <ele>160</ele>
        <time>2021-08-14T09:39:18.000Z</time>
      </trkpt>
      <trkpt lat="49.87383" lon="4.81125">
        <ele>160</ele>
        <time>2021-08-14T09:39:19.000Z</time>
      </trkpt>
      <trkpt lat="49.87386" lon="4.81126">
        <ele>161</ele>
        <time>2021-08-14T09:39:20.000Z</time>
      </trkpt>
      <trkpt lat="49.87389" lon="4.81127">
        <ele>161</ele>
        <time>2021-08-14T09:39:21.000Z</time>
      </trkpt>
      <trkpt lat="49.87392" lon="4.81129">
        <ele>161</ele>
        <time>2021-08-14T09:39:22.000Z</time>
      </trkpt>
      <trkpt lat="49.87395" lon="4.81131">
        <ele>162</ele>
        <time>2021-08-14T09:39:23.000Z</time>
      </trkpt>
      <trkpt lat="49.87398" lon="4.81132">
        <ele>162</ele>
        <time>2021-08-14T09:39:24.000Z</time>
      </trkpt>
      <trkpt lat="49.874" lon="4.81134">
        <ele>162</ele>
        <time>2021-08-14T09:39:25.000Z</time>
      </trkpt>
      <trkpt lat="49.87403" lon="4.81135">
        <ele>162</ele>
        <time>2021-08-14T09:39:26.000Z</time>
      </trkpt>
      <trkpt lat="49.87406" lon="4.81137">
        <ele>163</ele>
        <time>2021-08-14T09:39:27.000Z</time>
      </trkpt>
      <trkpt lat="49.87408" lon="4.81138">
        <ele>163</ele>
        <time>2021-08-14T09:39:28.000Z</time>
      </trkpt>
      <trkpt lat="49.87411" lon="4.8114">
        <ele>163</ele>
        <time>2021-08-14T09:39:29.000Z</time>
      </trkpt>
      <trkpt lat="49.87414" lon="4.81142">
        <ele>163</ele>
        <time>2021-08-14T09:39:30.000Z</time>
      </trkpt>
      <trkpt lat="49.87416" lon="4.81143">
        <ele>164</ele>
        <time>2021-08-14T09:39:31.000Z</time>
      </trkpt>
      <trkpt lat="49.87419" lon="4.81145">
        <ele>164</ele>
        <time>2021-08-14T09:39:32.000Z</time>
      </trkpt>
      <trkpt lat="49.87422" lon="4.81147">
        <ele>164</ele>
        <time>2021-08-14T09:39:33.000Z</time>
      </trkpt>
      <trkpt lat="49.87425" lon="4.81149">
        <ele>164</ele>
        <time>2021-08-14T09:39:34.000Z</time>
      </trkpt>
      <trkpt lat="49.87428" lon="4.8115">
        <ele>165</ele>
        <time>2021-08-14T09:39:35.000Z</time>
      </trkpt>
      <trkpt lat="49.87431" lon="4.81152">
        <ele>165</ele>
        <time>2021-08-14T09:39:36.000Z</time>
      </trkpt>
      <trkpt lat="49.87434" lon="4.81154">
        <ele>165</ele>
        <time>2021-08-14T09:39:37.000Z</time>
      </trkpt>
      <trkpt lat="49.87437" lon="4.81156">
        <ele>165</ele>
        <time>2021-08-14T09:39:38.000Z</time>
      </trkpt>
      <trkpt lat="49.8744" lon="4.81157">
        <ele>166</ele>
        <time>2021-08-14T09:39:39.000Z</time>
      </trkpt>
      <trkpt lat="49.87442" lon="4.81159">
        <ele>166</ele>
        <time>2021-08-14T09:39:40.000Z</time>
      </trkpt>
      <trkpt lat="49.87445" lon="4.81162">
        <ele>166</ele>
        <time>2021-08-14T09:39:41.000Z</time>
      </trkpt>
      <trkpt lat="49.87448" lon="4.81164">
        <ele>166</ele>
        <time>2021-08-14T09:39:42.000Z</time>
      </trkpt>
      <trkpt lat="49.87451" lon="4.81165">
        <ele>166</ele>
        <time>2021-08-14T09:39:43.000Z</time>
      </trkpt>
      <trkpt lat="49.87454" lon="4.81167">
        <ele>167</ele>
        <time>2021-08-14T09:39:44.000Z</time>
      </trkpt>
      <trkpt lat="49.87457" lon="4.81169">
        <ele>167</ele>
        <time>2021-08-14T09:39:45.000Z</time>
      </trkpt>
      <trkpt lat="49.87459" lon="4.81171">
        <ele>167</ele>
        <time>2021-08-14T09:39:46.000Z</time>
      </trkpt>
      <trkpt lat="49.87462" lon="4.81174">
        <ele>167</ele>
        <time>2021-08-14T09:39:47.000Z</time>
      </trkpt>
      <trkpt lat="49.87465" lon="4.81176">
        <ele>167</ele>
        <time>2021-08-14T09:39:48.000Z</time>
      </trkpt>
      <trkpt lat="49.87467" lon="4.8118">
        <ele>168</ele>
        <time>2021-08-14T09:39:49.000Z</time>
      </trkpt>
      <trkpt lat="49.87469" lon="4.81183">
        <ele>168</ele>
        <time>2021-08-14T09:39:50.000Z</time>
      </trkpt>
      <trkpt lat="49.87471" lon="4.81186">
        <ele>168</ele>
        <time>2021-08-14T09:39:51.000Z</time>
      </trkpt>
      <trkpt lat="49.87472" lon="4.8119">
        <ele>168</ele>
        <time>2021-08-14T09:39:52.000Z</time>
      </trkpt>
      <trkpt lat="49.87473" lon="4.81195">
        <ele>169</ele>
        <time>2021-08-14T09:39:53.000Z</time>
      </trkpt>
      <trkpt lat="49.87473" lon="4.81199">
        <ele>169</ele>
        <time>2021-08-14T09:39:54.000Z</time>
      </trkpt>
      <trkpt lat="49.87474" lon="4.81204">
        <ele>169</ele>
        <time>2021-08-14T09:39:55.000Z</time>
      </trkpt>
      <trkpt lat="49.87473" lon="4.81209">
        <ele>169</ele>
        <time>2021-08-14T09:39:56.000Z</time>
      </trkpt>
      <trkpt lat="49.87473" lon="4.81213">
        <ele>170</ele>
        <time>2021-08-14T09:39:57.000Z</time>
      </trkpt>
      <trkpt lat="49.87471" lon="4.81218">
        <ele>170</ele>
        <time>2021-08-14T09:39:58.000Z</time>
      </trkpt>
      <trkpt lat="49.8747" lon="4.81221">
        <ele>170</ele>
        <time>2021-08-14T09:39:59.000Z</time>
      </trkpt>
      <trkpt lat="49.87468" lon="4.81225">
        <ele>170</ele>
        <time>2021-08-14T09:40:00.000Z</time>
      </trkpt>
      <trkpt lat="49.87466" lon="4.81228">
        <ele>171</ele>
        <time>2021-08-14T09:40:01.000Z</time>
      </trkpt>
      <trkpt lat="49.87463" lon="4.81231">
        <ele>171</ele>
        <time>2021-08-14T09:40:02.000Z</time>
      </trkpt>
      <trkpt lat="49.8746" lon="4.81234">
        <ele>171</ele>
        <time>2021-08-14T09:40:03.000Z</time>
      </trkpt>
      <trkpt lat="49.87457" lon="4.81235">
        <ele>171</ele>
        <time>2021-08-14T09:40:04.000Z</time>
      </trkpt>
      <trkpt lat="49.87454" lon="4.81236">
        <ele>171</ele>
        <time>2021-08-14T09:40:05.000Z</time>
      </trkpt>
      <trkpt lat="49.87451" lon="4.81237">
        <ele>172</ele>
        <time>2021-08-14T09:40:06.000Z</time>
      </trkpt>
      <trkpt lat="49.87448" lon="4.81238">
        <ele>172</ele>
        <time>2021-08-14T09:40:07.000Z</time>
      </trkpt>
      <trkpt lat="49.87445" lon="4.81239">
        <ele>172</ele>
        <time>2021-08-14T09:40:08.000Z</time>
      </trkpt>
      <trkpt lat="49.87442" lon="4.8124">
        <ele>172</ele>
        <time>2021-08-14T09:40:09.000Z</time>
      </trkpt>
      <trkpt lat="49.87438" lon="4.81241">
        <ele>172</ele>
        <time>2021-08-14T09:40:10.000Z</time>
      </trkpt>
      <trkpt lat="49.87435" lon="4.81241">
        <ele>173</ele>
        <time>2021-08-14T09:40:11.000Z</time>
      </trkpt>
      <trkpt lat="49.87432" lon="4.81242">
        <ele>173</ele>
        <time>2021-08-14T09:40:12.000Z</time>
      </trkpt>
      <trkpt lat="49.87428" lon="4.81243">
        <ele>173</ele>
        <time>2021-08-14T09:40:13.000Z</time>
      </trkpt>
      <trkpt lat="49.87425" lon="4.81244">
        <ele>173</ele>
        <time>2021-08-14T09:40:14.000Z</time>
      </trkpt>
      <trkpt lat="49.87422" lon="4.81245">
        <ele>173</ele>
        <time>2021-08-14T09:40:15.000Z</time>
      </trkpt>
      <trkpt lat="49.87419" lon="4.81246">
        <ele>174</ele>
        <time>2021-08-14T09:40:16.000Z</time>
      </trkpt>
      <trkpt lat="49.87415" lon="4.81246">
        <ele>174</ele>
        <time>2021-08-14T09:40:17.000Z</time>
      </trkpt>
      <trkpt lat="49.87412" lon="4.81247">
        <ele>174</ele>
        <time>2021-08-14T09:40:18.000Z</time>
      </trkpt>
      <trkpt lat="49.87409" lon="4.81248">
        <ele>174</ele>
        <time>2021-08-14T09:40:19.000Z</time>
      </trkpt>
      <trkpt lat="49.87406" lon="4.81249">
        <ele>174</ele>
        <time>2021-08-14T09:40:20.000Z</time>
      </trkpt>
      <trkpt lat="49.87402" lon="4.8125">
        <ele>174</ele>
        <time>2021-08-14T09:40:21.000Z</time>
      </trkpt>
      <trkpt lat="49.87399" lon="4.81251">
        <ele>175</ele>
        <time>2021-08-14T09:40:22.000Z</time>
      </trkpt>
      <trkpt lat="49.87396" lon="4.81252">
        <ele>175</ele>
        <time>2021-08-14T09:40:23.000Z</time>
      </trkpt>
      <trkpt lat="49.87393" lon="4.81253">
        <ele>175</ele>
        <time>2021-08-14T09:40:24.000Z</time>
      </trkpt>
      <trkpt lat="49.87389" lon="4.81255">
        <ele>175</ele>
        <time>2021-08-14T09:40:25.000Z</time>
      </trkpt>
      <trkpt lat="49.87386" lon="4.81256">
        <ele>175</ele>
        <time>2021-08-14T09:40:26.000Z</time>
      </trkpt>
      <trkpt lat="49.87383" lon="4.81257">
        <ele>176</ele>
        <time>2021-08-14T09:40:27.000Z</time>
      </trkpt>
      <trkpt lat="49.8738" lon="4.81259">
        <ele>176</ele>
        <time>2021-08-14T09:40:28.000Z</time>
      </trkpt>
      <trkpt lat="49.87377" lon="4.8126">
        <ele>176</ele>
        <time>2021-08-14T09:40:29.000Z</time>
      </trkpt>
      <trkpt lat="49.87374" lon="4.81261">
        <ele>176</ele>
        <time>2021-08-14T09:40:30.000Z</time>
      </trkpt>
      <trkpt lat="49.8737" lon="4.81262">
        <ele>177</ele>
        <time>2021-08-14T09:40:31.000Z</time>
      </trkpt>
      <trkpt lat="49.87367" lon="4.81263">
        <ele>177</ele>
        <time>2021-08-14T09:40:32.000Z</time>
      </trkpt>
      <trkpt lat="49.87364" lon="4.81265">
        <ele>177</ele>
        <time>2021-08-14T09:40:33.000Z</time>
      </trkpt>
      <trkpt lat="49.87361" lon="4.81266">
        <ele>177</ele>
        <time>2021-08-14T09:40:34.000Z</time>
      </trkpt>
      <trkpt lat="49.87358" lon="4.81267">
        <ele>177</ele>
        <time>2021-08-14T09:40:35.000Z</time>
      </trkpt>
      <trkpt lat="49.87355" lon="4.81269">
        <ele>177</ele>
        <time>2021-08-14T09:40:36.000Z</time>
      </trkpt>
      <trkpt lat="49.87352" lon="4.8127">
        <ele>177</ele>
        <time>2021-08-14T09:40:37.000Z</time>
      </trkpt>
      <trkpt lat="49.87349" lon="4.81271">
        <ele>178</ele>
        <time>2021-08-14T09:40:38.000Z</time>
      </trkpt>
      <trkpt lat="49.87346" lon="4.81272">
        <ele>178</ele>
        <time>2021-08-14T09:40:39.000Z</time>
      </trkpt>
      <trkpt lat="49.87343" lon="4.81273">
        <ele>178</ele>
        <time>2021-08-14T09:40:40.000Z</time>
      </trkpt>
      <trkpt lat="49.8734" lon="4.81274">
        <ele>178</ele>
        <time>2021-08-14T09:40:41.000Z</time>
      </trkpt>
      <trkpt lat="49.87337" lon="4.81275">
        <ele>178</ele>
        <time>2021-08-14T09:40:42.000Z</time>
      </trkpt>
      <trkpt lat="49.87334" lon="4.81275">
        <ele>179</ele>
        <time>2021-08-14T09:40:43.000Z</time>
      </trkpt>
      <trkpt lat="49.87331" lon="4.81276">
        <ele>179</ele>
        <time>2021-08-14T09:40:44.000Z</time>
      </trkpt>
      <trkpt lat="49.87328" lon="4.81277">
        <ele>179</ele>
        <time>2021-08-14T09:40:45.000Z</time>
      </trkpt>
      <trkpt lat="49.87324" lon="4.81277">
        <ele>179</ele>
        <time>2021-08-14T09:40:46.000Z</time>
      </trkpt>
      <trkpt lat="49.87321" lon="4.81277">
        <ele>179</ele>
        <time>2021-08-14T09:40:47.000Z</time>
      </trkpt>
      <trkpt lat="49.87318" lon="4.81276">
        <ele>180</ele>
        <time>2021-08-14T09:40:48.000Z</time>
      </trkpt>
      <trkpt lat="49.87315" lon="4.81276">
        <ele>180</ele>
        <time>2021-08-14T09:40:49.000Z</time>
      </trkpt>
      <trkpt lat="49.87312" lon="4.81276">
        <ele>180</ele>
        <time>2021-08-14T09:40:50.000Z</time>
      </trkpt>
      <trkpt lat="49.87308" lon="4.81276">
        <ele>180</ele>
        <time>2021-08-14T09:40:51.000Z</time>
      </trkpt>
      <trkpt lat="49.87305" lon="4.81276">
        <ele>180</ele>
        <time>2021-08-14T09:40:52.000Z</time>
      </trkpt>
      <trkpt lat="49.87302" lon="4.81275">
        <ele>180</ele>
        <time>2021-08-14T09:40:53.000Z</time>
      </trkpt>
      <trkpt lat="49.87299" lon="4.81274">
        <ele>181</ele>
        <time>2021-08-14T09:40:54.000Z</time>
      </trkpt>
      <trkpt lat="49.87296" lon="4.81273">
        <ele>181</ele>
        <time>2021-08-14T09:40:55.000Z</time>
      </trkpt>
      <trkpt lat="49.87293" lon="4.81273">
        <ele>181</ele>
        <time>2021-08-14T09:40:56.000Z</time>
      </trkpt>
      <trkpt lat="49.87289" lon="4.81272">
        <ele>181</ele>
        <time>2021-08-14T09:40:57.000Z</time>
      </trkpt>
      <trkpt lat="49.87286" lon="4.81272">
        <ele>182</ele>
        <time>2021-08-14T09:40:58.000Z</time>
      </trkpt>
      <trkpt lat="49.87283" lon="4.81271">
        <ele>182</ele>
        <time>2021-08-14T09:40:59.000Z</time>
      </trkpt>
      <trkpt lat="49.8728" lon="4.81271">
        <ele>182</ele>
        <time>2021-08-14T09:41:00.000Z</time>
      </trkpt>
      <trkpt lat="49.87277" lon="4.8127">
        <ele>182</ele>
        <time>2021-08-14T09:41:01.000Z</time>
      </trkpt>
      <trkpt lat="49.87274" lon="4.8127">
        <ele>183</ele>
        <time>2021-08-14T09:41:02.000Z</time>
      </trkpt>
      <trkpt lat="49.87271" lon="4.8127">
        <ele>183</ele>
        <time>2021-08-14T09:41:03.000Z</time>
      </trkpt>
      <trkpt lat="49.87268" lon="4.81269">
        <ele>183</ele>
        <time>2021-08-14T09:41:04.000Z</time>
      </trkpt>
      <trkpt lat="49.87265" lon="4.81268">
        <ele>183</ele>
        <time>2021-08-14T09:41:05.000Z</time>
      </trkpt>
      <trkpt lat="49.87262" lon="4.81267">
        <ele>184</ele>
        <time>2021-08-14T09:41:06.000Z</time>
      </trkpt>
      <trkpt lat="49.87259" lon="4.81267">
        <ele>184</ele>
        <time>2021-08-14T09:41:07.000Z</time>
      </trkpt>
      <trkpt lat="49.87256" lon="4.81266">
        <ele>184</ele>
        <time>2021-08-14T09:41:08.000Z</time>
      </trkpt>
      <trkpt lat="49.87253" lon="4.81266">
        <ele>184</ele>
        <time>2021-08-14T09:41:09.000Z</time>
      </trkpt>
      <trkpt lat="49.8725" lon="4.81265">
        <ele>185</ele>
        <time>2021-08-14T09:41:10.000Z</time>
      </trkpt>
      <trkpt lat="49.87247" lon="4.81264">
        <ele>185</ele>
        <time>2021-08-14T09:41:11.000Z</time>
      </trkpt>
      <trkpt lat="49.87244" lon="4.81263">
        <ele>185</ele>
        <time>2021-08-14T09:41:12.000Z</time>
      </trkpt>
      <trkpt lat="49.87241" lon="4.81262">
        <ele>185</ele>
        <time>2021-08-14T09:41:13.000Z</time>
      </trkpt>
      <trkpt lat="49.87238" lon="4.81261">
        <ele>186</ele>
        <time>2021-08-14T09:41:14.000Z</time>
      </trkpt>
      <trkpt lat="49.87235" lon="4.8126">
        <ele>186</ele>
        <time>2021-08-14T09:41:15.000Z</time>
      </trkpt>
      <trkpt lat="49.87232" lon="4.81258">
        <ele>187</ele>
        <time>2021-08-14T09:41:16.000Z</time>
      </trkpt>
      <trkpt lat="49.87229" lon="4.81257">
        <ele>187</ele>
        <time>2021-08-14T09:41:17.000Z</time>
      </trkpt>
      <trkpt lat="49.87225" lon="4.81256">
        <ele>187</ele>
        <time>2021-08-14T09:41:18.000Z</time>
      </trkpt>
      <trkpt lat="49.87222" lon="4.81255">
        <ele>188</ele>
        <time>2021-08-14T09:41:19.000Z</time>
      </trkpt>
      <trkpt lat="49.87219" lon="4.81254">
        <ele>188</ele>
        <time>2021-08-14T09:41:20.000Z</time>
      </trkpt>
      <trkpt lat="49.87216" lon="4.81253">
        <ele>188</ele>
        <time>2021-08-14T09:41:21.000Z</time>
      </trkpt>
      <trkpt lat="49.87213" lon="4.81251">
        <ele>189</ele>
        <time>2021-08-14T09:41:22.000Z</time>
      </trkpt>
      <trkpt lat="49.87211" lon="4.8125">
        <ele>189</ele>
        <time>2021-08-14T09:41:23.000Z</time>
      </trkpt>
      <trkpt lat="49.87208" lon="4.81249">
        <ele>189</ele>
        <time>2021-08-14T09:41:24.000Z</time>
      </trkpt>
      <trkpt lat="49.87205" lon="4.81247">
        <ele>189</ele>
        <time>2021-08-14T09:41:25.000Z</time>
      </trkpt>
      <trkpt lat="49.87202" lon="4.81246">
        <ele>189</ele>
        <time>2021-08-14T09:41:26.000Z</time>
      </trkpt>
      <trkpt lat="49.87199" lon="4.81245">
        <ele>190</ele>
        <time>2021-08-14T09:41:27.000Z</time>
      </trkpt>
      <trkpt lat="49.87196" lon="4.81244">
        <ele>190</ele>
        <time>2021-08-14T09:41:28.000Z</time>
      </trkpt>
      <trkpt lat="49.87193" lon="4.81243">
        <ele>190</ele>
        <time>2021-08-14T09:41:29.000Z</time>
      </trkpt>
      <trkpt lat="49.87189" lon="4.81242">
        <ele>190</ele>
        <time>2021-08-14T09:41:30.000Z</time>
      </trkpt>
      <trkpt lat="49.87186" lon="4.81241">
        <ele>191</ele>
        <time>2021-08-14T09:41:31.000Z</time>
      </trkpt>
      <trkpt lat="49.87184" lon="4.8124">
        <ele>191</ele>
        <time>2021-08-14T09:41:32.000Z</time>
      </trkpt>
      <trkpt lat="49.87181" lon="4.81238">
        <ele>191</ele>
        <time>2021-08-14T09:41:33.000Z</time>
      </trkpt>
      <trkpt lat="49.87178" lon="4.81237">
        <ele>192</ele>
        <time>2021-08-14T09:41:34.000Z</time>
      </trkpt>
      <trkpt lat="49.87175" lon="4.81236">
        <ele>192</ele>
        <time>2021-08-14T09:41:35.000Z</time>
      </trkpt>
      <trkpt lat="49.87172" lon="4.81235">
        <ele>192</ele>
        <time>2021-08-14T09:41:36.000Z</time>
      </trkpt>
      <trkpt lat="49.87169" lon="4.81233">
        <ele>193</ele>
        <time>2021-08-14T09:41:37.000Z</time>
      </trkpt>
      <trkpt lat="49.87165" lon="4.81232">
        <ele>193</ele>
        <time>2021-08-14T09:41:38.000Z</time>
      </trkpt>
      <trkpt lat="49.87162" lon="4.81231">
        <ele>194</ele>
        <time>2021-08-14T09:41:39.000Z</time>
      </trkpt>
      <trkpt lat="49.87159" lon="4.81229">
        <ele>194</ele>
        <time>2021-08-14T09:41:40.000Z</time>
      </trkpt>
      <trkpt lat="49.87156" lon="4.81228">
        <ele>194</ele>
        <time>2021-08-14T09:41:41.000Z</time>
      </trkpt>
      <trkpt lat="49.87153" lon="4.81227">
        <ele>195</ele>
        <time>2021-08-14T09:41:42.000Z</time>
      </trkpt>
      <trkpt lat="49.8715" lon="4.81225">
        <ele>195</ele>
        <time>2021-08-14T09:41:43.000Z</time>
      </trkpt>
      <trkpt lat="49.87148" lon="4.81224">
        <ele>196</ele>
        <time>2021-08-14T09:41:44.000Z</time>
      </trkpt>
      <trkpt lat="49.87145" lon="4.81223">
        <ele>196</ele>
        <time>2021-08-14T09:41:45.000Z</time>
      </trkpt>
      <trkpt lat="49.87142" lon="4.81222">
        <ele>197</ele>
        <time>2021-08-14T09:41:46.000Z</time>
      </trkpt>
      <trkpt lat="49.87139" lon="4.8122">
        <ele>197</ele>
        <time>2021-08-14T09:41:47.000Z</time>
      </trkpt>
      <trkpt lat="49.87137" lon="4.81219">
        <ele>197</ele>
        <time>2021-08-14T09:41:48.000Z</time>
      </trkpt>
      <trkpt lat="49.87134" lon="4.81218">
        <ele>198</ele>
        <time>2021-08-14T09:41:49.000Z</time>
      </trkpt>
      <trkpt lat="49.87131" lon="4.81217">
        <ele>198</ele>
        <time>2021-08-14T09:41:50.000Z</time>
      </trkpt>
      <trkpt lat="49.87128" lon="4.81216">
        <ele>198</ele>
        <time>2021-08-14T09:41:51.000Z</time>
      </trkpt>
      <trkpt lat="49.87126" lon="4.81215">
        <ele>199</ele>
        <time>2021-08-14T09:41:52.000Z</time>
      </trkpt>
      <trkpt lat="49.87123" lon="4.81213">
        <ele>199</ele>
        <time>2021-08-14T09:41:53.000Z</time>
      </trkpt>
      <trkpt lat="49.8712" lon="4.81212">
        <ele>199</ele>
        <time>2021-08-14T09:41:54.000Z</time>
      </trkpt>
      <trkpt lat="49.87117" lon="4.8121">
        <ele>200</ele>
        <time>2021-08-14T09:41:55.000Z</time>
      </trkpt>
      <trkpt lat="49.87114" lon="4.81208">
        <ele>200</ele>
        <time>2021-08-14T09:41:56.000Z</time>
      </trkpt>
      <trkpt lat="49.87111" lon="4.81206">
        <ele>200</ele>
        <time>2021-08-14T09:41:57.000Z</time>
      </trkpt>
      <trkpt lat="49.87108" lon="4.81204">
        <ele>200</ele>
        <time>2021-08-14T09:41:58.000Z</time>
      </trkpt>
      <trkpt lat="49.87105" lon="4.81202">
        <ele>200</ele>
        <time>2021-08-14T09:41:59.000Z</time>
      </trkpt>
      <trkpt lat="49.87102" lon="4.812">
        <ele>201</ele>
        <time>2021-08-14T09:42:00.000Z</time>
      </trkpt>
      <trkpt lat="49.87099" lon="4.81198">
        <ele>201</ele>
        <time>2021-08-14T09:42:01.000Z</time>
      </trkpt>
      <trkpt lat="49.87096" lon="4.81196">
        <ele>201</ele>
        <time>2021-08-14T09:42:02.000Z</time>
      </trkpt>
      <trkpt lat="49.87093" lon="4.81194">
        <ele>201</ele>
        <time>2021-08-14T09:42:03.000Z</time>
      </trkpt>
      <trkpt lat="49.8709" lon="4.81191">
        <ele>201</ele>
        <time>2021-08-14T09:42:04.000Z</time>
      </trkpt>
      <trkpt lat="49.87087" lon="4.81189">
        <ele>201</ele>
        <time>2021-08-14T09:42:05.000Z</time>
      </trkpt>
      <trkpt lat="49.87084" lon="4.81187">
        <ele>202</ele>
        <time>2021-08-14T09:42:06.000Z</time>
      </trkpt>
      <trkpt lat="49.87081" lon="4.81184">
        <ele>202</ele>
        <time>2021-08-14T09:42:07.000Z</time>
      </trkpt>
      <trkpt lat="49.87078" lon="4.81182">
        <ele>202</ele>
        <time>2021-08-14T09:42:08.000Z</time>
      </trkpt>
      <trkpt lat="49.87075" lon="4.8118">
        <ele>202</ele>
        <time>2021-08-14T09:42:09.000Z</time>
      </trkpt>
      <trkpt lat="49.87072" lon="4.81177">
        <ele>202</ele>
        <time>2021-08-14T09:42:10.000Z</time>
      </trkpt>
      <trkpt lat="49.87068" lon="4.81175">
        <ele>202</ele>
        <time>2021-08-14T09:42:11.000Z</time>
      </trkpt>
      <trkpt lat="49.87065" lon="4.81173">
        <ele>202</ele>
        <time>2021-08-14T09:42:12.000Z</time>
      </trkpt>
      <trkpt lat="49.87062" lon="4.8117">
        <ele>202</ele>
        <time>2021-08-14T09:42:13.000Z</time>
      </trkpt>
      <trkpt lat="49.87059" lon="4.81168">
        <ele>203</ele>
        <time>2021-08-14T09:42:14.000Z</time>
      </trkpt>
      <trkpt lat="49.87056" lon="4.81166">
        <ele>203</ele>
        <time>2021-08-14T09:42:15.000Z</time>
      </trkpt>
      <trkpt lat="49.87053" lon="4.81163">
        <ele>203</ele>
        <time>2021-08-14T09:42:16.000Z</time>
      </trkpt>
      <trkpt lat="49.8705" lon="4.81161">
        <ele>203</ele>
        <time>2021-08-14T09:42:17.000Z</time>
      </trkpt>
      <trkpt lat="49.87047" lon="4.81159">
        <ele>203</ele>
        <time>2021-08-14T09:42:18.000Z</time>
      </trkpt>
      <trkpt lat="49.87044" lon="4.81157">
        <ele>203</ele>
        <time>2021-08-14T09:42:19.000Z</time>
      </trkpt>
      <trkpt lat="49.8704" lon="4.81155">
        <ele>203</ele>
        <time>2021-08-14T09:42:20.000Z</time>
      </trkpt>
      <trkpt lat="49.87037" lon="4.81153">
        <ele>204</ele>
        <time>2021-08-14T09:42:21.000Z</time>
      </trkpt>
      <trkpt lat="49.87034" lon="4.81151">
        <ele>204</ele>
        <time>2021-08-14T09:42:22.000Z</time>
      </trkpt>
      <trkpt lat="49.87031" lon="4.81149">
        <ele>204</ele>
        <time>2021-08-14T09:42:23.000Z</time>
      </trkpt>
      <trkpt lat="49.87028" lon="4.81147">
        <ele>204</ele>
        <time>2021-08-14T09:42:24.000Z</time>
      </trkpt>
      <trkpt lat="49.87025" lon="4.81146">
        <ele>205</ele>
        <time>2021-08-14T09:42:25.000Z</time>
      </trkpt>
      <trkpt lat="49.87022" lon="4.81144">
        <ele>205</ele>
        <time>2021-08-14T09:42:26.000Z</time>
      </trkpt>
      <trkpt lat="49.87019" lon="4.81142">
        <ele>205</ele>
        <time>2021-08-14T09:42:27.000Z</time>
      </trkpt>
      <trkpt lat="49.87017" lon="4.8114">
        <ele>205</ele>
        <time>2021-08-14T09:42:28.000Z</time>
      </trkpt>
      <trkpt lat="49.87014" lon="4.81139">
        <ele>206</ele>
        <time>2021-08-14T09:42:29.000Z</time>
      </trkpt>
      <trkpt lat="49.87011" lon="4.81138">
        <ele>206</ele>
        <time>2021-08-14T09:42:30.000Z</time>
      </trkpt>
      <trkpt lat="49.87008" lon="4.81136">
        <ele>206</ele>
        <time>2021-08-14T09:42:31.000Z</time>
      </trkpt>
      <trkpt lat="49.87005" lon="4.81135">
        <ele>206</ele>
        <time>2021-08-14T09:42:32.000Z</time>
      </trkpt>
      <trkpt lat="49.87001" lon="4.81134">
        <ele>206</ele>
        <time>2021-08-14T09:42:33.000Z</time>
      </trkpt>
      <trkpt lat="49.86999" lon="4.81132">
        <ele>207</ele>
        <time>2021-08-14T09:42:34.000Z</time>
      </trkpt>
      <trkpt lat="49.86996" lon="4.81131">
        <ele>207</ele>
        <time>2021-08-14T09:42:35.000Z</time>
      </trkpt>
      <trkpt lat="49.86993" lon="4.81129">
        <ele>207</ele>
        <time>2021-08-14T09:42:36.000Z</time>
      </trkpt>
      <trkpt lat="49.86991" lon="4.81128">
        <ele>207</ele>
        <time>2021-08-14T09:42:37.000Z</time>
      </trkpt>
      <trkpt lat="49.86988" lon="4.81127">
        <ele>207</ele>
        <time>2021-08-14T09:42:38.000Z</time>
      </trkpt>
      <trkpt lat="49.86985" lon="4.81126">
        <ele>207</ele>
        <time>2021-08-14T09:42:39.000Z</time>
      </trkpt>
      <trkpt lat="49.86983" lon="4.81125">
        <ele>207</ele>
        <time>2021-08-14T09:42:40.000Z</time>
      </trkpt>
      <trkpt lat="49.8698" lon="4.81123">
        <ele>208</ele>
        <time>2021-08-14T09:42:41.000Z</time>
      </trkpt>
      <trkpt lat="49.86978" lon="4.81122">
        <ele>208</ele>
        <time>2021-08-14T09:42:42.000Z</time>
      </trkpt>
      <trkpt lat="49.86975" lon="4.8112">
        <ele>208</ele>
        <time>2021-08-14T09:42:43.000Z</time>
      </trkpt>
      <trkpt lat="49.86972" lon="4.81119">
        <ele>208</ele>
        <time>2021-08-14T09:42:44.000Z</time>
      </trkpt>
      <trkpt lat="49.8697" lon="4.81117">
        <ele>208</ele>
        <time>2021-08-14T09:42:45.000Z</time>
      </trkpt>
      <trkpt lat="49.86967" lon="4.81116">
        <ele>208</ele>
        <time>2021-08-14T09:42:46.000Z</time>
      </trkpt>
      <trkpt lat="49.86965" lon="4.81114">
        <ele>208</ele>
        <time>2021-08-14T09:42:47.000Z</time>
      </trkpt>
      <trkpt lat="49.86962" lon="4.81112">
        <ele>208</ele>
        <time>2021-08-14T09:42:48.000Z</time>
      </trkpt>
      <trkpt lat="49.8696" lon="4.81111">
        <ele>208</ele>
        <time>2021-08-14T09:42:49.000Z</time>
      </trkpt>
      <trkpt lat="49.86959" lon="4.81109">
        <ele>209</ele>
        <time>2021-08-14T09:42:50.000Z</time>
      </trkpt>
      <trkpt lat="49.86957" lon="4.81108">
        <ele>209</ele>
        <time>2021-08-14T09:42:51.000Z</time>
      </trkpt>
      <trkpt lat="49.86955" lon="4.81107">
        <ele>209</ele>
        <time>2021-08-14T09:42:52.000Z</time>
      </trkpt>
      <trkpt lat="49.86953" lon="4.81106">
        <ele>209</ele>
        <time>2021-08-14T09:42:53.000Z</time>
      </trkpt>
      <trkpt lat="49.8695" lon="4.81104">
        <ele>210</ele>
        <time>2021-08-14T09:42:54.000Z</time>
      </trkpt>
      <trkpt lat="49.86947" lon="4.81103">
        <ele>210</ele>
        <time>2021-08-14T09:42:55.000Z</time>
      </trkpt>
      <trkpt lat="49.86944" lon="4.81102">
        <ele>210</ele>
        <time>2021-08-14T09:42:56.000Z</time>
      </trkpt>
      <trkpt lat="49.86941" lon="4.811">
        <ele>211</ele>
        <time>2021-08-14T09:42:57.000Z</time>
      </trkpt>
      <trkpt lat="49.86938" lon="4.81099">
        <ele>211</ele>
        <time>2021-08-14T09:42:58.000Z</time>
      </trkpt>
      <trkpt lat="49.86934" lon="4.81097">
        <ele>211</ele>
        <time>2021-08-14T09:42:59.000Z</time>
      </trkpt>
      <trkpt lat="49.86931" lon="4.81095">
        <ele>211</ele>
        <time>2021-08-14T09:43:00.000Z</time>
      </trkpt>
      <trkpt lat="49.86928" lon="4.81094">
        <ele>212</ele>
        <time>2021-08-14T09:43:01.000Z</time>
      </trkpt>
      <trkpt lat="49.86924" lon="4.81092">
        <ele>212</ele>
        <time>2021-08-14T09:43:02.000Z</time>
      </trkpt>
      <trkpt lat="49.86921" lon="4.8109">
        <ele>212</ele>
        <time>2021-08-14T09:43:03.000Z</time>
      </trkpt>
      <trkpt lat="49.86918" lon="4.81088">
        <ele>212</ele>
        <time>2021-08-14T09:43:04.000Z</time>
      </trkpt>
      <trkpt lat="49.86915" lon="4.81086">
        <ele>212</ele>
        <time>2021-08-14T09:43:05.000Z</time>
      </trkpt>
      <trkpt lat="49.86912" lon="4.81085">
        <ele>212</ele>
        <time>2021-08-14T09:43:06.000Z</time>
      </trkpt>
      <trkpt lat="49.86909" lon="4.81084">
        <ele>212</ele>
        <time>2021-08-14T09:43:07.000Z</time>
      </trkpt>
      <trkpt lat="49.86905" lon="4.81082">
        <ele>212</ele>
        <time>2021-08-14T09:43:08.000Z</time>
      </trkpt>
      <trkpt lat="49.86902" lon="4.81081">
        <ele>212</ele>
        <time>2021-08-14T09:43:09.000Z</time>
      </trkpt>
      <trkpt lat="49.86899" lon="4.81078">
        <ele>212</ele>
        <time>2021-08-14T09:43:10.000Z</time>
      </trkpt>
      <trkpt lat="49.86896" lon="4.81076">
        <ele>212</ele>
        <time>2021-08-14T09:43:11.000Z</time>
      </trkpt>
      <trkpt lat="49.86892" lon="4.81075">
        <ele>212</ele>
        <time>2021-08-14T09:43:12.000Z</time>
      </trkpt>
      <trkpt lat="49.86889" lon="4.81073">
        <ele>212</ele>
        <time>2021-08-14T09:43:13.000Z</time>
      </trkpt>
      <trkpt lat="49.86886" lon="4.81071">
        <ele>212</ele>
        <time>2021-08-14T09:43:14.000Z</time>
      </trkpt>
      <trkpt lat="49.86882" lon="4.81069">
        <ele>212</ele>
        <time>2021-08-14T09:43:15.000Z</time>
      </trkpt>
      <trkpt lat="49.86879" lon="4.81067">
        <ele>213</ele>
        <time>2021-08-14T09:43:16.000Z</time>
      </trkpt>
      <trkpt lat="49.86876" lon="4.81065">
        <ele>213</ele>
        <time>2021-08-14T09:43:17.000Z</time>
      </trkpt>
      <trkpt lat="49.86873" lon="4.81062">
        <ele>213</ele>
        <time>2021-08-14T09:43:18.000Z</time>
      </trkpt>
      <trkpt lat="49.8687" lon="4.81061">
        <ele>213</ele>
        <time>2021-08-14T09:43:19.000Z</time>
      </trkpt>
      <trkpt lat="49.86867" lon="4.81059">
        <ele>213</ele>
        <time>2021-08-14T09:43:20.000Z</time>
      </trkpt>
      <trkpt lat="49.86864" lon="4.81057">
        <ele>213</ele>
        <time>2021-08-14T09:43:21.000Z</time>
      </trkpt>
      <trkpt lat="49.86861" lon="4.81054">
        <ele>213</ele>
        <time>2021-08-14T09:43:22.000Z</time>
      </trkpt>
      <trkpt lat="49.86858" lon="4.81052">
        <ele>213</ele>
        <time>2021-08-14T09:43:23.000Z</time>
      </trkpt>
      <trkpt lat="49.86855" lon="4.81049">
        <ele>213</ele>
        <time>2021-08-14T09:43:24.000Z</time>
      </trkpt>
      <trkpt lat="49.86852" lon="4.81046">
        <ele>213</ele>
        <time>2021-08-14T09:43:25.000Z</time>
      </trkpt>
      <trkpt lat="49.86849" lon="4.81043">
        <ele>213</ele>
        <time>2021-08-14T09:43:26.000Z</time>
      </trkpt>
      <trkpt lat="49.86846" lon="4.8104">
        <ele>213</ele>
        <time>2021-08-14T09:43:27.000Z</time>
      </trkpt>
      <trkpt lat="49.86843" lon="4.81037">
        <ele>213</ele>
        <time>2021-08-14T09:43:28.000Z</time>
      </trkpt>
      <trkpt lat="49.8684" lon="4.81034">
        <ele>213</ele>
        <time>2021-08-14T09:43:29.000Z</time>
      </trkpt>
      <trkpt lat="49.86837" lon="4.8103">
        <ele>213</ele>
        <time>2021-08-14T09:43:30.000Z</time>
      </trkpt>
      <trkpt lat="49.86834" lon="4.81027">
        <ele>213</ele>
        <time>2021-08-14T09:43:31.000Z</time>
      </trkpt>
      <trkpt lat="49.86831" lon="4.81023">
        <ele>213</ele>
        <time>2021-08-14T09:43:32.000Z</time>
      </trkpt>
      <trkpt lat="49.86827" lon="4.8102">
        <ele>213</ele>
        <time>2021-08-14T09:43:33.000Z</time>
      </trkpt>
      <trkpt lat="49.86824" lon="4.81017">
        <ele>213</ele>
        <time>2021-08-14T09:43:34.000Z</time>
      </trkpt>
      <trkpt lat="49.8682" lon="4.81014">
        <ele>213</ele>
        <time>2021-08-14T09:43:35.000Z</time>
      </trkpt>
      <trkpt lat="49.86817" lon="4.81012">
        <ele>213</ele>
        <time>2021-08-14T09:43:36.000Z</time>
      </trkpt>
      <trkpt lat="49.86813" lon="4.81009">
        <ele>213</ele>
        <time>2021-08-14T09:43:37.000Z</time>
      </trkpt>
      <trkpt lat="49.86809" lon="4.81006">
        <ele>213</ele>
        <time>2021-08-14T09:43:38.000Z</time>
      </trkpt>
      <trkpt lat="49.86806" lon="4.81004">
        <ele>213</ele>
        <time>2021-08-14T09:43:39.000Z</time>
      </trkpt>
      <trkpt lat="49.86802" lon="4.81002">
        <ele>212</ele>
        <time>2021-08-14T09:43:40.000Z</time>
      </trkpt>
      <trkpt lat="49.86799" lon="4.81">
        <ele>212</ele>
        <time>2021-08-14T09:43:41.000Z</time>
      </trkpt>
      <trkpt lat="49.86795" lon="4.80998">
        <ele>212</ele>
        <time>2021-08-14T09:43:42.000Z</time>
      </trkpt>
      <trkpt lat="49.86791" lon="4.80996">
        <ele>212</ele>
        <time>2021-08-14T09:43:43.000Z</time>
      </trkpt>
      <trkpt lat="49.86787" lon="4.80994">
        <ele>212</ele>
        <time>2021-08-14T09:43:44.000Z</time>
      </trkpt>
      <trkpt lat="49.86784" lon="4.80993">
        <ele>212</ele>
        <time>2021-08-14T09:43:45.000Z</time>
      </trkpt>
      <trkpt lat="49.8678" lon="4.80992">
        <ele>212</ele>
        <time>2021-08-14T09:43:46.000Z</time>
      </trkpt>
      <trkpt lat="49.86776" lon="4.80991">
        <ele>212</ele>
        <time>2021-08-14T09:43:47.000Z</time>
      </trkpt>
      <trkpt lat="49.86772" lon="4.8099">
        <ele>212</ele>
        <time>2021-08-14T09:43:48.000Z</time>
      </trkpt>
      <trkpt lat="49.86768" lon="4.8099">
        <ele>212</ele>
        <time>2021-08-14T09:43:49.000Z</time>
      </trkpt>
      <trkpt lat="49.86765" lon="4.80991">
        <ele>212</ele>
        <time>2021-08-14T09:43:50.000Z</time>
      </trkpt>
      <trkpt lat="49.86761" lon="4.80991">
        <ele>212</ele>
        <time>2021-08-14T09:43:51.000Z</time>
      </trkpt>
      <trkpt lat="49.86757" lon="4.80992">
        <ele>212</ele>
        <time>2021-08-14T09:43:52.000Z</time>
      </trkpt>
      <trkpt lat="49.86754" lon="4.80994">
        <ele>212</ele>
        <time>2021-08-14T09:43:53.000Z</time>
      </trkpt>
      <trkpt lat="49.8675" lon="4.80996">
        <ele>213</ele>
        <time>2021-08-14T09:43:54.000Z</time>
      </trkpt>
      <trkpt lat="49.86747" lon="4.80998">
        <ele>213</ele>
        <time>2021-08-14T09:43:55.000Z</time>
      </trkpt>
      <trkpt lat="49.86744" lon="4.81">
        <ele>213</ele>
        <time>2021-08-14T09:43:56.000Z</time>
      </trkpt>
      <trkpt lat="49.8674" lon="4.81003">
        <ele>213</ele>
        <time>2021-08-14T09:43:57.000Z</time>
      </trkpt>
      <trkpt lat="49.86737" lon="4.81005">
        <ele>213</ele>
        <time>2021-08-14T09:43:58.000Z</time>
      </trkpt>
      <trkpt lat="49.86735" lon="4.81009">
        <ele>213</ele>
        <time>2021-08-14T09:43:59.000Z</time>
      </trkpt>
      <trkpt lat="49.86732" lon="4.81013">
        <ele>213</ele>
        <time>2021-08-14T09:44:00.000Z</time>
      </trkpt>
      <trkpt lat="49.8673" lon="4.81017">
        <ele>213</ele>
        <time>2021-08-14T09:44:01.000Z</time>
      </trkpt>
      <trkpt lat="49.86728" lon="4.81021">
        <ele>213</ele>
        <time>2021-08-14T09:44:02.000Z</time>
      </trkpt>
      <trkpt lat="49.86726" lon="4.81025">
        <ele>213</ele>
        <time>2021-08-14T09:44:03.000Z</time>
      </trkpt>
      <trkpt lat="49.86725" lon="4.81029">
        <ele>214</ele>
        <time>2021-08-14T09:44:04.000Z</time>
      </trkpt>
      <trkpt lat="49.86723" lon="4.81034">
        <ele>214</ele>
        <time>2021-08-14T09:44:05.000Z</time>
      </trkpt>
      <trkpt lat="49.86722" lon="4.81038">
        <ele>214</ele>
        <time>2021-08-14T09:44:06.000Z</time>
      </trkpt>
      <trkpt lat="49.8672" lon="4.81043">
        <ele>214</ele>
        <time>2021-08-14T09:44:07.000Z</time>
      </trkpt>
      <trkpt lat="49.86719" lon="4.81048">
        <ele>214</ele>
        <time>2021-08-14T09:44:08.000Z</time>
      </trkpt>
      <trkpt lat="49.86717" lon="4.81053">
        <ele>215</ele>
        <time>2021-08-14T09:44:09.000Z</time>
      </trkpt>
      <trkpt lat="49.86716" lon="4.81058">
        <ele>215</ele>
        <time>2021-08-14T09:44:10.000Z</time>
      </trkpt>
      <trkpt lat="49.86714" lon="4.81063">
        <ele>215</ele>
        <time>2021-08-14T09:44:11.000Z</time>
      </trkpt>
      <trkpt lat="49.86713" lon="4.81068">
        <ele>216</ele>
        <time>2021-08-14T09:44:12.000Z</time>
      </trkpt>
      <trkpt lat="49.86711" lon="4.81073">
        <ele>216</ele>
        <time>2021-08-14T09:44:13.000Z</time>
      </trkpt>
      <trkpt lat="49.86709" lon="4.81078">
        <ele>216</ele>
        <time>2021-08-14T09:44:14.000Z</time>
      </trkpt>
      <trkpt lat="49.86708" lon="4.81082">
        <ele>217</ele>
        <time>2021-08-14T09:44:15.000Z</time>
      </trkpt>
      <trkpt lat="49.86705" lon="4.81086">
        <ele>217</ele>
        <time>2021-08-14T09:44:16.000Z</time>
      </trkpt>
      <trkpt lat="49.86704" lon="4.81091">
        <ele>218</ele>
        <time>2021-08-14T09:44:17.000Z</time>
      </trkpt>
      <trkpt lat="49.86702" lon="4.81095">
        <ele>218</ele>
        <time>2021-08-14T09:44:18.000Z</time>
      </trkpt>
      <trkpt lat="49.867" lon="4.81099">
        <ele>219</ele>
        <time>2021-08-14T09:44:19.000Z</time>
      </trkpt>
      <trkpt lat="49.86699" lon="4.81103">
        <ele>219</ele>
        <time>2021-08-14T09:44:20.000Z</time>
      </trkpt>
      <trkpt lat="49.86697" lon="4.81107">
        <ele>219</ele>
        <time>2021-08-14T09:44:21.000Z</time>
      </trkpt>
      <trkpt lat="49.86695" lon="4.81111">
        <ele>220</ele>
        <time>2021-08-14T09:44:22.000Z</time>
      </trkpt>
      <trkpt lat="49.86693" lon="4.81114">
        <ele>220</ele>
        <time>2021-08-14T09:44:23.000Z</time>
      </trkpt>
      <trkpt lat="49.86691" lon="4.81117">
        <ele>220</ele>
        <time>2021-08-14T09:44:24.000Z</time>
      </trkpt>
      <trkpt lat="49.86689" lon="4.81121">
        <ele>221</ele>
        <time>2021-08-14T09:44:25.000Z</time>
      </trkpt>
      <trkpt lat="49.86687" lon="4.81124">
        <ele>221</ele>
        <time>2021-08-14T09:44:26.000Z</time>
      </trkpt>
      <trkpt lat="49.86685" lon="4.81127">
        <ele>221</ele>
        <time>2021-08-14T09:44:27.000Z</time>
      </trkpt>
      <trkpt lat="49.86683" lon="4.8113">
        <ele>222</ele>
        <time>2021-08-14T09:44:28.000Z</time>
      </trkpt>
      <trkpt lat="49.8668" lon="4.81133">
        <ele>222</ele>
        <time>2021-08-14T09:44:29.000Z</time>
      </trkpt>
      <trkpt lat="49.86678" lon="4.81136">
        <ele>223</ele>
        <time>2021-08-14T09:44:30.000Z</time>
      </trkpt>
      <trkpt lat="49.86676" lon="4.81139">
        <ele>223</ele>
        <time>2021-08-14T09:44:31.000Z</time>
      </trkpt>
      <trkpt lat="49.86673" lon="4.81142">
        <ele>223</ele>
        <time>2021-08-14T09:44:32.000Z</time>
      </trkpt>
      <trkpt lat="49.86671" lon="4.81144">
        <ele>224</ele>
        <time>2021-08-14T09:44:33.000Z</time>
      </trkpt>
      <trkpt lat="49.86669" lon="4.81147">
        <ele>224</ele>
        <time>2021-08-14T09:44:34.000Z</time>
      </trkpt>
      <trkpt lat="49.86667" lon="4.81151">
        <ele>225</ele>
        <time>2021-08-14T09:44:35.000Z</time>
      </trkpt>
      <trkpt lat="49.86664" lon="4.81153">
        <ele>225</ele>
        <time>2021-08-14T09:44:36.000Z</time>
      </trkpt>
      <trkpt lat="49.86662" lon="4.81156">
        <ele>225</ele>
        <time>2021-08-14T09:44:37.000Z</time>
      </trkpt>
      <trkpt lat="49.86659" lon="4.81158">
        <ele>226</ele>
        <time>2021-08-14T09:44:38.000Z</time>
      </trkpt>
      <trkpt lat="49.86656" lon="4.8116">
        <ele>226</ele>
        <time>2021-08-14T09:44:39.000Z</time>
      </trkpt>
      <trkpt lat="49.86653" lon="4.81162">
        <ele>226</ele>
        <time>2021-08-14T09:44:40.000Z</time>
      </trkpt>
      <trkpt lat="49.8665" lon="4.81165">
        <ele>227</ele>
        <time>2021-08-14T09:44:41.000Z</time>
      </trkpt>
      <trkpt lat="49.86648" lon="4.81167">
        <ele>227</ele>
        <time>2021-08-14T09:44:42.000Z</time>
      </trkpt>
      <trkpt lat="49.86645" lon="4.81169">
        <ele>227</ele>
        <time>2021-08-14T09:44:43.000Z</time>
      </trkpt>
      <trkpt lat="49.86642" lon="4.81172">
        <ele>227</ele>
        <time>2021-08-14T09:44:44.000Z</time>
      </trkpt>
      <trkpt lat="49.86639" lon="4.81174">
        <ele>228</ele>
        <time>2021-08-14T09:44:45.000Z</time>
      </trkpt>
      <trkpt lat="49.86636" lon="4.81176">
        <ele>228</ele>
        <time>2021-08-14T09:44:46.000Z</time>
      </trkpt>
      <trkpt lat="49.86633" lon="4.81178">
        <ele>228</ele>
        <time>2021-08-14T09:44:47.000Z</time>
      </trkpt>
      <trkpt lat="49.8663" lon="4.8118">
        <ele>228</ele>
        <time>2021-08-14T09:44:48.000Z</time>
      </trkpt>
      <trkpt lat="49.86628" lon="4.81182">
        <ele>229</ele>
        <time>2021-08-14T09:44:49.000Z</time>
      </trkpt>
      <trkpt lat="49.86625" lon="4.81184">
        <ele>229</ele>
        <time>2021-08-14T09:44:50.000Z</time>
      </trkpt>
      <trkpt lat="49.86622" lon="4.81186">
        <ele>229</ele>
        <time>2021-08-14T09:44:51.000Z</time>
      </trkpt>
      <trkpt lat="49.8662" lon="4.81187">
        <ele>230</ele>
        <time>2021-08-14T09:44:52.000Z</time>
      </trkpt>
      <trkpt lat="49.86617" lon="4.81189">
        <ele>230</ele>
        <time>2021-08-14T09:44:53.000Z</time>
      </trkpt>
      <trkpt lat="49.86615" lon="4.8119">
        <ele>230</ele>
        <time>2021-08-14T09:44:54.000Z</time>
      </trkpt>
      <trkpt lat="49.86612" lon="4.81192">
        <ele>231</ele>
        <time>2021-08-14T09:44:55.000Z</time>
      </trkpt>
      <trkpt lat="49.86609" lon="4.81193">
        <ele>231</ele>
        <time>2021-08-14T09:44:56.000Z</time>
      </trkpt>
      <trkpt lat="49.86606" lon="4.81195">
        <ele>231</ele>
        <time>2021-08-14T09:44:57.000Z</time>
      </trkpt>
      <trkpt lat="49.86603" lon="4.81196">
        <ele>232</ele>
        <time>2021-08-14T09:44:58.000Z</time>
      </trkpt>
      <trkpt lat="49.866" lon="4.81197">
        <ele>232</ele>
        <time>2021-08-14T09:44:59.000Z</time>
      </trkpt>
      <trkpt lat="49.86597" lon="4.81198">
        <ele>232</ele>
        <time>2021-08-14T09:45:00.000Z</time>
      </trkpt>
      <trkpt lat="49.86594" lon="4.81199">
        <ele>233</ele>
        <time>2021-08-14T09:45:01.000Z</time>
      </trkpt>
      <trkpt lat="49.86591" lon="4.812">
        <ele>233</ele>
        <time>2021-08-14T09:45:02.000Z</time>
      </trkpt>
      <trkpt lat="49.86588" lon="4.81202">
        <ele>233</ele>
        <time>2021-08-14T09:45:03.000Z</time>
      </trkpt>
      <trkpt lat="49.86585" lon="4.81203">
        <ele>233</ele>
        <time>2021-08-14T09:45:04.000Z</time>
      </trkpt>
      <trkpt lat="49.86582" lon="4.81204">
        <ele>234</ele>
        <time>2021-08-14T09:45:05.000Z</time>
      </trkpt>
      <trkpt lat="49.8658" lon="4.81206">
        <ele>234</ele>
        <time>2021-08-14T09:45:06.000Z</time>
      </trkpt>
      <trkpt lat="49.86577" lon="4.81206">
        <ele>234</ele>
        <time>2021-08-14T09:45:07.000Z</time>
      </trkpt>
      <trkpt lat="49.86574" lon="4.81206">
        <ele>234</ele>
        <time>2021-08-14T09:45:08.000Z</time>
      </trkpt>
      <trkpt lat="49.8657" lon="4.81206">
        <ele>234</ele>
        <time>2021-08-14T09:45:09.000Z</time>
      </trkpt>
      <trkpt lat="49.86567" lon="4.81207">
        <ele>234</ele>
        <time>2021-08-14T09:45:10.000Z</time>
      </trkpt>
      <trkpt lat="49.86564" lon="4.81208">
        <ele>234</ele>
        <time>2021-08-14T09:45:11.000Z</time>
      </trkpt>
      <trkpt lat="49.86561" lon="4.81209">
        <ele>234</ele>
        <time>2021-08-14T09:45:12.000Z</time>
      </trkpt>
      <trkpt lat="49.86558" lon="4.81209">
        <ele>234</ele>
        <time>2021-08-14T09:45:13.000Z</time>
      </trkpt>
      <trkpt lat="49.86555" lon="4.8121">
        <ele>234</ele>
        <time>2021-08-14T09:45:14.000Z</time>
      </trkpt>
      <trkpt lat="49.86553" lon="4.8121">
        <ele>234</ele>
        <time>2021-08-14T09:45:15.000Z</time>
      </trkpt>
      <trkpt lat="49.86551" lon="4.81212">
        <ele>234</ele>
        <time>2021-08-14T09:45:16.000Z</time>
      </trkpt>
      <trkpt lat="49.8655" lon="4.81214">
        <ele>234</ele>
        <time>2021-08-14T09:45:17.000Z</time>
      </trkpt>
      <trkpt lat="49.8655" lon="4.81217">
        <ele>234</ele>
        <time>2021-08-14T09:45:18.000Z</time>
      </trkpt>
      <trkpt lat="49.8655" lon="4.81219">
        <ele>234</ele>
        <time>2021-08-14T09:45:19.000Z</time>
      </trkpt>
      <trkpt lat="49.8655" lon="4.81222">
        <ele>234</ele>
        <time>2021-08-14T09:45:20.000Z</time>
      </trkpt>
      <trkpt lat="49.8655" lon="4.81224">
        <ele>234</ele>
        <time>2021-08-14T09:45:21.000Z</time>
      </trkpt>
      <trkpt lat="49.8655" lon="4.81226">
        <ele>234</ele>
        <time>2021-08-14T09:45:22.000Z</time>
      </trkpt>
      <trkpt lat="49.8655" lon="4.81227">
        <ele>234</ele>
        <time>2021-08-14T09:45:23.000Z</time>
      </trkpt>
      <trkpt lat="49.86549" lon="4.81228">
        <ele>234</ele>
        <time>2021-08-14T09:45:24.000Z</time>
      </trkpt>
      <trkpt lat="49.86549" lon="4.81228">
        <ele>235</ele>
        <time>2021-08-14T09:45:25.000Z</time>
      </trkpt>
      <trkpt lat="49.86549" lon="4.81229">
        <ele>235</ele>
        <time>2021-08-14T09:45:26.000Z</time>
      </trkpt>
      <trkpt lat="49.86549" lon="4.8123">
        <ele>235</ele>
        <time>2021-08-14T09:45:27.000Z</time>
      </trkpt>
      <trkpt lat="49.86549" lon="4.8123">
        <ele>235</ele>
        <time>2021-08-14T09:45:28.000Z</time>
      </trkpt>
      <trkpt lat="49.8655" lon="4.81231">
        <ele>235</ele>
        <time>2021-08-14T09:45:29.000Z</time>
      </trkpt>
      <trkpt lat="49.8655" lon="4.81231">
        <ele>235</ele>
        <time>2021-08-14T09:45:30.000Z</time>
      </trkpt>
      <trkpt lat="49.8655" lon="4.81231">
        <ele>235</ele>
        <time>2021-08-14T09:45:31.000Z</time>
      </trkpt>
      <trkpt lat="49.8655" lon="4.81231">
        <ele>235</ele>
        <time>2021-08-14T09:45:32.000Z</time>
      </trkpt>
      <trkpt lat="49.8655" lon="4.81231">
        <ele>235</ele>
        <time>2021-08-14T09:45:33.000Z</time>
      </trkpt>
      <trkpt lat="49.86551" lon="4.81232">
        <ele>236</ele>
        <time>2021-08-14T09:45:34.000Z</time>
      </trkpt>
      <trkpt lat="49.86552" lon="4.81234">
        <ele>236</ele>
        <time>2021-08-14T09:45:35.000Z</time>
      </trkpt>
      <trkpt lat="49.86552" lon="4.81236">
        <ele>236</ele>
        <time>2021-08-14T09:45:36.000Z</time>
      </trkpt>
      <trkpt lat="49.86553" lon="4.81237">
        <ele>236</ele>
        <time>2021-08-14T09:45:37.000Z</time>
      </trkpt>
      <trkpt lat="49.86553" lon="4.81239">
        <ele>236</ele>
        <time>2021-08-14T09:45:38.000Z</time>
      </trkpt>
      <trkpt lat="49.86554" lon="4.8124">
        <ele>236</ele>
        <time>2021-08-14T09:45:39.000Z</time>
      </trkpt>
      <trkpt lat="49.86555" lon="4.81241">
        <ele>236</ele>
        <time>2021-08-14T09:45:40.000Z</time>
      </trkpt>
      <trkpt lat="49.86556" lon="4.81243">
        <ele>236</ele>
        <time>2021-08-14T09:45:41.000Z</time>
      </trkpt>
      <trkpt lat="49.86556" lon="4.81244">
        <ele>236</ele>
        <time>2021-08-14T09:45:42.000Z</time>
      </trkpt>
      <trkpt lat="49.86556" lon="4.81246">
        <ele>236</ele>
        <time>2021-08-14T09:45:43.000Z</time>
      </trkpt>
      <trkpt lat="49.86557" lon="4.81247">
        <ele>236</ele>
        <time>2021-08-14T09:45:44.000Z</time>
      </trkpt>
      <trkpt lat="49.86557" lon="4.81249">
        <ele>236</ele>
        <time>2021-08-14T09:45:45.000Z</time>
      </trkpt>
      <trkpt lat="49.86558" lon="4.8125">
        <ele>237</ele>
        <time>2021-08-14T09:45:46.000Z</time>
      </trkpt>
      <trkpt lat="49.86558" lon="4.81251">
        <ele>237</ele>
        <time>2021-08-14T09:45:47.000Z</time>
      </trkpt>
      <trkpt lat="49.86558" lon="4.81251">
        <ele>237</ele>
        <time>2021-08-14T09:45:48.000Z</time>
      </trkpt>
      <trkpt lat="49.86559" lon="4.81251">
        <ele>237</ele>
        <time>2021-08-14T09:45:49.000Z</time>
      </trkpt>
      <trkpt lat="49.86559" lon="4.81252">
        <ele>237</ele>
        <time>2021-08-14T09:45:50.000Z</time>
      </trkpt>
      <trkpt lat="49.8656" lon="4.81254">
        <ele>237</ele>
        <time>2021-08-14T09:45:51.000Z</time>
      </trkpt>
      <trkpt lat="49.8656" lon="4.81255">
        <ele>237</ele>
        <time>2021-08-14T09:45:52.000Z</time>
      </trkpt>
      <trkpt lat="49.86561" lon="4.81257">
        <ele>237</ele>
        <time>2021-08-14T09:45:53.000Z</time>
      </trkpt>
      <trkpt lat="49.86562" lon="4.81259">
        <ele>237</ele>
        <time>2021-08-14T09:45:54.000Z</time>
      </trkpt>
      <trkpt lat="49.86562" lon="4.81261">
        <ele>238</ele>
        <time>2021-08-14T09:45:55.000Z</time>
      </trkpt>
      <trkpt lat="49.86563" lon="4.81263">
        <ele>238</ele>
        <time>2021-08-14T09:45:56.000Z</time>
      </trkpt>
      <trkpt lat="49.86564" lon="4.81265">
        <ele>238</ele>
        <time>2021-08-14T09:45:57.000Z</time>
      </trkpt>
      <trkpt lat="49.86564" lon="4.81267">
        <ele>238</ele>
        <time>2021-08-14T09:45:58.000Z</time>
      </trkpt>
      <trkpt lat="49.86565" lon="4.81269">
        <ele>238</ele>
        <time>2021-08-14T09:45:59.000Z</time>
      </trkpt>
      <trkpt lat="49.86565" lon="4.81271">
        <ele>238</ele>
        <time>2021-08-14T09:46:00.000Z</time>
      </trkpt>
      <trkpt lat="49.86566" lon="4.81273">
        <ele>238</ele>
        <time>2021-08-14T09:46:01.000Z</time>
      </trkpt>
      <trkpt lat="49.86567" lon="4.81275">
        <ele>238</ele>
        <time>2021-08-14T09:46:02.000Z</time>
      </trkpt>
      <trkpt lat="49.86567" lon="4.81277">
        <ele>238</ele>
        <time>2021-08-14T09:46:03.000Z</time>
      </trkpt>
      <trkpt lat="49.86568" lon="4.81279">
        <ele>238</ele>
        <time>2021-08-14T09:46:04.000Z</time>
      </trkpt>
      <trkpt lat="49.86568" lon="4.81281">
        <ele>238</ele>
        <time>2021-08-14T09:46:05.000Z</time>
      </trkpt>
      <trkpt lat="49.86569" lon="4.81283">
        <ele>239</ele>
        <time>2021-08-14T09:46:06.000Z</time>
      </trkpt>
      <trkpt lat="49.8657" lon="4.81285">
        <ele>239</ele>
        <time>2021-08-14T09:46:07.000Z</time>
      </trkpt>
      <trkpt lat="49.86571" lon="4.81286">
        <ele>239</ele>
        <time>2021-08-14T09:46:08.000Z</time>
      </trkpt>
      <trkpt lat="49.86572" lon="4.81289">
        <ele>239</ele>
        <time>2021-08-14T09:46:09.000Z</time>
      </trkpt>
      <trkpt lat="49.86573" lon="4.81291">
        <ele>239</ele>
        <time>2021-08-14T09:46:10.000Z</time>
      </trkpt>
      <trkpt lat="49.86574" lon="4.81293">
        <ele>239</ele>
        <time>2021-08-14T09:46:11.000Z</time>
      </trkpt>
      <trkpt lat="49.86574" lon="4.81295">
        <ele>239</ele>
        <time>2021-08-14T09:46:12.000Z</time>
      </trkpt>
      <trkpt lat="49.86575" lon="4.81297">
        <ele>240</ele>
        <time>2021-08-14T09:46:13.000Z</time>
      </trkpt>
      <trkpt lat="49.86576" lon="4.81299">
        <ele>240</ele>
        <time>2021-08-14T09:46:14.000Z</time>
      </trkpt>
      <trkpt lat="49.86577" lon="4.813">
        <ele>240</ele>
        <time>2021-08-14T09:46:15.000Z</time>
      </trkpt>
      <trkpt lat="49.86577" lon="4.81303">
        <ele>240</ele>
        <time>2021-08-14T09:46:16.000Z</time>
      </trkpt>
      <trkpt lat="49.86578" lon="4.81304">
        <ele>240</ele>
        <time>2021-08-14T09:46:17.000Z</time>
      </trkpt>
      <trkpt lat="49.86579" lon="4.81306">
        <ele>240</ele>
        <time>2021-08-14T09:46:18.000Z</time>
      </trkpt>
      <trkpt lat="49.86579" lon="4.81307">
        <ele>240</ele>
        <time>2021-08-14T09:46:19.000Z</time>
      </trkpt>
      <trkpt lat="49.8658" lon="4.81309">
        <ele>241</ele>
        <time>2021-08-14T09:46:20.000Z</time>
      </trkpt>
      <trkpt lat="49.86581" lon="4.81311">
        <ele>241</ele>
        <time>2021-08-14T09:46:21.000Z</time>
      </trkpt>
      <trkpt lat="49.86582" lon="4.81313">
        <ele>241</ele>
        <time>2021-08-14T09:46:22.000Z</time>
      </trkpt>
      <trkpt lat="49.86582" lon="4.81314">
        <ele>241</ele>
        <time>2021-08-14T09:46:23.000Z</time>
      </trkpt>
      <trkpt lat="49.86582" lon="4.81316">
        <ele>241</ele>
        <time>2021-08-14T09:46:24.000Z</time>
      </trkpt>
      <trkpt lat="49.86582" lon="4.81317">
        <ele>242</ele>
        <time>2021-08-14T09:46:25.000Z</time>
      </trkpt>
      <trkpt lat="49.86583" lon="4.81319">
        <ele>242</ele>
        <time>2021-08-14T09:46:26.000Z</time>
      </trkpt>
      <trkpt lat="49.86583" lon="4.81321">
        <ele>242</ele>
        <time>2021-08-14T09:46:27.000Z</time>
      </trkpt>
      <trkpt lat="49.86584" lon="4.81322">
        <ele>242</ele>
        <time>2021-08-14T09:46:28.000Z</time>
      </trkpt>
      <trkpt lat="49.86585" lon="4.81324">
        <ele>242</ele>
        <time>2021-08-14T09:46:29.000Z</time>
      </trkpt>
      <trkpt lat="49.86586" lon="4.81325">
        <ele>243</ele>
        <time>2021-08-14T09:46:30.000Z</time>
      </trkpt>
      <trkpt lat="49.86587" lon="4.81327">
        <ele>243</ele>
        <time>2021-08-14T09:46:31.000Z</time>
      </trkpt>
      <trkpt lat="49.86588" lon="4.81328">
        <ele>243</ele>
        <time>2021-08-14T09:46:32.000Z</time>
      </trkpt>
      <trkpt lat="49.86589" lon="4.81329">
        <ele>244</ele>
        <time>2021-08-14T09:46:33.000Z</time>
      </trkpt>
      <trkpt lat="49.8659" lon="4.81331">
        <ele>244</ele>
        <time>2021-08-14T09:46:34.000Z</time>
      </trkpt>
      <trkpt lat="49.86591" lon="4.81332">
        <ele>244</ele>
        <time>2021-08-14T09:46:35.000Z</time>
      </trkpt>
      <trkpt lat="49.86592" lon="4.81333">
        <ele>245</ele>
        <time>2021-08-14T09:46:36.000Z</time>
      </trkpt>
      <trkpt lat="49.86592" lon="4.81334">
        <ele>245</ele>
        <time>2021-08-14T09:46:37.000Z</time>
      </trkpt>
      <trkpt lat="49.86593" lon="4.81336">
        <ele>245</ele>
        <time>2021-08-14T09:46:38.000Z</time>
      </trkpt>
      <trkpt lat="49.86594" lon="4.81337">
        <ele>246</ele>
        <time>2021-08-14T09:46:39.000Z</time>
      </trkpt>
      <trkpt lat="49.86595" lon="4.81338">
        <ele>246</ele>
        <time>2021-08-14T09:46:40.000Z</time>
      </trkpt>
      <trkpt lat="49.86596" lon="4.8134">
        <ele>246</ele>
        <time>2021-08-14T09:46:41.000Z</time>
      </trkpt>
      <trkpt lat="49.86596" lon="4.81341">
        <ele>247</ele>
        <time>2021-08-14T09:46:42.000Z</time>
      </trkpt>
      <trkpt lat="49.86597" lon="4.81342">
        <ele>247</ele>
        <time>2021-08-14T09:46:43.000Z</time>
      </trkpt>
      <trkpt lat="49.86598" lon="4.81343">
        <ele>247</ele>
        <time>2021-08-14T09:46:44.000Z</time>
      </trkpt>
      <trkpt lat="49.86598" lon="4.81344">
        <ele>247</ele>
        <time>2021-08-14T09:46:45.000Z</time>
      </trkpt>
      <trkpt lat="49.86599" lon="4.81345">
        <ele>247</ele>
        <time>2021-08-14T09:46:46.000Z</time>
      </trkpt>
      <trkpt lat="49.866" lon="4.81346">
        <ele>247</ele>
        <time>2021-08-14T09:46:47.000Z</time>
      </trkpt>
      <trkpt lat="49.86601" lon="4.81348">
        <ele>248</ele>
        <time>2021-08-14T09:46:48.000Z</time>
      </trkpt>
      <trkpt lat="49.86602" lon="4.81349">
        <ele>248</ele>
        <time>2021-08-14T09:46:49.000Z</time>
      </trkpt>
      <trkpt lat="49.86604" lon="4.81351">
        <ele>248</ele>
        <time>2021-08-14T09:46:50.000Z</time>
      </trkpt>
      <trkpt lat="49.86605" lon="4.81352">
        <ele>248</ele>
        <time>2021-08-14T09:46:51.000Z</time>
      </trkpt>
      <trkpt lat="49.86606" lon="4.81353">
        <ele>249</ele>
        <time>2021-08-14T09:46:52.000Z</time>
      </trkpt>
      <trkpt lat="49.86607" lon="4.81355">
        <ele>249</ele>
        <time>2021-08-14T09:46:53.000Z</time>
      </trkpt>
      <trkpt lat="49.86609" lon="4.81356">
        <ele>249</ele>
        <time>2021-08-14T09:46:54.000Z</time>
      </trkpt>
      <trkpt lat="49.8661" lon="4.81357">
        <ele>249</ele>
        <time>2021-08-14T09:46:55.000Z</time>
      </trkpt>
      <trkpt lat="49.8661" lon="4.81359">
        <ele>250</ele>
        <time>2021-08-14T09:46:56.000Z</time>
      </trkpt>
      <trkpt lat="49.86612" lon="4.81359">
        <ele>250</ele>
        <time>2021-08-14T09:46:57.000Z</time>
      </trkpt>
      <trkpt lat="49.86614" lon="4.8136">
        <ele>250</ele>
        <time>2021-08-14T09:46:58.000Z</time>
      </trkpt>
      <trkpt lat="49.86615" lon="4.81362">
        <ele>250</ele>
        <time>2021-08-14T09:46:59.000Z</time>
      </trkpt>
      <trkpt lat="49.86616" lon="4.81363">
        <ele>250</ele>
        <time>2021-08-14T09:47:00.000Z</time>
      </trkpt>
      <trkpt lat="49.86617" lon="4.81365">
        <ele>251</ele>
        <time>2021-08-14T09:47:01.000Z</time>
      </trkpt>
      <trkpt lat="49.86619" lon="4.81366">
        <ele>251</ele>
        <time>2021-08-14T09:47:02.000Z</time>
      </trkpt>
      <trkpt lat="49.8662" lon="4.81368">
        <ele>251</ele>
        <time>2021-08-14T09:47:03.000Z</time>
      </trkpt>
      <trkpt lat="49.86622" lon="4.81369">
        <ele>251</ele>
        <time>2021-08-14T09:47:04.000Z</time>
      </trkpt>
      <trkpt lat="49.86623" lon="4.81371">
        <ele>252</ele>
        <time>2021-08-14T09:47:05.000Z</time>
      </trkpt>
      <trkpt lat="49.86625" lon="4.81372">
        <ele>252</ele>
        <time>2021-08-14T09:47:06.000Z</time>
      </trkpt>
      <trkpt lat="49.86626" lon="4.81373">
        <ele>252</ele>
        <time>2021-08-14T09:47:07.000Z</time>
      </trkpt>
      <trkpt lat="49.86627" lon="4.81375">
        <ele>253</ele>
        <time>2021-08-14T09:47:08.000Z</time>
      </trkpt>
      <trkpt lat="49.86628" lon="4.81376">
        <ele>253</ele>
        <time>2021-08-14T09:47:09.000Z</time>
      </trkpt>
      <trkpt lat="49.86629" lon="4.81378">
        <ele>253</ele>
        <time>2021-08-14T09:47:10.000Z</time>
      </trkpt>
      <trkpt lat="49.8663" lon="4.81379">
        <ele>254</ele>
        <time>2021-08-14T09:47:11.000Z</time>
      </trkpt>
      <trkpt lat="49.86632" lon="4.8138">
        <ele>254</ele>
        <time>2021-08-14T09:47:12.000Z</time>
      </trkpt>
      <trkpt lat="49.86633" lon="4.81381">
        <ele>254</ele>
        <time>2021-08-14T09:47:13.000Z</time>
      </trkpt>
      <trkpt lat="49.86633" lon="4.81382">
        <ele>255</ele>
        <time>2021-08-14T09:47:14.000Z</time>
      </trkpt>
      <trkpt lat="49.86635" lon="4.81382">
        <ele>255</ele>
        <time>2021-08-14T09:47:15.000Z</time>
      </trkpt>
      <trkpt lat="49.86636" lon="4.81383">
        <ele>256</ele>
        <time>2021-08-14T09:47:16.000Z</time>
      </trkpt>
      <trkpt lat="49.86637" lon="4.81383">
        <ele>256</ele>
        <time>2021-08-14T09:47:17.000Z</time>
      </trkpt>
      <trkpt lat="49.86638" lon="4.81384">
        <ele>256</ele>
        <time>2021-08-14T09:47:18.000Z</time>
      </trkpt>
      <trkpt lat="49.86638" lon="4.81384">
        <ele>257</ele>
        <time>2021-08-14T09:47:19.000Z</time>
      </trkpt>
      <trkpt lat="49.86639" lon="4.81385">
        <ele>257</ele>
        <time>2021-08-14T09:47:20.000Z</time>
      </trkpt>
      <trkpt lat="49.8664" lon="4.81386">
        <ele>257</ele>
        <time>2021-08-14T09:47:21.000Z</time>
      </trkpt>
      <trkpt lat="49.86641" lon="4.81386">
        <ele>257</ele>
        <time>2021-08-14T09:47:22.000Z</time>
      </trkpt>
      <trkpt lat="49.86642" lon="4.81387">
        <ele>258</ele>
        <time>2021-08-14T09:47:23.000Z</time>
      </trkpt>
      <trkpt lat="49.86643" lon="4.81389">
        <ele>258</ele>
        <time>2021-08-14T09:47:24.000Z</time>
      </trkpt>
      <trkpt lat="49.86645" lon="4.8139">
        <ele>258</ele>
        <time>2021-08-14T09:47:25.000Z</time>
      </trkpt>
      <trkpt lat="49.86647" lon="4.8139">
        <ele>258</ele>
        <time>2021-08-14T09:47:26.000Z</time>
      </trkpt>
      <trkpt lat="49.86648" lon="4.81391">
        <ele>259</ele>
        <time>2021-08-14T09:47:27.000Z</time>
      </trkpt>
      <trkpt lat="49.86649" lon="4.81392">
        <ele>259</ele>
        <time>2021-08-14T09:47:28.000Z</time>
      </trkpt>
      <trkpt lat="49.86651" lon="4.81394">
        <ele>259</ele>
        <time>2021-08-14T09:47:29.000Z</time>
      </trkpt>
      <trkpt lat="49.86652" lon="4.81395">
        <ele>260</ele>
        <time>2021-08-14T09:47:30.000Z</time>
      </trkpt>
      <trkpt lat="49.86654" lon="4.81396">
        <ele>260</ele>
        <time>2021-08-14T09:47:31.000Z</time>
      </trkpt>
      <trkpt lat="49.86656" lon="4.81397">
        <ele>260</ele>
        <time>2021-08-14T09:47:32.000Z</time>
      </trkpt>
      <trkpt lat="49.86657" lon="4.81398">
        <ele>260</ele>
        <time>2021-08-14T09:47:33.000Z</time>
      </trkpt>
      <trkpt lat="49.86658" lon="4.814">
        <ele>261</ele>
        <time>2021-08-14T09:47:34.000Z</time>
      </trkpt>
      <trkpt lat="49.86659" lon="4.81401">
        <ele>261</ele>
        <time>2021-08-14T09:47:35.000Z</time>
      </trkpt>
      <trkpt lat="49.8666" lon="4.81402">
        <ele>261</ele>
        <time>2021-08-14T09:47:36.000Z</time>
      </trkpt>
      <trkpt lat="49.86661" lon="4.81403">
        <ele>262</ele>
        <time>2021-08-14T09:47:37.000Z</time>
      </trkpt>
      <trkpt lat="49.86663" lon="4.81404">
        <ele>262</ele>
        <time>2021-08-14T09:47:38.000Z</time>
      </trkpt>
      <trkpt lat="49.86664" lon="4.81406">
        <ele>262</ele>
        <time>2021-08-14T09:47:39.000Z</time>
      </trkpt>
      <trkpt lat="49.86666" lon="4.81407">
        <ele>262</ele>
        <time>2021-08-14T09:47:40.000Z</time>
      </trkpt>
      <trkpt lat="49.86668" lon="4.81408">
        <ele>263</ele>
        <time>2021-08-14T09:47:41.000Z</time>
      </trkpt>
      <trkpt lat="49.86669" lon="4.81409">
        <ele>263</ele>
        <time>2021-08-14T09:47:42.000Z</time>
      </trkpt>
      <trkpt lat="49.8667" lon="4.81411">
        <ele>263</ele>
        <time>2021-08-14T09:47:43.000Z</time>
      </trkpt>
      <trkpt lat="49.86672" lon="4.81412">
        <ele>263</ele>
        <time>2021-08-14T09:47:44.000Z</time>
      </trkpt>
      <trkpt lat="49.86673" lon="4.81413">
        <ele>263</ele>
        <time>2021-08-14T09:47:45.000Z</time>
      </trkpt>
      <trkpt lat="49.86674" lon="4.81414">
        <ele>264</ele>
        <time>2021-08-14T09:47:46.000Z</time>
      </trkpt>
      <trkpt lat="49.86675" lon="4.81415">
        <ele>264</ele>
        <time>2021-08-14T09:47:47.000Z</time>
      </trkpt>
      <trkpt lat="49.86677" lon="4.81416">
        <ele>264</ele>
        <time>2021-08-14T09:47:48.000Z</time>
      </trkpt>
      <trkpt lat="49.86678" lon="4.81417">
        <ele>264</ele>
        <time>2021-08-14T09:47:49.000Z</time>
      </trkpt>
      <trkpt lat="49.8668" lon="4.81417">
        <ele>264</ele>
        <time>2021-08-14T09:47:50.000Z</time>
      </trkpt>
      <trkpt lat="49.86681" lon="4.81418">
        <ele>264</ele>
        <time>2021-08-14T09:47:51.000Z</time>
      </trkpt>
      <trkpt lat="49.86683" lon="4.81418">
        <ele>264</ele>
        <time>2021-08-14T09:47:52.000Z</time>
      </trkpt>
      <trkpt lat="49.86684" lon="4.81418">
        <ele>264</ele>
        <time>2021-08-14T09:47:53.000Z</time>
      </trkpt>
      <trkpt lat="49.86684" lon="4.81419">
        <ele>265</ele>
        <time>2021-08-14T09:47:54.000Z</time>
      </trkpt>
      <trkpt lat="49.86685" lon="4.81419">
        <ele>265</ele>
        <time>2021-08-14T09:47:55.000Z</time>
      </trkpt>
      <trkpt lat="49.86686" lon="4.81419">
        <ele>265</ele>
        <time>2021-08-14T09:47:56.000Z</time>
      </trkpt>
      <trkpt lat="49.86687" lon="4.8142">
        <ele>265</ele>
        <time>2021-08-14T09:47:57.000Z</time>
      </trkpt>
      <trkpt lat="49.86688" lon="4.8142">
        <ele>266</ele>
        <time>2021-08-14T09:47:58.000Z</time>
      </trkpt>
      <trkpt lat="49.86689" lon="4.8142">
        <ele>266</ele>
        <time>2021-08-14T09:47:59.000Z</time>
      </trkpt>
      <trkpt lat="49.86691" lon="4.8142">
        <ele>266</ele>
        <time>2021-08-14T09:48:00.000Z</time>
      </trkpt>
      <trkpt lat="49.86692" lon="4.8142">
        <ele>267</ele>
        <time>2021-08-14T09:48:01.000Z</time>
      </trkpt>
      <trkpt lat="49.86694" lon="4.8142">
        <ele>267</ele>
        <time>2021-08-14T09:48:02.000Z</time>
      </trkpt>
      <trkpt lat="49.86695" lon="4.8142">
        <ele>268</ele>
        <time>2021-08-14T09:48:03.000Z</time>
      </trkpt>
      <trkpt lat="49.86696" lon="4.8142">
        <ele>268</ele>
        <time>2021-08-14T09:48:04.000Z</time>
      </trkpt>
      <trkpt lat="49.86698" lon="4.81421">
        <ele>268</ele>
        <time>2021-08-14T09:48:05.000Z</time>
      </trkpt>
      <trkpt lat="49.86699" lon="4.81421">
        <ele>268</ele>
        <time>2021-08-14T09:48:06.000Z</time>
      </trkpt>
      <trkpt lat="49.86699" lon="4.81421">
        <ele>269</ele>
        <time>2021-08-14T09:48:07.000Z</time>
      </trkpt>
      <trkpt lat="49.867" lon="4.81421">
        <ele>269</ele>
        <time>2021-08-14T09:48:08.000Z</time>
      </trkpt>
      <trkpt lat="49.86701" lon="4.81421">
        <ele>269</ele>
        <time>2021-08-14T09:48:09.000Z</time>
      </trkpt>
      <trkpt lat="49.86702" lon="4.81422">
        <ele>269</ele>
        <time>2021-08-14T09:48:10.000Z</time>
      </trkpt>
      <trkpt lat="49.86704" lon="4.81422">
        <ele>270</ele>
        <time>2021-08-14T09:48:11.000Z</time>
      </trkpt>
      <trkpt lat="49.86706" lon="4.81422">
        <ele>270</ele>
        <time>2021-08-14T09:48:12.000Z</time>
      </trkpt>
      <trkpt lat="49.86707" lon="4.81422">
        <ele>270</ele>
        <time>2021-08-14T09:48:13.000Z</time>
      </trkpt>
      <trkpt lat="49.86708" lon="4.81422">
        <ele>270</ele>
        <time>2021-08-14T09:48:14.000Z</time>
      </trkpt>
      <trkpt lat="49.8671" lon="4.81422">
        <ele>270</ele>
        <time>2021-08-14T09:48:15.000Z</time>
      </trkpt>
      <trkpt lat="49.86712" lon="4.81423">
        <ele>271</ele>
        <time>2021-08-14T09:48:16.000Z</time>
      </trkpt>
      <trkpt lat="49.86713" lon="4.81423">
        <ele>271</ele>
        <time>2021-08-14T09:48:17.000Z</time>
      </trkpt>
      <trkpt lat="49.86715" lon="4.81423">
        <ele>271</ele>
        <time>2021-08-14T09:48:18.000Z</time>
      </trkpt>
      <trkpt lat="49.86716" lon="4.81423">
        <ele>271</ele>
        <time>2021-08-14T09:48:19.000Z</time>
      </trkpt>
      <trkpt lat="49.86718" lon="4.81423">
        <ele>271</ele>
        <time>2021-08-14T09:48:20.000Z</time>
      </trkpt>
      <trkpt lat="49.86719" lon="4.81424">
        <ele>272</ele>
        <time>2021-08-14T09:48:21.000Z</time>
      </trkpt>
      <trkpt lat="49.8672" lon="4.81424">
        <ele>272</ele>
        <time>2021-08-14T09:48:22.000Z</time>
      </trkpt>
      <trkpt lat="49.86722" lon="4.81425">
        <ele>272</ele>
        <time>2021-08-14T09:48:23.000Z</time>
      </trkpt>
      <trkpt lat="49.86723" lon="4.81425">
        <ele>272</ele>
        <time>2021-08-14T09:48:24.000Z</time>
      </trkpt>
      <trkpt lat="49.86724" lon="4.81425">
        <ele>273</ele>
        <time>2021-08-14T09:48:25.000Z</time>
      </trkpt>
      <trkpt lat="49.86726" lon="4.81425">
        <ele>273</ele>
        <time>2021-08-14T09:48:26.000Z</time>
      </trkpt>
      <trkpt lat="49.86727" lon="4.81424">
        <ele>273</ele>
        <time>2021-08-14T09:48:27.000Z</time>
      </trkpt>
      <trkpt lat="49.86729" lon="4.81424">
        <ele>273</ele>
        <time>2021-08-14T09:48:28.000Z</time>
      </trkpt>
      <trkpt lat="49.8673" lon="4.81424">
        <ele>274</ele>
        <time>2021-08-14T09:48:29.000Z</time>
      </trkpt>
      <trkpt lat="49.86731" lon="4.81424">
        <ele>274</ele>
        <time>2021-08-14T09:48:30.000Z</time>
      </trkpt>
      <trkpt lat="49.86733" lon="4.81424">
        <ele>274</ele>
        <time>2021-08-14T09:48:31.000Z</time>
      </trkpt>
      <trkpt lat="49.86735" lon="4.81425">
        <ele>274</ele>
        <time>2021-08-14T09:48:32.000Z</time>
      </trkpt>
      <trkpt lat="49.86736" lon="4.81425">
        <ele>275</ele>
        <time>2021-08-14T09:48:33.000Z</time>
      </trkpt>
      <trkpt lat="49.86736" lon="4.81425">
        <ele>275</ele>
        <time>2021-08-14T09:48:34.000Z</time>
      </trkpt>
      <trkpt lat="49.86737" lon="4.81425">
        <ele>275</ele>
        <time>2021-08-14T09:48:35.000Z</time>
      </trkpt>
      <trkpt lat="49.86738" lon="4.81426">
        <ele>276</ele>
        <time>2021-08-14T09:48:36.000Z</time>
      </trkpt>
      <trkpt lat="49.86739" lon="4.81426">
        <ele>276</ele>
        <time>2021-08-14T09:48:37.000Z</time>
      </trkpt>
      <trkpt lat="49.8674" lon="4.81426">
        <ele>276</ele>
        <time>2021-08-14T09:48:38.000Z</time>
      </trkpt>
      <trkpt lat="49.86741" lon="4.81427">
        <ele>277</ele>
        <time>2021-08-14T09:48:39.000Z</time>
      </trkpt>
      <trkpt lat="49.86743" lon="4.81427">
        <ele>277</ele>
        <time>2021-08-14T09:48:40.000Z</time>
      </trkpt>
      <trkpt lat="49.86744" lon="4.81427">
        <ele>277</ele>
        <time>2021-08-14T09:48:41.000Z</time>
      </trkpt>
      <trkpt lat="49.86746" lon="4.81428">
        <ele>277</ele>
        <time>2021-08-14T09:48:42.000Z</time>
      </trkpt>
      <trkpt lat="49.86747" lon="4.81428">
        <ele>278</ele>
        <time>2021-08-14T09:48:43.000Z</time>
      </trkpt>
      <trkpt lat="49.86748" lon="4.81429">
        <ele>278</ele>
        <time>2021-08-14T09:48:44.000Z</time>
      </trkpt>
      <trkpt lat="49.8675" lon="4.81429">
        <ele>278</ele>
        <time>2021-08-14T09:48:45.000Z</time>
      </trkpt>
      <trkpt lat="49.86751" lon="4.81429">
        <ele>278</ele>
        <time>2021-08-14T09:48:46.000Z</time>
      </trkpt>
      <trkpt lat="49.86752" lon="4.8143">
        <ele>279</ele>
        <time>2021-08-14T09:48:47.000Z</time>
      </trkpt>
      <trkpt lat="49.86753" lon="4.8143">
        <ele>279</ele>
        <time>2021-08-14T09:48:48.000Z</time>
      </trkpt>
      <trkpt lat="49.86755" lon="4.8143">
        <ele>279</ele>
        <time>2021-08-14T09:48:49.000Z</time>
      </trkpt>
      <trkpt lat="49.86756" lon="4.8143">
        <ele>279</ele>
        <time>2021-08-14T09:48:50.000Z</time>
      </trkpt>
      <trkpt lat="49.86758" lon="4.8143">
        <ele>280</ele>
        <time>2021-08-14T09:48:51.000Z</time>
      </trkpt>
      <trkpt lat="49.86759" lon="4.8143">
        <ele>280</ele>
        <time>2021-08-14T09:48:52.000Z</time>
      </trkpt>
      <trkpt lat="49.8676" lon="4.8143">
        <ele>280</ele>
        <time>2021-08-14T09:48:53.000Z</time>
      </trkpt>
      <trkpt lat="49.86762" lon="4.8143">
        <ele>281</ele>
        <time>2021-08-14T09:48:54.000Z</time>
      </trkpt>
      <trkpt lat="49.86763" lon="4.81431">
        <ele>281</ele>
        <time>2021-08-14T09:48:55.000Z</time>
      </trkpt>
      <trkpt lat="49.86765" lon="4.81431">
        <ele>281</ele>
        <time>2021-08-14T09:48:56.000Z</time>
      </trkpt>
      <trkpt lat="49.86766" lon="4.81432">
        <ele>282</ele>
        <time>2021-08-14T09:48:57.000Z</time>
      </trkpt>
      <trkpt lat="49.86767" lon="4.81432">
        <ele>282</ele>
        <time>2021-08-14T09:48:58.000Z</time>
      </trkpt>
      <trkpt lat="49.86769" lon="4.81432">
        <ele>282</ele>
        <time>2021-08-14T09:48:59.000Z</time>
      </trkpt>
      <trkpt lat="49.8677" lon="4.81433">
        <ele>283</ele>
        <time>2021-08-14T09:49:00.000Z</time>
      </trkpt>
      <trkpt lat="49.86771" lon="4.81433">
        <ele>283</ele>
        <time>2021-08-14T09:49:01.000Z</time>
      </trkpt>
      <trkpt lat="49.86773" lon="4.81433">
        <ele>283</ele>
        <time>2021-08-14T09:49:02.000Z</time>
      </trkpt>
      <trkpt lat="49.86774" lon="4.81434">
        <ele>283</ele>
        <time>2021-08-14T09:49:03.000Z</time>
      </trkpt>
      <trkpt lat="49.86775" lon="4.81433">
        <ele>284</ele>
        <time>2021-08-14T09:49:04.000Z</time>
      </trkpt>
      <trkpt lat="49.86776" lon="4.81433">
        <ele>284</ele>
        <time>2021-08-14T09:49:05.000Z</time>
      </trkpt>
      <trkpt lat="49.86778" lon="4.81433">
        <ele>284</ele>
        <time>2021-08-14T09:49:06.000Z</time>
      </trkpt>
      <trkpt lat="49.86779" lon="4.81433">
        <ele>285</ele>
        <time>2021-08-14T09:49:07.000Z</time>
      </trkpt>
      <trkpt lat="49.86781" lon="4.81433">
        <ele>285</ele>
        <time>2021-08-14T09:49:08.000Z</time>
      </trkpt>
      <trkpt lat="49.86782" lon="4.81433">
        <ele>285</ele>
        <time>2021-08-14T09:49:09.000Z</time>
      </trkpt>
      <trkpt lat="49.86783" lon="4.81433">
        <ele>285</ele>
        <time>2021-08-14T09:49:10.000Z</time>
      </trkpt>
      <trkpt lat="49.86784" lon="4.81432">
        <ele>286</ele>
        <time>2021-08-14T09:49:11.000Z</time>
      </trkpt>
      <trkpt lat="49.86785" lon="4.81432">
        <ele>286</ele>
        <time>2021-08-14T09:49:12.000Z</time>
      </trkpt>
      <trkpt lat="49.86787" lon="4.81432">
        <ele>286</ele>
        <time>2021-08-14T09:49:13.000Z</time>
      </trkpt>
      <trkpt lat="49.86788" lon="4.81432">
        <ele>287</ele>
        <time>2021-08-14T09:49:14.000Z</time>
      </trkpt>
      <trkpt lat="49.86789" lon="4.81432">
        <ele>287</ele>
        <time>2021-08-14T09:49:15.000Z</time>
      </trkpt>
      <trkpt lat="49.86791" lon="4.81432">
        <ele>287</ele>
        <time>2021-08-14T09:49:16.000Z</time>
      </trkpt>
      <trkpt lat="49.86792" lon="4.81432">
        <ele>288</ele>
        <time>2021-08-14T09:49:17.000Z</time>
      </trkpt>
      <trkpt lat="49.86794" lon="4.81431">
        <ele>288</ele>
        <time>2021-08-14T09:49:18.000Z</time>
      </trkpt>
      <trkpt lat="49.86795" lon="4.81431">
        <ele>288</ele>
        <time>2021-08-14T09:49:19.000Z</time>
      </trkpt>
      <trkpt lat="49.86797" lon="4.81431">
        <ele>288</ele>
        <time>2021-08-14T09:49:20.000Z</time>
      </trkpt>
      <trkpt lat="49.86798" lon="4.81431">
        <ele>289</ele>
        <time>2021-08-14T09:49:21.000Z</time>
      </trkpt>
      <trkpt lat="49.86799" lon="4.81431">
        <ele>289</ele>
        <time>2021-08-14T09:49:22.000Z</time>
      </trkpt>
      <trkpt lat="49.86801" lon="4.81431">
        <ele>289</ele>
        <time>2021-08-14T09:49:23.000Z</time>
      </trkpt>
      <trkpt lat="49.86802" lon="4.81431">
        <ele>289</ele>
        <time>2021-08-14T09:49:24.000Z</time>
      </trkpt>
      <trkpt lat="49.86804" lon="4.81432">
        <ele>289</ele>
        <time>2021-08-14T09:49:25.000Z</time>
      </trkpt>
      <trkpt lat="49.86805" lon="4.81432">
        <ele>290</ele>
        <time>2021-08-14T09:49:26.000Z</time>
      </trkpt>
      <trkpt lat="49.86806" lon="4.81432">
        <ele>290</ele>
        <time>2021-08-14T09:49:27.000Z</time>
      </trkpt>
      <trkpt lat="49.86808" lon="4.81432">
        <ele>290</ele>
        <time>2021-08-14T09:49:28.000Z</time>
      </trkpt>
      <trkpt lat="49.86809" lon="4.81433">
        <ele>290</ele>
        <time>2021-08-14T09:49:29.000Z</time>
      </trkpt>
      <trkpt lat="49.8681" lon="4.81433">
        <ele>291</ele>
        <time>2021-08-14T09:49:30.000Z</time>
      </trkpt>
      <trkpt lat="49.86811" lon="4.81433">
        <ele>291</ele>
        <time>2021-08-14T09:49:31.000Z</time>
      </trkpt>
      <trkpt lat="49.86812" lon="4.81433">
        <ele>291</ele>
        <time>2021-08-14T09:49:32.000Z</time>
      </trkpt>
      <trkpt lat="49.86814" lon="4.81434">
        <ele>291</ele>
        <time>2021-08-14T09:49:33.000Z</time>
      </trkpt>
      <trkpt lat="49.86815" lon="4.81434">
        <ele>291</ele>
        <time>2021-08-14T09:49:34.000Z</time>
      </trkpt>
      <trkpt lat="49.86816" lon="4.81434">
        <ele>291</ele>
        <time>2021-08-14T09:49:35.000Z</time>
      </trkpt>
      <trkpt lat="49.86817" lon="4.81434">
        <ele>292</ele>
        <time>2021-08-14T09:49:36.000Z</time>
      </trkpt>
      <trkpt lat="49.86818" lon="4.81435">
        <ele>292</ele>
        <time>2021-08-14T09:49:37.000Z</time>
      </trkpt>
      <trkpt lat="49.86819" lon="4.81435">
        <ele>292</ele>
        <time>2021-08-14T09:49:38.000Z</time>
      </trkpt>
      <trkpt lat="49.86821" lon="4.81435">
        <ele>292</ele>
        <time>2021-08-14T09:49:39.000Z</time>
      </trkpt>
      <trkpt lat="49.86822" lon="4.81435">
        <ele>292</ele>
        <time>2021-08-14T09:49:40.000Z</time>
      </trkpt>
      <trkpt lat="49.86823" lon="4.81435">
        <ele>293</ele>
        <time>2021-08-14T09:49:41.000Z</time>
      </trkpt>
      <trkpt lat="49.86824" lon="4.81436">
        <ele>293</ele>
        <time>2021-08-14T09:49:42.000Z</time>
      </trkpt>
      <trkpt lat="49.86825" lon="4.81436">
        <ele>293</ele>
        <time>2021-08-14T09:49:43.000Z</time>
      </trkpt>
      <trkpt lat="49.86826" lon="4.81437">
        <ele>293</ele>
        <time>2021-08-14T09:49:44.000Z</time>
      </trkpt>
      <trkpt lat="49.86828" lon="4.81438">
        <ele>293</ele>
        <time>2021-08-14T09:49:45.000Z</time>
      </trkpt>
      <trkpt lat="49.86829" lon="4.81438">
        <ele>294</ele>
        <time>2021-08-14T09:49:46.000Z</time>
      </trkpt>
      <trkpt lat="49.8683" lon="4.81439">
        <ele>294</ele>
        <time>2021-08-14T09:49:47.000Z</time>
      </trkpt>
      <trkpt lat="49.86832" lon="4.8144">
        <ele>294</ele>
        <time>2021-08-14T09:49:48.000Z</time>
      </trkpt>
      <trkpt lat="49.86833" lon="4.81441">
        <ele>294</ele>
        <time>2021-08-14T09:49:49.000Z</time>
      </trkpt>
      <trkpt lat="49.86834" lon="4.81441">
        <ele>295</ele>
        <time>2021-08-14T09:49:50.000Z</time>
      </trkpt>
      <trkpt lat="49.86835" lon="4.81442">
        <ele>295</ele>
        <time>2021-08-14T09:49:51.000Z</time>
      </trkpt>
      <trkpt lat="49.86836" lon="4.81443">
        <ele>295</ele>
        <time>2021-08-14T09:49:52.000Z</time>
      </trkpt>
      <trkpt lat="49.86837" lon="4.81443">
        <ele>295</ele>
        <time>2021-08-14T09:49:53.000Z</time>
      </trkpt>
      <trkpt lat="49.86838" lon="4.81444">
        <ele>295</ele>
        <time>2021-08-14T09:49:54.000Z</time>
      </trkpt>
      <trkpt lat="49.8684" lon="4.81446">
        <ele>296</ele>
        <time>2021-08-14T09:49:55.000Z</time>
      </trkpt>
      <trkpt lat="49.86841" lon="4.81447">
        <ele>296</ele>
        <time>2021-08-14T09:49:56.000Z</time>
      </trkpt>
      <trkpt lat="49.86843" lon="4.81448">
        <ele>296</ele>
        <time>2021-08-14T09:49:57.000Z</time>
      </trkpt>
      <trkpt lat="49.86844" lon="4.81449">
        <ele>296</ele>
        <time>2021-08-14T09:49:58.000Z</time>
      </trkpt>
      <trkpt lat="49.86845" lon="4.81449">
        <ele>297</ele>
        <time>2021-08-14T09:49:59.000Z</time>
      </trkpt>
      <trkpt lat="49.86846" lon="4.8145">
        <ele>297</ele>
        <time>2021-08-14T09:50:00.000Z</time>
      </trkpt>
      <trkpt lat="49.86846" lon="4.8145">
        <ele>297</ele>
        <time>2021-08-14T09:50:01.000Z</time>
      </trkpt>
      <trkpt lat="49.86847" lon="4.81451">
        <ele>297</ele>
        <time>2021-08-14T09:50:02.000Z</time>
      </trkpt>
      <trkpt lat="49.86847" lon="4.81452">
        <ele>297</ele>
        <time>2021-08-14T09:50:03.000Z</time>
      </trkpt>
      <trkpt lat="49.86847" lon="4.81453">
        <ele>297</ele>
        <time>2021-08-14T09:50:04.000Z</time>
      </trkpt>
      <trkpt lat="49.86847" lon="4.81453">
        <ele>297</ele>
        <time>2021-08-14T09:50:05.000Z</time>
      </trkpt>
      <trkpt lat="49.86847" lon="4.81453">
        <ele>297</ele>
        <time>2021-08-14T09:50:06.000Z</time>
      </trkpt>
      <trkpt lat="49.86848" lon="4.81454">
        <ele>297</ele>
        <time>2021-08-14T09:50:07.000Z</time>
      </trkpt>
      <trkpt lat="49.86848" lon="4.81454">
        <ele>298</ele>
        <time>2021-08-14T09:50:08.000Z</time>
      </trkpt>
      <trkpt lat="49.86848" lon="4.81455">
        <ele>298</ele>
        <time>2021-08-14T09:50:09.000Z</time>
      </trkpt>
      <trkpt lat="49.86849" lon="4.81455">
        <ele>298</ele>
        <time>2021-08-14T09:50:10.000Z</time>
      </trkpt>
      <trkpt lat="49.8685" lon="4.81456">
        <ele>298</ele>
        <time>2021-08-14T09:50:11.000Z</time>
      </trkpt>
      <trkpt lat="49.8685" lon="4.81457">
        <ele>298</ele>
        <time>2021-08-14T09:50:12.000Z</time>
      </trkpt>
      <trkpt lat="49.86851" lon="4.81458">
        <ele>298</ele>
        <time>2021-08-14T09:50:13.000Z</time>
      </trkpt>
      <trkpt lat="49.86851" lon="4.8146">
        <ele>298</ele>
        <time>2021-08-14T09:50:14.000Z</time>
      </trkpt>
      <trkpt lat="49.86852" lon="4.81461">
        <ele>298</ele>
        <time>2021-08-14T09:50:15.000Z</time>
      </trkpt>
      <trkpt lat="49.86853" lon="4.81462">
        <ele>298</ele>
        <time>2021-08-14T09:50:16.000Z</time>
      </trkpt>
      <trkpt lat="49.86854" lon="4.81464">
        <ele>299</ele>
        <time>2021-08-14T09:50:17.000Z</time>
      </trkpt>
      <trkpt lat="49.86854" lon="4.81465">
        <ele>299</ele>
        <time>2021-08-14T09:50:18.000Z</time>
      </trkpt>
      <trkpt lat="49.86854" lon="4.81467">
        <ele>299</ele>
        <time>2021-08-14T09:50:19.000Z</time>
      </trkpt>
      <trkpt lat="49.86854" lon="4.81468">
        <ele>299</ele>
        <time>2021-08-14T09:50:20.000Z</time>
      </trkpt>
      <trkpt lat="49.86855" lon="4.81469">
        <ele>299</ele>
        <time>2021-08-14T09:50:21.000Z</time>
      </trkpt>
      <trkpt lat="49.86856" lon="4.81471">
        <ele>299</ele>
        <time>2021-08-14T09:50:22.000Z</time>
      </trkpt>
      <trkpt lat="49.86856" lon="4.81472">
        <ele>299</ele>
        <time>2021-08-14T09:50:23.000Z</time>
      </trkpt>
      <trkpt lat="49.86857" lon="4.81474">
        <ele>299</ele>
        <time>2021-08-14T09:50:24.000Z</time>
      </trkpt>
      <trkpt lat="49.86858" lon="4.81475">
        <ele>300</ele>
        <time>2021-08-14T09:50:25.000Z</time>
      </trkpt>
      <trkpt lat="49.86859" lon="4.81476">
        <ele>300</ele>
        <time>2021-08-14T09:50:26.000Z</time>
      </trkpt>
      <trkpt lat="49.86859" lon="4.81478">
        <ele>300</ele>
        <time>2021-08-14T09:50:27.000Z</time>
      </trkpt>
      <trkpt lat="49.8686" lon="4.81479">
        <ele>300</ele>
        <time>2021-08-14T09:50:28.000Z</time>
      </trkpt>
      <trkpt lat="49.86861" lon="4.8148">
        <ele>300</ele>
        <time>2021-08-14T09:50:29.000Z</time>
      </trkpt>
      <trkpt lat="49.86862" lon="4.81482">
        <ele>300</ele>
        <time>2021-08-14T09:50:30.000Z</time>
      </trkpt>
      <trkpt lat="49.86862" lon="4.81483">
        <ele>300</ele>
        <time>2021-08-14T09:50:31.000Z</time>
      </trkpt>
      <trkpt lat="49.86863" lon="4.81484">
        <ele>301</ele>
        <time>2021-08-14T09:50:32.000Z</time>
      </trkpt>
      <trkpt lat="49.86864" lon="4.81486">
        <ele>301</ele>
        <time>2021-08-14T09:50:33.000Z</time>
      </trkpt>
      <trkpt lat="49.86864" lon="4.81487">
        <ele>301</ele>
        <time>2021-08-14T09:50:34.000Z</time>
      </trkpt>
      <trkpt lat="49.86865" lon="4.81489">
        <ele>301</ele>
        <time>2021-08-14T09:50:35.000Z</time>
      </trkpt>
      <trkpt lat="49.86866" lon="4.8149">
        <ele>301</ele>
        <time>2021-08-14T09:50:36.000Z</time>
      </trkpt>
      <trkpt lat="49.86866" lon="4.81492">
        <ele>302</ele>
        <time>2021-08-14T09:50:37.000Z</time>
      </trkpt>
      <trkpt lat="49.86867" lon="4.81494">
        <ele>302</ele>
        <time>2021-08-14T09:50:38.000Z</time>
      </trkpt>
      <trkpt lat="49.86867" lon="4.81495">
        <ele>302</ele>
        <time>2021-08-14T09:50:39.000Z</time>
      </trkpt>
      <trkpt lat="49.86868" lon="4.81496">
        <ele>303</ele>
        <time>2021-08-14T09:50:40.000Z</time>
      </trkpt>
      <trkpt lat="49.86868" lon="4.81498">
        <ele>303</ele>
        <time>2021-08-14T09:50:41.000Z</time>
      </trkpt>
      <trkpt lat="49.86868" lon="4.81499">
        <ele>303</ele>
        <time>2021-08-14T09:50:42.000Z</time>
      </trkpt>
      <trkpt lat="49.86869" lon="4.81501">
        <ele>303</ele>
        <time>2021-08-14T09:50:43.000Z</time>
      </trkpt>
      <trkpt lat="49.86869" lon="4.81502">
        <ele>304</ele>
        <time>2021-08-14T09:50:44.000Z</time>
      </trkpt>
      <trkpt lat="49.8687" lon="4.81504">
        <ele>304</ele>
        <time>2021-08-14T09:50:45.000Z</time>
      </trkpt>
      <trkpt lat="49.8687" lon="4.81506">
        <ele>304</ele>
        <time>2021-08-14T09:50:46.000Z</time>
      </trkpt>
      <trkpt lat="49.8687" lon="4.81507">
        <ele>304</ele>
        <time>2021-08-14T09:50:47.000Z</time>
      </trkpt>
      <trkpt lat="49.8687" lon="4.81508">
        <ele>305</ele>
        <time>2021-08-14T09:50:48.000Z</time>
      </trkpt>
      <trkpt lat="49.8687" lon="4.8151">
        <ele>305</ele>
        <time>2021-08-14T09:50:49.000Z</time>
      </trkpt>
      <trkpt lat="49.86871" lon="4.81511">
        <ele>305</ele>
        <time>2021-08-14T09:50:50.000Z</time>
      </trkpt>
      <trkpt lat="49.86871" lon="4.81513">
        <ele>305</ele>
        <time>2021-08-14T09:50:51.000Z</time>
      </trkpt>
      <trkpt lat="49.86872" lon="4.81514">
        <ele>305</ele>
        <time>2021-08-14T09:50:52.000Z</time>
      </trkpt>
      <trkpt lat="49.86873" lon="4.81516">
        <ele>306</ele>
        <time>2021-08-14T09:50:53.000Z</time>
      </trkpt>
      <trkpt lat="49.86873" lon="4.81518">
        <ele>306</ele>
        <time>2021-08-14T09:50:54.000Z</time>
      </trkpt>
      <trkpt lat="49.86873" lon="4.8152">
        <ele>306</ele>
        <time>2021-08-14T09:50:55.000Z</time>
      </trkpt>
      <trkpt lat="49.86874" lon="4.81521">
        <ele>306</ele>
        <time>2021-08-14T09:50:56.000Z</time>
      </trkpt>
      <trkpt lat="49.86874" lon="4.81523">
        <ele>306</ele>
        <time>2021-08-14T09:50:57.000Z</time>
      </trkpt>
      <trkpt lat="49.86874" lon="4.81524">
        <ele>306</ele>
        <time>2021-08-14T09:50:58.000Z</time>
      </trkpt>
      <trkpt lat="49.86874" lon="4.81526">
        <ele>306</ele>
        <time>2021-08-14T09:50:59.000Z</time>
      </trkpt>
      <trkpt lat="49.86874" lon="4.81527">
        <ele>306</ele>
        <time>2021-08-14T09:51:00.000Z</time>
      </trkpt>
      <trkpt lat="49.86874" lon="4.81529">
        <ele>307</ele>
        <time>2021-08-14T09:51:01.000Z</time>
      </trkpt>
      <trkpt lat="49.86874" lon="4.81531">
        <ele>307</ele>
        <time>2021-08-14T09:51:02.000Z</time>
      </trkpt>
      <trkpt lat="49.86875" lon="4.81532">
        <ele>307</ele>
        <time>2021-08-14T09:51:03.000Z</time>
      </trkpt>
      <trkpt lat="49.86875" lon="4.81533">
        <ele>307</ele>
        <time>2021-08-14T09:51:04.000Z</time>
      </trkpt>
      <trkpt lat="49.86875" lon="4.81535">
        <ele>308</ele>
        <time>2021-08-14T09:51:05.000Z</time>
      </trkpt>
      <trkpt lat="49.86876" lon="4.81536">
        <ele>308</ele>
        <time>2021-08-14T09:51:06.000Z</time>
      </trkpt>
      <trkpt lat="49.86876" lon="4.81538">
        <ele>308</ele>
        <time>2021-08-14T09:51:07.000Z</time>
      </trkpt>
      <trkpt lat="49.86876" lon="4.81539">
        <ele>308</ele>
        <time>2021-08-14T09:51:08.000Z</time>
      </trkpt>
      <trkpt lat="49.86876" lon="4.8154">
        <ele>308</ele>
        <time>2021-08-14T09:51:09.000Z</time>
      </trkpt>
      <trkpt lat="49.86876" lon="4.8154">
        <ele>309</ele>
        <time>2021-08-14T09:51:10.000Z</time>
      </trkpt>
      <trkpt lat="49.86876" lon="4.8154">
        <ele>309</ele>
        <time>2021-08-14T09:51:11.000Z</time>
      </trkpt>
      <trkpt lat="49.86877" lon="4.81541">
        <ele>309</ele>
        <time>2021-08-14T09:51:12.000Z</time>
      </trkpt>
      <trkpt lat="49.86877" lon="4.81542">
        <ele>309</ele>
        <time>2021-08-14T09:51:13.000Z</time>
      </trkpt>
      <trkpt lat="49.86877" lon="4.81544">
        <ele>309</ele>
        <time>2021-08-14T09:51:14.000Z</time>
      </trkpt>
      <trkpt lat="49.86878" lon="4.81547">
        <ele>309</ele>
        <time>2021-08-14T09:51:15.000Z</time>
      </trkpt>
      <trkpt lat="49.86878" lon="4.81549">
        <ele>310</ele>
        <time>2021-08-14T09:51:16.000Z</time>
      </trkpt>
      <trkpt lat="49.86878" lon="4.81551">
        <ele>310</ele>
        <time>2021-08-14T09:51:17.000Z</time>
      </trkpt>
      <trkpt lat="49.86878" lon="4.81553">
        <ele>310</ele>
        <time>2021-08-14T09:51:18.000Z</time>
      </trkpt>
      <trkpt lat="49.86878" lon="4.81555">
        <ele>310</ele>
        <time>2021-08-14T09:51:19.000Z</time>
      </trkpt>
      <trkpt lat="49.86878" lon="4.81558">
        <ele>310</ele>
        <time>2021-08-14T09:51:20.000Z</time>
      </trkpt>
      <trkpt lat="49.86878" lon="4.8156">
        <ele>310</ele>
        <time>2021-08-14T09:51:21.000Z</time>
      </trkpt>
      <trkpt lat="49.86879" lon="4.81562">
        <ele>311</ele>
        <time>2021-08-14T09:51:22.000Z</time>
      </trkpt>
      <trkpt lat="49.86879" lon="4.81565">
        <ele>311</ele>
        <time>2021-08-14T09:51:23.000Z</time>
      </trkpt>
      <trkpt lat="49.86879" lon="4.81567">
        <ele>311</ele>
        <time>2021-08-14T09:51:24.000Z</time>
      </trkpt>
      <trkpt lat="49.86879" lon="4.81569">
        <ele>311</ele>
        <time>2021-08-14T09:51:25.000Z</time>
      </trkpt>
      <trkpt lat="49.8688" lon="4.81571">
        <ele>312</ele>
        <time>2021-08-14T09:51:26.000Z</time>
      </trkpt>
      <trkpt lat="49.86881" lon="4.81572">
        <ele>312</ele>
        <time>2021-08-14T09:51:27.000Z</time>
      </trkpt>
      <trkpt lat="49.86881" lon="4.81574">
        <ele>312</ele>
        <time>2021-08-14T09:51:28.000Z</time>
      </trkpt>
      <trkpt lat="49.86882" lon="4.81575">
        <ele>313</ele>
        <time>2021-08-14T09:51:29.000Z</time>
      </trkpt>
      <trkpt lat="49.86883" lon="4.81576">
        <ele>313</ele>
        <time>2021-08-14T09:51:30.000Z</time>
      </trkpt>
      <trkpt lat="49.86884" lon="4.81578">
        <ele>313</ele>
        <time>2021-08-14T09:51:31.000Z</time>
      </trkpt>
      <trkpt lat="49.86885" lon="4.8158">
        <ele>313</ele>
        <time>2021-08-14T09:51:32.000Z</time>
      </trkpt>
      <trkpt lat="49.86885" lon="4.81581">
        <ele>314</ele>
        <time>2021-08-14T09:51:33.000Z</time>
      </trkpt>
      <trkpt lat="49.86886" lon="4.81583">
        <ele>314</ele>
        <time>2021-08-14T09:51:34.000Z</time>
      </trkpt>
      <trkpt lat="49.86887" lon="4.81584">
        <ele>314</ele>
        <time>2021-08-14T09:51:35.000Z</time>
      </trkpt>
      <trkpt lat="49.86888" lon="4.81585">
        <ele>314</ele>
        <time>2021-08-14T09:51:36.000Z</time>
      </trkpt>
      <trkpt lat="49.86889" lon="4.81586">
        <ele>314</ele>
        <time>2021-08-14T09:51:37.000Z</time>
      </trkpt>
      <trkpt lat="49.86889" lon="4.81588">
        <ele>315</ele>
        <time>2021-08-14T09:51:38.000Z</time>
      </trkpt>
      <trkpt lat="49.86891" lon="4.81589">
        <ele>315</ele>
        <time>2021-08-14T09:51:39.000Z</time>
      </trkpt>
      <trkpt lat="49.86892" lon="4.81591">
        <ele>315</ele>
        <time>2021-08-14T09:51:40.000Z</time>
      </trkpt>
      <trkpt lat="49.86892" lon="4.81592">
        <ele>315</ele>
        <time>2021-08-14T09:51:41.000Z</time>
      </trkpt>
      <trkpt lat="49.86893" lon="4.81592">
        <ele>315</ele>
        <time>2021-08-14T09:51:42.000Z</time>
      </trkpt>
      <trkpt lat="49.86894" lon="4.81593">
        <ele>315</ele>
        <time>2021-08-14T09:51:43.000Z</time>
      </trkpt>
      <trkpt lat="49.86895" lon="4.81594">
        <ele>316</ele>
        <time>2021-08-14T09:51:44.000Z</time>
      </trkpt>
      <trkpt lat="49.86897" lon="4.81595">
        <ele>316</ele>
        <time>2021-08-14T09:51:45.000Z</time>
      </trkpt>
      <trkpt lat="49.86898" lon="4.81596">
        <ele>316</ele>
        <time>2021-08-14T09:51:46.000Z</time>
      </trkpt>
      <trkpt lat="49.869" lon="4.81597">
        <ele>316</ele>
        <time>2021-08-14T09:51:47.000Z</time>
      </trkpt>
      <trkpt lat="49.86901" lon="4.81598">
        <ele>316</ele>
        <time>2021-08-14T09:51:48.000Z</time>
      </trkpt>
      <trkpt lat="49.86902" lon="4.81598">
        <ele>316</ele>
        <time>2021-08-14T09:51:49.000Z</time>
      </trkpt>
      <trkpt lat="49.86903" lon="4.81599">
        <ele>316</ele>
        <time>2021-08-14T09:51:50.000Z</time>
      </trkpt>
      <trkpt lat="49.86904" lon="4.816">
        <ele>316</ele>
        <time>2021-08-14T09:51:51.000Z</time>
      </trkpt>
      <trkpt lat="49.86906" lon="4.81601">
        <ele>316</ele>
        <time>2021-08-14T09:51:52.000Z</time>
      </trkpt>
      <trkpt lat="49.86907" lon="4.81602">
        <ele>316</ele>
        <time>2021-08-14T09:51:53.000Z</time>
      </trkpt>
      <trkpt lat="49.86908" lon="4.81603">
        <ele>317</ele>
        <time>2021-08-14T09:51:54.000Z</time>
      </trkpt>
      <trkpt lat="49.86909" lon="4.81604">
        <ele>317</ele>
        <time>2021-08-14T09:51:55.000Z</time>
      </trkpt>
      <trkpt lat="49.86911" lon="4.81605">
        <ele>317</ele>
        <time>2021-08-14T09:51:56.000Z</time>
      </trkpt>
      <trkpt lat="49.86912" lon="4.81606">
        <ele>317</ele>
        <time>2021-08-14T09:51:57.000Z</time>
      </trkpt>
      <trkpt lat="49.86914" lon="4.81607">
        <ele>317</ele>
        <time>2021-08-14T09:51:58.000Z</time>
      </trkpt>
      <trkpt lat="49.86915" lon="4.81608">
        <ele>317</ele>
        <time>2021-08-14T09:51:59.000Z</time>
      </trkpt>
      <trkpt lat="49.86917" lon="4.81609">
        <ele>317</ele>
        <time>2021-08-14T09:52:00.000Z</time>
      </trkpt>
      <trkpt lat="49.86918" lon="4.81611">
        <ele>316</ele>
        <time>2021-08-14T09:52:01.000Z</time>
      </trkpt>
      <trkpt lat="49.8692" lon="4.81612">
        <ele>316</ele>
        <time>2021-08-14T09:52:02.000Z</time>
      </trkpt>
      <trkpt lat="49.86921" lon="4.81613">
        <ele>317</ele>
        <time>2021-08-14T09:52:03.000Z</time>
      </trkpt>
      <trkpt lat="49.86922" lon="4.81615">
        <ele>317</ele>
        <time>2021-08-14T09:52:04.000Z</time>
      </trkpt>
      <trkpt lat="49.86923" lon="4.81617">
        <ele>317</ele>
        <time>2021-08-14T09:52:05.000Z</time>
      </trkpt>
      <trkpt lat="49.86922" lon="4.81618">
        <ele>317</ele>
        <time>2021-08-14T09:52:06.000Z</time>
      </trkpt>
      <trkpt lat="49.86921" lon="4.81618">
        <ele>317</ele>
        <time>2021-08-14T09:52:07.000Z</time>
      </trkpt>
      <trkpt lat="49.86921" lon="4.81617">
        <ele>317</ele>
        <time>2021-08-14T09:52:08.000Z</time>
      </trkpt>
      <trkpt lat="49.8692" lon="4.81615">
        <ele>317</ele>
        <time>2021-08-14T09:52:09.000Z</time>
      </trkpt>
      <trkpt lat="49.86919" lon="4.81614">
        <ele>317</ele>
        <time>2021-08-14T09:52:10.000Z</time>
      </trkpt>
      <trkpt lat="49.86918" lon="4.81613">
        <ele>317</ele>
        <time>2021-08-14T09:52:11.000Z</time>
      </trkpt>
      <trkpt lat="49.86917" lon="4.81612">
        <ele>317</ele>
        <time>2021-08-14T09:52:12.000Z</time>
      </trkpt>
      <trkpt lat="49.86916" lon="4.81611">
        <ele>317</ele>
        <time>2021-08-14T09:52:13.000Z</time>
      </trkpt>
      <trkpt lat="49.86915" lon="4.81611">
        <ele>317</ele>
        <time>2021-08-14T09:52:14.000Z</time>
      </trkpt>
      <trkpt lat="49.86914" lon="4.81611">
        <ele>317</ele>
        <time>2021-08-14T09:52:15.000Z</time>
      </trkpt>
      <trkpt lat="49.86912" lon="4.81611">
        <ele>317</ele>
        <time>2021-08-14T09:52:16.000Z</time>
      </trkpt>
      <trkpt lat="49.86912" lon="4.8161">
        <ele>317</ele>
        <time>2021-08-14T09:52:17.000Z</time>
      </trkpt>
      <trkpt lat="49.86911" lon="4.81609">
        <ele>317</ele>
        <time>2021-08-14T09:52:18.000Z</time>
      </trkpt>
      <trkpt lat="49.86909" lon="4.81607">
        <ele>317</ele>
        <time>2021-08-14T09:52:19.000Z</time>
      </trkpt>
      <trkpt lat="49.86906" lon="4.81605">
        <ele>317</ele>
        <time>2021-08-14T09:52:20.000Z</time>
      </trkpt>
      <trkpt lat="49.86904" lon="4.81604">
        <ele>317</ele>
        <time>2021-08-14T09:52:21.000Z</time>
      </trkpt>
      <trkpt lat="49.86901" lon="4.81602">
        <ele>317</ele>
        <time>2021-08-14T09:52:22.000Z</time>
      </trkpt>
      <trkpt lat="49.86898" lon="4.81601">
        <ele>317</ele>
        <time>2021-08-14T09:52:23.000Z</time>
      </trkpt>
      <trkpt lat="49.86895" lon="4.81598">
        <ele>316</ele>
        <time>2021-08-14T09:52:24.000Z</time>
      </trkpt>
      <trkpt lat="49.86893" lon="4.81596">
        <ele>316</ele>
        <time>2021-08-14T09:52:25.000Z</time>
      </trkpt>
      <trkpt lat="49.86891" lon="4.81592">
        <ele>316</ele>
        <time>2021-08-14T09:52:26.000Z</time>
      </trkpt>
      <trkpt lat="49.86889" lon="4.81589">
        <ele>316</ele>
        <time>2021-08-14T09:52:27.000Z</time>
      </trkpt>
      <trkpt lat="49.86886" lon="4.81586">
        <ele>316</ele>
        <time>2021-08-14T09:52:28.000Z</time>
      </trkpt>
      <trkpt lat="49.86884" lon="4.81584">
        <ele>316</ele>
        <time>2021-08-14T09:52:29.000Z</time>
      </trkpt>
      <trkpt lat="49.86883" lon="4.81582">
        <ele>316</ele>
        <time>2021-08-14T09:52:30.000Z</time>
      </trkpt>
      <trkpt lat="49.86882" lon="4.81582">
        <ele>315</ele>
        <time>2021-08-14T09:52:31.000Z</time>
      </trkpt>
      <trkpt lat="49.86881" lon="4.81583">
        <ele>315</ele>
        <time>2021-08-14T09:52:32.000Z</time>
      </trkpt>
      <trkpt lat="49.8688" lon="4.81584">
        <ele>315</ele>
        <time>2021-08-14T09:52:33.000Z</time>
      </trkpt>
      <trkpt lat="49.8688" lon="4.81585">
        <ele>315</ele>
        <time>2021-08-14T09:52:34.000Z</time>
      </trkpt>
      <trkpt lat="49.86879" lon="4.81586">
        <ele>315</ele>
        <time>2021-08-14T09:52:35.000Z</time>
      </trkpt>
      <trkpt lat="49.86879" lon="4.81588">
        <ele>315</ele>
        <time>2021-08-14T09:52:36.000Z</time>
      </trkpt>
      <trkpt lat="49.86878" lon="4.81591">
        <ele>316</ele>
        <time>2021-08-14T09:52:37.000Z</time>
      </trkpt>
      <trkpt lat="49.86878" lon="4.81593">
        <ele>316</ele>
        <time>2021-08-14T09:52:38.000Z</time>
      </trkpt>
      <trkpt lat="49.86878" lon="4.81596">
        <ele>316</ele>
        <time>2021-08-14T09:52:39.000Z</time>
      </trkpt>
      <trkpt lat="49.86878" lon="4.81598">
        <ele>316</ele>
        <time>2021-08-14T09:52:40.000Z</time>
      </trkpt>
      <trkpt lat="49.86878" lon="4.81601">
        <ele>316</ele>
        <time>2021-08-14T09:52:41.000Z</time>
      </trkpt>
      <trkpt lat="49.86877" lon="4.81603">
        <ele>317</ele>
        <time>2021-08-14T09:52:42.000Z</time>
      </trkpt>
      <trkpt lat="49.86877" lon="4.81605">
        <ele>317</ele>
        <time>2021-08-14T09:52:43.000Z</time>
      </trkpt>
      <trkpt lat="49.86877" lon="4.81607">
        <ele>317</ele>
        <time>2021-08-14T09:52:44.000Z</time>
      </trkpt>
      <trkpt lat="49.86877" lon="4.8161">
        <ele>317</ele>
        <time>2021-08-14T09:52:45.000Z</time>
      </trkpt>
      <trkpt lat="49.86877" lon="4.81612">
        <ele>318</ele>
        <time>2021-08-14T09:52:46.000Z</time>
      </trkpt>
      <trkpt lat="49.86877" lon="4.81614">
        <ele>318</ele>
        <time>2021-08-14T09:52:47.000Z</time>
      </trkpt>
      <trkpt lat="49.86877" lon="4.81616">
        <ele>318</ele>
        <time>2021-08-14T09:52:48.000Z</time>
      </trkpt>
      <trkpt lat="49.86877" lon="4.81619">
        <ele>318</ele>
        <time>2021-08-14T09:52:49.000Z</time>
      </trkpt>
      <trkpt lat="49.86877" lon="4.81621">
        <ele>319</ele>
        <time>2021-08-14T09:52:50.000Z</time>
      </trkpt>
      <trkpt lat="49.86877" lon="4.81624">
        <ele>319</ele>
        <time>2021-08-14T09:52:51.000Z</time>
      </trkpt>
      <trkpt lat="49.86877" lon="4.81626">
        <ele>319</ele>
        <time>2021-08-14T09:52:52.000Z</time>
      </trkpt>
      <trkpt lat="49.86877" lon="4.81628">
        <ele>319</ele>
        <time>2021-08-14T09:52:53.000Z</time>
      </trkpt>
      <trkpt lat="49.86878" lon="4.8163">
        <ele>320</ele>
        <time>2021-08-14T09:52:54.000Z</time>
      </trkpt>
      <trkpt lat="49.86878" lon="4.81633">
        <ele>320</ele>
        <time>2021-08-14T09:52:55.000Z</time>
      </trkpt>
      <trkpt lat="49.86878" lon="4.81635">
        <ele>320</ele>
        <time>2021-08-14T09:52:56.000Z</time>
      </trkpt>
      <trkpt lat="49.86878" lon="4.81637">
        <ele>320</ele>
        <time>2021-08-14T09:52:57.000Z</time>
      </trkpt>
      <trkpt lat="49.86878" lon="4.8164">
        <ele>321</ele>
        <time>2021-08-14T09:52:58.000Z</time>
      </trkpt>
      <trkpt lat="49.86878" lon="4.81642">
        <ele>321</ele>
        <time>2021-08-14T09:52:59.000Z</time>
      </trkpt>
      <trkpt lat="49.86877" lon="4.81645">
        <ele>321</ele>
        <time>2021-08-14T09:53:00.000Z</time>
      </trkpt>
      <trkpt lat="49.86877" lon="4.81647">
        <ele>321</ele>
        <time>2021-08-14T09:53:01.000Z</time>
      </trkpt>
      <trkpt lat="49.86877" lon="4.81649">
        <ele>321</ele>
        <time>2021-08-14T09:53:02.000Z</time>
      </trkpt>
      <trkpt lat="49.86877" lon="4.81652">
        <ele>322</ele>
        <time>2021-08-14T09:53:03.000Z</time>
      </trkpt>
      <trkpt lat="49.86877" lon="4.81654">
        <ele>322</ele>
        <time>2021-08-14T09:53:04.000Z</time>
      </trkpt>
      <trkpt lat="49.86877" lon="4.81657">
        <ele>322</ele>
        <time>2021-08-14T09:53:05.000Z</time>
      </trkpt>
      <trkpt lat="49.86876" lon="4.81659">
        <ele>322</ele>
        <time>2021-08-14T09:53:06.000Z</time>
      </trkpt>
      <trkpt lat="49.86876" lon="4.81662">
        <ele>322</ele>
        <time>2021-08-14T09:53:07.000Z</time>
      </trkpt>
      <trkpt lat="49.86876" lon="4.81664">
        <ele>323</ele>
        <time>2021-08-14T09:53:08.000Z</time>
      </trkpt>
      <trkpt lat="49.86876" lon="4.81667">
        <ele>323</ele>
        <time>2021-08-14T09:53:09.000Z</time>
      </trkpt>
      <trkpt lat="49.86876" lon="4.8167">
        <ele>323</ele>
        <time>2021-08-14T09:53:10.000Z</time>
      </trkpt>
      <trkpt lat="49.86876" lon="4.81673">
        <ele>323</ele>
        <time>2021-08-14T09:53:11.000Z</time>
      </trkpt>
      <trkpt lat="49.86876" lon="4.81675">
        <ele>323</ele>
        <time>2021-08-14T09:53:12.000Z</time>
      </trkpt>
      <trkpt lat="49.86876" lon="4.81678">
        <ele>323</ele>
        <time>2021-08-14T09:53:13.000Z</time>
      </trkpt>
      <trkpt lat="49.86876" lon="4.81681">
        <ele>324</ele>
        <time>2021-08-14T09:53:14.000Z</time>
      </trkpt>
      <trkpt lat="49.86876" lon="4.81684">
        <ele>324</ele>
        <time>2021-08-14T09:53:15.000Z</time>
      </trkpt>
      <trkpt lat="49.86876" lon="4.81687">
        <ele>324</ele>
        <time>2021-08-14T09:53:16.000Z</time>
      </trkpt>
      <trkpt lat="49.86876" lon="4.8169">
        <ele>324</ele>
        <time>2021-08-14T09:53:17.000Z</time>
      </trkpt>
      <trkpt lat="49.86876" lon="4.81693">
        <ele>324</ele>
        <time>2021-08-14T09:53:18.000Z</time>
      </trkpt>
      <trkpt lat="49.86875" lon="4.81696">
        <ele>325</ele>
        <time>2021-08-14T09:53:19.000Z</time>
      </trkpt>
      <trkpt lat="49.86875" lon="4.81699">
        <ele>325</ele>
        <time>2021-08-14T09:53:20.000Z</time>
      </trkpt>
      <trkpt lat="49.86875" lon="4.81702">
        <ele>325</ele>
        <time>2021-08-14T09:53:21.000Z</time>
      </trkpt>
      <trkpt lat="49.86875" lon="4.81706">
        <ele>325</ele>
        <time>2021-08-14T09:53:22.000Z</time>
      </trkpt>
      <trkpt lat="49.86875" lon="4.81708">
        <ele>326</ele>
        <time>2021-08-14T09:53:23.000Z</time>
      </trkpt>
      <trkpt lat="49.86874" lon="4.81711">
        <ele>326</ele>
        <time>2021-08-14T09:53:24.000Z</time>
      </trkpt>
      <trkpt lat="49.86873" lon="4.81714">
        <ele>326</ele>
        <time>2021-08-14T09:53:25.000Z</time>
      </trkpt>
      <trkpt lat="49.86873" lon="4.81717">
        <ele>326</ele>
        <time>2021-08-14T09:53:26.000Z</time>
      </trkpt>
      <trkpt lat="49.86872" lon="4.81719">
        <ele>327</ele>
        <time>2021-08-14T09:53:27.000Z</time>
      </trkpt>
      <trkpt lat="49.86872" lon="4.81722">
        <ele>327</ele>
        <time>2021-08-14T09:53:28.000Z</time>
      </trkpt>
      <trkpt lat="49.86871" lon="4.81725">
        <ele>327</ele>
        <time>2021-08-14T09:53:29.000Z</time>
      </trkpt>
      <trkpt lat="49.86871" lon="4.81728">
        <ele>327</ele>
        <time>2021-08-14T09:53:30.000Z</time>
      </trkpt>
      <trkpt lat="49.8687" lon="4.8173">
        <ele>328</ele>
        <time>2021-08-14T09:53:31.000Z</time>
      </trkpt>
      <trkpt lat="49.8687" lon="4.81733">
        <ele>328</ele>
        <time>2021-08-14T09:53:32.000Z</time>
      </trkpt>
      <trkpt lat="49.86869" lon="4.81736">
        <ele>328</ele>
        <time>2021-08-14T09:53:33.000Z</time>
      </trkpt>
      <trkpt lat="49.86868" lon="4.81738">
        <ele>329</ele>
        <time>2021-08-14T09:53:34.000Z</time>
      </trkpt>
      <trkpt lat="49.86868" lon="4.81741">
        <ele>329</ele>
        <time>2021-08-14T09:53:35.000Z</time>
      </trkpt>
      <trkpt lat="49.86867" lon="4.81742">
        <ele>329</ele>
        <time>2021-08-14T09:53:36.000Z</time>
      </trkpt>
      <trkpt lat="49.86866" lon="4.81744">
        <ele>330</ele>
        <time>2021-08-14T09:53:37.000Z</time>
      </trkpt>
      <trkpt lat="49.86865" lon="4.81747">
        <ele>330</ele>
        <time>2021-08-14T09:53:38.000Z</time>
      </trkpt>
      <trkpt lat="49.86865" lon="4.81749">
        <ele>330</ele>
        <time>2021-08-14T09:53:39.000Z</time>
      </trkpt>
      <trkpt lat="49.86864" lon="4.81751">
        <ele>331</ele>
        <time>2021-08-14T09:53:40.000Z</time>
      </trkpt>
      <trkpt lat="49.86863" lon="4.81753">
        <ele>331</ele>
        <time>2021-08-14T09:53:41.000Z</time>
      </trkpt>
      <trkpt lat="49.86862" lon="4.81755">
        <ele>331</ele>
        <time>2021-08-14T09:53:42.000Z</time>
      </trkpt>
      <trkpt lat="49.86861" lon="4.81757">
        <ele>331</ele>
        <time>2021-08-14T09:53:43.000Z</time>
      </trkpt>
      <trkpt lat="49.86859" lon="4.81759">
        <ele>332</ele>
        <time>2021-08-14T09:53:44.000Z</time>
      </trkpt>
      <trkpt lat="49.86858" lon="4.81761">
        <ele>332</ele>
        <time>2021-08-14T09:53:45.000Z</time>
      </trkpt>
      <trkpt lat="49.86857" lon="4.81763">
        <ele>332</ele>
        <time>2021-08-14T09:53:46.000Z</time>
      </trkpt>
      <trkpt lat="49.86856" lon="4.81766">
        <ele>332</ele>
        <time>2021-08-14T09:53:47.000Z</time>
      </trkpt>
      <trkpt lat="49.86855" lon="4.81768">
        <ele>332</ele>
        <time>2021-08-14T09:53:48.000Z</time>
      </trkpt>
      <trkpt lat="49.86854" lon="4.81769">
        <ele>333</ele>
        <time>2021-08-14T09:53:49.000Z</time>
      </trkpt>
      <trkpt lat="49.86854" lon="4.81771">
        <ele>333</ele>
        <time>2021-08-14T09:53:50.000Z</time>
      </trkpt>
      <trkpt lat="49.86852" lon="4.81773">
        <ele>333</ele>
        <time>2021-08-14T09:53:51.000Z</time>
      </trkpt>
      <trkpt lat="49.86851" lon="4.81774">
        <ele>333</ele>
        <time>2021-08-14T09:53:52.000Z</time>
      </trkpt>
      <trkpt lat="49.8685" lon="4.81776">
        <ele>334</ele>
        <time>2021-08-14T09:53:53.000Z</time>
      </trkpt>
      <trkpt lat="49.86849" lon="4.81778">
        <ele>334</ele>
        <time>2021-08-14T09:53:54.000Z</time>
      </trkpt>
      <trkpt lat="49.86848" lon="4.81779">
        <ele>334</ele>
        <time>2021-08-14T09:53:55.000Z</time>
      </trkpt>
      <trkpt lat="49.86846" lon="4.81781">
        <ele>334</ele>
        <time>2021-08-14T09:53:56.000Z</time>
      </trkpt>
      <trkpt lat="49.86845" lon="4.81783">
        <ele>335</ele>
        <time>2021-08-14T09:53:57.000Z</time>
      </trkpt>
      <trkpt lat="49.86844" lon="4.81785">
        <ele>335</ele>
        <time>2021-08-14T09:53:58.000Z</time>
      </trkpt>
      <trkpt lat="49.86843" lon="4.81786">
        <ele>335</ele>
        <time>2021-08-14T09:53:59.000Z</time>
      </trkpt>
      <trkpt lat="49.86842" lon="4.81788">
        <ele>335</ele>
        <time>2021-08-14T09:54:00.000Z</time>
      </trkpt>
      <trkpt lat="49.86841" lon="4.8179">
        <ele>336</ele>
        <time>2021-08-14T09:54:01.000Z</time>
      </trkpt>
      <trkpt lat="49.8684" lon="4.81791">
        <ele>336</ele>
        <time>2021-08-14T09:54:02.000Z</time>
      </trkpt>
      <trkpt lat="49.86838" lon="4.81792">
        <ele>336</ele>
        <time>2021-08-14T09:54:03.000Z</time>
      </trkpt>
      <trkpt lat="49.86837" lon="4.81793">
        <ele>337</ele>
        <time>2021-08-14T09:54:04.000Z</time>
      </trkpt>
      <trkpt lat="49.86836" lon="4.81795">
        <ele>337</ele>
        <time>2021-08-14T09:54:05.000Z</time>
      </trkpt>
      <trkpt lat="49.86835" lon="4.81796">
        <ele>337</ele>
        <time>2021-08-14T09:54:06.000Z</time>
      </trkpt>
      <trkpt lat="49.86834" lon="4.81797">
        <ele>338</ele>
        <time>2021-08-14T09:54:07.000Z</time>
      </trkpt>
      <trkpt lat="49.86832" lon="4.81798">
        <ele>338</ele>
        <time>2021-08-14T09:54:08.000Z</time>
      </trkpt>
      <trkpt lat="49.86831" lon="4.81799">
        <ele>338</ele>
        <time>2021-08-14T09:54:09.000Z</time>
      </trkpt>
      <trkpt lat="49.8683" lon="4.818">
        <ele>339</ele>
        <time>2021-08-14T09:54:10.000Z</time>
      </trkpt>
      <trkpt lat="49.8683" lon="4.818">
        <ele>339</ele>
        <time>2021-08-14T09:54:11.000Z</time>
      </trkpt>
      <trkpt lat="49.86829" lon="4.81801">
        <ele>339</ele>
        <time>2021-08-14T09:54:12.000Z</time>
      </trkpt>
      <trkpt lat="49.86828" lon="4.81802">
        <ele>340</ele>
        <time>2021-08-14T09:54:13.000Z</time>
      </trkpt>
      <trkpt lat="49.86827" lon="4.81803">
        <ele>340</ele>
        <time>2021-08-14T09:54:14.000Z</time>
      </trkpt>
      <trkpt lat="49.86826" lon="4.81804">
        <ele>340</ele>
        <time>2021-08-14T09:54:15.000Z</time>
      </trkpt>
      <trkpt lat="49.86824" lon="4.81805">
        <ele>340</ele>
        <time>2021-08-14T09:54:16.000Z</time>
      </trkpt>
      <trkpt lat="49.86823" lon="4.81806">
        <ele>341</ele>
        <time>2021-08-14T09:54:17.000Z</time>
      </trkpt>
      <trkpt lat="49.86821" lon="4.81808">
        <ele>341</ele>
        <time>2021-08-14T09:54:18.000Z</time>
      </trkpt>
      <trkpt lat="49.8682" lon="4.81809">
        <ele>341</ele>
        <time>2021-08-14T09:54:19.000Z</time>
      </trkpt>
      <trkpt lat="49.86818" lon="4.8181">
        <ele>341</ele>
        <time>2021-08-14T09:54:20.000Z</time>
      </trkpt>
      <trkpt lat="49.86817" lon="4.81811">
        <ele>341</ele>
        <time>2021-08-14T09:54:21.000Z</time>
      </trkpt>
      <trkpt lat="49.86815" lon="4.81812">
        <ele>341</ele>
        <time>2021-08-14T09:54:22.000Z</time>
      </trkpt>
      <trkpt lat="49.86815" lon="4.81812">
        <ele>342</ele>
        <time>2021-08-14T09:54:23.000Z</time>
      </trkpt>
      <trkpt lat="49.86814" lon="4.81813">
        <ele>342</ele>
        <time>2021-08-14T09:54:24.000Z</time>
      </trkpt>
      <trkpt lat="49.86812" lon="4.81813">
        <ele>342</ele>
        <time>2021-08-14T09:54:25.000Z</time>
      </trkpt>
      <trkpt lat="49.86811" lon="4.81814">
        <ele>342</ele>
        <time>2021-08-14T09:54:26.000Z</time>
      </trkpt>
      <trkpt lat="49.86809" lon="4.81815">
        <ele>342</ele>
        <time>2021-08-14T09:54:27.000Z</time>
      </trkpt>
      <trkpt lat="49.86808" lon="4.81816">
        <ele>342</ele>
        <time>2021-08-14T09:54:28.000Z</time>
      </trkpt>
      <trkpt lat="49.86806" lon="4.81817">
        <ele>342</ele>
        <time>2021-08-14T09:54:29.000Z</time>
      </trkpt>
      <trkpt lat="49.86804" lon="4.81818">
        <ele>342</ele>
        <time>2021-08-14T09:54:30.000Z</time>
      </trkpt>
      <trkpt lat="49.86802" lon="4.81819">
        <ele>342</ele>
        <time>2021-08-14T09:54:31.000Z</time>
      </trkpt>
      <trkpt lat="49.868" lon="4.81821">
        <ele>342</ele>
        <time>2021-08-14T09:54:32.000Z</time>
      </trkpt>
      <trkpt lat="49.86798" lon="4.81822">
        <ele>342</ele>
        <time>2021-08-14T09:54:33.000Z</time>
      </trkpt>
      <trkpt lat="49.86797" lon="4.81823">
        <ele>342</ele>
        <time>2021-08-14T09:54:34.000Z</time>
      </trkpt>
      <trkpt lat="49.86794" lon="4.81824">
        <ele>342</ele>
        <time>2021-08-14T09:54:35.000Z</time>
      </trkpt>
      <trkpt lat="49.86792" lon="4.81825">
        <ele>342</ele>
        <time>2021-08-14T09:54:36.000Z</time>
      </trkpt>
      <trkpt lat="49.8679" lon="4.81826">
        <ele>342</ele>
        <time>2021-08-14T09:54:37.000Z</time>
      </trkpt>
      <trkpt lat="49.86788" lon="4.81827">
        <ele>342</ele>
        <time>2021-08-14T09:54:38.000Z</time>
      </trkpt>
      <trkpt lat="49.86785" lon="4.81827">
        <ele>342</ele>
        <time>2021-08-14T09:54:39.000Z</time>
      </trkpt>
      <trkpt lat="49.86783" lon="4.81827">
        <ele>342</ele>
        <time>2021-08-14T09:54:40.000Z</time>
      </trkpt>
      <trkpt lat="49.8678" lon="4.81828">
        <ele>342</ele>
        <time>2021-08-14T09:54:41.000Z</time>
      </trkpt>
      <trkpt lat="49.86778" lon="4.81829">
        <ele>342</ele>
        <time>2021-08-14T09:54:42.000Z</time>
      </trkpt>
      <trkpt lat="49.86775" lon="4.8183">
        <ele>342</ele>
        <time>2021-08-14T09:54:43.000Z</time>
      </trkpt>
      <trkpt lat="49.86772" lon="4.81831">
        <ele>341</ele>
        <time>2021-08-14T09:54:44.000Z</time>
      </trkpt>
      <trkpt lat="49.86769" lon="4.81832">
        <ele>341</ele>
        <time>2021-08-14T09:54:45.000Z</time>
      </trkpt>
      <trkpt lat="49.86765" lon="4.81832">
        <ele>341</ele>
        <time>2021-08-14T09:54:46.000Z</time>
      </trkpt>
      <trkpt lat="49.86762" lon="4.81833">
        <ele>341</ele>
        <time>2021-08-14T09:54:47.000Z</time>
      </trkpt>
      <trkpt lat="49.8676" lon="4.81832">
        <ele>341</ele>
        <time>2021-08-14T09:54:48.000Z</time>
      </trkpt>
      <trkpt lat="49.86757" lon="4.81832">
        <ele>341</ele>
        <time>2021-08-14T09:54:49.000Z</time>
      </trkpt>
      <trkpt lat="49.86754" lon="4.81832">
        <ele>340</ele>
        <time>2021-08-14T09:54:50.000Z</time>
      </trkpt>
      <trkpt lat="49.86751" lon="4.81832">
        <ele>340</ele>
        <time>2021-08-14T09:54:51.000Z</time>
      </trkpt>
      <trkpt lat="49.86748" lon="4.81832">
        <ele>340</ele>
        <time>2021-08-14T09:54:52.000Z</time>
      </trkpt>
      <trkpt lat="49.86745" lon="4.81832">
        <ele>340</ele>
        <time>2021-08-14T09:54:53.000Z</time>
      </trkpt>
      <trkpt lat="49.86742" lon="4.81832">
        <ele>340</ele>
        <time>2021-08-14T09:54:54.000Z</time>
      </trkpt>
      <trkpt lat="49.86739" lon="4.81832">
        <ele>340</ele>
        <time>2021-08-14T09:54:55.000Z</time>
      </trkpt>
      <trkpt lat="49.86737" lon="4.81832">
        <ele>340</ele>
        <time>2021-08-14T09:54:56.000Z</time>
      </trkpt>
      <trkpt lat="49.86734" lon="4.81832">
        <ele>340</ele>
        <time>2021-08-14T09:54:57.000Z</time>
      </trkpt>
      <trkpt lat="49.86731" lon="4.81832">
        <ele>340</ele>
        <time>2021-08-14T09:54:58.000Z</time>
      </trkpt>
      <trkpt lat="49.86728" lon="4.81833">
        <ele>340</ele>
        <time>2021-08-14T09:54:59.000Z</time>
      </trkpt>
      <trkpt lat="49.86725" lon="4.81833">
        <ele>340</ele>
        <time>2021-08-14T09:55:00.000Z</time>
      </trkpt>
      <trkpt lat="49.86722" lon="4.81833">
        <ele>340</ele>
        <time>2021-08-14T09:55:01.000Z</time>
      </trkpt>
      <trkpt lat="49.86719" lon="4.81834">
        <ele>339</ele>
        <time>2021-08-14T09:55:02.000Z</time>
      </trkpt>
      <trkpt lat="49.86716" lon="4.81835">
        <ele>339</ele>
        <time>2021-08-14T09:55:03.000Z</time>
      </trkpt>
      <trkpt lat="49.86712" lon="4.81836">
        <ele>339</ele>
        <time>2021-08-14T09:55:04.000Z</time>
      </trkpt>
      <trkpt lat="49.86709" lon="4.81837">
        <ele>339</ele>
        <time>2021-08-14T09:55:05.000Z</time>
      </trkpt>
      <trkpt lat="49.86705" lon="4.81838">
        <ele>339</ele>
        <time>2021-08-14T09:55:06.000Z</time>
      </trkpt>
      <trkpt lat="49.86702" lon="4.8184">
        <ele>339</ele>
        <time>2021-08-14T09:55:07.000Z</time>
      </trkpt>
      <trkpt lat="49.86698" lon="4.81841">
        <ele>339</ele>
        <time>2021-08-14T09:55:08.000Z</time>
      </trkpt>
      <trkpt lat="49.86694" lon="4.81843">
        <ele>339</ele>
        <time>2021-08-14T09:55:09.000Z</time>
      </trkpt>
      <trkpt lat="49.8669" lon="4.81846">
        <ele>338</ele>
        <time>2021-08-14T09:55:10.000Z</time>
      </trkpt>
      <trkpt lat="49.86687" lon="4.81849">
        <ele>338</ele>
        <time>2021-08-14T09:55:11.000Z</time>
      </trkpt>
      <trkpt lat="49.86683" lon="4.81852">
        <ele>338</ele>
        <time>2021-08-14T09:55:12.000Z</time>
      </trkpt>
      <trkpt lat="49.8668" lon="4.81854">
        <ele>338</ele>
        <time>2021-08-14T09:55:13.000Z</time>
      </trkpt>
      <trkpt lat="49.86676" lon="4.81856">
        <ele>338</ele>
        <time>2021-08-14T09:55:14.000Z</time>
      </trkpt>
      <trkpt lat="49.86673" lon="4.81858">
        <ele>338</ele>
        <time>2021-08-14T09:55:15.000Z</time>
      </trkpt>
      <trkpt lat="49.86671" lon="4.8186">
        <ele>338</ele>
        <time>2021-08-14T09:55:16.000Z</time>
      </trkpt>
      <trkpt lat="49.86669" lon="4.81862">
        <ele>338</ele>
        <time>2021-08-14T09:55:17.000Z</time>
      </trkpt>
      <trkpt lat="49.86666" lon="4.81863">
        <ele>338</ele>
        <time>2021-08-14T09:55:18.000Z</time>
      </trkpt>
      <trkpt lat="49.86663" lon="4.81864">
        <ele>338</ele>
        <time>2021-08-14T09:55:19.000Z</time>
      </trkpt>
      <trkpt lat="49.86661" lon="4.81865">
        <ele>338</ele>
        <time>2021-08-14T09:55:20.000Z</time>
      </trkpt>
      <trkpt lat="49.86658" lon="4.81868">
        <ele>338</ele>
        <time>2021-08-14T09:55:21.000Z</time>
      </trkpt>
      <trkpt lat="49.86655" lon="4.8187">
        <ele>338</ele>
        <time>2021-08-14T09:55:22.000Z</time>
      </trkpt>
      <trkpt lat="49.86652" lon="4.81873">
        <ele>338</ele>
        <time>2021-08-14T09:55:23.000Z</time>
      </trkpt>
      <trkpt lat="49.86649" lon="4.81875">
        <ele>338</ele>
        <time>2021-08-14T09:55:24.000Z</time>
      </trkpt>
      <trkpt lat="49.86647" lon="4.81878">
        <ele>338</ele>
        <time>2021-08-14T09:55:25.000Z</time>
      </trkpt>
      <trkpt lat="49.86644" lon="4.8188">
        <ele>338</ele>
        <time>2021-08-14T09:55:26.000Z</time>
      </trkpt>
      <trkpt lat="49.86641" lon="4.81881">
        <ele>338</ele>
        <time>2021-08-14T09:55:27.000Z</time>
      </trkpt>
      <trkpt lat="49.86638" lon="4.81883">
        <ele>338</ele>
        <time>2021-08-14T09:55:28.000Z</time>
      </trkpt>
      <trkpt lat="49.86636" lon="4.81886">
        <ele>338</ele>
        <time>2021-08-14T09:55:29.000Z</time>
      </trkpt>
      <trkpt lat="49.86633" lon="4.81888">
        <ele>338</ele>
        <time>2021-08-14T09:55:30.000Z</time>
      </trkpt>
      <trkpt lat="49.8663" lon="4.8189">
        <ele>338</ele>
        <time>2021-08-14T09:55:31.000Z</time>
      </trkpt>
      <trkpt lat="49.86627" lon="4.81892">
        <ele>338</ele>
        <time>2021-08-14T09:55:32.000Z</time>
      </trkpt>
      <trkpt lat="49.86625" lon="4.81895">
        <ele>339</ele>
        <time>2021-08-14T09:55:33.000Z</time>
      </trkpt>
      <trkpt lat="49.86622" lon="4.81896">
        <ele>339</ele>
        <time>2021-08-14T09:55:34.000Z</time>
      </trkpt>
      <trkpt lat="49.86619" lon="4.81899">
        <ele>339</ele>
        <time>2021-08-14T09:55:35.000Z</time>
      </trkpt>
      <trkpt lat="49.86616" lon="4.81901">
        <ele>339</ele>
        <time>2021-08-14T09:55:36.000Z</time>
      </trkpt>
      <trkpt lat="49.86613" lon="4.81903">
        <ele>340</ele>
        <time>2021-08-14T09:55:37.000Z</time>
      </trkpt>
      <trkpt lat="49.8661" lon="4.81905">
        <ele>340</ele>
        <time>2021-08-14T09:55:38.000Z</time>
      </trkpt>
      <trkpt lat="49.86607" lon="4.81907">
        <ele>340</ele>
        <time>2021-08-14T09:55:39.000Z</time>
      </trkpt>
      <trkpt lat="49.86604" lon="4.81908">
        <ele>340</ele>
        <time>2021-08-14T09:55:40.000Z</time>
      </trkpt>
      <trkpt lat="49.86601" lon="4.8191">
        <ele>341</ele>
        <time>2021-08-14T09:55:41.000Z</time>
      </trkpt>
      <trkpt lat="49.86598" lon="4.81911">
        <ele>341</ele>
        <time>2021-08-14T09:55:42.000Z</time>
      </trkpt>
      <trkpt lat="49.86595" lon="4.81912">
        <ele>341</ele>
        <time>2021-08-14T09:55:43.000Z</time>
      </trkpt>
      <trkpt lat="49.86592" lon="4.81914">
        <ele>341</ele>
        <time>2021-08-14T09:55:44.000Z</time>
      </trkpt>
      <trkpt lat="49.86589" lon="4.81915">
        <ele>341</ele>
        <time>2021-08-14T09:55:45.000Z</time>
      </trkpt>
      <trkpt lat="49.86586" lon="4.81916">
        <ele>342</ele>
        <time>2021-08-14T09:55:46.000Z</time>
      </trkpt>
      <trkpt lat="49.86583" lon="4.81917">
        <ele>342</ele>
        <time>2021-08-14T09:55:47.000Z</time>
      </trkpt>
      <trkpt lat="49.8658" lon="4.81917">
        <ele>342</ele>
        <time>2021-08-14T09:55:48.000Z</time>
      </trkpt>
      <trkpt lat="49.86577" lon="4.81918">
        <ele>342</ele>
        <time>2021-08-14T09:55:49.000Z</time>
      </trkpt>
      <trkpt lat="49.86573" lon="4.81919">
        <ele>342</ele>
        <time>2021-08-14T09:55:50.000Z</time>
      </trkpt>
      <trkpt lat="49.8657" lon="4.81919">
        <ele>342</ele>
        <time>2021-08-14T09:55:51.000Z</time>
      </trkpt>
      <trkpt lat="49.86567" lon="4.8192">
        <ele>343</ele>
        <time>2021-08-14T09:55:52.000Z</time>
      </trkpt>
      <trkpt lat="49.86563" lon="4.81921">
        <ele>343</ele>
        <time>2021-08-14T09:55:53.000Z</time>
      </trkpt>
      <trkpt lat="49.86561" lon="4.81922">
        <ele>343</ele>
        <time>2021-08-14T09:55:54.000Z</time>
      </trkpt>
      <trkpt lat="49.86557" lon="4.81923">
        <ele>343</ele>
        <time>2021-08-14T09:55:55.000Z</time>
      </trkpt>
      <trkpt lat="49.86555" lon="4.81924">
        <ele>343</ele>
        <time>2021-08-14T09:55:56.000Z</time>
      </trkpt>
      <trkpt lat="49.86552" lon="4.81925">
        <ele>343</ele>
        <time>2021-08-14T09:55:57.000Z</time>
      </trkpt>
      <trkpt lat="49.86549" lon="4.81925">
        <ele>344</ele>
        <time>2021-08-14T09:55:58.000Z</time>
      </trkpt>
      <trkpt lat="49.86547" lon="4.81925">
        <ele>344</ele>
        <time>2021-08-14T09:55:59.000Z</time>
      </trkpt>
      <trkpt lat="49.86544" lon="4.81925">
        <ele>344</ele>
        <time>2021-08-14T09:56:00.000Z</time>
      </trkpt>
      <trkpt lat="49.86541" lon="4.81925">
        <ele>344</ele>
        <time>2021-08-14T09:56:01.000Z</time>
      </trkpt>
      <trkpt lat="49.86538" lon="4.81925">
        <ele>344</ele>
        <time>2021-08-14T09:56:02.000Z</time>
      </trkpt>
      <trkpt lat="49.86535" lon="4.81925">
        <ele>344</ele>
        <time>2021-08-14T09:56:03.000Z</time>
      </trkpt>
      <trkpt lat="49.86533" lon="4.81925">
        <ele>344</ele>
        <time>2021-08-14T09:56:04.000Z</time>
      </trkpt>
      <trkpt lat="49.86531" lon="4.81924">
        <ele>345</ele>
        <time>2021-08-14T09:56:05.000Z</time>
      </trkpt>
      <trkpt lat="49.86528" lon="4.81923">
        <ele>345</ele>
        <time>2021-08-14T09:56:06.000Z</time>
      </trkpt>
      <trkpt lat="49.86526" lon="4.81922">
        <ele>345</ele>
        <time>2021-08-14T09:56:07.000Z</time>
      </trkpt>
      <trkpt lat="49.86523" lon="4.8192">
        <ele>345</ele>
        <time>2021-08-14T09:56:08.000Z</time>
      </trkpt>
      <trkpt lat="49.86521" lon="4.81919">
        <ele>346</ele>
        <time>2021-08-14T09:56:09.000Z</time>
      </trkpt>
      <trkpt lat="49.86518" lon="4.81918">
        <ele>346</ele>
        <time>2021-08-14T09:56:10.000Z</time>
      </trkpt>
      <trkpt lat="49.86516" lon="4.81917">
        <ele>346</ele>
        <time>2021-08-14T09:56:11.000Z</time>
      </trkpt>
      <trkpt lat="49.86513" lon="4.81916">
        <ele>346</ele>
        <time>2021-08-14T09:56:12.000Z</time>
      </trkpt>
      <trkpt lat="49.8651" lon="4.81914">
        <ele>347</ele>
        <time>2021-08-14T09:56:13.000Z</time>
      </trkpt>
      <trkpt lat="49.86507" lon="4.81913">
        <ele>347</ele>
        <time>2021-08-14T09:56:14.000Z</time>
      </trkpt>
      <trkpt lat="49.86504" lon="4.81911">
        <ele>347</ele>
        <time>2021-08-14T09:56:15.000Z</time>
      </trkpt>
      <trkpt lat="49.86501" lon="4.8191">
        <ele>347</ele>
        <time>2021-08-14T09:56:16.000Z</time>
      </trkpt>
      <trkpt lat="49.86498" lon="4.81908">
        <ele>347</ele>
        <time>2021-08-14T09:56:17.000Z</time>
      </trkpt>
      <trkpt lat="49.86495" lon="4.81907">
        <ele>348</ele>
        <time>2021-08-14T09:56:18.000Z</time>
      </trkpt>
      <trkpt lat="49.86492" lon="4.81906">
        <ele>348</ele>
        <time>2021-08-14T09:56:19.000Z</time>
      </trkpt>
      <trkpt lat="49.86489" lon="4.81904">
        <ele>348</ele>
        <time>2021-08-14T09:56:20.000Z</time>
      </trkpt>
      <trkpt lat="49.86486" lon="4.81903">
        <ele>348</ele>
        <time>2021-08-14T09:56:21.000Z</time>
      </trkpt>
      <trkpt lat="49.86483" lon="4.81902">
        <ele>349</ele>
        <time>2021-08-14T09:56:22.000Z</time>
      </trkpt>
      <trkpt lat="49.8648" lon="4.81901">
        <ele>349</ele>
        <time>2021-08-14T09:56:23.000Z</time>
      </trkpt>
      <trkpt lat="49.86477" lon="4.819">
        <ele>349</ele>
        <time>2021-08-14T09:56:24.000Z</time>
      </trkpt>
      <trkpt lat="49.86474" lon="4.81899">
        <ele>350</ele>
        <time>2021-08-14T09:56:25.000Z</time>
      </trkpt>
      <trkpt lat="49.86471" lon="4.81898">
        <ele>350</ele>
        <time>2021-08-14T09:56:26.000Z</time>
      </trkpt>
      <trkpt lat="49.86468" lon="4.81897">
        <ele>350</ele>
        <time>2021-08-14T09:56:27.000Z</time>
      </trkpt>
      <trkpt lat="49.86465" lon="4.81896">
        <ele>350</ele>
        <time>2021-08-14T09:56:28.000Z</time>
      </trkpt>
      <trkpt lat="49.86462" lon="4.81895">
        <ele>351</ele>
        <time>2021-08-14T09:56:29.000Z</time>
      </trkpt>
      <trkpt lat="49.8646" lon="4.81893">
        <ele>351</ele>
        <time>2021-08-14T09:56:30.000Z</time>
      </trkpt>
      <trkpt lat="49.86457" lon="4.81892">
        <ele>351</ele>
        <time>2021-08-14T09:56:31.000Z</time>
      </trkpt>
      <trkpt lat="49.86455" lon="4.81891">
        <ele>351</ele>
        <time>2021-08-14T09:56:32.000Z</time>
      </trkpt>
      <trkpt lat="49.86452" lon="4.81889">
        <ele>351</ele>
        <time>2021-08-14T09:56:33.000Z</time>
      </trkpt>
      <trkpt lat="49.8645" lon="4.81889">
        <ele>351</ele>
        <time>2021-08-14T09:56:34.000Z</time>
      </trkpt>
      <trkpt lat="49.86447" lon="4.81888">
        <ele>351</ele>
        <time>2021-08-14T09:56:35.000Z</time>
      </trkpt>
      <trkpt lat="49.86444" lon="4.81887">
        <ele>352</ele>
        <time>2021-08-14T09:56:36.000Z</time>
      </trkpt>
      <trkpt lat="49.86441" lon="4.81886">
        <ele>352</ele>
        <time>2021-08-14T09:56:37.000Z</time>
      </trkpt>
      <trkpt lat="49.86438" lon="4.81885">
        <ele>352</ele>
        <time>2021-08-14T09:56:38.000Z</time>
      </trkpt>
      <trkpt lat="49.86435" lon="4.81884">
        <ele>352</ele>
        <time>2021-08-14T09:56:39.000Z</time>
      </trkpt>
      <trkpt lat="49.86432" lon="4.81883">
        <ele>351</ele>
        <time>2021-08-14T09:56:40.000Z</time>
      </trkpt>
      <trkpt lat="49.86429" lon="4.81883">
        <ele>351</ele>
        <time>2021-08-14T09:56:41.000Z</time>
      </trkpt>
      <trkpt lat="49.86426" lon="4.81883">
        <ele>351</ele>
        <time>2021-08-14T09:56:42.000Z</time>
      </trkpt>
      <trkpt lat="49.86422" lon="4.81882">
        <ele>352</ele>
        <time>2021-08-14T09:56:43.000Z</time>
      </trkpt>
      <trkpt lat="49.86419" lon="4.81882">
        <ele>352</ele>
        <time>2021-08-14T09:56:44.000Z</time>
      </trkpt>
      <trkpt lat="49.86416" lon="4.81882">
        <ele>352</ele>
        <time>2021-08-14T09:56:45.000Z</time>
      </trkpt>
      <trkpt lat="49.86413" lon="4.81881">
        <ele>352</ele>
        <time>2021-08-14T09:56:46.000Z</time>
      </trkpt>
      <trkpt lat="49.8641" lon="4.81881">
        <ele>352</ele>
        <time>2021-08-14T09:56:47.000Z</time>
      </trkpt>
      <trkpt lat="49.86407" lon="4.8188">
        <ele>352</ele>
        <time>2021-08-14T09:56:48.000Z</time>
      </trkpt>
      <trkpt lat="49.86403" lon="4.81879">
        <ele>352</ele>
        <time>2021-08-14T09:56:49.000Z</time>
      </trkpt>
      <trkpt lat="49.864" lon="4.81877">
        <ele>351</ele>
        <time>2021-08-14T09:56:50.000Z</time>
      </trkpt>
      <trkpt lat="49.86397" lon="4.81876">
        <ele>352</ele>
        <time>2021-08-14T09:56:51.000Z</time>
      </trkpt>
      <trkpt lat="49.86394" lon="4.81874">
        <ele>352</ele>
        <time>2021-08-14T09:56:52.000Z</time>
      </trkpt>
      <trkpt lat="49.8639" lon="4.81872">
        <ele>352</ele>
        <time>2021-08-14T09:56:53.000Z</time>
      </trkpt>
      <trkpt lat="49.86387" lon="4.8187">
        <ele>352</ele>
        <time>2021-08-14T09:56:54.000Z</time>
      </trkpt>
      <trkpt lat="49.86383" lon="4.81869">
        <ele>352</ele>
        <time>2021-08-14T09:56:55.000Z</time>
      </trkpt>
      <trkpt lat="49.8638" lon="4.81869">
        <ele>352</ele>
        <time>2021-08-14T09:56:56.000Z</time>
      </trkpt>
      <trkpt lat="49.86377" lon="4.81868">
        <ele>352</ele>
        <time>2021-08-14T09:56:57.000Z</time>
      </trkpt>
      <trkpt lat="49.86374" lon="4.81867">
        <ele>352</ele>
        <time>2021-08-14T09:56:58.000Z</time>
      </trkpt>
      <trkpt lat="49.86371" lon="4.81867">
        <ele>352</ele>
        <time>2021-08-14T09:56:59.000Z</time>
      </trkpt>
      <trkpt lat="49.86368" lon="4.81866">
        <ele>352</ele>
        <time>2021-08-14T09:57:00.000Z</time>
      </trkpt>
      <trkpt lat="49.86365" lon="4.81865">
        <ele>352</ele>
        <time>2021-08-14T09:57:01.000Z</time>
      </trkpt>
      <trkpt lat="49.86362" lon="4.81864">
        <ele>352</ele>
        <time>2021-08-14T09:57:02.000Z</time>
      </trkpt>
      <trkpt lat="49.8636" lon="4.81863">
        <ele>352</ele>
        <time>2021-08-14T09:57:03.000Z</time>
      </trkpt>
      <trkpt lat="49.86357" lon="4.81863">
        <ele>352</ele>
        <time>2021-08-14T09:57:04.000Z</time>
      </trkpt>
      <trkpt lat="49.86355" lon="4.81863">
        <ele>352</ele>
        <time>2021-08-14T09:57:05.000Z</time>
      </trkpt>
      <trkpt lat="49.86353" lon="4.81863">
        <ele>352</ele>
        <time>2021-08-14T09:57:06.000Z</time>
      </trkpt>
      <trkpt lat="49.86352" lon="4.81862">
        <ele>352</ele>
        <time>2021-08-14T09:57:07.000Z</time>
      </trkpt>
      <trkpt lat="49.8635" lon="4.81861">
        <ele>352</ele>
        <time>2021-08-14T09:57:08.000Z</time>
      </trkpt>
      <trkpt lat="49.86348" lon="4.8186">
        <ele>352</ele>
        <time>2021-08-14T09:57:09.000Z</time>
      </trkpt>
      <trkpt lat="49.86346" lon="4.81859">
        <ele>352</ele>
        <time>2021-08-14T09:57:10.000Z</time>
      </trkpt>
      <trkpt lat="49.86344" lon="4.81858">
        <ele>352</ele>
        <time>2021-08-14T09:57:11.000Z</time>
      </trkpt>
      <trkpt lat="49.86341" lon="4.81857">
        <ele>352</ele>
        <time>2021-08-14T09:57:12.000Z</time>
      </trkpt>
      <trkpt lat="49.86337" lon="4.81856">
        <ele>352</ele>
        <time>2021-08-14T09:57:13.000Z</time>
      </trkpt>
      <trkpt lat="49.86334" lon="4.81854">
        <ele>352</ele>
        <time>2021-08-14T09:57:14.000Z</time>
      </trkpt>
      <trkpt lat="49.86332" lon="4.81852">
        <ele>352</ele>
        <time>2021-08-14T09:57:15.000Z</time>
      </trkpt>
      <trkpt lat="49.86329" lon="4.8185">
        <ele>352</ele>
        <time>2021-08-14T09:57:16.000Z</time>
      </trkpt>
      <trkpt lat="49.86326" lon="4.81848">
        <ele>352</ele>
        <time>2021-08-14T09:57:17.000Z</time>
      </trkpt>
      <trkpt lat="49.86322" lon="4.81846">
        <ele>352</ele>
        <time>2021-08-14T09:57:18.000Z</time>
      </trkpt>
      <trkpt lat="49.86318" lon="4.81844">
        <ele>352</ele>
        <time>2021-08-14T09:57:19.000Z</time>
      </trkpt>
      <trkpt lat="49.86315" lon="4.81843">
        <ele>352</ele>
        <time>2021-08-14T09:57:20.000Z</time>
      </trkpt>
      <trkpt lat="49.86312" lon="4.81842">
        <ele>352</ele>
        <time>2021-08-14T09:57:21.000Z</time>
      </trkpt>
      <trkpt lat="49.86308" lon="4.8184">
        <ele>352</ele>
        <time>2021-08-14T09:57:22.000Z</time>
      </trkpt>
      <trkpt lat="49.86304" lon="4.81839">
        <ele>352</ele>
        <time>2021-08-14T09:57:23.000Z</time>
      </trkpt>
      <trkpt lat="49.86301" lon="4.81837">
        <ele>352</ele>
        <time>2021-08-14T09:57:24.000Z</time>
      </trkpt>
      <trkpt lat="49.86298" lon="4.81836">
        <ele>352</ele>
        <time>2021-08-14T09:57:25.000Z</time>
      </trkpt>
      <trkpt lat="49.86295" lon="4.81835">
        <ele>352</ele>
        <time>2021-08-14T09:57:26.000Z</time>
      </trkpt>
      <trkpt lat="49.86291" lon="4.81834">
        <ele>352</ele>
        <time>2021-08-14T09:57:27.000Z</time>
      </trkpt>
      <trkpt lat="49.86288" lon="4.81832">
        <ele>352</ele>
        <time>2021-08-14T09:57:28.000Z</time>
      </trkpt>
      <trkpt lat="49.86284" lon="4.81831">
        <ele>352</ele>
        <time>2021-08-14T09:57:29.000Z</time>
      </trkpt>
      <trkpt lat="49.86281" lon="4.8183">
        <ele>352</ele>
        <time>2021-08-14T09:57:30.000Z</time>
      </trkpt>
      <trkpt lat="49.86277" lon="4.81829">
        <ele>353</ele>
        <time>2021-08-14T09:57:31.000Z</time>
      </trkpt>
      <trkpt lat="49.86273" lon="4.81828">
        <ele>353</ele>
        <time>2021-08-14T09:57:32.000Z</time>
      </trkpt>
      <trkpt lat="49.86269" lon="4.81827">
        <ele>353</ele>
        <time>2021-08-14T09:57:33.000Z</time>
      </trkpt>
      <trkpt lat="49.86266" lon="4.81826">
        <ele>353</ele>
        <time>2021-08-14T09:57:34.000Z</time>
      </trkpt>
      <trkpt lat="49.86263" lon="4.81824">
        <ele>353</ele>
        <time>2021-08-14T09:57:35.000Z</time>
      </trkpt>
      <trkpt lat="49.8626" lon="4.81823">
        <ele>353</ele>
        <time>2021-08-14T09:57:36.000Z</time>
      </trkpt>
      <trkpt lat="49.86256" lon="4.81822">
        <ele>353</ele>
        <time>2021-08-14T09:57:37.000Z</time>
      </trkpt>
      <trkpt lat="49.86253" lon="4.81821">
        <ele>353</ele>
        <time>2021-08-14T09:57:38.000Z</time>
      </trkpt>
      <trkpt lat="49.86249" lon="4.8182">
        <ele>353</ele>
        <time>2021-08-14T09:57:39.000Z</time>
      </trkpt>
      <trkpt lat="49.86246" lon="4.81819">
        <ele>353</ele>
        <time>2021-08-14T09:57:40.000Z</time>
      </trkpt>
      <trkpt lat="49.86243" lon="4.81818">
        <ele>353</ele>
        <time>2021-08-14T09:57:41.000Z</time>
      </trkpt>
      <trkpt lat="49.8624" lon="4.81817">
        <ele>353</ele>
        <time>2021-08-14T09:57:42.000Z</time>
      </trkpt>
      <trkpt lat="49.86237" lon="4.81817">
        <ele>353</ele>
        <time>2021-08-14T09:57:43.000Z</time>
      </trkpt>
      <trkpt lat="49.86234" lon="4.81816">
        <ele>353</ele>
        <time>2021-08-14T09:57:44.000Z</time>
      </trkpt>
      <trkpt lat="49.86231" lon="4.81814">
        <ele>353</ele>
        <time>2021-08-14T09:57:45.000Z</time>
      </trkpt>
      <trkpt lat="49.86227" lon="4.81813">
        <ele>353</ele>
        <time>2021-08-14T09:57:46.000Z</time>
      </trkpt>
      <trkpt lat="49.86224" lon="4.81811">
        <ele>353</ele>
        <time>2021-08-14T09:57:47.000Z</time>
      </trkpt>
      <trkpt lat="49.8622" lon="4.81809">
        <ele>353</ele>
        <time>2021-08-14T09:57:48.000Z</time>
      </trkpt>
      <trkpt lat="49.86216" lon="4.81808">
        <ele>353</ele>
        <time>2021-08-14T09:57:49.000Z</time>
      </trkpt>
      <trkpt lat="49.86212" lon="4.81806">
        <ele>353</ele>
        <time>2021-08-14T09:57:50.000Z</time>
      </trkpt>
      <trkpt lat="49.86208" lon="4.81804">
        <ele>353</ele>
        <time>2021-08-14T09:57:51.000Z</time>
      </trkpt>
      <trkpt lat="49.86205" lon="4.81802">
        <ele>353</ele>
        <time>2021-08-14T09:57:52.000Z</time>
      </trkpt>
      <trkpt lat="49.86202" lon="4.81801">
        <ele>353</ele>
        <time>2021-08-14T09:57:53.000Z</time>
      </trkpt>
      <trkpt lat="49.86198" lon="4.81799">
        <ele>353</ele>
        <time>2021-08-14T09:57:54.000Z</time>
      </trkpt>
      <trkpt lat="49.86194" lon="4.81797">
        <ele>353</ele>
        <time>2021-08-14T09:57:55.000Z</time>
      </trkpt>
      <trkpt lat="49.86191" lon="4.81795">
        <ele>353</ele>
        <time>2021-08-14T09:57:56.000Z</time>
      </trkpt>
      <trkpt lat="49.86187" lon="4.81793">
        <ele>352</ele>
        <time>2021-08-14T09:57:57.000Z</time>
      </trkpt>
      <trkpt lat="49.86184" lon="4.81791">
        <ele>352</ele>
        <time>2021-08-14T09:57:58.000Z</time>
      </trkpt>
      <trkpt lat="49.86181" lon="4.81789">
        <ele>352</ele>
        <time>2021-08-14T09:57:59.000Z</time>
      </trkpt>
      <trkpt lat="49.86178" lon="4.81787">
        <ele>352</ele>
        <time>2021-08-14T09:58:00.000Z</time>
      </trkpt>
      <trkpt lat="49.86175" lon="4.81785">
        <ele>352</ele>
        <time>2021-08-14T09:58:01.000Z</time>
      </trkpt>
      <trkpt lat="49.86172" lon="4.81783">
        <ele>352</ele>
        <time>2021-08-14T09:58:02.000Z</time>
      </trkpt>
      <trkpt lat="49.86169" lon="4.8178">
        <ele>351</ele>
        <time>2021-08-14T09:58:03.000Z</time>
      </trkpt>
      <trkpt lat="49.86166" lon="4.81777">
        <ele>351</ele>
        <time>2021-08-14T09:58:04.000Z</time>
      </trkpt>
      <trkpt lat="49.86163" lon="4.81775">
        <ele>351</ele>
        <time>2021-08-14T09:58:05.000Z</time>
      </trkpt>
      <trkpt lat="49.86159" lon="4.81772">
        <ele>351</ele>
        <time>2021-08-14T09:58:06.000Z</time>
      </trkpt>
      <trkpt lat="49.86156" lon="4.81769">
        <ele>351</ele>
        <time>2021-08-14T09:58:07.000Z</time>
      </trkpt>
      <trkpt lat="49.86153" lon="4.81766">
        <ele>351</ele>
        <time>2021-08-14T09:58:08.000Z</time>
      </trkpt>
      <trkpt lat="49.8615" lon="4.81763">
        <ele>350</ele>
        <time>2021-08-14T09:58:09.000Z</time>
      </trkpt>
      <trkpt lat="49.86147" lon="4.8176">
        <ele>350</ele>
        <time>2021-08-14T09:58:10.000Z</time>
      </trkpt>
      <trkpt lat="49.86144" lon="4.81757">
        <ele>350</ele>
        <time>2021-08-14T09:58:11.000Z</time>
      </trkpt>
      <trkpt lat="49.86141" lon="4.81755">
        <ele>350</ele>
        <time>2021-08-14T09:58:12.000Z</time>
      </trkpt>
      <trkpt lat="49.86138" lon="4.81752">
        <ele>350</ele>
        <time>2021-08-14T09:58:13.000Z</time>
      </trkpt>
      <trkpt lat="49.86135" lon="4.81749">
        <ele>350</ele>
        <time>2021-08-14T09:58:14.000Z</time>
      </trkpt>
      <trkpt lat="49.86132" lon="4.81747">
        <ele>350</ele>
        <time>2021-08-14T09:58:15.000Z</time>
      </trkpt>
      <trkpt lat="49.86129" lon="4.81744">
        <ele>350</ele>
        <time>2021-08-14T09:58:16.000Z</time>
      </trkpt>
      <trkpt lat="49.86126" lon="4.81743">
        <ele>350</ele>
        <time>2021-08-14T09:58:17.000Z</time>
      </trkpt>
      <trkpt lat="49.86123" lon="4.81741">
        <ele>350</ele>
        <time>2021-08-14T09:58:18.000Z</time>
      </trkpt>
      <trkpt lat="49.8612" lon="4.81739">
        <ele>350</ele>
        <time>2021-08-14T09:58:19.000Z</time>
      </trkpt>
      <trkpt lat="49.86118" lon="4.81736">
        <ele>350</ele>
        <time>2021-08-14T09:58:20.000Z</time>
      </trkpt>
      <trkpt lat="49.86116" lon="4.81734">
        <ele>350</ele>
        <time>2021-08-14T09:58:21.000Z</time>
      </trkpt>
      <trkpt lat="49.86113" lon="4.81732">
        <ele>350</ele>
        <time>2021-08-14T09:58:22.000Z</time>
      </trkpt>
      <trkpt lat="49.86111" lon="4.8173">
        <ele>350</ele>
        <time>2021-08-14T09:58:23.000Z</time>
      </trkpt>
      <trkpt lat="49.86108" lon="4.81727">
        <ele>350</ele>
        <time>2021-08-14T09:58:24.000Z</time>
      </trkpt>
      <trkpt lat="49.86105" lon="4.81725">
        <ele>350</ele>
        <time>2021-08-14T09:58:25.000Z</time>
      </trkpt>
      <trkpt lat="49.86102" lon="4.81723">
        <ele>350</ele>
        <time>2021-08-14T09:58:26.000Z</time>
      </trkpt>
      <trkpt lat="49.861" lon="4.8172">
        <ele>350</ele>
        <time>2021-08-14T09:58:27.000Z</time>
      </trkpt>
      <trkpt lat="49.86097" lon="4.81718">
        <ele>350</ele>
        <time>2021-08-14T09:58:28.000Z</time>
      </trkpt>
      <trkpt lat="49.86095" lon="4.81715">
        <ele>349</ele>
        <time>2021-08-14T09:58:29.000Z</time>
      </trkpt>
      <trkpt lat="49.86092" lon="4.81713">
        <ele>349</ele>
        <time>2021-08-14T09:58:30.000Z</time>
      </trkpt>
      <trkpt lat="49.8609" lon="4.81711">
        <ele>349</ele>
        <time>2021-08-14T09:58:31.000Z</time>
      </trkpt>
      <trkpt lat="49.86087" lon="4.81708">
        <ele>349</ele>
        <time>2021-08-14T09:58:32.000Z</time>
      </trkpt>
      <trkpt lat="49.86084" lon="4.81704">
        <ele>349</ele>
        <time>2021-08-14T09:58:33.000Z</time>
      </trkpt>
      <trkpt lat="49.86081" lon="4.81701">
        <ele>349</ele>
        <time>2021-08-14T09:58:34.000Z</time>
      </trkpt>
      <trkpt lat="49.86079" lon="4.81698">
        <ele>349</ele>
        <time>2021-08-14T09:58:35.000Z</time>
      </trkpt>
      <trkpt lat="49.86076" lon="4.81696">
        <ele>349</ele>
        <time>2021-08-14T09:58:36.000Z</time>
      </trkpt>
      <trkpt lat="49.86073" lon="4.81694">
        <ele>349</ele>
        <time>2021-08-14T09:58:37.000Z</time>
      </trkpt>
      <trkpt lat="49.86071" lon="4.81691">
        <ele>349</ele>
        <time>2021-08-14T09:58:38.000Z</time>
      </trkpt>
      <trkpt lat="49.86068" lon="4.81688">
        <ele>349</ele>
        <time>2021-08-14T09:58:39.000Z</time>
      </trkpt>
      <trkpt lat="49.86065" lon="4.81685">
        <ele>349</ele>
        <time>2021-08-14T09:58:40.000Z</time>
      </trkpt>
      <trkpt lat="49.86061" lon="4.81682">
        <ele>349</ele>
        <time>2021-08-14T09:58:41.000Z</time>
      </trkpt>
      <trkpt lat="49.86058" lon="4.8168">
        <ele>349</ele>
        <time>2021-08-14T09:58:42.000Z</time>
      </trkpt>
      <trkpt lat="49.86054" lon="4.81677">
        <ele>349</ele>
        <time>2021-08-14T09:58:43.000Z</time>
      </trkpt>
      <trkpt lat="49.86051" lon="4.81675">
        <ele>349</ele>
        <time>2021-08-14T09:58:44.000Z</time>
      </trkpt>
      <trkpt lat="49.86049" lon="4.81673">
        <ele>349</ele>
        <time>2021-08-14T09:58:45.000Z</time>
      </trkpt>
      <trkpt lat="49.86046" lon="4.81671">
        <ele>349</ele>
        <time>2021-08-14T09:58:46.000Z</time>
      </trkpt>
      <trkpt lat="49.86043" lon="4.81669">
        <ele>349</ele>
        <time>2021-08-14T09:58:47.000Z</time>
      </trkpt>
      <trkpt lat="49.8604" lon="4.81666">
        <ele>348</ele>
        <time>2021-08-14T09:58:48.000Z</time>
      </trkpt>
      <trkpt lat="49.86036" lon="4.81664">
        <ele>348</ele>
        <time>2021-08-14T09:58:49.000Z</time>
      </trkpt>
      <trkpt lat="49.86033" lon="4.81662">
        <ele>348</ele>
        <time>2021-08-14T09:58:50.000Z</time>
      </trkpt>
      <trkpt lat="49.86029" lon="4.8166">
        <ele>348</ele>
        <time>2021-08-14T09:58:51.000Z</time>
      </trkpt>
      <trkpt lat="49.86025" lon="4.81658">
        <ele>348</ele>
        <time>2021-08-14T09:58:52.000Z</time>
      </trkpt>
      <trkpt lat="49.86022" lon="4.81656">
        <ele>348</ele>
        <time>2021-08-14T09:58:53.000Z</time>
      </trkpt>
      <trkpt lat="49.86018" lon="4.81654">
        <ele>348</ele>
        <time>2021-08-14T09:58:54.000Z</time>
      </trkpt>
      <trkpt lat="49.86015" lon="4.81652">
        <ele>348</ele>
        <time>2021-08-14T09:58:55.000Z</time>
      </trkpt>
      <trkpt lat="49.86011" lon="4.8165">
        <ele>348</ele>
        <time>2021-08-14T09:58:56.000Z</time>
      </trkpt>
      <trkpt lat="49.86007" lon="4.81648">
        <ele>348</ele>
        <time>2021-08-14T09:58:57.000Z</time>
      </trkpt>
      <trkpt lat="49.86004" lon="4.81646">
        <ele>348</ele>
        <time>2021-08-14T09:58:58.000Z</time>
      </trkpt>
      <trkpt lat="49.86" lon="4.81644">
        <ele>348</ele>
        <time>2021-08-14T09:58:59.000Z</time>
      </trkpt>
      <trkpt lat="49.85997" lon="4.81642">
        <ele>348</ele>
        <time>2021-08-14T09:59:00.000Z</time>
      </trkpt>
      <trkpt lat="49.85993" lon="4.81641">
        <ele>349</ele>
        <time>2021-08-14T09:59:01.000Z</time>
      </trkpt>
      <trkpt lat="49.8599" lon="4.81639">
        <ele>349</ele>
        <time>2021-08-14T09:59:02.000Z</time>
      </trkpt>
      <trkpt lat="49.85986" lon="4.81637">
        <ele>349</ele>
        <time>2021-08-14T09:59:03.000Z</time>
      </trkpt>
      <trkpt lat="49.85983" lon="4.81636">
        <ele>349</ele>
        <time>2021-08-14T09:59:04.000Z</time>
      </trkpt>
      <trkpt lat="49.85979" lon="4.81634">
        <ele>349</ele>
        <time>2021-08-14T09:59:05.000Z</time>
      </trkpt>
      <trkpt lat="49.85975" lon="4.81632">
        <ele>349</ele>
        <time>2021-08-14T09:59:06.000Z</time>
      </trkpt>
      <trkpt lat="49.85971" lon="4.81631">
        <ele>349</ele>
        <time>2021-08-14T09:59:07.000Z</time>
      </trkpt>
      <trkpt lat="49.85967" lon="4.81629">
        <ele>349</ele>
        <time>2021-08-14T09:59:08.000Z</time>
      </trkpt>
      <trkpt lat="49.85963" lon="4.81628">
        <ele>349</ele>
        <time>2021-08-14T09:59:09.000Z</time>
      </trkpt>
      <trkpt lat="49.85959" lon="4.81627">
        <ele>349</ele>
        <time>2021-08-14T09:59:10.000Z</time>
      </trkpt>
      <trkpt lat="49.85955" lon="4.81625">
        <ele>349</ele>
        <time>2021-08-14T09:59:11.000Z</time>
      </trkpt>
      <trkpt lat="49.85951" lon="4.81623">
        <ele>349</ele>
        <time>2021-08-14T09:59:12.000Z</time>
      </trkpt>
      <trkpt lat="49.85947" lon="4.81621">
        <ele>349</ele>
        <time>2021-08-14T09:59:13.000Z</time>
      </trkpt>
      <trkpt lat="49.85942" lon="4.81619">
        <ele>349</ele>
        <time>2021-08-14T09:59:14.000Z</time>
      </trkpt>
      <trkpt lat="49.85938" lon="4.81617">
        <ele>348</ele>
        <time>2021-08-14T09:59:15.000Z</time>
      </trkpt>
      <trkpt lat="49.85934" lon="4.81615">
        <ele>348</ele>
        <time>2021-08-14T09:59:16.000Z</time>
      </trkpt>
      <trkpt lat="49.85929" lon="4.81613">
        <ele>348</ele>
        <time>2021-08-14T09:59:17.000Z</time>
      </trkpt>
      <trkpt lat="49.85925" lon="4.81612">
        <ele>348</ele>
        <time>2021-08-14T09:59:18.000Z</time>
      </trkpt>
      <trkpt lat="49.8592" lon="4.81611">
        <ele>348</ele>
        <time>2021-08-14T09:59:19.000Z</time>
      </trkpt>
      <trkpt lat="49.85916" lon="4.8161">
        <ele>348</ele>
        <time>2021-08-14T09:59:20.000Z</time>
      </trkpt>
      <trkpt lat="49.85911" lon="4.81609">
        <ele>348</ele>
        <time>2021-08-14T09:59:21.000Z</time>
      </trkpt>
      <trkpt lat="49.85907" lon="4.81608">
        <ele>347</ele>
        <time>2021-08-14T09:59:22.000Z</time>
      </trkpt>
      <trkpt lat="49.85902" lon="4.81607">
        <ele>347</ele>
        <time>2021-08-14T09:59:23.000Z</time>
      </trkpt>
      <trkpt lat="49.85898" lon="4.81606">
        <ele>347</ele>
        <time>2021-08-14T09:59:24.000Z</time>
      </trkpt>
      <trkpt lat="49.85893" lon="4.81606">
        <ele>347</ele>
        <time>2021-08-14T09:59:25.000Z</time>
      </trkpt>
      <trkpt lat="49.85889" lon="4.81606">
        <ele>347</ele>
        <time>2021-08-14T09:59:26.000Z</time>
      </trkpt>
      <trkpt lat="49.85885" lon="4.81606">
        <ele>347</ele>
        <time>2021-08-14T09:59:27.000Z</time>
      </trkpt>
      <trkpt lat="49.85882" lon="4.81606">
        <ele>347</ele>
        <time>2021-08-14T09:59:28.000Z</time>
      </trkpt>
      <trkpt lat="49.85878" lon="4.81607">
        <ele>347</ele>
        <time>2021-08-14T09:59:29.000Z</time>
      </trkpt>
      <trkpt lat="49.85874" lon="4.81608">
        <ele>347</ele>
        <time>2021-08-14T09:59:30.000Z</time>
      </trkpt>
      <trkpt lat="49.8587" lon="4.81609">
        <ele>347</ele>
        <time>2021-08-14T09:59:31.000Z</time>
      </trkpt>
      <trkpt lat="49.85866" lon="4.8161">
        <ele>347</ele>
        <time>2021-08-14T09:59:32.000Z</time>
      </trkpt>
      <trkpt lat="49.85862" lon="4.81611">
        <ele>347</ele>
        <time>2021-08-14T09:59:33.000Z</time>
      </trkpt>
      <trkpt lat="49.85858" lon="4.81612">
        <ele>347</ele>
        <time>2021-08-14T09:59:34.000Z</time>
      </trkpt>
      <trkpt lat="49.85854" lon="4.81614">
        <ele>347</ele>
        <time>2021-08-14T09:59:35.000Z</time>
      </trkpt>
      <trkpt lat="49.85849" lon="4.81615">
        <ele>347</ele>
        <time>2021-08-14T09:59:36.000Z</time>
      </trkpt>
      <trkpt lat="49.85845" lon="4.81616">
        <ele>347</ele>
        <time>2021-08-14T09:59:37.000Z</time>
      </trkpt>
      <trkpt lat="49.85841" lon="4.81618">
        <ele>347</ele>
        <time>2021-08-14T09:59:38.000Z</time>
      </trkpt>
      <trkpt lat="49.85837" lon="4.81619">
        <ele>347</ele>
        <time>2021-08-14T09:59:39.000Z</time>
      </trkpt>
      <trkpt lat="49.85833" lon="4.81619">
        <ele>347</ele>
        <time>2021-08-14T09:59:40.000Z</time>
      </trkpt>
      <trkpt lat="49.85828" lon="4.81619">
        <ele>347</ele>
        <time>2021-08-14T09:59:41.000Z</time>
      </trkpt>
      <trkpt lat="49.85824" lon="4.81619">
        <ele>347</ele>
        <time>2021-08-14T09:59:42.000Z</time>
      </trkpt>
      <trkpt lat="49.8582" lon="4.81619">
        <ele>347</ele>
        <time>2021-08-14T09:59:43.000Z</time>
      </trkpt>
      <trkpt lat="49.85816" lon="4.81619">
        <ele>347</ele>
        <time>2021-08-14T09:59:44.000Z</time>
      </trkpt>
      <trkpt lat="49.85813" lon="4.81619">
        <ele>347</ele>
        <time>2021-08-14T09:59:45.000Z</time>
      </trkpt>
      <trkpt lat="49.85809" lon="4.81618">
        <ele>347</ele>
        <time>2021-08-14T09:59:46.000Z</time>
      </trkpt>
      <trkpt lat="49.85806" lon="4.81617">
        <ele>347</ele>
        <time>2021-08-14T09:59:47.000Z</time>
      </trkpt>
      <trkpt lat="49.85803" lon="4.81617">
        <ele>347</ele>
        <time>2021-08-14T09:59:48.000Z</time>
      </trkpt>
      <trkpt lat="49.858" lon="4.81616">
        <ele>347</ele>
        <time>2021-08-14T09:59:49.000Z</time>
      </trkpt>
      <trkpt lat="49.85797" lon="4.81614">
        <ele>347</ele>
        <time>2021-08-14T09:59:50.000Z</time>
      </trkpt>
      <trkpt lat="49.85794" lon="4.81612">
        <ele>347</ele>
        <time>2021-08-14T09:59:51.000Z</time>
      </trkpt>
      <trkpt lat="49.8579" lon="4.8161">
        <ele>347</ele>
        <time>2021-08-14T09:59:52.000Z</time>
      </trkpt>
      <trkpt lat="49.85786" lon="4.81608">
        <ele>347</ele>
        <time>2021-08-14T09:59:53.000Z</time>
      </trkpt>
      <trkpt lat="49.85782" lon="4.81607">
        <ele>347</ele>
        <time>2021-08-14T09:59:54.000Z</time>
      </trkpt>
      <trkpt lat="49.85778" lon="4.81606">
        <ele>347</ele>
        <time>2021-08-14T09:59:55.000Z</time>
      </trkpt>
      <trkpt lat="49.85775" lon="4.81605">
        <ele>346</ele>
        <time>2021-08-14T09:59:56.000Z</time>
      </trkpt>
      <trkpt lat="49.85772" lon="4.81605">
        <ele>346</ele>
        <time>2021-08-14T09:59:57.000Z</time>
      </trkpt>
      <trkpt lat="49.85769" lon="4.81605">
        <ele>347</ele>
        <time>2021-08-14T09:59:58.000Z</time>
      </trkpt>
      <trkpt lat="49.85766" lon="4.81605">
        <ele>347</ele>
        <time>2021-08-14T09:59:59.000Z</time>
      </trkpt>
      <trkpt lat="49.85763" lon="4.81605">
        <ele>347</ele>
        <time>2021-08-14T10:00:00.000Z</time>
      </trkpt>
      <trkpt lat="49.8576" lon="4.81604">
        <ele>347</ele>
        <time>2021-08-14T10:00:01.000Z</time>
      </trkpt>
      <trkpt lat="49.85757" lon="4.81604">
        <ele>347</ele>
        <time>2021-08-14T10:00:02.000Z</time>
      </trkpt>
      <trkpt lat="49.85754" lon="4.81603">
        <ele>347</ele>
        <time>2021-08-14T10:00:03.000Z</time>
      </trkpt>
      <trkpt lat="49.85751" lon="4.81602">
        <ele>347</ele>
        <time>2021-08-14T10:00:04.000Z</time>
      </trkpt>
      <trkpt lat="49.85747" lon="4.81602">
        <ele>347</ele>
        <time>2021-08-14T10:00:05.000Z</time>
      </trkpt>
      <trkpt lat="49.85744" lon="4.81602">
        <ele>347</ele>
        <time>2021-08-14T10:00:06.000Z</time>
      </trkpt>
      <trkpt lat="49.85741" lon="4.81602">
        <ele>347</ele>
        <time>2021-08-14T10:00:07.000Z</time>
      </trkpt>
      <trkpt lat="49.85738" lon="4.81602">
        <ele>347</ele>
        <time>2021-08-14T10:00:08.000Z</time>
      </trkpt>
      <trkpt lat="49.85735" lon="4.81603">
        <ele>347</ele>
        <time>2021-08-14T10:00:09.000Z</time>
      </trkpt>
      <trkpt lat="49.85732" lon="4.81603">
        <ele>348</ele>
        <time>2021-08-14T10:00:10.000Z</time>
      </trkpt>
      <trkpt lat="49.8573" lon="4.81604">
        <ele>348</ele>
        <time>2021-08-14T10:00:11.000Z</time>
      </trkpt>
      <trkpt lat="49.85728" lon="4.81605">
        <ele>348</ele>
        <time>2021-08-14T10:00:12.000Z</time>
      </trkpt>
      <trkpt lat="49.85726" lon="4.81606">
        <ele>348</ele>
        <time>2021-08-14T10:00:13.000Z</time>
      </trkpt>
      <trkpt lat="49.85723" lon="4.81607">
        <ele>348</ele>
        <time>2021-08-14T10:00:14.000Z</time>
      </trkpt>
      <trkpt lat="49.85721" lon="4.81608">
        <ele>348</ele>
        <time>2021-08-14T10:00:15.000Z</time>
      </trkpt>
      <trkpt lat="49.85718" lon="4.81609">
        <ele>348</ele>
        <time>2021-08-14T10:00:16.000Z</time>
      </trkpt>
      <trkpt lat="49.85716" lon="4.8161">
        <ele>349</ele>
        <time>2021-08-14T10:00:17.000Z</time>
      </trkpt>
      <trkpt lat="49.85713" lon="4.8161">
        <ele>349</ele>
        <time>2021-08-14T10:00:18.000Z</time>
      </trkpt>
      <trkpt lat="49.85711" lon="4.81611">
        <ele>349</ele>
        <time>2021-08-14T10:00:19.000Z</time>
      </trkpt>
      <trkpt lat="49.85708" lon="4.81612">
        <ele>349</ele>
        <time>2021-08-14T10:00:20.000Z</time>
      </trkpt>
      <trkpt lat="49.85705" lon="4.81613">
        <ele>349</ele>
        <time>2021-08-14T10:00:21.000Z</time>
      </trkpt>
      <trkpt lat="49.85702" lon="4.81613">
        <ele>349</ele>
        <time>2021-08-14T10:00:22.000Z</time>
      </trkpt>
      <trkpt lat="49.85699" lon="4.81614">
        <ele>350</ele>
        <time>2021-08-14T10:00:23.000Z</time>
      </trkpt>
      <trkpt lat="49.85696" lon="4.81614">
        <ele>350</ele>
        <time>2021-08-14T10:00:24.000Z</time>
      </trkpt>
      <trkpt lat="49.85693" lon="4.81615">
        <ele>350</ele>
        <time>2021-08-14T10:00:25.000Z</time>
      </trkpt>
      <trkpt lat="49.85691" lon="4.81616">
        <ele>350</ele>
        <time>2021-08-14T10:00:26.000Z</time>
      </trkpt>
      <trkpt lat="49.85688" lon="4.81616">
        <ele>350</ele>
        <time>2021-08-14T10:00:27.000Z</time>
      </trkpt>
      <trkpt lat="49.85687" lon="4.81616">
        <ele>350</ele>
        <time>2021-08-14T10:00:28.000Z</time>
      </trkpt>
      <trkpt lat="49.85684" lon="4.81617">
        <ele>350</ele>
        <time>2021-08-14T10:00:29.000Z</time>
      </trkpt>
      <trkpt lat="49.85682" lon="4.81617">
        <ele>351</ele>
        <time>2021-08-14T10:00:30.000Z</time>
      </trkpt>
      <trkpt lat="49.85679" lon="4.81617">
        <ele>351</ele>
        <time>2021-08-14T10:00:31.000Z</time>
      </trkpt>
      <trkpt lat="49.85676" lon="4.81618">
        <ele>351</ele>
        <time>2021-08-14T10:00:32.000Z</time>
      </trkpt>
      <trkpt lat="49.85674" lon="4.81618">
        <ele>351</ele>
        <time>2021-08-14T10:00:33.000Z</time>
      </trkpt>
      <trkpt lat="49.85671" lon="4.81619">
        <ele>351</ele>
        <time>2021-08-14T10:00:34.000Z</time>
      </trkpt>
      <trkpt lat="49.85669" lon="4.81618">
        <ele>351</ele>
        <time>2021-08-14T10:00:35.000Z</time>
      </trkpt>
      <trkpt lat="49.85667" lon="4.81618">
        <ele>351</ele>
        <time>2021-08-14T10:00:36.000Z</time>
      </trkpt>
      <trkpt lat="49.85664" lon="4.81619">
        <ele>351</ele>
        <time>2021-08-14T10:00:37.000Z</time>
      </trkpt>
      <trkpt lat="49.85662" lon="4.81619">
        <ele>351</ele>
        <time>2021-08-14T10:00:38.000Z</time>
      </trkpt>
      <trkpt lat="49.8566" lon="4.81619">
        <ele>351</ele>
        <time>2021-08-14T10:00:39.000Z</time>
      </trkpt>
      <trkpt lat="49.85658" lon="4.81619">
        <ele>351</ele>
        <time>2021-08-14T10:00:40.000Z</time>
      </trkpt>
      <trkpt lat="49.85655" lon="4.81619">
        <ele>351</ele>
        <time>2021-08-14T10:00:41.000Z</time>
      </trkpt>
      <trkpt lat="49.85652" lon="4.81619">
        <ele>351</ele>
        <time>2021-08-14T10:00:42.000Z</time>
      </trkpt>
      <trkpt lat="49.85649" lon="4.81619">
        <ele>351</ele>
        <time>2021-08-14T10:00:43.000Z</time>
      </trkpt>
      <trkpt lat="49.85646" lon="4.81619">
        <ele>351</ele>
        <time>2021-08-14T10:00:44.000Z</time>
      </trkpt>
      <trkpt lat="49.85643" lon="4.81619">
        <ele>351</ele>
        <time>2021-08-14T10:00:45.000Z</time>
      </trkpt>
      <trkpt lat="49.85639" lon="4.81619">
        <ele>351</ele>
        <time>2021-08-14T10:00:46.000Z</time>
      </trkpt>
      <trkpt lat="49.85636" lon="4.81619">
        <ele>352</ele>
        <time>2021-08-14T10:00:47.000Z</time>
      </trkpt>
      <trkpt lat="49.85633" lon="4.8162">
        <ele>352</ele>
        <time>2021-08-14T10:00:48.000Z</time>
      </trkpt>
      <trkpt lat="49.8563" lon="4.8162">
        <ele>352</ele>
        <time>2021-08-14T10:00:49.000Z</time>
      </trkpt>
      <trkpt lat="49.85627" lon="4.81621">
        <ele>352</ele>
        <time>2021-08-14T10:00:50.000Z</time>
      </trkpt>
      <trkpt lat="49.85623" lon="4.81621">
        <ele>352</ele>
        <time>2021-08-14T10:00:51.000Z</time>
      </trkpt>
      <trkpt lat="49.8562" lon="4.81622">
        <ele>352</ele>
        <time>2021-08-14T10:00:52.000Z</time>
      </trkpt>
      <trkpt lat="49.85617" lon="4.81622">
        <ele>352</ele>
        <time>2021-08-14T10:00:53.000Z</time>
      </trkpt>
      <trkpt lat="49.85614" lon="4.81623">
        <ele>352</ele>
        <time>2021-08-14T10:00:54.000Z</time>
      </trkpt>
      <trkpt lat="49.8561" lon="4.81624">
        <ele>352</ele>
        <time>2021-08-14T10:00:55.000Z</time>
      </trkpt>
      <trkpt lat="49.85607" lon="4.81624">
        <ele>353</ele>
        <time>2021-08-14T10:00:56.000Z</time>
      </trkpt>
      <trkpt lat="49.85603" lon="4.81624">
        <ele>353</ele>
        <time>2021-08-14T10:00:57.000Z</time>
      </trkpt>
      <trkpt lat="49.85599" lon="4.81624">
        <ele>353</ele>
        <time>2021-08-14T10:00:58.000Z</time>
      </trkpt>
      <trkpt lat="49.85596" lon="4.81625">
        <ele>353</ele>
        <time>2021-08-14T10:00:59.000Z</time>
      </trkpt>
      <trkpt lat="49.85592" lon="4.81625">
        <ele>353</ele>
        <time>2021-08-14T10:01:00.000Z</time>
      </trkpt>
      <trkpt lat="49.85589" lon="4.81626">
        <ele>353</ele>
        <time>2021-08-14T10:01:01.000Z</time>
      </trkpt>
      <trkpt lat="49.85585" lon="4.81626">
        <ele>354</ele>
        <time>2021-08-14T10:01:02.000Z</time>
      </trkpt>
      <trkpt lat="49.85583" lon="4.81627">
        <ele>354</ele>
        <time>2021-08-14T10:01:03.000Z</time>
      </trkpt>
      <trkpt lat="49.8558" lon="4.81628">
        <ele>354</ele>
        <time>2021-08-14T10:01:04.000Z</time>
      </trkpt>
      <trkpt lat="49.85577" lon="4.81628">
        <ele>354</ele>
        <time>2021-08-14T10:01:05.000Z</time>
      </trkpt>
      <trkpt lat="49.85574" lon="4.81629">
        <ele>355</ele>
        <time>2021-08-14T10:01:06.000Z</time>
      </trkpt>
      <trkpt lat="49.85572" lon="4.81629">
        <ele>355</ele>
        <time>2021-08-14T10:01:07.000Z</time>
      </trkpt>
      <trkpt lat="49.8557" lon="4.81629">
        <ele>355</ele>
        <time>2021-08-14T10:01:08.000Z</time>
      </trkpt>
      <trkpt lat="49.85566" lon="4.81629">
        <ele>355</ele>
        <time>2021-08-14T10:01:09.000Z</time>
      </trkpt>
      <trkpt lat="49.85563" lon="4.81629">
        <ele>356</ele>
        <time>2021-08-14T10:01:10.000Z</time>
      </trkpt>
      <trkpt lat="49.8556" lon="4.8163">
        <ele>356</ele>
        <time>2021-08-14T10:01:11.000Z</time>
      </trkpt>
      <trkpt lat="49.85557" lon="4.8163">
        <ele>356</ele>
        <time>2021-08-14T10:01:12.000Z</time>
      </trkpt>
      <trkpt lat="49.85554" lon="4.81631">
        <ele>356</ele>
        <time>2021-08-14T10:01:13.000Z</time>
      </trkpt>
      <trkpt lat="49.85551" lon="4.81631">
        <ele>357</ele>
        <time>2021-08-14T10:01:14.000Z</time>
      </trkpt>
      <trkpt lat="49.85549" lon="4.81631">
        <ele>357</ele>
        <time>2021-08-14T10:01:15.000Z</time>
      </trkpt>
      <trkpt lat="49.85547" lon="4.81631">
        <ele>357</ele>
        <time>2021-08-14T10:01:16.000Z</time>
      </trkpt>
      <trkpt lat="49.85545" lon="4.81632">
        <ele>357</ele>
        <time>2021-08-14T10:01:17.000Z</time>
      </trkpt>
      <trkpt lat="49.85543" lon="4.81632">
        <ele>358</ele>
        <time>2021-08-14T10:01:18.000Z</time>
      </trkpt>
      <trkpt lat="49.85541" lon="4.81632">
        <ele>358</ele>
        <time>2021-08-14T10:01:19.000Z</time>
      </trkpt>
      <trkpt lat="49.85538" lon="4.81633">
        <ele>358</ele>
        <time>2021-08-14T10:01:20.000Z</time>
      </trkpt>
      <trkpt lat="49.85536" lon="4.81634">
        <ele>358</ele>
        <time>2021-08-14T10:01:21.000Z</time>
      </trkpt>
      <trkpt lat="49.85534" lon="4.81634">
        <ele>358</ele>
        <time>2021-08-14T10:01:22.000Z</time>
      </trkpt>
      <trkpt lat="49.85531" lon="4.81635">
        <ele>358</ele>
        <time>2021-08-14T10:01:23.000Z</time>
      </trkpt>
      <trkpt lat="49.85529" lon="4.81636">
        <ele>359</ele>
        <time>2021-08-14T10:01:24.000Z</time>
      </trkpt>
      <trkpt lat="49.85527" lon="4.81637">
        <ele>359</ele>
        <time>2021-08-14T10:01:25.000Z</time>
      </trkpt>
      <trkpt lat="49.85525" lon="4.81637">
        <ele>359</ele>
        <time>2021-08-14T10:01:26.000Z</time>
      </trkpt>
      <trkpt lat="49.85523" lon="4.81638">
        <ele>359</ele>
        <time>2021-08-14T10:01:27.000Z</time>
      </trkpt>
      <trkpt lat="49.85521" lon="4.81639">
        <ele>359</ele>
        <time>2021-08-14T10:01:28.000Z</time>
      </trkpt>
      <trkpt lat="49.85518" lon="4.8164">
        <ele>359</ele>
        <time>2021-08-14T10:01:29.000Z</time>
      </trkpt>
      <trkpt lat="49.85516" lon="4.8164">
        <ele>360</ele>
        <time>2021-08-14T10:01:30.000Z</time>
      </trkpt>
      <trkpt lat="49.85514" lon="4.81641">
        <ele>360</ele>
        <time>2021-08-14T10:01:31.000Z</time>
      </trkpt>
      <trkpt lat="49.85513" lon="4.81642">
        <ele>360</ele>
        <time>2021-08-14T10:01:32.000Z</time>
      </trkpt>
      <trkpt lat="49.85511" lon="4.81643">
        <ele>360</ele>
        <time>2021-08-14T10:01:33.000Z</time>
      </trkpt>
      <trkpt lat="49.85509" lon="4.81645">
        <ele>361</ele>
        <time>2021-08-14T10:01:34.000Z</time>
      </trkpt>
      <trkpt lat="49.85507" lon="4.81646">
        <ele>361</ele>
        <time>2021-08-14T10:01:35.000Z</time>
      </trkpt>
      <trkpt lat="49.85505" lon="4.81647">
        <ele>361</ele>
        <time>2021-08-14T10:01:36.000Z</time>
      </trkpt>
      <trkpt lat="49.85503" lon="4.81648">
        <ele>362</ele>
        <time>2021-08-14T10:01:37.000Z</time>
      </trkpt>
      <trkpt lat="49.85501" lon="4.81649">
        <ele>362</ele>
        <time>2021-08-14T10:01:38.000Z</time>
      </trkpt>
      <trkpt lat="49.85499" lon="4.8165">
        <ele>362</ele>
        <time>2021-08-14T10:01:39.000Z</time>
      </trkpt>
      <trkpt lat="49.85497" lon="4.81651">
        <ele>363</ele>
        <time>2021-08-14T10:01:40.000Z</time>
      </trkpt>
      <trkpt lat="49.85495" lon="4.81652">
        <ele>363</ele>
        <time>2021-08-14T10:01:41.000Z</time>
      </trkpt>
      <trkpt lat="49.85493" lon="4.81653">
        <ele>363</ele>
        <time>2021-08-14T10:01:42.000Z</time>
      </trkpt>
      <trkpt lat="49.85491" lon="4.81653">
        <ele>364</ele>
        <time>2021-08-14T10:01:43.000Z</time>
      </trkpt>
      <trkpt lat="49.85489" lon="4.81654">
        <ele>364</ele>
        <time>2021-08-14T10:01:44.000Z</time>
      </trkpt>
      <trkpt lat="49.85487" lon="4.81655">
        <ele>365</ele>
        <time>2021-08-14T10:01:45.000Z</time>
      </trkpt>
      <trkpt lat="49.85485" lon="4.81656">
        <ele>365</ele>
        <time>2021-08-14T10:01:46.000Z</time>
      </trkpt>
      <trkpt lat="49.85483" lon="4.81657">
        <ele>366</ele>
        <time>2021-08-14T10:01:47.000Z</time>
      </trkpt>
      <trkpt lat="49.8548" lon="4.81657">
        <ele>366</ele>
        <time>2021-08-14T10:01:48.000Z</time>
      </trkpt>
      <trkpt lat="49.85478" lon="4.81658">
        <ele>366</ele>
        <time>2021-08-14T10:01:49.000Z</time>
      </trkpt>
      <trkpt lat="49.85476" lon="4.81658">
        <ele>367</ele>
        <time>2021-08-14T10:01:50.000Z</time>
      </trkpt>
      <trkpt lat="49.85474" lon="4.81659">
        <ele>367</ele>
        <time>2021-08-14T10:01:51.000Z</time>
      </trkpt>
      <trkpt lat="49.85472" lon="4.8166">
        <ele>367</ele>
        <time>2021-08-14T10:01:52.000Z</time>
      </trkpt>
      <trkpt lat="49.8547" lon="4.81661">
        <ele>367</ele>
        <time>2021-08-14T10:01:53.000Z</time>
      </trkpt>
      <trkpt lat="49.85468" lon="4.81661">
        <ele>368</ele>
        <time>2021-08-14T10:01:54.000Z</time>
      </trkpt>
      <trkpt lat="49.85466" lon="4.81662">
        <ele>368</ele>
        <time>2021-08-14T10:01:55.000Z</time>
      </trkpt>
      <trkpt lat="49.85464" lon="4.81662">
        <ele>368</ele>
        <time>2021-08-14T10:01:56.000Z</time>
      </trkpt>
      <trkpt lat="49.85461" lon="4.81662">
        <ele>369</ele>
        <time>2021-08-14T10:01:57.000Z</time>
      </trkpt>
      <trkpt lat="49.8546" lon="4.81662">
        <ele>369</ele>
        <time>2021-08-14T10:01:58.000Z</time>
      </trkpt>
      <trkpt lat="49.85458" lon="4.81663">
        <ele>369</ele>
        <time>2021-08-14T10:01:59.000Z</time>
      </trkpt>
      <trkpt lat="49.85456" lon="4.81663">
        <ele>370</ele>
        <time>2021-08-14T10:02:00.000Z</time>
      </trkpt>
      <trkpt lat="49.85455" lon="4.81663">
        <ele>370</ele>
        <time>2021-08-14T10:02:01.000Z</time>
      </trkpt>
      <trkpt lat="49.85453" lon="4.81664">
        <ele>370</ele>
        <time>2021-08-14T10:02:02.000Z</time>
      </trkpt>
      <trkpt lat="49.85451" lon="4.81664">
        <ele>371</ele>
        <time>2021-08-14T10:02:03.000Z</time>
      </trkpt>
      <trkpt lat="49.85449" lon="4.81665">
        <ele>371</ele>
        <time>2021-08-14T10:02:04.000Z</time>
      </trkpt>
      <trkpt lat="49.85447" lon="4.81665">
        <ele>371</ele>
        <time>2021-08-14T10:02:05.000Z</time>
      </trkpt>
      <trkpt lat="49.85444" lon="4.81666">
        <ele>372</ele>
        <time>2021-08-14T10:02:06.000Z</time>
      </trkpt>
      <trkpt lat="49.85442" lon="4.81666">
        <ele>372</ele>
        <time>2021-08-14T10:02:07.000Z</time>
      </trkpt>
      <trkpt lat="49.85441" lon="4.81667">
        <ele>372</ele>
        <time>2021-08-14T10:02:08.000Z</time>
      </trkpt>
      <trkpt lat="49.85438" lon="4.81668">
        <ele>372</ele>
        <time>2021-08-14T10:02:09.000Z</time>
      </trkpt>
      <trkpt lat="49.85436" lon="4.81668">
        <ele>373</ele>
        <time>2021-08-14T10:02:10.000Z</time>
      </trkpt>
      <trkpt lat="49.85434" lon="4.81668">
        <ele>373</ele>
        <time>2021-08-14T10:02:11.000Z</time>
      </trkpt>
      <trkpt lat="49.85431" lon="4.81668">
        <ele>373</ele>
        <time>2021-08-14T10:02:12.000Z</time>
      </trkpt>
      <trkpt lat="49.85429" lon="4.81668">
        <ele>373</ele>
        <time>2021-08-14T10:02:13.000Z</time>
      </trkpt>
      <trkpt lat="49.85426" lon="4.81669">
        <ele>373</ele>
        <time>2021-08-14T10:02:14.000Z</time>
      </trkpt>
      <trkpt lat="49.85424" lon="4.81669">
        <ele>374</ele>
        <time>2021-08-14T10:02:15.000Z</time>
      </trkpt>
      <trkpt lat="49.85421" lon="4.81669">
        <ele>374</ele>
        <time>2021-08-14T10:02:16.000Z</time>
      </trkpt>
      <trkpt lat="49.85419" lon="4.81669">
        <ele>374</ele>
        <time>2021-08-14T10:02:17.000Z</time>
      </trkpt>
      <trkpt lat="49.85417" lon="4.81669">
        <ele>374</ele>
        <time>2021-08-14T10:02:18.000Z</time>
      </trkpt>
      <trkpt lat="49.85414" lon="4.81669">
        <ele>374</ele>
        <time>2021-08-14T10:02:19.000Z</time>
      </trkpt>
      <trkpt lat="49.85412" lon="4.81669">
        <ele>374</ele>
        <time>2021-08-14T10:02:20.000Z</time>
      </trkpt>
      <trkpt lat="49.85409" lon="4.81669">
        <ele>375</ele>
        <time>2021-08-14T10:02:21.000Z</time>
      </trkpt>
      <trkpt lat="49.85407" lon="4.81669">
        <ele>375</ele>
        <time>2021-08-14T10:02:22.000Z</time>
      </trkpt>
      <trkpt lat="49.85404" lon="4.81669">
        <ele>375</ele>
        <time>2021-08-14T10:02:23.000Z</time>
      </trkpt>
      <trkpt lat="49.85401" lon="4.81668">
        <ele>375</ele>
        <time>2021-08-14T10:02:24.000Z</time>
      </trkpt>
      <trkpt lat="49.85399" lon="4.81668">
        <ele>375</ele>
        <time>2021-08-14T10:02:25.000Z</time>
      </trkpt>
      <trkpt lat="49.85397" lon="4.81667">
        <ele>375</ele>
        <time>2021-08-14T10:02:26.000Z</time>
      </trkpt>
      <trkpt lat="49.85394" lon="4.81667">
        <ele>375</ele>
        <time>2021-08-14T10:02:27.000Z</time>
      </trkpt>
      <trkpt lat="49.85392" lon="4.81666">
        <ele>375</ele>
        <time>2021-08-14T10:02:28.000Z</time>
      </trkpt>
      <trkpt lat="49.85389" lon="4.81665">
        <ele>375</ele>
        <time>2021-08-14T10:02:29.000Z</time>
      </trkpt>
      <trkpt lat="49.85386" lon="4.81664">
        <ele>375</ele>
        <time>2021-08-14T10:02:30.000Z</time>
      </trkpt>
      <trkpt lat="49.85383" lon="4.81663">
        <ele>375</ele>
        <time>2021-08-14T10:02:31.000Z</time>
      </trkpt>
      <trkpt lat="49.8538" lon="4.81662">
        <ele>375</ele>
        <time>2021-08-14T10:02:32.000Z</time>
      </trkpt>
      <trkpt lat="49.85378" lon="4.81661">
        <ele>375</ele>
        <time>2021-08-14T10:02:33.000Z</time>
      </trkpt>
      <trkpt lat="49.85375" lon="4.81659">
        <ele>375</ele>
        <time>2021-08-14T10:02:34.000Z</time>
      </trkpt>
      <trkpt lat="49.85372" lon="4.81658">
        <ele>374</ele>
        <time>2021-08-14T10:02:35.000Z</time>
      </trkpt>
      <trkpt lat="49.85369" lon="4.81656">
        <ele>374</ele>
        <time>2021-08-14T10:02:36.000Z</time>
      </trkpt>
      <trkpt lat="49.85366" lon="4.81654">
        <ele>374</ele>
        <time>2021-08-14T10:02:37.000Z</time>
      </trkpt>
      <trkpt lat="49.85362" lon="4.81653">
        <ele>374</ele>
        <time>2021-08-14T10:02:38.000Z</time>
      </trkpt>
      <trkpt lat="49.85359" lon="4.8165">
        <ele>374</ele>
        <time>2021-08-14T10:02:39.000Z</time>
      </trkpt>
      <trkpt lat="49.85356" lon="4.81649">
        <ele>374</ele>
        <time>2021-08-14T10:02:40.000Z</time>
      </trkpt>
      <trkpt lat="49.85353" lon="4.81647">
        <ele>374</ele>
        <time>2021-08-14T10:02:41.000Z</time>
      </trkpt>
      <trkpt lat="49.85351" lon="4.81645">
        <ele>374</ele>
        <time>2021-08-14T10:02:42.000Z</time>
      </trkpt>
      <trkpt lat="49.85348" lon="4.81642">
        <ele>374</ele>
        <time>2021-08-14T10:02:43.000Z</time>
      </trkpt>
      <trkpt lat="49.85345" lon="4.8164">
        <ele>374</ele>
        <time>2021-08-14T10:02:44.000Z</time>
      </trkpt>
      <trkpt lat="49.85342" lon="4.81637">
        <ele>374</ele>
        <time>2021-08-14T10:02:45.000Z</time>
      </trkpt>
      <trkpt lat="49.85339" lon="4.81634">
        <ele>374</ele>
        <time>2021-08-14T10:02:46.000Z</time>
      </trkpt>
      <trkpt lat="49.85337" lon="4.81631">
        <ele>374</ele>
        <time>2021-08-14T10:02:47.000Z</time>
      </trkpt>
      <trkpt lat="49.85334" lon="4.81628">
        <ele>374</ele>
        <time>2021-08-14T10:02:48.000Z</time>
      </trkpt>
      <trkpt lat="49.85332" lon="4.81626">
        <ele>374</ele>
        <time>2021-08-14T10:02:49.000Z</time>
      </trkpt>
      <trkpt lat="49.8533" lon="4.81623">
        <ele>373</ele>
        <time>2021-08-14T10:02:50.000Z</time>
      </trkpt>
      <trkpt lat="49.85327" lon="4.81621">
        <ele>373</ele>
        <time>2021-08-14T10:02:51.000Z</time>
      </trkpt>
      <trkpt lat="49.85325" lon="4.81618">
        <ele>373</ele>
        <time>2021-08-14T10:02:52.000Z</time>
      </trkpt>
      <trkpt lat="49.85323" lon="4.81616">
        <ele>373</ele>
        <time>2021-08-14T10:02:53.000Z</time>
      </trkpt>
      <trkpt lat="49.8532" lon="4.81613">
        <ele>373</ele>
        <time>2021-08-14T10:02:54.000Z</time>
      </trkpt>
      <trkpt lat="49.85318" lon="4.8161">
        <ele>373</ele>
        <time>2021-08-14T10:02:55.000Z</time>
      </trkpt>
      <trkpt lat="49.85315" lon="4.81607">
        <ele>373</ele>
        <time>2021-08-14T10:02:56.000Z</time>
      </trkpt>
      <trkpt lat="49.85313" lon="4.81604">
        <ele>373</ele>
        <time>2021-08-14T10:02:57.000Z</time>
      </trkpt>
      <trkpt lat="49.8531" lon="4.81601">
        <ele>373</ele>
        <time>2021-08-14T10:02:58.000Z</time>
      </trkpt>
      <trkpt lat="49.85308" lon="4.81597">
        <ele>373</ele>
        <time>2021-08-14T10:02:59.000Z</time>
      </trkpt>
      <trkpt lat="49.85306" lon="4.81594">
        <ele>373</ele>
        <time>2021-08-14T10:03:00.000Z</time>
      </trkpt>
      <trkpt lat="49.85304" lon="4.81592">
        <ele>373</ele>
        <time>2021-08-14T10:03:01.000Z</time>
      </trkpt>
      <trkpt lat="49.85302" lon="4.8159">
        <ele>373</ele>
        <time>2021-08-14T10:03:02.000Z</time>
      </trkpt>
      <trkpt lat="49.853" lon="4.81589">
        <ele>373</ele>
        <time>2021-08-14T10:03:03.000Z</time>
      </trkpt>
      <trkpt lat="49.85298" lon="4.81589">
        <ele>373</ele>
        <time>2021-08-14T10:03:04.000Z</time>
      </trkpt>
      <trkpt lat="49.85296" lon="4.81589">
        <ele>373</ele>
        <time>2021-08-14T10:03:05.000Z</time>
      </trkpt>
      <trkpt lat="49.85294" lon="4.81589">
        <ele>373</ele>
        <time>2021-08-14T10:03:06.000Z</time>
      </trkpt>
      <trkpt lat="49.85292" lon="4.81589">
        <ele>373</ele>
        <time>2021-08-14T10:03:07.000Z</time>
      </trkpt>
      <trkpt lat="49.85291" lon="4.81587">
        <ele>373</ele>
        <time>2021-08-14T10:03:08.000Z</time>
      </trkpt>
      <trkpt lat="49.8529" lon="4.81585">
        <ele>373</ele>
        <time>2021-08-14T10:03:09.000Z</time>
      </trkpt>
      <trkpt lat="49.85288" lon="4.81584">
        <ele>373</ele>
        <time>2021-08-14T10:03:10.000Z</time>
      </trkpt>
      <trkpt lat="49.85287" lon="4.81582">
        <ele>373</ele>
        <time>2021-08-14T10:03:11.000Z</time>
      </trkpt>
      <trkpt lat="49.85287" lon="4.81579">
        <ele>373</ele>
        <time>2021-08-14T10:03:12.000Z</time>
      </trkpt>
      <trkpt lat="49.85287" lon="4.81577">
        <ele>373</ele>
        <time>2021-08-14T10:03:13.000Z</time>
      </trkpt>
      <trkpt lat="49.85288" lon="4.81575">
        <ele>373</ele>
        <time>2021-08-14T10:03:14.000Z</time>
      </trkpt>
      <trkpt lat="49.85288" lon="4.81572">
        <ele>373</ele>
        <time>2021-08-14T10:03:15.000Z</time>
      </trkpt>
      <trkpt lat="49.85289" lon="4.81569">
        <ele>373</ele>
        <time>2021-08-14T10:03:16.000Z</time>
      </trkpt>
      <trkpt lat="49.85287" lon="4.81566">
        <ele>373</ele>
        <time>2021-08-14T10:03:17.000Z</time>
      </trkpt>
      <trkpt lat="49.85285" lon="4.81564">
        <ele>373</ele>
        <time>2021-08-14T10:03:18.000Z</time>
      </trkpt>
      <trkpt lat="49.85284" lon="4.81561">
        <ele>373</ele>
        <time>2021-08-14T10:03:19.000Z</time>
      </trkpt>
      <trkpt lat="49.85281" lon="4.81557">
        <ele>374</ele>
        <time>2021-08-14T10:03:20.000Z</time>
      </trkpt>
      <trkpt lat="49.85279" lon="4.81554">
        <ele>374</ele>
        <time>2021-08-14T10:03:21.000Z</time>
      </trkpt>
      <trkpt lat="49.85277" lon="4.81551">
        <ele>374</ele>
        <time>2021-08-14T10:03:22.000Z</time>
      </trkpt>
      <trkpt lat="49.85275" lon="4.81547">
        <ele>374</ele>
        <time>2021-08-14T10:03:23.000Z</time>
      </trkpt>
      <trkpt lat="49.85273" lon="4.81544">
        <ele>374</ele>
        <time>2021-08-14T10:03:24.000Z</time>
      </trkpt>
      <trkpt lat="49.85271" lon="4.81541">
        <ele>374</ele>
        <time>2021-08-14T10:03:25.000Z</time>
      </trkpt>
      <trkpt lat="49.85268" lon="4.81537">
        <ele>375</ele>
        <time>2021-08-14T10:03:26.000Z</time>
      </trkpt>
      <trkpt lat="49.85266" lon="4.81534">
        <ele>375</ele>
        <time>2021-08-14T10:03:27.000Z</time>
      </trkpt>
      <trkpt lat="49.85264" lon="4.81531">
        <ele>375</ele>
        <time>2021-08-14T10:03:28.000Z</time>
      </trkpt>
      <trkpt lat="49.85262" lon="4.81528">
        <ele>375</ele>
        <time>2021-08-14T10:03:29.000Z</time>
      </trkpt>
      <trkpt lat="49.85259" lon="4.81525">
        <ele>376</ele>
        <time>2021-08-14T10:03:30.000Z</time>
      </trkpt>
      <trkpt lat="49.85257" lon="4.81522">
        <ele>376</ele>
        <time>2021-08-14T10:03:31.000Z</time>
      </trkpt>
      <trkpt lat="49.85255" lon="4.81519">
        <ele>376</ele>
        <time>2021-08-14T10:03:32.000Z</time>
      </trkpt>
      <trkpt lat="49.85253" lon="4.81516">
        <ele>377</ele>
        <time>2021-08-14T10:03:33.000Z</time>
      </trkpt>
      <trkpt lat="49.85251" lon="4.81514">
        <ele>377</ele>
        <time>2021-08-14T10:03:34.000Z</time>
      </trkpt>
      <trkpt lat="49.85249" lon="4.81511">
        <ele>377</ele>
        <time>2021-08-14T10:03:35.000Z</time>
      </trkpt>
      <trkpt lat="49.85247" lon="4.81508">
        <ele>377</ele>
        <time>2021-08-14T10:03:36.000Z</time>
      </trkpt>
      <trkpt lat="49.85244" lon="4.81505">
        <ele>378</ele>
        <time>2021-08-14T10:03:37.000Z</time>
      </trkpt>
      <trkpt lat="49.85243" lon="4.81503">
        <ele>378</ele>
        <time>2021-08-14T10:03:38.000Z</time>
      </trkpt>
      <trkpt lat="49.85241" lon="4.815">
        <ele>378</ele>
        <time>2021-08-14T10:03:39.000Z</time>
      </trkpt>
      <trkpt lat="49.85239" lon="4.81497">
        <ele>378</ele>
        <time>2021-08-14T10:03:40.000Z</time>
      </trkpt>
      <trkpt lat="49.85237" lon="4.81494">
        <ele>378</ele>
        <time>2021-08-14T10:03:41.000Z</time>
      </trkpt>
      <trkpt lat="49.85235" lon="4.81491">
        <ele>378</ele>
        <time>2021-08-14T10:03:42.000Z</time>
      </trkpt>
      <trkpt lat="49.85233" lon="4.81488">
        <ele>378</ele>
        <time>2021-08-14T10:03:43.000Z</time>
      </trkpt>
      <trkpt lat="49.85231" lon="4.81485">
        <ele>378</ele>
        <time>2021-08-14T10:03:44.000Z</time>
      </trkpt>
      <trkpt lat="49.85229" lon="4.81482">
        <ele>379</ele>
        <time>2021-08-14T10:03:45.000Z</time>
      </trkpt>
      <trkpt lat="49.85227" lon="4.81479">
        <ele>379</ele>
        <time>2021-08-14T10:03:46.000Z</time>
      </trkpt>
      <trkpt lat="49.85225" lon="4.81477">
        <ele>379</ele>
        <time>2021-08-14T10:03:47.000Z</time>
      </trkpt>
      <trkpt lat="49.85223" lon="4.81474">
        <ele>379</ele>
        <time>2021-08-14T10:03:48.000Z</time>
      </trkpt>
      <trkpt lat="49.85221" lon="4.81471">
        <ele>379</ele>
        <time>2021-08-14T10:03:49.000Z</time>
      </trkpt>
      <trkpt lat="49.85218" lon="4.81468">
        <ele>379</ele>
        <time>2021-08-14T10:03:50.000Z</time>
      </trkpt>
      <trkpt lat="49.85216" lon="4.81465">
        <ele>379</ele>
        <time>2021-08-14T10:03:51.000Z</time>
      </trkpt>
      <trkpt lat="49.85213" lon="4.81462">
        <ele>379</ele>
        <time>2021-08-14T10:03:52.000Z</time>
      </trkpt>
      <trkpt lat="49.85211" lon="4.81459">
        <ele>380</ele>
        <time>2021-08-14T10:03:53.000Z</time>
      </trkpt>
      <trkpt lat="49.85209" lon="4.81456">
        <ele>380</ele>
        <time>2021-08-14T10:03:54.000Z</time>
      </trkpt>
      <trkpt lat="49.85207" lon="4.81453">
        <ele>380</ele>
        <time>2021-08-14T10:03:55.000Z</time>
      </trkpt>
      <trkpt lat="49.85205" lon="4.8145">
        <ele>380</ele>
        <time>2021-08-14T10:03:56.000Z</time>
      </trkpt>
      <trkpt lat="49.85202" lon="4.81447">
        <ele>380</ele>
        <time>2021-08-14T10:03:57.000Z</time>
      </trkpt>
      <trkpt lat="49.852" lon="4.81443">
        <ele>380</ele>
        <time>2021-08-14T10:03:58.000Z</time>
      </trkpt>
      <trkpt lat="49.85198" lon="4.8144">
        <ele>380</ele>
        <time>2021-08-14T10:03:59.000Z</time>
      </trkpt>
      <trkpt lat="49.85196" lon="4.81436">
        <ele>380</ele>
        <time>2021-08-14T10:04:00.000Z</time>
      </trkpt>
      <trkpt lat="49.85195" lon="4.81433">
        <ele>380</ele>
        <time>2021-08-14T10:04:01.000Z</time>
      </trkpt>
      <trkpt lat="49.85193" lon="4.81429">
        <ele>380</ele>
        <time>2021-08-14T10:04:02.000Z</time>
      </trkpt>
      <trkpt lat="49.85191" lon="4.81425">
        <ele>380</ele>
        <time>2021-08-14T10:04:03.000Z</time>
      </trkpt>
      <trkpt lat="49.85189" lon="4.81422">
        <ele>381</ele>
        <time>2021-08-14T10:04:04.000Z</time>
      </trkpt>
      <trkpt lat="49.85188" lon="4.81418">
        <ele>381</ele>
        <time>2021-08-14T10:04:05.000Z</time>
      </trkpt>
      <trkpt lat="49.85186" lon="4.81415">
        <ele>381</ele>
        <time>2021-08-14T10:04:06.000Z</time>
      </trkpt>
      <trkpt lat="49.85184" lon="4.81412">
        <ele>381</ele>
        <time>2021-08-14T10:04:07.000Z</time>
      </trkpt>
      <trkpt lat="49.85182" lon="4.81408">
        <ele>381</ele>
        <time>2021-08-14T10:04:08.000Z</time>
      </trkpt>
      <trkpt lat="49.8518" lon="4.81404">
        <ele>381</ele>
        <time>2021-08-14T10:04:09.000Z</time>
      </trkpt>
      <trkpt lat="49.85178" lon="4.81401">
        <ele>381</ele>
        <time>2021-08-14T10:04:10.000Z</time>
      </trkpt>
      <trkpt lat="49.85176" lon="4.81398">
        <ele>381</ele>
        <time>2021-08-14T10:04:11.000Z</time>
      </trkpt>
      <trkpt lat="49.85174" lon="4.81394">
        <ele>381</ele>
        <time>2021-08-14T10:04:12.000Z</time>
      </trkpt>
      <trkpt lat="49.85171" lon="4.81391">
        <ele>382</ele>
        <time>2021-08-14T10:04:13.000Z</time>
      </trkpt>
      <trkpt lat="49.85169" lon="4.81388">
        <ele>382</ele>
        <time>2021-08-14T10:04:14.000Z</time>
      </trkpt>
      <trkpt lat="49.85167" lon="4.81385">
        <ele>382</ele>
        <time>2021-08-14T10:04:15.000Z</time>
      </trkpt>
      <trkpt lat="49.85165" lon="4.81382">
        <ele>382</ele>
        <time>2021-08-14T10:04:16.000Z</time>
      </trkpt>
      <trkpt lat="49.85162" lon="4.81378">
        <ele>382</ele>
        <time>2021-08-14T10:04:17.000Z</time>
      </trkpt>
      <trkpt lat="49.8516" lon="4.81375">
        <ele>382</ele>
        <time>2021-08-14T10:04:18.000Z</time>
      </trkpt>
      <trkpt lat="49.85158" lon="4.81372">
        <ele>383</ele>
        <time>2021-08-14T10:04:19.000Z</time>
      </trkpt>
      <trkpt lat="49.85156" lon="4.81368">
        <ele>383</ele>
        <time>2021-08-14T10:04:20.000Z</time>
      </trkpt>
      <trkpt lat="49.85155" lon="4.81365">
        <ele>383</ele>
        <time>2021-08-14T10:04:21.000Z</time>
      </trkpt>
      <trkpt lat="49.85153" lon="4.81361">
        <ele>383</ele>
        <time>2021-08-14T10:04:22.000Z</time>
      </trkpt>
      <trkpt lat="49.85151" lon="4.81358">
        <ele>383</ele>
        <time>2021-08-14T10:04:23.000Z</time>
      </trkpt>
      <trkpt lat="49.85149" lon="4.81355">
        <ele>383</ele>
        <time>2021-08-14T10:04:24.000Z</time>
      </trkpt>
      <trkpt lat="49.85147" lon="4.81352">
        <ele>384</ele>
        <time>2021-08-14T10:04:25.000Z</time>
      </trkpt>
      <trkpt lat="49.85145" lon="4.81349">
        <ele>384</ele>
        <time>2021-08-14T10:04:26.000Z</time>
      </trkpt>
      <trkpt lat="49.85144" lon="4.81346">
        <ele>384</ele>
        <time>2021-08-14T10:04:27.000Z</time>
      </trkpt>
      <trkpt lat="49.85142" lon="4.81343">
        <ele>384</ele>
        <time>2021-08-14T10:04:28.000Z</time>
      </trkpt>
      <trkpt lat="49.8514" lon="4.81341">
        <ele>384</ele>
        <time>2021-08-14T10:04:29.000Z</time>
      </trkpt>
      <trkpt lat="49.85138" lon="4.81338">
        <ele>384</ele>
        <time>2021-08-14T10:04:30.000Z</time>
      </trkpt>
      <trkpt lat="49.85136" lon="4.81335">
        <ele>384</ele>
        <time>2021-08-14T10:04:31.000Z</time>
      </trkpt>
      <trkpt lat="49.85134" lon="4.81332">
        <ele>384</ele>
        <time>2021-08-14T10:04:32.000Z</time>
      </trkpt>
      <trkpt lat="49.85132" lon="4.81329">
        <ele>383</ele>
        <time>2021-08-14T10:04:33.000Z</time>
      </trkpt>
      <trkpt lat="49.85129" lon="4.81326">
        <ele>383</ele>
        <time>2021-08-14T10:04:34.000Z</time>
      </trkpt>
      <trkpt lat="49.85127" lon="4.81323">
        <ele>383</ele>
        <time>2021-08-14T10:04:35.000Z</time>
      </trkpt>
      <trkpt lat="49.85124" lon="4.81321">
        <ele>383</ele>
        <time>2021-08-14T10:04:36.000Z</time>
      </trkpt>
      <trkpt lat="49.85121" lon="4.81319">
        <ele>383</ele>
        <time>2021-08-14T10:04:37.000Z</time>
      </trkpt>
      <trkpt lat="49.85119" lon="4.81317">
        <ele>383</ele>
        <time>2021-08-14T10:04:38.000Z</time>
      </trkpt>
      <trkpt lat="49.85116" lon="4.81316">
        <ele>383</ele>
        <time>2021-08-14T10:04:39.000Z</time>
      </trkpt>
      <trkpt lat="49.85114" lon="4.81315">
        <ele>383</ele>
        <time>2021-08-14T10:04:40.000Z</time>
      </trkpt>
      <trkpt lat="49.85112" lon="4.81316">
        <ele>383</ele>
        <time>2021-08-14T10:04:41.000Z</time>
      </trkpt>
      <trkpt lat="49.85112" lon="4.81318">
        <ele>383</ele>
        <time>2021-08-14T10:04:42.000Z</time>
      </trkpt>
      <trkpt lat="49.85111" lon="4.81321">
        <ele>383</ele>
        <time>2021-08-14T10:04:43.000Z</time>
      </trkpt>
      <trkpt lat="49.85112" lon="4.81323">
        <ele>383</ele>
        <time>2021-08-14T10:04:44.000Z</time>
      </trkpt>
      <trkpt lat="49.85112" lon="4.81326">
        <ele>383</ele>
        <time>2021-08-14T10:04:45.000Z</time>
      </trkpt>
      <trkpt lat="49.85113" lon="4.81328">
        <ele>383</ele>
        <time>2021-08-14T10:04:46.000Z</time>
      </trkpt>
      <trkpt lat="49.85114" lon="4.81331">
        <ele>383</ele>
        <time>2021-08-14T10:04:47.000Z</time>
      </trkpt>
      <trkpt lat="49.85116" lon="4.81334">
        <ele>383</ele>
        <time>2021-08-14T10:04:48.000Z</time>
      </trkpt>
      <trkpt lat="49.85118" lon="4.81338">
        <ele>384</ele>
        <time>2021-08-14T10:04:49.000Z</time>
      </trkpt>
      <trkpt lat="49.8512" lon="4.81342">
        <ele>384</ele>
        <time>2021-08-14T10:04:50.000Z</time>
      </trkpt>
      <trkpt lat="49.85122" lon="4.81346">
        <ele>384</ele>
        <time>2021-08-14T10:04:51.000Z</time>
      </trkpt>
      <trkpt lat="49.85124" lon="4.81349">
        <ele>384</ele>
        <time>2021-08-14T10:04:52.000Z</time>
      </trkpt>
      <trkpt lat="49.85126" lon="4.81354">
        <ele>384</ele>
        <time>2021-08-14T10:04:53.000Z</time>
      </trkpt>
      <trkpt lat="49.85128" lon="4.81359">
        <ele>384</ele>
        <time>2021-08-14T10:04:54.000Z</time>
      </trkpt>
      <trkpt lat="49.8513" lon="4.81364">
        <ele>384</ele>
        <time>2021-08-14T10:04:55.000Z</time>
      </trkpt>
      <trkpt lat="49.85132" lon="4.8137">
        <ele>384</ele>
        <time>2021-08-14T10:04:56.000Z</time>
      </trkpt>
      <trkpt lat="49.85135" lon="4.81376">
        <ele>384</ele>
        <time>2021-08-14T10:04:57.000Z</time>
      </trkpt>
      <trkpt lat="49.85137" lon="4.81382">
        <ele>384</ele>
        <time>2021-08-14T10:04:58.000Z</time>
      </trkpt>
      <trkpt lat="49.85139" lon="4.81387">
        <ele>384</ele>
        <time>2021-08-14T10:04:59.000Z</time>
      </trkpt>
      <trkpt lat="49.8514" lon="4.81392">
        <ele>385</ele>
        <time>2021-08-14T10:05:00.000Z</time>
      </trkpt>
      <trkpt lat="49.85141" lon="4.81398">
        <ele>385</ele>
        <time>2021-08-14T10:05:01.000Z</time>
      </trkpt>
      <trkpt lat="49.85142" lon="4.81403">
        <ele>385</ele>
        <time>2021-08-14T10:05:02.000Z</time>
      </trkpt>
      <trkpt lat="49.85143" lon="4.8141">
        <ele>385</ele>
        <time>2021-08-14T10:05:03.000Z</time>
      </trkpt>
      <trkpt lat="49.85144" lon="4.81417">
        <ele>385</ele>
        <time>2021-08-14T10:05:04.000Z</time>
      </trkpt>
      <trkpt lat="49.85145" lon="4.81424">
        <ele>386</ele>
        <time>2021-08-14T10:05:05.000Z</time>
      </trkpt>
      <trkpt lat="49.85145" lon="4.81432">
        <ele>386</ele>
        <time>2021-08-14T10:05:06.000Z</time>
      </trkpt>
      <trkpt lat="49.85146" lon="4.81439">
        <ele>386</ele>
        <time>2021-08-14T10:05:07.000Z</time>
      </trkpt>
      <trkpt lat="49.85147" lon="4.81445">
        <ele>386</ele>
        <time>2021-08-14T10:05:08.000Z</time>
      </trkpt>
      <trkpt lat="49.85147" lon="4.81452">
        <ele>386</ele>
        <time>2021-08-14T10:05:09.000Z</time>
      </trkpt>
      <trkpt lat="49.85148" lon="4.81458">
        <ele>387</ele>
        <time>2021-08-14T10:05:10.000Z</time>
      </trkpt>
      <trkpt lat="49.85149" lon="4.81465">
        <ele>387</ele>
        <time>2021-08-14T10:05:11.000Z</time>
      </trkpt>
      <trkpt lat="49.85149" lon="4.81473">
        <ele>387</ele>
        <time>2021-08-14T10:05:12.000Z</time>
      </trkpt>
      <trkpt lat="49.85148" lon="4.8148">
        <ele>387</ele>
        <time>2021-08-14T10:05:13.000Z</time>
      </trkpt>
      <trkpt lat="49.85148" lon="4.81488">
        <ele>387</ele>
        <time>2021-08-14T10:05:14.000Z</time>
      </trkpt>
      <trkpt lat="49.85147" lon="4.81495">
        <ele>387</ele>
        <time>2021-08-14T10:05:15.000Z</time>
      </trkpt>
      <trkpt lat="49.85147" lon="4.81502">
        <ele>388</ele>
        <time>2021-08-14T10:05:16.000Z</time>
      </trkpt>
      <trkpt lat="49.85146" lon="4.81509">
        <ele>388</ele>
        <time>2021-08-14T10:05:17.000Z</time>
      </trkpt>
      <trkpt lat="49.85146" lon="4.81515">
        <ele>388</ele>
        <time>2021-08-14T10:05:18.000Z</time>
      </trkpt>
      <trkpt lat="49.85146" lon="4.81522">
        <ele>388</ele>
        <time>2021-08-14T10:05:19.000Z</time>
      </trkpt>
      <trkpt lat="49.85145" lon="4.81528">
        <ele>389</ele>
        <time>2021-08-14T10:05:20.000Z</time>
      </trkpt>
      <trkpt lat="49.85145" lon="4.81535">
        <ele>389</ele>
        <time>2021-08-14T10:05:21.000Z</time>
      </trkpt>
      <trkpt lat="49.85144" lon="4.81541">
        <ele>389</ele>
        <time>2021-08-14T10:05:22.000Z</time>
      </trkpt>
      <trkpt lat="49.85144" lon="4.81548">
        <ele>389</ele>
        <time>2021-08-14T10:05:23.000Z</time>
      </trkpt>
      <trkpt lat="49.85144" lon="4.81554">
        <ele>390</ele>
        <time>2021-08-14T10:05:24.000Z</time>
      </trkpt>
      <trkpt lat="49.85143" lon="4.81561">
        <ele>390</ele>
        <time>2021-08-14T10:05:25.000Z</time>
      </trkpt>
      <trkpt lat="49.85144" lon="4.81568">
        <ele>390</ele>
        <time>2021-08-14T10:05:26.000Z</time>
      </trkpt>
      <trkpt lat="49.85144" lon="4.81575">
        <ele>390</ele>
        <time>2021-08-14T10:05:27.000Z</time>
      </trkpt>
      <trkpt lat="49.85143" lon="4.81581">
        <ele>391</ele>
        <time>2021-08-14T10:05:28.000Z</time>
      </trkpt>
      <trkpt lat="49.85142" lon="4.81587">
        <ele>391</ele>
        <time>2021-08-14T10:05:29.000Z</time>
      </trkpt>
      <trkpt lat="49.85141" lon="4.81592">
        <ele>391</ele>
        <time>2021-08-14T10:05:30.000Z</time>
      </trkpt>
      <trkpt lat="49.8514" lon="4.81598">
        <ele>392</ele>
        <time>2021-08-14T10:05:31.000Z</time>
      </trkpt>
      <trkpt lat="49.85139" lon="4.81603">
        <ele>392</ele>
        <time>2021-08-14T10:05:32.000Z</time>
      </trkpt>
      <trkpt lat="49.85138" lon="4.81609">
        <ele>392</ele>
        <time>2021-08-14T10:05:33.000Z</time>
      </trkpt>
      <trkpt lat="49.85138" lon="4.81616">
        <ele>393</ele>
        <time>2021-08-14T10:05:34.000Z</time>
      </trkpt>
      <trkpt lat="49.85138" lon="4.81621">
        <ele>393</ele>
        <time>2021-08-14T10:05:35.000Z</time>
      </trkpt>
      <trkpt lat="49.85138" lon="4.81626">
        <ele>393</ele>
        <time>2021-08-14T10:05:36.000Z</time>
      </trkpt>
      <trkpt lat="49.85138" lon="4.81632">
        <ele>393</ele>
        <time>2021-08-14T10:05:37.000Z</time>
      </trkpt>
      <trkpt lat="49.85138" lon="4.81639">
        <ele>393</ele>
        <time>2021-08-14T10:05:38.000Z</time>
      </trkpt>
      <trkpt lat="49.85139" lon="4.81644">
        <ele>393</ele>
        <time>2021-08-14T10:05:39.000Z</time>
      </trkpt>
      <trkpt lat="49.8514" lon="4.81648">
        <ele>394</ele>
        <time>2021-08-14T10:05:40.000Z</time>
      </trkpt>
      <trkpt lat="49.85141" lon="4.81651">
        <ele>394</ele>
        <time>2021-08-14T10:05:41.000Z</time>
      </trkpt>
      <trkpt lat="49.85143" lon="4.81656">
        <ele>394</ele>
        <time>2021-08-14T10:05:42.000Z</time>
      </trkpt>
      <trkpt lat="49.85144" lon="4.81661">
        <ele>394</ele>
        <time>2021-08-14T10:05:43.000Z</time>
      </trkpt>
      <trkpt lat="49.85145" lon="4.81666">
        <ele>395</ele>
        <time>2021-08-14T10:05:44.000Z</time>
      </trkpt>
      <trkpt lat="49.85145" lon="4.81671">
        <ele>395</ele>
        <time>2021-08-14T10:05:45.000Z</time>
      </trkpt>
      <trkpt lat="49.85146" lon="4.81674">
        <ele>395</ele>
        <time>2021-08-14T10:05:46.000Z</time>
      </trkpt>
      <trkpt lat="49.85146" lon="4.81675">
        <ele>395</ele>
        <time>2021-08-14T10:05:47.000Z</time>
      </trkpt>
      <trkpt lat="49.85146" lon="4.81676">
        <ele>395</ele>
        <time>2021-08-14T10:05:48.000Z</time>
      </trkpt>
      <trkpt lat="49.85147" lon="4.81676">
        <ele>395</ele>
        <time>2021-08-14T10:05:49.000Z</time>
      </trkpt>
      <trkpt lat="49.85147" lon="4.81677">
        <ele>395</ele>
        <time>2021-08-14T10:05:50.000Z</time>
      </trkpt>
      <trkpt lat="49.85148" lon="4.81677">
        <ele>396</ele>
        <time>2021-08-14T10:05:51.000Z</time>
      </trkpt>
      <trkpt lat="49.85148" lon="4.81678">
        <ele>396</ele>
        <time>2021-08-14T10:05:52.000Z</time>
      </trkpt>
      <trkpt lat="49.85149" lon="4.81678">
        <ele>396</ele>
        <time>2021-08-14T10:05:53.000Z</time>
      </trkpt>
      <trkpt lat="49.85149" lon="4.81679">
        <ele>396</ele>
        <time>2021-08-14T10:05:54.000Z</time>
      </trkpt>
      <trkpt lat="49.8515" lon="4.81679">
        <ele>396</ele>
        <time>2021-08-14T10:05:55.000Z</time>
      </trkpt>
      <trkpt lat="49.8515" lon="4.8168">
        <ele>396</ele>
        <time>2021-08-14T10:05:56.000Z</time>
      </trkpt>
      <trkpt lat="49.8515" lon="4.8168">
        <ele>396</ele>
        <time>2021-08-14T10:05:57.000Z</time>
      </trkpt>
      <trkpt lat="49.8515" lon="4.8168">
        <ele>396</ele>
        <time>2021-08-14T10:05:58.000Z</time>
      </trkpt>
      <trkpt lat="49.8515" lon="4.81681">
        <ele>396</ele>
        <time>2021-08-14T10:05:59.000Z</time>
      </trkpt>
      <trkpt lat="49.85151" lon="4.81681">
        <ele>396</ele>
        <time>2021-08-14T10:06:00.000Z</time>
      </trkpt>
      <trkpt lat="49.85151" lon="4.81681">
        <ele>397</ele>
        <time>2021-08-14T10:06:01.000Z</time>
      </trkpt>
      <trkpt lat="49.85151" lon="4.81681">
        <ele>397</ele>
        <time>2021-08-14T10:06:02.000Z</time>
      </trkpt>
      <trkpt lat="49.85151" lon="4.81682">
        <ele>397</ele>
        <time>2021-08-14T10:06:03.000Z</time>
      </trkpt>
      <trkpt lat="49.85152" lon="4.81682">
        <ele>397</ele>
        <time>2021-08-14T10:06:04.000Z</time>
      </trkpt>
      <trkpt lat="49.85152" lon="4.81682">
        <ele>397</ele>
        <time>2021-08-14T10:06:05.000Z</time>
      </trkpt>
      <trkpt lat="49.85152" lon="4.81682">
        <ele>397</ele>
        <time>2021-08-14T10:06:06.000Z</time>
      </trkpt>
      <trkpt lat="49.85152" lon="4.81683">
        <ele>397</ele>
        <time>2021-08-14T10:06:07.000Z</time>
      </trkpt>
      <trkpt lat="49.85152" lon="4.81683">
        <ele>397</ele>
        <time>2021-08-14T10:06:08.000Z</time>
      </trkpt>
      <trkpt lat="49.85152" lon="4.81683">
        <ele>397</ele>
        <time>2021-08-14T10:06:09.000Z</time>
      </trkpt>
      <trkpt lat="49.85152" lon="4.81683">
        <ele>397</ele>
        <time>2021-08-14T10:06:10.000Z</time>
      </trkpt>
      <trkpt lat="49.85153" lon="4.81683">
        <ele>397</ele>
        <time>2021-08-14T10:06:11.000Z</time>
      </trkpt>
      <trkpt lat="49.85153" lon="4.81683">
        <ele>397</ele>
        <time>2021-08-14T10:06:12.000Z</time>
      </trkpt>
      <trkpt lat="49.85153" lon="4.81683">
        <ele>397</ele>
        <time>2021-08-14T10:06:13.000Z</time>
      </trkpt>
      <trkpt lat="49.85153" lon="4.81684">
        <ele>397</ele>
        <time>2021-08-14T10:06:14.000Z</time>
      </trkpt>
      <trkpt lat="49.85153" lon="4.81684">
        <ele>397</ele>
        <time>2021-08-14T10:06:15.000Z</time>
      </trkpt>
      <trkpt lat="49.85153" lon="4.81684">
        <ele>397</ele>
        <time>2021-08-14T10:06:16.000Z</time>
      </trkpt>
      <trkpt lat="49.85153" lon="4.81684">
        <ele>397</ele>
        <time>2021-08-14T10:06:17.000Z</time>
      </trkpt>
      <trkpt lat="49.85153" lon="4.81684">
        <ele>397</ele>
        <time>2021-08-14T10:06:18.000Z</time>
      </trkpt>
      <trkpt lat="49.85153" lon="4.81684">
        <ele>397</ele>
        <time>2021-08-14T10:06:19.000Z</time>
      </trkpt>
      <trkpt lat="49.85153" lon="4.81684">
        <ele>397</ele>
        <time>2021-08-14T10:06:20.000Z</time>
      </trkpt>
      <trkpt lat="49.85153" lon="4.81684">
        <ele>397</ele>
        <time>2021-08-14T10:06:21.000Z</time>
      </trkpt>
      <trkpt lat="49.85153" lon="4.81684">
        <ele>397</ele>
        <time>2021-08-14T10:06:22.000Z</time>
      </trkpt>
      <trkpt lat="49.85153" lon="4.81684">
        <ele>397</ele>
        <time>2021-08-14T10:06:23.000Z</time>
      </trkpt>
      <trkpt lat="49.85154" lon="4.81684">
        <ele>397</ele>
        <time>2021-08-14T10:06:24.000Z</time>
      </trkpt>
      <trkpt lat="49.85154" lon="4.81684">
        <ele>397</ele>
        <time>2021-08-14T10:06:25.000Z</time>
      </trkpt>
      <trkpt lat="49.85154" lon="4.81685">
        <ele>398</ele>
        <time>2021-08-14T10:06:26.000Z</time>
      </trkpt>
      <trkpt lat="49.85153" lon="4.81685">
        <ele>398</ele>
        <time>2021-08-14T10:06:27.000Z</time>
      </trkpt>
      <trkpt lat="49.85153" lon="4.81685">
        <ele>398</ele>
        <time>2021-08-14T10:06:28.000Z</time>
      </trkpt>
      <trkpt lat="49.85153" lon="4.81685">
        <ele>398</ele>
        <time>2021-08-14T10:06:29.000Z</time>
      </trkpt>
      <trkpt lat="49.85154" lon="4.81685">
        <ele>398</ele>
        <time>2021-08-14T10:06:30.000Z</time>
      </trkpt>
      <trkpt lat="49.85154" lon="4.81685">
        <ele>398</ele>
        <time>2021-08-14T10:06:31.000Z</time>
      </trkpt>
      <trkpt lat="49.85154" lon="4.81686">
        <ele>398</ele>
        <time>2021-08-14T10:06:32.000Z</time>
      </trkpt>
      <trkpt lat="49.85154" lon="4.81686">
        <ele>398</ele>
        <time>2021-08-14T10:06:33.000Z</time>
      </trkpt>
      <trkpt lat="49.85154" lon="4.81685">
        <ele>398</ele>
        <time>2021-08-14T10:06:34.000Z</time>
      </trkpt>
      <trkpt lat="49.85154" lon="4.81685">
        <ele>398</ele>
        <time>2021-08-14T10:06:35.000Z</time>
      </trkpt>
      <trkpt lat="49.85154" lon="4.81685">
        <ele>398</ele>
        <time>2021-08-14T10:06:36.000Z</time>
      </trkpt>
      <trkpt lat="49.85153" lon="4.81685">
        <ele>399</ele>
        <time>2021-08-14T10:06:37.000Z</time>
      </trkpt>
      <trkpt lat="49.85153" lon="4.81685">
        <ele>399</ele>
        <time>2021-08-14T10:06:38.000Z</time>
      </trkpt>
      <trkpt lat="49.85153" lon="4.81685">
        <ele>399</ele>
        <time>2021-08-14T10:06:39.000Z</time>
      </trkpt>
      <trkpt lat="49.85153" lon="4.81685">
        <ele>399</ele>
        <time>2021-08-14T10:06:40.000Z</time>
      </trkpt>
      <trkpt lat="49.85153" lon="4.81685">
        <ele>399</ele>
        <time>2021-08-14T10:06:41.000Z</time>
      </trkpt>
      <trkpt lat="49.85153" lon="4.81685">
        <ele>399</ele>
        <time>2021-08-14T10:06:42.000Z</time>
      </trkpt>
      <trkpt lat="49.85153" lon="4.81686">
        <ele>399</ele>
        <time>2021-08-14T10:06:43.000Z</time>
      </trkpt>
      <trkpt lat="49.85153" lon="4.81686">
        <ele>399</ele>
        <time>2021-08-14T10:06:44.000Z</time>
      </trkpt>
      <trkpt lat="49.85153" lon="4.81686">
        <ele>399</ele>
        <time>2021-08-14T10:06:45.000Z</time>
      </trkpt>
      <trkpt lat="49.85153" lon="4.81686">
        <ele>399</ele>
        <time>2021-08-14T10:06:46.000Z</time>
      </trkpt>
      <trkpt lat="49.85153" lon="4.81686">
        <ele>399</ele>
        <time>2021-08-14T10:06:47.000Z</time>
      </trkpt>
      <trkpt lat="49.85153" lon="4.81686">
        <ele>399</ele>
        <time>2021-08-14T10:06:48.000Z</time>
      </trkpt>
      <trkpt lat="49.85153" lon="4.81686">
        <ele>399</ele>
        <time>2021-08-14T10:06:49.000Z</time>
      </trkpt>
      <trkpt lat="49.85153" lon="4.81687">
        <ele>400</ele>
        <time>2021-08-14T10:06:50.000Z</time>
      </trkpt>
      <trkpt lat="49.85153" lon="4.81687">
        <ele>400</ele>
        <time>2021-08-14T10:06:51.000Z</time>
      </trkpt>
      <trkpt lat="49.85153" lon="4.81687">
        <ele>400</ele>
        <time>2021-08-14T10:06:52.000Z</time>
      </trkpt>
      <trkpt lat="49.85153" lon="4.81687">
        <ele>400</ele>
        <time>2021-08-14T10:06:53.000Z</time>
      </trkpt>
      <trkpt lat="49.85153" lon="4.81687">
        <ele>400</ele>
        <time>2021-08-14T10:06:54.000Z</time>
      </trkpt>
      <trkpt lat="49.85153" lon="4.81687">
        <ele>400</ele>
        <time>2021-08-14T10:06:55.000Z</time>
      </trkpt>
      <trkpt lat="49.85153" lon="4.81687">
        <ele>400</ele>
        <time>2021-08-14T10:06:56.000Z</time>
      </trkpt>
      <trkpt lat="49.85153" lon="4.81688">
        <ele>400</ele>
        <time>2021-08-14T10:06:57.000Z</time>
      </trkpt>
      <trkpt lat="49.85153" lon="4.81688">
        <ele>400</ele>
        <time>2021-08-14T10:06:58.000Z</time>
      </trkpt>
      <trkpt lat="49.85153" lon="4.81688">
        <ele>400</ele>
        <time>2021-08-14T10:06:59.000Z</time>
      </trkpt>
      <trkpt lat="49.85153" lon="4.81688">
        <ele>400</ele>
        <time>2021-08-14T10:07:00.000Z</time>
      </trkpt>
      <trkpt lat="49.85153" lon="4.81688">
        <ele>401</ele>
        <time>2021-08-14T10:07:01.000Z</time>
      </trkpt>
      <trkpt lat="49.85153" lon="4.81689">
        <ele>401</ele>
        <time>2021-08-14T10:07:02.000Z</time>
      </trkpt>
      <trkpt lat="49.85153" lon="4.81689">
        <ele>401</ele>
        <time>2021-08-14T10:07:03.000Z</time>
      </trkpt>
      <trkpt lat="49.85152" lon="4.81689">
        <ele>401</ele>
        <time>2021-08-14T10:07:04.000Z</time>
      </trkpt>
      <trkpt lat="49.85152" lon="4.8169">
        <ele>401</ele>
        <time>2021-08-14T10:07:05.000Z</time>
      </trkpt>
      <trkpt lat="49.85152" lon="4.8169">
        <ele>401</ele>
        <time>2021-08-14T10:07:06.000Z</time>
      </trkpt>
      <trkpt lat="49.85152" lon="4.81691">
        <ele>401</ele>
        <time>2021-08-14T10:07:07.000Z</time>
      </trkpt>
      <trkpt lat="49.85152" lon="4.81691">
        <ele>401</ele>
        <time>2021-08-14T10:07:08.000Z</time>
      </trkpt>
      <trkpt lat="49.85152" lon="4.81691">
        <ele>401</ele>
        <time>2021-08-14T10:07:09.000Z</time>
      </trkpt>
      <trkpt lat="49.85152" lon="4.81692">
        <ele>401</ele>
        <time>2021-08-14T10:07:10.000Z</time>
      </trkpt>
      <trkpt lat="49.85152" lon="4.81692">
        <ele>401</ele>
        <time>2021-08-14T10:07:11.000Z</time>
      </trkpt>
      <trkpt lat="49.85152" lon="4.81692">
        <ele>401</ele>
        <time>2021-08-14T10:07:12.000Z</time>
      </trkpt>
      <trkpt lat="49.85153" lon="4.81692">
        <ele>401</ele>
        <time>2021-08-14T10:07:13.000Z</time>
      </trkpt>
      <trkpt lat="49.85153" lon="4.81692">
        <ele>401</ele>
        <time>2021-08-14T10:07:14.000Z</time>
      </trkpt>
      <trkpt lat="49.85153" lon="4.81692">
        <ele>401</ele>
        <time>2021-08-14T10:07:15.000Z</time>
      </trkpt>
      <trkpt lat="49.85153" lon="4.81693">
        <ele>401</ele>
        <time>2021-08-14T10:07:16.000Z</time>
      </trkpt>
      <trkpt lat="49.85153" lon="4.81693">
        <ele>401</ele>
        <time>2021-08-14T10:07:17.000Z</time>
      </trkpt>
      <trkpt lat="49.85154" lon="4.81693">
        <ele>402</ele>
        <time>2021-08-14T10:07:18.000Z</time>
      </trkpt>
      <trkpt lat="49.85154" lon="4.81693">
        <ele>402</ele>
        <time>2021-08-14T10:07:19.000Z</time>
      </trkpt>
      <trkpt lat="49.85154" lon="4.81693">
        <ele>402</ele>
        <time>2021-08-14T10:07:20.000Z</time>
      </trkpt>
      <trkpt lat="49.85154" lon="4.81693">
        <ele>402</ele>
        <time>2021-08-14T10:07:21.000Z</time>
      </trkpt>
      <trkpt lat="49.85154" lon="4.81693">
        <ele>402</ele>
        <time>2021-08-14T10:07:22.000Z</time>
      </trkpt>
      <trkpt lat="49.85154" lon="4.81693">
        <ele>402</ele>
        <time>2021-08-14T10:07:23.000Z</time>
      </trkpt>
      <trkpt lat="49.85154" lon="4.81694">
        <ele>402</ele>
        <time>2021-08-14T10:07:24.000Z</time>
      </trkpt>
      <trkpt lat="49.85154" lon="4.81694">
        <ele>402</ele>
        <time>2021-08-14T10:07:25.000Z</time>
      </trkpt>
      <trkpt lat="49.85154" lon="4.81694">
        <ele>402</ele>
        <time>2021-08-14T10:07:26.000Z</time>
      </trkpt>
      <trkpt lat="49.85154" lon="4.81694">
        <ele>402</ele>
        <time>2021-08-14T10:07:27.000Z</time>
      </trkpt>
      <trkpt lat="49.85154" lon="4.81694">
        <ele>402</ele>
        <time>2021-08-14T10:07:28.000Z</time>
      </trkpt>
      <trkpt lat="49.85154" lon="4.81694">
        <ele>402</ele>
        <time>2021-08-14T10:07:29.000Z</time>
      </trkpt>
      <trkpt lat="49.85154" lon="4.81694">
        <ele>402</ele>
        <time>2021-08-14T10:07:30.000Z</time>
      </trkpt>
      <trkpt lat="49.85154" lon="4.81694">
        <ele>403</ele>
        <time>2021-08-14T10:07:31.000Z</time>
      </trkpt>
      <trkpt lat="49.85154" lon="4.81694">
        <ele>403</ele>
        <time>2021-08-14T10:07:32.000Z</time>
      </trkpt>
      <trkpt lat="49.85154" lon="4.81694">
        <ele>403</ele>
        <time>2021-08-14T10:07:33.000Z</time>
      </trkpt>
      <trkpt lat="49.85154" lon="4.81694">
        <ele>403</ele>
        <time>2021-08-14T10:07:34.000Z</time>
      </trkpt>
      <trkpt lat="49.85154" lon="4.81694">
        <ele>403</ele>
        <time>2021-08-14T10:07:35.000Z</time>
      </trkpt>
      <trkpt lat="49.85154" lon="4.81694">
        <ele>403</ele>
        <time>2021-08-14T10:07:36.000Z</time>
      </trkpt>
      <trkpt lat="49.85154" lon="4.81694">
        <ele>403</ele>
        <time>2021-08-14T10:07:37.000Z</time>
      </trkpt>
      <trkpt lat="49.85154" lon="4.81694">
        <ele>403</ele>
        <time>2021-08-14T10:07:38.000Z</time>
      </trkpt>
      <trkpt lat="49.85154" lon="4.81694">
        <ele>403</ele>
        <time>2021-08-14T10:07:39.000Z</time>
      </trkpt>
      <trkpt lat="49.85154" lon="4.81695">
        <ele>403</ele>
        <time>2021-08-14T10:07:40.000Z</time>
      </trkpt>
      <trkpt lat="49.85154" lon="4.81695">
        <ele>403</ele>
        <time>2021-08-14T10:07:41.000Z</time>
      </trkpt>
      <trkpt lat="49.85155" lon="4.81695">
        <ele>403</ele>
        <time>2021-08-14T10:07:42.000Z</time>
      </trkpt>
      <trkpt lat="49.85155" lon="4.81695">
        <ele>403</ele>
        <time>2021-08-14T10:07:43.000Z</time>
      </trkpt>
      <trkpt lat="49.85155" lon="4.81694">
        <ele>403</ele>
        <time>2021-08-14T10:07:44.000Z</time>
      </trkpt>
      <trkpt lat="49.85155" lon="4.81694">
        <ele>403</ele>
        <time>2021-08-14T10:07:45.000Z</time>
      </trkpt>
      <trkpt lat="49.85155" lon="4.81694">
        <ele>403</ele>
        <time>2021-08-14T10:07:46.000Z</time>
      </trkpt>
      <trkpt lat="49.85154" lon="4.81695">
        <ele>403</ele>
        <time>2021-08-14T10:07:47.000Z</time>
      </trkpt>
      <trkpt lat="49.85154" lon="4.81695">
        <ele>403</ele>
        <time>2021-08-14T10:07:48.000Z</time>
      </trkpt>
      <trkpt lat="49.85154" lon="4.81695">
        <ele>403</ele>
        <time>2021-08-14T10:07:49.000Z</time>
      </trkpt>
      <trkpt lat="49.85154" lon="4.81695">
        <ele>403</ele>
        <time>2021-08-14T10:07:50.000Z</time>
      </trkpt>
      <trkpt lat="49.85154" lon="4.81695">
        <ele>403</ele>
        <time>2021-08-14T10:07:51.000Z</time>
      </trkpt>
      <trkpt lat="49.85154" lon="4.81695">
        <ele>403</ele>
        <time>2021-08-14T10:07:52.000Z</time>
      </trkpt>
      <trkpt lat="49.85154" lon="4.81695">
        <ele>403</ele>
        <time>2021-08-14T10:07:53.000Z</time>
      </trkpt>
      <trkpt lat="49.85154" lon="4.81695">
        <ele>403</ele>
        <time>2021-08-14T10:07:54.000Z</time>
      </trkpt>
      <trkpt lat="49.85154" lon="4.81695">
        <ele>403</ele>
        <time>2021-08-14T10:07:55.000Z</time>
      </trkpt>
      <trkpt lat="49.85154" lon="4.81695">
        <ele>403</ele>
        <time>2021-08-14T10:07:56.000Z</time>
      </trkpt>
      <trkpt lat="49.85154" lon="4.81695">
        <ele>403</ele>
        <time>2021-08-14T10:07:57.000Z</time>
      </trkpt>
      <trkpt lat="49.85154" lon="4.81695">
        <ele>403</ele>
        <time>2021-08-14T10:07:58.000Z</time>
      </trkpt>
      <trkpt lat="49.85154" lon="4.81695">
        <ele>404</ele>
        <time>2021-08-14T10:07:59.000Z</time>
      </trkpt>
      <trkpt lat="49.85154" lon="4.81695">
        <ele>404</ele>
        <time>2021-08-14T10:08:00.000Z</time>
      </trkpt>
      <trkpt lat="49.85154" lon="4.81695">
        <ele>404</ele>
        <time>2021-08-14T10:08:01.000Z</time>
      </trkpt>
      <trkpt lat="49.85154" lon="4.81695">
        <ele>404</ele>
        <time>2021-08-14T10:08:02.000Z</time>
      </trkpt>
      <trkpt lat="49.85154" lon="4.81695">
        <ele>404</ele>
        <time>2021-08-14T10:08:03.000Z</time>
      </trkpt>
      <trkpt lat="49.85154" lon="4.81695">
        <ele>404</ele>
        <time>2021-08-14T10:08:04.000Z</time>
      </trkpt>
      <trkpt lat="49.85154" lon="4.81695">
        <ele>404</ele>
        <time>2021-08-14T10:08:05.000Z</time>
      </trkpt>
      <trkpt lat="49.85154" lon="4.81695">
        <ele>404</ele>
        <time>2021-08-14T10:08:06.000Z</time>
      </trkpt>
      <trkpt lat="49.85154" lon="4.81695">
        <ele>404</ele>
        <time>2021-08-14T10:08:07.000Z</time>
      </trkpt>
      <trkpt lat="49.85154" lon="4.81695">
        <ele>404</ele>
        <time>2021-08-14T10:08:08.000Z</time>
      </trkpt>
      <trkpt lat="49.85154" lon="4.81695">
        <ele>404</ele>
        <time>2021-08-14T10:08:09.000Z</time>
      </trkpt>
      <trkpt lat="49.85154" lon="4.81695">
        <ele>404</ele>
        <time>2021-08-14T10:08:10.000Z</time>
      </trkpt>
      <trkpt lat="49.85154" lon="4.81695">
        <ele>404</ele>
        <time>2021-08-14T10:08:11.000Z</time>
      </trkpt>
      <trkpt lat="49.85154" lon="4.81695">
        <ele>404</ele>
        <time>2021-08-14T10:08:12.000Z</time>
      </trkpt>
      <trkpt lat="49.85154" lon="4.81695">
        <ele>404</ele>
        <time>2021-08-14T10:08:13.000Z</time>
      </trkpt>
      <trkpt lat="49.85154" lon="4.81695">
        <ele>404</ele>
        <time>2021-08-14T10:08:14.000Z</time>
      </trkpt>
      <trkpt lat="49.85154" lon="4.81695">
        <ele>404</ele>
        <time>2021-08-14T10:08:15.000Z</time>
      </trkpt>
      <trkpt lat="49.85154" lon="4.81695">
        <ele>404</ele>
        <time>2021-08-14T10:08:16.000Z</time>
      </trkpt>
      <trkpt lat="49.85154" lon="4.81695">
        <ele>404</ele>
        <time>2021-08-14T10:08:17.000Z</time>
      </trkpt>
      <trkpt lat="49.85154" lon="4.81695">
        <ele>404</ele>
        <time>2021-08-14T10:08:18.000Z</time>
      </trkpt>
      <trkpt lat="49.85154" lon="4.81695">
        <ele>404</ele>
        <time>2021-08-14T10:08:19.000Z</time>
      </trkpt>
      <trkpt lat="49.85154" lon="4.81695">
        <ele>404</ele>
        <time>2021-08-14T10:08:20.000Z</time>
      </trkpt>
      <trkpt lat="49.85154" lon="4.81695">
        <ele>404</ele>
        <time>2021-08-14T10:08:21.000Z</time>
      </trkpt>
      <trkpt lat="49.85154" lon="4.81695">
        <ele>404</ele>
        <time>2021-08-14T10:08:22.000Z</time>
      </trkpt>
      <trkpt lat="49.85154" lon="4.81695">
        <ele>404</ele>
        <time>2021-08-14T10:08:23.000Z</time>
      </trkpt>
      <trkpt lat="49.85154" lon="4.81695">
        <ele>404</ele>
        <time>2021-08-14T10:08:24.000Z</time>
      </trkpt>
      <trkpt lat="49.85154" lon="4.81695">
        <ele>404</ele>
        <time>2021-08-14T10:08:25.000Z</time>
      </trkpt>
      <trkpt lat="49.85154" lon="4.81695">
        <ele>404</ele>
        <time>2021-08-14T10:08:26.000Z</time>
      </trkpt>
      <trkpt lat="49.85154" lon="4.81695">
        <ele>404</ele>
        <time>2021-08-14T10:08:27.000Z</time>
      </trkpt>
      <trkpt lat="49.85154" lon="4.81695">
        <ele>404</ele>
        <time>2021-08-14T10:08:28.000Z</time>
      </trkpt>
      <trkpt lat="49.85154" lon="4.81695">
        <ele>404</ele>
        <time>2021-08-14T10:08:29.000Z</time>
      </trkpt>
      <trkpt lat="49.85154" lon="4.81695">
        <ele>404</ele>
        <time>2021-08-14T10:08:30.000Z</time>
      </trkpt>
      <trkpt lat="49.85154" lon="4.81695">
        <ele>404</ele>
        <time>2021-08-14T10:08:31.000Z</time>
      </trkpt>
      <trkpt lat="49.85154" lon="4.81695">
        <ele>404</ele>
        <time>2021-08-14T10:08:32.000Z</time>
      </trkpt>
      <trkpt lat="49.85154" lon="4.81695">
        <ele>404</ele>
        <time>2021-08-14T10:08:33.000Z</time>
      </trkpt>
      <trkpt lat="49.85154" lon="4.81695">
        <ele>404</ele>
        <time>2021-08-14T10:08:34.000Z</time>
      </trkpt>
      <trkpt lat="49.85154" lon="4.81695">
        <ele>404</ele>
        <time>2021-08-14T10:08:35.000Z</time>
      </trkpt>
      <trkpt lat="49.85154" lon="4.81696">
        <ele>404</ele>
        <time>2021-08-14T10:08:36.000Z</time>
      </trkpt>
      <trkpt lat="49.85154" lon="4.81696">
        <ele>404</ele>
        <time>2021-08-14T10:08:37.000Z</time>
      </trkpt>
      <trkpt lat="49.85154" lon="4.81696">
        <ele>404</ele>
        <time>2021-08-14T10:08:38.000Z</time>
      </trkpt>
      <trkpt lat="49.85154" lon="4.81696">
        <ele>404</ele>
        <time>2021-08-14T10:08:39.000Z</time>
      </trkpt>
      <trkpt lat="49.85154" lon="4.81696">
        <ele>404</ele>
        <time>2021-08-14T10:08:40.000Z</time>
      </trkpt>
      <trkpt lat="49.85154" lon="4.81696">
        <ele>404</ele>
        <time>2021-08-14T10:08:41.000Z</time>
      </trkpt>
      <trkpt lat="49.85154" lon="4.81696">
        <ele>404</ele>
        <time>2021-08-14T10:08:42.000Z</time>
      </trkpt>
      <trkpt lat="49.85154" lon="4.81696">
        <ele>404</ele>
        <time>2021-08-14T10:08:43.000Z</time>
      </trkpt>
      <trkpt lat="49.85154" lon="4.81696">
        <ele>404</ele>
        <time>2021-08-14T10:08:44.000Z</time>
      </trkpt>
      <trkpt lat="49.85154" lon="4.81696">
        <ele>404</ele>
        <time>2021-08-14T10:08:45.000Z</time>
      </trkpt>
      <trkpt lat="49.85154" lon="4.81696">
        <ele>404</ele>
        <time>2021-08-14T10:08:46.000Z</time>
      </trkpt>
      <trkpt lat="49.85154" lon="4.81696">
        <ele>404</ele>
        <time>2021-08-14T10:08:47.000Z</time>
      </trkpt>
      <trkpt lat="49.85154" lon="4.81696">
        <ele>404</ele>
        <time>2021-08-14T10:08:48.000Z</time>
      </trkpt>
      <trkpt lat="49.85154" lon="4.81696">
        <ele>404</ele>
        <time>2021-08-14T10:08:49.000Z</time>
      </trkpt>
      <trkpt lat="49.85154" lon="4.81696">
        <ele>404</ele>
        <time>2021-08-14T10:08:50.000Z</time>
      </trkpt>
      <trkpt lat="49.85154" lon="4.81696">
        <ele>404</ele>
        <time>2021-08-14T10:08:51.000Z</time>
      </trkpt>
      <trkpt lat="49.85154" lon="4.81696">
        <ele>404</ele>
        <time>2021-08-14T10:08:52.000Z</time>
      </trkpt>
      <trkpt lat="49.85154" lon="4.81696">
        <ele>404</ele>
        <time>2021-08-14T10:08:53.000Z</time>
      </trkpt>
      <trkpt lat="49.85154" lon="4.81696">
        <ele>404</ele>
        <time>2021-08-14T10:08:54.000Z</time>
      </trkpt>
      <trkpt lat="49.85154" lon="4.81696">
        <ele>404</ele>
        <time>2021-08-14T10:08:55.000Z</time>
      </trkpt>
      <trkpt lat="49.85153" lon="4.81696">
        <ele>403</ele>
        <time>2021-08-14T10:08:56.000Z</time>
      </trkpt>
      <trkpt lat="49.85154" lon="4.81696">
        <ele>403</ele>
        <time>2021-08-14T10:08:57.000Z</time>
      </trkpt>
      <trkpt lat="49.85154" lon="4.81697">
        <ele>403</ele>
        <time>2021-08-14T10:08:58.000Z</time>
      </trkpt>
      <trkpt lat="49.85155" lon="4.81699">
        <ele>403</ele>
        <time>2021-08-14T10:08:59.000Z</time>
      </trkpt>
      <trkpt lat="49.85156" lon="4.81702">
        <ele>403</ele>
        <time>2021-08-14T10:09:00.000Z</time>
      </trkpt>
      <trkpt lat="49.85156" lon="4.81705">
        <ele>403</ele>
        <time>2021-08-14T10:09:01.000Z</time>
      </trkpt>
      <trkpt lat="49.85156" lon="4.81709">
        <ele>403</ele>
        <time>2021-08-14T10:09:02.000Z</time>
      </trkpt>
      <trkpt lat="49.85157" lon="4.81713">
        <ele>402</ele>
        <time>2021-08-14T10:09:03.000Z</time>
      </trkpt>
      <trkpt lat="49.85158" lon="4.81715">
        <ele>402</ele>
        <time>2021-08-14T10:09:04.000Z</time>
      </trkpt>
      <trkpt lat="49.85159" lon="4.81719">
        <ele>402</ele>
        <time>2021-08-14T10:09:05.000Z</time>
      </trkpt>
      <trkpt lat="49.8516" lon="4.81723">
        <ele>402</ele>
        <time>2021-08-14T10:09:06.000Z</time>
      </trkpt>
      <trkpt lat="49.85162" lon="4.81727">
        <ele>402</ele>
        <time>2021-08-14T10:09:07.000Z</time>
      </trkpt>
      <trkpt lat="49.85163" lon="4.81732">
        <ele>401</ele>
        <time>2021-08-14T10:09:08.000Z</time>
      </trkpt>
      <trkpt lat="49.85165" lon="4.81738">
        <ele>401</ele>
        <time>2021-08-14T10:09:09.000Z</time>
      </trkpt>
      <trkpt lat="49.85166" lon="4.81743">
        <ele>401</ele>
        <time>2021-08-14T10:09:10.000Z</time>
      </trkpt>
      <trkpt lat="49.85167" lon="4.81749">
        <ele>401</ele>
        <time>2021-08-14T10:09:11.000Z</time>
      </trkpt>
      <trkpt lat="49.85169" lon="4.81756">
        <ele>401</ele>
        <time>2021-08-14T10:09:12.000Z</time>
      </trkpt>
      <trkpt lat="49.8517" lon="4.81761">
        <ele>401</ele>
        <time>2021-08-14T10:09:13.000Z</time>
      </trkpt>
      <trkpt lat="49.85172" lon="4.81767">
        <ele>400</ele>
        <time>2021-08-14T10:09:14.000Z</time>
      </trkpt>
      <trkpt lat="49.85173" lon="4.81773">
        <ele>400</ele>
        <time>2021-08-14T10:09:15.000Z</time>
      </trkpt>
      <trkpt lat="49.85175" lon="4.8178">
        <ele>400</ele>
        <time>2021-08-14T10:09:16.000Z</time>
      </trkpt>
      <trkpt lat="49.85177" lon="4.81788">
        <ele>400</ele>
        <time>2021-08-14T10:09:17.000Z</time>
      </trkpt>
      <trkpt lat="49.85179" lon="4.81795">
        <ele>400</ele>
        <time>2021-08-14T10:09:18.000Z</time>
      </trkpt>
      <trkpt lat="49.8518" lon="4.81803">
        <ele>400</ele>
        <time>2021-08-14T10:09:19.000Z</time>
      </trkpt>
      <trkpt lat="49.85181" lon="4.81812">
        <ele>399</ele>
        <time>2021-08-14T10:09:20.000Z</time>
      </trkpt>
      <trkpt lat="49.85182" lon="4.81821">
        <ele>399</ele>
        <time>2021-08-14T10:09:21.000Z</time>
      </trkpt>
      <trkpt lat="49.85184" lon="4.81831">
        <ele>399</ele>
        <time>2021-08-14T10:09:22.000Z</time>
      </trkpt>
      <trkpt lat="49.85186" lon="4.8184">
        <ele>398</ele>
        <time>2021-08-14T10:09:23.000Z</time>
      </trkpt>
      <trkpt lat="49.85187" lon="4.81848">
        <ele>398</ele>
        <time>2021-08-14T10:09:24.000Z</time>
      </trkpt>
      <trkpt lat="49.85188" lon="4.81855">
        <ele>398</ele>
        <time>2021-08-14T10:09:25.000Z</time>
      </trkpt>
      <trkpt lat="49.85188" lon="4.81863">
        <ele>398</ele>
        <time>2021-08-14T10:09:26.000Z</time>
      </trkpt>
      <trkpt lat="49.85189" lon="4.81872">
        <ele>397</ele>
        <time>2021-08-14T10:09:27.000Z</time>
      </trkpt>
      <trkpt lat="49.8519" lon="4.81881">
        <ele>397</ele>
        <time>2021-08-14T10:09:28.000Z</time>
      </trkpt>
      <trkpt lat="49.8519" lon="4.81891">
        <ele>397</ele>
        <time>2021-08-14T10:09:29.000Z</time>
      </trkpt>
      <trkpt lat="49.85191" lon="4.81902">
        <ele>396</ele>
        <time>2021-08-14T10:09:30.000Z</time>
      </trkpt>
      <trkpt lat="49.85191" lon="4.81912">
        <ele>396</ele>
        <time>2021-08-14T10:09:31.000Z</time>
      </trkpt>
      <trkpt lat="49.85191" lon="4.81922">
        <ele>396</ele>
        <time>2021-08-14T10:09:32.000Z</time>
      </trkpt>
      <trkpt lat="49.85191" lon="4.81932">
        <ele>395</ele>
        <time>2021-08-14T10:09:33.000Z</time>
      </trkpt>
      <trkpt lat="49.85191" lon="4.81942">
        <ele>395</ele>
        <time>2021-08-14T10:09:34.000Z</time>
      </trkpt>
      <trkpt lat="49.85191" lon="4.81953">
        <ele>394</ele>
        <time>2021-08-14T10:09:35.000Z</time>
      </trkpt>
      <trkpt lat="49.85192" lon="4.81965">
        <ele>394</ele>
        <time>2021-08-14T10:09:36.000Z</time>
      </trkpt>
      <trkpt lat="49.85193" lon="4.81976">
        <ele>394</ele>
        <time>2021-08-14T10:09:37.000Z</time>
      </trkpt>
      <trkpt lat="49.85194" lon="4.81987">
        <ele>393</ele>
        <time>2021-08-14T10:09:38.000Z</time>
      </trkpt>
      <trkpt lat="49.85194" lon="4.81998">
        <ele>393</ele>
        <time>2021-08-14T10:09:39.000Z</time>
      </trkpt>
      <trkpt lat="49.85194" lon="4.8201">
        <ele>392</ele>
        <time>2021-08-14T10:09:40.000Z</time>
      </trkpt>
      <trkpt lat="49.85195" lon="4.82022">
        <ele>392</ele>
        <time>2021-08-14T10:09:41.000Z</time>
      </trkpt>
      <trkpt lat="49.85196" lon="4.82033">
        <ele>391</ele>
        <time>2021-08-14T10:09:42.000Z</time>
      </trkpt>
      <trkpt lat="49.85197" lon="4.82044">
        <ele>391</ele>
        <time>2021-08-14T10:09:43.000Z</time>
      </trkpt>
      <trkpt lat="49.85198" lon="4.82056">
        <ele>390</ele>
        <time>2021-08-14T10:09:44.000Z</time>
      </trkpt>
      <trkpt lat="49.852" lon="4.82067">
        <ele>389</ele>
        <time>2021-08-14T10:09:45.000Z</time>
      </trkpt>
      <trkpt lat="49.85202" lon="4.82079">
        <ele>389</ele>
        <time>2021-08-14T10:09:46.000Z</time>
      </trkpt>
      <trkpt lat="49.85203" lon="4.82091">
        <ele>388</ele>
        <time>2021-08-14T10:09:47.000Z</time>
      </trkpt>
      <trkpt lat="49.85205" lon="4.82102">
        <ele>387</ele>
        <time>2021-08-14T10:09:48.000Z</time>
      </trkpt>
      <trkpt lat="49.85206" lon="4.82115">
        <ele>386</ele>
        <time>2021-08-14T10:09:49.000Z</time>
      </trkpt>
      <trkpt lat="49.85206" lon="4.82126">
        <ele>385</ele>
        <time>2021-08-14T10:09:50.000Z</time>
      </trkpt>
      <trkpt lat="49.85206" lon="4.82138">
        <ele>385</ele>
        <time>2021-08-14T10:09:51.000Z</time>
      </trkpt>
      <trkpt lat="49.85207" lon="4.8215">
        <ele>384</ele>
        <time>2021-08-14T10:09:52.000Z</time>
      </trkpt>
      <trkpt lat="49.85209" lon="4.82162">
        <ele>383</ele>
        <time>2021-08-14T10:09:53.000Z</time>
      </trkpt>
      <trkpt lat="49.8521" lon="4.82173">
        <ele>382</ele>
        <time>2021-08-14T10:09:54.000Z</time>
      </trkpt>
      <trkpt lat="49.85212" lon="4.82184">
        <ele>381</ele>
        <time>2021-08-14T10:09:55.000Z</time>
      </trkpt>
      <trkpt lat="49.85213" lon="4.82195">
        <ele>381</ele>
        <time>2021-08-14T10:09:56.000Z</time>
      </trkpt>
      <trkpt lat="49.85215" lon="4.82207">
        <ele>380</ele>
        <time>2021-08-14T10:09:57.000Z</time>
      </trkpt>
      <trkpt lat="49.85216" lon="4.82218">
        <ele>379</ele>
        <time>2021-08-14T10:09:58.000Z</time>
      </trkpt>
      <trkpt lat="49.85217" lon="4.82229">
        <ele>379</ele>
        <time>2021-08-14T10:09:59.000Z</time>
      </trkpt>
      <trkpt lat="49.85219" lon="4.82241">
        <ele>378</ele>
        <time>2021-08-14T10:10:00.000Z</time>
      </trkpt>
      <trkpt lat="49.85219" lon="4.82252">
        <ele>377</ele>
        <time>2021-08-14T10:10:01.000Z</time>
      </trkpt>
      <trkpt lat="49.85221" lon="4.82264">
        <ele>377</ele>
        <time>2021-08-14T10:10:02.000Z</time>
      </trkpt>
      <trkpt lat="49.85222" lon="4.82275">
        <ele>376</ele>
        <time>2021-08-14T10:10:03.000Z</time>
      </trkpt>
      <trkpt lat="49.85223" lon="4.82286">
        <ele>376</ele>
        <time>2021-08-14T10:10:04.000Z</time>
      </trkpt>
      <trkpt lat="49.85225" lon="4.82297">
        <ele>375</ele>
        <time>2021-08-14T10:10:05.000Z</time>
      </trkpt>
      <trkpt lat="49.85226" lon="4.82308">
        <ele>374</ele>
        <time>2021-08-14T10:10:06.000Z</time>
      </trkpt>
      <trkpt lat="49.85228" lon="4.82319">
        <ele>374</ele>
        <time>2021-08-14T10:10:07.000Z</time>
      </trkpt>
      <trkpt lat="49.8523" lon="4.8233">
        <ele>373</ele>
        <time>2021-08-14T10:10:08.000Z</time>
      </trkpt>
      <trkpt lat="49.85231" lon="4.82342">
        <ele>372</ele>
        <time>2021-08-14T10:10:09.000Z</time>
      </trkpt>
      <trkpt lat="49.85232" lon="4.82353">
        <ele>372</ele>
        <time>2021-08-14T10:10:10.000Z</time>
      </trkpt>
      <trkpt lat="49.85232" lon="4.82365">
        <ele>371</ele>
        <time>2021-08-14T10:10:11.000Z</time>
      </trkpt>
      <trkpt lat="49.85233" lon="4.82375">
        <ele>371</ele>
        <time>2021-08-14T10:10:12.000Z</time>
      </trkpt>
      <trkpt lat="49.85233" lon="4.82385">
        <ele>370</ele>
        <time>2021-08-14T10:10:13.000Z</time>
      </trkpt>
      <trkpt lat="49.85232" lon="4.82392">
        <ele>370</ele>
        <time>2021-08-14T10:10:14.000Z</time>
      </trkpt>
      <trkpt lat="49.85231" lon="4.82399">
        <ele>369</ele>
        <time>2021-08-14T10:10:15.000Z</time>
      </trkpt>
      <trkpt lat="49.8523" lon="4.82404">
        <ele>369</ele>
        <time>2021-08-14T10:10:16.000Z</time>
      </trkpt>
      <trkpt lat="49.85228" lon="4.8241">
        <ele>368</ele>
        <time>2021-08-14T10:10:17.000Z</time>
      </trkpt>
      <trkpt lat="49.85227" lon="4.82416">
        <ele>368</ele>
        <time>2021-08-14T10:10:18.000Z</time>
      </trkpt>
      <trkpt lat="49.85226" lon="4.82422">
        <ele>368</ele>
        <time>2021-08-14T10:10:19.000Z</time>
      </trkpt>
      <trkpt lat="49.85224" lon="4.82427">
        <ele>367</ele>
        <time>2021-08-14T10:10:20.000Z</time>
      </trkpt>
      <trkpt lat="49.85224" lon="4.82432">
        <ele>367</ele>
        <time>2021-08-14T10:10:21.000Z</time>
      </trkpt>
      <trkpt lat="49.85223" lon="4.82436">
        <ele>367</ele>
        <time>2021-08-14T10:10:22.000Z</time>
      </trkpt>
      <trkpt lat="49.85221" lon="4.82441">
        <ele>367</ele>
        <time>2021-08-14T10:10:23.000Z</time>
      </trkpt>
      <trkpt lat="49.8522" lon="4.82446">
        <ele>367</ele>
        <time>2021-08-14T10:10:24.000Z</time>
      </trkpt>
      <trkpt lat="49.85219" lon="4.8245">
        <ele>366</ele>
        <time>2021-08-14T10:10:25.000Z</time>
      </trkpt>
      <trkpt lat="49.85218" lon="4.82454">
        <ele>366</ele>
        <time>2021-08-14T10:10:26.000Z</time>
      </trkpt>
      <trkpt lat="49.85217" lon="4.82458">
        <ele>366</ele>
        <time>2021-08-14T10:10:27.000Z</time>
      </trkpt>
      <trkpt lat="49.85215" lon="4.82462">
        <ele>366</ele>
        <time>2021-08-14T10:10:28.000Z</time>
      </trkpt>
      <trkpt lat="49.85214" lon="4.82465">
        <ele>366</ele>
        <time>2021-08-14T10:10:29.000Z</time>
      </trkpt>
      <trkpt lat="49.85214" lon="4.82468">
        <ele>366</ele>
        <time>2021-08-14T10:10:30.000Z</time>
      </trkpt>
      <trkpt lat="49.85212" lon="4.82472">
        <ele>366</ele>
        <time>2021-08-14T10:10:31.000Z</time>
      </trkpt>
      <trkpt lat="49.85211" lon="4.82476">
        <ele>366</ele>
        <time>2021-08-14T10:10:32.000Z</time>
      </trkpt>
      <trkpt lat="49.8521" lon="4.82479">
        <ele>366</ele>
        <time>2021-08-14T10:10:33.000Z</time>
      </trkpt>
      <trkpt lat="49.85209" lon="4.82483">
        <ele>367</ele>
        <time>2021-08-14T10:10:34.000Z</time>
      </trkpt>
      <trkpt lat="49.85208" lon="4.82486">
        <ele>367</ele>
        <time>2021-08-14T10:10:35.000Z</time>
      </trkpt>
      <trkpt lat="49.85207" lon="4.82488">
        <ele>367</ele>
        <time>2021-08-14T10:10:36.000Z</time>
      </trkpt>
      <trkpt lat="49.85205" lon="4.82491">
        <ele>367</ele>
        <time>2021-08-14T10:10:37.000Z</time>
      </trkpt>
      <trkpt lat="49.85204" lon="4.82493">
        <ele>367</ele>
        <time>2021-08-14T10:10:38.000Z</time>
      </trkpt>
      <trkpt lat="49.85204" lon="4.82496">
        <ele>367</ele>
        <time>2021-08-14T10:10:39.000Z</time>
      </trkpt>
      <trkpt lat="49.85203" lon="4.82499">
        <ele>367</ele>
        <time>2021-08-14T10:10:40.000Z</time>
      </trkpt>
      <trkpt lat="49.85203" lon="4.82503">
        <ele>368</ele>
        <time>2021-08-14T10:10:41.000Z</time>
      </trkpt>
      <trkpt lat="49.85202" lon="4.82506">
        <ele>368</ele>
        <time>2021-08-14T10:10:42.000Z</time>
      </trkpt>
      <trkpt lat="49.85201" lon="4.82508">
        <ele>368</ele>
        <time>2021-08-14T10:10:43.000Z</time>
      </trkpt>
      <trkpt lat="49.85201" lon="4.82509">
        <ele>368</ele>
        <time>2021-08-14T10:10:44.000Z</time>
      </trkpt>
      <trkpt lat="49.85201" lon="4.8251">
        <ele>368</ele>
        <time>2021-08-14T10:10:45.000Z</time>
      </trkpt>
      <trkpt lat="49.852" lon="4.82511">
        <ele>368</ele>
        <time>2021-08-14T10:10:46.000Z</time>
      </trkpt>
      <trkpt lat="49.852" lon="4.82513">
        <ele>368</ele>
        <time>2021-08-14T10:10:47.000Z</time>
      </trkpt>
      <trkpt lat="49.85199" lon="4.82515">
        <ele>368</ele>
        <time>2021-08-14T10:10:48.000Z</time>
      </trkpt>
      <trkpt lat="49.85198" lon="4.82516">
        <ele>368</ele>
        <time>2021-08-14T10:10:49.000Z</time>
      </trkpt>
      <trkpt lat="49.85197" lon="4.82518">
        <ele>368</ele>
        <time>2021-08-14T10:10:50.000Z</time>
      </trkpt>
      <trkpt lat="49.85197" lon="4.8252">
        <ele>368</ele>
        <time>2021-08-14T10:10:51.000Z</time>
      </trkpt>
      <trkpt lat="49.85196" lon="4.82522">
        <ele>368</ele>
        <time>2021-08-14T10:10:52.000Z</time>
      </trkpt>
      <trkpt lat="49.85195" lon="4.82524">
        <ele>369</ele>
        <time>2021-08-14T10:10:53.000Z</time>
      </trkpt>
      <trkpt lat="49.85195" lon="4.82526">
        <ele>369</ele>
        <time>2021-08-14T10:10:54.000Z</time>
      </trkpt>
      <trkpt lat="49.85194" lon="4.82528">
        <ele>369</ele>
        <time>2021-08-14T10:10:55.000Z</time>
      </trkpt>
      <trkpt lat="49.85193" lon="4.82531">
        <ele>369</ele>
        <time>2021-08-14T10:10:56.000Z</time>
      </trkpt>
      <trkpt lat="49.85192" lon="4.82533">
        <ele>369</ele>
        <time>2021-08-14T10:10:57.000Z</time>
      </trkpt>
      <trkpt lat="49.85191" lon="4.82535">
        <ele>370</ele>
        <time>2021-08-14T10:10:58.000Z</time>
      </trkpt>
      <trkpt lat="49.8519" lon="4.82537">
        <ele>370</ele>
        <time>2021-08-14T10:10:59.000Z</time>
      </trkpt>
      <trkpt lat="49.85189" lon="4.82538">
        <ele>370</ele>
        <time>2021-08-14T10:11:00.000Z</time>
      </trkpt>
      <trkpt lat="49.85188" lon="4.8254">
        <ele>370</ele>
        <time>2021-08-14T10:11:01.000Z</time>
      </trkpt>
      <trkpt lat="49.85187" lon="4.82542">
        <ele>370</ele>
        <time>2021-08-14T10:11:02.000Z</time>
      </trkpt>
      <trkpt lat="49.85186" lon="4.82544">
        <ele>371</ele>
        <time>2021-08-14T10:11:03.000Z</time>
      </trkpt>
      <trkpt lat="49.85185" lon="4.82546">
        <ele>371</ele>
        <time>2021-08-14T10:11:04.000Z</time>
      </trkpt>
      <trkpt lat="49.85183" lon="4.82547">
        <ele>371</ele>
        <time>2021-08-14T10:11:05.000Z</time>
      </trkpt>
      <trkpt lat="49.85182" lon="4.82549">
        <ele>371</ele>
        <time>2021-08-14T10:11:06.000Z</time>
      </trkpt>
      <trkpt lat="49.85181" lon="4.82551">
        <ele>371</ele>
        <time>2021-08-14T10:11:07.000Z</time>
      </trkpt>
      <trkpt lat="49.85179" lon="4.82553">
        <ele>371</ele>
        <time>2021-08-14T10:11:08.000Z</time>
      </trkpt>
      <trkpt lat="49.85178" lon="4.82555">
        <ele>372</ele>
        <time>2021-08-14T10:11:09.000Z</time>
      </trkpt>
      <trkpt lat="49.85176" lon="4.82557">
        <ele>372</ele>
        <time>2021-08-14T10:11:10.000Z</time>
      </trkpt>
      <trkpt lat="49.85175" lon="4.82559">
        <ele>372</ele>
        <time>2021-08-14T10:11:11.000Z</time>
      </trkpt>
      <trkpt lat="49.85174" lon="4.82561">
        <ele>372</ele>
        <time>2021-08-14T10:11:12.000Z</time>
      </trkpt>
      <trkpt lat="49.85173" lon="4.82563">
        <ele>373</ele>
        <time>2021-08-14T10:11:13.000Z</time>
      </trkpt>
      <trkpt lat="49.85171" lon="4.82565">
        <ele>373</ele>
        <time>2021-08-14T10:11:14.000Z</time>
      </trkpt>
      <trkpt lat="49.8517" lon="4.82568">
        <ele>373</ele>
        <time>2021-08-14T10:11:15.000Z</time>
      </trkpt>
      <trkpt lat="49.85168" lon="4.82571">
        <ele>373</ele>
        <time>2021-08-14T10:11:16.000Z</time>
      </trkpt>
      <trkpt lat="49.85166" lon="4.82574">
        <ele>373</ele>
        <time>2021-08-14T10:11:17.000Z</time>
      </trkpt>
      <trkpt lat="49.85165" lon="4.82576">
        <ele>374</ele>
        <time>2021-08-14T10:11:18.000Z</time>
      </trkpt>
      <trkpt lat="49.85164" lon="4.82578">
        <ele>374</ele>
        <time>2021-08-14T10:11:19.000Z</time>
      </trkpt>
      <trkpt lat="49.85163" lon="4.8258">
        <ele>374</ele>
        <time>2021-08-14T10:11:20.000Z</time>
      </trkpt>
      <trkpt lat="49.85162" lon="4.82582">
        <ele>374</ele>
        <time>2021-08-14T10:11:21.000Z</time>
      </trkpt>
      <trkpt lat="49.85161" lon="4.82584">
        <ele>374</ele>
        <time>2021-08-14T10:11:22.000Z</time>
      </trkpt>
      <trkpt lat="49.85159" lon="4.82586">
        <ele>374</ele>
        <time>2021-08-14T10:11:23.000Z</time>
      </trkpt>
      <trkpt lat="49.85158" lon="4.82589">
        <ele>375</ele>
        <time>2021-08-14T10:11:24.000Z</time>
      </trkpt>
      <trkpt lat="49.85157" lon="4.82591">
        <ele>375</ele>
        <time>2021-08-14T10:11:25.000Z</time>
      </trkpt>
      <trkpt lat="49.85156" lon="4.82593">
        <ele>375</ele>
        <time>2021-08-14T10:11:26.000Z</time>
      </trkpt>
      <trkpt lat="49.85154" lon="4.82596">
        <ele>375</ele>
        <time>2021-08-14T10:11:27.000Z</time>
      </trkpt>
      <trkpt lat="49.85153" lon="4.82598">
        <ele>375</ele>
        <time>2021-08-14T10:11:28.000Z</time>
      </trkpt>
      <trkpt lat="49.85151" lon="4.826">
        <ele>375</ele>
        <time>2021-08-14T10:11:29.000Z</time>
      </trkpt>
      <trkpt lat="49.8515" lon="4.82602">
        <ele>375</ele>
        <time>2021-08-14T10:11:30.000Z</time>
      </trkpt>
      <trkpt lat="49.85149" lon="4.82604">
        <ele>375</ele>
        <time>2021-08-14T10:11:31.000Z</time>
      </trkpt>
      <trkpt lat="49.85148" lon="4.82607">
        <ele>375</ele>
        <time>2021-08-14T10:11:32.000Z</time>
      </trkpt>
      <trkpt lat="49.85147" lon="4.8261">
        <ele>375</ele>
        <time>2021-08-14T10:11:33.000Z</time>
      </trkpt>
      <trkpt lat="49.85146" lon="4.82612">
        <ele>375</ele>
        <time>2021-08-14T10:11:34.000Z</time>
      </trkpt>
      <trkpt lat="49.85145" lon="4.82614">
        <ele>375</ele>
        <time>2021-08-14T10:11:35.000Z</time>
      </trkpt>
      <trkpt lat="49.85144" lon="4.82617">
        <ele>375</ele>
        <time>2021-08-14T10:11:36.000Z</time>
      </trkpt>
      <trkpt lat="49.85143" lon="4.82619">
        <ele>375</ele>
        <time>2021-08-14T10:11:37.000Z</time>
      </trkpt>
      <trkpt lat="49.85142" lon="4.82621">
        <ele>375</ele>
        <time>2021-08-14T10:11:38.000Z</time>
      </trkpt>
      <trkpt lat="49.8514" lon="4.82623">
        <ele>375</ele>
        <time>2021-08-14T10:11:39.000Z</time>
      </trkpt>
      <trkpt lat="49.8514" lon="4.82625">
        <ele>375</ele>
        <time>2021-08-14T10:11:40.000Z</time>
      </trkpt>
      <trkpt lat="49.85139" lon="4.82627">
        <ele>375</ele>
        <time>2021-08-14T10:11:41.000Z</time>
      </trkpt>
      <trkpt lat="49.85138" lon="4.82629">
        <ele>375</ele>
        <time>2021-08-14T10:11:42.000Z</time>
      </trkpt>
      <trkpt lat="49.85137" lon="4.82632">
        <ele>375</ele>
        <time>2021-08-14T10:11:43.000Z</time>
      </trkpt>
      <trkpt lat="49.85135" lon="4.82636">
        <ele>376</ele>
        <time>2021-08-14T10:11:44.000Z</time>
      </trkpt>
      <trkpt lat="49.85133" lon="4.8264">
        <ele>376</ele>
        <time>2021-08-14T10:11:45.000Z</time>
      </trkpt>
      <trkpt lat="49.85131" lon="4.82643">
        <ele>376</ele>
        <time>2021-08-14T10:11:46.000Z</time>
      </trkpt>
      <trkpt lat="49.8513" lon="4.82646">
        <ele>376</ele>
        <time>2021-08-14T10:11:47.000Z</time>
      </trkpt>
      <trkpt lat="49.85129" lon="4.82649">
        <ele>376</ele>
        <time>2021-08-14T10:11:48.000Z</time>
      </trkpt>
      <trkpt lat="49.85127" lon="4.82653">
        <ele>376</ele>
        <time>2021-08-14T10:11:49.000Z</time>
      </trkpt>
      <trkpt lat="49.85126" lon="4.82656">
        <ele>376</ele>
        <time>2021-08-14T10:11:50.000Z</time>
      </trkpt>
      <trkpt lat="49.85125" lon="4.8266">
        <ele>377</ele>
        <time>2021-08-14T10:11:51.000Z</time>
      </trkpt>
      <trkpt lat="49.85123" lon="4.82663">
        <ele>377</ele>
        <time>2021-08-14T10:11:52.000Z</time>
      </trkpt>
      <trkpt lat="49.85122" lon="4.82666">
        <ele>377</ele>
        <time>2021-08-14T10:11:53.000Z</time>
      </trkpt>
      <trkpt lat="49.8512" lon="4.82668">
        <ele>377</ele>
        <time>2021-08-14T10:11:54.000Z</time>
      </trkpt>
      <trkpt lat="49.85117" lon="4.8267">
        <ele>377</ele>
        <time>2021-08-14T10:11:55.000Z</time>
      </trkpt>
      <trkpt lat="49.85115" lon="4.82672">
        <ele>377</ele>
        <time>2021-08-14T10:11:56.000Z</time>
      </trkpt>
      <trkpt lat="49.85112" lon="4.82675">
        <ele>377</ele>
        <time>2021-08-14T10:11:57.000Z</time>
      </trkpt>
      <trkpt lat="49.8511" lon="4.82678">
        <ele>377</ele>
        <time>2021-08-14T10:11:58.000Z</time>
      </trkpt>
      <trkpt lat="49.85108" lon="4.82682">
        <ele>377</ele>
        <time>2021-08-14T10:11:59.000Z</time>
      </trkpt>
      <trkpt lat="49.85106" lon="4.82686">
        <ele>377</ele>
        <time>2021-08-14T10:12:00.000Z</time>
      </trkpt>
      <trkpt lat="49.85104" lon="4.8269">
        <ele>377</ele>
        <time>2021-08-14T10:12:01.000Z</time>
      </trkpt>
      <trkpt lat="49.85103" lon="4.82695">
        <ele>378</ele>
        <time>2021-08-14T10:12:02.000Z</time>
      </trkpt>
      <trkpt lat="49.85102" lon="4.827">
        <ele>378</ele>
        <time>2021-08-14T10:12:03.000Z</time>
      </trkpt>
      <trkpt lat="49.85102" lon="4.82705">
        <ele>378</ele>
        <time>2021-08-14T10:12:04.000Z</time>
      </trkpt>
      <trkpt lat="49.85102" lon="4.8271">
        <ele>378</ele>
        <time>2021-08-14T10:12:05.000Z</time>
      </trkpt>
      <trkpt lat="49.85102" lon="4.82716">
        <ele>378</ele>
        <time>2021-08-14T10:12:06.000Z</time>
      </trkpt>
      <trkpt lat="49.85101" lon="4.82721">
        <ele>378</ele>
        <time>2021-08-14T10:12:07.000Z</time>
      </trkpt>
      <trkpt lat="49.85101" lon="4.82727">
        <ele>379</ele>
        <time>2021-08-14T10:12:08.000Z</time>
      </trkpt>
      <trkpt lat="49.85099" lon="4.82731">
        <ele>379</ele>
        <time>2021-08-14T10:12:09.000Z</time>
      </trkpt>
      <trkpt lat="49.85096" lon="4.82735">
        <ele>379</ele>
        <time>2021-08-14T10:12:10.000Z</time>
      </trkpt>
      <trkpt lat="49.85093" lon="4.82738">
        <ele>379</ele>
        <time>2021-08-14T10:12:11.000Z</time>
      </trkpt>
      <trkpt lat="49.85089" lon="4.82741">
        <ele>379</ele>
        <time>2021-08-14T10:12:12.000Z</time>
      </trkpt>
      <trkpt lat="49.85085" lon="4.82743">
        <ele>379</ele>
        <time>2021-08-14T10:12:13.000Z</time>
      </trkpt>
      <trkpt lat="49.85082" lon="4.82745">
        <ele>379</ele>
        <time>2021-08-14T10:12:14.000Z</time>
      </trkpt>
      <trkpt lat="49.85079" lon="4.82747">
        <ele>379</ele>
        <time>2021-08-14T10:12:15.000Z</time>
      </trkpt>
      <trkpt lat="49.85076" lon="4.8275">
        <ele>379</ele>
        <time>2021-08-14T10:12:16.000Z</time>
      </trkpt>
      <trkpt lat="49.85073" lon="4.82754">
        <ele>379</ele>
        <time>2021-08-14T10:12:17.000Z</time>
      </trkpt>
      <trkpt lat="49.8507" lon="4.82757">
        <ele>379</ele>
        <time>2021-08-14T10:12:18.000Z</time>
      </trkpt>
      <trkpt lat="49.85068" lon="4.8276">
        <ele>379</ele>
        <time>2021-08-14T10:12:19.000Z</time>
      </trkpt>
      <trkpt lat="49.85065" lon="4.82764">
        <ele>378</ele>
        <time>2021-08-14T10:12:20.000Z</time>
      </trkpt>
      <trkpt lat="49.85062" lon="4.82769">
        <ele>378</ele>
        <time>2021-08-14T10:12:21.000Z</time>
      </trkpt>
      <trkpt lat="49.85059" lon="4.82773">
        <ele>378</ele>
        <time>2021-08-14T10:12:22.000Z</time>
      </trkpt>
      <trkpt lat="49.85057" lon="4.82779">
        <ele>378</ele>
        <time>2021-08-14T10:12:23.000Z</time>
      </trkpt>
      <trkpt lat="49.85054" lon="4.82783">
        <ele>378</ele>
        <time>2021-08-14T10:12:24.000Z</time>
      </trkpt>
      <trkpt lat="49.85051" lon="4.82787">
        <ele>378</ele>
        <time>2021-08-14T10:12:25.000Z</time>
      </trkpt>
      <trkpt lat="49.85049" lon="4.82791">
        <ele>378</ele>
        <time>2021-08-14T10:12:26.000Z</time>
      </trkpt>
      <trkpt lat="49.85046" lon="4.82796">
        <ele>378</ele>
        <time>2021-08-14T10:12:27.000Z</time>
      </trkpt>
      <trkpt lat="49.85043" lon="4.828">
        <ele>378</ele>
        <time>2021-08-14T10:12:28.000Z</time>
      </trkpt>
      <trkpt lat="49.85041" lon="4.82803">
        <ele>378</ele>
        <time>2021-08-14T10:12:29.000Z</time>
      </trkpt>
      <trkpt lat="49.85039" lon="4.82805">
        <ele>378</ele>
        <time>2021-08-14T10:12:30.000Z</time>
      </trkpt>
      <trkpt lat="49.85037" lon="4.82806">
        <ele>378</ele>
        <time>2021-08-14T10:12:31.000Z</time>
      </trkpt>
      <trkpt lat="49.85035" lon="4.82808">
        <ele>378</ele>
        <time>2021-08-14T10:12:32.000Z</time>
      </trkpt>
      <trkpt lat="49.85033" lon="4.82811">
        <ele>378</ele>
        <time>2021-08-14T10:12:33.000Z</time>
      </trkpt>
      <trkpt lat="49.85032" lon="4.82812">
        <ele>379</ele>
        <time>2021-08-14T10:12:34.000Z</time>
      </trkpt>
      <trkpt lat="49.8503" lon="4.82814">
        <ele>379</ele>
        <time>2021-08-14T10:12:35.000Z</time>
      </trkpt>
      <trkpt lat="49.85028" lon="4.82817">
        <ele>379</ele>
        <time>2021-08-14T10:12:36.000Z</time>
      </trkpt>
      <trkpt lat="49.85025" lon="4.82821">
        <ele>379</ele>
        <time>2021-08-14T10:12:37.000Z</time>
      </trkpt>
      <trkpt lat="49.85022" lon="4.82824">
        <ele>379</ele>
        <time>2021-08-14T10:12:38.000Z</time>
      </trkpt>
      <trkpt lat="49.8502" lon="4.82829">
        <ele>379</ele>
        <time>2021-08-14T10:12:39.000Z</time>
      </trkpt>
      <trkpt lat="49.85017" lon="4.82832">
        <ele>379</ele>
        <time>2021-08-14T10:12:40.000Z</time>
      </trkpt>
      <trkpt lat="49.85014" lon="4.82836">
        <ele>379</ele>
        <time>2021-08-14T10:12:41.000Z</time>
      </trkpt>
      <trkpt lat="49.85012" lon="4.82839">
        <ele>379</ele>
        <time>2021-08-14T10:12:42.000Z</time>
      </trkpt>
      <trkpt lat="49.85008" lon="4.82845">
        <ele>379</ele>
        <time>2021-08-14T10:12:43.000Z</time>
      </trkpt>
      <trkpt lat="49.85004" lon="4.8285">
        <ele>379</ele>
        <time>2021-08-14T10:12:44.000Z</time>
      </trkpt>
      <trkpt lat="49.84999" lon="4.82856">
        <ele>379</ele>
        <time>2021-08-14T10:12:45.000Z</time>
      </trkpt>
      <trkpt lat="49.84994" lon="4.82862">
        <ele>379</ele>
        <time>2021-08-14T10:12:46.000Z</time>
      </trkpt>
      <trkpt lat="49.84989" lon="4.82867">
        <ele>379</ele>
        <time>2021-08-14T10:12:47.000Z</time>
      </trkpt>
      <trkpt lat="49.84983" lon="4.82871">
        <ele>379</ele>
        <time>2021-08-14T10:12:48.000Z</time>
      </trkpt>
      <trkpt lat="49.84979" lon="4.82875">
        <ele>379</ele>
        <time>2021-08-14T10:12:49.000Z</time>
      </trkpt>
      <trkpt lat="49.84975" lon="4.82878">
        <ele>379</ele>
        <time>2021-08-14T10:12:50.000Z</time>
      </trkpt>
      <trkpt lat="49.84972" lon="4.8288">
        <ele>379</ele>
        <time>2021-08-14T10:12:51.000Z</time>
      </trkpt>
      <trkpt lat="49.8497" lon="4.82882">
        <ele>379</ele>
        <time>2021-08-14T10:12:52.000Z</time>
      </trkpt>
      <trkpt lat="49.84968" lon="4.82885">
        <ele>378</ele>
        <time>2021-08-14T10:12:53.000Z</time>
      </trkpt>
      <trkpt lat="49.84966" lon="4.82888">
        <ele>378</ele>
        <time>2021-08-14T10:12:54.000Z</time>
      </trkpt>
      <trkpt lat="49.84965" lon="4.8289">
        <ele>378</ele>
        <time>2021-08-14T10:12:55.000Z</time>
      </trkpt>
      <trkpt lat="49.84965" lon="4.82893">
        <ele>378</ele>
        <time>2021-08-14T10:12:56.000Z</time>
      </trkpt>
      <trkpt lat="49.84965" lon="4.82897">
        <ele>378</ele>
        <time>2021-08-14T10:12:57.000Z</time>
      </trkpt>
      <trkpt lat="49.84965" lon="4.829">
        <ele>378</ele>
        <time>2021-08-14T10:12:58.000Z</time>
      </trkpt>
      <trkpt lat="49.84966" lon="4.82903">
        <ele>378</ele>
        <time>2021-08-14T10:12:59.000Z</time>
      </trkpt>
      <trkpt lat="49.84966" lon="4.82905">
        <ele>377</ele>
        <time>2021-08-14T10:13:00.000Z</time>
      </trkpt>
      <trkpt lat="49.84966" lon="4.82909">
        <ele>377</ele>
        <time>2021-08-14T10:13:01.000Z</time>
      </trkpt>
      <trkpt lat="49.84964" lon="4.82913">
        <ele>377</ele>
        <time>2021-08-14T10:13:02.000Z</time>
      </trkpt>
      <trkpt lat="49.84963" lon="4.82918">
        <ele>377</ele>
        <time>2021-08-14T10:13:03.000Z</time>
      </trkpt>
      <trkpt lat="49.84961" lon="4.82924">
        <ele>377</ele>
        <time>2021-08-14T10:13:04.000Z</time>
      </trkpt>
      <trkpt lat="49.84958" lon="4.82929">
        <ele>377</ele>
        <time>2021-08-14T10:13:05.000Z</time>
      </trkpt>
      <trkpt lat="49.84955" lon="4.82935">
        <ele>376</ele>
        <time>2021-08-14T10:13:06.000Z</time>
      </trkpt>
      <trkpt lat="49.84953" lon="4.82941">
        <ele>376</ele>
        <time>2021-08-14T10:13:07.000Z</time>
      </trkpt>
      <trkpt lat="49.8495" lon="4.82948">
        <ele>376</ele>
        <time>2021-08-14T10:13:08.000Z</time>
      </trkpt>
      <trkpt lat="49.84947" lon="4.82954">
        <ele>376</ele>
        <time>2021-08-14T10:13:09.000Z</time>
      </trkpt>
      <trkpt lat="49.84945" lon="4.82961">
        <ele>377</ele>
        <time>2021-08-14T10:13:10.000Z</time>
      </trkpt>
      <trkpt lat="49.84943" lon="4.82969">
        <ele>377</ele>
        <time>2021-08-14T10:13:11.000Z</time>
      </trkpt>
      <trkpt lat="49.8494" lon="4.82977">
        <ele>377</ele>
        <time>2021-08-14T10:13:12.000Z</time>
      </trkpt>
      <trkpt lat="49.84937" lon="4.82984">
        <ele>377</ele>
        <time>2021-08-14T10:13:13.000Z</time>
      </trkpt>
      <trkpt lat="49.84933" lon="4.82992">
        <ele>377</ele>
        <time>2021-08-14T10:13:14.000Z</time>
      </trkpt>
      <trkpt lat="49.84929" lon="4.83">
        <ele>377</ele>
        <time>2021-08-14T10:13:15.000Z</time>
      </trkpt>
      <trkpt lat="49.84925" lon="4.83006">
        <ele>377</ele>
        <time>2021-08-14T10:13:16.000Z</time>
      </trkpt>
      <trkpt lat="49.84921" lon="4.83012">
        <ele>377</ele>
        <time>2021-08-14T10:13:17.000Z</time>
      </trkpt>
      <trkpt lat="49.84917" lon="4.83019">
        <ele>376</ele>
        <time>2021-08-14T10:13:18.000Z</time>
      </trkpt>
      <trkpt lat="49.84913" lon="4.83025">
        <ele>376</ele>
        <time>2021-08-14T10:13:19.000Z</time>
      </trkpt>
      <trkpt lat="49.84909" lon="4.8303">
        <ele>376</ele>
        <time>2021-08-14T10:13:20.000Z</time>
      </trkpt>
      <trkpt lat="49.84905" lon="4.83036">
        <ele>376</ele>
        <time>2021-08-14T10:13:21.000Z</time>
      </trkpt>
      <trkpt lat="49.84901" lon="4.83042">
        <ele>376</ele>
        <time>2021-08-14T10:13:22.000Z</time>
      </trkpt>
      <trkpt lat="49.84897" lon="4.83047">
        <ele>376</ele>
        <time>2021-08-14T10:13:23.000Z</time>
      </trkpt>
      <trkpt lat="49.84892" lon="4.83053">
        <ele>376</ele>
        <time>2021-08-14T10:13:24.000Z</time>
      </trkpt>
      <trkpt lat="49.84888" lon="4.83059">
        <ele>375</ele>
        <time>2021-08-14T10:13:25.000Z</time>
      </trkpt>
      <trkpt lat="49.84885" lon="4.83065">
        <ele>375</ele>
        <time>2021-08-14T10:13:26.000Z</time>
      </trkpt>
      <trkpt lat="49.84881" lon="4.83071">
        <ele>375</ele>
        <time>2021-08-14T10:13:27.000Z</time>
      </trkpt>
      <trkpt lat="49.84877" lon="4.83076">
        <ele>374</ele>
        <time>2021-08-14T10:13:28.000Z</time>
      </trkpt>
      <trkpt lat="49.84873" lon="4.83082">
        <ele>374</ele>
        <time>2021-08-14T10:13:29.000Z</time>
      </trkpt>
      <trkpt lat="49.84869" lon="4.83087">
        <ele>374</ele>
        <time>2021-08-14T10:13:30.000Z</time>
      </trkpt>
      <trkpt lat="49.84865" lon="4.83093">
        <ele>373</ele>
        <time>2021-08-14T10:13:31.000Z</time>
      </trkpt>
      <trkpt lat="49.84862" lon="4.83099">
        <ele>373</ele>
        <time>2021-08-14T10:13:32.000Z</time>
      </trkpt>
      <trkpt lat="49.84858" lon="4.83104">
        <ele>373</ele>
        <time>2021-08-14T10:13:33.000Z</time>
      </trkpt>
      <trkpt lat="49.84854" lon="4.8311">
        <ele>372</ele>
        <time>2021-08-14T10:13:34.000Z</time>
      </trkpt>
      <trkpt lat="49.8485" lon="4.83115">
        <ele>372</ele>
        <time>2021-08-14T10:13:35.000Z</time>
      </trkpt>
      <trkpt lat="49.84847" lon="4.83121">
        <ele>372</ele>
        <time>2021-08-14T10:13:36.000Z</time>
      </trkpt>
      <trkpt lat="49.84844" lon="4.83126">
        <ele>372</ele>
        <time>2021-08-14T10:13:37.000Z</time>
      </trkpt>
      <trkpt lat="49.84841" lon="4.83132">
        <ele>371</ele>
        <time>2021-08-14T10:13:38.000Z</time>
      </trkpt>
      <trkpt lat="49.84838" lon="4.83137">
        <ele>371</ele>
        <time>2021-08-14T10:13:39.000Z</time>
      </trkpt>
      <trkpt lat="49.84835" lon="4.83141">
        <ele>371</ele>
        <time>2021-08-14T10:13:40.000Z</time>
      </trkpt>
      <trkpt lat="49.84832" lon="4.83146">
        <ele>371</ele>
        <time>2021-08-14T10:13:41.000Z</time>
      </trkpt>
      <trkpt lat="49.84829" lon="4.8315">
        <ele>371</ele>
        <time>2021-08-14T10:13:42.000Z</time>
      </trkpt>
      <trkpt lat="49.84825" lon="4.83155">
        <ele>371</ele>
        <time>2021-08-14T10:13:43.000Z</time>
      </trkpt>
      <trkpt lat="49.84822" lon="4.8316">
        <ele>371</ele>
        <time>2021-08-14T10:13:44.000Z</time>
      </trkpt>
      <trkpt lat="49.84818" lon="4.83165">
        <ele>371</ele>
        <time>2021-08-14T10:13:45.000Z</time>
      </trkpt>
      <trkpt lat="49.84814" lon="4.83169">
        <ele>371</ele>
        <time>2021-08-14T10:13:46.000Z</time>
      </trkpt>
      <trkpt lat="49.84811" lon="4.83173">
        <ele>371</ele>
        <time>2021-08-14T10:13:47.000Z</time>
      </trkpt>
      <trkpt lat="49.84807" lon="4.83176">
        <ele>370</ele>
        <time>2021-08-14T10:13:48.000Z</time>
      </trkpt>
      <trkpt lat="49.84804" lon="4.8318">
        <ele>370</ele>
        <time>2021-08-14T10:13:49.000Z</time>
      </trkpt>
      <trkpt lat="49.84802" lon="4.83185">
        <ele>370</ele>
        <time>2021-08-14T10:13:50.000Z</time>
      </trkpt>
      <trkpt lat="49.84799" lon="4.83189">
        <ele>370</ele>
        <time>2021-08-14T10:13:51.000Z</time>
      </trkpt>
      <trkpt lat="49.84796" lon="4.83194">
        <ele>369</ele>
        <time>2021-08-14T10:13:52.000Z</time>
      </trkpt>
      <trkpt lat="49.84794" lon="4.83198">
        <ele>369</ele>
        <time>2021-08-14T10:13:53.000Z</time>
      </trkpt>
      <trkpt lat="49.84791" lon="4.83203">
        <ele>369</ele>
        <time>2021-08-14T10:13:54.000Z</time>
      </trkpt>
      <trkpt lat="49.84788" lon="4.83208">
        <ele>368</ele>
        <time>2021-08-14T10:13:55.000Z</time>
      </trkpt>
      <trkpt lat="49.84786" lon="4.83212">
        <ele>368</ele>
        <time>2021-08-14T10:13:56.000Z</time>
      </trkpt>
      <trkpt lat="49.84784" lon="4.83217">
        <ele>368</ele>
        <time>2021-08-14T10:13:57.000Z</time>
      </trkpt>
      <trkpt lat="49.84783" lon="4.83222">
        <ele>367</ele>
        <time>2021-08-14T10:13:58.000Z</time>
      </trkpt>
      <trkpt lat="49.84782" lon="4.83227">
        <ele>367</ele>
        <time>2021-08-14T10:13:59.000Z</time>
      </trkpt>
      <trkpt lat="49.8478" lon="4.83233">
        <ele>367</ele>
        <time>2021-08-14T10:14:00.000Z</time>
      </trkpt>
      <trkpt lat="49.84778" lon="4.83239">
        <ele>367</ele>
        <time>2021-08-14T10:14:01.000Z</time>
      </trkpt>
      <trkpt lat="49.84777" lon="4.83245">
        <ele>367</ele>
        <time>2021-08-14T10:14:02.000Z</time>
      </trkpt>
      <trkpt lat="49.84776" lon="4.83251">
        <ele>366</ele>
        <time>2021-08-14T10:14:03.000Z</time>
      </trkpt>
      <trkpt lat="49.84775" lon="4.83257">
        <ele>366</ele>
        <time>2021-08-14T10:14:04.000Z</time>
      </trkpt>
      <trkpt lat="49.84775" lon="4.83263">
        <ele>366</ele>
        <time>2021-08-14T10:14:05.000Z</time>
      </trkpt>
      <trkpt lat="49.84776" lon="4.83269">
        <ele>366</ele>
        <time>2021-08-14T10:14:06.000Z</time>
      </trkpt>
      <trkpt lat="49.84777" lon="4.83276">
        <ele>366</ele>
        <time>2021-08-14T10:14:07.000Z</time>
      </trkpt>
      <trkpt lat="49.84778" lon="4.83284">
        <ele>366</ele>
        <time>2021-08-14T10:14:08.000Z</time>
      </trkpt>
      <trkpt lat="49.84779" lon="4.83291">
        <ele>366</ele>
        <time>2021-08-14T10:14:09.000Z</time>
      </trkpt>
      <trkpt lat="49.84781" lon="4.83299">
        <ele>366</ele>
        <time>2021-08-14T10:14:10.000Z</time>
      </trkpt>
      <trkpt lat="49.84782" lon="4.83308">
        <ele>366</ele>
        <time>2021-08-14T10:14:11.000Z</time>
      </trkpt>
      <trkpt lat="49.84782" lon="4.83319">
        <ele>366</ele>
        <time>2021-08-14T10:14:12.000Z</time>
      </trkpt>
      <trkpt lat="49.84783" lon="4.83329">
        <ele>366</ele>
        <time>2021-08-14T10:14:13.000Z</time>
      </trkpt>
      <trkpt lat="49.84783" lon="4.83339">
        <ele>366</ele>
        <time>2021-08-14T10:14:14.000Z</time>
      </trkpt>
      <trkpt lat="49.84783" lon="4.8335">
        <ele>365</ele>
        <time>2021-08-14T10:14:15.000Z</time>
      </trkpt>
      <trkpt lat="49.84783" lon="4.83362">
        <ele>365</ele>
        <time>2021-08-14T10:14:16.000Z</time>
      </trkpt>
      <trkpt lat="49.84783" lon="4.83375">
        <ele>365</ele>
        <time>2021-08-14T10:14:17.000Z</time>
      </trkpt>
      <trkpt lat="49.84783" lon="4.83386">
        <ele>365</ele>
        <time>2021-08-14T10:14:18.000Z</time>
      </trkpt>
      <trkpt lat="49.84784" lon="4.83398">
        <ele>364</ele>
        <time>2021-08-14T10:14:19.000Z</time>
      </trkpt>
      <trkpt lat="49.84785" lon="4.8341">
        <ele>364</ele>
        <time>2021-08-14T10:14:20.000Z</time>
      </trkpt>
      <trkpt lat="49.84785" lon="4.83422">
        <ele>363</ele>
        <time>2021-08-14T10:14:21.000Z</time>
      </trkpt>
      <trkpt lat="49.84785" lon="4.83435">
        <ele>363</ele>
        <time>2021-08-14T10:14:22.000Z</time>
      </trkpt>
      <trkpt lat="49.84784" lon="4.83446">
        <ele>362</ele>
        <time>2021-08-14T10:14:23.000Z</time>
      </trkpt>
      <trkpt lat="49.84783" lon="4.83457">
        <ele>362</ele>
        <time>2021-08-14T10:14:24.000Z</time>
      </trkpt>
      <trkpt lat="49.84782" lon="4.83467">
        <ele>361</ele>
        <time>2021-08-14T10:14:25.000Z</time>
      </trkpt>
      <trkpt lat="49.84781" lon="4.83475">
        <ele>361</ele>
        <time>2021-08-14T10:14:26.000Z</time>
      </trkpt>
      <trkpt lat="49.84781" lon="4.83482">
        <ele>360</ele>
        <time>2021-08-14T10:14:27.000Z</time>
      </trkpt>
      <trkpt lat="49.8478" lon="4.83488">
        <ele>360</ele>
        <time>2021-08-14T10:14:28.000Z</time>
      </trkpt>
      <trkpt lat="49.8478" lon="4.83495">
        <ele>359</ele>
        <time>2021-08-14T10:14:29.000Z</time>
      </trkpt>
      <trkpt lat="49.8478" lon="4.83501">
        <ele>359</ele>
        <time>2021-08-14T10:14:30.000Z</time>
      </trkpt>
      <trkpt lat="49.84781" lon="4.83509">
        <ele>359</ele>
        <time>2021-08-14T10:14:31.000Z</time>
      </trkpt>
      <trkpt lat="49.8478" lon="4.83516">
        <ele>358</ele>
        <time>2021-08-14T10:14:32.000Z</time>
      </trkpt>
      <trkpt lat="49.8478" lon="4.83524">
        <ele>358</ele>
        <time>2021-08-14T10:14:33.000Z</time>
      </trkpt>
      <trkpt lat="49.84779" lon="4.83533">
        <ele>358</ele>
        <time>2021-08-14T10:14:34.000Z</time>
      </trkpt>
      <trkpt lat="49.84779" lon="4.83541">
        <ele>357</ele>
        <time>2021-08-14T10:14:35.000Z</time>
      </trkpt>
      <trkpt lat="49.84779" lon="4.83549">
        <ele>357</ele>
        <time>2021-08-14T10:14:36.000Z</time>
      </trkpt>
      <trkpt lat="49.8478" lon="4.83556">
        <ele>357</ele>
        <time>2021-08-14T10:14:37.000Z</time>
      </trkpt>
      <trkpt lat="49.8478" lon="4.83561">
        <ele>356</ele>
        <time>2021-08-14T10:14:38.000Z</time>
      </trkpt>
      <trkpt lat="49.8478" lon="4.83566">
        <ele>356</ele>
        <time>2021-08-14T10:14:39.000Z</time>
      </trkpt>
      <trkpt lat="49.84779" lon="4.8357">
        <ele>355</ele>
        <time>2021-08-14T10:14:40.000Z</time>
      </trkpt>
      <trkpt lat="49.84779" lon="4.83575">
        <ele>355</ele>
        <time>2021-08-14T10:14:41.000Z</time>
      </trkpt>
      <trkpt lat="49.8478" lon="4.83581">
        <ele>355</ele>
        <time>2021-08-14T10:14:42.000Z</time>
      </trkpt>
      <trkpt lat="49.8478" lon="4.83586">
        <ele>355</ele>
        <time>2021-08-14T10:14:43.000Z</time>
      </trkpt>
      <trkpt lat="49.8478" lon="4.83592">
        <ele>354</ele>
        <time>2021-08-14T10:14:44.000Z</time>
      </trkpt>
      <trkpt lat="49.8478" lon="4.83598">
        <ele>354</ele>
        <time>2021-08-14T10:14:45.000Z</time>
      </trkpt>
      <trkpt lat="49.84779" lon="4.83604">
        <ele>354</ele>
        <time>2021-08-14T10:14:46.000Z</time>
      </trkpt>
      <trkpt lat="49.8478" lon="4.83611">
        <ele>354</ele>
        <time>2021-08-14T10:14:47.000Z</time>
      </trkpt>
      <trkpt lat="49.8478" lon="4.83618">
        <ele>354</ele>
        <time>2021-08-14T10:14:48.000Z</time>
      </trkpt>
      <trkpt lat="49.8478" lon="4.83625">
        <ele>354</ele>
        <time>2021-08-14T10:14:49.000Z</time>
      </trkpt>
      <trkpt lat="49.8478" lon="4.83634">
        <ele>354</ele>
        <time>2021-08-14T10:14:50.000Z</time>
      </trkpt>
      <trkpt lat="49.8478" lon="4.83642">
        <ele>354</ele>
        <time>2021-08-14T10:14:51.000Z</time>
      </trkpt>
      <trkpt lat="49.84781" lon="4.83651">
        <ele>353</ele>
        <time>2021-08-14T10:14:52.000Z</time>
      </trkpt>
      <trkpt lat="49.84781" lon="4.83658">
        <ele>353</ele>
        <time>2021-08-14T10:14:53.000Z</time>
      </trkpt>
      <trkpt lat="49.84781" lon="4.83665">
        <ele>353</ele>
        <time>2021-08-14T10:14:54.000Z</time>
      </trkpt>
      <trkpt lat="49.84781" lon="4.83673">
        <ele>353</ele>
        <time>2021-08-14T10:14:55.000Z</time>
      </trkpt>
      <trkpt lat="49.84782" lon="4.8368">
        <ele>353</ele>
        <time>2021-08-14T10:14:56.000Z</time>
      </trkpt>
      <trkpt lat="49.84783" lon="4.83687">
        <ele>353</ele>
        <time>2021-08-14T10:14:57.000Z</time>
      </trkpt>
      <trkpt lat="49.84783" lon="4.83695">
        <ele>353</ele>
        <time>2021-08-14T10:14:58.000Z</time>
      </trkpt>
      <trkpt lat="49.84784" lon="4.83703">
        <ele>353</ele>
        <time>2021-08-14T10:14:59.000Z</time>
      </trkpt>
      <trkpt lat="49.84784" lon="4.8371">
        <ele>353</ele>
        <time>2021-08-14T10:15:00.000Z</time>
      </trkpt>
      <trkpt lat="49.84785" lon="4.83717">
        <ele>353</ele>
        <time>2021-08-14T10:15:01.000Z</time>
      </trkpt>
      <trkpt lat="49.84785" lon="4.83725">
        <ele>353</ele>
        <time>2021-08-14T10:15:02.000Z</time>
      </trkpt>
      <trkpt lat="49.84786" lon="4.83733">
        <ele>353</ele>
        <time>2021-08-14T10:15:03.000Z</time>
      </trkpt>
      <trkpt lat="49.84786" lon="4.83742">
        <ele>353</ele>
        <time>2021-08-14T10:15:04.000Z</time>
      </trkpt>
      <trkpt lat="49.84787" lon="4.8375">
        <ele>353</ele>
        <time>2021-08-14T10:15:05.000Z</time>
      </trkpt>
      <trkpt lat="49.84787" lon="4.83758">
        <ele>352</ele>
        <time>2021-08-14T10:15:06.000Z</time>
      </trkpt>
      <trkpt lat="49.84787" lon="4.83765">
        <ele>352</ele>
        <time>2021-08-14T10:15:07.000Z</time>
      </trkpt>
      <trkpt lat="49.84787" lon="4.83772">
        <ele>352</ele>
        <time>2021-08-14T10:15:08.000Z</time>
      </trkpt>
      <trkpt lat="49.84787" lon="4.8378">
        <ele>352</ele>
        <time>2021-08-14T10:15:09.000Z</time>
      </trkpt>
      <trkpt lat="49.84787" lon="4.83787">
        <ele>353</ele>
        <time>2021-08-14T10:15:10.000Z</time>
      </trkpt>
      <trkpt lat="49.84787" lon="4.83794">
        <ele>353</ele>
        <time>2021-08-14T10:15:11.000Z</time>
      </trkpt>
      <trkpt lat="49.84787" lon="4.83801">
        <ele>353</ele>
        <time>2021-08-14T10:15:12.000Z</time>
      </trkpt>
      <trkpt lat="49.84787" lon="4.83807">
        <ele>353</ele>
        <time>2021-08-14T10:15:13.000Z</time>
      </trkpt>
      <trkpt lat="49.84787" lon="4.83813">
        <ele>353</ele>
        <time>2021-08-14T10:15:14.000Z</time>
      </trkpt>
      <trkpt lat="49.84786" lon="4.8382">
        <ele>353</ele>
        <time>2021-08-14T10:15:15.000Z</time>
      </trkpt>
      <trkpt lat="49.84786" lon="4.83825">
        <ele>353</ele>
        <time>2021-08-14T10:15:16.000Z</time>
      </trkpt>
      <trkpt lat="49.84785" lon="4.8383">
        <ele>353</ele>
        <time>2021-08-14T10:15:17.000Z</time>
      </trkpt>
      <trkpt lat="49.84784" lon="4.83835">
        <ele>353</ele>
        <time>2021-08-14T10:15:18.000Z</time>
      </trkpt>
      <trkpt lat="49.84783" lon="4.8384">
        <ele>353</ele>
        <time>2021-08-14T10:15:19.000Z</time>
      </trkpt>
      <trkpt lat="49.84782" lon="4.83845">
        <ele>354</ele>
        <time>2021-08-14T10:15:20.000Z</time>
      </trkpt>
      <trkpt lat="49.8478" lon="4.8385">
        <ele>354</ele>
        <time>2021-08-14T10:15:21.000Z</time>
      </trkpt>
      <trkpt lat="49.84778" lon="4.83855">
        <ele>354</ele>
        <time>2021-08-14T10:15:22.000Z</time>
      </trkpt>
      <trkpt lat="49.84777" lon="4.8386">
        <ele>354</ele>
        <time>2021-08-14T10:15:23.000Z</time>
      </trkpt>
      <trkpt lat="49.84774" lon="4.83865">
        <ele>354</ele>
        <time>2021-08-14T10:15:24.000Z</time>
      </trkpt>
      <trkpt lat="49.84772" lon="4.83869">
        <ele>354</ele>
        <time>2021-08-14T10:15:25.000Z</time>
      </trkpt>
      <trkpt lat="49.8477" lon="4.83873">
        <ele>354</ele>
        <time>2021-08-14T10:15:26.000Z</time>
      </trkpt>
      <trkpt lat="49.84769" lon="4.83879">
        <ele>355</ele>
        <time>2021-08-14T10:15:27.000Z</time>
      </trkpt>
      <trkpt lat="49.84767" lon="4.83883">
        <ele>355</ele>
        <time>2021-08-14T10:15:28.000Z</time>
      </trkpt>
      <trkpt lat="49.84765" lon="4.83889">
        <ele>355</ele>
        <time>2021-08-14T10:15:29.000Z</time>
      </trkpt>
      <trkpt lat="49.84762" lon="4.83894">
        <ele>355</ele>
        <time>2021-08-14T10:15:30.000Z</time>
      </trkpt>
      <trkpt lat="49.8476" lon="4.83898">
        <ele>356</ele>
        <time>2021-08-14T10:15:31.000Z</time>
      </trkpt>
      <trkpt lat="49.84757" lon="4.83904">
        <ele>356</ele>
        <time>2021-08-14T10:15:32.000Z</time>
      </trkpt>
      <trkpt lat="49.84755" lon="4.83909">
        <ele>356</ele>
        <time>2021-08-14T10:15:33.000Z</time>
      </trkpt>
      <trkpt lat="49.84752" lon="4.83914">
        <ele>356</ele>
        <time>2021-08-14T10:15:34.000Z</time>
      </trkpt>
      <trkpt lat="49.8475" lon="4.8392">
        <ele>357</ele>
        <time>2021-08-14T10:15:35.000Z</time>
      </trkpt>
      <trkpt lat="49.84748" lon="4.83925">
        <ele>357</ele>
        <time>2021-08-14T10:15:36.000Z</time>
      </trkpt>
      <trkpt lat="49.84745" lon="4.83929">
        <ele>357</ele>
        <time>2021-08-14T10:15:37.000Z</time>
      </trkpt>
      <trkpt lat="49.84743" lon="4.83933">
        <ele>358</ele>
        <time>2021-08-14T10:15:38.000Z</time>
      </trkpt>
      <trkpt lat="49.8474" lon="4.83938">
        <ele>358</ele>
        <time>2021-08-14T10:15:39.000Z</time>
      </trkpt>
      <trkpt lat="49.84738" lon="4.83942">
        <ele>359</ele>
        <time>2021-08-14T10:15:40.000Z</time>
      </trkpt>
      <trkpt lat="49.84735" lon="4.83946">
        <ele>359</ele>
        <time>2021-08-14T10:15:41.000Z</time>
      </trkpt>
      <trkpt lat="49.84732" lon="4.83951">
        <ele>359</ele>
        <time>2021-08-14T10:15:42.000Z</time>
      </trkpt>
      <trkpt lat="49.84729" lon="4.83954">
        <ele>359</ele>
        <time>2021-08-14T10:15:43.000Z</time>
      </trkpt>
      <trkpt lat="49.84727" lon="4.83958">
        <ele>360</ele>
        <time>2021-08-14T10:15:44.000Z</time>
      </trkpt>
      <trkpt lat="49.84725" lon="4.83961">
        <ele>360</ele>
        <time>2021-08-14T10:15:45.000Z</time>
      </trkpt>
      <trkpt lat="49.84723" lon="4.83964">
        <ele>360</ele>
        <time>2021-08-14T10:15:46.000Z</time>
      </trkpt>
      <trkpt lat="49.8472" lon="4.83967">
        <ele>360</ele>
        <time>2021-08-14T10:15:47.000Z</time>
      </trkpt>
      <trkpt lat="49.84717" lon="4.83969">
        <ele>361</ele>
        <time>2021-08-14T10:15:48.000Z</time>
      </trkpt>
      <trkpt lat="49.84714" lon="4.83971">
        <ele>361</ele>
        <time>2021-08-14T10:15:49.000Z</time>
      </trkpt>
      <trkpt lat="49.84711" lon="4.83973">
        <ele>361</ele>
        <time>2021-08-14T10:15:50.000Z</time>
      </trkpt>
      <trkpt lat="49.84708" lon="4.83974">
        <ele>361</ele>
        <time>2021-08-14T10:15:51.000Z</time>
      </trkpt>
      <trkpt lat="49.84705" lon="4.83975">
        <ele>361</ele>
        <time>2021-08-14T10:15:52.000Z</time>
      </trkpt>
      <trkpt lat="49.84702" lon="4.83976">
        <ele>361</ele>
        <time>2021-08-14T10:15:53.000Z</time>
      </trkpt>
      <trkpt lat="49.847" lon="4.83978">
        <ele>362</ele>
        <time>2021-08-14T10:15:54.000Z</time>
      </trkpt>
      <trkpt lat="49.84696" lon="4.83979">
        <ele>362</ele>
        <time>2021-08-14T10:15:55.000Z</time>
      </trkpt>
      <trkpt lat="49.84693" lon="4.83981">
        <ele>362</ele>
        <time>2021-08-14T10:15:56.000Z</time>
      </trkpt>
      <trkpt lat="49.84689" lon="4.83983">
        <ele>362</ele>
        <time>2021-08-14T10:15:57.000Z</time>
      </trkpt>
      <trkpt lat="49.84685" lon="4.83984">
        <ele>363</ele>
        <time>2021-08-14T10:15:58.000Z</time>
      </trkpt>
      <trkpt lat="49.84682" lon="4.83985">
        <ele>363</ele>
        <time>2021-08-14T10:15:59.000Z</time>
      </trkpt>
      <trkpt lat="49.84679" lon="4.83985">
        <ele>363</ele>
        <time>2021-08-14T10:16:00.000Z</time>
      </trkpt>
      <trkpt lat="49.84676" lon="4.83986">
        <ele>363</ele>
        <time>2021-08-14T10:16:01.000Z</time>
      </trkpt>
      <trkpt lat="49.84673" lon="4.83986">
        <ele>364</ele>
        <time>2021-08-14T10:16:02.000Z</time>
      </trkpt>
      <trkpt lat="49.8467" lon="4.83987">
        <ele>364</ele>
        <time>2021-08-14T10:16:03.000Z</time>
      </trkpt>
      <trkpt lat="49.84667" lon="4.83988">
        <ele>364</ele>
        <time>2021-08-14T10:16:04.000Z</time>
      </trkpt>
      <trkpt lat="49.84665" lon="4.83989">
        <ele>365</ele>
        <time>2021-08-14T10:16:05.000Z</time>
      </trkpt>
      <trkpt lat="49.84662" lon="4.83991">
        <ele>365</ele>
        <time>2021-08-14T10:16:06.000Z</time>
      </trkpt>
      <trkpt lat="49.8466" lon="4.83992">
        <ele>365</ele>
        <time>2021-08-14T10:16:07.000Z</time>
      </trkpt>
      <trkpt lat="49.84658" lon="4.83993">
        <ele>365</ele>
        <time>2021-08-14T10:16:08.000Z</time>
      </trkpt>
      <trkpt lat="49.84655" lon="4.83994">
        <ele>366</ele>
        <time>2021-08-14T10:16:09.000Z</time>
      </trkpt>
      <trkpt lat="49.84653" lon="4.83995">
        <ele>366</ele>
        <time>2021-08-14T10:16:10.000Z</time>
      </trkpt>
      <trkpt lat="49.84651" lon="4.83996">
        <ele>366</ele>
        <time>2021-08-14T10:16:11.000Z</time>
      </trkpt>
      <trkpt lat="49.84649" lon="4.83996">
        <ele>366</ele>
        <time>2021-08-14T10:16:12.000Z</time>
      </trkpt>
      <trkpt lat="49.84646" lon="4.83998">
        <ele>366</ele>
        <time>2021-08-14T10:16:13.000Z</time>
      </trkpt>
      <trkpt lat="49.84644" lon="4.83999">
        <ele>367</ele>
        <time>2021-08-14T10:16:14.000Z</time>
      </trkpt>
      <trkpt lat="49.84641" lon="4.84">
        <ele>367</ele>
        <time>2021-08-14T10:16:15.000Z</time>
      </trkpt>
      <trkpt lat="49.84639" lon="4.84">
        <ele>367</ele>
        <time>2021-08-14T10:16:16.000Z</time>
      </trkpt>
      <trkpt lat="49.84636" lon="4.84">
        <ele>367</ele>
        <time>2021-08-14T10:16:17.000Z</time>
      </trkpt>
      <trkpt lat="49.84634" lon="4.84">
        <ele>368</ele>
        <time>2021-08-14T10:16:18.000Z</time>
      </trkpt>
      <trkpt lat="49.84632" lon="4.84001">
        <ele>368</ele>
        <time>2021-08-14T10:16:19.000Z</time>
      </trkpt>
      <trkpt lat="49.8463" lon="4.84002">
        <ele>368</ele>
        <time>2021-08-14T10:16:20.000Z</time>
      </trkpt>
      <trkpt lat="49.84627" lon="4.84003">
        <ele>368</ele>
        <time>2021-08-14T10:16:21.000Z</time>
      </trkpt>
      <trkpt lat="49.84625" lon="4.84004">
        <ele>368</ele>
        <time>2021-08-14T10:16:22.000Z</time>
      </trkpt>
      <trkpt lat="49.84623" lon="4.84005">
        <ele>369</ele>
        <time>2021-08-14T10:16:23.000Z</time>
      </trkpt>
      <trkpt lat="49.8462" lon="4.84005">
        <ele>369</ele>
        <time>2021-08-14T10:16:24.000Z</time>
      </trkpt>
      <trkpt lat="49.84617" lon="4.84006">
        <ele>369</ele>
        <time>2021-08-14T10:16:25.000Z</time>
      </trkpt>
      <trkpt lat="49.84614" lon="4.84006">
        <ele>369</ele>
        <time>2021-08-14T10:16:26.000Z</time>
      </trkpt>
      <trkpt lat="49.84611" lon="4.84008">
        <ele>369</ele>
        <time>2021-08-14T10:16:27.000Z</time>
      </trkpt>
      <trkpt lat="49.84608" lon="4.8401">
        <ele>369</ele>
        <time>2021-08-14T10:16:28.000Z</time>
      </trkpt>
      <trkpt lat="49.84605" lon="4.84013">
        <ele>369</ele>
        <time>2021-08-14T10:16:29.000Z</time>
      </trkpt>
      <trkpt lat="49.84602" lon="4.84015">
        <ele>369</ele>
        <time>2021-08-14T10:16:30.000Z</time>
      </trkpt>
      <trkpt lat="49.84599" lon="4.84017">
        <ele>369</ele>
        <time>2021-08-14T10:16:31.000Z</time>
      </trkpt>
      <trkpt lat="49.84597" lon="4.8402">
        <ele>369</ele>
        <time>2021-08-14T10:16:32.000Z</time>
      </trkpt>
      <trkpt lat="49.84593" lon="4.84022">
        <ele>369</ele>
        <time>2021-08-14T10:16:33.000Z</time>
      </trkpt>
      <trkpt lat="49.8459" lon="4.84023">
        <ele>369</ele>
        <time>2021-08-14T10:16:34.000Z</time>
      </trkpt>
      <trkpt lat="49.84586" lon="4.84025">
        <ele>369</ele>
        <time>2021-08-14T10:16:35.000Z</time>
      </trkpt>
      <trkpt lat="49.84584" lon="4.84029">
        <ele>368</ele>
        <time>2021-08-14T10:16:36.000Z</time>
      </trkpt>
      <trkpt lat="49.84582" lon="4.84032">
        <ele>368</ele>
        <time>2021-08-14T10:16:37.000Z</time>
      </trkpt>
      <trkpt lat="49.84579" lon="4.84036">
        <ele>368</ele>
        <time>2021-08-14T10:16:38.000Z</time>
      </trkpt>
      <trkpt lat="49.84576" lon="4.84039">
        <ele>368</ele>
        <time>2021-08-14T10:16:39.000Z</time>
      </trkpt>
      <trkpt lat="49.84573" lon="4.84043">
        <ele>368</ele>
        <time>2021-08-14T10:16:40.000Z</time>
      </trkpt>
      <trkpt lat="49.84569" lon="4.84047">
        <ele>368</ele>
        <time>2021-08-14T10:16:41.000Z</time>
      </trkpt>
      <trkpt lat="49.84565" lon="4.8405">
        <ele>368</ele>
        <time>2021-08-14T10:16:42.000Z</time>
      </trkpt>
      <trkpt lat="49.84561" lon="4.84054">
        <ele>368</ele>
        <time>2021-08-14T10:16:43.000Z</time>
      </trkpt>
      <trkpt lat="49.84557" lon="4.84058">
        <ele>368</ele>
        <time>2021-08-14T10:16:44.000Z</time>
      </trkpt>
      <trkpt lat="49.84553" lon="4.84062">
        <ele>368</ele>
        <time>2021-08-14T10:16:45.000Z</time>
      </trkpt>
      <trkpt lat="49.84549" lon="4.84066">
        <ele>368</ele>
        <time>2021-08-14T10:16:46.000Z</time>
      </trkpt>
      <trkpt lat="49.84546" lon="4.8407">
        <ele>368</ele>
        <time>2021-08-14T10:16:47.000Z</time>
      </trkpt>
      <trkpt lat="49.84543" lon="4.84073">
        <ele>368</ele>
        <time>2021-08-14T10:16:48.000Z</time>
      </trkpt>
      <trkpt lat="49.8454" lon="4.84077">
        <ele>368</ele>
        <time>2021-08-14T10:16:49.000Z</time>
      </trkpt>
      <trkpt lat="49.84537" lon="4.84081">
        <ele>369</ele>
        <time>2021-08-14T10:16:50.000Z</time>
      </trkpt>
      <trkpt lat="49.84534" lon="4.84086">
        <ele>369</ele>
        <time>2021-08-14T10:16:51.000Z</time>
      </trkpt>
      <trkpt lat="49.84531" lon="4.84091">
        <ele>369</ele>
        <time>2021-08-14T10:16:52.000Z</time>
      </trkpt>
      <trkpt lat="49.84529" lon="4.84096">
        <ele>369</ele>
        <time>2021-08-14T10:16:53.000Z</time>
      </trkpt>
      <trkpt lat="49.84526" lon="4.84101">
        <ele>369</ele>
        <time>2021-08-14T10:16:54.000Z</time>
      </trkpt>
      <trkpt lat="49.84522" lon="4.84105">
        <ele>369</ele>
        <time>2021-08-14T10:16:55.000Z</time>
      </trkpt>
      <trkpt lat="49.84518" lon="4.84109">
        <ele>369</ele>
        <time>2021-08-14T10:16:56.000Z</time>
      </trkpt>
      <trkpt lat="49.84514" lon="4.84114">
        <ele>369</ele>
        <time>2021-08-14T10:16:57.000Z</time>
      </trkpt>
      <trkpt lat="49.84509" lon="4.84118">
        <ele>369</ele>
        <time>2021-08-14T10:16:58.000Z</time>
      </trkpt>
      <trkpt lat="49.84506" lon="4.84122">
        <ele>369</ele>
        <time>2021-08-14T10:16:59.000Z</time>
      </trkpt>
      <trkpt lat="49.84503" lon="4.84126">
        <ele>369</ele>
        <time>2021-08-14T10:17:00.000Z</time>
      </trkpt>
      <trkpt lat="49.845" lon="4.84131">
        <ele>369</ele>
        <time>2021-08-14T10:17:01.000Z</time>
      </trkpt>
      <trkpt lat="49.84497" lon="4.84137">
        <ele>369</ele>
        <time>2021-08-14T10:17:02.000Z</time>
      </trkpt>
      <trkpt lat="49.84494" lon="4.84142">
        <ele>369</ele>
        <time>2021-08-14T10:17:03.000Z</time>
      </trkpt>
      <trkpt lat="49.8449" lon="4.84147">
        <ele>369</ele>
        <time>2021-08-14T10:17:04.000Z</time>
      </trkpt>
      <trkpt lat="49.84486" lon="4.84152">
        <ele>369</ele>
        <time>2021-08-14T10:17:05.000Z</time>
      </trkpt>
      <trkpt lat="49.84482" lon="4.84158">
        <ele>369</ele>
        <time>2021-08-14T10:17:06.000Z</time>
      </trkpt>
      <trkpt lat="49.84477" lon="4.84164">
        <ele>369</ele>
        <time>2021-08-14T10:17:07.000Z</time>
      </trkpt>
      <trkpt lat="49.84473" lon="4.84169">
        <ele>368</ele>
        <time>2021-08-14T10:17:08.000Z</time>
      </trkpt>
      <trkpt lat="49.84469" lon="4.84174">
        <ele>368</ele>
        <time>2021-08-14T10:17:09.000Z</time>
      </trkpt>
      <trkpt lat="49.84464" lon="4.84179">
        <ele>368</ele>
        <time>2021-08-14T10:17:10.000Z</time>
      </trkpt>
      <trkpt lat="49.8446" lon="4.84184">
        <ele>367</ele>
        <time>2021-08-14T10:17:11.000Z</time>
      </trkpt>
      <trkpt lat="49.84455" lon="4.84189">
        <ele>367</ele>
        <time>2021-08-14T10:17:12.000Z</time>
      </trkpt>
      <trkpt lat="49.84451" lon="4.84194">
        <ele>367</ele>
        <time>2021-08-14T10:17:13.000Z</time>
      </trkpt>
      <trkpt lat="49.84446" lon="4.84198">
        <ele>366</ele>
        <time>2021-08-14T10:17:14.000Z</time>
      </trkpt>
      <trkpt lat="49.84443" lon="4.84202">
        <ele>366</ele>
        <time>2021-08-14T10:17:15.000Z</time>
      </trkpt>
      <trkpt lat="49.84439" lon="4.84206">
        <ele>366</ele>
        <time>2021-08-14T10:17:16.000Z</time>
      </trkpt>
      <trkpt lat="49.84435" lon="4.8421">
        <ele>366</ele>
        <time>2021-08-14T10:17:17.000Z</time>
      </trkpt>
      <trkpt lat="49.84432" lon="4.84213">
        <ele>366</ele>
        <time>2021-08-14T10:17:18.000Z</time>
      </trkpt>
      <trkpt lat="49.84428" lon="4.84215">
        <ele>365</ele>
        <time>2021-08-14T10:17:19.000Z</time>
      </trkpt>
      <trkpt lat="49.84424" lon="4.84218">
        <ele>365</ele>
        <time>2021-08-14T10:17:20.000Z</time>
      </trkpt>
      <trkpt lat="49.8442" lon="4.84221">
        <ele>365</ele>
        <time>2021-08-14T10:17:21.000Z</time>
      </trkpt>
      <trkpt lat="49.84416" lon="4.84223">
        <ele>365</ele>
        <time>2021-08-14T10:17:22.000Z</time>
      </trkpt>
      <trkpt lat="49.84412" lon="4.84225">
        <ele>365</ele>
        <time>2021-08-14T10:17:23.000Z</time>
      </trkpt>
      <trkpt lat="49.84407" lon="4.84227">
        <ele>365</ele>
        <time>2021-08-14T10:17:24.000Z</time>
      </trkpt>
      <trkpt lat="49.84403" lon="4.8423">
        <ele>364</ele>
        <time>2021-08-14T10:17:25.000Z</time>
      </trkpt>
      <trkpt lat="49.84399" lon="4.84232">
        <ele>364</ele>
        <time>2021-08-14T10:17:26.000Z</time>
      </trkpt>
      <trkpt lat="49.84395" lon="4.84236">
        <ele>364</ele>
        <time>2021-08-14T10:17:27.000Z</time>
      </trkpt>
      <trkpt lat="49.84392" lon="4.84239">
        <ele>364</ele>
        <time>2021-08-14T10:17:28.000Z</time>
      </trkpt>
      <trkpt lat="49.84388" lon="4.8424">
        <ele>364</ele>
        <time>2021-08-14T10:17:29.000Z</time>
      </trkpt>
      <trkpt lat="49.84384" lon="4.84241">
        <ele>364</ele>
        <time>2021-08-14T10:17:30.000Z</time>
      </trkpt>
      <trkpt lat="49.8438" lon="4.84241">
        <ele>364</ele>
        <time>2021-08-14T10:17:31.000Z</time>
      </trkpt>
      <trkpt lat="49.84375" lon="4.84242">
        <ele>364</ele>
        <time>2021-08-14T10:17:32.000Z</time>
      </trkpt>
      <trkpt lat="49.84371" lon="4.84243">
        <ele>363</ele>
        <time>2021-08-14T10:17:33.000Z</time>
      </trkpt>
      <trkpt lat="49.84366" lon="4.84245">
        <ele>363</ele>
        <time>2021-08-14T10:17:34.000Z</time>
      </trkpt>
      <trkpt lat="49.84362" lon="4.84245">
        <ele>363</ele>
        <time>2021-08-14T10:17:35.000Z</time>
      </trkpt>
      <trkpt lat="49.84356" lon="4.84246">
        <ele>363</ele>
        <time>2021-08-14T10:17:36.000Z</time>
      </trkpt>
      <trkpt lat="49.84351" lon="4.84247">
        <ele>362</ele>
        <time>2021-08-14T10:17:37.000Z</time>
      </trkpt>
      <trkpt lat="49.84346" lon="4.84248">
        <ele>362</ele>
        <time>2021-08-14T10:17:38.000Z</time>
      </trkpt>
      <trkpt lat="49.84342" lon="4.84248">
        <ele>362</ele>
        <time>2021-08-14T10:17:39.000Z</time>
      </trkpt>
      <trkpt lat="49.84337" lon="4.84248">
        <ele>362</ele>
        <time>2021-08-14T10:17:40.000Z</time>
      </trkpt>
      <trkpt lat="49.84333" lon="4.84249">
        <ele>362</ele>
        <time>2021-08-14T10:17:41.000Z</time>
      </trkpt>
      <trkpt lat="49.84329" lon="4.8425">
        <ele>361</ele>
        <time>2021-08-14T10:17:42.000Z</time>
      </trkpt>
      <trkpt lat="49.84325" lon="4.84252">
        <ele>361</ele>
        <time>2021-08-14T10:17:43.000Z</time>
      </trkpt>
      <trkpt lat="49.84321" lon="4.84254">
        <ele>361</ele>
        <time>2021-08-14T10:17:44.000Z</time>
      </trkpt>
      <trkpt lat="49.84317" lon="4.84256">
        <ele>361</ele>
        <time>2021-08-14T10:17:45.000Z</time>
      </trkpt>
      <trkpt lat="49.84313" lon="4.84258">
        <ele>361</ele>
        <time>2021-08-14T10:17:46.000Z</time>
      </trkpt>
      <trkpt lat="49.84309" lon="4.8426">
        <ele>361</ele>
        <time>2021-08-14T10:17:47.000Z</time>
      </trkpt>
      <trkpt lat="49.84305" lon="4.84262">
        <ele>361</ele>
        <time>2021-08-14T10:17:48.000Z</time>
      </trkpt>
      <trkpt lat="49.84301" lon="4.84264">
        <ele>360</ele>
        <time>2021-08-14T10:17:49.000Z</time>
      </trkpt>
      <trkpt lat="49.84297" lon="4.84266">
        <ele>360</ele>
        <time>2021-08-14T10:17:50.000Z</time>
      </trkpt>
      <trkpt lat="49.84295" lon="4.84267">
        <ele>360</ele>
        <time>2021-08-14T10:17:51.000Z</time>
      </trkpt>
      <trkpt lat="49.84292" lon="4.84268">
        <ele>360</ele>
        <time>2021-08-14T10:17:52.000Z</time>
      </trkpt>
      <trkpt lat="49.84289" lon="4.84269">
        <ele>360</ele>
        <time>2021-08-14T10:17:53.000Z</time>
      </trkpt>
      <trkpt lat="49.84286" lon="4.84271">
        <ele>360</ele>
        <time>2021-08-14T10:17:54.000Z</time>
      </trkpt>
      <trkpt lat="49.84282" lon="4.84274">
        <ele>360</ele>
        <time>2021-08-14T10:17:55.000Z</time>
      </trkpt>
      <trkpt lat="49.84278" lon="4.84276">
        <ele>360</ele>
        <time>2021-08-14T10:17:56.000Z</time>
      </trkpt>
      <trkpt lat="49.84273" lon="4.8428">
        <ele>360</ele>
        <time>2021-08-14T10:17:57.000Z</time>
      </trkpt>
      <trkpt lat="49.84268" lon="4.84286">
        <ele>360</ele>
        <time>2021-08-14T10:17:58.000Z</time>
      </trkpt>
      <trkpt lat="49.84264" lon="4.84292">
        <ele>359</ele>
        <time>2021-08-14T10:17:59.000Z</time>
      </trkpt>
      <trkpt lat="49.84261" lon="4.84298">
        <ele>359</ele>
        <time>2021-08-14T10:18:00.000Z</time>
      </trkpt>
      <trkpt lat="49.84257" lon="4.84303">
        <ele>359</ele>
        <time>2021-08-14T10:18:01.000Z</time>
      </trkpt>
      <trkpt lat="49.84252" lon="4.84307">
        <ele>359</ele>
        <time>2021-08-14T10:18:02.000Z</time>
      </trkpt>
      <trkpt lat="49.84248" lon="4.8431">
        <ele>360</ele>
        <time>2021-08-14T10:18:03.000Z</time>
      </trkpt>
      <trkpt lat="49.84242" lon="4.84311">
        <ele>360</ele>
        <time>2021-08-14T10:18:04.000Z</time>
      </trkpt>
      <trkpt lat="49.84237" lon="4.84311">
        <ele>360</ele>
        <time>2021-08-14T10:18:05.000Z</time>
      </trkpt>
      <trkpt lat="49.84231" lon="4.84311">
        <ele>360</ele>
        <time>2021-08-14T10:18:06.000Z</time>
      </trkpt>
      <trkpt lat="49.84225" lon="4.84311">
        <ele>360</ele>
        <time>2021-08-14T10:18:07.000Z</time>
      </trkpt>
      <trkpt lat="49.84219" lon="4.84311">
        <ele>360</ele>
        <time>2021-08-14T10:18:08.000Z</time>
      </trkpt>
      <trkpt lat="49.84213" lon="4.84311">
        <ele>360</ele>
        <time>2021-08-14T10:18:09.000Z</time>
      </trkpt>
      <trkpt lat="49.84207" lon="4.84311">
        <ele>360</ele>
        <time>2021-08-14T10:18:10.000Z</time>
      </trkpt>
      <trkpt lat="49.84201" lon="4.84311">
        <ele>360</ele>
        <time>2021-08-14T10:18:11.000Z</time>
      </trkpt>
      <trkpt lat="49.84196" lon="4.84312">
        <ele>360</ele>
        <time>2021-08-14T10:18:12.000Z</time>
      </trkpt>
      <trkpt lat="49.8419" lon="4.84312">
        <ele>360</ele>
        <time>2021-08-14T10:18:13.000Z</time>
      </trkpt>
      <trkpt lat="49.84184" lon="4.84311">
        <ele>360</ele>
        <time>2021-08-14T10:18:14.000Z</time>
      </trkpt>
      <trkpt lat="49.84177" lon="4.84311">
        <ele>360</ele>
        <time>2021-08-14T10:18:15.000Z</time>
      </trkpt>
      <trkpt lat="49.84171" lon="4.8431">
        <ele>360</ele>
        <time>2021-08-14T10:18:16.000Z</time>
      </trkpt>
      <trkpt lat="49.84164" lon="4.84309">
        <ele>360</ele>
        <time>2021-08-14T10:18:17.000Z</time>
      </trkpt>
      <trkpt lat="49.84158" lon="4.84309">
        <ele>360</ele>
        <time>2021-08-14T10:18:18.000Z</time>
      </trkpt>
      <trkpt lat="49.84151" lon="4.84308">
        <ele>359</ele>
        <time>2021-08-14T10:18:19.000Z</time>
      </trkpt>
      <trkpt lat="49.84145" lon="4.84307">
        <ele>359</ele>
        <time>2021-08-14T10:18:20.000Z</time>
      </trkpt>
      <trkpt lat="49.84139" lon="4.84306">
        <ele>359</ele>
        <time>2021-08-14T10:18:21.000Z</time>
      </trkpt>
      <trkpt lat="49.84133" lon="4.84305">
        <ele>359</ele>
        <time>2021-08-14T10:18:22.000Z</time>
      </trkpt>
      <trkpt lat="49.84127" lon="4.84303">
        <ele>359</ele>
        <time>2021-08-14T10:18:23.000Z</time>
      </trkpt>
      <trkpt lat="49.84121" lon="4.84302">
        <ele>359</ele>
        <time>2021-08-14T10:18:24.000Z</time>
      </trkpt>
      <trkpt lat="49.84115" lon="4.84301">
        <ele>359</ele>
        <time>2021-08-14T10:18:25.000Z</time>
      </trkpt>
      <trkpt lat="49.84109" lon="4.84301">
        <ele>359</ele>
        <time>2021-08-14T10:18:26.000Z</time>
      </trkpt>
      <trkpt lat="49.84103" lon="4.843">
        <ele>359</ele>
        <time>2021-08-14T10:18:27.000Z</time>
      </trkpt>
      <trkpt lat="49.84096" lon="4.84299">
        <ele>358</ele>
        <time>2021-08-14T10:18:28.000Z</time>
      </trkpt>
      <trkpt lat="49.84091" lon="4.84297">
        <ele>358</ele>
        <time>2021-08-14T10:18:29.000Z</time>
      </trkpt>
      <trkpt lat="49.84085" lon="4.84296">
        <ele>358</ele>
        <time>2021-08-14T10:18:30.000Z</time>
      </trkpt>
      <trkpt lat="49.84078" lon="4.84294">
        <ele>358</ele>
        <time>2021-08-14T10:18:31.000Z</time>
      </trkpt>
      <trkpt lat="49.84072" lon="4.84292">
        <ele>358</ele>
        <time>2021-08-14T10:18:32.000Z</time>
      </trkpt>
      <trkpt lat="49.84066" lon="4.84291">
        <ele>358</ele>
        <time>2021-08-14T10:18:33.000Z</time>
      </trkpt>
      <trkpt lat="49.8406" lon="4.8429">
        <ele>357</ele>
        <time>2021-08-14T10:18:34.000Z</time>
      </trkpt>
      <trkpt lat="49.84053" lon="4.84289">
        <ele>357</ele>
        <time>2021-08-14T10:18:35.000Z</time>
      </trkpt>
      <trkpt lat="49.84048" lon="4.84288">
        <ele>357</ele>
        <time>2021-08-14T10:18:36.000Z</time>
      </trkpt>
      <trkpt lat="49.84042" lon="4.84286">
        <ele>357</ele>
        <time>2021-08-14T10:18:37.000Z</time>
      </trkpt>
      <trkpt lat="49.84036" lon="4.84284">
        <ele>357</ele>
        <time>2021-08-14T10:18:38.000Z</time>
      </trkpt>
      <trkpt lat="49.84029" lon="4.84283">
        <ele>356</ele>
        <time>2021-08-14T10:18:39.000Z</time>
      </trkpt>
      <trkpt lat="49.84023" lon="4.84281">
        <ele>356</ele>
        <time>2021-08-14T10:18:40.000Z</time>
      </trkpt>
      <trkpt lat="49.84016" lon="4.84279">
        <ele>356</ele>
        <time>2021-08-14T10:18:41.000Z</time>
      </trkpt>
      <trkpt lat="49.8401" lon="4.84278">
        <ele>356</ele>
        <time>2021-08-14T10:18:42.000Z</time>
      </trkpt>
      <trkpt lat="49.84003" lon="4.84276">
        <ele>356</ele>
        <time>2021-08-14T10:18:43.000Z</time>
      </trkpt>
      <trkpt lat="49.83997" lon="4.84275">
        <ele>356</ele>
        <time>2021-08-14T10:18:44.000Z</time>
      </trkpt>
      <trkpt lat="49.8399" lon="4.84274">
        <ele>356</ele>
        <time>2021-08-14T10:18:45.000Z</time>
      </trkpt>
      <trkpt lat="49.83983" lon="4.84273">
        <ele>355</ele>
        <time>2021-08-14T10:18:46.000Z</time>
      </trkpt>
      <trkpt lat="49.83977" lon="4.84272">
        <ele>355</ele>
        <time>2021-08-14T10:18:47.000Z</time>
      </trkpt>
      <trkpt lat="49.8397" lon="4.8427">
        <ele>355</ele>
        <time>2021-08-14T10:18:48.000Z</time>
      </trkpt>
      <trkpt lat="49.83964" lon="4.84267">
        <ele>355</ele>
        <time>2021-08-14T10:18:49.000Z</time>
      </trkpt>
      <trkpt lat="49.83957" lon="4.84265">
        <ele>355</ele>
        <time>2021-08-14T10:18:50.000Z</time>
      </trkpt>
      <trkpt lat="49.83951" lon="4.84264">
        <ele>355</ele>
        <time>2021-08-14T10:18:51.000Z</time>
      </trkpt>
      <trkpt lat="49.83945" lon="4.84262">
        <ele>355</ele>
        <time>2021-08-14T10:18:52.000Z</time>
      </trkpt>
      <trkpt lat="49.83938" lon="4.84261">
        <ele>355</ele>
        <time>2021-08-14T10:18:53.000Z</time>
      </trkpt>
      <trkpt lat="49.83931" lon="4.84259">
        <ele>355</ele>
        <time>2021-08-14T10:18:54.000Z</time>
      </trkpt>
      <trkpt lat="49.83924" lon="4.84257">
        <ele>354</ele>
        <time>2021-08-14T10:18:55.000Z</time>
      </trkpt>
      <trkpt lat="49.83916" lon="4.84255">
        <ele>354</ele>
        <time>2021-08-14T10:18:56.000Z</time>
      </trkpt>
      <trkpt lat="49.83908" lon="4.84254">
        <ele>354</ele>
        <time>2021-08-14T10:18:57.000Z</time>
      </trkpt>
      <trkpt lat="49.839" lon="4.84252">
        <ele>354</ele>
        <time>2021-08-14T10:18:58.000Z</time>
      </trkpt>
      <trkpt lat="49.83893" lon="4.8425">
        <ele>354</ele>
        <time>2021-08-14T10:18:59.000Z</time>
      </trkpt>
      <trkpt lat="49.83885" lon="4.84249">
        <ele>354</ele>
        <time>2021-08-14T10:19:00.000Z</time>
      </trkpt>
      <trkpt lat="49.83877" lon="4.84247">
        <ele>353</ele>
        <time>2021-08-14T10:19:01.000Z</time>
      </trkpt>
      <trkpt lat="49.8387" lon="4.84245">
        <ele>353</ele>
        <time>2021-08-14T10:19:02.000Z</time>
      </trkpt>
      <trkpt lat="49.83863" lon="4.84243">
        <ele>353</ele>
        <time>2021-08-14T10:19:03.000Z</time>
      </trkpt>
      <trkpt lat="49.83856" lon="4.84242">
        <ele>353</ele>
        <time>2021-08-14T10:19:04.000Z</time>
      </trkpt>
      <trkpt lat="49.8385" lon="4.84241">
        <ele>353</ele>
        <time>2021-08-14T10:19:05.000Z</time>
      </trkpt>
      <trkpt lat="49.83843" lon="4.8424">
        <ele>353</ele>
        <time>2021-08-14T10:19:06.000Z</time>
      </trkpt>
      <trkpt lat="49.83837" lon="4.84239">
        <ele>352</ele>
        <time>2021-08-14T10:19:07.000Z</time>
      </trkpt>
      <trkpt lat="49.83832" lon="4.84238">
        <ele>352</ele>
        <time>2021-08-14T10:19:08.000Z</time>
      </trkpt>
      <trkpt lat="49.83827" lon="4.84237">
        <ele>352</ele>
        <time>2021-08-14T10:19:09.000Z</time>
      </trkpt>
      <trkpt lat="49.83821" lon="4.84235">
        <ele>352</ele>
        <time>2021-08-14T10:19:10.000Z</time>
      </trkpt>
      <trkpt lat="49.83815" lon="4.84234">
        <ele>352</ele>
        <time>2021-08-14T10:19:11.000Z</time>
      </trkpt>
      <trkpt lat="49.83808" lon="4.84232">
        <ele>352</ele>
        <time>2021-08-14T10:19:12.000Z</time>
      </trkpt>
      <trkpt lat="49.83803" lon="4.84232">
        <ele>352</ele>
        <time>2021-08-14T10:19:13.000Z</time>
      </trkpt>
      <trkpt lat="49.83798" lon="4.8423">
        <ele>352</ele>
        <time>2021-08-14T10:19:14.000Z</time>
      </trkpt>
      <trkpt lat="49.83792" lon="4.84229">
        <ele>352</ele>
        <time>2021-08-14T10:19:15.000Z</time>
      </trkpt>
      <trkpt lat="49.83787" lon="4.84228">
        <ele>352</ele>
        <time>2021-08-14T10:19:16.000Z</time>
      </trkpt>
      <trkpt lat="49.83783" lon="4.84227">
        <ele>353</ele>
        <time>2021-08-14T10:19:17.000Z</time>
      </trkpt>
      <trkpt lat="49.83778" lon="4.84226">
        <ele>353</ele>
        <time>2021-08-14T10:19:18.000Z</time>
      </trkpt>
      <trkpt lat="49.83774" lon="4.84225">
        <ele>353</ele>
        <time>2021-08-14T10:19:19.000Z</time>
      </trkpt>
      <trkpt lat="49.83769" lon="4.84224">
        <ele>353</ele>
        <time>2021-08-14T10:19:20.000Z</time>
      </trkpt>
      <trkpt lat="49.83765" lon="4.84223">
        <ele>353</ele>
        <time>2021-08-14T10:19:21.000Z</time>
      </trkpt>
      <trkpt lat="49.83761" lon="4.84223">
        <ele>353</ele>
        <time>2021-08-14T10:19:22.000Z</time>
      </trkpt>
      <trkpt lat="49.83759" lon="4.84223">
        <ele>353</ele>
        <time>2021-08-14T10:19:23.000Z</time>
      </trkpt>
      <trkpt lat="49.83756" lon="4.84222">
        <ele>354</ele>
        <time>2021-08-14T10:19:24.000Z</time>
      </trkpt>
      <trkpt lat="49.83752" lon="4.84221">
        <ele>354</ele>
        <time>2021-08-14T10:19:25.000Z</time>
      </trkpt>
      <trkpt lat="49.83748" lon="4.84221">
        <ele>354</ele>
        <time>2021-08-14T10:19:26.000Z</time>
      </trkpt>
      <trkpt lat="49.83745" lon="4.84219">
        <ele>354</ele>
        <time>2021-08-14T10:19:27.000Z</time>
      </trkpt>
      <trkpt lat="49.83741" lon="4.84219">
        <ele>354</ele>
        <time>2021-08-14T10:19:28.000Z</time>
      </trkpt>
      <trkpt lat="49.83736" lon="4.84218">
        <ele>355</ele>
        <time>2021-08-14T10:19:29.000Z</time>
      </trkpt>
      <trkpt lat="49.83732" lon="4.84217">
        <ele>355</ele>
        <time>2021-08-14T10:19:30.000Z</time>
      </trkpt>
      <trkpt lat="49.83728" lon="4.84216">
        <ele>355</ele>
        <time>2021-08-14T10:19:31.000Z</time>
      </trkpt>
      <trkpt lat="49.83724" lon="4.84215">
        <ele>355</ele>
        <time>2021-08-14T10:19:32.000Z</time>
      </trkpt>
      <trkpt lat="49.8372" lon="4.84215">
        <ele>356</ele>
        <time>2021-08-14T10:19:33.000Z</time>
      </trkpt>
      <trkpt lat="49.83716" lon="4.84214">
        <ele>356</ele>
        <time>2021-08-14T10:19:34.000Z</time>
      </trkpt>
      <trkpt lat="49.83711" lon="4.84213">
        <ele>356</ele>
        <time>2021-08-14T10:19:35.000Z</time>
      </trkpt>
      <trkpt lat="49.83707" lon="4.84212">
        <ele>356</ele>
        <time>2021-08-14T10:19:36.000Z</time>
      </trkpt>
      <trkpt lat="49.83703" lon="4.84212">
        <ele>357</ele>
        <time>2021-08-14T10:19:37.000Z</time>
      </trkpt>
      <trkpt lat="49.83699" lon="4.84211">
        <ele>357</ele>
        <time>2021-08-14T10:19:38.000Z</time>
      </trkpt>
      <trkpt lat="49.83695" lon="4.8421">
        <ele>357</ele>
        <time>2021-08-14T10:19:39.000Z</time>
      </trkpt>
      <trkpt lat="49.83691" lon="4.84209">
        <ele>357</ele>
        <time>2021-08-14T10:19:40.000Z</time>
      </trkpt>
      <trkpt lat="49.83688" lon="4.84208">
        <ele>358</ele>
        <time>2021-08-14T10:19:41.000Z</time>
      </trkpt>
      <trkpt lat="49.83685" lon="4.84207">
        <ele>358</ele>
        <time>2021-08-14T10:19:42.000Z</time>
      </trkpt>
      <trkpt lat="49.83682" lon="4.84206">
        <ele>358</ele>
        <time>2021-08-14T10:19:43.000Z</time>
      </trkpt>
      <trkpt lat="49.83678" lon="4.84205">
        <ele>358</ele>
        <time>2021-08-14T10:19:44.000Z</time>
      </trkpt>
      <trkpt lat="49.83674" lon="4.84205">
        <ele>358</ele>
        <time>2021-08-14T10:19:45.000Z</time>
      </trkpt>
      <trkpt lat="49.83672" lon="4.84204">
        <ele>359</ele>
        <time>2021-08-14T10:19:46.000Z</time>
      </trkpt>
      <trkpt lat="49.83669" lon="4.84204">
        <ele>359</ele>
        <time>2021-08-14T10:19:47.000Z</time>
      </trkpt>
      <trkpt lat="49.83666" lon="4.84205">
        <ele>359</ele>
        <time>2021-08-14T10:19:48.000Z</time>
      </trkpt>
      <trkpt lat="49.83664" lon="4.84206">
        <ele>359</ele>
        <time>2021-08-14T10:19:49.000Z</time>
      </trkpt>
      <trkpt lat="49.83662" lon="4.84207">
        <ele>359</ele>
        <time>2021-08-14T10:19:50.000Z</time>
      </trkpt>
      <trkpt lat="49.83659" lon="4.84209">
        <ele>360</ele>
        <time>2021-08-14T10:19:51.000Z</time>
      </trkpt>
      <trkpt lat="49.83656" lon="4.84212">
        <ele>360</ele>
        <time>2021-08-14T10:19:52.000Z</time>
      </trkpt>
      <trkpt lat="49.83653" lon="4.84216">
        <ele>360</ele>
        <time>2021-08-14T10:19:53.000Z</time>
      </trkpt>
      <trkpt lat="49.83649" lon="4.84221">
        <ele>360</ele>
        <time>2021-08-14T10:19:54.000Z</time>
      </trkpt>
      <trkpt lat="49.83645" lon="4.84227">
        <ele>360</ele>
        <time>2021-08-14T10:19:55.000Z</time>
      </trkpt>
      <trkpt lat="49.83641" lon="4.84235">
        <ele>360</ele>
        <time>2021-08-14T10:19:56.000Z</time>
      </trkpt>
      <trkpt lat="49.83638" lon="4.84242">
        <ele>360</ele>
        <time>2021-08-14T10:19:57.000Z</time>
      </trkpt>
      <trkpt lat="49.83634" lon="4.84252">
        <ele>360</ele>
        <time>2021-08-14T10:19:58.000Z</time>
      </trkpt>
      <trkpt lat="49.83631" lon="4.84261">
        <ele>360</ele>
        <time>2021-08-14T10:19:59.000Z</time>
      </trkpt>
      <trkpt lat="49.83627" lon="4.84271">
        <ele>359</ele>
        <time>2021-08-14T10:20:00.000Z</time>
      </trkpt>
      <trkpt lat="49.83622" lon="4.84281">
        <ele>359</ele>
        <time>2021-08-14T10:20:01.000Z</time>
      </trkpt>
      <trkpt lat="49.83618" lon="4.84293">
        <ele>359</ele>
        <time>2021-08-14T10:20:02.000Z</time>
      </trkpt>
      <trkpt lat="49.83614" lon="4.84304">
        <ele>359</ele>
        <time>2021-08-14T10:20:03.000Z</time>
      </trkpt>
      <trkpt lat="49.83611" lon="4.84314">
        <ele>359</ele>
        <time>2021-08-14T10:20:04.000Z</time>
      </trkpt>
      <trkpt lat="49.83607" lon="4.84324">
        <ele>358</ele>
        <time>2021-08-14T10:20:05.000Z</time>
      </trkpt>
      <trkpt lat="49.83603" lon="4.84334">
        <ele>358</ele>
        <time>2021-08-14T10:20:06.000Z</time>
      </trkpt>
      <trkpt lat="49.83601" lon="4.84344">
        <ele>358</ele>
        <time>2021-08-14T10:20:07.000Z</time>
      </trkpt>
      <trkpt lat="49.83598" lon="4.84355">
        <ele>357</ele>
        <time>2021-08-14T10:20:08.000Z</time>
      </trkpt>
      <trkpt lat="49.83595" lon="4.84367">
        <ele>357</ele>
        <time>2021-08-14T10:20:09.000Z</time>
      </trkpt>
      <trkpt lat="49.83593" lon="4.84378">
        <ele>357</ele>
        <time>2021-08-14T10:20:10.000Z</time>
      </trkpt>
      <trkpt lat="49.83591" lon="4.84389">
        <ele>356</ele>
        <time>2021-08-14T10:20:11.000Z</time>
      </trkpt>
      <trkpt lat="49.83588" lon="4.844">
        <ele>356</ele>
        <time>2021-08-14T10:20:12.000Z</time>
      </trkpt>
      <trkpt lat="49.83586" lon="4.84411">
        <ele>356</ele>
        <time>2021-08-14T10:20:13.000Z</time>
      </trkpt>
      <trkpt lat="49.83584" lon="4.84421">
        <ele>355</ele>
        <time>2021-08-14T10:20:14.000Z</time>
      </trkpt>
      <trkpt lat="49.83582" lon="4.8443">
        <ele>355</ele>
        <time>2021-08-14T10:20:15.000Z</time>
      </trkpt>
      <trkpt lat="49.8358" lon="4.8444">
        <ele>354</ele>
        <time>2021-08-14T10:20:16.000Z</time>
      </trkpt>
      <trkpt lat="49.83578" lon="4.84449">
        <ele>354</ele>
        <time>2021-08-14T10:20:17.000Z</time>
      </trkpt>
      <trkpt lat="49.83576" lon="4.84457">
        <ele>354</ele>
        <time>2021-08-14T10:20:18.000Z</time>
      </trkpt>
      <trkpt lat="49.83574" lon="4.84466">
        <ele>353</ele>
        <time>2021-08-14T10:20:19.000Z</time>
      </trkpt>
      <trkpt lat="49.83572" lon="4.84475">
        <ele>353</ele>
        <time>2021-08-14T10:20:20.000Z</time>
      </trkpt>
      <trkpt lat="49.83571" lon="4.84484">
        <ele>352</ele>
        <time>2021-08-14T10:20:21.000Z</time>
      </trkpt>
      <trkpt lat="49.8357" lon="4.84492">
        <ele>352</ele>
        <time>2021-08-14T10:20:22.000Z</time>
      </trkpt>
      <trkpt lat="49.83568" lon="4.845">
        <ele>351</ele>
        <time>2021-08-14T10:20:23.000Z</time>
      </trkpt>
      <trkpt lat="49.83567" lon="4.84509">
        <ele>351</ele>
        <time>2021-08-14T10:20:24.000Z</time>
      </trkpt>
      <trkpt lat="49.83565" lon="4.84517">
        <ele>350</ele>
        <time>2021-08-14T10:20:25.000Z</time>
      </trkpt>
      <trkpt lat="49.83563" lon="4.84526">
        <ele>350</ele>
        <time>2021-08-14T10:20:26.000Z</time>
      </trkpt>
      <trkpt lat="49.83562" lon="4.84535">
        <ele>350</ele>
        <time>2021-08-14T10:20:27.000Z</time>
      </trkpt>
      <trkpt lat="49.8356" lon="4.84544">
        <ele>349</ele>
        <time>2021-08-14T10:20:28.000Z</time>
      </trkpt>
      <trkpt lat="49.83558" lon="4.84553">
        <ele>349</ele>
        <time>2021-08-14T10:20:29.000Z</time>
      </trkpt>
      <trkpt lat="49.83556" lon="4.84561">
        <ele>349</ele>
        <time>2021-08-14T10:20:30.000Z</time>
      </trkpt>
      <trkpt lat="49.83555" lon="4.8457">
        <ele>349</ele>
        <time>2021-08-14T10:20:31.000Z</time>
      </trkpt>
      <trkpt lat="49.83553" lon="4.84578">
        <ele>348</ele>
        <time>2021-08-14T10:20:32.000Z</time>
      </trkpt>
      <trkpt lat="49.83551" lon="4.84587">
        <ele>348</ele>
        <time>2021-08-14T10:20:33.000Z</time>
      </trkpt>
      <trkpt lat="49.8355" lon="4.84595">
        <ele>348</ele>
        <time>2021-08-14T10:20:34.000Z</time>
      </trkpt>
      <trkpt lat="49.83548" lon="4.84604">
        <ele>348</ele>
        <time>2021-08-14T10:20:35.000Z</time>
      </trkpt>
      <trkpt lat="49.83547" lon="4.84613">
        <ele>348</ele>
        <time>2021-08-14T10:20:36.000Z</time>
      </trkpt>
      <trkpt lat="49.83545" lon="4.84621">
        <ele>348</ele>
        <time>2021-08-14T10:20:37.000Z</time>
      </trkpt>
      <trkpt lat="49.83544" lon="4.8463">
        <ele>347</ele>
        <time>2021-08-14T10:20:38.000Z</time>
      </trkpt>
      <trkpt lat="49.83542" lon="4.84638">
        <ele>347</ele>
        <time>2021-08-14T10:20:39.000Z</time>
      </trkpt>
      <trkpt lat="49.8354" lon="4.84646">
        <ele>347</ele>
        <time>2021-08-14T10:20:40.000Z</time>
      </trkpt>
      <trkpt lat="49.83539" lon="4.84654">
        <ele>347</ele>
        <time>2021-08-14T10:20:41.000Z</time>
      </trkpt>
      <trkpt lat="49.83537" lon="4.84663">
        <ele>347</ele>
        <time>2021-08-14T10:20:42.000Z</time>
      </trkpt>
      <trkpt lat="49.83536" lon="4.84671">
        <ele>347</ele>
        <time>2021-08-14T10:20:43.000Z</time>
      </trkpt>
      <trkpt lat="49.83534" lon="4.84679">
        <ele>347</ele>
        <time>2021-08-14T10:20:44.000Z</time>
      </trkpt>
      <trkpt lat="49.83533" lon="4.84687">
        <ele>347</ele>
        <time>2021-08-14T10:20:45.000Z</time>
      </trkpt>
      <trkpt lat="49.83531" lon="4.84695">
        <ele>347</ele>
        <time>2021-08-14T10:20:46.000Z</time>
      </trkpt>
      <trkpt lat="49.8353" lon="4.84703">
        <ele>347</ele>
        <time>2021-08-14T10:20:47.000Z</time>
      </trkpt>
      <trkpt lat="49.83528" lon="4.84711">
        <ele>347</ele>
        <time>2021-08-14T10:20:48.000Z</time>
      </trkpt>
      <trkpt lat="49.83527" lon="4.84719">
        <ele>347</ele>
        <time>2021-08-14T10:20:49.000Z</time>
      </trkpt>
      <trkpt lat="49.83525" lon="4.84726">
        <ele>346</ele>
        <time>2021-08-14T10:20:50.000Z</time>
      </trkpt>
      <trkpt lat="49.83524" lon="4.84734">
        <ele>346</ele>
        <time>2021-08-14T10:20:51.000Z</time>
      </trkpt>
      <trkpt lat="49.83523" lon="4.84742">
        <ele>346</ele>
        <time>2021-08-14T10:20:52.000Z</time>
      </trkpt>
      <trkpt lat="49.83522" lon="4.8475">
        <ele>346</ele>
        <time>2021-08-14T10:20:53.000Z</time>
      </trkpt>
      <trkpt lat="49.8352" lon="4.84758">
        <ele>346</ele>
        <time>2021-08-14T10:20:54.000Z</time>
      </trkpt>
      <trkpt lat="49.83519" lon="4.84766">
        <ele>346</ele>
        <time>2021-08-14T10:20:55.000Z</time>
      </trkpt>
      <trkpt lat="49.83518" lon="4.84774">
        <ele>346</ele>
        <time>2021-08-14T10:20:56.000Z</time>
      </trkpt>
      <trkpt lat="49.83516" lon="4.84782">
        <ele>346</ele>
        <time>2021-08-14T10:20:57.000Z</time>
      </trkpt>
      <trkpt lat="49.83515" lon="4.8479">
        <ele>346</ele>
        <time>2021-08-14T10:20:58.000Z</time>
      </trkpt>
      <trkpt lat="49.83514" lon="4.84798">
        <ele>346</ele>
        <time>2021-08-14T10:20:59.000Z</time>
      </trkpt>
      <trkpt lat="49.83513" lon="4.84805">
        <ele>346</ele>
        <time>2021-08-14T10:21:00.000Z</time>
      </trkpt>
      <trkpt lat="49.83512" lon="4.84813">
        <ele>346</ele>
        <time>2021-08-14T10:21:01.000Z</time>
      </trkpt>
      <trkpt lat="49.8351" lon="4.8482">
        <ele>346</ele>
        <time>2021-08-14T10:21:02.000Z</time>
      </trkpt>
      <trkpt lat="49.83509" lon="4.84828">
        <ele>346</ele>
        <time>2021-08-14T10:21:03.000Z</time>
      </trkpt>
      <trkpt lat="49.83508" lon="4.84835">
        <ele>346</ele>
        <time>2021-08-14T10:21:04.000Z</time>
      </trkpt>
      <trkpt lat="49.83506" lon="4.84843">
        <ele>346</ele>
        <time>2021-08-14T10:21:05.000Z</time>
      </trkpt>
      <trkpt lat="49.83505" lon="4.8485">
        <ele>346</ele>
        <time>2021-08-14T10:21:06.000Z</time>
      </trkpt>
      <trkpt lat="49.83503" lon="4.84858">
        <ele>346</ele>
        <time>2021-08-14T10:21:07.000Z</time>
      </trkpt>
      <trkpt lat="49.83502" lon="4.84865">
        <ele>346</ele>
        <time>2021-08-14T10:21:08.000Z</time>
      </trkpt>
      <trkpt lat="49.835" lon="4.84872">
        <ele>346</ele>
        <time>2021-08-14T10:21:09.000Z</time>
      </trkpt>
      <trkpt lat="49.83498" lon="4.84878">
        <ele>346</ele>
        <time>2021-08-14T10:21:10.000Z</time>
      </trkpt>
      <trkpt lat="49.83495" lon="4.84884">
        <ele>346</ele>
        <time>2021-08-14T10:21:11.000Z</time>
      </trkpt>
      <trkpt lat="49.83493" lon="4.8489">
        <ele>346</ele>
        <time>2021-08-14T10:21:12.000Z</time>
      </trkpt>
      <trkpt lat="49.8349" lon="4.84895">
        <ele>346</ele>
        <time>2021-08-14T10:21:13.000Z</time>
      </trkpt>
      <trkpt lat="49.83488" lon="4.84899">
        <ele>347</ele>
        <time>2021-08-14T10:21:14.000Z</time>
      </trkpt>
      <trkpt lat="49.83486" lon="4.84903">
        <ele>347</ele>
        <time>2021-08-14T10:21:15.000Z</time>
      </trkpt>
      <trkpt lat="49.83483" lon="4.84907">
        <ele>347</ele>
        <time>2021-08-14T10:21:16.000Z</time>
      </trkpt>
      <trkpt lat="49.8348" lon="4.84911">
        <ele>347</ele>
        <time>2021-08-14T10:21:17.000Z</time>
      </trkpt>
      <trkpt lat="49.83478" lon="4.84914">
        <ele>347</ele>
        <time>2021-08-14T10:21:18.000Z</time>
      </trkpt>
      <trkpt lat="49.83475" lon="4.84917">
        <ele>347</ele>
        <time>2021-08-14T10:21:19.000Z</time>
      </trkpt>
      <trkpt lat="49.83472" lon="4.8492">
        <ele>347</ele>
        <time>2021-08-14T10:21:20.000Z</time>
      </trkpt>
      <trkpt lat="49.83469" lon="4.84924">
        <ele>347</ele>
        <time>2021-08-14T10:21:21.000Z</time>
      </trkpt>
      <trkpt lat="49.83466" lon="4.84926">
        <ele>347</ele>
        <time>2021-08-14T10:21:22.000Z</time>
      </trkpt>
      <trkpt lat="49.83463" lon="4.8493">
        <ele>347</ele>
        <time>2021-08-14T10:21:23.000Z</time>
      </trkpt>
      <trkpt lat="49.8346" lon="4.84933">
        <ele>347</ele>
        <time>2021-08-14T10:21:24.000Z</time>
      </trkpt>
      <trkpt lat="49.83457" lon="4.84936">
        <ele>347</ele>
        <time>2021-08-14T10:21:25.000Z</time>
      </trkpt>
      <trkpt lat="49.83454" lon="4.84939">
        <ele>348</ele>
        <time>2021-08-14T10:21:26.000Z</time>
      </trkpt>
      <trkpt lat="49.83451" lon="4.84942">
        <ele>348</ele>
        <time>2021-08-14T10:21:27.000Z</time>
      </trkpt>
      <trkpt lat="49.83448" lon="4.84945">
        <ele>348</ele>
        <time>2021-08-14T10:21:28.000Z</time>
      </trkpt>
      <trkpt lat="49.83445" lon="4.84948">
        <ele>348</ele>
        <time>2021-08-14T10:21:29.000Z</time>
      </trkpt>
      <trkpt lat="49.83442" lon="4.84951">
        <ele>348</ele>
        <time>2021-08-14T10:21:30.000Z</time>
      </trkpt>
      <trkpt lat="49.83439" lon="4.84954">
        <ele>348</ele>
        <time>2021-08-14T10:21:31.000Z</time>
      </trkpt>
      <trkpt lat="49.83436" lon="4.84957">
        <ele>348</ele>
        <time>2021-08-14T10:21:32.000Z</time>
      </trkpt>
      <trkpt lat="49.83433" lon="4.84959">
        <ele>348</ele>
        <time>2021-08-14T10:21:33.000Z</time>
      </trkpt>
      <trkpt lat="49.8343" lon="4.84962">
        <ele>349</ele>
        <time>2021-08-14T10:21:34.000Z</time>
      </trkpt>
      <trkpt lat="49.83426" lon="4.84965">
        <ele>349</ele>
        <time>2021-08-14T10:21:35.000Z</time>
      </trkpt>
      <trkpt lat="49.83423" lon="4.84968">
        <ele>349</ele>
        <time>2021-08-14T10:21:36.000Z</time>
      </trkpt>
      <trkpt lat="49.8342" lon="4.84971">
        <ele>349</ele>
        <time>2021-08-14T10:21:37.000Z</time>
      </trkpt>
      <trkpt lat="49.83417" lon="4.84974">
        <ele>349</ele>
        <time>2021-08-14T10:21:38.000Z</time>
      </trkpt>
      <trkpt lat="49.83414" lon="4.84977">
        <ele>349</ele>
        <time>2021-08-14T10:21:39.000Z</time>
      </trkpt>
      <trkpt lat="49.83411" lon="4.8498">
        <ele>349</ele>
        <time>2021-08-14T10:21:40.000Z</time>
      </trkpt>
      <trkpt lat="49.83408" lon="4.84983">
        <ele>350</ele>
        <time>2021-08-14T10:21:41.000Z</time>
      </trkpt>
      <trkpt lat="49.83406" lon="4.84985">
        <ele>350</ele>
        <time>2021-08-14T10:21:42.000Z</time>
      </trkpt>
      <trkpt lat="49.83403" lon="4.84988">
        <ele>350</ele>
        <time>2021-08-14T10:21:43.000Z</time>
      </trkpt>
      <trkpt lat="49.834" lon="4.8499">
        <ele>350</ele>
        <time>2021-08-14T10:21:44.000Z</time>
      </trkpt>
      <trkpt lat="49.83397" lon="4.84993">
        <ele>350</ele>
        <time>2021-08-14T10:21:45.000Z</time>
      </trkpt>
      <trkpt lat="49.83394" lon="4.84996">
        <ele>350</ele>
        <time>2021-08-14T10:21:46.000Z</time>
      </trkpt>
      <trkpt lat="49.83391" lon="4.84999">
        <ele>350</ele>
        <time>2021-08-14T10:21:47.000Z</time>
      </trkpt>
      <trkpt lat="49.83388" lon="4.85001">
        <ele>351</ele>
        <time>2021-08-14T10:21:48.000Z</time>
      </trkpt>
      <trkpt lat="49.83385" lon="4.85004">
        <ele>351</ele>
        <time>2021-08-14T10:21:49.000Z</time>
      </trkpt>
      <trkpt lat="49.83382" lon="4.85007">
        <ele>351</ele>
        <time>2021-08-14T10:21:50.000Z</time>
      </trkpt>
      <trkpt lat="49.83379" lon="4.85009">
        <ele>351</ele>
        <time>2021-08-14T10:21:51.000Z</time>
      </trkpt>
      <trkpt lat="49.83376" lon="4.85012">
        <ele>351</ele>
        <time>2021-08-14T10:21:52.000Z</time>
      </trkpt>
      <trkpt lat="49.83374" lon="4.85014">
        <ele>352</ele>
        <time>2021-08-14T10:21:53.000Z</time>
      </trkpt>
      <trkpt lat="49.83371" lon="4.85017">
        <ele>352</ele>
        <time>2021-08-14T10:21:54.000Z</time>
      </trkpt>
      <trkpt lat="49.83368" lon="4.85019">
        <ele>352</ele>
        <time>2021-08-14T10:21:55.000Z</time>
      </trkpt>
      <trkpt lat="49.83365" lon="4.85022">
        <ele>352</ele>
        <time>2021-08-14T10:21:56.000Z</time>
      </trkpt>
      <trkpt lat="49.83362" lon="4.85024">
        <ele>352</ele>
        <time>2021-08-14T10:21:57.000Z</time>
      </trkpt>
      <trkpt lat="49.8336" lon="4.85026">
        <ele>352</ele>
        <time>2021-08-14T10:21:58.000Z</time>
      </trkpt>
      <trkpt lat="49.83357" lon="4.85028">
        <ele>353</ele>
        <time>2021-08-14T10:21:59.000Z</time>
      </trkpt>
      <trkpt lat="49.83355" lon="4.8503">
        <ele>353</ele>
        <time>2021-08-14T10:22:00.000Z</time>
      </trkpt>
      <trkpt lat="49.83353" lon="4.85031">
        <ele>353</ele>
        <time>2021-08-14T10:22:01.000Z</time>
      </trkpt>
      <trkpt lat="49.8335" lon="4.85033">
        <ele>353</ele>
        <time>2021-08-14T10:22:02.000Z</time>
      </trkpt>
      <trkpt lat="49.83348" lon="4.85034">
        <ele>353</ele>
        <time>2021-08-14T10:22:03.000Z</time>
      </trkpt>
      <trkpt lat="49.83345" lon="4.85036">
        <ele>353</ele>
        <time>2021-08-14T10:22:04.000Z</time>
      </trkpt>
      <trkpt lat="49.83343" lon="4.85037">
        <ele>353</ele>
        <time>2021-08-14T10:22:05.000Z</time>
      </trkpt>
      <trkpt lat="49.8334" lon="4.85039">
        <ele>354</ele>
        <time>2021-08-14T10:22:06.000Z</time>
      </trkpt>
      <trkpt lat="49.83338" lon="4.8504">
        <ele>354</ele>
        <time>2021-08-14T10:22:07.000Z</time>
      </trkpt>
      <trkpt lat="49.83335" lon="4.85041">
        <ele>354</ele>
        <time>2021-08-14T10:22:08.000Z</time>
      </trkpt>
      <trkpt lat="49.83333" lon="4.85042">
        <ele>354</ele>
        <time>2021-08-14T10:22:09.000Z</time>
      </trkpt>
      <trkpt lat="49.8333" lon="4.85043">
        <ele>355</ele>
        <time>2021-08-14T10:22:10.000Z</time>
      </trkpt>
      <trkpt lat="49.83328" lon="4.85044">
        <ele>355</ele>
        <time>2021-08-14T10:22:11.000Z</time>
      </trkpt>
      <trkpt lat="49.83326" lon="4.85044">
        <ele>355</ele>
        <time>2021-08-14T10:22:12.000Z</time>
      </trkpt>
      <trkpt lat="49.83323" lon="4.85045">
        <ele>356</ele>
        <time>2021-08-14T10:22:13.000Z</time>
      </trkpt>
      <trkpt lat="49.83321" lon="4.85046">
        <ele>356</ele>
        <time>2021-08-14T10:22:14.000Z</time>
      </trkpt>
      <trkpt lat="49.83318" lon="4.85046">
        <ele>356</ele>
        <time>2021-08-14T10:22:15.000Z</time>
      </trkpt>
      <trkpt lat="49.83315" lon="4.85047">
        <ele>357</ele>
        <time>2021-08-14T10:22:16.000Z</time>
      </trkpt>
      <trkpt lat="49.83311" lon="4.85048">
        <ele>357</ele>
        <time>2021-08-14T10:22:17.000Z</time>
      </trkpt>
      <trkpt lat="49.83308" lon="4.85048">
        <ele>357</ele>
        <time>2021-08-14T10:22:18.000Z</time>
      </trkpt>
      <trkpt lat="49.83304" lon="4.85049">
        <ele>357</ele>
        <time>2021-08-14T10:22:19.000Z</time>
      </trkpt>
      <trkpt lat="49.833" lon="4.85051">
        <ele>357</ele>
        <time>2021-08-14T10:22:20.000Z</time>
      </trkpt>
      <trkpt lat="49.83297" lon="4.85052">
        <ele>358</ele>
        <time>2021-08-14T10:22:21.000Z</time>
      </trkpt>
      <trkpt lat="49.83293" lon="4.85053">
        <ele>358</ele>
        <time>2021-08-14T10:22:22.000Z</time>
      </trkpt>
      <trkpt lat="49.8329" lon="4.85054">
        <ele>358</ele>
        <time>2021-08-14T10:22:23.000Z</time>
      </trkpt>
      <trkpt lat="49.83286" lon="4.85055">
        <ele>358</ele>
        <time>2021-08-14T10:22:24.000Z</time>
      </trkpt>
      <trkpt lat="49.83283" lon="4.85057">
        <ele>359</ele>
        <time>2021-08-14T10:22:25.000Z</time>
      </trkpt>
      <trkpt lat="49.8328" lon="4.85058">
        <ele>359</ele>
        <time>2021-08-14T10:22:26.000Z</time>
      </trkpt>
      <trkpt lat="49.83277" lon="4.85059">
        <ele>359</ele>
        <time>2021-08-14T10:22:27.000Z</time>
      </trkpt>
      <trkpt lat="49.83274" lon="4.8506">
        <ele>360</ele>
        <time>2021-08-14T10:22:28.000Z</time>
      </trkpt>
      <trkpt lat="49.83271" lon="4.85061">
        <ele>360</ele>
        <time>2021-08-14T10:22:29.000Z</time>
      </trkpt>
      <trkpt lat="49.83269" lon="4.85064">
        <ele>360</ele>
        <time>2021-08-14T10:22:30.000Z</time>
      </trkpt>
      <trkpt lat="49.83267" lon="4.85067">
        <ele>360</ele>
        <time>2021-08-14T10:22:31.000Z</time>
      </trkpt>
      <trkpt lat="49.83266" lon="4.85069">
        <ele>361</ele>
        <time>2021-08-14T10:22:32.000Z</time>
      </trkpt>
      <trkpt lat="49.83266" lon="4.85071">
        <ele>361</ele>
        <time>2021-08-14T10:22:33.000Z</time>
      </trkpt>
      <trkpt lat="49.83267" lon="4.85073">
        <ele>361</ele>
        <time>2021-08-14T10:22:34.000Z</time>
      </trkpt>
      <trkpt lat="49.8327" lon="4.85075">
        <ele>362</ele>
        <time>2021-08-14T10:22:35.000Z</time>
      </trkpt>
      <trkpt lat="49.83272" lon="4.85078">
        <ele>362</ele>
        <time>2021-08-14T10:22:36.000Z</time>
      </trkpt>
      <trkpt lat="49.83275" lon="4.8508">
        <ele>362</ele>
        <time>2021-08-14T10:22:37.000Z</time>
      </trkpt>
      <trkpt lat="49.83279" lon="4.85082">
        <ele>362</ele>
        <time>2021-08-14T10:22:38.000Z</time>
      </trkpt>
      <trkpt lat="49.83282" lon="4.85082">
        <ele>362</ele>
        <time>2021-08-14T10:22:39.000Z</time>
      </trkpt>
      <trkpt lat="49.83285" lon="4.85082">
        <ele>362</ele>
        <time>2021-08-14T10:22:40.000Z</time>
      </trkpt>
      <trkpt lat="49.83288" lon="4.85083">
        <ele>362</ele>
        <time>2021-08-14T10:22:41.000Z</time>
      </trkpt>
      <trkpt lat="49.8329" lon="4.85085">
        <ele>362</ele>
        <time>2021-08-14T10:22:42.000Z</time>
      </trkpt>
      <trkpt lat="49.83292" lon="4.85087">
        <ele>362</ele>
        <time>2021-08-14T10:22:43.000Z</time>
      </trkpt>
      <trkpt lat="49.83294" lon="4.85089">
        <ele>362</ele>
        <time>2021-08-14T10:22:44.000Z</time>
      </trkpt>
      <trkpt lat="49.83297" lon="4.8509">
        <ele>362</ele>
        <time>2021-08-14T10:22:45.000Z</time>
      </trkpt>
      <trkpt lat="49.833" lon="4.85092">
        <ele>362</ele>
        <time>2021-08-14T10:22:46.000Z</time>
      </trkpt>
      <trkpt lat="49.83303" lon="4.85094">
        <ele>362</ele>
        <time>2021-08-14T10:22:47.000Z</time>
      </trkpt>
      <trkpt lat="49.83307" lon="4.85096">
        <ele>362</ele>
        <time>2021-08-14T10:22:48.000Z</time>
      </trkpt>
      <trkpt lat="49.8331" lon="4.85098">
        <ele>362</ele>
        <time>2021-08-14T10:22:49.000Z</time>
      </trkpt>
      <trkpt lat="49.83315" lon="4.85101">
        <ele>362</ele>
        <time>2021-08-14T10:22:50.000Z</time>
      </trkpt>
      <trkpt lat="49.83319" lon="4.85104">
        <ele>362</ele>
        <time>2021-08-14T10:22:51.000Z</time>
      </trkpt>
      <trkpt lat="49.83323" lon="4.85108">
        <ele>362</ele>
        <time>2021-08-14T10:22:52.000Z</time>
      </trkpt>
      <trkpt lat="49.83327" lon="4.85112">
        <ele>362</ele>
        <time>2021-08-14T10:22:53.000Z</time>
      </trkpt>
      <trkpt lat="49.83331" lon="4.85115">
        <ele>362</ele>
        <time>2021-08-14T10:22:54.000Z</time>
      </trkpt>
      <trkpt lat="49.83335" lon="4.85119">
        <ele>362</ele>
        <time>2021-08-14T10:22:55.000Z</time>
      </trkpt>
      <trkpt lat="49.83339" lon="4.85124">
        <ele>362</ele>
        <time>2021-08-14T10:22:56.000Z</time>
      </trkpt>
      <trkpt lat="49.83343" lon="4.85128">
        <ele>361</ele>
        <time>2021-08-14T10:22:57.000Z</time>
      </trkpt>
      <trkpt lat="49.83346" lon="4.85134">
        <ele>361</ele>
        <time>2021-08-14T10:22:58.000Z</time>
      </trkpt>
      <trkpt lat="49.83349" lon="4.8514">
        <ele>361</ele>
        <time>2021-08-14T10:22:59.000Z</time>
      </trkpt>
      <trkpt lat="49.83351" lon="4.85146">
        <ele>361</ele>
        <time>2021-08-14T10:23:00.000Z</time>
      </trkpt>
      <trkpt lat="49.83352" lon="4.85151">
        <ele>361</ele>
        <time>2021-08-14T10:23:01.000Z</time>
      </trkpt>
      <trkpt lat="49.83352" lon="4.85156">
        <ele>361</ele>
        <time>2021-08-14T10:23:02.000Z</time>
      </trkpt>
      <trkpt lat="49.83352" lon="4.85161">
        <ele>361</ele>
        <time>2021-08-14T10:23:03.000Z</time>
      </trkpt>
      <trkpt lat="49.83352" lon="4.85166">
        <ele>361</ele>
        <time>2021-08-14T10:23:04.000Z</time>
      </trkpt>
      <trkpt lat="49.83351" lon="4.8517">
        <ele>361</ele>
        <time>2021-08-14T10:23:05.000Z</time>
      </trkpt>
      <trkpt lat="49.83349" lon="4.85175">
        <ele>361</ele>
        <time>2021-08-14T10:23:06.000Z</time>
      </trkpt>
      <trkpt lat="49.83347" lon="4.8518">
        <ele>361</ele>
        <time>2021-08-14T10:23:07.000Z</time>
      </trkpt>
      <trkpt lat="49.83344" lon="4.85185">
        <ele>361</ele>
        <time>2021-08-14T10:23:08.000Z</time>
      </trkpt>
      <trkpt lat="49.83341" lon="4.8519">
        <ele>361</ele>
        <time>2021-08-14T10:23:09.000Z</time>
      </trkpt>
      <trkpt lat="49.83338" lon="4.85196">
        <ele>360</ele>
        <time>2021-08-14T10:23:10.000Z</time>
      </trkpt>
      <trkpt lat="49.83335" lon="4.85202">
        <ele>360</ele>
        <time>2021-08-14T10:23:11.000Z</time>
      </trkpt>
      <trkpt lat="49.83332" lon="4.85207">
        <ele>360</ele>
        <time>2021-08-14T10:23:12.000Z</time>
      </trkpt>
      <trkpt lat="49.83329" lon="4.85212">
        <ele>360</ele>
        <time>2021-08-14T10:23:13.000Z</time>
      </trkpt>
      <trkpt lat="49.83326" lon="4.85218">
        <ele>360</ele>
        <time>2021-08-14T10:23:14.000Z</time>
      </trkpt>
      <trkpt lat="49.83323" lon="4.85224">
        <ele>360</ele>
        <time>2021-08-14T10:23:15.000Z</time>
      </trkpt>
      <trkpt lat="49.8332" lon="4.8523">
        <ele>360</ele>
        <time>2021-08-14T10:23:16.000Z</time>
      </trkpt>
      <trkpt lat="49.83317" lon="4.85236">
        <ele>360</ele>
        <time>2021-08-14T10:23:17.000Z</time>
      </trkpt>
      <trkpt lat="49.83313" lon="4.85241">
        <ele>360</ele>
        <time>2021-08-14T10:23:18.000Z</time>
      </trkpt>
      <trkpt lat="49.8331" lon="4.85245">
        <ele>360</ele>
        <time>2021-08-14T10:23:19.000Z</time>
      </trkpt>
      <trkpt lat="49.83308" lon="4.8525">
        <ele>360</ele>
        <time>2021-08-14T10:23:20.000Z</time>
      </trkpt>
      <trkpt lat="49.83305" lon="4.85254">
        <ele>360</ele>
        <time>2021-08-14T10:23:21.000Z</time>
      </trkpt>
      <trkpt lat="49.83303" lon="4.85259">
        <ele>360</ele>
        <time>2021-08-14T10:23:22.000Z</time>
      </trkpt>
      <trkpt lat="49.83301" lon="4.85264">
        <ele>360</ele>
        <time>2021-08-14T10:23:23.000Z</time>
      </trkpt>
      <trkpt lat="49.83299" lon="4.85269">
        <ele>360</ele>
        <time>2021-08-14T10:23:24.000Z</time>
      </trkpt>
      <trkpt lat="49.83296" lon="4.85273">
        <ele>360</ele>
        <time>2021-08-14T10:23:25.000Z</time>
      </trkpt>
      <trkpt lat="49.83294" lon="4.85277">
        <ele>360</ele>
        <time>2021-08-14T10:23:26.000Z</time>
      </trkpt>
      <trkpt lat="49.83292" lon="4.85282">
        <ele>360</ele>
        <time>2021-08-14T10:23:27.000Z</time>
      </trkpt>
      <trkpt lat="49.83289" lon="4.85287">
        <ele>360</ele>
        <time>2021-08-14T10:23:28.000Z</time>
      </trkpt>
      <trkpt lat="49.83287" lon="4.85292">
        <ele>360</ele>
        <time>2021-08-14T10:23:29.000Z</time>
      </trkpt>
      <trkpt lat="49.83284" lon="4.85297">
        <ele>360</ele>
        <time>2021-08-14T10:23:30.000Z</time>
      </trkpt>
      <trkpt lat="49.83282" lon="4.85301">
        <ele>360</ele>
        <time>2021-08-14T10:23:31.000Z</time>
      </trkpt>
      <trkpt lat="49.8328" lon="4.85306">
        <ele>360</ele>
        <time>2021-08-14T10:23:32.000Z</time>
      </trkpt>
      <trkpt lat="49.83277" lon="4.85311">
        <ele>360</ele>
        <time>2021-08-14T10:23:33.000Z</time>
      </trkpt>
      <trkpt lat="49.83274" lon="4.85314">
        <ele>360</ele>
        <time>2021-08-14T10:23:34.000Z</time>
      </trkpt>
      <trkpt lat="49.83272" lon="4.85318">
        <ele>360</ele>
        <time>2021-08-14T10:23:35.000Z</time>
      </trkpt>
      <trkpt lat="49.83269" lon="4.85322">
        <ele>360</ele>
        <time>2021-08-14T10:23:36.000Z</time>
      </trkpt>
      <trkpt lat="49.83267" lon="4.85326">
        <ele>360</ele>
        <time>2021-08-14T10:23:37.000Z</time>
      </trkpt>
      <trkpt lat="49.83266" lon="4.8533">
        <ele>360</ele>
        <time>2021-08-14T10:23:38.000Z</time>
      </trkpt>
      <trkpt lat="49.83263" lon="4.85334">
        <ele>360</ele>
        <time>2021-08-14T10:23:39.000Z</time>
      </trkpt>
      <trkpt lat="49.83261" lon="4.85337">
        <ele>360</ele>
        <time>2021-08-14T10:23:40.000Z</time>
      </trkpt>
      <trkpt lat="49.83258" lon="4.8534">
        <ele>360</ele>
        <time>2021-08-14T10:23:41.000Z</time>
      </trkpt>
      <trkpt lat="49.83256" lon="4.85341">
        <ele>360</ele>
        <time>2021-08-14T10:23:42.000Z</time>
      </trkpt>
      <trkpt lat="49.83255" lon="4.85342">
        <ele>360</ele>
        <time>2021-08-14T10:23:43.000Z</time>
      </trkpt>
      <trkpt lat="49.83254" lon="4.85342">
        <ele>360</ele>
        <time>2021-08-14T10:23:44.000Z</time>
      </trkpt>
      <trkpt lat="49.83253" lon="4.85343">
        <ele>360</ele>
        <time>2021-08-14T10:23:45.000Z</time>
      </trkpt>
      <trkpt lat="49.83252" lon="4.85345">
        <ele>360</ele>
        <time>2021-08-14T10:23:46.000Z</time>
      </trkpt>
      <trkpt lat="49.8325" lon="4.85346">
        <ele>360</ele>
        <time>2021-08-14T10:23:47.000Z</time>
      </trkpt>
      <trkpt lat="49.83249" lon="4.85348">
        <ele>360</ele>
        <time>2021-08-14T10:23:48.000Z</time>
      </trkpt>
      <trkpt lat="49.83248" lon="4.85351">
        <ele>360</ele>
        <time>2021-08-14T10:23:49.000Z</time>
      </trkpt>
      <trkpt lat="49.83247" lon="4.85355">
        <ele>360</ele>
        <time>2021-08-14T10:23:50.000Z</time>
      </trkpt>
      <trkpt lat="49.83246" lon="4.85359">
        <ele>360</ele>
        <time>2021-08-14T10:23:51.000Z</time>
      </trkpt>
      <trkpt lat="49.83244" lon="4.85363">
        <ele>360</ele>
        <time>2021-08-14T10:23:52.000Z</time>
      </trkpt>
      <trkpt lat="49.83243" lon="4.85368">
        <ele>360</ele>
        <time>2021-08-14T10:23:53.000Z</time>
      </trkpt>
      <trkpt lat="49.83241" lon="4.85373">
        <ele>360</ele>
        <time>2021-08-14T10:23:54.000Z</time>
      </trkpt>
      <trkpt lat="49.83239" lon="4.85377">
        <ele>360</ele>
        <time>2021-08-14T10:23:55.000Z</time>
      </trkpt>
      <trkpt lat="49.83237" lon="4.85381">
        <ele>360</ele>
        <time>2021-08-14T10:23:56.000Z</time>
      </trkpt>
      <trkpt lat="49.83235" lon="4.85385">
        <ele>360</ele>
        <time>2021-08-14T10:23:57.000Z</time>
      </trkpt>
      <trkpt lat="49.83232" lon="4.85389">
        <ele>360</ele>
        <time>2021-08-14T10:23:58.000Z</time>
      </trkpt>
      <trkpt lat="49.8323" lon="4.85395">
        <ele>360</ele>
        <time>2021-08-14T10:23:59.000Z</time>
      </trkpt>
      <trkpt lat="49.83228" lon="4.854">
        <ele>359</ele>
        <time>2021-08-14T10:24:00.000Z</time>
      </trkpt>
      <trkpt lat="49.83225" lon="4.85406">
        <ele>359</ele>
        <time>2021-08-14T10:24:01.000Z</time>
      </trkpt>
      <trkpt lat="49.83222" lon="4.85413">
        <ele>359</ele>
        <time>2021-08-14T10:24:02.000Z</time>
      </trkpt>
      <trkpt lat="49.83219" lon="4.85419">
        <ele>359</ele>
        <time>2021-08-14T10:24:03.000Z</time>
      </trkpt>
      <trkpt lat="49.83215" lon="4.85426">
        <ele>359</ele>
        <time>2021-08-14T10:24:04.000Z</time>
      </trkpt>
      <trkpt lat="49.83212" lon="4.85432">
        <ele>358</ele>
        <time>2021-08-14T10:24:05.000Z</time>
      </trkpt>
      <trkpt lat="49.83209" lon="4.85439">
        <ele>358</ele>
        <time>2021-08-14T10:24:06.000Z</time>
      </trkpt>
      <trkpt lat="49.83205" lon="4.85446">
        <ele>358</ele>
        <time>2021-08-14T10:24:07.000Z</time>
      </trkpt>
      <trkpt lat="49.83201" lon="4.85451">
        <ele>358</ele>
        <time>2021-08-14T10:24:08.000Z</time>
      </trkpt>
      <trkpt lat="49.83199" lon="4.85458">
        <ele>357</ele>
        <time>2021-08-14T10:24:09.000Z</time>
      </trkpt>
      <trkpt lat="49.83195" lon="4.85465">
        <ele>357</ele>
        <time>2021-08-14T10:24:10.000Z</time>
      </trkpt>
      <trkpt lat="49.83192" lon="4.85472">
        <ele>357</ele>
        <time>2021-08-14T10:24:11.000Z</time>
      </trkpt>
      <trkpt lat="49.83189" lon="4.85479">
        <ele>356</ele>
        <time>2021-08-14T10:24:12.000Z</time>
      </trkpt>
      <trkpt lat="49.83186" lon="4.85485">
        <ele>356</ele>
        <time>2021-08-14T10:24:13.000Z</time>
      </trkpt>
      <trkpt lat="49.83184" lon="4.85489">
        <ele>355</ele>
        <time>2021-08-14T10:24:14.000Z</time>
      </trkpt>
      <trkpt lat="49.83181" lon="4.85493">
        <ele>355</ele>
        <time>2021-08-14T10:24:15.000Z</time>
      </trkpt>
      <trkpt lat="49.83179" lon="4.85499">
        <ele>354</ele>
        <time>2021-08-14T10:24:16.000Z</time>
      </trkpt>
      <trkpt lat="49.83175" lon="4.85507">
        <ele>354</ele>
        <time>2021-08-14T10:24:17.000Z</time>
      </trkpt>
      <trkpt lat="49.83172" lon="4.85514">
        <ele>353</ele>
        <time>2021-08-14T10:24:18.000Z</time>
      </trkpt>
      <trkpt lat="49.83168" lon="4.8552">
        <ele>353</ele>
        <time>2021-08-14T10:24:19.000Z</time>
      </trkpt>
      <trkpt lat="49.83165" lon="4.85527">
        <ele>352</ele>
        <time>2021-08-14T10:24:20.000Z</time>
      </trkpt>
      <trkpt lat="49.83162" lon="4.85533">
        <ele>352</ele>
        <time>2021-08-14T10:24:21.000Z</time>
      </trkpt>
      <trkpt lat="49.83158" lon="4.85539">
        <ele>352</ele>
        <time>2021-08-14T10:24:22.000Z</time>
      </trkpt>
      <trkpt lat="49.83155" lon="4.85545">
        <ele>351</ele>
        <time>2021-08-14T10:24:23.000Z</time>
      </trkpt>
      <trkpt lat="49.83151" lon="4.8555">
        <ele>351</ele>
        <time>2021-08-14T10:24:24.000Z</time>
      </trkpt>
      <trkpt lat="49.83148" lon="4.85556">
        <ele>351</ele>
        <time>2021-08-14T10:24:25.000Z</time>
      </trkpt>
      <trkpt lat="49.83146" lon="4.85561">
        <ele>350</ele>
        <time>2021-08-14T10:24:26.000Z</time>
      </trkpt>
      <trkpt lat="49.83144" lon="4.85566">
        <ele>350</ele>
        <time>2021-08-14T10:24:27.000Z</time>
      </trkpt>
      <trkpt lat="49.83141" lon="4.85571">
        <ele>350</ele>
        <time>2021-08-14T10:24:28.000Z</time>
      </trkpt>
      <trkpt lat="49.83138" lon="4.85577">
        <ele>349</ele>
        <time>2021-08-14T10:24:29.000Z</time>
      </trkpt>
      <trkpt lat="49.83135" lon="4.85584">
        <ele>349</ele>
        <time>2021-08-14T10:24:30.000Z</time>
      </trkpt>
      <trkpt lat="49.83131" lon="4.85592">
        <ele>349</ele>
        <time>2021-08-14T10:24:31.000Z</time>
      </trkpt>
      <trkpt lat="49.83127" lon="4.85599">
        <ele>348</ele>
        <time>2021-08-14T10:24:32.000Z</time>
      </trkpt>
      <trkpt lat="49.83123" lon="4.85607">
        <ele>348</ele>
        <time>2021-08-14T10:24:33.000Z</time>
      </trkpt>
      <trkpt lat="49.83119" lon="4.85615">
        <ele>348</ele>
        <time>2021-08-14T10:24:34.000Z</time>
      </trkpt>
      <trkpt lat="49.83115" lon="4.85624">
        <ele>347</ele>
        <time>2021-08-14T10:24:35.000Z</time>
      </trkpt>
      <trkpt lat="49.83111" lon="4.85632">
        <ele>347</ele>
        <time>2021-08-14T10:24:36.000Z</time>
      </trkpt>
      <trkpt lat="49.83106" lon="4.8564">
        <ele>346</ele>
        <time>2021-08-14T10:24:37.000Z</time>
      </trkpt>
      <trkpt lat="49.83101" lon="4.85646">
        <ele>346</ele>
        <time>2021-08-14T10:24:38.000Z</time>
      </trkpt>
      <trkpt lat="49.83096" lon="4.85652">
        <ele>346</ele>
        <time>2021-08-14T10:24:39.000Z</time>
      </trkpt>
      <trkpt lat="49.83091" lon="4.85657">
        <ele>346</ele>
        <time>2021-08-14T10:24:40.000Z</time>
      </trkpt>
      <trkpt lat="49.83087" lon="4.8566">
        <ele>345</ele>
        <time>2021-08-14T10:24:41.000Z</time>
      </trkpt>
      <trkpt lat="49.83082" lon="4.85664">
        <ele>345</ele>
        <time>2021-08-14T10:24:42.000Z</time>
      </trkpt>
      <trkpt lat="49.83078" lon="4.85667">
        <ele>345</ele>
        <time>2021-08-14T10:24:43.000Z</time>
      </trkpt>
      <trkpt lat="49.83075" lon="4.85671">
        <ele>345</ele>
        <time>2021-08-14T10:24:44.000Z</time>
      </trkpt>
      <trkpt lat="49.83073" lon="4.85675">
        <ele>344</ele>
        <time>2021-08-14T10:24:45.000Z</time>
      </trkpt>
      <trkpt lat="49.8307" lon="4.85679">
        <ele>344</ele>
        <time>2021-08-14T10:24:46.000Z</time>
      </trkpt>
      <trkpt lat="49.83068" lon="4.85682">
        <ele>344</ele>
        <time>2021-08-14T10:24:47.000Z</time>
      </trkpt>
      <trkpt lat="49.83065" lon="4.85686">
        <ele>344</ele>
        <time>2021-08-14T10:24:48.000Z</time>
      </trkpt>
      <trkpt lat="49.83062" lon="4.85689">
        <ele>343</ele>
        <time>2021-08-14T10:24:49.000Z</time>
      </trkpt>
      <trkpt lat="49.8306" lon="4.85692">
        <ele>343</ele>
        <time>2021-08-14T10:24:50.000Z</time>
      </trkpt>
      <trkpt lat="49.83058" lon="4.85696">
        <ele>343</ele>
        <time>2021-08-14T10:24:51.000Z</time>
      </trkpt>
      <trkpt lat="49.83056" lon="4.85699">
        <ele>342</ele>
        <time>2021-08-14T10:24:52.000Z</time>
      </trkpt>
      <trkpt lat="49.83054" lon="4.85702">
        <ele>342</ele>
        <time>2021-08-14T10:24:53.000Z</time>
      </trkpt>
      <trkpt lat="49.83052" lon="4.85705">
        <ele>342</ele>
        <time>2021-08-14T10:24:54.000Z</time>
      </trkpt>
      <trkpt lat="49.8305" lon="4.85708">
        <ele>341</ele>
        <time>2021-08-14T10:24:55.000Z</time>
      </trkpt>
      <trkpt lat="49.83047" lon="4.85711">
        <ele>341</ele>
        <time>2021-08-14T10:24:56.000Z</time>
      </trkpt>
      <trkpt lat="49.83045" lon="4.85714">
        <ele>340</ele>
        <time>2021-08-14T10:24:57.000Z</time>
      </trkpt>
      <trkpt lat="49.83043" lon="4.85717">
        <ele>340</ele>
        <time>2021-08-14T10:24:58.000Z</time>
      </trkpt>
      <trkpt lat="49.83041" lon="4.8572">
        <ele>339</ele>
        <time>2021-08-14T10:24:59.000Z</time>
      </trkpt>
      <trkpt lat="49.83039" lon="4.85723">
        <ele>339</ele>
        <time>2021-08-14T10:25:00.000Z</time>
      </trkpt>
      <trkpt lat="49.83037" lon="4.85726">
        <ele>339</ele>
        <time>2021-08-14T10:25:01.000Z</time>
      </trkpt>
      <trkpt lat="49.83036" lon="4.85729">
        <ele>338</ele>
        <time>2021-08-14T10:25:02.000Z</time>
      </trkpt>
      <trkpt lat="49.83034" lon="4.85731">
        <ele>338</ele>
        <time>2021-08-14T10:25:03.000Z</time>
      </trkpt>
      <trkpt lat="49.83032" lon="4.85734">
        <ele>338</ele>
        <time>2021-08-14T10:25:04.000Z</time>
      </trkpt>
      <trkpt lat="49.8303" lon="4.85736">
        <ele>338</ele>
        <time>2021-08-14T10:25:05.000Z</time>
      </trkpt>
      <trkpt lat="49.83027" lon="4.85738">
        <ele>338</ele>
        <time>2021-08-14T10:25:06.000Z</time>
      </trkpt>
      <trkpt lat="49.83025" lon="4.8574">
        <ele>337</ele>
        <time>2021-08-14T10:25:07.000Z</time>
      </trkpt>
      <trkpt lat="49.83023" lon="4.85742">
        <ele>337</ele>
        <time>2021-08-14T10:25:08.000Z</time>
      </trkpt>
      <trkpt lat="49.8302" lon="4.85743">
        <ele>337</ele>
        <time>2021-08-14T10:25:09.000Z</time>
      </trkpt>
      <trkpt lat="49.83018" lon="4.85745">
        <ele>337</ele>
        <time>2021-08-14T10:25:10.000Z</time>
      </trkpt>
      <trkpt lat="49.83015" lon="4.85747">
        <ele>337</ele>
        <time>2021-08-14T10:25:11.000Z</time>
      </trkpt>
      <trkpt lat="49.83013" lon="4.85748">
        <ele>337</ele>
        <time>2021-08-14T10:25:12.000Z</time>
      </trkpt>
      <trkpt lat="49.8301" lon="4.85749">
        <ele>337</ele>
        <time>2021-08-14T10:25:13.000Z</time>
      </trkpt>
      <trkpt lat="49.83007" lon="4.8575">
        <ele>337</ele>
        <time>2021-08-14T10:25:14.000Z</time>
      </trkpt>
      <trkpt lat="49.83005" lon="4.85751">
        <ele>337</ele>
        <time>2021-08-14T10:25:15.000Z</time>
      </trkpt>
      <trkpt lat="49.83002" lon="4.85752">
        <ele>337</ele>
        <time>2021-08-14T10:25:16.000Z</time>
      </trkpt>
      <trkpt lat="49.82999" lon="4.85753">
        <ele>337</ele>
        <time>2021-08-14T10:25:17.000Z</time>
      </trkpt>
      <trkpt lat="49.82997" lon="4.85753">
        <ele>337</ele>
        <time>2021-08-14T10:25:18.000Z</time>
      </trkpt>
      <trkpt lat="49.82995" lon="4.85755">
        <ele>337</ele>
        <time>2021-08-14T10:25:19.000Z</time>
      </trkpt>
      <trkpt lat="49.82993" lon="4.85755">
        <ele>337</ele>
        <time>2021-08-14T10:25:20.000Z</time>
      </trkpt>
      <trkpt lat="49.82993" lon="4.85756">
        <ele>337</ele>
        <time>2021-08-14T10:25:21.000Z</time>
      </trkpt>
      <trkpt lat="49.82993" lon="4.85756">
        <ele>337</ele>
        <time>2021-08-14T10:25:22.000Z</time>
      </trkpt>
      <trkpt lat="49.82992" lon="4.85756">
        <ele>337</ele>
        <time>2021-08-14T10:25:23.000Z</time>
      </trkpt>
      <trkpt lat="49.82991" lon="4.85756">
        <ele>337</ele>
        <time>2021-08-14T10:25:24.000Z</time>
      </trkpt>
      <trkpt lat="49.82991" lon="4.85756">
        <ele>337</ele>
        <time>2021-08-14T10:25:25.000Z</time>
      </trkpt>
      <trkpt lat="49.8299" lon="4.85755">
        <ele>337</ele>
        <time>2021-08-14T10:25:26.000Z</time>
      </trkpt>
      <trkpt lat="49.8299" lon="4.85755">
        <ele>337</ele>
        <time>2021-08-14T10:25:27.000Z</time>
      </trkpt>
      <trkpt lat="49.82989" lon="4.85755">
        <ele>337</ele>
        <time>2021-08-14T10:25:28.000Z</time>
      </trkpt>
      <trkpt lat="49.82988" lon="4.85756">
        <ele>337</ele>
        <time>2021-08-14T10:25:29.000Z</time>
      </trkpt>
      <trkpt lat="49.82987" lon="4.85756">
        <ele>337</ele>
        <time>2021-08-14T10:25:30.000Z</time>
      </trkpt>
      <trkpt lat="49.82987" lon="4.85756">
        <ele>337</ele>
        <time>2021-08-14T10:25:31.000Z</time>
      </trkpt>
      <trkpt lat="49.82985" lon="4.85758">
        <ele>337</ele>
        <time>2021-08-14T10:25:32.000Z</time>
      </trkpt>
      <trkpt lat="49.82983" lon="4.8576">
        <ele>337</ele>
        <time>2021-08-14T10:25:33.000Z</time>
      </trkpt>
      <trkpt lat="49.82981" lon="4.85761">
        <ele>337</ele>
        <time>2021-08-14T10:25:34.000Z</time>
      </trkpt>
      <trkpt lat="49.8298" lon="4.85762">
        <ele>337</ele>
        <time>2021-08-14T10:25:35.000Z</time>
      </trkpt>
      <trkpt lat="49.82979" lon="4.85764">
        <ele>337</ele>
        <time>2021-08-14T10:25:36.000Z</time>
      </trkpt>
      <trkpt lat="49.82978" lon="4.85767">
        <ele>338</ele>
        <time>2021-08-14T10:25:37.000Z</time>
      </trkpt>
      <trkpt lat="49.82978" lon="4.8577">
        <ele>338</ele>
        <time>2021-08-14T10:25:38.000Z</time>
      </trkpt>
      <trkpt lat="49.82978" lon="4.85773">
        <ele>338</ele>
        <time>2021-08-14T10:25:39.000Z</time>
      </trkpt>
      <trkpt lat="49.82978" lon="4.85778">
        <ele>338</ele>
        <time>2021-08-14T10:25:40.000Z</time>
      </trkpt>
      <trkpt lat="49.82978" lon="4.85782">
        <ele>338</ele>
        <time>2021-08-14T10:25:41.000Z</time>
      </trkpt>
      <trkpt lat="49.82978" lon="4.85787">
        <ele>338</ele>
        <time>2021-08-14T10:25:42.000Z</time>
      </trkpt>
      <trkpt lat="49.82979" lon="4.85792">
        <ele>338</ele>
        <time>2021-08-14T10:25:43.000Z</time>
      </trkpt>
      <trkpt lat="49.82979" lon="4.85798">
        <ele>338</ele>
        <time>2021-08-14T10:25:44.000Z</time>
      </trkpt>
      <trkpt lat="49.8298" lon="4.85804">
        <ele>338</ele>
        <time>2021-08-14T10:25:45.000Z</time>
      </trkpt>
      <trkpt lat="49.8298" lon="4.8581">
        <ele>338</ele>
        <time>2021-08-14T10:25:46.000Z</time>
      </trkpt>
      <trkpt lat="49.8298" lon="4.85817">
        <ele>338</ele>
        <time>2021-08-14T10:25:47.000Z</time>
      </trkpt>
      <trkpt lat="49.8298" lon="4.85824">
        <ele>338</ele>
        <time>2021-08-14T10:25:48.000Z</time>
      </trkpt>
      <trkpt lat="49.8298" lon="4.85831">
        <ele>338</ele>
        <time>2021-08-14T10:25:49.000Z</time>
      </trkpt>
      <trkpt lat="49.8298" lon="4.85839">
        <ele>338</ele>
        <time>2021-08-14T10:25:50.000Z</time>
      </trkpt>
      <trkpt lat="49.8298" lon="4.85846">
        <ele>338</ele>
        <time>2021-08-14T10:25:51.000Z</time>
      </trkpt>
      <trkpt lat="49.8298" lon="4.85854">
        <ele>338</ele>
        <time>2021-08-14T10:25:52.000Z</time>
      </trkpt>
      <trkpt lat="49.8298" lon="4.85861">
        <ele>338</ele>
        <time>2021-08-14T10:25:53.000Z</time>
      </trkpt>
      <trkpt lat="49.82981" lon="4.85869">
        <ele>338</ele>
        <time>2021-08-14T10:25:54.000Z</time>
      </trkpt>
      <trkpt lat="49.82982" lon="4.85877">
        <ele>338</ele>
        <time>2021-08-14T10:25:55.000Z</time>
      </trkpt>
      <trkpt lat="49.82983" lon="4.85884">
        <ele>338</ele>
        <time>2021-08-14T10:25:56.000Z</time>
      </trkpt>
      <trkpt lat="49.82985" lon="4.85891">
        <ele>338</ele>
        <time>2021-08-14T10:25:57.000Z</time>
      </trkpt>
      <trkpt lat="49.82987" lon="4.85898">
        <ele>339</ele>
        <time>2021-08-14T10:25:58.000Z</time>
      </trkpt>
      <trkpt lat="49.82989" lon="4.85904">
        <ele>339</ele>
        <time>2021-08-14T10:25:59.000Z</time>
      </trkpt>
      <trkpt lat="49.82992" lon="4.8591">
        <ele>339</ele>
        <time>2021-08-14T10:26:00.000Z</time>
      </trkpt>
      <trkpt lat="49.82994" lon="4.85916">
        <ele>339</ele>
        <time>2021-08-14T10:26:01.000Z</time>
      </trkpt>
      <trkpt lat="49.82996" lon="4.85922">
        <ele>339</ele>
        <time>2021-08-14T10:26:02.000Z</time>
      </trkpt>
      <trkpt lat="49.82998" lon="4.85929">
        <ele>339</ele>
        <time>2021-08-14T10:26:03.000Z</time>
      </trkpt>
      <trkpt lat="49.83" lon="4.85934">
        <ele>339</ele>
        <time>2021-08-14T10:26:04.000Z</time>
      </trkpt>
      <trkpt lat="49.83001" lon="4.8594">
        <ele>339</ele>
        <time>2021-08-14T10:26:05.000Z</time>
      </trkpt>
      <trkpt lat="49.83003" lon="4.85946">
        <ele>339</ele>
        <time>2021-08-14T10:26:06.000Z</time>
      </trkpt>
      <trkpt lat="49.83004" lon="4.85951">
        <ele>339</ele>
        <time>2021-08-14T10:26:07.000Z</time>
      </trkpt>
      <trkpt lat="49.83006" lon="4.85956">
        <ele>339</ele>
        <time>2021-08-14T10:26:08.000Z</time>
      </trkpt>
      <trkpt lat="49.83007" lon="4.85962">
        <ele>340</ele>
        <time>2021-08-14T10:26:09.000Z</time>
      </trkpt>
      <trkpt lat="49.83008" lon="4.85968">
        <ele>340</ele>
        <time>2021-08-14T10:26:10.000Z</time>
      </trkpt>
      <trkpt lat="49.8301" lon="4.85974">
        <ele>340</ele>
        <time>2021-08-14T10:26:11.000Z</time>
      </trkpt>
      <trkpt lat="49.83011" lon="4.85981">
        <ele>340</ele>
        <time>2021-08-14T10:26:12.000Z</time>
      </trkpt>
      <trkpt lat="49.83012" lon="4.85987">
        <ele>340</ele>
        <time>2021-08-14T10:26:13.000Z</time>
      </trkpt>
      <trkpt lat="49.83013" lon="4.85992">
        <ele>340</ele>
        <time>2021-08-14T10:26:14.000Z</time>
      </trkpt>
      <trkpt lat="49.83014" lon="4.85998">
        <ele>340</ele>
        <time>2021-08-14T10:26:15.000Z</time>
      </trkpt>
      <trkpt lat="49.83015" lon="4.86003">
        <ele>340</ele>
        <time>2021-08-14T10:26:16.000Z</time>
      </trkpt>
      <trkpt lat="49.83016" lon="4.86009">
        <ele>340</ele>
        <time>2021-08-14T10:26:17.000Z</time>
      </trkpt>
      <trkpt lat="49.83016" lon="4.86015">
        <ele>340</ele>
        <time>2021-08-14T10:26:18.000Z</time>
      </trkpt>
      <trkpt lat="49.83017" lon="4.86021">
        <ele>340</ele>
        <time>2021-08-14T10:26:19.000Z</time>
      </trkpt>
      <trkpt lat="49.83018" lon="4.86027">
        <ele>340</ele>
        <time>2021-08-14T10:26:20.000Z</time>
      </trkpt>
      <trkpt lat="49.83018" lon="4.86033">
        <ele>340</ele>
        <time>2021-08-14T10:26:21.000Z</time>
      </trkpt>
      <trkpt lat="49.83018" lon="4.86039">
        <ele>340</ele>
        <time>2021-08-14T10:26:22.000Z</time>
      </trkpt>
      <trkpt lat="49.83018" lon="4.86045">
        <ele>341</ele>
        <time>2021-08-14T10:26:23.000Z</time>
      </trkpt>
      <trkpt lat="49.83019" lon="4.86051">
        <ele>341</ele>
        <time>2021-08-14T10:26:24.000Z</time>
      </trkpt>
      <trkpt lat="49.83019" lon="4.86057">
        <ele>341</ele>
        <time>2021-08-14T10:26:25.000Z</time>
      </trkpt>
      <trkpt lat="49.8302" lon="4.86063">
        <ele>341</ele>
        <time>2021-08-14T10:26:26.000Z</time>
      </trkpt>
      <trkpt lat="49.83021" lon="4.86069">
        <ele>341</ele>
        <time>2021-08-14T10:26:27.000Z</time>
      </trkpt>
      <trkpt lat="49.83022" lon="4.86075">
        <ele>342</ele>
        <time>2021-08-14T10:26:28.000Z</time>
      </trkpt>
      <trkpt lat="49.83022" lon="4.86081">
        <ele>342</ele>
        <time>2021-08-14T10:26:29.000Z</time>
      </trkpt>
      <trkpt lat="49.83023" lon="4.86087">
        <ele>342</ele>
        <time>2021-08-14T10:26:30.000Z</time>
      </trkpt>
      <trkpt lat="49.83024" lon="4.86094">
        <ele>342</ele>
        <time>2021-08-14T10:26:31.000Z</time>
      </trkpt>
      <trkpt lat="49.83025" lon="4.86099">
        <ele>342</ele>
        <time>2021-08-14T10:26:32.000Z</time>
      </trkpt>
      <trkpt lat="49.83025" lon="4.86105">
        <ele>342</ele>
        <time>2021-08-14T10:26:33.000Z</time>
      </trkpt>
      <trkpt lat="49.83025" lon="4.8611">
        <ele>342</ele>
        <time>2021-08-14T10:26:34.000Z</time>
      </trkpt>
      <trkpt lat="49.83024" lon="4.86115">
        <ele>343</ele>
        <time>2021-08-14T10:26:35.000Z</time>
      </trkpt>
      <trkpt lat="49.83024" lon="4.86122">
        <ele>343</ele>
        <time>2021-08-14T10:26:36.000Z</time>
      </trkpt>
      <trkpt lat="49.83025" lon="4.86128">
        <ele>343</ele>
        <time>2021-08-14T10:26:37.000Z</time>
      </trkpt>
      <trkpt lat="49.83024" lon="4.86134">
        <ele>343</ele>
        <time>2021-08-14T10:26:38.000Z</time>
      </trkpt>
      <trkpt lat="49.83024" lon="4.8614">
        <ele>343</ele>
        <time>2021-08-14T10:26:39.000Z</time>
      </trkpt>
      <trkpt lat="49.83024" lon="4.86146">
        <ele>343</ele>
        <time>2021-08-14T10:26:40.000Z</time>
      </trkpt>
      <trkpt lat="49.83024" lon="4.86152">
        <ele>343</ele>
        <time>2021-08-14T10:26:41.000Z</time>
      </trkpt>
      <trkpt lat="49.83024" lon="4.86158">
        <ele>343</ele>
        <time>2021-08-14T10:26:42.000Z</time>
      </trkpt>
      <trkpt lat="49.83023" lon="4.86164">
        <ele>343</ele>
        <time>2021-08-14T10:26:43.000Z</time>
      </trkpt>
      <trkpt lat="49.83022" lon="4.8617">
        <ele>343</ele>
        <time>2021-08-14T10:26:44.000Z</time>
      </trkpt>
      <trkpt lat="49.83021" lon="4.86176">
        <ele>343</ele>
        <time>2021-08-14T10:26:45.000Z</time>
      </trkpt>
      <trkpt lat="49.83021" lon="4.86182">
        <ele>343</ele>
        <time>2021-08-14T10:26:46.000Z</time>
      </trkpt>
      <trkpt lat="49.8302" lon="4.86188">
        <ele>343</ele>
        <time>2021-08-14T10:26:47.000Z</time>
      </trkpt>
      <trkpt lat="49.83019" lon="4.86194">
        <ele>343</ele>
        <time>2021-08-14T10:26:48.000Z</time>
      </trkpt>
      <trkpt lat="49.83019" lon="4.86198">
        <ele>343</ele>
        <time>2021-08-14T10:26:49.000Z</time>
      </trkpt>
      <trkpt lat="49.83018" lon="4.86199">
        <ele>343</ele>
        <time>2021-08-14T10:26:50.000Z</time>
      </trkpt>
      <trkpt lat="49.83019" lon="4.86199">
        <ele>343</ele>
        <time>2021-08-14T10:26:51.000Z</time>
      </trkpt>
      <trkpt lat="49.83019" lon="4.862">
        <ele>343</ele>
        <time>2021-08-14T10:26:52.000Z</time>
      </trkpt>
      <trkpt lat="49.83019" lon="4.862">
        <ele>343</ele>
        <time>2021-08-14T10:26:53.000Z</time>
      </trkpt>
      <trkpt lat="49.83019" lon="4.86201">
        <ele>343</ele>
        <time>2021-08-14T10:26:54.000Z</time>
      </trkpt>
      <trkpt lat="49.83019" lon="4.86201">
        <ele>343</ele>
        <time>2021-08-14T10:26:55.000Z</time>
      </trkpt>
      <trkpt lat="49.83019" lon="4.86201">
        <ele>343</ele>
        <time>2021-08-14T10:26:56.000Z</time>
      </trkpt>
      <trkpt lat="49.83019" lon="4.86202">
        <ele>343</ele>
        <time>2021-08-14T10:26:57.000Z</time>
      </trkpt>
      <trkpt lat="49.83019" lon="4.86202">
        <ele>343</ele>
        <time>2021-08-14T10:26:58.000Z</time>
      </trkpt>
      <trkpt lat="49.83019" lon="4.86202">
        <ele>343</ele>
        <time>2021-08-14T10:26:59.000Z</time>
      </trkpt>
      <trkpt lat="49.83019" lon="4.86203">
        <ele>343</ele>
        <time>2021-08-14T10:27:00.000Z</time>
      </trkpt>
      <trkpt lat="49.83019" lon="4.86203">
        <ele>343</ele>
        <time>2021-08-14T10:27:01.000Z</time>
      </trkpt>
      <trkpt lat="49.83019" lon="4.86203">
        <ele>343</ele>
        <time>2021-08-14T10:27:02.000Z</time>
      </trkpt>
      <trkpt lat="49.83019" lon="4.86203">
        <ele>343</ele>
        <time>2021-08-14T10:27:03.000Z</time>
      </trkpt>
      <trkpt lat="49.83019" lon="4.86204">
        <ele>343</ele>
        <time>2021-08-14T10:27:04.000Z</time>
      </trkpt>
      <trkpt lat="49.83019" lon="4.86204">
        <ele>343</ele>
        <time>2021-08-14T10:27:05.000Z</time>
      </trkpt>
      <trkpt lat="49.83019" lon="4.86204">
        <ele>343</ele>
        <time>2021-08-14T10:27:06.000Z</time>
      </trkpt>
      <trkpt lat="49.8302" lon="4.86204">
        <ele>343</ele>
        <time>2021-08-14T10:27:07.000Z</time>
      </trkpt>
      <trkpt lat="49.8302" lon="4.86204">
        <ele>343</ele>
        <time>2021-08-14T10:27:08.000Z</time>
      </trkpt>
      <trkpt lat="49.8302" lon="4.86204">
        <ele>343</ele>
        <time>2021-08-14T10:27:09.000Z</time>
      </trkpt>
      <trkpt lat="49.8302" lon="4.86204">
        <ele>343</ele>
        <time>2021-08-14T10:27:10.000Z</time>
      </trkpt>
      <trkpt lat="49.8302" lon="4.86205">
        <ele>343</ele>
        <time>2021-08-14T10:27:11.000Z</time>
      </trkpt>
      <trkpt lat="49.8302" lon="4.86205">
        <ele>343</ele>
        <time>2021-08-14T10:27:12.000Z</time>
      </trkpt>
      <trkpt lat="49.8302" lon="4.86205">
        <ele>343</ele>
        <time>2021-08-14T10:27:13.000Z</time>
      </trkpt>
      <trkpt lat="49.8302" lon="4.86205">
        <ele>343</ele>
        <time>2021-08-14T10:27:14.000Z</time>
      </trkpt>
      <trkpt lat="49.8302" lon="4.86205">
        <ele>343</ele>
        <time>2021-08-14T10:27:15.000Z</time>
      </trkpt>
      <trkpt lat="49.8302" lon="4.86205">
        <ele>343</ele>
        <time>2021-08-14T10:27:16.000Z</time>
      </trkpt>
      <trkpt lat="49.8302" lon="4.86205">
        <ele>343</ele>
        <time>2021-08-14T10:27:17.000Z</time>
      </trkpt>
      <trkpt lat="49.8302" lon="4.86205">
        <ele>343</ele>
        <time>2021-08-14T10:27:18.000Z</time>
      </trkpt>
      <trkpt lat="49.8302" lon="4.86206">
        <ele>343</ele>
        <time>2021-08-14T10:27:19.000Z</time>
      </trkpt>
      <trkpt lat="49.8302" lon="4.86206">
        <ele>343</ele>
        <time>2021-08-14T10:27:20.000Z</time>
      </trkpt>
      <trkpt lat="49.8302" lon="4.86206">
        <ele>343</ele>
        <time>2021-08-14T10:27:21.000Z</time>
      </trkpt>
      <trkpt lat="49.8302" lon="4.86206">
        <ele>343</ele>
        <time>2021-08-14T10:27:22.000Z</time>
      </trkpt>
      <trkpt lat="49.8302" lon="4.86208">
        <ele>343</ele>
        <time>2021-08-14T10:27:23.000Z</time>
      </trkpt>
      <trkpt lat="49.83019" lon="4.8621">
        <ele>343</ele>
        <time>2021-08-14T10:27:24.000Z</time>
      </trkpt>
      <trkpt lat="49.83018" lon="4.86212">
        <ele>343</ele>
        <time>2021-08-14T10:27:25.000Z</time>
      </trkpt>
      <trkpt lat="49.83017" lon="4.86215">
        <ele>343</ele>
        <time>2021-08-14T10:27:26.000Z</time>
      </trkpt>
      <trkpt lat="49.83016" lon="4.86218">
        <ele>343</ele>
        <time>2021-08-14T10:27:27.000Z</time>
      </trkpt>
      <trkpt lat="49.83015" lon="4.86222">
        <ele>343</ele>
        <time>2021-08-14T10:27:28.000Z</time>
      </trkpt>
      <trkpt lat="49.83014" lon="4.86226">
        <ele>343</ele>
        <time>2021-08-14T10:27:29.000Z</time>
      </trkpt>
      <trkpt lat="49.83013" lon="4.86229">
        <ele>343</ele>
        <time>2021-08-14T10:27:30.000Z</time>
      </trkpt>
      <trkpt lat="49.83012" lon="4.86234">
        <ele>343</ele>
        <time>2021-08-14T10:27:31.000Z</time>
      </trkpt>
      <trkpt lat="49.8301" lon="4.86239">
        <ele>343</ele>
        <time>2021-08-14T10:27:32.000Z</time>
      </trkpt>
      <trkpt lat="49.83009" lon="4.86245">
        <ele>344</ele>
        <time>2021-08-14T10:27:33.000Z</time>
      </trkpt>
      <trkpt lat="49.83007" lon="4.8625">
        <ele>344</ele>
        <time>2021-08-14T10:27:34.000Z</time>
      </trkpt>
      <trkpt lat="49.83005" lon="4.86256">
        <ele>344</ele>
        <time>2021-08-14T10:27:35.000Z</time>
      </trkpt>
      <trkpt lat="49.83003" lon="4.86262">
        <ele>344</ele>
        <time>2021-08-14T10:27:36.000Z</time>
      </trkpt>
      <trkpt lat="49.83001" lon="4.86269">
        <ele>344</ele>
        <time>2021-08-14T10:27:37.000Z</time>
      </trkpt>
      <trkpt lat="49.82999" lon="4.86275">
        <ele>344</ele>
        <time>2021-08-14T10:27:38.000Z</time>
      </trkpt>
      <trkpt lat="49.82998" lon="4.86282">
        <ele>344</ele>
        <time>2021-08-14T10:27:39.000Z</time>
      </trkpt>
      <trkpt lat="49.82996" lon="4.86289">
        <ele>344</ele>
        <time>2021-08-14T10:27:40.000Z</time>
      </trkpt>
      <trkpt lat="49.82994" lon="4.86296">
        <ele>344</ele>
        <time>2021-08-14T10:27:41.000Z</time>
      </trkpt>
      <trkpt lat="49.82992" lon="4.86302">
        <ele>344</ele>
        <time>2021-08-14T10:27:42.000Z</time>
      </trkpt>
      <trkpt lat="49.82991" lon="4.86309">
        <ele>344</ele>
        <time>2021-08-14T10:27:43.000Z</time>
      </trkpt>
      <trkpt lat="49.82989" lon="4.86315">
        <ele>344</ele>
        <time>2021-08-14T10:27:44.000Z</time>
      </trkpt>
      <trkpt lat="49.82988" lon="4.86321">
        <ele>344</ele>
        <time>2021-08-14T10:27:45.000Z</time>
      </trkpt>
      <trkpt lat="49.82986" lon="4.86327">
        <ele>344</ele>
        <time>2021-08-14T10:27:46.000Z</time>
      </trkpt>
      <trkpt lat="49.82985" lon="4.86334">
        <ele>345</ele>
        <time>2021-08-14T10:27:47.000Z</time>
      </trkpt>
      <trkpt lat="49.82983" lon="4.8634">
        <ele>345</ele>
        <time>2021-08-14T10:27:48.000Z</time>
      </trkpt>
      <trkpt lat="49.82981" lon="4.86347">
        <ele>345</ele>
        <time>2021-08-14T10:27:49.000Z</time>
      </trkpt>
      <trkpt lat="49.82979" lon="4.86352">
        <ele>345</ele>
        <time>2021-08-14T10:27:50.000Z</time>
      </trkpt>
      <trkpt lat="49.82976" lon="4.86359">
        <ele>345</ele>
        <time>2021-08-14T10:27:51.000Z</time>
      </trkpt>
      <trkpt lat="49.82973" lon="4.86365">
        <ele>345</ele>
        <time>2021-08-14T10:27:52.000Z</time>
      </trkpt>
      <trkpt lat="49.82971" lon="4.86371">
        <ele>346</ele>
        <time>2021-08-14T10:27:53.000Z</time>
      </trkpt>
      <trkpt lat="49.82968" lon="4.86377">
        <ele>346</ele>
        <time>2021-08-14T10:27:54.000Z</time>
      </trkpt>
      <trkpt lat="49.82965" lon="4.86382">
        <ele>346</ele>
        <time>2021-08-14T10:27:55.000Z</time>
      </trkpt>
      <trkpt lat="49.82963" lon="4.86388">
        <ele>346</ele>
        <time>2021-08-14T10:27:56.000Z</time>
      </trkpt>
      <trkpt lat="49.8296" lon="4.86394">
        <ele>346</ele>
        <time>2021-08-14T10:27:57.000Z</time>
      </trkpt>
      <trkpt lat="49.82958" lon="4.864">
        <ele>347</ele>
        <time>2021-08-14T10:27:58.000Z</time>
      </trkpt>
      <trkpt lat="49.82955" lon="4.86406">
        <ele>347</ele>
        <time>2021-08-14T10:27:59.000Z</time>
      </trkpt>
      <trkpt lat="49.82952" lon="4.86412">
        <ele>347</ele>
        <time>2021-08-14T10:28:00.000Z</time>
      </trkpt>
      <trkpt lat="49.8295" lon="4.86418">
        <ele>347</ele>
        <time>2021-08-14T10:28:01.000Z</time>
      </trkpt>
      <trkpt lat="49.82947" lon="4.86424">
        <ele>347</ele>
        <time>2021-08-14T10:28:02.000Z</time>
      </trkpt>
      <trkpt lat="49.82945" lon="4.86429">
        <ele>347</ele>
        <time>2021-08-14T10:28:03.000Z</time>
      </trkpt>
      <trkpt lat="49.82942" lon="4.86435">
        <ele>347</ele>
        <time>2021-08-14T10:28:04.000Z</time>
      </trkpt>
      <trkpt lat="49.82939" lon="4.86441">
        <ele>348</ele>
        <time>2021-08-14T10:28:05.000Z</time>
      </trkpt>
      <trkpt lat="49.82937" lon="4.86448">
        <ele>348</ele>
        <time>2021-08-14T10:28:06.000Z</time>
      </trkpt>
      <trkpt lat="49.82934" lon="4.86454">
        <ele>348</ele>
        <time>2021-08-14T10:28:07.000Z</time>
      </trkpt>
      <trkpt lat="49.82931" lon="4.8646">
        <ele>348</ele>
        <time>2021-08-14T10:28:08.000Z</time>
      </trkpt>
      <trkpt lat="49.82928" lon="4.86466">
        <ele>349</ele>
        <time>2021-08-14T10:28:09.000Z</time>
      </trkpt>
      <trkpt lat="49.82926" lon="4.86473">
        <ele>349</ele>
        <time>2021-08-14T10:28:10.000Z</time>
      </trkpt>
      <trkpt lat="49.82923" lon="4.86479">
        <ele>349</ele>
        <time>2021-08-14T10:28:11.000Z</time>
      </trkpt>
      <trkpt lat="49.8292" lon="4.86486">
        <ele>349</ele>
        <time>2021-08-14T10:28:12.000Z</time>
      </trkpt>
      <trkpt lat="49.82917" lon="4.86492">
        <ele>349</ele>
        <time>2021-08-14T10:28:13.000Z</time>
      </trkpt>
      <trkpt lat="49.82914" lon="4.86497">
        <ele>349</ele>
        <time>2021-08-14T10:28:14.000Z</time>
      </trkpt>
      <trkpt lat="49.8291" lon="4.86503">
        <ele>350</ele>
        <time>2021-08-14T10:28:15.000Z</time>
      </trkpt>
      <trkpt lat="49.82907" lon="4.86508">
        <ele>350</ele>
        <time>2021-08-14T10:28:16.000Z</time>
      </trkpt>
      <trkpt lat="49.82904" lon="4.86514">
        <ele>350</ele>
        <time>2021-08-14T10:28:17.000Z</time>
      </trkpt>
      <trkpt lat="49.82901" lon="4.86518">
        <ele>350</ele>
        <time>2021-08-14T10:28:18.000Z</time>
      </trkpt>
      <trkpt lat="49.82898" lon="4.86523">
        <ele>350</ele>
        <time>2021-08-14T10:28:19.000Z</time>
      </trkpt>
      <trkpt lat="49.82894" lon="4.86526">
        <ele>350</ele>
        <time>2021-08-14T10:28:20.000Z</time>
      </trkpt>
      <trkpt lat="49.82891" lon="4.86529">
        <ele>350</ele>
        <time>2021-08-14T10:28:21.000Z</time>
      </trkpt>
      <trkpt lat="49.82888" lon="4.8653">
        <ele>350</ele>
        <time>2021-08-14T10:28:22.000Z</time>
      </trkpt>
      <trkpt lat="49.82885" lon="4.86528">
        <ele>350</ele>
        <time>2021-08-14T10:28:23.000Z</time>
      </trkpt>
      <trkpt lat="49.82882" lon="4.86523">
        <ele>350</ele>
        <time>2021-08-14T10:28:24.000Z</time>
      </trkpt>
      <trkpt lat="49.8288" lon="4.86516">
        <ele>350</ele>
        <time>2021-08-14T10:28:25.000Z</time>
      </trkpt>
      <trkpt lat="49.82878" lon="4.86509">
        <ele>350</ele>
        <time>2021-08-14T10:28:26.000Z</time>
      </trkpt>
      <trkpt lat="49.82878" lon="4.86501">
        <ele>350</ele>
        <time>2021-08-14T10:28:27.000Z</time>
      </trkpt>
      <trkpt lat="49.82877" lon="4.86492">
        <ele>350</ele>
        <time>2021-08-14T10:28:28.000Z</time>
      </trkpt>
      <trkpt lat="49.82876" lon="4.86483">
        <ele>349</ele>
        <time>2021-08-14T10:28:29.000Z</time>
      </trkpt>
      <trkpt lat="49.82875" lon="4.86473">
        <ele>349</ele>
        <time>2021-08-14T10:28:30.000Z</time>
      </trkpt>
      <trkpt lat="49.82875" lon="4.86464">
        <ele>349</ele>
        <time>2021-08-14T10:28:31.000Z</time>
      </trkpt>
      <trkpt lat="49.82873" lon="4.86456">
        <ele>349</ele>
        <time>2021-08-14T10:28:32.000Z</time>
      </trkpt>
      <trkpt lat="49.82871" lon="4.86447">
        <ele>348</ele>
        <time>2021-08-14T10:28:33.000Z</time>
      </trkpt>
      <trkpt lat="49.82867" lon="4.86438">
        <ele>348</ele>
        <time>2021-08-14T10:28:34.000Z</time>
      </trkpt>
      <trkpt lat="49.82862" lon="4.8643">
        <ele>348</ele>
        <time>2021-08-14T10:28:35.000Z</time>
      </trkpt>
      <trkpt lat="49.82857" lon="4.86424">
        <ele>347</ele>
        <time>2021-08-14T10:28:36.000Z</time>
      </trkpt>
      <trkpt lat="49.82852" lon="4.86418">
        <ele>347</ele>
        <time>2021-08-14T10:28:37.000Z</time>
      </trkpt>
      <trkpt lat="49.82846" lon="4.86412">
        <ele>346</ele>
        <time>2021-08-14T10:28:38.000Z</time>
      </trkpt>
      <trkpt lat="49.82841" lon="4.86407">
        <ele>346</ele>
        <time>2021-08-14T10:28:39.000Z</time>
      </trkpt>
      <trkpt lat="49.82837" lon="4.86401">
        <ele>345</ele>
        <time>2021-08-14T10:28:40.000Z</time>
      </trkpt>
      <trkpt lat="49.82834" lon="4.86393">
        <ele>345</ele>
        <time>2021-08-14T10:28:41.000Z</time>
      </trkpt>
      <trkpt lat="49.82831" lon="4.86384">
        <ele>344</ele>
        <time>2021-08-14T10:28:42.000Z</time>
      </trkpt>
      <trkpt lat="49.82829" lon="4.86375">
        <ele>344</ele>
        <time>2021-08-14T10:28:43.000Z</time>
      </trkpt>
      <trkpt lat="49.82828" lon="4.86367">
        <ele>343</ele>
        <time>2021-08-14T10:28:44.000Z</time>
      </trkpt>
      <trkpt lat="49.82826" lon="4.86359">
        <ele>343</ele>
        <time>2021-08-14T10:28:45.000Z</time>
      </trkpt>
      <trkpt lat="49.82824" lon="4.86351">
        <ele>342</ele>
        <time>2021-08-14T10:28:46.000Z</time>
      </trkpt>
      <trkpt lat="49.82822" lon="4.86343">
        <ele>342</ele>
        <time>2021-08-14T10:28:47.000Z</time>
      </trkpt>
      <trkpt lat="49.8282" lon="4.86335">
        <ele>341</ele>
        <time>2021-08-14T10:28:48.000Z</time>
      </trkpt>
      <trkpt lat="49.82818" lon="4.86327">
        <ele>341</ele>
        <time>2021-08-14T10:28:49.000Z</time>
      </trkpt>
      <trkpt lat="49.82816" lon="4.8632">
        <ele>341</ele>
        <time>2021-08-14T10:28:50.000Z</time>
      </trkpt>
      <trkpt lat="49.82812" lon="4.86312">
        <ele>340</ele>
        <time>2021-08-14T10:28:51.000Z</time>
      </trkpt>
      <trkpt lat="49.82808" lon="4.86304">
        <ele>340</ele>
        <time>2021-08-14T10:28:52.000Z</time>
      </trkpt>
      <trkpt lat="49.82803" lon="4.86295">
        <ele>339</ele>
        <time>2021-08-14T10:28:53.000Z</time>
      </trkpt>
      <trkpt lat="49.82798" lon="4.86287">
        <ele>339</ele>
        <time>2021-08-14T10:28:54.000Z</time>
      </trkpt>
      <trkpt lat="49.82793" lon="4.86279">
        <ele>338</ele>
        <time>2021-08-14T10:28:55.000Z</time>
      </trkpt>
      <trkpt lat="49.82788" lon="4.86271">
        <ele>338</ele>
        <time>2021-08-14T10:28:56.000Z</time>
      </trkpt>
      <trkpt lat="49.82783" lon="4.86262">
        <ele>337</ele>
        <time>2021-08-14T10:28:57.000Z</time>
      </trkpt>
      <trkpt lat="49.82777" lon="4.86255">
        <ele>337</ele>
        <time>2021-08-14T10:28:58.000Z</time>
      </trkpt>
      <trkpt lat="49.82771" lon="4.86248">
        <ele>336</ele>
        <time>2021-08-14T10:28:59.000Z</time>
      </trkpt>
      <trkpt lat="49.82765" lon="4.86242">
        <ele>336</ele>
        <time>2021-08-14T10:29:00.000Z</time>
      </trkpt>
      <trkpt lat="49.82759" lon="4.86237">
        <ele>335</ele>
        <time>2021-08-14T10:29:01.000Z</time>
      </trkpt>
      <trkpt lat="49.82753" lon="4.86232">
        <ele>334</ele>
        <time>2021-08-14T10:29:02.000Z</time>
      </trkpt>
      <trkpt lat="49.82746" lon="4.86227">
        <ele>334</ele>
        <time>2021-08-14T10:29:03.000Z</time>
      </trkpt>
      <trkpt lat="49.8274" lon="4.86222">
        <ele>333</ele>
        <time>2021-08-14T10:29:04.000Z</time>
      </trkpt>
      <trkpt lat="49.82734" lon="4.86216">
        <ele>332</ele>
        <time>2021-08-14T10:29:05.000Z</time>
      </trkpt>
      <trkpt lat="49.82729" lon="4.86211">
        <ele>331</ele>
        <time>2021-08-14T10:29:06.000Z</time>
      </trkpt>
      <trkpt lat="49.82724" lon="4.86207">
        <ele>331</ele>
        <time>2021-08-14T10:29:07.000Z</time>
      </trkpt>
      <trkpt lat="49.8272" lon="4.86202">
        <ele>330</ele>
        <time>2021-08-14T10:29:08.000Z</time>
      </trkpt>
      <trkpt lat="49.82716" lon="4.86197">
        <ele>329</ele>
        <time>2021-08-14T10:29:09.000Z</time>
      </trkpt>
      <trkpt lat="49.82712" lon="4.86193">
        <ele>328</ele>
        <time>2021-08-14T10:29:10.000Z</time>
      </trkpt>
      <trkpt lat="49.82709" lon="4.86189">
        <ele>327</ele>
        <time>2021-08-14T10:29:11.000Z</time>
      </trkpt>
      <trkpt lat="49.82706" lon="4.86186">
        <ele>326</ele>
        <time>2021-08-14T10:29:12.000Z</time>
      </trkpt>
      <trkpt lat="49.82703" lon="4.86184">
        <ele>326</ele>
        <time>2021-08-14T10:29:13.000Z</time>
      </trkpt>
      <trkpt lat="49.82701" lon="4.86182">
        <ele>325</ele>
        <time>2021-08-14T10:29:14.000Z</time>
      </trkpt>
      <trkpt lat="49.82698" lon="4.8618">
        <ele>324</ele>
        <time>2021-08-14T10:29:15.000Z</time>
      </trkpt>
      <trkpt lat="49.82695" lon="4.86176">
        <ele>324</ele>
        <time>2021-08-14T10:29:16.000Z</time>
      </trkpt>
      <trkpt lat="49.82692" lon="4.86173">
        <ele>323</ele>
        <time>2021-08-14T10:29:17.000Z</time>
      </trkpt>
      <trkpt lat="49.82688" lon="4.86169">
        <ele>322</ele>
        <time>2021-08-14T10:29:18.000Z</time>
      </trkpt>
      <trkpt lat="49.82684" lon="4.86165">
        <ele>322</ele>
        <time>2021-08-14T10:29:19.000Z</time>
      </trkpt>
      <trkpt lat="49.82679" lon="4.86161">
        <ele>321</ele>
        <time>2021-08-14T10:29:20.000Z</time>
      </trkpt>
      <trkpt lat="49.82674" lon="4.86156">
        <ele>320</ele>
        <time>2021-08-14T10:29:21.000Z</time>
      </trkpt>
      <trkpt lat="49.82668" lon="4.86151">
        <ele>320</ele>
        <time>2021-08-14T10:29:22.000Z</time>
      </trkpt>
      <trkpt lat="49.82663" lon="4.86146">
        <ele>319</ele>
        <time>2021-08-14T10:29:23.000Z</time>
      </trkpt>
      <trkpt lat="49.82658" lon="4.86139">
        <ele>318</ele>
        <time>2021-08-14T10:29:24.000Z</time>
      </trkpt>
      <trkpt lat="49.82653" lon="4.86133">
        <ele>318</ele>
        <time>2021-08-14T10:29:25.000Z</time>
      </trkpt>
      <trkpt lat="49.82649" lon="4.86127">
        <ele>317</ele>
        <time>2021-08-14T10:29:26.000Z</time>
      </trkpt>
      <trkpt lat="49.82645" lon="4.86121">
        <ele>316</ele>
        <time>2021-08-14T10:29:27.000Z</time>
      </trkpt>
      <trkpt lat="49.82642" lon="4.86114">
        <ele>316</ele>
        <time>2021-08-14T10:29:28.000Z</time>
      </trkpt>
      <trkpt lat="49.82638" lon="4.86107">
        <ele>315</ele>
        <time>2021-08-14T10:29:29.000Z</time>
      </trkpt>
      <trkpt lat="49.82635" lon="4.86101">
        <ele>314</ele>
        <time>2021-08-14T10:29:30.000Z</time>
      </trkpt>
      <trkpt lat="49.82632" lon="4.86095">
        <ele>314</ele>
        <time>2021-08-14T10:29:31.000Z</time>
      </trkpt>
      <trkpt lat="49.82629" lon="4.86088">
        <ele>313</ele>
        <time>2021-08-14T10:29:32.000Z</time>
      </trkpt>
      <trkpt lat="49.82627" lon="4.86082">
        <ele>313</ele>
        <time>2021-08-14T10:29:33.000Z</time>
      </trkpt>
      <trkpt lat="49.82625" lon="4.86076">
        <ele>312</ele>
        <time>2021-08-14T10:29:34.000Z</time>
      </trkpt>
      <trkpt lat="49.82624" lon="4.86071">
        <ele>312</ele>
        <time>2021-08-14T10:29:35.000Z</time>
      </trkpt>
      <trkpt lat="49.82623" lon="4.86064">
        <ele>311</ele>
        <time>2021-08-14T10:29:36.000Z</time>
      </trkpt>
      <trkpt lat="49.82621" lon="4.86057">
        <ele>311</ele>
        <time>2021-08-14T10:29:37.000Z</time>
      </trkpt>
      <trkpt lat="49.8262" lon="4.86051">
        <ele>310</ele>
        <time>2021-08-14T10:29:38.000Z</time>
      </trkpt>
      <trkpt lat="49.82618" lon="4.86046">
        <ele>310</ele>
        <time>2021-08-14T10:29:39.000Z</time>
      </trkpt>
      <trkpt lat="49.82617" lon="4.86041">
        <ele>309</ele>
        <time>2021-08-14T10:29:40.000Z</time>
      </trkpt>
      <trkpt lat="49.82617" lon="4.86036">
        <ele>309</ele>
        <time>2021-08-14T10:29:41.000Z</time>
      </trkpt>
      <trkpt lat="49.82616" lon="4.86031">
        <ele>308</ele>
        <time>2021-08-14T10:29:42.000Z</time>
      </trkpt>
      <trkpt lat="49.82615" lon="4.86025">
        <ele>308</ele>
        <time>2021-08-14T10:29:43.000Z</time>
      </trkpt>
      <trkpt lat="49.82614" lon="4.86019">
        <ele>307</ele>
        <time>2021-08-14T10:29:44.000Z</time>
      </trkpt>
      <trkpt lat="49.82614" lon="4.86012">
        <ele>307</ele>
        <time>2021-08-14T10:29:45.000Z</time>
      </trkpt>
      <trkpt lat="49.82613" lon="4.86005">
        <ele>306</ele>
        <time>2021-08-14T10:29:46.000Z</time>
      </trkpt>
      <trkpt lat="49.82613" lon="4.85997">
        <ele>306</ele>
        <time>2021-08-14T10:29:47.000Z</time>
      </trkpt>
      <trkpt lat="49.82613" lon="4.85989">
        <ele>306</ele>
        <time>2021-08-14T10:29:48.000Z</time>
      </trkpt>
      <trkpt lat="49.82613" lon="4.85982">
        <ele>305</ele>
        <time>2021-08-14T10:29:49.000Z</time>
      </trkpt>
      <trkpt lat="49.82613" lon="4.85977">
        <ele>305</ele>
        <time>2021-08-14T10:29:50.000Z</time>
      </trkpt>
      <trkpt lat="49.82612" lon="4.8597">
        <ele>304</ele>
        <time>2021-08-14T10:29:51.000Z</time>
      </trkpt>
      <trkpt lat="49.82612" lon="4.85963">
        <ele>304</ele>
        <time>2021-08-14T10:29:52.000Z</time>
      </trkpt>
      <trkpt lat="49.82612" lon="4.85957">
        <ele>303</ele>
        <time>2021-08-14T10:29:53.000Z</time>
      </trkpt>
      <trkpt lat="49.82611" lon="4.8595">
        <ele>303</ele>
        <time>2021-08-14T10:29:54.000Z</time>
      </trkpt>
      <trkpt lat="49.8261" lon="4.85943">
        <ele>303</ele>
        <time>2021-08-14T10:29:55.000Z</time>
      </trkpt>
      <trkpt lat="49.82609" lon="4.85936">
        <ele>302</ele>
        <time>2021-08-14T10:29:56.000Z</time>
      </trkpt>
      <trkpt lat="49.82607" lon="4.85929">
        <ele>302</ele>
        <time>2021-08-14T10:29:57.000Z</time>
      </trkpt>
      <trkpt lat="49.82605" lon="4.85922">
        <ele>301</ele>
        <time>2021-08-14T10:29:58.000Z</time>
      </trkpt>
      <trkpt lat="49.82603" lon="4.85916">
        <ele>301</ele>
        <time>2021-08-14T10:29:59.000Z</time>
      </trkpt>
      <trkpt lat="49.82602" lon="4.85911">
        <ele>300</ele>
        <time>2021-08-14T10:30:00.000Z</time>
      </trkpt>
      <trkpt lat="49.826" lon="4.85905">
        <ele>300</ele>
        <time>2021-08-14T10:30:01.000Z</time>
      </trkpt>
      <trkpt lat="49.82599" lon="4.859">
        <ele>299</ele>
        <time>2021-08-14T10:30:02.000Z</time>
      </trkpt>
      <trkpt lat="49.82598" lon="4.85895">
        <ele>299</ele>
        <time>2021-08-14T10:30:03.000Z</time>
      </trkpt>
      <trkpt lat="49.82596" lon="4.8589">
        <ele>298</ele>
        <time>2021-08-14T10:30:04.000Z</time>
      </trkpt>
      <trkpt lat="49.82595" lon="4.85884">
        <ele>298</ele>
        <time>2021-08-14T10:30:05.000Z</time>
      </trkpt>
      <trkpt lat="49.82594" lon="4.85878">
        <ele>297</ele>
        <time>2021-08-14T10:30:06.000Z</time>
      </trkpt>
      <trkpt lat="49.82592" lon="4.85873">
        <ele>296</ele>
        <time>2021-08-14T10:30:07.000Z</time>
      </trkpt>
      <trkpt lat="49.8259" lon="4.85868">
        <ele>296</ele>
        <time>2021-08-14T10:30:08.000Z</time>
      </trkpt>
      <trkpt lat="49.82588" lon="4.85865">
        <ele>295</ele>
        <time>2021-08-14T10:30:09.000Z</time>
      </trkpt>
      <trkpt lat="49.82585" lon="4.85862">
        <ele>295</ele>
        <time>2021-08-14T10:30:10.000Z</time>
      </trkpt>
      <trkpt lat="49.82582" lon="4.8586">
        <ele>294</ele>
        <time>2021-08-14T10:30:11.000Z</time>
      </trkpt>
      <trkpt lat="49.82578" lon="4.85859">
        <ele>294</ele>
        <time>2021-08-14T10:30:12.000Z</time>
      </trkpt>
      <trkpt lat="49.82575" lon="4.85859">
        <ele>293</ele>
        <time>2021-08-14T10:30:13.000Z</time>
      </trkpt>
      <trkpt lat="49.8257" lon="4.85859">
        <ele>292</ele>
        <time>2021-08-14T10:30:14.000Z</time>
      </trkpt>
      <trkpt lat="49.82566" lon="4.8586">
        <ele>292</ele>
        <time>2021-08-14T10:30:15.000Z</time>
      </trkpt>
      <trkpt lat="49.82562" lon="4.85862">
        <ele>291</ele>
        <time>2021-08-14T10:30:16.000Z</time>
      </trkpt>
      <trkpt lat="49.82559" lon="4.85863">
        <ele>291</ele>
        <time>2021-08-14T10:30:17.000Z</time>
      </trkpt>
      <trkpt lat="49.82555" lon="4.85864">
        <ele>290</ele>
        <time>2021-08-14T10:30:18.000Z</time>
      </trkpt>
      <trkpt lat="49.82552" lon="4.85864">
        <ele>290</ele>
        <time>2021-08-14T10:30:19.000Z</time>
      </trkpt>
      <trkpt lat="49.82548" lon="4.85865">
        <ele>289</ele>
        <time>2021-08-14T10:30:20.000Z</time>
      </trkpt>
      <trkpt lat="49.82545" lon="4.85866">
        <ele>289</ele>
        <time>2021-08-14T10:30:21.000Z</time>
      </trkpt>
      <trkpt lat="49.82543" lon="4.85866">
        <ele>288</ele>
        <time>2021-08-14T10:30:22.000Z</time>
      </trkpt>
      <trkpt lat="49.8254" lon="4.85865">
        <ele>288</ele>
        <time>2021-08-14T10:30:23.000Z</time>
      </trkpt>
      <trkpt lat="49.82537" lon="4.85865">
        <ele>287</ele>
        <time>2021-08-14T10:30:24.000Z</time>
      </trkpt>
      <trkpt lat="49.82534" lon="4.85864">
        <ele>287</ele>
        <time>2021-08-14T10:30:25.000Z</time>
      </trkpt>
      <trkpt lat="49.8253" lon="4.85864">
        <ele>286</ele>
        <time>2021-08-14T10:30:26.000Z</time>
      </trkpt>
      <trkpt lat="49.82527" lon="4.85864">
        <ele>285</ele>
        <time>2021-08-14T10:30:27.000Z</time>
      </trkpt>
      <trkpt lat="49.82523" lon="4.85864">
        <ele>285</ele>
        <time>2021-08-14T10:30:28.000Z</time>
      </trkpt>
      <trkpt lat="49.82519" lon="4.85864">
        <ele>284</ele>
        <time>2021-08-14T10:30:29.000Z</time>
      </trkpt>
      <trkpt lat="49.82514" lon="4.85864">
        <ele>284</ele>
        <time>2021-08-14T10:30:30.000Z</time>
      </trkpt>
      <trkpt lat="49.8251" lon="4.85864">
        <ele>283</ele>
        <time>2021-08-14T10:30:31.000Z</time>
      </trkpt>
      <trkpt lat="49.82505" lon="4.85864">
        <ele>283</ele>
        <time>2021-08-14T10:30:32.000Z</time>
      </trkpt>
      <trkpt lat="49.825" lon="4.85865">
        <ele>283</ele>
        <time>2021-08-14T10:30:33.000Z</time>
      </trkpt>
      <trkpt lat="49.82496" lon="4.85866">
        <ele>282</ele>
        <time>2021-08-14T10:30:34.000Z</time>
      </trkpt>
      <trkpt lat="49.82492" lon="4.85867">
        <ele>282</ele>
        <time>2021-08-14T10:30:35.000Z</time>
      </trkpt>
      <trkpt lat="49.82488" lon="4.85867">
        <ele>281</ele>
        <time>2021-08-14T10:30:36.000Z</time>
      </trkpt>
      <trkpt lat="49.82484" lon="4.85868">
        <ele>281</ele>
        <time>2021-08-14T10:30:37.000Z</time>
      </trkpt>
      <trkpt lat="49.82481" lon="4.85868">
        <ele>281</ele>
        <time>2021-08-14T10:30:38.000Z</time>
      </trkpt>
      <trkpt lat="49.82477" lon="4.85869">
        <ele>280</ele>
        <time>2021-08-14T10:30:39.000Z</time>
      </trkpt>
      <trkpt lat="49.82475" lon="4.8587">
        <ele>280</ele>
        <time>2021-08-14T10:30:40.000Z</time>
      </trkpt>
      <trkpt lat="49.82474" lon="4.8587">
        <ele>279</ele>
        <time>2021-08-14T10:30:41.000Z</time>
      </trkpt>
      <trkpt lat="49.82473" lon="4.8587">
        <ele>279</ele>
        <time>2021-08-14T10:30:42.000Z</time>
      </trkpt>
      <trkpt lat="49.82473" lon="4.8587">
        <ele>279</ele>
        <time>2021-08-14T10:30:43.000Z</time>
      </trkpt>
      <trkpt lat="49.82472" lon="4.8587">
        <ele>279</ele>
        <time>2021-08-14T10:30:44.000Z</time>
      </trkpt>
      <trkpt lat="49.82472" lon="4.8587">
        <ele>279</ele>
        <time>2021-08-14T10:30:45.000Z</time>
      </trkpt>
      <trkpt lat="49.82472" lon="4.8587">
        <ele>279</ele>
        <time>2021-08-14T10:30:46.000Z</time>
      </trkpt>
      <trkpt lat="49.82471" lon="4.8587">
        <ele>278</ele>
        <time>2021-08-14T10:30:47.000Z</time>
      </trkpt>
      <trkpt lat="49.82471" lon="4.8587">
        <ele>278</ele>
        <time>2021-08-14T10:30:48.000Z</time>
      </trkpt>
      <trkpt lat="49.82471" lon="4.85871">
        <ele>278</ele>
        <time>2021-08-14T10:30:49.000Z</time>
      </trkpt>
      <trkpt lat="49.8247" lon="4.85871">
        <ele>278</ele>
        <time>2021-08-14T10:30:50.000Z</time>
      </trkpt>
      <trkpt lat="49.82469" lon="4.85871">
        <ele>278</ele>
        <time>2021-08-14T10:30:51.000Z</time>
      </trkpt>
      <trkpt lat="49.82468" lon="4.85872">
        <ele>277</ele>
        <time>2021-08-14T10:30:52.000Z</time>
      </trkpt>
      <trkpt lat="49.82465" lon="4.85872">
        <ele>277</ele>
        <time>2021-08-14T10:30:53.000Z</time>
      </trkpt>
      <trkpt lat="49.82462" lon="4.85873">
        <ele>277</ele>
        <time>2021-08-14T10:30:54.000Z</time>
      </trkpt>
      <trkpt lat="49.82459" lon="4.85874">
        <ele>276</ele>
        <time>2021-08-14T10:30:55.000Z</time>
      </trkpt>
      <trkpt lat="49.82455" lon="4.85875">
        <ele>276</ele>
        <time>2021-08-14T10:30:56.000Z</time>
      </trkpt>
      <trkpt lat="49.82451" lon="4.85877">
        <ele>276</ele>
        <time>2021-08-14T10:30:57.000Z</time>
      </trkpt>
      <trkpt lat="49.82447" lon="4.85879">
        <ele>276</ele>
        <time>2021-08-14T10:30:58.000Z</time>
      </trkpt>
      <trkpt lat="49.82444" lon="4.85882">
        <ele>276</ele>
        <time>2021-08-14T10:30:59.000Z</time>
      </trkpt>
      <trkpt lat="49.82439" lon="4.85884">
        <ele>276</ele>
        <time>2021-08-14T10:31:00.000Z</time>
      </trkpt>
      <trkpt lat="49.82435" lon="4.85887">
        <ele>275</ele>
        <time>2021-08-14T10:31:01.000Z</time>
      </trkpt>
      <trkpt lat="49.82431" lon="4.8589">
        <ele>275</ele>
        <time>2021-08-14T10:31:02.000Z</time>
      </trkpt>
      <trkpt lat="49.82427" lon="4.85894">
        <ele>275</ele>
        <time>2021-08-14T10:31:03.000Z</time>
      </trkpt>
      <trkpt lat="49.82423" lon="4.85899">
        <ele>274</ele>
        <time>2021-08-14T10:31:04.000Z</time>
      </trkpt>
      <trkpt lat="49.82418" lon="4.85905">
        <ele>274</ele>
        <time>2021-08-14T10:31:05.000Z</time>
      </trkpt>
      <trkpt lat="49.82414" lon="4.85911">
        <ele>273</ele>
        <time>2021-08-14T10:31:06.000Z</time>
      </trkpt>
      <trkpt lat="49.8241" lon="4.85917">
        <ele>273</ele>
        <time>2021-08-14T10:31:07.000Z</time>
      </trkpt>
      <trkpt lat="49.82405" lon="4.85923">
        <ele>272</ele>
        <time>2021-08-14T10:31:08.000Z</time>
      </trkpt>
      <trkpt lat="49.82401" lon="4.85928">
        <ele>272</ele>
        <time>2021-08-14T10:31:09.000Z</time>
      </trkpt>
      <trkpt lat="49.82396" lon="4.85932">
        <ele>271</ele>
        <time>2021-08-14T10:31:10.000Z</time>
      </trkpt>
      <trkpt lat="49.82391" lon="4.85935">
        <ele>271</ele>
        <time>2021-08-14T10:31:11.000Z</time>
      </trkpt>
      <trkpt lat="49.82386" lon="4.85938">
        <ele>270</ele>
        <time>2021-08-14T10:31:12.000Z</time>
      </trkpt>
      <trkpt lat="49.82382" lon="4.85941">
        <ele>270</ele>
        <time>2021-08-14T10:31:13.000Z</time>
      </trkpt>
      <trkpt lat="49.82378" lon="4.85945">
        <ele>270</ele>
        <time>2021-08-14T10:31:14.000Z</time>
      </trkpt>
      <trkpt lat="49.82373" lon="4.85949">
        <ele>270</ele>
        <time>2021-08-14T10:31:15.000Z</time>
      </trkpt>
      <trkpt lat="49.82369" lon="4.85955">
        <ele>269</ele>
        <time>2021-08-14T10:31:16.000Z</time>
      </trkpt>
      <trkpt lat="49.82364" lon="4.85961">
        <ele>269</ele>
        <time>2021-08-14T10:31:17.000Z</time>
      </trkpt>
      <trkpt lat="49.8236" lon="4.85968">
        <ele>269</ele>
        <time>2021-08-14T10:31:18.000Z</time>
      </trkpt>
      <trkpt lat="49.82355" lon="4.85975">
        <ele>269</ele>
        <time>2021-08-14T10:31:19.000Z</time>
      </trkpt>
      <trkpt lat="49.8235" lon="4.85982">
        <ele>269</ele>
        <time>2021-08-14T10:31:20.000Z</time>
      </trkpt>
      <trkpt lat="49.82345" lon="4.85988">
        <ele>269</ele>
        <time>2021-08-14T10:31:21.000Z</time>
      </trkpt>
      <trkpt lat="49.82341" lon="4.85992">
        <ele>269</ele>
        <time>2021-08-14T10:31:22.000Z</time>
      </trkpt>
      <trkpt lat="49.82337" lon="4.85995">
        <ele>268</ele>
        <time>2021-08-14T10:31:23.000Z</time>
      </trkpt>
      <trkpt lat="49.82333" lon="4.85997">
        <ele>268</ele>
        <time>2021-08-14T10:31:24.000Z</time>
      </trkpt>
      <trkpt lat="49.82329" lon="4.85998">
        <ele>268</ele>
        <time>2021-08-14T10:31:25.000Z</time>
      </trkpt>
      <trkpt lat="49.82324" lon="4.85999">
        <ele>268</ele>
        <time>2021-08-14T10:31:26.000Z</time>
      </trkpt>
      <trkpt lat="49.82319" lon="4.85999">
        <ele>268</ele>
        <time>2021-08-14T10:31:27.000Z</time>
      </trkpt>
      <trkpt lat="49.82313" lon="4.85999">
        <ele>268</ele>
        <time>2021-08-14T10:31:28.000Z</time>
      </trkpt>
      <trkpt lat="49.82308" lon="4.85999">
        <ele>268</ele>
        <time>2021-08-14T10:31:29.000Z</time>
      </trkpt>
      <trkpt lat="49.82303" lon="4.86">
        <ele>268</ele>
        <time>2021-08-14T10:31:30.000Z</time>
      </trkpt>
      <trkpt lat="49.82297" lon="4.86001">
        <ele>268</ele>
        <time>2021-08-14T10:31:31.000Z</time>
      </trkpt>
      <trkpt lat="49.82292" lon="4.86002">
        <ele>268</ele>
        <time>2021-08-14T10:31:32.000Z</time>
      </trkpt>
      <trkpt lat="49.82286" lon="4.86004">
        <ele>268</ele>
        <time>2021-08-14T10:31:33.000Z</time>
      </trkpt>
      <trkpt lat="49.82282" lon="4.86005">
        <ele>267</ele>
        <time>2021-08-14T10:31:34.000Z</time>
      </trkpt>
      <trkpt lat="49.82278" lon="4.86007">
        <ele>267</ele>
        <time>2021-08-14T10:31:35.000Z</time>
      </trkpt>
      <trkpt lat="49.82274" lon="4.86008">
        <ele>267</ele>
        <time>2021-08-14T10:31:36.000Z</time>
      </trkpt>
      <trkpt lat="49.82271" lon="4.8601">
        <ele>267</ele>
        <time>2021-08-14T10:31:37.000Z</time>
      </trkpt>
      <trkpt lat="49.82268" lon="4.86011">
        <ele>267</ele>
        <time>2021-08-14T10:31:38.000Z</time>
      </trkpt>
      <trkpt lat="49.82265" lon="4.86011">
        <ele>267</ele>
        <time>2021-08-14T10:31:39.000Z</time>
      </trkpt>
      <trkpt lat="49.82261" lon="4.86013">
        <ele>267</ele>
        <time>2021-08-14T10:31:40.000Z</time>
      </trkpt>
      <trkpt lat="49.82258" lon="4.86015">
        <ele>267</ele>
        <time>2021-08-14T10:31:41.000Z</time>
      </trkpt>
      <trkpt lat="49.82254" lon="4.86018">
        <ele>266</ele>
        <time>2021-08-14T10:31:42.000Z</time>
      </trkpt>
      <trkpt lat="49.82249" lon="4.86021">
        <ele>266</ele>
        <time>2021-08-14T10:31:43.000Z</time>
      </trkpt>
      <trkpt lat="49.82245" lon="4.86023">
        <ele>266</ele>
        <time>2021-08-14T10:31:44.000Z</time>
      </trkpt>
      <trkpt lat="49.82242" lon="4.86025">
        <ele>266</ele>
        <time>2021-08-14T10:31:45.000Z</time>
      </trkpt>
      <trkpt lat="49.82238" lon="4.86025">
        <ele>266</ele>
        <time>2021-08-14T10:31:46.000Z</time>
      </trkpt>
      <trkpt lat="49.82234" lon="4.86026">
        <ele>265</ele>
        <time>2021-08-14T10:31:47.000Z</time>
      </trkpt>
      <trkpt lat="49.8223" lon="4.86026">
        <ele>265</ele>
        <time>2021-08-14T10:31:48.000Z</time>
      </trkpt>
      <trkpt lat="49.82226" lon="4.86027">
        <ele>265</ele>
        <time>2021-08-14T10:31:49.000Z</time>
      </trkpt>
      <trkpt lat="49.82223" lon="4.86026">
        <ele>265</ele>
        <time>2021-08-14T10:31:50.000Z</time>
      </trkpt>
      <trkpt lat="49.82219" lon="4.86026">
        <ele>264</ele>
        <time>2021-08-14T10:31:51.000Z</time>
      </trkpt>
      <trkpt lat="49.82216" lon="4.86026">
        <ele>264</ele>
        <time>2021-08-14T10:31:52.000Z</time>
      </trkpt>
      <trkpt lat="49.82212" lon="4.86027">
        <ele>264</ele>
        <time>2021-08-14T10:31:53.000Z</time>
      </trkpt>
      <trkpt lat="49.82209" lon="4.86027">
        <ele>264</ele>
        <time>2021-08-14T10:31:54.000Z</time>
      </trkpt>
      <trkpt lat="49.82206" lon="4.86027">
        <ele>264</ele>
        <time>2021-08-14T10:31:55.000Z</time>
      </trkpt>
      <trkpt lat="49.82202" lon="4.86026">
        <ele>264</ele>
        <time>2021-08-14T10:31:56.000Z</time>
      </trkpt>
      <trkpt lat="49.82199" lon="4.86025">
        <ele>264</ele>
        <time>2021-08-14T10:31:57.000Z</time>
      </trkpt>
      <trkpt lat="49.82195" lon="4.86024">
        <ele>263</ele>
        <time>2021-08-14T10:31:58.000Z</time>
      </trkpt>
      <trkpt lat="49.82192" lon="4.86024">
        <ele>263</ele>
        <time>2021-08-14T10:31:59.000Z</time>
      </trkpt>
      <trkpt lat="49.82189" lon="4.86022">
        <ele>263</ele>
        <time>2021-08-14T10:32:00.000Z</time>
      </trkpt>
      <trkpt lat="49.82186" lon="4.86021">
        <ele>263</ele>
        <time>2021-08-14T10:32:01.000Z</time>
      </trkpt>
      <trkpt lat="49.82182" lon="4.86019">
        <ele>263</ele>
        <time>2021-08-14T10:32:02.000Z</time>
      </trkpt>
      <trkpt lat="49.82177" lon="4.86017">
        <ele>263</ele>
        <time>2021-08-14T10:32:03.000Z</time>
      </trkpt>
      <trkpt lat="49.82173" lon="4.86015">
        <ele>263</ele>
        <time>2021-08-14T10:32:04.000Z</time>
      </trkpt>
      <trkpt lat="49.82168" lon="4.86014">
        <ele>263</ele>
        <time>2021-08-14T10:32:05.000Z</time>
      </trkpt>
      <trkpt lat="49.82163" lon="4.86011">
        <ele>262</ele>
        <time>2021-08-14T10:32:06.000Z</time>
      </trkpt>
      <trkpt lat="49.82158" lon="4.86009">
        <ele>262</ele>
        <time>2021-08-14T10:32:07.000Z</time>
      </trkpt>
      <trkpt lat="49.82154" lon="4.86006">
        <ele>262</ele>
        <time>2021-08-14T10:32:08.000Z</time>
      </trkpt>
      <trkpt lat="49.8215" lon="4.86002">
        <ele>262</ele>
        <time>2021-08-14T10:32:09.000Z</time>
      </trkpt>
      <trkpt lat="49.82145" lon="4.86">
        <ele>261</ele>
        <time>2021-08-14T10:32:10.000Z</time>
      </trkpt>
      <trkpt lat="49.82141" lon="4.85999">
        <ele>261</ele>
        <time>2021-08-14T10:32:11.000Z</time>
      </trkpt>
      <trkpt lat="49.82137" lon="4.85998">
        <ele>261</ele>
        <time>2021-08-14T10:32:12.000Z</time>
      </trkpt>
      <trkpt lat="49.82133" lon="4.85997">
        <ele>261</ele>
        <time>2021-08-14T10:32:13.000Z</time>
      </trkpt>
      <trkpt lat="49.82129" lon="4.85995">
        <ele>260</ele>
        <time>2021-08-14T10:32:14.000Z</time>
      </trkpt>
      <trkpt lat="49.82125" lon="4.85993">
        <ele>260</ele>
        <time>2021-08-14T10:32:15.000Z</time>
      </trkpt>
      <trkpt lat="49.82121" lon="4.85991">
        <ele>260</ele>
        <time>2021-08-14T10:32:16.000Z</time>
      </trkpt>
      <trkpt lat="49.82116" lon="4.85989">
        <ele>260</ele>
        <time>2021-08-14T10:32:17.000Z</time>
      </trkpt>
      <trkpt lat="49.82112" lon="4.85986">
        <ele>259</ele>
        <time>2021-08-14T10:32:18.000Z</time>
      </trkpt>
      <trkpt lat="49.82108" lon="4.85983">
        <ele>259</ele>
        <time>2021-08-14T10:32:19.000Z</time>
      </trkpt>
      <trkpt lat="49.82105" lon="4.85979">
        <ele>259</ele>
        <time>2021-08-14T10:32:20.000Z</time>
      </trkpt>
      <trkpt lat="49.82103" lon="4.85976">
        <ele>259</ele>
        <time>2021-08-14T10:32:21.000Z</time>
      </trkpt>
      <trkpt lat="49.821" lon="4.85974">
        <ele>258</ele>
        <time>2021-08-14T10:32:22.000Z</time>
      </trkpt>
      <trkpt lat="49.82096" lon="4.85972">
        <ele>258</ele>
        <time>2021-08-14T10:32:23.000Z</time>
      </trkpt>
      <trkpt lat="49.82093" lon="4.8597">
        <ele>258</ele>
        <time>2021-08-14T10:32:24.000Z</time>
      </trkpt>
      <trkpt lat="49.82089" lon="4.85968">
        <ele>258</ele>
        <time>2021-08-14T10:32:25.000Z</time>
      </trkpt>
      <trkpt lat="49.82085" lon="4.85965">
        <ele>258</ele>
        <time>2021-08-14T10:32:26.000Z</time>
      </trkpt>
      <trkpt lat="49.8208" lon="4.85962">
        <ele>257</ele>
        <time>2021-08-14T10:32:27.000Z</time>
      </trkpt>
      <trkpt lat="49.82075" lon="4.85958">
        <ele>257</ele>
        <time>2021-08-14T10:32:28.000Z</time>
      </trkpt>
      <trkpt lat="49.82071" lon="4.85954">
        <ele>257</ele>
        <time>2021-08-14T10:32:29.000Z</time>
      </trkpt>
      <trkpt lat="49.82066" lon="4.85949">
        <ele>256</ele>
        <time>2021-08-14T10:32:30.000Z</time>
      </trkpt>
      <trkpt lat="49.82061" lon="4.85945">
        <ele>256</ele>
        <time>2021-08-14T10:32:31.000Z</time>
      </trkpt>
      <trkpt lat="49.82056" lon="4.85941">
        <ele>255</ele>
        <time>2021-08-14T10:32:32.000Z</time>
      </trkpt>
      <trkpt lat="49.82051" lon="4.85937">
        <ele>255</ele>
        <time>2021-08-14T10:32:33.000Z</time>
      </trkpt>
      <trkpt lat="49.82047" lon="4.85933">
        <ele>255</ele>
        <time>2021-08-14T10:32:34.000Z</time>
      </trkpt>
      <trkpt lat="49.82043" lon="4.85929">
        <ele>254</ele>
        <time>2021-08-14T10:32:35.000Z</time>
      </trkpt>
      <trkpt lat="49.82038" lon="4.85925">
        <ele>254</ele>
        <time>2021-08-14T10:32:36.000Z</time>
      </trkpt>
      <trkpt lat="49.82034" lon="4.85921">
        <ele>254</ele>
        <time>2021-08-14T10:32:37.000Z</time>
      </trkpt>
      <trkpt lat="49.82029" lon="4.85917">
        <ele>253</ele>
        <time>2021-08-14T10:32:38.000Z</time>
      </trkpt>
      <trkpt lat="49.82025" lon="4.85913">
        <ele>253</ele>
        <time>2021-08-14T10:32:39.000Z</time>
      </trkpt>
      <trkpt lat="49.82021" lon="4.85909">
        <ele>253</ele>
        <time>2021-08-14T10:32:40.000Z</time>
      </trkpt>
      <trkpt lat="49.82017" lon="4.85905">
        <ele>252</ele>
        <time>2021-08-14T10:32:41.000Z</time>
      </trkpt>
      <trkpt lat="49.82013" lon="4.85901">
        <ele>252</ele>
        <time>2021-08-14T10:32:42.000Z</time>
      </trkpt>
      <trkpt lat="49.82009" lon="4.85898">
        <ele>252</ele>
        <time>2021-08-14T10:32:43.000Z</time>
      </trkpt>
      <trkpt lat="49.82005" lon="4.85894">
        <ele>251</ele>
        <time>2021-08-14T10:32:44.000Z</time>
      </trkpt>
      <trkpt lat="49.82" lon="4.8589">
        <ele>251</ele>
        <time>2021-08-14T10:32:45.000Z</time>
      </trkpt>
      <trkpt lat="49.81996" lon="4.85886">
        <ele>251</ele>
        <time>2021-08-14T10:32:46.000Z</time>
      </trkpt>
      <trkpt lat="49.81992" lon="4.85884">
        <ele>251</ele>
        <time>2021-08-14T10:32:47.000Z</time>
      </trkpt>
      <trkpt lat="49.81989" lon="4.85881">
        <ele>251</ele>
        <time>2021-08-14T10:32:48.000Z</time>
      </trkpt>
      <trkpt lat="49.81987" lon="4.85879">
        <ele>251</ele>
        <time>2021-08-14T10:32:49.000Z</time>
      </trkpt>
      <trkpt lat="49.81986" lon="4.85877">
        <ele>250</ele>
        <time>2021-08-14T10:32:50.000Z</time>
      </trkpt>
      <trkpt lat="49.81985" lon="4.85876">
        <ele>250</ele>
        <time>2021-08-14T10:32:51.000Z</time>
      </trkpt>
      <trkpt lat="49.81984" lon="4.85875">
        <ele>250</ele>
        <time>2021-08-14T10:32:52.000Z</time>
      </trkpt>
      <trkpt lat="49.81982" lon="4.85875">
        <ele>250</ele>
        <time>2021-08-14T10:32:53.000Z</time>
      </trkpt>
      <trkpt lat="49.81981" lon="4.85875">
        <ele>250</ele>
        <time>2021-08-14T10:32:54.000Z</time>
      </trkpt>
      <trkpt lat="49.8198" lon="4.85875">
        <ele>250</ele>
        <time>2021-08-14T10:32:55.000Z</time>
      </trkpt>
      <trkpt lat="49.81979" lon="4.85874">
        <ele>250</ele>
        <time>2021-08-14T10:32:56.000Z</time>
      </trkpt>
      <trkpt lat="49.81978" lon="4.85874">
        <ele>250</ele>
        <time>2021-08-14T10:32:57.000Z</time>
      </trkpt>
      <trkpt lat="49.81976" lon="4.85874">
        <ele>250</ele>
        <time>2021-08-14T10:32:58.000Z</time>
      </trkpt>
      <trkpt lat="49.81974" lon="4.85872">
        <ele>250</ele>
        <time>2021-08-14T10:32:59.000Z</time>
      </trkpt>
      <trkpt lat="49.81972" lon="4.85872">
        <ele>250</ele>
        <time>2021-08-14T10:33:00.000Z</time>
      </trkpt>
      <trkpt lat="49.81971" lon="4.85872">
        <ele>250</ele>
        <time>2021-08-14T10:33:01.000Z</time>
      </trkpt>
      <trkpt lat="49.81969" lon="4.85871">
        <ele>250</ele>
        <time>2021-08-14T10:33:02.000Z</time>
      </trkpt>
      <trkpt lat="49.81967" lon="4.85871">
        <ele>250</ele>
        <time>2021-08-14T10:33:03.000Z</time>
      </trkpt>
      <trkpt lat="49.81965" lon="4.8587">
        <ele>249</ele>
        <time>2021-08-14T10:33:04.000Z</time>
      </trkpt>
      <trkpt lat="49.81963" lon="4.85869">
        <ele>249</ele>
        <time>2021-08-14T10:33:05.000Z</time>
      </trkpt>
      <trkpt lat="49.81961" lon="4.85869">
        <ele>249</ele>
        <time>2021-08-14T10:33:06.000Z</time>
      </trkpt>
      <trkpt lat="49.81959" lon="4.85869">
        <ele>249</ele>
        <time>2021-08-14T10:33:07.000Z</time>
      </trkpt>
      <trkpt lat="49.81957" lon="4.85869">
        <ele>249</ele>
        <time>2021-08-14T10:33:08.000Z</time>
      </trkpt>
      <trkpt lat="49.81955" lon="4.8587">
        <ele>249</ele>
        <time>2021-08-14T10:33:09.000Z</time>
      </trkpt>
      <trkpt lat="49.81953" lon="4.85871">
        <ele>249</ele>
        <time>2021-08-14T10:33:10.000Z</time>
      </trkpt>
      <trkpt lat="49.81952" lon="4.85872">
        <ele>249</ele>
        <time>2021-08-14T10:33:11.000Z</time>
      </trkpt>
      <trkpt lat="49.8195" lon="4.85873">
        <ele>249</ele>
        <time>2021-08-14T10:33:12.000Z</time>
      </trkpt>
      <trkpt lat="49.81949" lon="4.85874">
        <ele>249</ele>
        <time>2021-08-14T10:33:13.000Z</time>
      </trkpt>
      <trkpt lat="49.81948" lon="4.85875">
        <ele>249</ele>
        <time>2021-08-14T10:33:14.000Z</time>
      </trkpt>
      <trkpt lat="49.81946" lon="4.85876">
        <ele>249</ele>
        <time>2021-08-14T10:33:15.000Z</time>
      </trkpt>
      <trkpt lat="49.81945" lon="4.85877">
        <ele>249</ele>
        <time>2021-08-14T10:33:16.000Z</time>
      </trkpt>
      <trkpt lat="49.81943" lon="4.85877">
        <ele>249</ele>
        <time>2021-08-14T10:33:17.000Z</time>
      </trkpt>
      <trkpt lat="49.81942" lon="4.85876">
        <ele>249</ele>
        <time>2021-08-14T10:33:18.000Z</time>
      </trkpt>
      <trkpt lat="49.81941" lon="4.85875">
        <ele>249</ele>
        <time>2021-08-14T10:33:19.000Z</time>
      </trkpt>
      <trkpt lat="49.8194" lon="4.85874">
        <ele>249</ele>
        <time>2021-08-14T10:33:20.000Z</time>
      </trkpt>
      <trkpt lat="49.81938" lon="4.85873">
        <ele>249</ele>
        <time>2021-08-14T10:33:21.000Z</time>
      </trkpt>
      <trkpt lat="49.81936" lon="4.85871">
        <ele>249</ele>
        <time>2021-08-14T10:33:22.000Z</time>
      </trkpt>
      <trkpt lat="49.81934" lon="4.85869">
        <ele>249</ele>
        <time>2021-08-14T10:33:23.000Z</time>
      </trkpt>
      <trkpt lat="49.81932" lon="4.85868">
        <ele>249</ele>
        <time>2021-08-14T10:33:24.000Z</time>
      </trkpt>
      <trkpt lat="49.8193" lon="4.85867">
        <ele>249</ele>
        <time>2021-08-14T10:33:25.000Z</time>
      </trkpt>
      <trkpt lat="49.81927" lon="4.85866">
        <ele>249</ele>
        <time>2021-08-14T10:33:26.000Z</time>
      </trkpt>
      <trkpt lat="49.81925" lon="4.85866">
        <ele>249</ele>
        <time>2021-08-14T10:33:27.000Z</time>
      </trkpt>
      <trkpt lat="49.81922" lon="4.85866">
        <ele>249</ele>
        <time>2021-08-14T10:33:28.000Z</time>
      </trkpt>
      <trkpt lat="49.81919" lon="4.85865">
        <ele>249</ele>
        <time>2021-08-14T10:33:29.000Z</time>
      </trkpt>
      <trkpt lat="49.81915" lon="4.85863">
        <ele>249</ele>
        <time>2021-08-14T10:33:30.000Z</time>
      </trkpt>
      <trkpt lat="49.81911" lon="4.85861">
        <ele>249</ele>
        <time>2021-08-14T10:33:31.000Z</time>
      </trkpt>
      <trkpt lat="49.81908" lon="4.85859">
        <ele>249</ele>
        <time>2021-08-14T10:33:32.000Z</time>
      </trkpt>
      <trkpt lat="49.81905" lon="4.85857">
        <ele>249</ele>
        <time>2021-08-14T10:33:33.000Z</time>
      </trkpt>
      <trkpt lat="49.81901" lon="4.85855">
        <ele>249</ele>
        <time>2021-08-14T10:33:34.000Z</time>
      </trkpt>
      <trkpt lat="49.81897" lon="4.85853">
        <ele>249</ele>
        <time>2021-08-14T10:33:35.000Z</time>
      </trkpt>
      <trkpt lat="49.81893" lon="4.85851">
        <ele>249</ele>
        <time>2021-08-14T10:33:36.000Z</time>
      </trkpt>
      <trkpt lat="49.81889" lon="4.85849">
        <ele>249</ele>
        <time>2021-08-14T10:33:37.000Z</time>
      </trkpt>
      <trkpt lat="49.81886" lon="4.85847">
        <ele>249</ele>
        <time>2021-08-14T10:33:38.000Z</time>
      </trkpt>
      <trkpt lat="49.81882" lon="4.85845">
        <ele>249</ele>
        <time>2021-08-14T10:33:39.000Z</time>
      </trkpt>
      <trkpt lat="49.81878" lon="4.85842">
        <ele>249</ele>
        <time>2021-08-14T10:33:40.000Z</time>
      </trkpt>
      <trkpt lat="49.81873" lon="4.85837">
        <ele>249</ele>
        <time>2021-08-14T10:33:41.000Z</time>
      </trkpt>
      <trkpt lat="49.81869" lon="4.85832">
        <ele>249</ele>
        <time>2021-08-14T10:33:42.000Z</time>
      </trkpt>
      <trkpt lat="49.81865" lon="4.85824">
        <ele>249</ele>
        <time>2021-08-14T10:33:43.000Z</time>
      </trkpt>
      <trkpt lat="49.81862" lon="4.85818">
        <ele>249</ele>
        <time>2021-08-14T10:33:44.000Z</time>
      </trkpt>
      <trkpt lat="49.81858" lon="4.85811">
        <ele>248</ele>
        <time>2021-08-14T10:33:45.000Z</time>
      </trkpt>
      <trkpt lat="49.81855" lon="4.85804">
        <ele>248</ele>
        <time>2021-08-14T10:33:46.000Z</time>
      </trkpt>
      <trkpt lat="49.81852" lon="4.85797">
        <ele>247</ele>
        <time>2021-08-14T10:33:47.000Z</time>
      </trkpt>
      <trkpt lat="49.81849" lon="4.85791">
        <ele>247</ele>
        <time>2021-08-14T10:33:48.000Z</time>
      </trkpt>
      <trkpt lat="49.81846" lon="4.85784">
        <ele>247</ele>
        <time>2021-08-14T10:33:49.000Z</time>
      </trkpt>
      <trkpt lat="49.81842" lon="4.85778">
        <ele>246</ele>
        <time>2021-08-14T10:33:50.000Z</time>
      </trkpt>
      <trkpt lat="49.81838" lon="4.85772">
        <ele>246</ele>
        <time>2021-08-14T10:33:51.000Z</time>
      </trkpt>
      <trkpt lat="49.81836" lon="4.85766">
        <ele>246</ele>
        <time>2021-08-14T10:33:52.000Z</time>
      </trkpt>
      <trkpt lat="49.81833" lon="4.8576">
        <ele>245</ele>
        <time>2021-08-14T10:33:53.000Z</time>
      </trkpt>
      <trkpt lat="49.8183" lon="4.85755">
        <ele>245</ele>
        <time>2021-08-14T10:33:54.000Z</time>
      </trkpt>
      <trkpt lat="49.81828" lon="4.85748">
        <ele>245</ele>
        <time>2021-08-14T10:33:55.000Z</time>
      </trkpt>
      <trkpt lat="49.81825" lon="4.85742">
        <ele>244</ele>
        <time>2021-08-14T10:33:56.000Z</time>
      </trkpt>
      <trkpt lat="49.81822" lon="4.85735">
        <ele>244</ele>
        <time>2021-08-14T10:33:57.000Z</time>
      </trkpt>
      <trkpt lat="49.81819" lon="4.85728">
        <ele>244</ele>
        <time>2021-08-14T10:33:58.000Z</time>
      </trkpt>
      <trkpt lat="49.81816" lon="4.85721">
        <ele>243</ele>
        <time>2021-08-14T10:33:59.000Z</time>
      </trkpt>
      <trkpt lat="49.81814" lon="4.85714">
        <ele>243</ele>
        <time>2021-08-14T10:34:00.000Z</time>
      </trkpt>
      <trkpt lat="49.81811" lon="4.85707">
        <ele>242</ele>
        <time>2021-08-14T10:34:01.000Z</time>
      </trkpt>
      <trkpt lat="49.81808" lon="4.85701">
        <ele>242</ele>
        <time>2021-08-14T10:34:02.000Z</time>
      </trkpt>
      <trkpt lat="49.81805" lon="4.85694">
        <ele>242</ele>
        <time>2021-08-14T10:34:03.000Z</time>
      </trkpt>
      <trkpt lat="49.81803" lon="4.85686">
        <ele>241</ele>
        <time>2021-08-14T10:34:04.000Z</time>
      </trkpt>
      <trkpt lat="49.818" lon="4.85679">
        <ele>241</ele>
        <time>2021-08-14T10:34:05.000Z</time>
      </trkpt>
      <trkpt lat="49.81797" lon="4.85672">
        <ele>241</ele>
        <time>2021-08-14T10:34:06.000Z</time>
      </trkpt>
      <trkpt lat="49.81795" lon="4.85664">
        <ele>240</ele>
        <time>2021-08-14T10:34:07.000Z</time>
      </trkpt>
      <trkpt lat="49.81792" lon="4.85657">
        <ele>240</ele>
        <time>2021-08-14T10:34:08.000Z</time>
      </trkpt>
      <trkpt lat="49.8179" lon="4.8565">
        <ele>240</ele>
        <time>2021-08-14T10:34:09.000Z</time>
      </trkpt>
      <trkpt lat="49.81787" lon="4.85643">
        <ele>239</ele>
        <time>2021-08-14T10:34:10.000Z</time>
      </trkpt>
      <trkpt lat="49.81784" lon="4.85637">
        <ele>239</ele>
        <time>2021-08-14T10:34:11.000Z</time>
      </trkpt>
      <trkpt lat="49.81781" lon="4.85631">
        <ele>239</ele>
        <time>2021-08-14T10:34:12.000Z</time>
      </trkpt>
      <trkpt lat="49.81779" lon="4.85626">
        <ele>239</ele>
        <time>2021-08-14T10:34:13.000Z</time>
      </trkpt>
      <trkpt lat="49.81777" lon="4.85622">
        <ele>238</ele>
        <time>2021-08-14T10:34:14.000Z</time>
      </trkpt>
      <trkpt lat="49.81776" lon="4.85619">
        <ele>238</ele>
        <time>2021-08-14T10:34:15.000Z</time>
      </trkpt>
      <trkpt lat="49.81775" lon="4.85617">
        <ele>238</ele>
        <time>2021-08-14T10:34:16.000Z</time>
      </trkpt>
      <trkpt lat="49.81773" lon="4.85614">
        <ele>237</ele>
        <time>2021-08-14T10:34:17.000Z</time>
      </trkpt>
      <trkpt lat="49.81771" lon="4.8561">
        <ele>237</ele>
        <time>2021-08-14T10:34:18.000Z</time>
      </trkpt>
      <trkpt lat="49.81769" lon="4.85606">
        <ele>237</ele>
        <time>2021-08-14T10:34:19.000Z</time>
      </trkpt>
      <trkpt lat="49.81767" lon="4.85602">
        <ele>237</ele>
        <time>2021-08-14T10:34:20.000Z</time>
      </trkpt>
      <trkpt lat="49.81765" lon="4.85598">
        <ele>237</ele>
        <time>2021-08-14T10:34:21.000Z</time>
      </trkpt>
      <trkpt lat="49.81763" lon="4.85594">
        <ele>236</ele>
        <time>2021-08-14T10:34:22.000Z</time>
      </trkpt>
      <trkpt lat="49.8176" lon="4.85588">
        <ele>236</ele>
        <time>2021-08-14T10:34:23.000Z</time>
      </trkpt>
      <trkpt lat="49.81758" lon="4.85583">
        <ele>236</ele>
        <time>2021-08-14T10:34:24.000Z</time>
      </trkpt>
      <trkpt lat="49.81756" lon="4.85578">
        <ele>236</ele>
        <time>2021-08-14T10:34:25.000Z</time>
      </trkpt>
      <trkpt lat="49.81753" lon="4.85573">
        <ele>236</ele>
        <time>2021-08-14T10:34:26.000Z</time>
      </trkpt>
      <trkpt lat="49.81751" lon="4.85568">
        <ele>235</ele>
        <time>2021-08-14T10:34:27.000Z</time>
      </trkpt>
      <trkpt lat="49.81748" lon="4.85564">
        <ele>235</ele>
        <time>2021-08-14T10:34:28.000Z</time>
      </trkpt>
      <trkpt lat="49.81745" lon="4.8556">
        <ele>235</ele>
        <time>2021-08-14T10:34:29.000Z</time>
      </trkpt>
      <trkpt lat="49.81743" lon="4.85557">
        <ele>235</ele>
        <time>2021-08-14T10:34:30.000Z</time>
      </trkpt>
      <trkpt lat="49.81741" lon="4.85554">
        <ele>235</ele>
        <time>2021-08-14T10:34:31.000Z</time>
      </trkpt>
      <trkpt lat="49.81739" lon="4.8555">
        <ele>235</ele>
        <time>2021-08-14T10:34:32.000Z</time>
      </trkpt>
      <trkpt lat="49.81736" lon="4.85546">
        <ele>235</ele>
        <time>2021-08-14T10:34:33.000Z</time>
      </trkpt>
      <trkpt lat="49.81733" lon="4.85542">
        <ele>235</ele>
        <time>2021-08-14T10:34:34.000Z</time>
      </trkpt>
      <trkpt lat="49.81731" lon="4.85537">
        <ele>235</ele>
        <time>2021-08-14T10:34:35.000Z</time>
      </trkpt>
      <trkpt lat="49.81728" lon="4.85532">
        <ele>235</ele>
        <time>2021-08-14T10:34:36.000Z</time>
      </trkpt>
      <trkpt lat="49.81725" lon="4.85527">
        <ele>234</ele>
        <time>2021-08-14T10:34:37.000Z</time>
      </trkpt>
      <trkpt lat="49.81722" lon="4.85521">
        <ele>234</ele>
        <time>2021-08-14T10:34:38.000Z</time>
      </trkpt>
      <trkpt lat="49.81719" lon="4.85516">
        <ele>234</ele>
        <time>2021-08-14T10:34:39.000Z</time>
      </trkpt>
      <trkpt lat="49.81716" lon="4.8551">
        <ele>234</ele>
        <time>2021-08-14T10:34:40.000Z</time>
      </trkpt>
      <trkpt lat="49.81713" lon="4.85503">
        <ele>234</ele>
        <time>2021-08-14T10:34:41.000Z</time>
      </trkpt>
      <trkpt lat="49.81711" lon="4.85496">
        <ele>234</ele>
        <time>2021-08-14T10:34:42.000Z</time>
      </trkpt>
      <trkpt lat="49.81709" lon="4.8549">
        <ele>233</ele>
        <time>2021-08-14T10:34:43.000Z</time>
      </trkpt>
      <trkpt lat="49.81707" lon="4.85484">
        <ele>233</ele>
        <time>2021-08-14T10:34:44.000Z</time>
      </trkpt>
      <trkpt lat="49.81705" lon="4.85479">
        <ele>233</ele>
        <time>2021-08-14T10:34:45.000Z</time>
      </trkpt>
      <trkpt lat="49.81703" lon="4.85473">
        <ele>233</ele>
        <time>2021-08-14T10:34:46.000Z</time>
      </trkpt>
      <trkpt lat="49.81701" lon="4.85467">
        <ele>233</ele>
        <time>2021-08-14T10:34:47.000Z</time>
      </trkpt>
      <trkpt lat="49.81699" lon="4.8546">
        <ele>233</ele>
        <time>2021-08-14T10:34:48.000Z</time>
      </trkpt>
      <trkpt lat="49.81698" lon="4.85454">
        <ele>233</ele>
        <time>2021-08-14T10:34:49.000Z</time>
      </trkpt>
      <trkpt lat="49.81696" lon="4.85447">
        <ele>233</ele>
        <time>2021-08-14T10:34:50.000Z</time>
      </trkpt>
      <trkpt lat="49.81695" lon="4.8544">
        <ele>232</ele>
        <time>2021-08-14T10:34:51.000Z</time>
      </trkpt>
      <trkpt lat="49.81693" lon="4.85433">
        <ele>232</ele>
        <time>2021-08-14T10:34:52.000Z</time>
      </trkpt>
      <trkpt lat="49.81691" lon="4.85425">
        <ele>232</ele>
        <time>2021-08-14T10:34:53.000Z</time>
      </trkpt>
      <trkpt lat="49.81689" lon="4.85418">
        <ele>231</ele>
        <time>2021-08-14T10:34:54.000Z</time>
      </trkpt>
      <trkpt lat="49.81687" lon="4.8541">
        <ele>231</ele>
        <time>2021-08-14T10:34:55.000Z</time>
      </trkpt>
      <trkpt lat="49.81685" lon="4.85402">
        <ele>231</ele>
        <time>2021-08-14T10:34:56.000Z</time>
      </trkpt>
      <trkpt lat="49.81683" lon="4.85395">
        <ele>231</ele>
        <time>2021-08-14T10:34:57.000Z</time>
      </trkpt>
      <trkpt lat="49.81682" lon="4.85386">
        <ele>231</ele>
        <time>2021-08-14T10:34:58.000Z</time>
      </trkpt>
      <trkpt lat="49.8168" lon="4.85378">
        <ele>230</ele>
        <time>2021-08-14T10:34:59.000Z</time>
      </trkpt>
      <trkpt lat="49.81677" lon="4.85369">
        <ele>230</ele>
        <time>2021-08-14T10:35:00.000Z</time>
      </trkpt>
      <trkpt lat="49.81674" lon="4.85359">
        <ele>230</ele>
        <time>2021-08-14T10:35:01.000Z</time>
      </trkpt>
      <trkpt lat="49.81671" lon="4.8535">
        <ele>230</ele>
        <time>2021-08-14T10:35:02.000Z</time>
      </trkpt>
      <trkpt lat="49.81668" lon="4.8534">
        <ele>229</ele>
        <time>2021-08-14T10:35:03.000Z</time>
      </trkpt>
      <trkpt lat="49.81665" lon="4.8533">
        <ele>229</ele>
        <time>2021-08-14T10:35:04.000Z</time>
      </trkpt>
      <trkpt lat="49.81661" lon="4.8532">
        <ele>229</ele>
        <time>2021-08-14T10:35:05.000Z</time>
      </trkpt>
      <trkpt lat="49.81658" lon="4.85311">
        <ele>228</ele>
        <time>2021-08-14T10:35:06.000Z</time>
      </trkpt>
      <trkpt lat="49.81654" lon="4.85301">
        <ele>228</ele>
        <time>2021-08-14T10:35:07.000Z</time>
      </trkpt>
      <trkpt lat="49.8165" lon="4.85292">
        <ele>228</ele>
        <time>2021-08-14T10:35:08.000Z</time>
      </trkpt>
      <trkpt lat="49.81647" lon="4.85282">
        <ele>227</ele>
        <time>2021-08-14T10:35:09.000Z</time>
      </trkpt>
      <trkpt lat="49.81644" lon="4.85271">
        <ele>227</ele>
        <time>2021-08-14T10:35:10.000Z</time>
      </trkpt>
      <trkpt lat="49.81641" lon="4.85261">
        <ele>226</ele>
        <time>2021-08-14T10:35:11.000Z</time>
      </trkpt>
      <trkpt lat="49.81637" lon="4.8525">
        <ele>226</ele>
        <time>2021-08-14T10:35:12.000Z</time>
      </trkpt>
      <trkpt lat="49.81634" lon="4.8524">
        <ele>225</ele>
        <time>2021-08-14T10:35:13.000Z</time>
      </trkpt>
      <trkpt lat="49.8163" lon="4.8523">
        <ele>225</ele>
        <time>2021-08-14T10:35:14.000Z</time>
      </trkpt>
      <trkpt lat="49.81626" lon="4.8522">
        <ele>224</ele>
        <time>2021-08-14T10:35:15.000Z</time>
      </trkpt>
      <trkpt lat="49.81623" lon="4.8521">
        <ele>223</ele>
        <time>2021-08-14T10:35:16.000Z</time>
      </trkpt>
      <trkpt lat="49.81619" lon="4.852">
        <ele>223</ele>
        <time>2021-08-14T10:35:17.000Z</time>
      </trkpt>
      <trkpt lat="49.81615" lon="4.8519">
        <ele>223</ele>
        <time>2021-08-14T10:35:18.000Z</time>
      </trkpt>
      <trkpt lat="49.81611" lon="4.8518">
        <ele>222</ele>
        <time>2021-08-14T10:35:19.000Z</time>
      </trkpt>
      <trkpt lat="49.81608" lon="4.85171">
        <ele>222</ele>
        <time>2021-08-14T10:35:20.000Z</time>
      </trkpt>
      <trkpt lat="49.81604" lon="4.85161">
        <ele>222</ele>
        <time>2021-08-14T10:35:21.000Z</time>
      </trkpt>
      <trkpt lat="49.816" lon="4.85152">
        <ele>221</ele>
        <time>2021-08-14T10:35:22.000Z</time>
      </trkpt>
      <trkpt lat="49.81597" lon="4.85144">
        <ele>221</ele>
        <time>2021-08-14T10:35:23.000Z</time>
      </trkpt>
      <trkpt lat="49.81593" lon="4.85136">
        <ele>221</ele>
        <time>2021-08-14T10:35:24.000Z</time>
      </trkpt>
      <trkpt lat="49.81588" lon="4.85128">
        <ele>220</ele>
        <time>2021-08-14T10:35:25.000Z</time>
      </trkpt>
      <trkpt lat="49.81585" lon="4.85119">
        <ele>220</ele>
        <time>2021-08-14T10:35:26.000Z</time>
      </trkpt>
      <trkpt lat="49.81581" lon="4.85111">
        <ele>220</ele>
        <time>2021-08-14T10:35:27.000Z</time>
      </trkpt>
      <trkpt lat="49.81577" lon="4.85103">
        <ele>220</ele>
        <time>2021-08-14T10:35:28.000Z</time>
      </trkpt>
      <trkpt lat="49.81573" lon="4.85096">
        <ele>219</ele>
        <time>2021-08-14T10:35:29.000Z</time>
      </trkpt>
      <trkpt lat="49.81569" lon="4.85088">
        <ele>219</ele>
        <time>2021-08-14T10:35:30.000Z</time>
      </trkpt>
      <trkpt lat="49.81566" lon="4.85081">
        <ele>219</ele>
        <time>2021-08-14T10:35:31.000Z</time>
      </trkpt>
      <trkpt lat="49.81563" lon="4.85073">
        <ele>219</ele>
        <time>2021-08-14T10:35:32.000Z</time>
      </trkpt>
      <trkpt lat="49.8156" lon="4.85065">
        <ele>219</ele>
        <time>2021-08-14T10:35:33.000Z</time>
      </trkpt>
      <trkpt lat="49.81559" lon="4.85056">
        <ele>219</ele>
        <time>2021-08-14T10:35:34.000Z</time>
      </trkpt>
      <trkpt lat="49.81558" lon="4.85048">
        <ele>219</ele>
        <time>2021-08-14T10:35:35.000Z</time>
      </trkpt>
      <trkpt lat="49.81558" lon="4.8504">
        <ele>219</ele>
        <time>2021-08-14T10:35:36.000Z</time>
      </trkpt>
      <trkpt lat="49.81558" lon="4.85033">
        <ele>219</ele>
        <time>2021-08-14T10:35:37.000Z</time>
      </trkpt>
      <trkpt lat="49.81558" lon="4.85026">
        <ele>219</ele>
        <time>2021-08-14T10:35:38.000Z</time>
      </trkpt>
      <trkpt lat="49.81558" lon="4.85019">
        <ele>219</ele>
        <time>2021-08-14T10:35:39.000Z</time>
      </trkpt>
      <trkpt lat="49.81558" lon="4.85013">
        <ele>219</ele>
        <time>2021-08-14T10:35:40.000Z</time>
      </trkpt>
      <trkpt lat="49.81558" lon="4.85007">
        <ele>219</ele>
        <time>2021-08-14T10:35:41.000Z</time>
      </trkpt>
      <trkpt lat="49.81559" lon="4.85001">
        <ele>219</ele>
        <time>2021-08-14T10:35:42.000Z</time>
      </trkpt>
      <trkpt lat="49.81558" lon="4.84995">
        <ele>219</ele>
        <time>2021-08-14T10:35:43.000Z</time>
      </trkpt>
      <trkpt lat="49.81557" lon="4.8499">
        <ele>219</ele>
        <time>2021-08-14T10:35:44.000Z</time>
      </trkpt>
      <trkpt lat="49.81555" lon="4.84987">
        <ele>219</ele>
        <time>2021-08-14T10:35:45.000Z</time>
      </trkpt>
      <trkpt lat="49.81552" lon="4.84986">
        <ele>219</ele>
        <time>2021-08-14T10:35:46.000Z</time>
      </trkpt>
      <trkpt lat="49.8155" lon="4.84986">
        <ele>219</ele>
        <time>2021-08-14T10:35:47.000Z</time>
      </trkpt>
      <trkpt lat="49.81548" lon="4.84987">
        <ele>219</ele>
        <time>2021-08-14T10:35:48.000Z</time>
      </trkpt>
      <trkpt lat="49.81546" lon="4.84989">
        <ele>220</ele>
        <time>2021-08-14T10:35:49.000Z</time>
      </trkpt>
      <trkpt lat="49.81545" lon="4.84991">
        <ele>220</ele>
        <time>2021-08-14T10:35:50.000Z</time>
      </trkpt>
      <trkpt lat="49.81543" lon="4.84992">
        <ele>220</ele>
        <time>2021-08-14T10:35:51.000Z</time>
      </trkpt>
      <trkpt lat="49.8154" lon="4.84993">
        <ele>220</ele>
        <time>2021-08-14T10:35:52.000Z</time>
      </trkpt>
      <trkpt lat="49.81538" lon="4.84993">
        <ele>220</ele>
        <time>2021-08-14T10:35:53.000Z</time>
      </trkpt>
      <trkpt lat="49.81536" lon="4.84993">
        <ele>220</ele>
        <time>2021-08-14T10:35:54.000Z</time>
      </trkpt>
      <trkpt lat="49.81534" lon="4.84992">
        <ele>221</ele>
        <time>2021-08-14T10:35:55.000Z</time>
      </trkpt>
      <trkpt lat="49.81532" lon="4.8499">
        <ele>221</ele>
        <time>2021-08-14T10:35:56.000Z</time>
      </trkpt>
      <trkpt lat="49.8153" lon="4.84988">
        <ele>221</ele>
        <time>2021-08-14T10:35:57.000Z</time>
      </trkpt>
      <trkpt lat="49.81528" lon="4.84985">
        <ele>221</ele>
        <time>2021-08-14T10:35:58.000Z</time>
      </trkpt>
      <trkpt lat="49.81527" lon="4.84982">
        <ele>221</ele>
        <time>2021-08-14T10:35:59.000Z</time>
      </trkpt>
      <trkpt lat="49.81527" lon="4.84979">
        <ele>222</ele>
        <time>2021-08-14T10:36:00.000Z</time>
      </trkpt>
      <trkpt lat="49.81528" lon="4.84975">
        <ele>222</ele>
        <time>2021-08-14T10:36:01.000Z</time>
      </trkpt>
      <trkpt lat="49.81529" lon="4.84972">
        <ele>222</ele>
        <time>2021-08-14T10:36:02.000Z</time>
      </trkpt>
      <trkpt lat="49.81531" lon="4.84968">
        <ele>221</ele>
        <time>2021-08-14T10:36:03.000Z</time>
      </trkpt>
      <trkpt lat="49.81533" lon="4.84963">
        <ele>221</ele>
        <time>2021-08-14T10:36:04.000Z</time>
      </trkpt>
      <trkpt lat="49.81535" lon="4.84957">
        <ele>221</ele>
        <time>2021-08-14T10:36:05.000Z</time>
      </trkpt>
      <trkpt lat="49.81537" lon="4.84952">
        <ele>221</ele>
        <time>2021-08-14T10:36:06.000Z</time>
      </trkpt>
      <trkpt lat="49.81539" lon="4.84945">
        <ele>221</ele>
        <time>2021-08-14T10:36:07.000Z</time>
      </trkpt>
      <trkpt lat="49.8154" lon="4.84939">
        <ele>221</ele>
        <time>2021-08-14T10:36:08.000Z</time>
      </trkpt>
      <trkpt lat="49.81542" lon="4.84932">
        <ele>222</ele>
        <time>2021-08-14T10:36:09.000Z</time>
      </trkpt>
      <trkpt lat="49.81542" lon="4.84925">
        <ele>222</ele>
        <time>2021-08-14T10:36:10.000Z</time>
      </trkpt>
      <trkpt lat="49.81543" lon="4.84918">
        <ele>222</ele>
        <time>2021-08-14T10:36:11.000Z</time>
      </trkpt>
      <trkpt lat="49.81544" lon="4.84913">
        <ele>222</ele>
        <time>2021-08-14T10:36:12.000Z</time>
      </trkpt>
      <trkpt lat="49.81544" lon="4.84907">
        <ele>222</ele>
        <time>2021-08-14T10:36:13.000Z</time>
      </trkpt>
      <trkpt lat="49.81544" lon="4.84902">
        <ele>222</ele>
        <time>2021-08-14T10:36:14.000Z</time>
      </trkpt>
      <trkpt lat="49.81544" lon="4.84897">
        <ele>222</ele>
        <time>2021-08-14T10:36:15.000Z</time>
      </trkpt>
      <trkpt lat="49.81543" lon="4.84891">
        <ele>222</ele>
        <time>2021-08-14T10:36:16.000Z</time>
      </trkpt>
      <trkpt lat="49.81543" lon="4.84886">
        <ele>222</ele>
        <time>2021-08-14T10:36:17.000Z</time>
      </trkpt>
      <trkpt lat="49.81541" lon="4.84879">
        <ele>222</ele>
        <time>2021-08-14T10:36:18.000Z</time>
      </trkpt>
      <trkpt lat="49.8154" lon="4.84873">
        <ele>223</ele>
        <time>2021-08-14T10:36:19.000Z</time>
      </trkpt>
      <trkpt lat="49.81539" lon="4.84866">
        <ele>223</ele>
        <time>2021-08-14T10:36:20.000Z</time>
      </trkpt>
      <trkpt lat="49.81537" lon="4.8486">
        <ele>223</ele>
        <time>2021-08-14T10:36:21.000Z</time>
      </trkpt>
      <trkpt lat="49.81536" lon="4.84854">
        <ele>223</ele>
        <time>2021-08-14T10:36:22.000Z</time>
      </trkpt>
      <trkpt lat="49.81535" lon="4.84847">
        <ele>223</ele>
        <time>2021-08-14T10:36:23.000Z</time>
      </trkpt>
      <trkpt lat="49.81533" lon="4.8484">
        <ele>223</ele>
        <time>2021-08-14T10:36:24.000Z</time>
      </trkpt>
      <trkpt lat="49.81532" lon="4.84834">
        <ele>223</ele>
        <time>2021-08-14T10:36:25.000Z</time>
      </trkpt>
      <trkpt lat="49.81531" lon="4.84826">
        <ele>223</ele>
        <time>2021-08-14T10:36:26.000Z</time>
      </trkpt>
      <trkpt lat="49.8153" lon="4.84819">
        <ele>223</ele>
        <time>2021-08-14T10:36:27.000Z</time>
      </trkpt>
      <trkpt lat="49.81528" lon="4.84813">
        <ele>223</ele>
        <time>2021-08-14T10:36:28.000Z</time>
      </trkpt>
      <trkpt lat="49.81527" lon="4.84807">
        <ele>223</ele>
        <time>2021-08-14T10:36:29.000Z</time>
      </trkpt>
      <trkpt lat="49.81525" lon="4.848">
        <ele>223</ele>
        <time>2021-08-14T10:36:30.000Z</time>
      </trkpt>
      <trkpt lat="49.81524" lon="4.84793">
        <ele>223</ele>
        <time>2021-08-14T10:36:31.000Z</time>
      </trkpt>
      <trkpt lat="49.81522" lon="4.84785">
        <ele>223</ele>
        <time>2021-08-14T10:36:32.000Z</time>
      </trkpt>
      <trkpt lat="49.8152" lon="4.84777">
        <ele>223</ele>
        <time>2021-08-14T10:36:33.000Z</time>
      </trkpt>
      <trkpt lat="49.81519" lon="4.84769">
        <ele>222</ele>
        <time>2021-08-14T10:36:34.000Z</time>
      </trkpt>
      <trkpt lat="49.81517" lon="4.84762">
        <ele>222</ele>
        <time>2021-08-14T10:36:35.000Z</time>
      </trkpt>
      <trkpt lat="49.81516" lon="4.84755">
        <ele>222</ele>
        <time>2021-08-14T10:36:36.000Z</time>
      </trkpt>
      <trkpt lat="49.81514" lon="4.84747">
        <ele>222</ele>
        <time>2021-08-14T10:36:37.000Z</time>
      </trkpt>
      <trkpt lat="49.81512" lon="4.84739">
        <ele>222</ele>
        <time>2021-08-14T10:36:38.000Z</time>
      </trkpt>
      <trkpt lat="49.8151" lon="4.84732">
        <ele>223</ele>
        <time>2021-08-14T10:36:39.000Z</time>
      </trkpt>
      <trkpt lat="49.81508" lon="4.84724">
        <ele>223</ele>
        <time>2021-08-14T10:36:40.000Z</time>
      </trkpt>
      <trkpt lat="49.81506" lon="4.84717">
        <ele>223</ele>
        <time>2021-08-14T10:36:41.000Z</time>
      </trkpt>
      <trkpt lat="49.81504" lon="4.8471">
        <ele>223</ele>
        <time>2021-08-14T10:36:42.000Z</time>
      </trkpt>
      <trkpt lat="49.81503" lon="4.84702">
        <ele>223</ele>
        <time>2021-08-14T10:36:43.000Z</time>
      </trkpt>
      <trkpt lat="49.81501" lon="4.84695">
        <ele>223</ele>
        <time>2021-08-14T10:36:44.000Z</time>
      </trkpt>
      <trkpt lat="49.81499" lon="4.84687">
        <ele>223</ele>
        <time>2021-08-14T10:36:45.000Z</time>
      </trkpt>
      <trkpt lat="49.81497" lon="4.8468">
        <ele>223</ele>
        <time>2021-08-14T10:36:46.000Z</time>
      </trkpt>
      <trkpt lat="49.81495" lon="4.84673">
        <ele>223</ele>
        <time>2021-08-14T10:36:47.000Z</time>
      </trkpt>
      <trkpt lat="49.81492" lon="4.84666">
        <ele>223</ele>
        <time>2021-08-14T10:36:48.000Z</time>
      </trkpt>
      <trkpt lat="49.81488" lon="4.84661">
        <ele>222</ele>
        <time>2021-08-14T10:36:49.000Z</time>
      </trkpt>
      <trkpt lat="49.81484" lon="4.84655">
        <ele>222</ele>
        <time>2021-08-14T10:36:50.000Z</time>
      </trkpt>
      <trkpt lat="49.8148" lon="4.84651">
        <ele>222</ele>
        <time>2021-08-14T10:36:51.000Z</time>
      </trkpt>
      <trkpt lat="49.81476" lon="4.84647">
        <ele>222</ele>
        <time>2021-08-14T10:36:52.000Z</time>
      </trkpt>
      <trkpt lat="49.81471" lon="4.84644">
        <ele>222</ele>
        <time>2021-08-14T10:36:53.000Z</time>
      </trkpt>
      <trkpt lat="49.81467" lon="4.84641">
        <ele>222</ele>
        <time>2021-08-14T10:36:54.000Z</time>
      </trkpt>
      <trkpt lat="49.81464" lon="4.84638">
        <ele>222</ele>
        <time>2021-08-14T10:36:55.000Z</time>
      </trkpt>
      <trkpt lat="49.81461" lon="4.84633">
        <ele>222</ele>
        <time>2021-08-14T10:36:56.000Z</time>
      </trkpt>
      <trkpt lat="49.81461" lon="4.84626">
        <ele>222</ele>
        <time>2021-08-14T10:36:57.000Z</time>
      </trkpt>
      <trkpt lat="49.81461" lon="4.84618">
        <ele>222</ele>
        <time>2021-08-14T10:36:58.000Z</time>
      </trkpt>
      <trkpt lat="49.81462" lon="4.84609">
        <ele>222</ele>
        <time>2021-08-14T10:36:59.000Z</time>
      </trkpt>
      <trkpt lat="49.81462" lon="4.84599">
        <ele>222</ele>
        <time>2021-08-14T10:37:00.000Z</time>
      </trkpt>
      <trkpt lat="49.81463" lon="4.8459">
        <ele>221</ele>
        <time>2021-08-14T10:37:01.000Z</time>
      </trkpt>
      <trkpt lat="49.81463" lon="4.84581">
        <ele>221</ele>
        <time>2021-08-14T10:37:02.000Z</time>
      </trkpt>
      <trkpt lat="49.81463" lon="4.84572">
        <ele>221</ele>
        <time>2021-08-14T10:37:03.000Z</time>
      </trkpt>
      <trkpt lat="49.81463" lon="4.84563">
        <ele>221</ele>
        <time>2021-08-14T10:37:04.000Z</time>
      </trkpt>
      <trkpt lat="49.81462" lon="4.84553">
        <ele>221</ele>
        <time>2021-08-14T10:37:05.000Z</time>
      </trkpt>
      <trkpt lat="49.81462" lon="4.84542">
        <ele>221</ele>
        <time>2021-08-14T10:37:06.000Z</time>
      </trkpt>
      <trkpt lat="49.81462" lon="4.8453">
        <ele>221</ele>
        <time>2021-08-14T10:37:07.000Z</time>
      </trkpt>
      <trkpt lat="49.81462" lon="4.84519">
        <ele>220</ele>
        <time>2021-08-14T10:37:08.000Z</time>
      </trkpt>
      <trkpt lat="49.81462" lon="4.84509">
        <ele>220</ele>
        <time>2021-08-14T10:37:09.000Z</time>
      </trkpt>
      <trkpt lat="49.81461" lon="4.84499">
        <ele>220</ele>
        <time>2021-08-14T10:37:10.000Z</time>
      </trkpt>
      <trkpt lat="49.81461" lon="4.84489">
        <ele>220</ele>
        <time>2021-08-14T10:37:11.000Z</time>
      </trkpt>
      <trkpt lat="49.81461" lon="4.84479">
        <ele>219</ele>
        <time>2021-08-14T10:37:12.000Z</time>
      </trkpt>
      <trkpt lat="49.81461" lon="4.84469">
        <ele>219</ele>
        <time>2021-08-14T10:37:13.000Z</time>
      </trkpt>
      <trkpt lat="49.8146" lon="4.8446">
        <ele>219</ele>
        <time>2021-08-14T10:37:14.000Z</time>
      </trkpt>
      <trkpt lat="49.8146" lon="4.84451">
        <ele>219</ele>
        <time>2021-08-14T10:37:15.000Z</time>
      </trkpt>
      <trkpt lat="49.8146" lon="4.84443">
        <ele>218</ele>
        <time>2021-08-14T10:37:16.000Z</time>
      </trkpt>
      <trkpt lat="49.81461" lon="4.84436">
        <ele>218</ele>
        <time>2021-08-14T10:37:17.000Z</time>
      </trkpt>
      <trkpt lat="49.81463" lon="4.84429">
        <ele>218</ele>
        <time>2021-08-14T10:37:18.000Z</time>
      </trkpt>
      <trkpt lat="49.81466" lon="4.84425">
        <ele>217</ele>
        <time>2021-08-14T10:37:19.000Z</time>
      </trkpt>
      <trkpt lat="49.81469" lon="4.8442">
        <ele>217</ele>
        <time>2021-08-14T10:37:20.000Z</time>
      </trkpt>
      <trkpt lat="49.81471" lon="4.84415">
        <ele>217</ele>
        <time>2021-08-14T10:37:21.000Z</time>
      </trkpt>
      <trkpt lat="49.81472" lon="4.84408">
        <ele>216</ele>
        <time>2021-08-14T10:37:22.000Z</time>
      </trkpt>
      <trkpt lat="49.81473" lon="4.84401">
        <ele>216</ele>
        <time>2021-08-14T10:37:23.000Z</time>
      </trkpt>
      <trkpt lat="49.81472" lon="4.84394">
        <ele>216</ele>
        <time>2021-08-14T10:37:24.000Z</time>
      </trkpt>
      <trkpt lat="49.81472" lon="4.84387">
        <ele>216</ele>
        <time>2021-08-14T10:37:25.000Z</time>
      </trkpt>
      <trkpt lat="49.81472" lon="4.84379">
        <ele>216</ele>
        <time>2021-08-14T10:37:26.000Z</time>
      </trkpt>
      <trkpt lat="49.81472" lon="4.84372">
        <ele>216</ele>
        <time>2021-08-14T10:37:27.000Z</time>
      </trkpt>
      <trkpt lat="49.81473" lon="4.84364">
        <ele>215</ele>
        <time>2021-08-14T10:37:28.000Z</time>
      </trkpt>
      <trkpt lat="49.81474" lon="4.84356">
        <ele>215</ele>
        <time>2021-08-14T10:37:29.000Z</time>
      </trkpt>
      <trkpt lat="49.81475" lon="4.84349">
        <ele>215</ele>
        <time>2021-08-14T10:37:30.000Z</time>
      </trkpt>
      <trkpt lat="49.81476" lon="4.84341">
        <ele>215</ele>
        <time>2021-08-14T10:37:31.000Z</time>
      </trkpt>
      <trkpt lat="49.81478" lon="4.84334">
        <ele>215</ele>
        <time>2021-08-14T10:37:32.000Z</time>
      </trkpt>
      <trkpt lat="49.81481" lon="4.84326">
        <ele>215</ele>
        <time>2021-08-14T10:37:33.000Z</time>
      </trkpt>
      <trkpt lat="49.81483" lon="4.84319">
        <ele>215</ele>
        <time>2021-08-14T10:37:34.000Z</time>
      </trkpt>
      <trkpt lat="49.81484" lon="4.84311">
        <ele>215</ele>
        <time>2021-08-14T10:37:35.000Z</time>
      </trkpt>
      <trkpt lat="49.81487" lon="4.84304">
        <ele>215</ele>
        <time>2021-08-14T10:37:36.000Z</time>
      </trkpt>
      <trkpt lat="49.81489" lon="4.84297">
        <ele>215</ele>
        <time>2021-08-14T10:37:37.000Z</time>
      </trkpt>
      <trkpt lat="49.81491" lon="4.84289">
        <ele>215</ele>
        <time>2021-08-14T10:37:38.000Z</time>
      </trkpt>
      <trkpt lat="49.81492" lon="4.84281">
        <ele>215</ele>
        <time>2021-08-14T10:37:39.000Z</time>
      </trkpt>
      <trkpt lat="49.81493" lon="4.84274">
        <ele>215</ele>
        <time>2021-08-14T10:37:40.000Z</time>
      </trkpt>
      <trkpt lat="49.81494" lon="4.84267">
        <ele>215</ele>
        <time>2021-08-14T10:37:41.000Z</time>
      </trkpt>
      <trkpt lat="49.81494" lon="4.8426">
        <ele>215</ele>
        <time>2021-08-14T10:37:42.000Z</time>
      </trkpt>
      <trkpt lat="49.81494" lon="4.84253">
        <ele>215</ele>
        <time>2021-08-14T10:37:43.000Z</time>
      </trkpt>
      <trkpt lat="49.81494" lon="4.84246">
        <ele>214</ele>
        <time>2021-08-14T10:37:44.000Z</time>
      </trkpt>
      <trkpt lat="49.81494" lon="4.84241">
        <ele>214</ele>
        <time>2021-08-14T10:37:45.000Z</time>
      </trkpt>
      <trkpt lat="49.81493" lon="4.84238">
        <ele>214</ele>
        <time>2021-08-14T10:37:46.000Z</time>
      </trkpt>
      <trkpt lat="49.81492" lon="4.84234">
        <ele>214</ele>
        <time>2021-08-14T10:37:47.000Z</time>
      </trkpt>
      <trkpt lat="49.81491" lon="4.8423">
        <ele>214</ele>
        <time>2021-08-14T10:37:48.000Z</time>
      </trkpt>
      <trkpt lat="49.8149" lon="4.84226">
        <ele>214</ele>
        <time>2021-08-14T10:37:49.000Z</time>
      </trkpt>
      <trkpt lat="49.81489" lon="4.84221">
        <ele>214</ele>
        <time>2021-08-14T10:37:50.000Z</time>
      </trkpt>
      <trkpt lat="49.81489" lon="4.84217">
        <ele>214</ele>
        <time>2021-08-14T10:37:51.000Z</time>
      </trkpt>
      <trkpt lat="49.8149" lon="4.84213">
        <ele>214</ele>
        <time>2021-08-14T10:37:52.000Z</time>
      </trkpt>
      <trkpt lat="49.81491" lon="4.84209">
        <ele>214</ele>
        <time>2021-08-14T10:37:53.000Z</time>
      </trkpt>
      <trkpt lat="49.81492" lon="4.84206">
        <ele>214</ele>
        <time>2021-08-14T10:37:54.000Z</time>
      </trkpt>
      <trkpt lat="49.81494" lon="4.84201">
        <ele>214</ele>
        <time>2021-08-14T10:37:55.000Z</time>
      </trkpt>
      <trkpt lat="49.81494" lon="4.84196">
        <ele>214</ele>
        <time>2021-08-14T10:37:56.000Z</time>
      </trkpt>
      <trkpt lat="49.81496" lon="4.8419">
        <ele>214</ele>
        <time>2021-08-14T10:37:57.000Z</time>
      </trkpt>
      <trkpt lat="49.81497" lon="4.84183">
        <ele>214</ele>
        <time>2021-08-14T10:37:58.000Z</time>
      </trkpt>
      <trkpt lat="49.81498" lon="4.84176">
        <ele>213</ele>
        <time>2021-08-14T10:37:59.000Z</time>
      </trkpt>
      <trkpt lat="49.81499" lon="4.84169">
        <ele>213</ele>
        <time>2021-08-14T10:38:00.000Z</time>
      </trkpt>
      <trkpt lat="49.81499" lon="4.84162">
        <ele>213</ele>
        <time>2021-08-14T10:38:01.000Z</time>
      </trkpt>
      <trkpt lat="49.815" lon="4.84155">
        <ele>213</ele>
        <time>2021-08-14T10:38:02.000Z</time>
      </trkpt>
      <trkpt lat="49.815" lon="4.84147">
        <ele>213</ele>
        <time>2021-08-14T10:38:03.000Z</time>
      </trkpt>
      <trkpt lat="49.815" lon="4.8414">
        <ele>213</ele>
        <time>2021-08-14T10:38:04.000Z</time>
      </trkpt>
      <trkpt lat="49.81501" lon="4.84134">
        <ele>213</ele>
        <time>2021-08-14T10:38:05.000Z</time>
      </trkpt>
      <trkpt lat="49.81502" lon="4.84127">
        <ele>213</ele>
        <time>2021-08-14T10:38:06.000Z</time>
      </trkpt>
      <trkpt lat="49.81502" lon="4.8412">
        <ele>213</ele>
        <time>2021-08-14T10:38:07.000Z</time>
      </trkpt>
      <trkpt lat="49.81503" lon="4.84113">
        <ele>213</ele>
        <time>2021-08-14T10:38:08.000Z</time>
      </trkpt>
      <trkpt lat="49.81503" lon="4.84106">
        <ele>213</ele>
        <time>2021-08-14T10:38:09.000Z</time>
      </trkpt>
      <trkpt lat="49.81504" lon="4.84099">
        <ele>212</ele>
        <time>2021-08-14T10:38:10.000Z</time>
      </trkpt>
      <trkpt lat="49.81504" lon="4.84092">
        <ele>212</ele>
        <time>2021-08-14T10:38:11.000Z</time>
      </trkpt>
      <trkpt lat="49.81503" lon="4.84085">
        <ele>212</ele>
        <time>2021-08-14T10:38:12.000Z</time>
      </trkpt>
      <trkpt lat="49.81503" lon="4.84077">
        <ele>212</ele>
        <time>2021-08-14T10:38:13.000Z</time>
      </trkpt>
      <trkpt lat="49.81503" lon="4.84069">
        <ele>212</ele>
        <time>2021-08-14T10:38:14.000Z</time>
      </trkpt>
      <trkpt lat="49.81502" lon="4.84062">
        <ele>212</ele>
        <time>2021-08-14T10:38:15.000Z</time>
      </trkpt>
      <trkpt lat="49.81501" lon="4.84053">
        <ele>212</ele>
        <time>2021-08-14T10:38:16.000Z</time>
      </trkpt>
      <trkpt lat="49.81499" lon="4.84045">
        <ele>213</ele>
        <time>2021-08-14T10:38:17.000Z</time>
      </trkpt>
      <trkpt lat="49.81499" lon="4.84038">
        <ele>213</ele>
        <time>2021-08-14T10:38:18.000Z</time>
      </trkpt>
      <trkpt lat="49.81498" lon="4.8403">
        <ele>213</ele>
        <time>2021-08-14T10:38:19.000Z</time>
      </trkpt>
      <trkpt lat="49.81497" lon="4.84024">
        <ele>213</ele>
        <time>2021-08-14T10:38:20.000Z</time>
      </trkpt>
      <trkpt lat="49.81495" lon="4.84017">
        <ele>213</ele>
        <time>2021-08-14T10:38:21.000Z</time>
      </trkpt>
      <trkpt lat="49.81495" lon="4.8401">
        <ele>213</ele>
        <time>2021-08-14T10:38:22.000Z</time>
      </trkpt>
      <trkpt lat="49.81494" lon="4.84003">
        <ele>213</ele>
        <time>2021-08-14T10:38:23.000Z</time>
      </trkpt>
      <trkpt lat="49.81492" lon="4.83995">
        <ele>213</ele>
        <time>2021-08-14T10:38:24.000Z</time>
      </trkpt>
      <trkpt lat="49.81491" lon="4.83986">
        <ele>213</ele>
        <time>2021-08-14T10:38:25.000Z</time>
      </trkpt>
      <trkpt lat="49.81489" lon="4.83978">
        <ele>214</ele>
        <time>2021-08-14T10:38:26.000Z</time>
      </trkpt>
      <trkpt lat="49.81488" lon="4.83969">
        <ele>214</ele>
        <time>2021-08-14T10:38:27.000Z</time>
      </trkpt>
      <trkpt lat="49.81487" lon="4.8396">
        <ele>214</ele>
        <time>2021-08-14T10:38:28.000Z</time>
      </trkpt>
      <trkpt lat="49.81485" lon="4.83951">
        <ele>214</ele>
        <time>2021-08-14T10:38:29.000Z</time>
      </trkpt>
      <trkpt lat="49.81483" lon="4.83943">
        <ele>214</ele>
        <time>2021-08-14T10:38:30.000Z</time>
      </trkpt>
      <trkpt lat="49.81482" lon="4.83935">
        <ele>214</ele>
        <time>2021-08-14T10:38:31.000Z</time>
      </trkpt>
      <trkpt lat="49.8148" lon="4.83927">
        <ele>214</ele>
        <time>2021-08-14T10:38:32.000Z</time>
      </trkpt>
      <trkpt lat="49.81479" lon="4.83918">
        <ele>214</ele>
        <time>2021-08-14T10:38:33.000Z</time>
      </trkpt>
      <trkpt lat="49.81477" lon="4.8391">
        <ele>214</ele>
        <time>2021-08-14T10:38:34.000Z</time>
      </trkpt>
      <trkpt lat="49.81477" lon="4.83902">
        <ele>214</ele>
        <time>2021-08-14T10:38:35.000Z</time>
      </trkpt>
      <trkpt lat="49.81476" lon="4.83894">
        <ele>214</ele>
        <time>2021-08-14T10:38:36.000Z</time>
      </trkpt>
      <trkpt lat="49.81475" lon="4.83885">
        <ele>214</ele>
        <time>2021-08-14T10:38:37.000Z</time>
      </trkpt>
      <trkpt lat="49.81473" lon="4.83878">
        <ele>214</ele>
        <time>2021-08-14T10:38:38.000Z</time>
      </trkpt>
      <trkpt lat="49.81472" lon="4.83872">
        <ele>214</ele>
        <time>2021-08-14T10:38:39.000Z</time>
      </trkpt>
      <trkpt lat="49.8147" lon="4.83867">
        <ele>214</ele>
        <time>2021-08-14T10:38:40.000Z</time>
      </trkpt>
      <trkpt lat="49.81468" lon="4.83864">
        <ele>214</ele>
        <time>2021-08-14T10:38:41.000Z</time>
      </trkpt>
      <trkpt lat="49.81466" lon="4.83862">
        <ele>214</ele>
        <time>2021-08-14T10:38:42.000Z</time>
      </trkpt>
      <trkpt lat="49.81463" lon="4.83861">
        <ele>214</ele>
        <time>2021-08-14T10:38:43.000Z</time>
      </trkpt>
      <trkpt lat="49.81462" lon="4.8386">
        <ele>214</ele>
        <time>2021-08-14T10:38:44.000Z</time>
      </trkpt>
      <trkpt lat="49.8146" lon="4.83859">
        <ele>214</ele>
        <time>2021-08-14T10:38:45.000Z</time>
      </trkpt>
      <trkpt lat="49.81458" lon="4.83859">
        <ele>214</ele>
        <time>2021-08-14T10:38:46.000Z</time>
      </trkpt>
      <trkpt lat="49.81456" lon="4.83858">
        <ele>214</ele>
        <time>2021-08-14T10:38:47.000Z</time>
      </trkpt>
      <trkpt lat="49.81455" lon="4.83858">
        <ele>214</ele>
        <time>2021-08-14T10:38:48.000Z</time>
      </trkpt>
      <trkpt lat="49.81454" lon="4.83858">
        <ele>214</ele>
        <time>2021-08-14T10:38:49.000Z</time>
      </trkpt>
      <trkpt lat="49.81453" lon="4.83857">
        <ele>214</ele>
        <time>2021-08-14T10:38:50.000Z</time>
      </trkpt>
      <trkpt lat="49.81452" lon="4.83857">
        <ele>214</ele>
        <time>2021-08-14T10:38:51.000Z</time>
      </trkpt>
      <trkpt lat="49.8145" lon="4.83857">
        <ele>214</ele>
        <time>2021-08-14T10:38:52.000Z</time>
      </trkpt>
      <trkpt lat="49.81448" lon="4.83858">
        <ele>215</ele>
        <time>2021-08-14T10:38:53.000Z</time>
      </trkpt>
      <trkpt lat="49.81447" lon="4.83858">
        <ele>215</ele>
        <time>2021-08-14T10:38:54.000Z</time>
      </trkpt>
      <trkpt lat="49.81445" lon="4.83858">
        <ele>215</ele>
        <time>2021-08-14T10:38:55.000Z</time>
      </trkpt>
      <trkpt lat="49.81444" lon="4.83859">
        <ele>215</ele>
        <time>2021-08-14T10:38:56.000Z</time>
      </trkpt>
      <trkpt lat="49.81442" lon="4.83859">
        <ele>216</ele>
        <time>2021-08-14T10:38:57.000Z</time>
      </trkpt>
      <trkpt lat="49.8144" lon="4.83859">
        <ele>216</ele>
        <time>2021-08-14T10:38:58.000Z</time>
      </trkpt>
      <trkpt lat="49.81438" lon="4.83859">
        <ele>216</ele>
        <time>2021-08-14T10:38:59.000Z</time>
      </trkpt>
      <trkpt lat="49.81436" lon="4.83859">
        <ele>217</ele>
        <time>2021-08-14T10:39:00.000Z</time>
      </trkpt>
      <trkpt lat="49.81434" lon="4.83859">
        <ele>217</ele>
        <time>2021-08-14T10:39:01.000Z</time>
      </trkpt>
      <trkpt lat="49.81432" lon="4.83858">
        <ele>217</ele>
        <time>2021-08-14T10:39:02.000Z</time>
      </trkpt>
      <trkpt lat="49.81431" lon="4.83856">
        <ele>218</ele>
        <time>2021-08-14T10:39:03.000Z</time>
      </trkpt>
      <trkpt lat="49.81429" lon="4.83854">
        <ele>218</ele>
        <time>2021-08-14T10:39:04.000Z</time>
      </trkpt>
      <trkpt lat="49.81427" lon="4.83853">
        <ele>218</ele>
        <time>2021-08-14T10:39:05.000Z</time>
      </trkpt>
      <trkpt lat="49.81426" lon="4.83851">
        <ele>218</ele>
        <time>2021-08-14T10:39:06.000Z</time>
      </trkpt>
      <trkpt lat="49.81424" lon="4.8385">
        <ele>218</ele>
        <time>2021-08-14T10:39:07.000Z</time>
      </trkpt>
      <trkpt lat="49.81422" lon="4.83849">
        <ele>219</ele>
        <time>2021-08-14T10:39:08.000Z</time>
      </trkpt>
      <trkpt lat="49.81419" lon="4.83848">
        <ele>219</ele>
        <time>2021-08-14T10:39:09.000Z</time>
      </trkpt>
      <trkpt lat="49.81416" lon="4.83848">
        <ele>219</ele>
        <time>2021-08-14T10:39:10.000Z</time>
      </trkpt>
      <trkpt lat="49.81414" lon="4.83849">
        <ele>219</ele>
        <time>2021-08-14T10:39:11.000Z</time>
      </trkpt>
      <trkpt lat="49.81411" lon="4.83849">
        <ele>219</ele>
        <time>2021-08-14T10:39:12.000Z</time>
      </trkpt>
      <trkpt lat="49.81409" lon="4.8385">
        <ele>220</ele>
        <time>2021-08-14T10:39:13.000Z</time>
      </trkpt>
      <trkpt lat="49.81406" lon="4.8385">
        <ele>220</ele>
        <time>2021-08-14T10:39:14.000Z</time>
      </trkpt>
      <trkpt lat="49.81403" lon="4.83851">
        <ele>220</ele>
        <time>2021-08-14T10:39:15.000Z</time>
      </trkpt>
      <trkpt lat="49.81401" lon="4.83851">
        <ele>220</ele>
        <time>2021-08-14T10:39:16.000Z</time>
      </trkpt>
      <trkpt lat="49.81398" lon="4.83852">
        <ele>221</ele>
        <time>2021-08-14T10:39:17.000Z</time>
      </trkpt>
      <trkpt lat="49.81396" lon="4.83852">
        <ele>221</ele>
        <time>2021-08-14T10:39:18.000Z</time>
      </trkpt>
      <trkpt lat="49.81393" lon="4.83852">
        <ele>221</ele>
        <time>2021-08-14T10:39:19.000Z</time>
      </trkpt>
      <trkpt lat="49.81391" lon="4.83853">
        <ele>221</ele>
        <time>2021-08-14T10:39:20.000Z</time>
      </trkpt>
      <trkpt lat="49.81388" lon="4.83854">
        <ele>221</ele>
        <time>2021-08-14T10:39:21.000Z</time>
      </trkpt>
      <trkpt lat="49.81386" lon="4.83854">
        <ele>222</ele>
        <time>2021-08-14T10:39:22.000Z</time>
      </trkpt>
      <trkpt lat="49.81383" lon="4.83854">
        <ele>222</ele>
        <time>2021-08-14T10:39:23.000Z</time>
      </trkpt>
      <trkpt lat="49.8138" lon="4.83854">
        <ele>222</ele>
        <time>2021-08-14T10:39:24.000Z</time>
      </trkpt>
      <trkpt lat="49.81377" lon="4.83854">
        <ele>222</ele>
        <time>2021-08-14T10:39:25.000Z</time>
      </trkpt>
      <trkpt lat="49.81374" lon="4.83853">
        <ele>222</ele>
        <time>2021-08-14T10:39:26.000Z</time>
      </trkpt>
      <trkpt lat="49.81372" lon="4.83852">
        <ele>222</ele>
        <time>2021-08-14T10:39:27.000Z</time>
      </trkpt>
      <trkpt lat="49.81369" lon="4.83852">
        <ele>223</ele>
        <time>2021-08-14T10:39:28.000Z</time>
      </trkpt>
      <trkpt lat="49.81366" lon="4.8385">
        <ele>223</ele>
        <time>2021-08-14T10:39:29.000Z</time>
      </trkpt>
      <trkpt lat="49.81364" lon="4.8385">
        <ele>223</ele>
        <time>2021-08-14T10:39:30.000Z</time>
      </trkpt>
      <trkpt lat="49.81361" lon="4.8385">
        <ele>223</ele>
        <time>2021-08-14T10:39:31.000Z</time>
      </trkpt>
      <trkpt lat="49.81357" lon="4.83849">
        <ele>223</ele>
        <time>2021-08-14T10:39:32.000Z</time>
      </trkpt>
      <trkpt lat="49.81355" lon="4.83848">
        <ele>223</ele>
        <time>2021-08-14T10:39:33.000Z</time>
      </trkpt>
      <trkpt lat="49.81352" lon="4.83847">
        <ele>223</ele>
        <time>2021-08-14T10:39:34.000Z</time>
      </trkpt>
      <trkpt lat="49.81348" lon="4.83846">
        <ele>224</ele>
        <time>2021-08-14T10:39:35.000Z</time>
      </trkpt>
      <trkpt lat="49.81345" lon="4.83845">
        <ele>224</ele>
        <time>2021-08-14T10:39:36.000Z</time>
      </trkpt>
      <trkpt lat="49.81341" lon="4.83844">
        <ele>224</ele>
        <time>2021-08-14T10:39:37.000Z</time>
      </trkpt>
      <trkpt lat="49.81338" lon="4.83843">
        <ele>224</ele>
        <time>2021-08-14T10:39:38.000Z</time>
      </trkpt>
      <trkpt lat="49.81334" lon="4.83842">
        <ele>225</ele>
        <time>2021-08-14T10:39:39.000Z</time>
      </trkpt>
      <trkpt lat="49.81331" lon="4.83841">
        <ele>225</ele>
        <time>2021-08-14T10:39:40.000Z</time>
      </trkpt>
      <trkpt lat="49.81327" lon="4.83839">
        <ele>225</ele>
        <time>2021-08-14T10:39:41.000Z</time>
      </trkpt>
      <trkpt lat="49.81324" lon="4.83837">
        <ele>225</ele>
        <time>2021-08-14T10:39:42.000Z</time>
      </trkpt>
      <trkpt lat="49.8132" lon="4.83837">
        <ele>225</ele>
        <time>2021-08-14T10:39:43.000Z</time>
      </trkpt>
      <trkpt lat="49.81315" lon="4.83839">
        <ele>225</ele>
        <time>2021-08-14T10:39:44.000Z</time>
      </trkpt>
      <trkpt lat="49.81311" lon="4.83841">
        <ele>226</ele>
        <time>2021-08-14T10:39:45.000Z</time>
      </trkpt>
      <trkpt lat="49.81309" lon="4.83844">
        <ele>226</ele>
        <time>2021-08-14T10:39:46.000Z</time>
      </trkpt>
      <trkpt lat="49.81306" lon="4.83847">
        <ele>226</ele>
        <time>2021-08-14T10:39:47.000Z</time>
      </trkpt>
      <trkpt lat="49.81304" lon="4.8385">
        <ele>226</ele>
        <time>2021-08-14T10:39:48.000Z</time>
      </trkpt>
      <trkpt lat="49.81302" lon="4.83853">
        <ele>226</ele>
        <time>2021-08-14T10:39:49.000Z</time>
      </trkpt>
      <trkpt lat="49.813" lon="4.83856">
        <ele>226</ele>
        <time>2021-08-14T10:39:50.000Z</time>
      </trkpt>
      <trkpt lat="49.81298" lon="4.83858">
        <ele>226</ele>
        <time>2021-08-14T10:39:51.000Z</time>
      </trkpt>
      <trkpt lat="49.81296" lon="4.8386">
        <ele>226</ele>
        <time>2021-08-14T10:39:52.000Z</time>
      </trkpt>
      <trkpt lat="49.81294" lon="4.83862">
        <ele>227</ele>
        <time>2021-08-14T10:39:53.000Z</time>
      </trkpt>
      <trkpt lat="49.81292" lon="4.83864">
        <ele>227</ele>
        <time>2021-08-14T10:39:54.000Z</time>
      </trkpt>
      <trkpt lat="49.81291" lon="4.83865">
        <ele>227</ele>
        <time>2021-08-14T10:39:55.000Z</time>
      </trkpt>
      <trkpt lat="49.81289" lon="4.83867">
        <ele>227</ele>
        <time>2021-08-14T10:39:56.000Z</time>
      </trkpt>
      <trkpt lat="49.81288" lon="4.83869">
        <ele>227</ele>
        <time>2021-08-14T10:39:57.000Z</time>
      </trkpt>
      <trkpt lat="49.81286" lon="4.8387">
        <ele>227</ele>
        <time>2021-08-14T10:39:58.000Z</time>
      </trkpt>
      <trkpt lat="49.81285" lon="4.83872">
        <ele>226</ele>
        <time>2021-08-14T10:39:59.000Z</time>
      </trkpt>
      <trkpt lat="49.81283" lon="4.83873">
        <ele>226</ele>
        <time>2021-08-14T10:40:00.000Z</time>
      </trkpt>
      <trkpt lat="49.81281" lon="4.83875">
        <ele>226</ele>
        <time>2021-08-14T10:40:01.000Z</time>
      </trkpt>
      <trkpt lat="49.81279" lon="4.83876">
        <ele>226</ele>
        <time>2021-08-14T10:40:02.000Z</time>
      </trkpt>
      <trkpt lat="49.81276" lon="4.83878">
        <ele>227</ele>
        <time>2021-08-14T10:40:03.000Z</time>
      </trkpt>
      <trkpt lat="49.81274" lon="4.8388">
        <ele>227</ele>
        <time>2021-08-14T10:40:04.000Z</time>
      </trkpt>
      <trkpt lat="49.81271" lon="4.83882">
        <ele>227</ele>
        <time>2021-08-14T10:40:05.000Z</time>
      </trkpt>
      <trkpt lat="49.81268" lon="4.83883">
        <ele>227</ele>
        <time>2021-08-14T10:40:06.000Z</time>
      </trkpt>
      <trkpt lat="49.81266" lon="4.83883">
        <ele>227</ele>
        <time>2021-08-14T10:40:07.000Z</time>
      </trkpt>
      <trkpt lat="49.81264" lon="4.83884">
        <ele>227</ele>
        <time>2021-08-14T10:40:08.000Z</time>
      </trkpt>
      <trkpt lat="49.81261" lon="4.83885">
        <ele>227</ele>
        <time>2021-08-14T10:40:09.000Z</time>
      </trkpt>
      <trkpt lat="49.81259" lon="4.83887">
        <ele>228</ele>
        <time>2021-08-14T10:40:10.000Z</time>
      </trkpt>
      <trkpt lat="49.81256" lon="4.83888">
        <ele>228</ele>
        <time>2021-08-14T10:40:11.000Z</time>
      </trkpt>
      <trkpt lat="49.81254" lon="4.8389">
        <ele>228</ele>
        <time>2021-08-14T10:40:12.000Z</time>
      </trkpt>
      <trkpt lat="49.8125" lon="4.83891">
        <ele>228</ele>
        <time>2021-08-14T10:40:13.000Z</time>
      </trkpt>
      <trkpt lat="49.81247" lon="4.83892">
        <ele>228</ele>
        <time>2021-08-14T10:40:14.000Z</time>
      </trkpt>
      <trkpt lat="49.81243" lon="4.83892">
        <ele>228</ele>
        <time>2021-08-14T10:40:15.000Z</time>
      </trkpt>
      <trkpt lat="49.8124" lon="4.83893">
        <ele>228</ele>
        <time>2021-08-14T10:40:16.000Z</time>
      </trkpt>
      <trkpt lat="49.81237" lon="4.83893">
        <ele>228</ele>
        <time>2021-08-14T10:40:17.000Z</time>
      </trkpt>
      <trkpt lat="49.81234" lon="4.83894">
        <ele>228</ele>
        <time>2021-08-14T10:40:18.000Z</time>
      </trkpt>
      <trkpt lat="49.81231" lon="4.83894">
        <ele>228</ele>
        <time>2021-08-14T10:40:19.000Z</time>
      </trkpt>
      <trkpt lat="49.81228" lon="4.83893">
        <ele>229</ele>
        <time>2021-08-14T10:40:20.000Z</time>
      </trkpt>
      <trkpt lat="49.81224" lon="4.83893">
        <ele>229</ele>
        <time>2021-08-14T10:40:21.000Z</time>
      </trkpt>
      <trkpt lat="49.81221" lon="4.83894">
        <ele>229</ele>
        <time>2021-08-14T10:40:22.000Z</time>
      </trkpt>
      <trkpt lat="49.81217" lon="4.83895">
        <ele>229</ele>
        <time>2021-08-14T10:40:23.000Z</time>
      </trkpt>
      <trkpt lat="49.81214" lon="4.83896">
        <ele>229</ele>
        <time>2021-08-14T10:40:24.000Z</time>
      </trkpt>
      <trkpt lat="49.8121" lon="4.83897">
        <ele>229</ele>
        <time>2021-08-14T10:40:25.000Z</time>
      </trkpt>
      <trkpt lat="49.81206" lon="4.83898">
        <ele>229</ele>
        <time>2021-08-14T10:40:26.000Z</time>
      </trkpt>
      <trkpt lat="49.81202" lon="4.83898">
        <ele>229</ele>
        <time>2021-08-14T10:40:27.000Z</time>
      </trkpt>
      <trkpt lat="49.81199" lon="4.83898">
        <ele>229</ele>
        <time>2021-08-14T10:40:28.000Z</time>
      </trkpt>
      <trkpt lat="49.81195" lon="4.83899">
        <ele>229</ele>
        <time>2021-08-14T10:40:29.000Z</time>
      </trkpt>
      <trkpt lat="49.81192" lon="4.83899">
        <ele>229</ele>
        <time>2021-08-14T10:40:30.000Z</time>
      </trkpt>
      <trkpt lat="49.81188" lon="4.83899">
        <ele>229</ele>
        <time>2021-08-14T10:40:31.000Z</time>
      </trkpt>
      <trkpt lat="49.81185" lon="4.83899">
        <ele>229</ele>
        <time>2021-08-14T10:40:32.000Z</time>
      </trkpt>
      <trkpt lat="49.81181" lon="4.839">
        <ele>230</ele>
        <time>2021-08-14T10:40:33.000Z</time>
      </trkpt>
      <trkpt lat="49.81178" lon="4.839">
        <ele>230</ele>
        <time>2021-08-14T10:40:34.000Z</time>
      </trkpt>
      <trkpt lat="49.81174" lon="4.83901">
        <ele>230</ele>
        <time>2021-08-14T10:40:35.000Z</time>
      </trkpt>
      <trkpt lat="49.8117" lon="4.83901">
        <ele>230</ele>
        <time>2021-08-14T10:40:36.000Z</time>
      </trkpt>
      <trkpt lat="49.81166" lon="4.83902">
        <ele>230</ele>
        <time>2021-08-14T10:40:37.000Z</time>
      </trkpt>
      <trkpt lat="49.81162" lon="4.83903">
        <ele>230</ele>
        <time>2021-08-14T10:40:38.000Z</time>
      </trkpt>
      <trkpt lat="49.81159" lon="4.83903">
        <ele>230</ele>
        <time>2021-08-14T10:40:39.000Z</time>
      </trkpt>
      <trkpt lat="49.81155" lon="4.83903">
        <ele>230</ele>
        <time>2021-08-14T10:40:40.000Z</time>
      </trkpt>
      <trkpt lat="49.81151" lon="4.83903">
        <ele>230</ele>
        <time>2021-08-14T10:40:41.000Z</time>
      </trkpt>
      <trkpt lat="49.81147" lon="4.83904">
        <ele>230</ele>
        <time>2021-08-14T10:40:42.000Z</time>
      </trkpt>
      <trkpt lat="49.81143" lon="4.83904">
        <ele>230</ele>
        <time>2021-08-14T10:40:43.000Z</time>
      </trkpt>
      <trkpt lat="49.81139" lon="4.83904">
        <ele>230</ele>
        <time>2021-08-14T10:40:44.000Z</time>
      </trkpt>
      <trkpt lat="49.81134" lon="4.83905">
        <ele>230</ele>
        <time>2021-08-14T10:40:45.000Z</time>
      </trkpt>
      <trkpt lat="49.81129" lon="4.83905">
        <ele>230</ele>
        <time>2021-08-14T10:40:46.000Z</time>
      </trkpt>
      <trkpt lat="49.81124" lon="4.83905">
        <ele>231</ele>
        <time>2021-08-14T10:40:47.000Z</time>
      </trkpt>
      <trkpt lat="49.81119" lon="4.83904">
        <ele>231</ele>
        <time>2021-08-14T10:40:48.000Z</time>
      </trkpt>
      <trkpt lat="49.81114" lon="4.83904">
        <ele>231</ele>
        <time>2021-08-14T10:40:49.000Z</time>
      </trkpt>
      <trkpt lat="49.81109" lon="4.83903">
        <ele>231</ele>
        <time>2021-08-14T10:40:50.000Z</time>
      </trkpt>
      <trkpt lat="49.81105" lon="4.83902">
        <ele>231</ele>
        <time>2021-08-14T10:40:51.000Z</time>
      </trkpt>
      <trkpt lat="49.811" lon="4.83902">
        <ele>231</ele>
        <time>2021-08-14T10:40:52.000Z</time>
      </trkpt>
      <trkpt lat="49.81096" lon="4.83901">
        <ele>231</ele>
        <time>2021-08-14T10:40:53.000Z</time>
      </trkpt>
      <trkpt lat="49.81091" lon="4.839">
        <ele>231</ele>
        <time>2021-08-14T10:40:54.000Z</time>
      </trkpt>
      <trkpt lat="49.81087" lon="4.83899">
        <ele>231</ele>
        <time>2021-08-14T10:40:55.000Z</time>
      </trkpt>
      <trkpt lat="49.81081" lon="4.83899">
        <ele>231</ele>
        <time>2021-08-14T10:40:56.000Z</time>
      </trkpt>
      <trkpt lat="49.81077" lon="4.83898">
        <ele>231</ele>
        <time>2021-08-14T10:40:57.000Z</time>
      </trkpt>
      <trkpt lat="49.81071" lon="4.83897">
        <ele>231</ele>
        <time>2021-08-14T10:40:58.000Z</time>
      </trkpt>
      <trkpt lat="49.81067" lon="4.83897">
        <ele>231</ele>
        <time>2021-08-14T10:40:59.000Z</time>
      </trkpt>
      <trkpt lat="49.81062" lon="4.83896">
        <ele>231</ele>
        <time>2021-08-14T10:41:00.000Z</time>
      </trkpt>
      <trkpt lat="49.81058" lon="4.83896">
        <ele>231</ele>
        <time>2021-08-14T10:41:01.000Z</time>
      </trkpt>
      <trkpt lat="49.81054" lon="4.83895">
        <ele>231</ele>
        <time>2021-08-14T10:41:02.000Z</time>
      </trkpt>
      <trkpt lat="49.8105" lon="4.83895">
        <ele>231</ele>
        <time>2021-08-14T10:41:03.000Z</time>
      </trkpt>
      <trkpt lat="49.81046" lon="4.83896">
        <ele>231</ele>
        <time>2021-08-14T10:41:04.000Z</time>
      </trkpt>
      <trkpt lat="49.81043" lon="4.83896">
        <ele>231</ele>
        <time>2021-08-14T10:41:05.000Z</time>
      </trkpt>
      <trkpt lat="49.81039" lon="4.83896">
        <ele>231</ele>
        <time>2021-08-14T10:41:06.000Z</time>
      </trkpt>
      <trkpt lat="49.81036" lon="4.83896">
        <ele>231</ele>
        <time>2021-08-14T10:41:07.000Z</time>
      </trkpt>
      <trkpt lat="49.81032" lon="4.83895">
        <ele>231</ele>
        <time>2021-08-14T10:41:08.000Z</time>
      </trkpt>
      <trkpt lat="49.81028" lon="4.83896">
        <ele>230</ele>
        <time>2021-08-14T10:41:09.000Z</time>
      </trkpt>
      <trkpt lat="49.81024" lon="4.83897">
        <ele>230</ele>
        <time>2021-08-14T10:41:10.000Z</time>
      </trkpt>
      <trkpt lat="49.81019" lon="4.83898">
        <ele>230</ele>
        <time>2021-08-14T10:41:11.000Z</time>
      </trkpt>
      <trkpt lat="49.81015" lon="4.83898">
        <ele>230</ele>
        <time>2021-08-14T10:41:12.000Z</time>
      </trkpt>
      <trkpt lat="49.81011" lon="4.83898">
        <ele>230</ele>
        <time>2021-08-14T10:41:13.000Z</time>
      </trkpt>
      <trkpt lat="49.81007" lon="4.83898">
        <ele>230</ele>
        <time>2021-08-14T10:41:14.000Z</time>
      </trkpt>
      <trkpt lat="49.81002" lon="4.83898">
        <ele>230</ele>
        <time>2021-08-14T10:41:15.000Z</time>
      </trkpt>
      <trkpt lat="49.80997" lon="4.83898">
        <ele>230</ele>
        <time>2021-08-14T10:41:16.000Z</time>
      </trkpt>
      <trkpt lat="49.80993" lon="4.83899">
        <ele>230</ele>
        <time>2021-08-14T10:41:17.000Z</time>
      </trkpt>
      <trkpt lat="49.80988" lon="4.83898">
        <ele>230</ele>
        <time>2021-08-14T10:41:18.000Z</time>
      </trkpt>
      <trkpt lat="49.80983" lon="4.83898">
        <ele>230</ele>
        <time>2021-08-14T10:41:19.000Z</time>
      </trkpt>
      <trkpt lat="49.80979" lon="4.83899">
        <ele>230</ele>
        <time>2021-08-14T10:41:20.000Z</time>
      </trkpt>
      <trkpt lat="49.80975" lon="4.83898">
        <ele>230</ele>
        <time>2021-08-14T10:41:21.000Z</time>
      </trkpt>
      <trkpt lat="49.8097" lon="4.83899">
        <ele>230</ele>
        <time>2021-08-14T10:41:22.000Z</time>
      </trkpt>
      <trkpt lat="49.80966" lon="4.83898">
        <ele>230</ele>
        <time>2021-08-14T10:41:23.000Z</time>
      </trkpt>
      <trkpt lat="49.80961" lon="4.83898">
        <ele>230</ele>
        <time>2021-08-14T10:41:24.000Z</time>
      </trkpt>
      <trkpt lat="49.80957" lon="4.83897">
        <ele>230</ele>
        <time>2021-08-14T10:41:25.000Z</time>
      </trkpt>
      <trkpt lat="49.80952" lon="4.83897">
        <ele>230</ele>
        <time>2021-08-14T10:41:26.000Z</time>
      </trkpt>
      <trkpt lat="49.80947" lon="4.83897">
        <ele>230</ele>
        <time>2021-08-14T10:41:27.000Z</time>
      </trkpt>
      <trkpt lat="49.80941" lon="4.83897">
        <ele>230</ele>
        <time>2021-08-14T10:41:28.000Z</time>
      </trkpt>
      <trkpt lat="49.80936" lon="4.83897">
        <ele>230</ele>
        <time>2021-08-14T10:41:29.000Z</time>
      </trkpt>
      <trkpt lat="49.80931" lon="4.83897">
        <ele>230</ele>
        <time>2021-08-14T10:41:30.000Z</time>
      </trkpt>
      <trkpt lat="49.80927" lon="4.83897">
        <ele>230</ele>
        <time>2021-08-14T10:41:31.000Z</time>
      </trkpt>
      <trkpt lat="49.80923" lon="4.83897">
        <ele>230</ele>
        <time>2021-08-14T10:41:32.000Z</time>
      </trkpt>
      <trkpt lat="49.80919" lon="4.83897">
        <ele>230</ele>
        <time>2021-08-14T10:41:33.000Z</time>
      </trkpt>
      <trkpt lat="49.80914" lon="4.83897">
        <ele>230</ele>
        <time>2021-08-14T10:41:34.000Z</time>
      </trkpt>
      <trkpt lat="49.8091" lon="4.83896">
        <ele>230</ele>
        <time>2021-08-14T10:41:35.000Z</time>
      </trkpt>
      <trkpt lat="49.80905" lon="4.83896">
        <ele>230</ele>
        <time>2021-08-14T10:41:36.000Z</time>
      </trkpt>
      <trkpt lat="49.80901" lon="4.83896">
        <ele>230</ele>
        <time>2021-08-14T10:41:37.000Z</time>
      </trkpt>
      <trkpt lat="49.80896" lon="4.83896">
        <ele>230</ele>
        <time>2021-08-14T10:41:38.000Z</time>
      </trkpt>
      <trkpt lat="49.80891" lon="4.83896">
        <ele>230</ele>
        <time>2021-08-14T10:41:39.000Z</time>
      </trkpt>
      <trkpt lat="49.80886" lon="4.83896">
        <ele>230</ele>
        <time>2021-08-14T10:41:40.000Z</time>
      </trkpt>
      <trkpt lat="49.80881" lon="4.83896">
        <ele>230</ele>
        <time>2021-08-14T10:41:41.000Z</time>
      </trkpt>
      <trkpt lat="49.80877" lon="4.83897">
        <ele>230</ele>
        <time>2021-08-14T10:41:42.000Z</time>
      </trkpt>
      <trkpt lat="49.80873" lon="4.83897">
        <ele>230</ele>
        <time>2021-08-14T10:41:43.000Z</time>
      </trkpt>
      <trkpt lat="49.80868" lon="4.83897">
        <ele>229</ele>
        <time>2021-08-14T10:41:44.000Z</time>
      </trkpt>
      <trkpt lat="49.80864" lon="4.83897">
        <ele>229</ele>
        <time>2021-08-14T10:41:45.000Z</time>
      </trkpt>
      <trkpt lat="49.80859" lon="4.83898">
        <ele>229</ele>
        <time>2021-08-14T10:41:46.000Z</time>
      </trkpt>
      <trkpt lat="49.80854" lon="4.83898">
        <ele>229</ele>
        <time>2021-08-14T10:41:47.000Z</time>
      </trkpt>
      <trkpt lat="49.8085" lon="4.83898">
        <ele>229</ele>
        <time>2021-08-14T10:41:48.000Z</time>
      </trkpt>
      <trkpt lat="49.80845" lon="4.83898">
        <ele>229</ele>
        <time>2021-08-14T10:41:49.000Z</time>
      </trkpt>
      <trkpt lat="49.8084" lon="4.83898">
        <ele>229</ele>
        <time>2021-08-14T10:41:50.000Z</time>
      </trkpt>
      <trkpt lat="49.80836" lon="4.83897">
        <ele>229</ele>
        <time>2021-08-14T10:41:51.000Z</time>
      </trkpt>
      <trkpt lat="49.80832" lon="4.83897">
        <ele>229</ele>
        <time>2021-08-14T10:41:52.000Z</time>
      </trkpt>
      <trkpt lat="49.80828" lon="4.83897">
        <ele>228</ele>
        <time>2021-08-14T10:41:53.000Z</time>
      </trkpt>
      <trkpt lat="49.80824" lon="4.83897">
        <ele>228</ele>
        <time>2021-08-14T10:41:54.000Z</time>
      </trkpt>
      <trkpt lat="49.8082" lon="4.83896">
        <ele>228</ele>
        <time>2021-08-14T10:41:55.000Z</time>
      </trkpt>
      <trkpt lat="49.80816" lon="4.83895">
        <ele>228</ele>
        <time>2021-08-14T10:41:56.000Z</time>
      </trkpt>
      <trkpt lat="49.80812" lon="4.83895">
        <ele>228</ele>
        <time>2021-08-14T10:41:57.000Z</time>
      </trkpt>
      <trkpt lat="49.80807" lon="4.83896">
        <ele>228</ele>
        <time>2021-08-14T10:41:58.000Z</time>
      </trkpt>
      <trkpt lat="49.80803" lon="4.83898">
        <ele>228</ele>
        <time>2021-08-14T10:41:59.000Z</time>
      </trkpt>
      <trkpt lat="49.80799" lon="4.83898">
        <ele>228</ele>
        <time>2021-08-14T10:42:00.000Z</time>
      </trkpt>
      <trkpt lat="49.80795" lon="4.83898">
        <ele>228</ele>
        <time>2021-08-14T10:42:01.000Z</time>
      </trkpt>
      <trkpt lat="49.8079" lon="4.83899">
        <ele>228</ele>
        <time>2021-08-14T10:42:02.000Z</time>
      </trkpt>
      <trkpt lat="49.80786" lon="4.839">
        <ele>227</ele>
        <time>2021-08-14T10:42:03.000Z</time>
      </trkpt>
      <trkpt lat="49.80781" lon="4.83902">
        <ele>227</ele>
        <time>2021-08-14T10:42:04.000Z</time>
      </trkpt>
      <trkpt lat="49.80777" lon="4.83904">
        <ele>228</ele>
        <time>2021-08-14T10:42:05.000Z</time>
      </trkpt>
      <trkpt lat="49.80772" lon="4.83905">
        <ele>228</ele>
        <time>2021-08-14T10:42:06.000Z</time>
      </trkpt>
      <trkpt lat="49.80769" lon="4.83906">
        <ele>228</ele>
        <time>2021-08-14T10:42:07.000Z</time>
      </trkpt>
      <trkpt lat="49.80765" lon="4.83907">
        <ele>228</ele>
        <time>2021-08-14T10:42:08.000Z</time>
      </trkpt>
      <trkpt lat="49.80762" lon="4.83908">
        <ele>228</ele>
        <time>2021-08-14T10:42:09.000Z</time>
      </trkpt>
      <trkpt lat="49.80757" lon="4.8391">
        <ele>228</ele>
        <time>2021-08-14T10:42:10.000Z</time>
      </trkpt>
      <trkpt lat="49.80753" lon="4.83912">
        <ele>228</ele>
        <time>2021-08-14T10:42:11.000Z</time>
      </trkpt>
      <trkpt lat="49.8075" lon="4.83913">
        <ele>228</ele>
        <time>2021-08-14T10:42:12.000Z</time>
      </trkpt>
      <trkpt lat="49.80746" lon="4.83913">
        <ele>228</ele>
        <time>2021-08-14T10:42:13.000Z</time>
      </trkpt>
      <trkpt lat="49.80742" lon="4.83915">
        <ele>228</ele>
        <time>2021-08-14T10:42:14.000Z</time>
      </trkpt>
      <trkpt lat="49.80738" lon="4.83917">
        <ele>228</ele>
        <time>2021-08-14T10:42:15.000Z</time>
      </trkpt>
      <trkpt lat="49.80734" lon="4.83919">
        <ele>228</ele>
        <time>2021-08-14T10:42:16.000Z</time>
      </trkpt>
      <trkpt lat="49.8073" lon="4.83919">
        <ele>228</ele>
        <time>2021-08-14T10:42:17.000Z</time>
      </trkpt>
      <trkpt lat="49.80726" lon="4.8392">
        <ele>228</ele>
        <time>2021-08-14T10:42:18.000Z</time>
      </trkpt>
      <trkpt lat="49.80722" lon="4.83921">
        <ele>228</ele>
        <time>2021-08-14T10:42:19.000Z</time>
      </trkpt>
      <trkpt lat="49.80718" lon="4.83922">
        <ele>228</ele>
        <time>2021-08-14T10:42:20.000Z</time>
      </trkpt>
      <trkpt lat="49.80714" lon="4.83923">
        <ele>228</ele>
        <time>2021-08-14T10:42:21.000Z</time>
      </trkpt>
      <trkpt lat="49.80711" lon="4.83924">
        <ele>228</ele>
        <time>2021-08-14T10:42:22.000Z</time>
      </trkpt>
      <trkpt lat="49.80708" lon="4.83925">
        <ele>228</ele>
        <time>2021-08-14T10:42:23.000Z</time>
      </trkpt>
      <trkpt lat="49.80706" lon="4.83925">
        <ele>228</ele>
        <time>2021-08-14T10:42:24.000Z</time>
      </trkpt>
      <trkpt lat="49.80704" lon="4.83926">
        <ele>228</ele>
        <time>2021-08-14T10:42:25.000Z</time>
      </trkpt>
      <trkpt lat="49.80702" lon="4.83926">
        <ele>228</ele>
        <time>2021-08-14T10:42:26.000Z</time>
      </trkpt>
      <trkpt lat="49.807" lon="4.83927">
        <ele>228</ele>
        <time>2021-08-14T10:42:27.000Z</time>
      </trkpt>
      <trkpt lat="49.80699" lon="4.83928">
        <ele>228</ele>
        <time>2021-08-14T10:42:28.000Z</time>
      </trkpt>
      <trkpt lat="49.80698" lon="4.83928">
        <ele>228</ele>
        <time>2021-08-14T10:42:29.000Z</time>
      </trkpt>
      <trkpt lat="49.80696" lon="4.83929">
        <ele>228</ele>
        <time>2021-08-14T10:42:30.000Z</time>
      </trkpt>
      <trkpt lat="49.80694" lon="4.83931">
        <ele>228</ele>
        <time>2021-08-14T10:42:31.000Z</time>
      </trkpt>
      <trkpt lat="49.80693" lon="4.83932">
        <ele>228</ele>
        <time>2021-08-14T10:42:32.000Z</time>
      </trkpt>
      <trkpt lat="49.80691" lon="4.83933">
        <ele>229</ele>
        <time>2021-08-14T10:42:33.000Z</time>
      </trkpt>
      <trkpt lat="49.80689" lon="4.83934">
        <ele>229</ele>
        <time>2021-08-14T10:42:34.000Z</time>
      </trkpt>
      <trkpt lat="49.80687" lon="4.83935">
        <ele>229</ele>
        <time>2021-08-14T10:42:35.000Z</time>
      </trkpt>
      <trkpt lat="49.80685" lon="4.83936">
        <ele>229</ele>
        <time>2021-08-14T10:42:36.000Z</time>
      </trkpt>
      <trkpt lat="49.80684" lon="4.83937">
        <ele>229</ele>
        <time>2021-08-14T10:42:37.000Z</time>
      </trkpt>
      <trkpt lat="49.80682" lon="4.83938">
        <ele>229</ele>
        <time>2021-08-14T10:42:38.000Z</time>
      </trkpt>
      <trkpt lat="49.80679" lon="4.83939">
        <ele>230</ele>
        <time>2021-08-14T10:42:39.000Z</time>
      </trkpt>
      <trkpt lat="49.80677" lon="4.83939">
        <ele>230</ele>
        <time>2021-08-14T10:42:40.000Z</time>
      </trkpt>
      <trkpt lat="49.80676" lon="4.83939">
        <ele>230</ele>
        <time>2021-08-14T10:42:41.000Z</time>
      </trkpt>
      <trkpt lat="49.80674" lon="4.83938">
        <ele>230</ele>
        <time>2021-08-14T10:42:42.000Z</time>
      </trkpt>
      <trkpt lat="49.80671" lon="4.83937">
        <ele>230</ele>
        <time>2021-08-14T10:42:43.000Z</time>
      </trkpt>
      <trkpt lat="49.80668" lon="4.83936">
        <ele>230</ele>
        <time>2021-08-14T10:42:44.000Z</time>
      </trkpt>
      <trkpt lat="49.80665" lon="4.83936">
        <ele>230</ele>
        <time>2021-08-14T10:42:45.000Z</time>
      </trkpt>
      <trkpt lat="49.80662" lon="4.83936">
        <ele>230</ele>
        <time>2021-08-14T10:42:46.000Z</time>
      </trkpt>
      <trkpt lat="49.8066" lon="4.83937">
        <ele>230</ele>
        <time>2021-08-14T10:42:47.000Z</time>
      </trkpt>
      <trkpt lat="49.80657" lon="4.83937">
        <ele>230</ele>
        <time>2021-08-14T10:42:48.000Z</time>
      </trkpt>
      <trkpt lat="49.80655" lon="4.83939">
        <ele>230</ele>
        <time>2021-08-14T10:42:49.000Z</time>
      </trkpt>
      <trkpt lat="49.80652" lon="4.8394">
        <ele>230</ele>
        <time>2021-08-14T10:42:50.000Z</time>
      </trkpt>
      <trkpt lat="49.8065" lon="4.83942">
        <ele>230</ele>
        <time>2021-08-14T10:42:51.000Z</time>
      </trkpt>
      <trkpt lat="49.80646" lon="4.83943">
        <ele>230</ele>
        <time>2021-08-14T10:42:52.000Z</time>
      </trkpt>
      <trkpt lat="49.80642" lon="4.83945">
        <ele>230</ele>
        <time>2021-08-14T10:42:53.000Z</time>
      </trkpt>
      <trkpt lat="49.80638" lon="4.83946">
        <ele>230</ele>
        <time>2021-08-14T10:42:54.000Z</time>
      </trkpt>
      <trkpt lat="49.80634" lon="4.83948">
        <ele>230</ele>
        <time>2021-08-14T10:42:55.000Z</time>
      </trkpt>
      <trkpt lat="49.8063" lon="4.83949">
        <ele>230</ele>
        <time>2021-08-14T10:42:56.000Z</time>
      </trkpt>
      <trkpt lat="49.80626" lon="4.8395">
        <ele>230</ele>
        <time>2021-08-14T10:42:57.000Z</time>
      </trkpt>
      <trkpt lat="49.80621" lon="4.83951">
        <ele>230</ele>
        <time>2021-08-14T10:42:58.000Z</time>
      </trkpt>
      <trkpt lat="49.80617" lon="4.83952">
        <ele>230</ele>
        <time>2021-08-14T10:42:59.000Z</time>
      </trkpt>
      <trkpt lat="49.80612" lon="4.83953">
        <ele>229</ele>
        <time>2021-08-14T10:43:00.000Z</time>
      </trkpt>
      <trkpt lat="49.80607" lon="4.83954">
        <ele>229</ele>
        <time>2021-08-14T10:43:01.000Z</time>
      </trkpt>
      <trkpt lat="49.80603" lon="4.83954">
        <ele>229</ele>
        <time>2021-08-14T10:43:02.000Z</time>
      </trkpt>
      <trkpt lat="49.80599" lon="4.83955">
        <ele>229</ele>
        <time>2021-08-14T10:43:03.000Z</time>
      </trkpt>
      <trkpt lat="49.80595" lon="4.83955">
        <ele>229</ele>
        <time>2021-08-14T10:43:04.000Z</time>
      </trkpt>
      <trkpt lat="49.80591" lon="4.83956">
        <ele>228</ele>
        <time>2021-08-14T10:43:05.000Z</time>
      </trkpt>
      <trkpt lat="49.80588" lon="4.83956">
        <ele>228</ele>
        <time>2021-08-14T10:43:06.000Z</time>
      </trkpt>
      <trkpt lat="49.80585" lon="4.83956">
        <ele>228</ele>
        <time>2021-08-14T10:43:07.000Z</time>
      </trkpt>
      <trkpt lat="49.80581" lon="4.83956">
        <ele>228</ele>
        <time>2021-08-14T10:43:08.000Z</time>
      </trkpt>
      <trkpt lat="49.80578" lon="4.83957">
        <ele>227</ele>
        <time>2021-08-14T10:43:09.000Z</time>
      </trkpt>
      <trkpt lat="49.80575" lon="4.83957">
        <ele>227</ele>
        <time>2021-08-14T10:43:10.000Z</time>
      </trkpt>
      <trkpt lat="49.80572" lon="4.83957">
        <ele>227</ele>
        <time>2021-08-14T10:43:11.000Z</time>
      </trkpt>
      <trkpt lat="49.80569" lon="4.83957">
        <ele>227</ele>
        <time>2021-08-14T10:43:12.000Z</time>
      </trkpt>
      <trkpt lat="49.80566" lon="4.83958">
        <ele>226</ele>
        <time>2021-08-14T10:43:13.000Z</time>
      </trkpt>
      <trkpt lat="49.80564" lon="4.83958">
        <ele>226</ele>
        <time>2021-08-14T10:43:14.000Z</time>
      </trkpt>
      <trkpt lat="49.80561" lon="4.83958">
        <ele>226</ele>
        <time>2021-08-14T10:43:15.000Z</time>
      </trkpt>
      <trkpt lat="49.80558" lon="4.83958">
        <ele>226</ele>
        <time>2021-08-14T10:43:16.000Z</time>
      </trkpt>
      <trkpt lat="49.80555" lon="4.83958">
        <ele>225</ele>
        <time>2021-08-14T10:43:17.000Z</time>
      </trkpt>
      <trkpt lat="49.80553" lon="4.83959">
        <ele>225</ele>
        <time>2021-08-14T10:43:18.000Z</time>
      </trkpt>
      <trkpt lat="49.8055" lon="4.83959">
        <ele>225</ele>
        <time>2021-08-14T10:43:19.000Z</time>
      </trkpt>
      <trkpt lat="49.80547" lon="4.83959">
        <ele>224</ele>
        <time>2021-08-14T10:43:20.000Z</time>
      </trkpt>
      <trkpt lat="49.80544" lon="4.83959">
        <ele>224</ele>
        <time>2021-08-14T10:43:21.000Z</time>
      </trkpt>
      <trkpt lat="49.80541" lon="4.8396">
        <ele>224</ele>
        <time>2021-08-14T10:43:22.000Z</time>
      </trkpt>
      <trkpt lat="49.80538" lon="4.8396">
        <ele>224</ele>
        <time>2021-08-14T10:43:23.000Z</time>
      </trkpt>
      <trkpt lat="49.80535" lon="4.8396">
        <ele>223</ele>
        <time>2021-08-14T10:43:24.000Z</time>
      </trkpt>
      <trkpt lat="49.80533" lon="4.8396">
        <ele>223</ele>
        <time>2021-08-14T10:43:25.000Z</time>
      </trkpt>
      <trkpt lat="49.80531" lon="4.83959">
        <ele>223</ele>
        <time>2021-08-14T10:43:26.000Z</time>
      </trkpt>
      <trkpt lat="49.80529" lon="4.8396">
        <ele>223</ele>
        <time>2021-08-14T10:43:27.000Z</time>
      </trkpt>
      <trkpt lat="49.80528" lon="4.8396">
        <ele>223</ele>
        <time>2021-08-14T10:43:28.000Z</time>
      </trkpt>
      <trkpt lat="49.80526" lon="4.8396">
        <ele>223</ele>
        <time>2021-08-14T10:43:29.000Z</time>
      </trkpt>
      <trkpt lat="49.80524" lon="4.83961">
        <ele>222</ele>
        <time>2021-08-14T10:43:30.000Z</time>
      </trkpt>
      <trkpt lat="49.80522" lon="4.83962">
        <ele>222</ele>
        <time>2021-08-14T10:43:31.000Z</time>
      </trkpt>
      <trkpt lat="49.8052" lon="4.83962">
        <ele>222</ele>
        <time>2021-08-14T10:43:32.000Z</time>
      </trkpt>
      <trkpt lat="49.80519" lon="4.83962">
        <ele>222</ele>
        <time>2021-08-14T10:43:33.000Z</time>
      </trkpt>
      <trkpt lat="49.80516" lon="4.83963">
        <ele>222</ele>
        <time>2021-08-14T10:43:34.000Z</time>
      </trkpt>
      <trkpt lat="49.80514" lon="4.83963">
        <ele>222</ele>
        <time>2021-08-14T10:43:35.000Z</time>
      </trkpt>
      <trkpt lat="49.80512" lon="4.83963">
        <ele>222</ele>
        <time>2021-08-14T10:43:36.000Z</time>
      </trkpt>
      <trkpt lat="49.80509" lon="4.83963">
        <ele>222</ele>
        <time>2021-08-14T10:43:37.000Z</time>
      </trkpt>
      <trkpt lat="49.80507" lon="4.83963">
        <ele>222</ele>
        <time>2021-08-14T10:43:38.000Z</time>
      </trkpt>
      <trkpt lat="49.80505" lon="4.83962">
        <ele>222</ele>
        <time>2021-08-14T10:43:39.000Z</time>
      </trkpt>
      <trkpt lat="49.80503" lon="4.8396">
        <ele>222</ele>
        <time>2021-08-14T10:43:40.000Z</time>
      </trkpt>
      <trkpt lat="49.80501" lon="4.83958">
        <ele>222</ele>
        <time>2021-08-14T10:43:41.000Z</time>
      </trkpt>
      <trkpt lat="49.80498" lon="4.83955">
        <ele>222</ele>
        <time>2021-08-14T10:43:42.000Z</time>
      </trkpt>
      <trkpt lat="49.80496" lon="4.83952">
        <ele>222</ele>
        <time>2021-08-14T10:43:43.000Z</time>
      </trkpt>
      <trkpt lat="49.80493" lon="4.83948">
        <ele>222</ele>
        <time>2021-08-14T10:43:44.000Z</time>
      </trkpt>
      <trkpt lat="49.8049" lon="4.83945">
        <ele>222</ele>
        <time>2021-08-14T10:43:45.000Z</time>
      </trkpt>
      <trkpt lat="49.80487" lon="4.83941">
        <ele>221</ele>
        <time>2021-08-14T10:43:46.000Z</time>
      </trkpt>
      <trkpt lat="49.80484" lon="4.83937">
        <ele>221</ele>
        <time>2021-08-14T10:43:47.000Z</time>
      </trkpt>
      <trkpt lat="49.80481" lon="4.83934">
        <ele>221</ele>
        <time>2021-08-14T10:43:48.000Z</time>
      </trkpt>
      <trkpt lat="49.80478" lon="4.83931">
        <ele>221</ele>
        <time>2021-08-14T10:43:49.000Z</time>
      </trkpt>
      <trkpt lat="49.80475" lon="4.83928">
        <ele>221</ele>
        <time>2021-08-14T10:43:50.000Z</time>
      </trkpt>
      <trkpt lat="49.80473" lon="4.83925">
        <ele>221</ele>
        <time>2021-08-14T10:43:51.000Z</time>
      </trkpt>
      <trkpt lat="49.8047" lon="4.83923">
        <ele>220</ele>
        <time>2021-08-14T10:43:52.000Z</time>
      </trkpt>
      <trkpt lat="49.80467" lon="4.83921">
        <ele>220</ele>
        <time>2021-08-14T10:43:53.000Z</time>
      </trkpt>
      <trkpt lat="49.80464" lon="4.83919">
        <ele>220</ele>
        <time>2021-08-14T10:43:54.000Z</time>
      </trkpt>
      <trkpt lat="49.80461" lon="4.83917">
        <ele>220</ele>
        <time>2021-08-14T10:43:55.000Z</time>
      </trkpt>
      <trkpt lat="49.80457" lon="4.83916">
        <ele>220</ele>
        <time>2021-08-14T10:43:56.000Z</time>
      </trkpt>
      <trkpt lat="49.80453" lon="4.83913">
        <ele>220</ele>
        <time>2021-08-14T10:43:57.000Z</time>
      </trkpt>
      <trkpt lat="49.80449" lon="4.83912">
        <ele>220</ele>
        <time>2021-08-14T10:43:58.000Z</time>
      </trkpt>
      <trkpt lat="49.80445" lon="4.8391">
        <ele>220</ele>
        <time>2021-08-14T10:43:59.000Z</time>
      </trkpt>
      <trkpt lat="49.80441" lon="4.83907">
        <ele>220</ele>
        <time>2021-08-14T10:44:00.000Z</time>
      </trkpt>
      <trkpt lat="49.80437" lon="4.83904">
        <ele>220</ele>
        <time>2021-08-14T10:44:01.000Z</time>
      </trkpt>
      <trkpt lat="49.80433" lon="4.83902">
        <ele>220</ele>
        <time>2021-08-14T10:44:02.000Z</time>
      </trkpt>
      <trkpt lat="49.80429" lon="4.83899">
        <ele>220</ele>
        <time>2021-08-14T10:44:03.000Z</time>
      </trkpt>
      <trkpt lat="49.80424" lon="4.83896">
        <ele>220</ele>
        <time>2021-08-14T10:44:04.000Z</time>
      </trkpt>
      <trkpt lat="49.8042" lon="4.83893">
        <ele>220</ele>
        <time>2021-08-14T10:44:05.000Z</time>
      </trkpt>
      <trkpt lat="49.80416" lon="4.8389">
        <ele>220</ele>
        <time>2021-08-14T10:44:06.000Z</time>
      </trkpt>
      <trkpt lat="49.80411" lon="4.83886">
        <ele>219</ele>
        <time>2021-08-14T10:44:07.000Z</time>
      </trkpt>
      <trkpt lat="49.80407" lon="4.83883">
        <ele>219</ele>
        <time>2021-08-14T10:44:08.000Z</time>
      </trkpt>
      <trkpt lat="49.80404" lon="4.83878">
        <ele>219</ele>
        <time>2021-08-14T10:44:09.000Z</time>
      </trkpt>
      <trkpt lat="49.804" lon="4.83873">
        <ele>219</ele>
        <time>2021-08-14T10:44:10.000Z</time>
      </trkpt>
      <trkpt lat="49.80397" lon="4.83868">
        <ele>219</ele>
        <time>2021-08-14T10:44:11.000Z</time>
      </trkpt>
      <trkpt lat="49.80393" lon="4.83865">
        <ele>219</ele>
        <time>2021-08-14T10:44:12.000Z</time>
      </trkpt>
      <trkpt lat="49.80389" lon="4.83863">
        <ele>219</ele>
        <time>2021-08-14T10:44:13.000Z</time>
      </trkpt>
      <trkpt lat="49.80385" lon="4.83863">
        <ele>219</ele>
        <time>2021-08-14T10:44:14.000Z</time>
      </trkpt>
      <trkpt lat="49.80381" lon="4.83862">
        <ele>219</ele>
        <time>2021-08-14T10:44:15.000Z</time>
      </trkpt>
      <trkpt lat="49.80377" lon="4.83862">
        <ele>219</ele>
        <time>2021-08-14T10:44:16.000Z</time>
      </trkpt>
      <trkpt lat="49.80373" lon="4.8386">
        <ele>219</ele>
        <time>2021-08-14T10:44:17.000Z</time>
      </trkpt>
      <trkpt lat="49.8037" lon="4.83859">
        <ele>219</ele>
        <time>2021-08-14T10:44:18.000Z</time>
      </trkpt>
      <trkpt lat="49.80366" lon="4.83859">
        <ele>219</ele>
        <time>2021-08-14T10:44:19.000Z</time>
      </trkpt>
      <trkpt lat="49.80363" lon="4.83859">
        <ele>219</ele>
        <time>2021-08-14T10:44:20.000Z</time>
      </trkpt>
      <trkpt lat="49.80359" lon="4.83858">
        <ele>219</ele>
        <time>2021-08-14T10:44:21.000Z</time>
      </trkpt>
      <trkpt lat="49.80356" lon="4.83857">
        <ele>219</ele>
        <time>2021-08-14T10:44:22.000Z</time>
      </trkpt>
      <trkpt lat="49.80352" lon="4.83857">
        <ele>220</ele>
        <time>2021-08-14T10:44:23.000Z</time>
      </trkpt>
      <trkpt lat="49.80348" lon="4.83857">
        <ele>220</ele>
        <time>2021-08-14T10:44:24.000Z</time>
      </trkpt>
      <trkpt lat="49.80345" lon="4.83857">
        <ele>220</ele>
        <time>2021-08-14T10:44:25.000Z</time>
      </trkpt>
      <trkpt lat="49.80341" lon="4.83856">
        <ele>220</ele>
        <time>2021-08-14T10:44:26.000Z</time>
      </trkpt>
      <trkpt lat="49.80338" lon="4.83856">
        <ele>220</ele>
        <time>2021-08-14T10:44:27.000Z</time>
      </trkpt>
      <trkpt lat="49.80335" lon="4.83855">
        <ele>220</ele>
        <time>2021-08-14T10:44:28.000Z</time>
      </trkpt>
      <trkpt lat="49.80331" lon="4.83854">
        <ele>220</ele>
        <time>2021-08-14T10:44:29.000Z</time>
      </trkpt>
      <trkpt lat="49.80328" lon="4.83854">
        <ele>221</ele>
        <time>2021-08-14T10:44:30.000Z</time>
      </trkpt>
      <trkpt lat="49.80324" lon="4.83853">
        <ele>221</ele>
        <time>2021-08-14T10:44:31.000Z</time>
      </trkpt>
      <trkpt lat="49.80321" lon="4.83853">
        <ele>221</ele>
        <time>2021-08-14T10:44:32.000Z</time>
      </trkpt>
      <trkpt lat="49.80317" lon="4.83852">
        <ele>221</ele>
        <time>2021-08-14T10:44:33.000Z</time>
      </trkpt>
      <trkpt lat="49.80314" lon="4.83852">
        <ele>221</ele>
        <time>2021-08-14T10:44:34.000Z</time>
      </trkpt>
      <trkpt lat="49.80311" lon="4.83852">
        <ele>222</ele>
        <time>2021-08-14T10:44:35.000Z</time>
      </trkpt>
      <trkpt lat="49.80308" lon="4.83851">
        <ele>222</ele>
        <time>2021-08-14T10:44:36.000Z</time>
      </trkpt>
      <trkpt lat="49.80304" lon="4.8385">
        <ele>222</ele>
        <time>2021-08-14T10:44:37.000Z</time>
      </trkpt>
      <trkpt lat="49.80301" lon="4.83849">
        <ele>222</ele>
        <time>2021-08-14T10:44:38.000Z</time>
      </trkpt>
      <trkpt lat="49.80298" lon="4.83849">
        <ele>222</ele>
        <time>2021-08-14T10:44:39.000Z</time>
      </trkpt>
      <trkpt lat="49.80295" lon="4.83848">
        <ele>222</ele>
        <time>2021-08-14T10:44:40.000Z</time>
      </trkpt>
      <trkpt lat="49.80292" lon="4.83848">
        <ele>222</ele>
        <time>2021-08-14T10:44:41.000Z</time>
      </trkpt>
      <trkpt lat="49.80289" lon="4.83848">
        <ele>222</ele>
        <time>2021-08-14T10:44:42.000Z</time>
      </trkpt>
      <trkpt lat="49.80285" lon="4.83848">
        <ele>222</ele>
        <time>2021-08-14T10:44:43.000Z</time>
      </trkpt>
      <trkpt lat="49.80282" lon="4.83848">
        <ele>223</ele>
        <time>2021-08-14T10:44:44.000Z</time>
      </trkpt>
      <trkpt lat="49.80279" lon="4.83848">
        <ele>223</ele>
        <time>2021-08-14T10:44:45.000Z</time>
      </trkpt>
      <trkpt lat="49.80275" lon="4.83847">
        <ele>223</ele>
        <time>2021-08-14T10:44:46.000Z</time>
      </trkpt>
      <trkpt lat="49.80272" lon="4.83847">
        <ele>223</ele>
        <time>2021-08-14T10:44:47.000Z</time>
      </trkpt>
      <trkpt lat="49.80268" lon="4.83847">
        <ele>223</ele>
        <time>2021-08-14T10:44:48.000Z</time>
      </trkpt>
      <trkpt lat="49.80266" lon="4.83847">
        <ele>224</ele>
        <time>2021-08-14T10:44:49.000Z</time>
      </trkpt>
      <trkpt lat="49.80262" lon="4.83847">
        <ele>224</ele>
        <time>2021-08-14T10:44:50.000Z</time>
      </trkpt>
      <trkpt lat="49.80259" lon="4.83847">
        <ele>224</ele>
        <time>2021-08-14T10:44:51.000Z</time>
      </trkpt>
      <trkpt lat="49.80256" lon="4.83847">
        <ele>224</ele>
        <time>2021-08-14T10:44:52.000Z</time>
      </trkpt>
      <trkpt lat="49.80252" lon="4.83847">
        <ele>225</ele>
        <time>2021-08-14T10:44:53.000Z</time>
      </trkpt>
      <trkpt lat="49.80249" lon="4.83847">
        <ele>225</ele>
        <time>2021-08-14T10:44:54.000Z</time>
      </trkpt>
      <trkpt lat="49.80245" lon="4.83846">
        <ele>225</ele>
        <time>2021-08-14T10:44:55.000Z</time>
      </trkpt>
      <trkpt lat="49.80242" lon="4.83847">
        <ele>225</ele>
        <time>2021-08-14T10:44:56.000Z</time>
      </trkpt>
      <trkpt lat="49.80238" lon="4.83847">
        <ele>225</ele>
        <time>2021-08-14T10:44:57.000Z</time>
      </trkpt>
      <trkpt lat="49.80235" lon="4.83847">
        <ele>226</ele>
        <time>2021-08-14T10:44:58.000Z</time>
      </trkpt>
      <trkpt lat="49.80231" lon="4.83847">
        <ele>226</ele>
        <time>2021-08-14T10:44:59.000Z</time>
      </trkpt>
      <trkpt lat="49.80227" lon="4.83848">
        <ele>226</ele>
        <time>2021-08-14T10:45:00.000Z</time>
      </trkpt>
      <trkpt lat="49.80224" lon="4.83849">
        <ele>226</ele>
        <time>2021-08-14T10:45:01.000Z</time>
      </trkpt>
      <trkpt lat="49.8022" lon="4.8385">
        <ele>226</ele>
        <time>2021-08-14T10:45:02.000Z</time>
      </trkpt>
      <trkpt lat="49.80216" lon="4.8385">
        <ele>226</ele>
        <time>2021-08-14T10:45:03.000Z</time>
      </trkpt>
      <trkpt lat="49.80211" lon="4.8385">
        <ele>226</ele>
        <time>2021-08-14T10:45:04.000Z</time>
      </trkpt>
      <trkpt lat="49.80207" lon="4.83849">
        <ele>226</ele>
        <time>2021-08-14T10:45:05.000Z</time>
      </trkpt>
      <trkpt lat="49.80203" lon="4.83849">
        <ele>226</ele>
        <time>2021-08-14T10:45:06.000Z</time>
      </trkpt>
      <trkpt lat="49.80199" lon="4.83848">
        <ele>226</ele>
        <time>2021-08-14T10:45:07.000Z</time>
      </trkpt>
      <trkpt lat="49.80194" lon="4.83847">
        <ele>226</ele>
        <time>2021-08-14T10:45:08.000Z</time>
      </trkpt>
      <trkpt lat="49.8019" lon="4.83846">
        <ele>226</ele>
        <time>2021-08-14T10:45:09.000Z</time>
      </trkpt>
      <trkpt lat="49.80186" lon="4.83846">
        <ele>226</ele>
        <time>2021-08-14T10:45:10.000Z</time>
      </trkpt>
      <trkpt lat="49.80182" lon="4.83845">
        <ele>226</ele>
        <time>2021-08-14T10:45:11.000Z</time>
      </trkpt>
      <trkpt lat="49.80178" lon="4.83844">
        <ele>226</ele>
        <time>2021-08-14T10:45:12.000Z</time>
      </trkpt>
      <trkpt lat="49.80174" lon="4.83842">
        <ele>226</ele>
        <time>2021-08-14T10:45:13.000Z</time>
      </trkpt>
      <trkpt lat="49.80171" lon="4.83841">
        <ele>226</ele>
        <time>2021-08-14T10:45:14.000Z</time>
      </trkpt>
      <trkpt lat="49.80167" lon="4.83841">
        <ele>226</ele>
        <time>2021-08-14T10:45:15.000Z</time>
      </trkpt>
      <trkpt lat="49.80163" lon="4.8384">
        <ele>226</ele>
        <time>2021-08-14T10:45:16.000Z</time>
      </trkpt>
      <trkpt lat="49.80158" lon="4.8384">
        <ele>226</ele>
        <time>2021-08-14T10:45:17.000Z</time>
      </trkpt>
      <trkpt lat="49.80155" lon="4.8384">
        <ele>226</ele>
        <time>2021-08-14T10:45:18.000Z</time>
      </trkpt>
      <trkpt lat="49.80151" lon="4.83839">
        <ele>226</ele>
        <time>2021-08-14T10:45:19.000Z</time>
      </trkpt>
      <trkpt lat="49.80147" lon="4.83838">
        <ele>226</ele>
        <time>2021-08-14T10:45:20.000Z</time>
      </trkpt>
      <trkpt lat="49.80144" lon="4.83837">
        <ele>226</ele>
        <time>2021-08-14T10:45:21.000Z</time>
      </trkpt>
      <trkpt lat="49.8014" lon="4.83836">
        <ele>226</ele>
        <time>2021-08-14T10:45:22.000Z</time>
      </trkpt>
      <trkpt lat="49.80136" lon="4.83834">
        <ele>226</ele>
        <time>2021-08-14T10:45:23.000Z</time>
      </trkpt>
      <trkpt lat="49.80133" lon="4.83833">
        <ele>226</ele>
        <time>2021-08-14T10:45:24.000Z</time>
      </trkpt>
      <trkpt lat="49.80129" lon="4.83831">
        <ele>226</ele>
        <time>2021-08-14T10:45:25.000Z</time>
      </trkpt>
      <trkpt lat="49.80125" lon="4.8383">
        <ele>226</ele>
        <time>2021-08-14T10:45:26.000Z</time>
      </trkpt>
      <trkpt lat="49.80121" lon="4.83828">
        <ele>227</ele>
        <time>2021-08-14T10:45:27.000Z</time>
      </trkpt>
      <trkpt lat="49.80117" lon="4.83826">
        <ele>227</ele>
        <time>2021-08-14T10:45:28.000Z</time>
      </trkpt>
      <trkpt lat="49.80112" lon="4.83825">
        <ele>227</ele>
        <time>2021-08-14T10:45:29.000Z</time>
      </trkpt>
      <trkpt lat="49.80108" lon="4.83823">
        <ele>227</ele>
        <time>2021-08-14T10:45:30.000Z</time>
      </trkpt>
      <trkpt lat="49.80103" lon="4.83822">
        <ele>227</ele>
        <time>2021-08-14T10:45:31.000Z</time>
      </trkpt>
      <trkpt lat="49.80099" lon="4.83821">
        <ele>227</ele>
        <time>2021-08-14T10:45:32.000Z</time>
      </trkpt>
      <trkpt lat="49.80094" lon="4.8382">
        <ele>227</ele>
        <time>2021-08-14T10:45:33.000Z</time>
      </trkpt>
      <trkpt lat="49.80089" lon="4.83818">
        <ele>228</ele>
        <time>2021-08-14T10:45:34.000Z</time>
      </trkpt>
      <trkpt lat="49.80085" lon="4.83816">
        <ele>228</ele>
        <time>2021-08-14T10:45:35.000Z</time>
      </trkpt>
      <trkpt lat="49.8008" lon="4.83814">
        <ele>228</ele>
        <time>2021-08-14T10:45:36.000Z</time>
      </trkpt>
      <trkpt lat="49.80075" lon="4.83813">
        <ele>228</ele>
        <time>2021-08-14T10:45:37.000Z</time>
      </trkpt>
      <trkpt lat="49.8007" lon="4.83812">
        <ele>228</ele>
        <time>2021-08-14T10:45:38.000Z</time>
      </trkpt>
      <trkpt lat="49.80065" lon="4.8381">
        <ele>228</ele>
        <time>2021-08-14T10:45:39.000Z</time>
      </trkpt>
      <trkpt lat="49.8006" lon="4.83808">
        <ele>229</ele>
        <time>2021-08-14T10:45:40.000Z</time>
      </trkpt>
      <trkpt lat="49.80055" lon="4.83808">
        <ele>229</ele>
        <time>2021-08-14T10:45:41.000Z</time>
      </trkpt>
      <trkpt lat="49.8005" lon="4.83807">
        <ele>229</ele>
        <time>2021-08-14T10:45:42.000Z</time>
      </trkpt>
      <trkpt lat="49.80046" lon="4.83805">
        <ele>229</ele>
        <time>2021-08-14T10:45:43.000Z</time>
      </trkpt>
      <trkpt lat="49.80042" lon="4.83804">
        <ele>229</ele>
        <time>2021-08-14T10:45:44.000Z</time>
      </trkpt>
      <trkpt lat="49.80037" lon="4.83802">
        <ele>229</ele>
        <time>2021-08-14T10:45:45.000Z</time>
      </trkpt>
      <trkpt lat="49.80031" lon="4.83799">
        <ele>230</ele>
        <time>2021-08-14T10:45:46.000Z</time>
      </trkpt>
      <trkpt lat="49.80026" lon="4.83798">
        <ele>230</ele>
        <time>2021-08-14T10:45:47.000Z</time>
      </trkpt>
      <trkpt lat="49.80021" lon="4.83797">
        <ele>230</ele>
        <time>2021-08-14T10:45:48.000Z</time>
      </trkpt>
      <trkpt lat="49.80017" lon="4.83797">
        <ele>230</ele>
        <time>2021-08-14T10:45:49.000Z</time>
      </trkpt>
      <trkpt lat="49.80012" lon="4.83795">
        <ele>230</ele>
        <time>2021-08-14T10:45:50.000Z</time>
      </trkpt>
      <trkpt lat="49.80007" lon="4.83794">
        <ele>230</ele>
        <time>2021-08-14T10:45:51.000Z</time>
      </trkpt>
      <trkpt lat="49.80002" lon="4.83792">
        <ele>230</ele>
        <time>2021-08-14T10:45:52.000Z</time>
      </trkpt>
      <trkpt lat="49.79998" lon="4.8379">
        <ele>230</ele>
        <time>2021-08-14T10:45:53.000Z</time>
      </trkpt>
      <trkpt lat="49.79992" lon="4.83788">
        <ele>230</ele>
        <time>2021-08-14T10:45:54.000Z</time>
      </trkpt>
      <trkpt lat="49.79987" lon="4.83787">
        <ele>230</ele>
        <time>2021-08-14T10:45:55.000Z</time>
      </trkpt>
      <trkpt lat="49.79981" lon="4.83785">
        <ele>231</ele>
        <time>2021-08-14T10:45:56.000Z</time>
      </trkpt>
      <trkpt lat="49.79976" lon="4.83784">
        <ele>231</ele>
        <time>2021-08-14T10:45:57.000Z</time>
      </trkpt>
      <trkpt lat="49.79971" lon="4.83782">
        <ele>231</ele>
        <time>2021-08-14T10:45:58.000Z</time>
      </trkpt>
      <trkpt lat="49.79966" lon="4.83781">
        <ele>231</ele>
        <time>2021-08-14T10:45:59.000Z</time>
      </trkpt>
      <trkpt lat="49.79961" lon="4.8378">
        <ele>231</ele>
        <time>2021-08-14T10:46:00.000Z</time>
      </trkpt>
      <trkpt lat="49.79957" lon="4.83778">
        <ele>231</ele>
        <time>2021-08-14T10:46:01.000Z</time>
      </trkpt>
      <trkpt lat="49.79952" lon="4.83776">
        <ele>232</ele>
        <time>2021-08-14T10:46:02.000Z</time>
      </trkpt>
      <trkpt lat="49.79947" lon="4.83775">
        <ele>232</ele>
        <time>2021-08-14T10:46:03.000Z</time>
      </trkpt>
      <trkpt lat="49.79942" lon="4.83774">
        <ele>232</ele>
        <time>2021-08-14T10:46:04.000Z</time>
      </trkpt>
      <trkpt lat="49.79937" lon="4.83772">
        <ele>232</ele>
        <time>2021-08-14T10:46:05.000Z</time>
      </trkpt>
      <trkpt lat="49.79932" lon="4.83771">
        <ele>232</ele>
        <time>2021-08-14T10:46:06.000Z</time>
      </trkpt>
      <trkpt lat="49.79927" lon="4.83769">
        <ele>232</ele>
        <time>2021-08-14T10:46:07.000Z</time>
      </trkpt>
      <trkpt lat="49.79922" lon="4.83769">
        <ele>232</ele>
        <time>2021-08-14T10:46:08.000Z</time>
      </trkpt>
      <trkpt lat="49.79918" lon="4.83768">
        <ele>232</ele>
        <time>2021-08-14T10:46:09.000Z</time>
      </trkpt>
      <trkpt lat="49.79913" lon="4.83767">
        <ele>233</ele>
        <time>2021-08-14T10:46:10.000Z</time>
      </trkpt>
      <trkpt lat="49.79909" lon="4.83766">
        <ele>233</ele>
        <time>2021-08-14T10:46:11.000Z</time>
      </trkpt>
      <trkpt lat="49.79904" lon="4.83765">
        <ele>233</ele>
        <time>2021-08-14T10:46:12.000Z</time>
      </trkpt>
      <trkpt lat="49.79899" lon="4.83764">
        <ele>233</ele>
        <time>2021-08-14T10:46:13.000Z</time>
      </trkpt>
      <trkpt lat="49.79893" lon="4.83763">
        <ele>233</ele>
        <time>2021-08-14T10:46:14.000Z</time>
      </trkpt>
      <trkpt lat="49.79889" lon="4.83761">
        <ele>233</ele>
        <time>2021-08-14T10:46:15.000Z</time>
      </trkpt>
      <trkpt lat="49.79884" lon="4.83759">
        <ele>233</ele>
        <time>2021-08-14T10:46:16.000Z</time>
      </trkpt>
      <trkpt lat="49.79879" lon="4.83759">
        <ele>233</ele>
        <time>2021-08-14T10:46:17.000Z</time>
      </trkpt>
      <trkpt lat="49.79875" lon="4.83759">
        <ele>234</ele>
        <time>2021-08-14T10:46:18.000Z</time>
      </trkpt>
      <trkpt lat="49.7987" lon="4.83759">
        <ele>234</ele>
        <time>2021-08-14T10:46:19.000Z</time>
      </trkpt>
      <trkpt lat="49.79864" lon="4.83758">
        <ele>234</ele>
        <time>2021-08-14T10:46:20.000Z</time>
      </trkpt>
      <trkpt lat="49.79858" lon="4.83756">
        <ele>234</ele>
        <time>2021-08-14T10:46:21.000Z</time>
      </trkpt>
      <trkpt lat="49.79852" lon="4.83755">
        <ele>234</ele>
        <time>2021-08-14T10:46:22.000Z</time>
      </trkpt>
      <trkpt lat="49.79846" lon="4.83754">
        <ele>234</ele>
        <time>2021-08-14T10:46:23.000Z</time>
      </trkpt>
      <trkpt lat="49.7984" lon="4.83753">
        <ele>234</ele>
        <time>2021-08-14T10:46:24.000Z</time>
      </trkpt>
      <trkpt lat="49.79835" lon="4.83751">
        <ele>234</ele>
        <time>2021-08-14T10:46:25.000Z</time>
      </trkpt>
      <trkpt lat="49.79829" lon="4.8375">
        <ele>234</ele>
        <time>2021-08-14T10:46:26.000Z</time>
      </trkpt>
      <trkpt lat="49.79823" lon="4.83749">
        <ele>234</ele>
        <time>2021-08-14T10:46:27.000Z</time>
      </trkpt>
      <trkpt lat="49.79818" lon="4.83747">
        <ele>234</ele>
        <time>2021-08-14T10:46:28.000Z</time>
      </trkpt>
      <trkpt lat="49.79813" lon="4.83746">
        <ele>234</ele>
        <time>2021-08-14T10:46:29.000Z</time>
      </trkpt>
      <trkpt lat="49.79807" lon="4.83745">
        <ele>234</ele>
        <time>2021-08-14T10:46:30.000Z</time>
      </trkpt>
      <trkpt lat="49.79802" lon="4.83744">
        <ele>234</ele>
        <time>2021-08-14T10:46:31.000Z</time>
      </trkpt>
      <trkpt lat="49.79796" lon="4.83743">
        <ele>234</ele>
        <time>2021-08-14T10:46:32.000Z</time>
      </trkpt>
      <trkpt lat="49.79791" lon="4.83743">
        <ele>234</ele>
        <time>2021-08-14T10:46:33.000Z</time>
      </trkpt>
      <trkpt lat="49.79787" lon="4.83743">
        <ele>234</ele>
        <time>2021-08-14T10:46:34.000Z</time>
      </trkpt>
      <trkpt lat="49.79782" lon="4.83742">
        <ele>234</ele>
        <time>2021-08-14T10:46:35.000Z</time>
      </trkpt>
      <trkpt lat="49.79777" lon="4.83741">
        <ele>234</ele>
        <time>2021-08-14T10:46:36.000Z</time>
      </trkpt>
      <trkpt lat="49.79772" lon="4.83741">
        <ele>234</ele>
        <time>2021-08-14T10:46:37.000Z</time>
      </trkpt>
      <trkpt lat="49.79767" lon="4.83741">
        <ele>234</ele>
        <time>2021-08-14T10:46:38.000Z</time>
      </trkpt>
      <trkpt lat="49.79761" lon="4.83741">
        <ele>234</ele>
        <time>2021-08-14T10:46:39.000Z</time>
      </trkpt>
      <trkpt lat="49.79756" lon="4.83741">
        <ele>234</ele>
        <time>2021-08-14T10:46:40.000Z</time>
      </trkpt>
      <trkpt lat="49.79751" lon="4.83741">
        <ele>234</ele>
        <time>2021-08-14T10:46:41.000Z</time>
      </trkpt>
      <trkpt lat="49.79745" lon="4.83741">
        <ele>234</ele>
        <time>2021-08-14T10:46:42.000Z</time>
      </trkpt>
      <trkpt lat="49.7974" lon="4.83742">
        <ele>234</ele>
        <time>2021-08-14T10:46:43.000Z</time>
      </trkpt>
      <trkpt lat="49.79734" lon="4.83742">
        <ele>234</ele>
        <time>2021-08-14T10:46:44.000Z</time>
      </trkpt>
      <trkpt lat="49.79728" lon="4.83741">
        <ele>234</ele>
        <time>2021-08-14T10:46:45.000Z</time>
      </trkpt>
      <trkpt lat="49.79721" lon="4.8374">
        <ele>234</ele>
        <time>2021-08-14T10:46:46.000Z</time>
      </trkpt>
      <trkpt lat="49.79714" lon="4.83739">
        <ele>234</ele>
        <time>2021-08-14T10:46:47.000Z</time>
      </trkpt>
      <trkpt lat="49.79707" lon="4.83739">
        <ele>234</ele>
        <time>2021-08-14T10:46:48.000Z</time>
      </trkpt>
      <trkpt lat="49.797" lon="4.83738">
        <ele>234</ele>
        <time>2021-08-14T10:46:49.000Z</time>
      </trkpt>
      <trkpt lat="49.79694" lon="4.83739">
        <ele>234</ele>
        <time>2021-08-14T10:46:50.000Z</time>
      </trkpt>
      <trkpt lat="49.79687" lon="4.83738">
        <ele>234</ele>
        <time>2021-08-14T10:46:51.000Z</time>
      </trkpt>
      <trkpt lat="49.79681" lon="4.83738">
        <ele>234</ele>
        <time>2021-08-14T10:46:52.000Z</time>
      </trkpt>
      <trkpt lat="49.79675" lon="4.83739">
        <ele>234</ele>
        <time>2021-08-14T10:46:53.000Z</time>
      </trkpt>
      <trkpt lat="49.7967" lon="4.83741">
        <ele>234</ele>
        <time>2021-08-14T10:46:54.000Z</time>
      </trkpt>
      <trkpt lat="49.79663" lon="4.83741">
        <ele>234</ele>
        <time>2021-08-14T10:46:55.000Z</time>
      </trkpt>
      <trkpt lat="49.79657" lon="4.83742">
        <ele>234</ele>
        <time>2021-08-14T10:46:56.000Z</time>
      </trkpt>
      <trkpt lat="49.79651" lon="4.83741">
        <ele>234</ele>
        <time>2021-08-14T10:46:57.000Z</time>
      </trkpt>
      <trkpt lat="49.79644" lon="4.83741">
        <ele>234</ele>
        <time>2021-08-14T10:46:58.000Z</time>
      </trkpt>
      <trkpt lat="49.79638" lon="4.83741">
        <ele>233</ele>
        <time>2021-08-14T10:46:59.000Z</time>
      </trkpt>
      <trkpt lat="49.79631" lon="4.83741">
        <ele>233</ele>
        <time>2021-08-14T10:47:00.000Z</time>
      </trkpt>
      <trkpt lat="49.79624" lon="4.8374">
        <ele>233</ele>
        <time>2021-08-14T10:47:01.000Z</time>
      </trkpt>
      <trkpt lat="49.79618" lon="4.83739">
        <ele>232</ele>
        <time>2021-08-14T10:47:02.000Z</time>
      </trkpt>
      <trkpt lat="49.79611" lon="4.83738">
        <ele>232</ele>
        <time>2021-08-14T10:47:03.000Z</time>
      </trkpt>
      <trkpt lat="49.79604" lon="4.83738">
        <ele>232</ele>
        <time>2021-08-14T10:47:04.000Z</time>
      </trkpt>
      <trkpt lat="49.79598" lon="4.83737">
        <ele>231</ele>
        <time>2021-08-14T10:47:05.000Z</time>
      </trkpt>
      <trkpt lat="49.79591" lon="4.83736">
        <ele>231</ele>
        <time>2021-08-14T10:47:06.000Z</time>
      </trkpt>
      <trkpt lat="49.79584" lon="4.83735">
        <ele>230</ele>
        <time>2021-08-14T10:47:07.000Z</time>
      </trkpt>
      <trkpt lat="49.79578" lon="4.83735">
        <ele>230</ele>
        <time>2021-08-14T10:47:08.000Z</time>
      </trkpt>
      <trkpt lat="49.79572" lon="4.83734">
        <ele>229</ele>
        <time>2021-08-14T10:47:09.000Z</time>
      </trkpt>
      <trkpt lat="49.79565" lon="4.83733">
        <ele>229</ele>
        <time>2021-08-14T10:47:10.000Z</time>
      </trkpt>
      <trkpt lat="49.79559" lon="4.83732">
        <ele>228</ele>
        <time>2021-08-14T10:47:11.000Z</time>
      </trkpt>
      <trkpt lat="49.79552" lon="4.8373">
        <ele>228</ele>
        <time>2021-08-14T10:47:12.000Z</time>
      </trkpt>
      <trkpt lat="49.79546" lon="4.83728">
        <ele>227</ele>
        <time>2021-08-14T10:47:13.000Z</time>
      </trkpt>
      <trkpt lat="49.7954" lon="4.83727">
        <ele>227</ele>
        <time>2021-08-14T10:47:14.000Z</time>
      </trkpt>
      <trkpt lat="49.79534" lon="4.83726">
        <ele>227</ele>
        <time>2021-08-14T10:47:15.000Z</time>
      </trkpt>
      <trkpt lat="49.79527" lon="4.83725">
        <ele>226</ele>
        <time>2021-08-14T10:47:16.000Z</time>
      </trkpt>
      <trkpt lat="49.79521" lon="4.83723">
        <ele>226</ele>
        <time>2021-08-14T10:47:17.000Z</time>
      </trkpt>
      <trkpt lat="49.79516" lon="4.83722">
        <ele>226</ele>
        <time>2021-08-14T10:47:18.000Z</time>
      </trkpt>
      <trkpt lat="49.7951" lon="4.83721">
        <ele>225</ele>
        <time>2021-08-14T10:47:19.000Z</time>
      </trkpt>
      <trkpt lat="49.79505" lon="4.83719">
        <ele>225</ele>
        <time>2021-08-14T10:47:20.000Z</time>
      </trkpt>
      <trkpt lat="49.795" lon="4.83718">
        <ele>225</ele>
        <time>2021-08-14T10:47:21.000Z</time>
      </trkpt>
      <trkpt lat="49.79494" lon="4.83717">
        <ele>225</ele>
        <time>2021-08-14T10:47:22.000Z</time>
      </trkpt>
      <trkpt lat="49.79489" lon="4.83715">
        <ele>225</ele>
        <time>2021-08-14T10:47:23.000Z</time>
      </trkpt>
      <trkpt lat="49.79484" lon="4.83714">
        <ele>225</ele>
        <time>2021-08-14T10:47:24.000Z</time>
      </trkpt>
      <trkpt lat="49.79479" lon="4.83714">
        <ele>225</ele>
        <time>2021-08-14T10:47:25.000Z</time>
      </trkpt>
      <trkpt lat="49.79474" lon="4.83714">
        <ele>225</ele>
        <time>2021-08-14T10:47:26.000Z</time>
      </trkpt>
      <trkpt lat="49.79468" lon="4.83713">
        <ele>225</ele>
        <time>2021-08-14T10:47:27.000Z</time>
      </trkpt>
      <trkpt lat="49.79462" lon="4.83712">
        <ele>225</ele>
        <time>2021-08-14T10:47:28.000Z</time>
      </trkpt>
      <trkpt lat="49.79458" lon="4.83711">
        <ele>225</ele>
        <time>2021-08-14T10:47:29.000Z</time>
      </trkpt>
      <trkpt lat="49.79453" lon="4.8371">
        <ele>225</ele>
        <time>2021-08-14T10:47:30.000Z</time>
      </trkpt>
      <trkpt lat="49.79448" lon="4.83709">
        <ele>225</ele>
        <time>2021-08-14T10:47:31.000Z</time>
      </trkpt>
      <trkpt lat="49.79443" lon="4.83707">
        <ele>225</ele>
        <time>2021-08-14T10:47:32.000Z</time>
      </trkpt>
      <trkpt lat="49.79438" lon="4.83706">
        <ele>225</ele>
        <time>2021-08-14T10:47:33.000Z</time>
      </trkpt>
      <trkpt lat="49.79433" lon="4.83704">
        <ele>225</ele>
        <time>2021-08-14T10:47:34.000Z</time>
      </trkpt>
      <trkpt lat="49.79428" lon="4.83703">
        <ele>225</ele>
        <time>2021-08-14T10:47:35.000Z</time>
      </trkpt>
      <trkpt lat="49.79423" lon="4.83703">
        <ele>224</ele>
        <time>2021-08-14T10:47:36.000Z</time>
      </trkpt>
      <trkpt lat="49.79417" lon="4.83702">
        <ele>224</ele>
        <time>2021-08-14T10:47:37.000Z</time>
      </trkpt>
      <trkpt lat="49.79411" lon="4.83701">
        <ele>224</ele>
        <time>2021-08-14T10:47:38.000Z</time>
      </trkpt>
      <trkpt lat="49.79405" lon="4.837">
        <ele>224</ele>
        <time>2021-08-14T10:47:39.000Z</time>
      </trkpt>
      <trkpt lat="49.79399" lon="4.83699">
        <ele>224</ele>
        <time>2021-08-14T10:47:40.000Z</time>
      </trkpt>
      <trkpt lat="49.79392" lon="4.83699">
        <ele>224</ele>
        <time>2021-08-14T10:47:41.000Z</time>
      </trkpt>
      <trkpt lat="49.79386" lon="4.83699">
        <ele>224</ele>
        <time>2021-08-14T10:47:42.000Z</time>
      </trkpt>
      <trkpt lat="49.7938" lon="4.83701">
        <ele>224</ele>
        <time>2021-08-14T10:47:43.000Z</time>
      </trkpt>
      <trkpt lat="49.79374" lon="4.83704">
        <ele>224</ele>
        <time>2021-08-14T10:47:44.000Z</time>
      </trkpt>
      <trkpt lat="49.79368" lon="4.83707">
        <ele>224</ele>
        <time>2021-08-14T10:47:45.000Z</time>
      </trkpt>
      <trkpt lat="49.79362" lon="4.8371">
        <ele>224</ele>
        <time>2021-08-14T10:47:46.000Z</time>
      </trkpt>
      <trkpt lat="49.79357" lon="4.83714">
        <ele>224</ele>
        <time>2021-08-14T10:47:47.000Z</time>
      </trkpt>
      <trkpt lat="49.79353" lon="4.8372">
        <ele>224</ele>
        <time>2021-08-14T10:47:48.000Z</time>
      </trkpt>
      <trkpt lat="49.79348" lon="4.83725">
        <ele>224</ele>
        <time>2021-08-14T10:47:49.000Z</time>
      </trkpt>
      <trkpt lat="49.79343" lon="4.8373">
        <ele>224</ele>
        <time>2021-08-14T10:47:50.000Z</time>
      </trkpt>
      <trkpt lat="49.79339" lon="4.83734">
        <ele>224</ele>
        <time>2021-08-14T10:47:51.000Z</time>
      </trkpt>
      <trkpt lat="49.79335" lon="4.8374">
        <ele>224</ele>
        <time>2021-08-14T10:47:52.000Z</time>
      </trkpt>
      <trkpt lat="49.7933" lon="4.83745">
        <ele>224</ele>
        <time>2021-08-14T10:47:53.000Z</time>
      </trkpt>
      <trkpt lat="49.79326" lon="4.83751">
        <ele>224</ele>
        <time>2021-08-14T10:47:54.000Z</time>
      </trkpt>
      <trkpt lat="49.79321" lon="4.83757">
        <ele>224</ele>
        <time>2021-08-14T10:47:55.000Z</time>
      </trkpt>
      <trkpt lat="49.79317" lon="4.83763">
        <ele>224</ele>
        <time>2021-08-14T10:47:56.000Z</time>
      </trkpt>
      <trkpt lat="49.79313" lon="4.83769">
        <ele>223</ele>
        <time>2021-08-14T10:47:57.000Z</time>
      </trkpt>
      <trkpt lat="49.79309" lon="4.83776">
        <ele>223</ele>
        <time>2021-08-14T10:47:58.000Z</time>
      </trkpt>
      <trkpt lat="49.79304" lon="4.83783">
        <ele>223</ele>
        <time>2021-08-14T10:47:59.000Z</time>
      </trkpt>
      <trkpt lat="49.793" lon="4.8379">
        <ele>222</ele>
        <time>2021-08-14T10:48:00.000Z</time>
      </trkpt>
      <trkpt lat="49.79296" lon="4.83797">
        <ele>222</ele>
        <time>2021-08-14T10:48:01.000Z</time>
      </trkpt>
      <trkpt lat="49.79292" lon="4.83805">
        <ele>222</ele>
        <time>2021-08-14T10:48:02.000Z</time>
      </trkpt>
      <trkpt lat="49.79288" lon="4.83812">
        <ele>221</ele>
        <time>2021-08-14T10:48:03.000Z</time>
      </trkpt>
      <trkpt lat="49.79284" lon="4.83819">
        <ele>221</ele>
        <time>2021-08-14T10:48:04.000Z</time>
      </trkpt>
      <trkpt lat="49.7928" lon="4.83826">
        <ele>221</ele>
        <time>2021-08-14T10:48:05.000Z</time>
      </trkpt>
      <trkpt lat="49.79276" lon="4.83833">
        <ele>221</ele>
        <time>2021-08-14T10:48:06.000Z</time>
      </trkpt>
      <trkpt lat="49.79272" lon="4.83841">
        <ele>221</ele>
        <time>2021-08-14T10:48:07.000Z</time>
      </trkpt>
      <trkpt lat="49.79268" lon="4.83848">
        <ele>221</ele>
        <time>2021-08-14T10:48:08.000Z</time>
      </trkpt>
      <trkpt lat="49.79264" lon="4.83855">
        <ele>220</ele>
        <time>2021-08-14T10:48:09.000Z</time>
      </trkpt>
      <trkpt lat="49.7926" lon="4.83862">
        <ele>220</ele>
        <time>2021-08-14T10:48:10.000Z</time>
      </trkpt>
      <trkpt lat="49.79256" lon="4.83871">
        <ele>220</ele>
        <time>2021-08-14T10:48:11.000Z</time>
      </trkpt>
      <trkpt lat="49.79252" lon="4.83878">
        <ele>220</ele>
        <time>2021-08-14T10:48:12.000Z</time>
      </trkpt>
      <trkpt lat="49.79247" lon="4.83886">
        <ele>220</ele>
        <time>2021-08-14T10:48:13.000Z</time>
      </trkpt>
      <trkpt lat="49.79243" lon="4.83894">
        <ele>220</ele>
        <time>2021-08-14T10:48:14.000Z</time>
      </trkpt>
      <trkpt lat="49.7924" lon="4.83902">
        <ele>219</ele>
        <time>2021-08-14T10:48:15.000Z</time>
      </trkpt>
      <trkpt lat="49.79236" lon="4.8391">
        <ele>219</ele>
        <time>2021-08-14T10:48:16.000Z</time>
      </trkpt>
      <trkpt lat="49.79233" lon="4.83918">
        <ele>219</ele>
        <time>2021-08-14T10:48:17.000Z</time>
      </trkpt>
      <trkpt lat="49.7923" lon="4.83926">
        <ele>218</ele>
        <time>2021-08-14T10:48:18.000Z</time>
      </trkpt>
      <trkpt lat="49.79226" lon="4.83934">
        <ele>218</ele>
        <time>2021-08-14T10:48:19.000Z</time>
      </trkpt>
      <trkpt lat="49.79223" lon="4.83941">
        <ele>218</ele>
        <time>2021-08-14T10:48:20.000Z</time>
      </trkpt>
      <trkpt lat="49.79219" lon="4.83947">
        <ele>218</ele>
        <time>2021-08-14T10:48:21.000Z</time>
      </trkpt>
      <trkpt lat="49.79216" lon="4.83954">
        <ele>218</ele>
        <time>2021-08-14T10:48:22.000Z</time>
      </trkpt>
      <trkpt lat="49.79213" lon="4.83961">
        <ele>217</ele>
        <time>2021-08-14T10:48:23.000Z</time>
      </trkpt>
      <trkpt lat="49.7921" lon="4.83969">
        <ele>217</ele>
        <time>2021-08-14T10:48:24.000Z</time>
      </trkpt>
      <trkpt lat="49.79206" lon="4.83977">
        <ele>217</ele>
        <time>2021-08-14T10:48:25.000Z</time>
      </trkpt>
      <trkpt lat="49.79203" lon="4.83986">
        <ele>217</ele>
        <time>2021-08-14T10:48:26.000Z</time>
      </trkpt>
      <trkpt lat="49.79199" lon="4.83995">
        <ele>217</ele>
        <time>2021-08-14T10:48:27.000Z</time>
      </trkpt>
      <trkpt lat="49.79195" lon="4.84003">
        <ele>217</ele>
        <time>2021-08-14T10:48:28.000Z</time>
      </trkpt>
      <trkpt lat="49.79191" lon="4.84011">
        <ele>217</ele>
        <time>2021-08-14T10:48:29.000Z</time>
      </trkpt>
      <trkpt lat="49.79187" lon="4.8402">
        <ele>217</ele>
        <time>2021-08-14T10:48:30.000Z</time>
      </trkpt>
      <trkpt lat="49.79182" lon="4.84028">
        <ele>217</ele>
        <time>2021-08-14T10:48:31.000Z</time>
      </trkpt>
      <trkpt lat="49.79178" lon="4.84036">
        <ele>217</ele>
        <time>2021-08-14T10:48:32.000Z</time>
      </trkpt>
      <trkpt lat="49.79174" lon="4.84044">
        <ele>218</ele>
        <time>2021-08-14T10:48:33.000Z</time>
      </trkpt>
      <trkpt lat="49.7917" lon="4.84052">
        <ele>218</ele>
        <time>2021-08-14T10:48:34.000Z</time>
      </trkpt>
      <trkpt lat="49.79165" lon="4.8406">
        <ele>218</ele>
        <time>2021-08-14T10:48:35.000Z</time>
      </trkpt>
      <trkpt lat="49.79161" lon="4.84068">
        <ele>218</ele>
        <time>2021-08-14T10:48:36.000Z</time>
      </trkpt>
      <trkpt lat="49.79156" lon="4.84075">
        <ele>218</ele>
        <time>2021-08-14T10:48:37.000Z</time>
      </trkpt>
      <trkpt lat="49.79151" lon="4.84082">
        <ele>218</ele>
        <time>2021-08-14T10:48:38.000Z</time>
      </trkpt>
      <trkpt lat="49.79146" lon="4.84089">
        <ele>218</ele>
        <time>2021-08-14T10:48:39.000Z</time>
      </trkpt>
      <trkpt lat="49.79141" lon="4.84096">
        <ele>218</ele>
        <time>2021-08-14T10:48:40.000Z</time>
      </trkpt>
      <trkpt lat="49.79136" lon="4.84103">
        <ele>218</ele>
        <time>2021-08-14T10:48:41.000Z</time>
      </trkpt>
      <trkpt lat="49.79131" lon="4.8411">
        <ele>218</ele>
        <time>2021-08-14T10:48:42.000Z</time>
      </trkpt>
      <trkpt lat="49.79126" lon="4.84117">
        <ele>218</ele>
        <time>2021-08-14T10:48:43.000Z</time>
      </trkpt>
      <trkpt lat="49.79121" lon="4.84124">
        <ele>218</ele>
        <time>2021-08-14T10:48:44.000Z</time>
      </trkpt>
      <trkpt lat="49.79117" lon="4.84131">
        <ele>218</ele>
        <time>2021-08-14T10:48:45.000Z</time>
      </trkpt>
      <trkpt lat="49.79112" lon="4.84138">
        <ele>217</ele>
        <time>2021-08-14T10:48:46.000Z</time>
      </trkpt>
      <trkpt lat="49.79107" lon="4.84145">
        <ele>217</ele>
        <time>2021-08-14T10:48:47.000Z</time>
      </trkpt>
      <trkpt lat="49.79102" lon="4.84152">
        <ele>217</ele>
        <time>2021-08-14T10:48:48.000Z</time>
      </trkpt>
      <trkpt lat="49.79097" lon="4.84159">
        <ele>217</ele>
        <time>2021-08-14T10:48:49.000Z</time>
      </trkpt>
      <trkpt lat="49.79092" lon="4.84166">
        <ele>217</ele>
        <time>2021-08-14T10:48:50.000Z</time>
      </trkpt>
      <trkpt lat="49.79087" lon="4.84171">
        <ele>217</ele>
        <time>2021-08-14T10:48:51.000Z</time>
      </trkpt>
      <trkpt lat="49.79082" lon="4.84178">
        <ele>216</ele>
        <time>2021-08-14T10:48:52.000Z</time>
      </trkpt>
      <trkpt lat="49.79077" lon="4.84184">
        <ele>216</ele>
        <time>2021-08-14T10:48:53.000Z</time>
      </trkpt>
      <trkpt lat="49.79072" lon="4.84191">
        <ele>216</ele>
        <time>2021-08-14T10:48:54.000Z</time>
      </trkpt>
      <trkpt lat="49.79067" lon="4.84198">
        <ele>216</ele>
        <time>2021-08-14T10:48:55.000Z</time>
      </trkpt>
      <trkpt lat="49.79061" lon="4.84204">
        <ele>216</ele>
        <time>2021-08-14T10:48:56.000Z</time>
      </trkpt>
      <trkpt lat="49.79056" lon="4.84212">
        <ele>216</ele>
        <time>2021-08-14T10:48:57.000Z</time>
      </trkpt>
      <trkpt lat="49.79051" lon="4.84218">
        <ele>216</ele>
        <time>2021-08-14T10:48:58.000Z</time>
      </trkpt>
      <trkpt lat="49.79046" lon="4.84225">
        <ele>216</ele>
        <time>2021-08-14T10:48:59.000Z</time>
      </trkpt>
      <trkpt lat="49.7904" lon="4.84232">
        <ele>216</ele>
        <time>2021-08-14T10:49:00.000Z</time>
      </trkpt>
      <trkpt lat="49.79035" lon="4.84238">
        <ele>216</ele>
        <time>2021-08-14T10:49:01.000Z</time>
      </trkpt>
      <trkpt lat="49.79029" lon="4.84244">
        <ele>216</ele>
        <time>2021-08-14T10:49:02.000Z</time>
      </trkpt>
      <trkpt lat="49.79024" lon="4.84249">
        <ele>215</ele>
        <time>2021-08-14T10:49:03.000Z</time>
      </trkpt>
      <trkpt lat="49.79019" lon="4.84256">
        <ele>215</ele>
        <time>2021-08-14T10:49:04.000Z</time>
      </trkpt>
      <trkpt lat="49.79013" lon="4.84262">
        <ele>215</ele>
        <time>2021-08-14T10:49:05.000Z</time>
      </trkpt>
      <trkpt lat="49.79008" lon="4.84266">
        <ele>215</ele>
        <time>2021-08-14T10:49:06.000Z</time>
      </trkpt>
      <trkpt lat="49.79003" lon="4.8427">
        <ele>215</ele>
        <time>2021-08-14T10:49:07.000Z</time>
      </trkpt>
      <trkpt lat="49.78997" lon="4.84275">
        <ele>215</ele>
        <time>2021-08-14T10:49:08.000Z</time>
      </trkpt>
      <trkpt lat="49.78991" lon="4.84278">
        <ele>215</ele>
        <time>2021-08-14T10:49:09.000Z</time>
      </trkpt>
      <trkpt lat="49.78984" lon="4.84282">
        <ele>215</ele>
        <time>2021-08-14T10:49:10.000Z</time>
      </trkpt>
      <trkpt lat="49.78978" lon="4.84286">
        <ele>215</ele>
        <time>2021-08-14T10:49:11.000Z</time>
      </trkpt>
      <trkpt lat="49.78971" lon="4.8429">
        <ele>215</ele>
        <time>2021-08-14T10:49:12.000Z</time>
      </trkpt>
      <trkpt lat="49.78965" lon="4.84294">
        <ele>215</ele>
        <time>2021-08-14T10:49:13.000Z</time>
      </trkpt>
      <trkpt lat="49.78959" lon="4.84298">
        <ele>215</ele>
        <time>2021-08-14T10:49:14.000Z</time>
      </trkpt>
      <trkpt lat="49.78952" lon="4.84302">
        <ele>215</ele>
        <time>2021-08-14T10:49:15.000Z</time>
      </trkpt>
      <trkpt lat="49.78945" lon="4.84305">
        <ele>215</ele>
        <time>2021-08-14T10:49:16.000Z</time>
      </trkpt>
      <trkpt lat="49.78938" lon="4.84309">
        <ele>215</ele>
        <time>2021-08-14T10:49:17.000Z</time>
      </trkpt>
      <trkpt lat="49.78931" lon="4.84312">
        <ele>215</ele>
        <time>2021-08-14T10:49:18.000Z</time>
      </trkpt>
      <trkpt lat="49.78925" lon="4.84315">
        <ele>215</ele>
        <time>2021-08-14T10:49:19.000Z</time>
      </trkpt>
      <trkpt lat="49.78919" lon="4.84317">
        <ele>215</ele>
        <time>2021-08-14T10:49:20.000Z</time>
      </trkpt>
      <trkpt lat="49.78912" lon="4.8432">
        <ele>215</ele>
        <time>2021-08-14T10:49:21.000Z</time>
      </trkpt>
      <trkpt lat="49.78906" lon="4.84323">
        <ele>215</ele>
        <time>2021-08-14T10:49:22.000Z</time>
      </trkpt>
      <trkpt lat="49.789" lon="4.84326">
        <ele>215</ele>
        <time>2021-08-14T10:49:23.000Z</time>
      </trkpt>
      <trkpt lat="49.78893" lon="4.84328">
        <ele>215</ele>
        <time>2021-08-14T10:49:24.000Z</time>
      </trkpt>
      <trkpt lat="49.78886" lon="4.8433">
        <ele>215</ele>
        <time>2021-08-14T10:49:25.000Z</time>
      </trkpt>
      <trkpt lat="49.7888" lon="4.84332">
        <ele>215</ele>
        <time>2021-08-14T10:49:26.000Z</time>
      </trkpt>
      <trkpt lat="49.78874" lon="4.84333">
        <ele>215</ele>
        <time>2021-08-14T10:49:27.000Z</time>
      </trkpt>
      <trkpt lat="49.78867" lon="4.84333">
        <ele>215</ele>
        <time>2021-08-14T10:49:28.000Z</time>
      </trkpt>
      <trkpt lat="49.7886" lon="4.84333">
        <ele>215</ele>
        <time>2021-08-14T10:49:29.000Z</time>
      </trkpt>
      <trkpt lat="49.78853" lon="4.84332">
        <ele>215</ele>
        <time>2021-08-14T10:49:30.000Z</time>
      </trkpt>
      <trkpt lat="49.78847" lon="4.84332">
        <ele>215</ele>
        <time>2021-08-14T10:49:31.000Z</time>
      </trkpt>
      <trkpt lat="49.78841" lon="4.84332">
        <ele>215</ele>
        <time>2021-08-14T10:49:32.000Z</time>
      </trkpt>
      <trkpt lat="49.78834" lon="4.84332">
        <ele>215</ele>
        <time>2021-08-14T10:49:33.000Z</time>
      </trkpt>
      <trkpt lat="49.78826" lon="4.84332">
        <ele>214</ele>
        <time>2021-08-14T10:49:34.000Z</time>
      </trkpt>
      <trkpt lat="49.78819" lon="4.84332">
        <ele>214</ele>
        <time>2021-08-14T10:49:35.000Z</time>
      </trkpt>
      <trkpt lat="49.78811" lon="4.84332">
        <ele>214</ele>
        <time>2021-08-14T10:49:36.000Z</time>
      </trkpt>
      <trkpt lat="49.78804" lon="4.84332">
        <ele>214</ele>
        <time>2021-08-14T10:49:37.000Z</time>
      </trkpt>
      <trkpt lat="49.78797" lon="4.84331">
        <ele>214</ele>
        <time>2021-08-14T10:49:38.000Z</time>
      </trkpt>
      <trkpt lat="49.7879" lon="4.8433">
        <ele>213</ele>
        <time>2021-08-14T10:49:39.000Z</time>
      </trkpt>
      <trkpt lat="49.78783" lon="4.8433">
        <ele>213</ele>
        <time>2021-08-14T10:49:40.000Z</time>
      </trkpt>
      <trkpt lat="49.78776" lon="4.8433">
        <ele>213</ele>
        <time>2021-08-14T10:49:41.000Z</time>
      </trkpt>
      <trkpt lat="49.78769" lon="4.8433">
        <ele>212</ele>
        <time>2021-08-14T10:49:42.000Z</time>
      </trkpt>
      <trkpt lat="49.78763" lon="4.8433">
        <ele>212</ele>
        <time>2021-08-14T10:49:43.000Z</time>
      </trkpt>
      <trkpt lat="49.78756" lon="4.84329">
        <ele>212</ele>
        <time>2021-08-14T10:49:44.000Z</time>
      </trkpt>
      <trkpt lat="49.78749" lon="4.84328">
        <ele>212</ele>
        <time>2021-08-14T10:49:45.000Z</time>
      </trkpt>
      <trkpt lat="49.78742" lon="4.84327">
        <ele>212</ele>
        <time>2021-08-14T10:49:46.000Z</time>
      </trkpt>
      <trkpt lat="49.78735" lon="4.84327">
        <ele>211</ele>
        <time>2021-08-14T10:49:47.000Z</time>
      </trkpt>
      <trkpt lat="49.78728" lon="4.84328">
        <ele>211</ele>
        <time>2021-08-14T10:49:48.000Z</time>
      </trkpt>
      <trkpt lat="49.78721" lon="4.84328">
        <ele>211</ele>
        <time>2021-08-14T10:49:49.000Z</time>
      </trkpt>
      <trkpt lat="49.78714" lon="4.84328">
        <ele>211</ele>
        <time>2021-08-14T10:49:50.000Z</time>
      </trkpt>
      <trkpt lat="49.78707" lon="4.84328">
        <ele>210</ele>
        <time>2021-08-14T10:49:51.000Z</time>
      </trkpt>
      <trkpt lat="49.787" lon="4.84328">
        <ele>210</ele>
        <time>2021-08-14T10:49:52.000Z</time>
      </trkpt>
      <trkpt lat="49.78693" lon="4.84328">
        <ele>210</ele>
        <time>2021-08-14T10:49:53.000Z</time>
      </trkpt>
      <trkpt lat="49.78686" lon="4.84327">
        <ele>209</ele>
        <time>2021-08-14T10:49:54.000Z</time>
      </trkpt>
      <trkpt lat="49.78679" lon="4.84327">
        <ele>209</ele>
        <time>2021-08-14T10:49:55.000Z</time>
      </trkpt>
      <trkpt lat="49.78673" lon="4.84327">
        <ele>208</ele>
        <time>2021-08-14T10:49:56.000Z</time>
      </trkpt>
      <trkpt lat="49.78665" lon="4.84326">
        <ele>208</ele>
        <time>2021-08-14T10:49:57.000Z</time>
      </trkpt>
      <trkpt lat="49.78659" lon="4.84325">
        <ele>208</ele>
        <time>2021-08-14T10:49:58.000Z</time>
      </trkpt>
      <trkpt lat="49.78652" lon="4.84326">
        <ele>207</ele>
        <time>2021-08-14T10:49:59.000Z</time>
      </trkpt>
      <trkpt lat="49.78646" lon="4.84325">
        <ele>207</ele>
        <time>2021-08-14T10:50:00.000Z</time>
      </trkpt>
      <trkpt lat="49.78639" lon="4.84325">
        <ele>206</ele>
        <time>2021-08-14T10:50:01.000Z</time>
      </trkpt>
      <trkpt lat="49.78633" lon="4.84323">
        <ele>206</ele>
        <time>2021-08-14T10:50:02.000Z</time>
      </trkpt>
      <trkpt lat="49.78626" lon="4.84322">
        <ele>206</ele>
        <time>2021-08-14T10:50:03.000Z</time>
      </trkpt>
      <trkpt lat="49.78619" lon="4.84321">
        <ele>205</ele>
        <time>2021-08-14T10:50:04.000Z</time>
      </trkpt>
      <trkpt lat="49.78612" lon="4.84321">
        <ele>205</ele>
        <time>2021-08-14T10:50:05.000Z</time>
      </trkpt>
      <trkpt lat="49.78605" lon="4.84321">
        <ele>205</ele>
        <time>2021-08-14T10:50:06.000Z</time>
      </trkpt>
      <trkpt lat="49.78598" lon="4.8432">
        <ele>205</ele>
        <time>2021-08-14T10:50:07.000Z</time>
      </trkpt>
      <trkpt lat="49.78591" lon="4.8432">
        <ele>204</ele>
        <time>2021-08-14T10:50:08.000Z</time>
      </trkpt>
      <trkpt lat="49.78584" lon="4.8432">
        <ele>204</ele>
        <time>2021-08-14T10:50:09.000Z</time>
      </trkpt>
      <trkpt lat="49.78577" lon="4.84319">
        <ele>204</ele>
        <time>2021-08-14T10:50:10.000Z</time>
      </trkpt>
      <trkpt lat="49.7857" lon="4.84319">
        <ele>203</ele>
        <time>2021-08-14T10:50:11.000Z</time>
      </trkpt>
      <trkpt lat="49.78564" lon="4.84319">
        <ele>203</ele>
        <time>2021-08-14T10:50:12.000Z</time>
      </trkpt>
      <trkpt lat="49.78557" lon="4.84319">
        <ele>203</ele>
        <time>2021-08-14T10:50:13.000Z</time>
      </trkpt>
      <trkpt lat="49.7855" lon="4.84318">
        <ele>202</ele>
        <time>2021-08-14T10:50:14.000Z</time>
      </trkpt>
      <trkpt lat="49.78543" lon="4.84318">
        <ele>202</ele>
        <time>2021-08-14T10:50:15.000Z</time>
      </trkpt>
      <trkpt lat="49.78537" lon="4.84317">
        <ele>201</ele>
        <time>2021-08-14T10:50:16.000Z</time>
      </trkpt>
      <trkpt lat="49.7853" lon="4.84316">
        <ele>201</ele>
        <time>2021-08-14T10:50:17.000Z</time>
      </trkpt>
      <trkpt lat="49.78523" lon="4.84315">
        <ele>201</ele>
        <time>2021-08-14T10:50:18.000Z</time>
      </trkpt>
      <trkpt lat="49.78516" lon="4.84314">
        <ele>200</ele>
        <time>2021-08-14T10:50:19.000Z</time>
      </trkpt>
      <trkpt lat="49.78509" lon="4.84313">
        <ele>200</ele>
        <time>2021-08-14T10:50:20.000Z</time>
      </trkpt>
      <trkpt lat="49.78503" lon="4.84312">
        <ele>200</ele>
        <time>2021-08-14T10:50:21.000Z</time>
      </trkpt>
      <trkpt lat="49.78496" lon="4.84312">
        <ele>200</ele>
        <time>2021-08-14T10:50:22.000Z</time>
      </trkpt>
      <trkpt lat="49.78489" lon="4.84312">
        <ele>199</ele>
        <time>2021-08-14T10:50:23.000Z</time>
      </trkpt>
      <trkpt lat="49.78482" lon="4.84312">
        <ele>199</ele>
        <time>2021-08-14T10:50:24.000Z</time>
      </trkpt>
      <trkpt lat="49.78476" lon="4.84311">
        <ele>199</ele>
        <time>2021-08-14T10:50:25.000Z</time>
      </trkpt>
      <trkpt lat="49.78469" lon="4.84311">
        <ele>199</ele>
        <time>2021-08-14T10:50:26.000Z</time>
      </trkpt>
      <trkpt lat="49.78463" lon="4.8431">
        <ele>198</ele>
        <time>2021-08-14T10:50:27.000Z</time>
      </trkpt>
      <trkpt lat="49.78457" lon="4.8431">
        <ele>198</ele>
        <time>2021-08-14T10:50:28.000Z</time>
      </trkpt>
      <trkpt lat="49.78451" lon="4.8431">
        <ele>198</ele>
        <time>2021-08-14T10:50:29.000Z</time>
      </trkpt>
      <trkpt lat="49.78445" lon="4.84311">
        <ele>198</ele>
        <time>2021-08-14T10:50:30.000Z</time>
      </trkpt>
      <trkpt lat="49.78439" lon="4.84314">
        <ele>198</ele>
        <time>2021-08-14T10:50:31.000Z</time>
      </trkpt>
      <trkpt lat="49.78433" lon="4.84315">
        <ele>197</ele>
        <time>2021-08-14T10:50:32.000Z</time>
      </trkpt>
      <trkpt lat="49.78428" lon="4.84319">
        <ele>197</ele>
        <time>2021-08-14T10:50:33.000Z</time>
      </trkpt>
      <trkpt lat="49.78422" lon="4.84323">
        <ele>197</ele>
        <time>2021-08-14T10:50:34.000Z</time>
      </trkpt>
      <trkpt lat="49.78418" lon="4.84328">
        <ele>197</ele>
        <time>2021-08-14T10:50:35.000Z</time>
      </trkpt>
      <trkpt lat="49.78413" lon="4.84333">
        <ele>197</ele>
        <time>2021-08-14T10:50:36.000Z</time>
      </trkpt>
      <trkpt lat="49.78408" lon="4.84337">
        <ele>197</ele>
        <time>2021-08-14T10:50:37.000Z</time>
      </trkpt>
      <trkpt lat="49.78403" lon="4.84341">
        <ele>196</ele>
        <time>2021-08-14T10:50:38.000Z</time>
      </trkpt>
      <trkpt lat="49.78399" lon="4.84346">
        <ele>196</ele>
        <time>2021-08-14T10:50:39.000Z</time>
      </trkpt>
      <trkpt lat="49.78395" lon="4.8435">
        <ele>196</ele>
        <time>2021-08-14T10:50:40.000Z</time>
      </trkpt>
      <trkpt lat="49.7839" lon="4.84352">
        <ele>196</ele>
        <time>2021-08-14T10:50:41.000Z</time>
      </trkpt>
      <trkpt lat="49.78385" lon="4.84353">
        <ele>196</ele>
        <time>2021-08-14T10:50:42.000Z</time>
      </trkpt>
      <trkpt lat="49.78379" lon="4.84354">
        <ele>196</ele>
        <time>2021-08-14T10:50:43.000Z</time>
      </trkpt>
      <trkpt lat="49.78373" lon="4.84352">
        <ele>195</ele>
        <time>2021-08-14T10:50:44.000Z</time>
      </trkpt>
      <trkpt lat="49.78368" lon="4.84349">
        <ele>195</ele>
        <time>2021-08-14T10:50:45.000Z</time>
      </trkpt>
      <trkpt lat="49.78362" lon="4.84345">
        <ele>195</ele>
        <time>2021-08-14T10:50:46.000Z</time>
      </trkpt>
      <trkpt lat="49.78356" lon="4.84341">
        <ele>195</ele>
        <time>2021-08-14T10:50:47.000Z</time>
      </trkpt>
      <trkpt lat="49.78351" lon="4.84337">
        <ele>195</ele>
        <time>2021-08-14T10:50:48.000Z</time>
      </trkpt>
      <trkpt lat="49.78344" lon="4.84332">
        <ele>195</ele>
        <time>2021-08-14T10:50:49.000Z</time>
      </trkpt>
      <trkpt lat="49.78338" lon="4.84328">
        <ele>195</ele>
        <time>2021-08-14T10:50:50.000Z</time>
      </trkpt>
      <trkpt lat="49.78333" lon="4.84323">
        <ele>195</ele>
        <time>2021-08-14T10:50:51.000Z</time>
      </trkpt>
      <trkpt lat="49.78327" lon="4.8432">
        <ele>195</ele>
        <time>2021-08-14T10:50:52.000Z</time>
      </trkpt>
      <trkpt lat="49.78321" lon="4.84316">
        <ele>195</ele>
        <time>2021-08-14T10:50:53.000Z</time>
      </trkpt>
      <trkpt lat="49.78316" lon="4.84312">
        <ele>194</ele>
        <time>2021-08-14T10:50:54.000Z</time>
      </trkpt>
      <trkpt lat="49.7831" lon="4.84308">
        <ele>194</ele>
        <time>2021-08-14T10:50:55.000Z</time>
      </trkpt>
      <trkpt lat="49.78305" lon="4.84305">
        <ele>194</ele>
        <time>2021-08-14T10:50:56.000Z</time>
      </trkpt>
      <trkpt lat="49.78299" lon="4.84301">
        <ele>194</ele>
        <time>2021-08-14T10:50:57.000Z</time>
      </trkpt>
      <trkpt lat="49.78294" lon="4.84298">
        <ele>194</ele>
        <time>2021-08-14T10:50:58.000Z</time>
      </trkpt>
      <trkpt lat="49.78289" lon="4.84294">
        <ele>194</ele>
        <time>2021-08-14T10:50:59.000Z</time>
      </trkpt>
      <trkpt lat="49.78283" lon="4.8429">
        <ele>194</ele>
        <time>2021-08-14T10:51:00.000Z</time>
      </trkpt>
      <trkpt lat="49.78278" lon="4.84287">
        <ele>193</ele>
        <time>2021-08-14T10:51:01.000Z</time>
      </trkpt>
      <trkpt lat="49.78272" lon="4.84284">
        <ele>193</ele>
        <time>2021-08-14T10:51:02.000Z</time>
      </trkpt>
      <trkpt lat="49.78267" lon="4.8428">
        <ele>193</ele>
        <time>2021-08-14T10:51:03.000Z</time>
      </trkpt>
      <trkpt lat="49.78261" lon="4.84276">
        <ele>193</ele>
        <time>2021-08-14T10:51:04.000Z</time>
      </trkpt>
      <trkpt lat="49.78257" lon="4.8427">
        <ele>193</ele>
        <time>2021-08-14T10:51:05.000Z</time>
      </trkpt>
      <trkpt lat="49.78253" lon="4.84265">
        <ele>193</ele>
        <time>2021-08-14T10:51:06.000Z</time>
      </trkpt>
      <trkpt lat="49.78249" lon="4.84258">
        <ele>193</ele>
        <time>2021-08-14T10:51:07.000Z</time>
      </trkpt>
      <trkpt lat="49.78246" lon="4.84252">
        <ele>193</ele>
        <time>2021-08-14T10:51:08.000Z</time>
      </trkpt>
      <trkpt lat="49.78243" lon="4.84246">
        <ele>193</ele>
        <time>2021-08-14T10:51:09.000Z</time>
      </trkpt>
      <trkpt lat="49.78241" lon="4.84239">
        <ele>193</ele>
        <time>2021-08-14T10:51:10.000Z</time>
      </trkpt>
      <trkpt lat="49.7824" lon="4.84233">
        <ele>193</ele>
        <time>2021-08-14T10:51:11.000Z</time>
      </trkpt>
      <trkpt lat="49.78238" lon="4.84227">
        <ele>193</ele>
        <time>2021-08-14T10:51:12.000Z</time>
      </trkpt>
      <trkpt lat="49.78237" lon="4.8422">
        <ele>192</ele>
        <time>2021-08-14T10:51:13.000Z</time>
      </trkpt>
      <trkpt lat="49.78236" lon="4.84214">
        <ele>192</ele>
        <time>2021-08-14T10:51:14.000Z</time>
      </trkpt>
      <trkpt lat="49.78234" lon="4.84208">
        <ele>192</ele>
        <time>2021-08-14T10:51:15.000Z</time>
      </trkpt>
      <trkpt lat="49.78233" lon="4.84203">
        <ele>191</ele>
        <time>2021-08-14T10:51:16.000Z</time>
      </trkpt>
      <trkpt lat="49.78231" lon="4.84198">
        <ele>191</ele>
        <time>2021-08-14T10:51:17.000Z</time>
      </trkpt>
      <trkpt lat="49.78229" lon="4.84194">
        <ele>191</ele>
        <time>2021-08-14T10:51:18.000Z</time>
      </trkpt>
      <trkpt lat="49.78228" lon="4.8419">
        <ele>191</ele>
        <time>2021-08-14T10:51:19.000Z</time>
      </trkpt>
      <trkpt lat="49.78227" lon="4.84185">
        <ele>190</ele>
        <time>2021-08-14T10:51:20.000Z</time>
      </trkpt>
      <trkpt lat="49.78226" lon="4.8418">
        <ele>190</ele>
        <time>2021-08-14T10:51:21.000Z</time>
      </trkpt>
      <trkpt lat="49.78224" lon="4.84175">
        <ele>190</ele>
        <time>2021-08-14T10:51:22.000Z</time>
      </trkpt>
      <trkpt lat="49.78222" lon="4.8417">
        <ele>190</ele>
        <time>2021-08-14T10:51:23.000Z</time>
      </trkpt>
      <trkpt lat="49.7822" lon="4.84166">
        <ele>190</ele>
        <time>2021-08-14T10:51:24.000Z</time>
      </trkpt>
      <trkpt lat="49.78218" lon="4.84162">
        <ele>190</ele>
        <time>2021-08-14T10:51:25.000Z</time>
      </trkpt>
      <trkpt lat="49.78215" lon="4.84157">
        <ele>190</ele>
        <time>2021-08-14T10:51:26.000Z</time>
      </trkpt>
      <trkpt lat="49.78212" lon="4.84152">
        <ele>190</ele>
        <time>2021-08-14T10:51:27.000Z</time>
      </trkpt>
      <trkpt lat="49.7821" lon="4.84147">
        <ele>190</ele>
        <time>2021-08-14T10:51:28.000Z</time>
      </trkpt>
      <trkpt lat="49.78206" lon="4.84142">
        <ele>190</ele>
        <time>2021-08-14T10:51:29.000Z</time>
      </trkpt>
      <trkpt lat="49.78203" lon="4.84138">
        <ele>190</ele>
        <time>2021-08-14T10:51:30.000Z</time>
      </trkpt>
      <trkpt lat="49.78199" lon="4.84134">
        <ele>190</ele>
        <time>2021-08-14T10:51:31.000Z</time>
      </trkpt>
      <trkpt lat="49.78196" lon="4.8413">
        <ele>190</ele>
        <time>2021-08-14T10:51:32.000Z</time>
      </trkpt>
      <trkpt lat="49.78192" lon="4.84128">
        <ele>190</ele>
        <time>2021-08-14T10:51:33.000Z</time>
      </trkpt>
      <trkpt lat="49.78189" lon="4.84125">
        <ele>189</ele>
        <time>2021-08-14T10:51:34.000Z</time>
      </trkpt>
      <trkpt lat="49.78185" lon="4.84123">
        <ele>189</ele>
        <time>2021-08-14T10:51:35.000Z</time>
      </trkpt>
      <trkpt lat="49.78182" lon="4.84121">
        <ele>189</ele>
        <time>2021-08-14T10:51:36.000Z</time>
      </trkpt>
      <trkpt lat="49.78179" lon="4.84119">
        <ele>189</ele>
        <time>2021-08-14T10:51:37.000Z</time>
      </trkpt>
      <trkpt lat="49.78176" lon="4.84117">
        <ele>189</ele>
        <time>2021-08-14T10:51:38.000Z</time>
      </trkpt>
      <trkpt lat="49.78173" lon="4.84114">
        <ele>189</ele>
        <time>2021-08-14T10:51:39.000Z</time>
      </trkpt>
      <trkpt lat="49.7817" lon="4.84112">
        <ele>189</ele>
        <time>2021-08-14T10:51:40.000Z</time>
      </trkpt>
      <trkpt lat="49.78167" lon="4.8411">
        <ele>189</ele>
        <time>2021-08-14T10:51:41.000Z</time>
      </trkpt>
      <trkpt lat="49.78163" lon="4.84108">
        <ele>190</ele>
        <time>2021-08-14T10:51:42.000Z</time>
      </trkpt>
      <trkpt lat="49.7816" lon="4.84106">
        <ele>190</ele>
        <time>2021-08-14T10:51:43.000Z</time>
      </trkpt>
      <trkpt lat="49.78157" lon="4.84104">
        <ele>190</ele>
        <time>2021-08-14T10:51:44.000Z</time>
      </trkpt>
      <trkpt lat="49.78154" lon="4.84102">
        <ele>190</ele>
        <time>2021-08-14T10:51:45.000Z</time>
      </trkpt>
      <trkpt lat="49.7815" lon="4.841">
        <ele>190</ele>
        <time>2021-08-14T10:51:46.000Z</time>
      </trkpt>
      <trkpt lat="49.78146" lon="4.84099">
        <ele>190</ele>
        <time>2021-08-14T10:51:47.000Z</time>
      </trkpt>
      <trkpt lat="49.78143" lon="4.84097">
        <ele>190</ele>
        <time>2021-08-14T10:51:48.000Z</time>
      </trkpt>
      <trkpt lat="49.78139" lon="4.84095">
        <ele>190</ele>
        <time>2021-08-14T10:51:49.000Z</time>
      </trkpt>
      <trkpt lat="49.78136" lon="4.84092">
        <ele>191</ele>
        <time>2021-08-14T10:51:50.000Z</time>
      </trkpt>
      <trkpt lat="49.78132" lon="4.8409">
        <ele>191</ele>
        <time>2021-08-14T10:51:51.000Z</time>
      </trkpt>
      <trkpt lat="49.78129" lon="4.84088">
        <ele>191</ele>
        <time>2021-08-14T10:51:52.000Z</time>
      </trkpt>
      <trkpt lat="49.78126" lon="4.84086">
        <ele>191</ele>
        <time>2021-08-14T10:51:53.000Z</time>
      </trkpt>
      <trkpt lat="49.78122" lon="4.84084">
        <ele>191</ele>
        <time>2021-08-14T10:51:54.000Z</time>
      </trkpt>
      <trkpt lat="49.78119" lon="4.84083">
        <ele>191</ele>
        <time>2021-08-14T10:51:55.000Z</time>
      </trkpt>
      <trkpt lat="49.78116" lon="4.84081">
        <ele>191</ele>
        <time>2021-08-14T10:51:56.000Z</time>
      </trkpt>
      <trkpt lat="49.78112" lon="4.84079">
        <ele>191</ele>
        <time>2021-08-14T10:51:57.000Z</time>
      </trkpt>
      <trkpt lat="49.78109" lon="4.84077">
        <ele>191</ele>
        <time>2021-08-14T10:51:58.000Z</time>
      </trkpt>
      <trkpt lat="49.78106" lon="4.84075">
        <ele>191</ele>
        <time>2021-08-14T10:51:59.000Z</time>
      </trkpt>
      <trkpt lat="49.78103" lon="4.84073">
        <ele>191</ele>
        <time>2021-08-14T10:52:00.000Z</time>
      </trkpt>
      <trkpt lat="49.78099" lon="4.84071">
        <ele>191</ele>
        <time>2021-08-14T10:52:01.000Z</time>
      </trkpt>
      <trkpt lat="49.78096" lon="4.84069">
        <ele>191</ele>
        <time>2021-08-14T10:52:02.000Z</time>
      </trkpt>
      <trkpt lat="49.78093" lon="4.84066">
        <ele>191</ele>
        <time>2021-08-14T10:52:03.000Z</time>
      </trkpt>
      <trkpt lat="49.7809" lon="4.84064">
        <ele>191</ele>
        <time>2021-08-14T10:52:04.000Z</time>
      </trkpt>
      <trkpt lat="49.78086" lon="4.84062">
        <ele>191</ele>
        <time>2021-08-14T10:52:05.000Z</time>
      </trkpt>
      <trkpt lat="49.78083" lon="4.8406">
        <ele>191</ele>
        <time>2021-08-14T10:52:06.000Z</time>
      </trkpt>
      <trkpt lat="49.7808" lon="4.84058">
        <ele>192</ele>
        <time>2021-08-14T10:52:07.000Z</time>
      </trkpt>
      <trkpt lat="49.78077" lon="4.84056">
        <ele>192</ele>
        <time>2021-08-14T10:52:08.000Z</time>
      </trkpt>
      <trkpt lat="49.78073" lon="4.84054">
        <ele>192</ele>
        <time>2021-08-14T10:52:09.000Z</time>
      </trkpt>
      <trkpt lat="49.7807" lon="4.84052">
        <ele>192</ele>
        <time>2021-08-14T10:52:10.000Z</time>
      </trkpt>
      <trkpt lat="49.78067" lon="4.84051">
        <ele>192</ele>
        <time>2021-08-14T10:52:11.000Z</time>
      </trkpt>
      <trkpt lat="49.78064" lon="4.84049">
        <ele>192</ele>
        <time>2021-08-14T10:52:12.000Z</time>
      </trkpt>
      <trkpt lat="49.7806" lon="4.84047">
        <ele>193</ele>
        <time>2021-08-14T10:52:13.000Z</time>
      </trkpt>
      <trkpt lat="49.78057" lon="4.84046">
        <ele>193</ele>
        <time>2021-08-14T10:52:14.000Z</time>
      </trkpt>
      <trkpt lat="49.78055" lon="4.84044">
        <ele>193</ele>
        <time>2021-08-14T10:52:15.000Z</time>
      </trkpt>
      <trkpt lat="49.78052" lon="4.84042">
        <ele>193</ele>
        <time>2021-08-14T10:52:16.000Z</time>
      </trkpt>
      <trkpt lat="49.78049" lon="4.84041">
        <ele>193</ele>
        <time>2021-08-14T10:52:17.000Z</time>
      </trkpt>
      <trkpt lat="49.78046" lon="4.84039">
        <ele>193</ele>
        <time>2021-08-14T10:52:18.000Z</time>
      </trkpt>
      <trkpt lat="49.78042" lon="4.84037">
        <ele>194</ele>
        <time>2021-08-14T10:52:19.000Z</time>
      </trkpt>
      <trkpt lat="49.78039" lon="4.84035">
        <ele>194</ele>
        <time>2021-08-14T10:52:20.000Z</time>
      </trkpt>
      <trkpt lat="49.78035" lon="4.84033">
        <ele>194</ele>
        <time>2021-08-14T10:52:21.000Z</time>
      </trkpt>
      <trkpt lat="49.78032" lon="4.84031">
        <ele>194</ele>
        <time>2021-08-14T10:52:22.000Z</time>
      </trkpt>
      <trkpt lat="49.78028" lon="4.84028">
        <ele>194</ele>
        <time>2021-08-14T10:52:23.000Z</time>
      </trkpt>
      <trkpt lat="49.78025" lon="4.84026">
        <ele>194</ele>
        <time>2021-08-14T10:52:24.000Z</time>
      </trkpt>
      <trkpt lat="49.78022" lon="4.84023">
        <ele>194</ele>
        <time>2021-08-14T10:52:25.000Z</time>
      </trkpt>
      <trkpt lat="49.78018" lon="4.84019">
        <ele>194</ele>
        <time>2021-08-14T10:52:26.000Z</time>
      </trkpt>
      <trkpt lat="49.78015" lon="4.84016">
        <ele>195</ele>
        <time>2021-08-14T10:52:27.000Z</time>
      </trkpt>
      <trkpt lat="49.78011" lon="4.84012">
        <ele>195</ele>
        <time>2021-08-14T10:52:28.000Z</time>
      </trkpt>
      <trkpt lat="49.78007" lon="4.84009">
        <ele>195</ele>
        <time>2021-08-14T10:52:29.000Z</time>
      </trkpt>
      <trkpt lat="49.78003" lon="4.84005">
        <ele>195</ele>
        <time>2021-08-14T10:52:30.000Z</time>
      </trkpt>
      <trkpt lat="49.78" lon="4.84001">
        <ele>195</ele>
        <time>2021-08-14T10:52:31.000Z</time>
      </trkpt>
      <trkpt lat="49.77996" lon="4.83997">
        <ele>195</ele>
        <time>2021-08-14T10:52:32.000Z</time>
      </trkpt>
      <trkpt lat="49.77992" lon="4.83993">
        <ele>195</ele>
        <time>2021-08-14T10:52:33.000Z</time>
      </trkpt>
      <trkpt lat="49.77989" lon="4.83989">
        <ele>195</ele>
        <time>2021-08-14T10:52:34.000Z</time>
      </trkpt>
      <trkpt lat="49.77986" lon="4.83984">
        <ele>195</ele>
        <time>2021-08-14T10:52:35.000Z</time>
      </trkpt>
      <trkpt lat="49.77982" lon="4.8398">
        <ele>195</ele>
        <time>2021-08-14T10:52:36.000Z</time>
      </trkpt>
      <trkpt lat="49.77979" lon="4.83976">
        <ele>195</ele>
        <time>2021-08-14T10:52:37.000Z</time>
      </trkpt>
      <trkpt lat="49.77976" lon="4.83972">
        <ele>195</ele>
        <time>2021-08-14T10:52:38.000Z</time>
      </trkpt>
      <trkpt lat="49.77972" lon="4.83968">
        <ele>195</ele>
        <time>2021-08-14T10:52:39.000Z</time>
      </trkpt>
      <trkpt lat="49.77969" lon="4.83963">
        <ele>195</ele>
        <time>2021-08-14T10:52:40.000Z</time>
      </trkpt>
      <trkpt lat="49.77966" lon="4.83959">
        <ele>195</ele>
        <time>2021-08-14T10:52:41.000Z</time>
      </trkpt>
      <trkpt lat="49.77963" lon="4.83954">
        <ele>195</ele>
        <time>2021-08-14T10:52:42.000Z</time>
      </trkpt>
      <trkpt lat="49.7796" lon="4.83951">
        <ele>195</ele>
        <time>2021-08-14T10:52:43.000Z</time>
      </trkpt>
      <trkpt lat="49.77957" lon="4.83946">
        <ele>195</ele>
        <time>2021-08-14T10:52:44.000Z</time>
      </trkpt>
      <trkpt lat="49.77954" lon="4.83942">
        <ele>195</ele>
        <time>2021-08-14T10:52:45.000Z</time>
      </trkpt>
      <trkpt lat="49.77951" lon="4.83938">
        <ele>195</ele>
        <time>2021-08-14T10:52:46.000Z</time>
      </trkpt>
      <trkpt lat="49.77948" lon="4.83934">
        <ele>195</ele>
        <time>2021-08-14T10:52:47.000Z</time>
      </trkpt>
      <trkpt lat="49.77945" lon="4.8393">
        <ele>195</ele>
        <time>2021-08-14T10:52:48.000Z</time>
      </trkpt>
      <trkpt lat="49.77942" lon="4.83925">
        <ele>195</ele>
        <time>2021-08-14T10:52:49.000Z</time>
      </trkpt>
      <trkpt lat="49.77939" lon="4.83921">
        <ele>195</ele>
        <time>2021-08-14T10:52:50.000Z</time>
      </trkpt>
      <trkpt lat="49.77936" lon="4.83918">
        <ele>195</ele>
        <time>2021-08-14T10:52:51.000Z</time>
      </trkpt>
      <trkpt lat="49.77933" lon="4.83913">
        <ele>195</ele>
        <time>2021-08-14T10:52:52.000Z</time>
      </trkpt>
      <trkpt lat="49.7793" lon="4.83909">
        <ele>195</ele>
        <time>2021-08-14T10:52:53.000Z</time>
      </trkpt>
      <trkpt lat="49.77926" lon="4.83905">
        <ele>195</ele>
        <time>2021-08-14T10:52:54.000Z</time>
      </trkpt>
      <trkpt lat="49.77923" lon="4.83901">
        <ele>195</ele>
        <time>2021-08-14T10:52:55.000Z</time>
      </trkpt>
      <trkpt lat="49.7792" lon="4.83897">
        <ele>196</ele>
        <time>2021-08-14T10:52:56.000Z</time>
      </trkpt>
      <trkpt lat="49.77917" lon="4.83893">
        <ele>196</ele>
        <time>2021-08-14T10:52:57.000Z</time>
      </trkpt>
      <trkpt lat="49.77914" lon="4.83889">
        <ele>196</ele>
        <time>2021-08-14T10:52:58.000Z</time>
      </trkpt>
      <trkpt lat="49.77911" lon="4.83885">
        <ele>196</ele>
        <time>2021-08-14T10:52:59.000Z</time>
      </trkpt>
      <trkpt lat="49.77909" lon="4.83881">
        <ele>196</ele>
        <time>2021-08-14T10:53:00.000Z</time>
      </trkpt>
      <trkpt lat="49.77906" lon="4.83877">
        <ele>196</ele>
        <time>2021-08-14T10:53:01.000Z</time>
      </trkpt>
      <trkpt lat="49.77903" lon="4.83873">
        <ele>196</ele>
        <time>2021-08-14T10:53:02.000Z</time>
      </trkpt>
      <trkpt lat="49.779" lon="4.83869">
        <ele>196</ele>
        <time>2021-08-14T10:53:03.000Z</time>
      </trkpt>
      <trkpt lat="49.77897" lon="4.83865">
        <ele>196</ele>
        <time>2021-08-14T10:53:04.000Z</time>
      </trkpt>
      <trkpt lat="49.77895" lon="4.83861">
        <ele>196</ele>
        <time>2021-08-14T10:53:05.000Z</time>
      </trkpt>
      <trkpt lat="49.77892" lon="4.83857">
        <ele>196</ele>
        <time>2021-08-14T10:53:06.000Z</time>
      </trkpt>
      <trkpt lat="49.77889" lon="4.83854">
        <ele>196</ele>
        <time>2021-08-14T10:53:07.000Z</time>
      </trkpt>
      <trkpt lat="49.77886" lon="4.8385">
        <ele>196</ele>
        <time>2021-08-14T10:53:08.000Z</time>
      </trkpt>
      <trkpt lat="49.77884" lon="4.83846">
        <ele>196</ele>
        <time>2021-08-14T10:53:09.000Z</time>
      </trkpt>
      <trkpt lat="49.77881" lon="4.83843">
        <ele>196</ele>
        <time>2021-08-14T10:53:10.000Z</time>
      </trkpt>
      <trkpt lat="49.77878" lon="4.83839">
        <ele>196</ele>
        <time>2021-08-14T10:53:11.000Z</time>
      </trkpt>
      <trkpt lat="49.77876" lon="4.83836">
        <ele>196</ele>
        <time>2021-08-14T10:53:12.000Z</time>
      </trkpt>
      <trkpt lat="49.77873" lon="4.83832">
        <ele>196</ele>
        <time>2021-08-14T10:53:13.000Z</time>
      </trkpt>
      <trkpt lat="49.7787" lon="4.83829">
        <ele>196</ele>
        <time>2021-08-14T10:53:14.000Z</time>
      </trkpt>
      <trkpt lat="49.77868" lon="4.83826">
        <ele>196</ele>
        <time>2021-08-14T10:53:15.000Z</time>
      </trkpt>
      <trkpt lat="49.77864" lon="4.83824">
        <ele>196</ele>
        <time>2021-08-14T10:53:16.000Z</time>
      </trkpt>
      <trkpt lat="49.77862" lon="4.83825">
        <ele>196</ele>
        <time>2021-08-14T10:53:17.000Z</time>
      </trkpt>
      <trkpt lat="49.77859" lon="4.83826">
        <ele>197</ele>
        <time>2021-08-14T10:53:18.000Z</time>
      </trkpt>
      <trkpt lat="49.77857" lon="4.83826">
        <ele>197</ele>
        <time>2021-08-14T10:53:19.000Z</time>
      </trkpt>
      <trkpt lat="49.77855" lon="4.83827">
        <ele>197</ele>
        <time>2021-08-14T10:53:20.000Z</time>
      </trkpt>
      <trkpt lat="49.77853" lon="4.83827">
        <ele>197</ele>
        <time>2021-08-14T10:53:21.000Z</time>
      </trkpt>
      <trkpt lat="49.7785" lon="4.83826">
        <ele>197</ele>
        <time>2021-08-14T10:53:22.000Z</time>
      </trkpt>
      <trkpt lat="49.77848" lon="4.83826">
        <ele>198</ele>
        <time>2021-08-14T10:53:23.000Z</time>
      </trkpt>
      <trkpt lat="49.77846" lon="4.83826">
        <ele>198</ele>
        <time>2021-08-14T10:53:24.000Z</time>
      </trkpt>
      <trkpt lat="49.77844" lon="4.83825">
        <ele>198</ele>
        <time>2021-08-14T10:53:25.000Z</time>
      </trkpt>
      <trkpt lat="49.77842" lon="4.83825">
        <ele>198</ele>
        <time>2021-08-14T10:53:26.000Z</time>
      </trkpt>
      <trkpt lat="49.77841" lon="4.83825">
        <ele>199</ele>
        <time>2021-08-14T10:53:27.000Z</time>
      </trkpt>
      <trkpt lat="49.77838" lon="4.83824">
        <ele>199</ele>
        <time>2021-08-14T10:53:28.000Z</time>
      </trkpt>
      <trkpt lat="49.77836" lon="4.83824">
        <ele>199</ele>
        <time>2021-08-14T10:53:29.000Z</time>
      </trkpt>
      <trkpt lat="49.77834" lon="4.83823">
        <ele>200</ele>
        <time>2021-08-14T10:53:30.000Z</time>
      </trkpt>
      <trkpt lat="49.77831" lon="4.83822">
        <ele>200</ele>
        <time>2021-08-14T10:53:31.000Z</time>
      </trkpt>
      <trkpt lat="49.77829" lon="4.83822">
        <ele>200</ele>
        <time>2021-08-14T10:53:32.000Z</time>
      </trkpt>
      <trkpt lat="49.77827" lon="4.83822">
        <ele>201</ele>
        <time>2021-08-14T10:53:33.000Z</time>
      </trkpt>
      <trkpt lat="49.77825" lon="4.83821">
        <ele>201</ele>
        <time>2021-08-14T10:53:34.000Z</time>
      </trkpt>
      <trkpt lat="49.77822" lon="4.83821">
        <ele>201</ele>
        <time>2021-08-14T10:53:35.000Z</time>
      </trkpt>
      <trkpt lat="49.77821" lon="4.8382">
        <ele>202</ele>
        <time>2021-08-14T10:53:36.000Z</time>
      </trkpt>
      <trkpt lat="49.77819" lon="4.8382">
        <ele>202</ele>
        <time>2021-08-14T10:53:37.000Z</time>
      </trkpt>
      <trkpt lat="49.77817" lon="4.83819">
        <ele>203</ele>
        <time>2021-08-14T10:53:38.000Z</time>
      </trkpt>
      <trkpt lat="49.77815" lon="4.83819">
        <ele>203</ele>
        <time>2021-08-14T10:53:39.000Z</time>
      </trkpt>
      <trkpt lat="49.77814" lon="4.83818">
        <ele>203</ele>
        <time>2021-08-14T10:53:40.000Z</time>
      </trkpt>
      <trkpt lat="49.77813" lon="4.83818">
        <ele>204</ele>
        <time>2021-08-14T10:53:41.000Z</time>
      </trkpt>
      <trkpt lat="49.77811" lon="4.83817">
        <ele>204</ele>
        <time>2021-08-14T10:53:42.000Z</time>
      </trkpt>
      <trkpt lat="49.77809" lon="4.83817">
        <ele>204</ele>
        <time>2021-08-14T10:53:43.000Z</time>
      </trkpt>
      <trkpt lat="49.77807" lon="4.83816">
        <ele>205</ele>
        <time>2021-08-14T10:53:44.000Z</time>
      </trkpt>
      <trkpt lat="49.77806" lon="4.83815">
        <ele>205</ele>
        <time>2021-08-14T10:53:45.000Z</time>
      </trkpt>
      <trkpt lat="49.77804" lon="4.83815">
        <ele>205</ele>
        <time>2021-08-14T10:53:46.000Z</time>
      </trkpt>
      <trkpt lat="49.77802" lon="4.83815">
        <ele>206</ele>
        <time>2021-08-14T10:53:47.000Z</time>
      </trkpt>
      <trkpt lat="49.778" lon="4.83814">
        <ele>206</ele>
        <time>2021-08-14T10:53:48.000Z</time>
      </trkpt>
      <trkpt lat="49.77798" lon="4.83814">
        <ele>206</ele>
        <time>2021-08-14T10:53:49.000Z</time>
      </trkpt>
      <trkpt lat="49.77797" lon="4.83813">
        <ele>207</ele>
        <time>2021-08-14T10:53:50.000Z</time>
      </trkpt>
      <trkpt lat="49.77794" lon="4.83813">
        <ele>207</ele>
        <time>2021-08-14T10:53:51.000Z</time>
      </trkpt>
      <trkpt lat="49.77792" lon="4.83812">
        <ele>207</ele>
        <time>2021-08-14T10:53:52.000Z</time>
      </trkpt>
      <trkpt lat="49.7779" lon="4.83811">
        <ele>207</ele>
        <time>2021-08-14T10:53:53.000Z</time>
      </trkpt>
      <trkpt lat="49.77788" lon="4.8381">
        <ele>207</ele>
        <time>2021-08-14T10:53:54.000Z</time>
      </trkpt>
      <trkpt lat="49.77786" lon="4.8381">
        <ele>208</ele>
        <time>2021-08-14T10:53:55.000Z</time>
      </trkpt>
      <trkpt lat="49.77783" lon="4.8381">
        <ele>208</ele>
        <time>2021-08-14T10:53:56.000Z</time>
      </trkpt>
      <trkpt lat="49.77782" lon="4.83809">
        <ele>208</ele>
        <time>2021-08-14T10:53:57.000Z</time>
      </trkpt>
      <trkpt lat="49.77779" lon="4.83809">
        <ele>208</ele>
        <time>2021-08-14T10:53:58.000Z</time>
      </trkpt>
      <trkpt lat="49.77777" lon="4.83809">
        <ele>209</ele>
        <time>2021-08-14T10:53:59.000Z</time>
      </trkpt>
      <trkpt lat="49.77774" lon="4.83809">
        <ele>209</ele>
        <time>2021-08-14T10:54:00.000Z</time>
      </trkpt>
      <trkpt lat="49.77772" lon="4.8381">
        <ele>209</ele>
        <time>2021-08-14T10:54:01.000Z</time>
      </trkpt>
      <trkpt lat="49.7777" lon="4.8381">
        <ele>210</ele>
        <time>2021-08-14T10:54:02.000Z</time>
      </trkpt>
      <trkpt lat="49.77768" lon="4.8381">
        <ele>210</ele>
        <time>2021-08-14T10:54:03.000Z</time>
      </trkpt>
      <trkpt lat="49.77766" lon="4.8381">
        <ele>210</ele>
        <time>2021-08-14T10:54:04.000Z</time>
      </trkpt>
      <trkpt lat="49.77764" lon="4.8381">
        <ele>210</ele>
        <time>2021-08-14T10:54:05.000Z</time>
      </trkpt>
      <trkpt lat="49.77762" lon="4.83809">
        <ele>211</ele>
        <time>2021-08-14T10:54:06.000Z</time>
      </trkpt>
      <trkpt lat="49.77759" lon="4.83809">
        <ele>211</ele>
        <time>2021-08-14T10:54:07.000Z</time>
      </trkpt>
      <trkpt lat="49.77757" lon="4.83808">
        <ele>211</ele>
        <time>2021-08-14T10:54:08.000Z</time>
      </trkpt>
      <trkpt lat="49.77755" lon="4.83806">
        <ele>211</ele>
        <time>2021-08-14T10:54:09.000Z</time>
      </trkpt>
      <trkpt lat="49.77753" lon="4.83804">
        <ele>211</ele>
        <time>2021-08-14T10:54:10.000Z</time>
      </trkpt>
      <trkpt lat="49.77751" lon="4.83804">
        <ele>211</ele>
        <time>2021-08-14T10:54:11.000Z</time>
      </trkpt>
      <trkpt lat="49.77749" lon="4.83803">
        <ele>212</ele>
        <time>2021-08-14T10:54:12.000Z</time>
      </trkpt>
      <trkpt lat="49.77748" lon="4.83802">
        <ele>212</ele>
        <time>2021-08-14T10:54:13.000Z</time>
      </trkpt>
      <trkpt lat="49.77746" lon="4.83802">
        <ele>212</ele>
        <time>2021-08-14T10:54:14.000Z</time>
      </trkpt>
      <trkpt lat="49.77744" lon="4.83801">
        <ele>212</ele>
        <time>2021-08-14T10:54:15.000Z</time>
      </trkpt>
      <trkpt lat="49.77742" lon="4.83801">
        <ele>212</ele>
        <time>2021-08-14T10:54:16.000Z</time>
      </trkpt>
      <trkpt lat="49.7774" lon="4.83801">
        <ele>213</ele>
        <time>2021-08-14T10:54:17.000Z</time>
      </trkpt>
      <trkpt lat="49.77738" lon="4.838">
        <ele>213</ele>
        <time>2021-08-14T10:54:18.000Z</time>
      </trkpt>
      <trkpt lat="49.77736" lon="4.83799">
        <ele>213</ele>
        <time>2021-08-14T10:54:19.000Z</time>
      </trkpt>
      <trkpt lat="49.77734" lon="4.83798">
        <ele>213</ele>
        <time>2021-08-14T10:54:20.000Z</time>
      </trkpt>
      <trkpt lat="49.77732" lon="4.83797">
        <ele>213</ele>
        <time>2021-08-14T10:54:21.000Z</time>
      </trkpt>
      <trkpt lat="49.7773" lon="4.83797">
        <ele>214</ele>
        <time>2021-08-14T10:54:22.000Z</time>
      </trkpt>
      <trkpt lat="49.77729" lon="4.83797">
        <ele>214</ele>
        <time>2021-08-14T10:54:23.000Z</time>
      </trkpt>
      <trkpt lat="49.77727" lon="4.83796">
        <ele>214</ele>
        <time>2021-08-14T10:54:24.000Z</time>
      </trkpt>
      <trkpt lat="49.77726" lon="4.83796">
        <ele>214</ele>
        <time>2021-08-14T10:54:25.000Z</time>
      </trkpt>
      <trkpt lat="49.77725" lon="4.83794">
        <ele>214</ele>
        <time>2021-08-14T10:54:26.000Z</time>
      </trkpt>
      <trkpt lat="49.77723" lon="4.83794">
        <ele>215</ele>
        <time>2021-08-14T10:54:27.000Z</time>
      </trkpt>
      <trkpt lat="49.77722" lon="4.83794">
        <ele>215</ele>
        <time>2021-08-14T10:54:28.000Z</time>
      </trkpt>
      <trkpt lat="49.77721" lon="4.83793">
        <ele>215</ele>
        <time>2021-08-14T10:54:29.000Z</time>
      </trkpt>
      <trkpt lat="49.7772" lon="4.83793">
        <ele>215</ele>
        <time>2021-08-14T10:54:30.000Z</time>
      </trkpt>
      <trkpt lat="49.77718" lon="4.83792">
        <ele>216</ele>
        <time>2021-08-14T10:54:31.000Z</time>
      </trkpt>
      <trkpt lat="49.77716" lon="4.83792">
        <ele>216</ele>
        <time>2021-08-14T10:54:32.000Z</time>
      </trkpt>
      <trkpt lat="49.77714" lon="4.8379">
        <ele>216</ele>
        <time>2021-08-14T10:54:33.000Z</time>
      </trkpt>
      <trkpt lat="49.77712" lon="4.83789">
        <ele>217</ele>
        <time>2021-08-14T10:54:34.000Z</time>
      </trkpt>
      <trkpt lat="49.77711" lon="4.83789">
        <ele>217</ele>
        <time>2021-08-14T10:54:35.000Z</time>
      </trkpt>
      <trkpt lat="49.7771" lon="4.83789">
        <ele>217</ele>
        <time>2021-08-14T10:54:36.000Z</time>
      </trkpt>
      <trkpt lat="49.7771" lon="4.83788">
        <ele>217</ele>
        <time>2021-08-14T10:54:37.000Z</time>
      </trkpt>
      <trkpt lat="49.77709" lon="4.83786">
        <ele>217</ele>
        <time>2021-08-14T10:54:38.000Z</time>
      </trkpt>
      <trkpt lat="49.77709" lon="4.83782">
        <ele>218</ele>
        <time>2021-08-14T10:54:39.000Z</time>
      </trkpt>
      <trkpt lat="49.77707" lon="4.83778">
        <ele>218</ele>
        <time>2021-08-14T10:54:40.000Z</time>
      </trkpt>
      <trkpt lat="49.77706" lon="4.83772">
        <ele>218</ele>
        <time>2021-08-14T10:54:41.000Z</time>
      </trkpt>
      <trkpt lat="49.77704" lon="4.83768">
        <ele>218</ele>
        <time>2021-08-14T10:54:42.000Z</time>
      </trkpt>
      <trkpt lat="49.77703" lon="4.83763">
        <ele>219</ele>
        <time>2021-08-14T10:54:43.000Z</time>
      </trkpt>
      <trkpt lat="49.77701" lon="4.83758">
        <ele>219</ele>
        <time>2021-08-14T10:54:44.000Z</time>
      </trkpt>
      <trkpt lat="49.777" lon="4.83754">
        <ele>219</ele>
        <time>2021-08-14T10:54:45.000Z</time>
      </trkpt>
      <trkpt lat="49.77698" lon="4.8375">
        <ele>219</ele>
        <time>2021-08-14T10:54:46.000Z</time>
      </trkpt>
      <trkpt lat="49.77697" lon="4.83745">
        <ele>220</ele>
        <time>2021-08-14T10:54:47.000Z</time>
      </trkpt>
      <trkpt lat="49.77696" lon="4.83741">
        <ele>220</ele>
        <time>2021-08-14T10:54:48.000Z</time>
      </trkpt>
      <trkpt lat="49.77695" lon="4.83737">
        <ele>220</ele>
        <time>2021-08-14T10:54:49.000Z</time>
      </trkpt>
      <trkpt lat="49.77693" lon="4.83733">
        <ele>220</ele>
        <time>2021-08-14T10:54:50.000Z</time>
      </trkpt>
      <trkpt lat="49.77692" lon="4.83728">
        <ele>220</ele>
        <time>2021-08-14T10:54:51.000Z</time>
      </trkpt>
      <trkpt lat="49.77691" lon="4.83723">
        <ele>220</ele>
        <time>2021-08-14T10:54:52.000Z</time>
      </trkpt>
      <trkpt lat="49.7769" lon="4.83719">
        <ele>220</ele>
        <time>2021-08-14T10:54:53.000Z</time>
      </trkpt>
      <trkpt lat="49.77689" lon="4.83716">
        <ele>220</ele>
        <time>2021-08-14T10:54:54.000Z</time>
      </trkpt>
      <trkpt lat="49.77688" lon="4.83712">
        <ele>221</ele>
        <time>2021-08-14T10:54:55.000Z</time>
      </trkpt>
      <trkpt lat="49.77687" lon="4.8371">
        <ele>221</ele>
        <time>2021-08-14T10:54:56.000Z</time>
      </trkpt>
      <trkpt lat="49.77686" lon="4.83708">
        <ele>221</ele>
        <time>2021-08-14T10:54:57.000Z</time>
      </trkpt>
      <trkpt lat="49.77686" lon="4.83706">
        <ele>221</ele>
        <time>2021-08-14T10:54:58.000Z</time>
      </trkpt>
      <trkpt lat="49.77685" lon="4.83703">
        <ele>221</ele>
        <time>2021-08-14T10:54:59.000Z</time>
      </trkpt>
      <trkpt lat="49.77684" lon="4.83699">
        <ele>221</ele>
        <time>2021-08-14T10:55:00.000Z</time>
      </trkpt>
      <trkpt lat="49.77684" lon="4.83695">
        <ele>221</ele>
        <time>2021-08-14T10:55:01.000Z</time>
      </trkpt>
      <trkpt lat="49.77683" lon="4.83691">
        <ele>221</ele>
        <time>2021-08-14T10:55:02.000Z</time>
      </trkpt>
      <trkpt lat="49.77682" lon="4.83688">
        <ele>221</ele>
        <time>2021-08-14T10:55:03.000Z</time>
      </trkpt>
      <trkpt lat="49.77681" lon="4.83685">
        <ele>221</ele>
        <time>2021-08-14T10:55:04.000Z</time>
      </trkpt>
      <trkpt lat="49.7768" lon="4.83681">
        <ele>221</ele>
        <time>2021-08-14T10:55:05.000Z</time>
      </trkpt>
      <trkpt lat="49.77679" lon="4.83677">
        <ele>222</ele>
        <time>2021-08-14T10:55:06.000Z</time>
      </trkpt>
      <trkpt lat="49.77679" lon="4.83673">
        <ele>222</ele>
        <time>2021-08-14T10:55:07.000Z</time>
      </trkpt>
      <trkpt lat="49.77678" lon="4.83668">
        <ele>222</ele>
        <time>2021-08-14T10:55:08.000Z</time>
      </trkpt>
      <trkpt lat="49.77677" lon="4.83665">
        <ele>222</ele>
        <time>2021-08-14T10:55:09.000Z</time>
      </trkpt>
      <trkpt lat="49.77676" lon="4.8366">
        <ele>222</ele>
        <time>2021-08-14T10:55:10.000Z</time>
      </trkpt>
      <trkpt lat="49.77675" lon="4.83656">
        <ele>222</ele>
        <time>2021-08-14T10:55:11.000Z</time>
      </trkpt>
      <trkpt lat="49.77674" lon="4.83652">
        <ele>222</ele>
        <time>2021-08-14T10:55:12.000Z</time>
      </trkpt>
      <trkpt lat="49.77674" lon="4.83648">
        <ele>222</ele>
        <time>2021-08-14T10:55:13.000Z</time>
      </trkpt>
      <trkpt lat="49.77673" lon="4.83643">
        <ele>222</ele>
        <time>2021-08-14T10:55:14.000Z</time>
      </trkpt>
      <trkpt lat="49.77671" lon="4.83638">
        <ele>222</ele>
        <time>2021-08-14T10:55:15.000Z</time>
      </trkpt>
      <trkpt lat="49.7767" lon="4.83635">
        <ele>222</ele>
        <time>2021-08-14T10:55:16.000Z</time>
      </trkpt>
      <trkpt lat="49.77669" lon="4.8363">
        <ele>222</ele>
        <time>2021-08-14T10:55:17.000Z</time>
      </trkpt>
      <trkpt lat="49.77668" lon="4.83626">
        <ele>222</ele>
        <time>2021-08-14T10:55:18.000Z</time>
      </trkpt>
      <trkpt lat="49.77667" lon="4.83623">
        <ele>222</ele>
        <time>2021-08-14T10:55:19.000Z</time>
      </trkpt>
      <trkpt lat="49.77666" lon="4.83619">
        <ele>222</ele>
        <time>2021-08-14T10:55:20.000Z</time>
      </trkpt>
      <trkpt lat="49.77665" lon="4.83615">
        <ele>222</ele>
        <time>2021-08-14T10:55:21.000Z</time>
      </trkpt>
      <trkpt lat="49.77664" lon="4.83611">
        <ele>222</ele>
        <time>2021-08-14T10:55:22.000Z</time>
      </trkpt>
      <trkpt lat="49.77664" lon="4.83607">
        <ele>222</ele>
        <time>2021-08-14T10:55:23.000Z</time>
      </trkpt>
      <trkpt lat="49.77664" lon="4.83603">
        <ele>222</ele>
        <time>2021-08-14T10:55:24.000Z</time>
      </trkpt>
      <trkpt lat="49.77662" lon="4.836">
        <ele>222</ele>
        <time>2021-08-14T10:55:25.000Z</time>
      </trkpt>
      <trkpt lat="49.77661" lon="4.83597">
        <ele>222</ele>
        <time>2021-08-14T10:55:26.000Z</time>
      </trkpt>
      <trkpt lat="49.77659" lon="4.83594">
        <ele>222</ele>
        <time>2021-08-14T10:55:27.000Z</time>
      </trkpt>
      <trkpt lat="49.77657" lon="4.8359">
        <ele>222</ele>
        <time>2021-08-14T10:55:28.000Z</time>
      </trkpt>
      <trkpt lat="49.77656" lon="4.83588">
        <ele>222</ele>
        <time>2021-08-14T10:55:29.000Z</time>
      </trkpt>
      <trkpt lat="49.77654" lon="4.83585">
        <ele>222</ele>
        <time>2021-08-14T10:55:30.000Z</time>
      </trkpt>
      <trkpt lat="49.77652" lon="4.83582">
        <ele>222</ele>
        <time>2021-08-14T10:55:31.000Z</time>
      </trkpt>
      <trkpt lat="49.77649" lon="4.83579">
        <ele>223</ele>
        <time>2021-08-14T10:55:32.000Z</time>
      </trkpt>
      <trkpt lat="49.77647" lon="4.83576">
        <ele>223</ele>
        <time>2021-08-14T10:55:33.000Z</time>
      </trkpt>
      <trkpt lat="49.77646" lon="4.83572">
        <ele>223</ele>
        <time>2021-08-14T10:55:34.000Z</time>
      </trkpt>
      <trkpt lat="49.77644" lon="4.83569">
        <ele>223</ele>
        <time>2021-08-14T10:55:35.000Z</time>
      </trkpt>
      <trkpt lat="49.77642" lon="4.83565">
        <ele>224</ele>
        <time>2021-08-14T10:55:36.000Z</time>
      </trkpt>
      <trkpt lat="49.7764" lon="4.83562">
        <ele>224</ele>
        <time>2021-08-14T10:55:37.000Z</time>
      </trkpt>
      <trkpt lat="49.77638" lon="4.83559">
        <ele>224</ele>
        <time>2021-08-14T10:55:38.000Z</time>
      </trkpt>
      <trkpt lat="49.77636" lon="4.83557">
        <ele>224</ele>
        <time>2021-08-14T10:55:39.000Z</time>
      </trkpt>
      <trkpt lat="49.77634" lon="4.83553">
        <ele>225</ele>
        <time>2021-08-14T10:55:40.000Z</time>
      </trkpt>
      <trkpt lat="49.77633" lon="4.8355">
        <ele>225</ele>
        <time>2021-08-14T10:55:41.000Z</time>
      </trkpt>
      <trkpt lat="49.77631" lon="4.83547">
        <ele>225</ele>
        <time>2021-08-14T10:55:42.000Z</time>
      </trkpt>
      <trkpt lat="49.7763" lon="4.83543">
        <ele>225</ele>
        <time>2021-08-14T10:55:43.000Z</time>
      </trkpt>
      <trkpt lat="49.77628" lon="4.8354">
        <ele>226</ele>
        <time>2021-08-14T10:55:44.000Z</time>
      </trkpt>
      <trkpt lat="49.77626" lon="4.83536">
        <ele>226</ele>
        <time>2021-08-14T10:55:45.000Z</time>
      </trkpt>
      <trkpt lat="49.77625" lon="4.83533">
        <ele>226</ele>
        <time>2021-08-14T10:55:46.000Z</time>
      </trkpt>
      <trkpt lat="49.77623" lon="4.83529">
        <ele>226</ele>
        <time>2021-08-14T10:55:47.000Z</time>
      </trkpt>
      <trkpt lat="49.77621" lon="4.83526">
        <ele>226</ele>
        <time>2021-08-14T10:55:48.000Z</time>
      </trkpt>
      <trkpt lat="49.77619" lon="4.83523">
        <ele>226</ele>
        <time>2021-08-14T10:55:49.000Z</time>
      </trkpt>
      <trkpt lat="49.77617" lon="4.83519">
        <ele>226</ele>
        <time>2021-08-14T10:55:50.000Z</time>
      </trkpt>
      <trkpt lat="49.77615" lon="4.83517">
        <ele>226</ele>
        <time>2021-08-14T10:55:51.000Z</time>
      </trkpt>
      <trkpt lat="49.77613" lon="4.83514">
        <ele>226</ele>
        <time>2021-08-14T10:55:52.000Z</time>
      </trkpt>
      <trkpt lat="49.77611" lon="4.83511">
        <ele>226</ele>
        <time>2021-08-14T10:55:53.000Z</time>
      </trkpt>
      <trkpt lat="49.77609" lon="4.83509">
        <ele>225</ele>
        <time>2021-08-14T10:55:54.000Z</time>
      </trkpt>
      <trkpt lat="49.77606" lon="4.83506">
        <ele>225</ele>
        <time>2021-08-14T10:55:55.000Z</time>
      </trkpt>
      <trkpt lat="49.77604" lon="4.83504">
        <ele>225</ele>
        <time>2021-08-14T10:55:56.000Z</time>
      </trkpt>
      <trkpt lat="49.77602" lon="4.83502">
        <ele>225</ele>
        <time>2021-08-14T10:55:57.000Z</time>
      </trkpt>
      <trkpt lat="49.77599" lon="4.83499">
        <ele>225</ele>
        <time>2021-08-14T10:55:58.000Z</time>
      </trkpt>
      <trkpt lat="49.77597" lon="4.83497">
        <ele>225</ele>
        <time>2021-08-14T10:55:59.000Z</time>
      </trkpt>
      <trkpt lat="49.77595" lon="4.83494">
        <ele>225</ele>
        <time>2021-08-14T10:56:00.000Z</time>
      </trkpt>
      <trkpt lat="49.77592" lon="4.83492">
        <ele>225</ele>
        <time>2021-08-14T10:56:01.000Z</time>
      </trkpt>
      <trkpt lat="49.7759" lon="4.83489">
        <ele>225</ele>
        <time>2021-08-14T10:56:02.000Z</time>
      </trkpt>
      <trkpt lat="49.77588" lon="4.83487">
        <ele>225</ele>
        <time>2021-08-14T10:56:03.000Z</time>
      </trkpt>
      <trkpt lat="49.77586" lon="4.83485">
        <ele>225</ele>
        <time>2021-08-14T10:56:04.000Z</time>
      </trkpt>
      <trkpt lat="49.77583" lon="4.83483">
        <ele>225</ele>
        <time>2021-08-14T10:56:05.000Z</time>
      </trkpt>
      <trkpt lat="49.77581" lon="4.83481">
        <ele>226</ele>
        <time>2021-08-14T10:56:06.000Z</time>
      </trkpt>
      <trkpt lat="49.77579" lon="4.83479">
        <ele>226</ele>
        <time>2021-08-14T10:56:07.000Z</time>
      </trkpt>
      <trkpt lat="49.77576" lon="4.83477">
        <ele>226</ele>
        <time>2021-08-14T10:56:08.000Z</time>
      </trkpt>
      <trkpt lat="49.77574" lon="4.83475">
        <ele>226</ele>
        <time>2021-08-14T10:56:09.000Z</time>
      </trkpt>
      <trkpt lat="49.77571" lon="4.83473">
        <ele>226</ele>
        <time>2021-08-14T10:56:10.000Z</time>
      </trkpt>
      <trkpt lat="49.77569" lon="4.83472">
        <ele>226</ele>
        <time>2021-08-14T10:56:11.000Z</time>
      </trkpt>
      <trkpt lat="49.77568" lon="4.83472">
        <ele>226</ele>
        <time>2021-08-14T10:56:12.000Z</time>
      </trkpt>
      <trkpt lat="49.77566" lon="4.8347">
        <ele>227</ele>
        <time>2021-08-14T10:56:13.000Z</time>
      </trkpt>
      <trkpt lat="49.77564" lon="4.83469">
        <ele>227</ele>
        <time>2021-08-14T10:56:14.000Z</time>
      </trkpt>
      <trkpt lat="49.77562" lon="4.83468">
        <ele>227</ele>
        <time>2021-08-14T10:56:15.000Z</time>
      </trkpt>
      <trkpt lat="49.7756" lon="4.83466">
        <ele>227</ele>
        <time>2021-08-14T10:56:16.000Z</time>
      </trkpt>
      <trkpt lat="49.77558" lon="4.83466">
        <ele>227</ele>
        <time>2021-08-14T10:56:17.000Z</time>
      </trkpt>
      <trkpt lat="49.77555" lon="4.83465">
        <ele>228</ele>
        <time>2021-08-14T10:56:18.000Z</time>
      </trkpt>
      <trkpt lat="49.77552" lon="4.83463">
        <ele>228</ele>
        <time>2021-08-14T10:56:19.000Z</time>
      </trkpt>
      <trkpt lat="49.77549" lon="4.83462">
        <ele>228</ele>
        <time>2021-08-14T10:56:20.000Z</time>
      </trkpt>
      <trkpt lat="49.77546" lon="4.83461">
        <ele>228</ele>
        <time>2021-08-14T10:56:21.000Z</time>
      </trkpt>
      <trkpt lat="49.77543" lon="4.83461">
        <ele>228</ele>
        <time>2021-08-14T10:56:22.000Z</time>
      </trkpt>
      <trkpt lat="49.7754" lon="4.8346">
        <ele>229</ele>
        <time>2021-08-14T10:56:23.000Z</time>
      </trkpt>
      <trkpt lat="49.77537" lon="4.83459">
        <ele>229</ele>
        <time>2021-08-14T10:56:24.000Z</time>
      </trkpt>
      <trkpt lat="49.77533" lon="4.83459">
        <ele>229</ele>
        <time>2021-08-14T10:56:25.000Z</time>
      </trkpt>
      <trkpt lat="49.7753" lon="4.83459">
        <ele>229</ele>
        <time>2021-08-14T10:56:26.000Z</time>
      </trkpt>
      <trkpt lat="49.77527" lon="4.83459">
        <ele>230</ele>
        <time>2021-08-14T10:56:27.000Z</time>
      </trkpt>
      <trkpt lat="49.77524" lon="4.83459">
        <ele>230</ele>
        <time>2021-08-14T10:56:28.000Z</time>
      </trkpt>
      <trkpt lat="49.7752" lon="4.83459">
        <ele>230</ele>
        <time>2021-08-14T10:56:29.000Z</time>
      </trkpt>
      <trkpt lat="49.77517" lon="4.8346">
        <ele>231</ele>
        <time>2021-08-14T10:56:30.000Z</time>
      </trkpt>
      <trkpt lat="49.77514" lon="4.8346">
        <ele>231</ele>
        <time>2021-08-14T10:56:31.000Z</time>
      </trkpt>
      <trkpt lat="49.77511" lon="4.8346">
        <ele>231</ele>
        <time>2021-08-14T10:56:32.000Z</time>
      </trkpt>
      <trkpt lat="49.77508" lon="4.8346">
        <ele>232</ele>
        <time>2021-08-14T10:56:33.000Z</time>
      </trkpt>
      <trkpt lat="49.77505" lon="4.8346">
        <ele>232</ele>
        <time>2021-08-14T10:56:34.000Z</time>
      </trkpt>
      <trkpt lat="49.77502" lon="4.83461">
        <ele>232</ele>
        <time>2021-08-14T10:56:35.000Z</time>
      </trkpt>
      <trkpt lat="49.77499" lon="4.83461">
        <ele>232</ele>
        <time>2021-08-14T10:56:36.000Z</time>
      </trkpt>
      <trkpt lat="49.77495" lon="4.83462">
        <ele>233</ele>
        <time>2021-08-14T10:56:37.000Z</time>
      </trkpt>
      <trkpt lat="49.77492" lon="4.83462">
        <ele>233</ele>
        <time>2021-08-14T10:56:38.000Z</time>
      </trkpt>
      <trkpt lat="49.77488" lon="4.83462">
        <ele>233</ele>
        <time>2021-08-14T10:56:39.000Z</time>
      </trkpt>
      <trkpt lat="49.77485" lon="4.83462">
        <ele>234</ele>
        <time>2021-08-14T10:56:40.000Z</time>
      </trkpt>
      <trkpt lat="49.77482" lon="4.83462">
        <ele>234</ele>
        <time>2021-08-14T10:56:41.000Z</time>
      </trkpt>
      <trkpt lat="49.77478" lon="4.83462">
        <ele>234</ele>
        <time>2021-08-14T10:56:42.000Z</time>
      </trkpt>
      <trkpt lat="49.77474" lon="4.83463">
        <ele>235</ele>
        <time>2021-08-14T10:56:43.000Z</time>
      </trkpt>
      <trkpt lat="49.77471" lon="4.83463">
        <ele>235</ele>
        <time>2021-08-14T10:56:44.000Z</time>
      </trkpt>
      <trkpt lat="49.77467" lon="4.83463">
        <ele>235</ele>
        <time>2021-08-14T10:56:45.000Z</time>
      </trkpt>
      <trkpt lat="49.77464" lon="4.83463">
        <ele>236</ele>
        <time>2021-08-14T10:56:46.000Z</time>
      </trkpt>
      <trkpt lat="49.7746" lon="4.83462">
        <ele>236</ele>
        <time>2021-08-14T10:56:47.000Z</time>
      </trkpt>
      <trkpt lat="49.77456" lon="4.83462">
        <ele>237</ele>
        <time>2021-08-14T10:56:48.000Z</time>
      </trkpt>
      <trkpt lat="49.77453" lon="4.83462">
        <ele>237</ele>
        <time>2021-08-14T10:56:49.000Z</time>
      </trkpt>
      <trkpt lat="49.77449" lon="4.83461">
        <ele>237</ele>
        <time>2021-08-14T10:56:50.000Z</time>
      </trkpt>
      <trkpt lat="49.77445" lon="4.83461">
        <ele>237</ele>
        <time>2021-08-14T10:56:51.000Z</time>
      </trkpt>
      <trkpt lat="49.77442" lon="4.83461">
        <ele>238</ele>
        <time>2021-08-14T10:56:52.000Z</time>
      </trkpt>
      <trkpt lat="49.77439" lon="4.83461">
        <ele>238</ele>
        <time>2021-08-14T10:56:53.000Z</time>
      </trkpt>
      <trkpt lat="49.77436" lon="4.83461">
        <ele>238</ele>
        <time>2021-08-14T10:56:54.000Z</time>
      </trkpt>
      <trkpt lat="49.77432" lon="4.83461">
        <ele>239</ele>
        <time>2021-08-14T10:56:55.000Z</time>
      </trkpt>
      <trkpt lat="49.77429" lon="4.8346">
        <ele>239</ele>
        <time>2021-08-14T10:56:56.000Z</time>
      </trkpt>
      <trkpt lat="49.77425" lon="4.83459">
        <ele>239</ele>
        <time>2021-08-14T10:56:57.000Z</time>
      </trkpt>
      <trkpt lat="49.77422" lon="4.83458">
        <ele>239</ele>
        <time>2021-08-14T10:56:58.000Z</time>
      </trkpt>
      <trkpt lat="49.77419" lon="4.83458">
        <ele>240</ele>
        <time>2021-08-14T10:56:59.000Z</time>
      </trkpt>
      <trkpt lat="49.77416" lon="4.83459">
        <ele>240</ele>
        <time>2021-08-14T10:57:00.000Z</time>
      </trkpt>
      <trkpt lat="49.77413" lon="4.8346">
        <ele>240</ele>
        <time>2021-08-14T10:57:01.000Z</time>
      </trkpt>
      <trkpt lat="49.77411" lon="4.83462">
        <ele>240</ele>
        <time>2021-08-14T10:57:02.000Z</time>
      </trkpt>
      <trkpt lat="49.77409" lon="4.83465">
        <ele>241</ele>
        <time>2021-08-14T10:57:03.000Z</time>
      </trkpt>
      <trkpt lat="49.77407" lon="4.83466">
        <ele>241</ele>
        <time>2021-08-14T10:57:04.000Z</time>
      </trkpt>
      <trkpt lat="49.77405" lon="4.83467">
        <ele>241</ele>
        <time>2021-08-14T10:57:05.000Z</time>
      </trkpt>
      <trkpt lat="49.77403" lon="4.83468">
        <ele>241</ele>
        <time>2021-08-14T10:57:06.000Z</time>
      </trkpt>
      <trkpt lat="49.77401" lon="4.83469">
        <ele>242</ele>
        <time>2021-08-14T10:57:07.000Z</time>
      </trkpt>
      <trkpt lat="49.77399" lon="4.83471">
        <ele>242</ele>
        <time>2021-08-14T10:57:08.000Z</time>
      </trkpt>
      <trkpt lat="49.77397" lon="4.83472">
        <ele>242</ele>
        <time>2021-08-14T10:57:09.000Z</time>
      </trkpt>
      <trkpt lat="49.77395" lon="4.83472">
        <ele>242</ele>
        <time>2021-08-14T10:57:10.000Z</time>
      </trkpt>
      <trkpt lat="49.77393" lon="4.83473">
        <ele>243</ele>
        <time>2021-08-14T10:57:11.000Z</time>
      </trkpt>
      <trkpt lat="49.77391" lon="4.83474">
        <ele>243</ele>
        <time>2021-08-14T10:57:12.000Z</time>
      </trkpt>
      <trkpt lat="49.77388" lon="4.83475">
        <ele>243</ele>
        <time>2021-08-14T10:57:13.000Z</time>
      </trkpt>
      <trkpt lat="49.77386" lon="4.83476">
        <ele>243</ele>
        <time>2021-08-14T10:57:14.000Z</time>
      </trkpt>
      <trkpt lat="49.77384" lon="4.83477">
        <ele>243</ele>
        <time>2021-08-14T10:57:15.000Z</time>
      </trkpt>
      <trkpt lat="49.77382" lon="4.83478">
        <ele>244</ele>
        <time>2021-08-14T10:57:16.000Z</time>
      </trkpt>
      <trkpt lat="49.7738" lon="4.83479">
        <ele>244</ele>
        <time>2021-08-14T10:57:17.000Z</time>
      </trkpt>
      <trkpt lat="49.77378" lon="4.83481">
        <ele>244</ele>
        <time>2021-08-14T10:57:18.000Z</time>
      </trkpt>
      <trkpt lat="49.77375" lon="4.83482">
        <ele>244</ele>
        <time>2021-08-14T10:57:19.000Z</time>
      </trkpt>
      <trkpt lat="49.77373" lon="4.83482">
        <ele>245</ele>
        <time>2021-08-14T10:57:20.000Z</time>
      </trkpt>
      <trkpt lat="49.77371" lon="4.83483">
        <ele>245</ele>
        <time>2021-08-14T10:57:21.000Z</time>
      </trkpt>
      <trkpt lat="49.77369" lon="4.83483">
        <ele>245</ele>
        <time>2021-08-14T10:57:22.000Z</time>
      </trkpt>
      <trkpt lat="49.77366" lon="4.83483">
        <ele>245</ele>
        <time>2021-08-14T10:57:23.000Z</time>
      </trkpt>
      <trkpt lat="49.77364" lon="4.83483">
        <ele>245</ele>
        <time>2021-08-14T10:57:24.000Z</time>
      </trkpt>
      <trkpt lat="49.77361" lon="4.83483">
        <ele>245</ele>
        <time>2021-08-14T10:57:25.000Z</time>
      </trkpt>
      <trkpt lat="49.77359" lon="4.83482">
        <ele>245</ele>
        <time>2021-08-14T10:57:26.000Z</time>
      </trkpt>
      <trkpt lat="49.77356" lon="4.83481">
        <ele>245</ele>
        <time>2021-08-14T10:57:27.000Z</time>
      </trkpt>
      <trkpt lat="49.77354" lon="4.8348">
        <ele>245</ele>
        <time>2021-08-14T10:57:28.000Z</time>
      </trkpt>
      <trkpt lat="49.77351" lon="4.83479">
        <ele>245</ele>
        <time>2021-08-14T10:57:29.000Z</time>
      </trkpt>
      <trkpt lat="49.77348" lon="4.83477">
        <ele>245</ele>
        <time>2021-08-14T10:57:30.000Z</time>
      </trkpt>
      <trkpt lat="49.77346" lon="4.83475">
        <ele>245</ele>
        <time>2021-08-14T10:57:31.000Z</time>
      </trkpt>
      <trkpt lat="49.77343" lon="4.83474">
        <ele>245</ele>
        <time>2021-08-14T10:57:32.000Z</time>
      </trkpt>
      <trkpt lat="49.7734" lon="4.83472">
        <ele>245</ele>
        <time>2021-08-14T10:57:33.000Z</time>
      </trkpt>
      <trkpt lat="49.77337" lon="4.8347">
        <ele>245</ele>
        <time>2021-08-14T10:57:34.000Z</time>
      </trkpt>
      <trkpt lat="49.77335" lon="4.83469">
        <ele>245</ele>
        <time>2021-08-14T10:57:35.000Z</time>
      </trkpt>
      <trkpt lat="49.77333" lon="4.83466">
        <ele>245</ele>
        <time>2021-08-14T10:57:36.000Z</time>
      </trkpt>
      <trkpt lat="49.7733" lon="4.83464">
        <ele>245</ele>
        <time>2021-08-14T10:57:37.000Z</time>
      </trkpt>
      <trkpt lat="49.77328" lon="4.83461">
        <ele>245</ele>
        <time>2021-08-14T10:57:38.000Z</time>
      </trkpt>
      <trkpt lat="49.77326" lon="4.83459">
        <ele>245</ele>
        <time>2021-08-14T10:57:39.000Z</time>
      </trkpt>
      <trkpt lat="49.77324" lon="4.83456">
        <ele>245</ele>
        <time>2021-08-14T10:57:40.000Z</time>
      </trkpt>
      <trkpt lat="49.77321" lon="4.83453">
        <ele>245</ele>
        <time>2021-08-14T10:57:41.000Z</time>
      </trkpt>
      <trkpt lat="49.77319" lon="4.83451">
        <ele>245</ele>
        <time>2021-08-14T10:57:42.000Z</time>
      </trkpt>
      <trkpt lat="49.77317" lon="4.83448">
        <ele>245</ele>
        <time>2021-08-14T10:57:43.000Z</time>
      </trkpt>
      <trkpt lat="49.77314" lon="4.83445">
        <ele>245</ele>
        <time>2021-08-14T10:57:44.000Z</time>
      </trkpt>
      <trkpt lat="49.77312" lon="4.83442">
        <ele>245</ele>
        <time>2021-08-14T10:57:45.000Z</time>
      </trkpt>
      <trkpt lat="49.77309" lon="4.83439">
        <ele>246</ele>
        <time>2021-08-14T10:57:46.000Z</time>
      </trkpt>
      <trkpt lat="49.77307" lon="4.83436">
        <ele>246</ele>
        <time>2021-08-14T10:57:47.000Z</time>
      </trkpt>
      <trkpt lat="49.77305" lon="4.83434">
        <ele>246</ele>
        <time>2021-08-14T10:57:48.000Z</time>
      </trkpt>
      <trkpt lat="49.77303" lon="4.83431">
        <ele>246</ele>
        <time>2021-08-14T10:57:49.000Z</time>
      </trkpt>
      <trkpt lat="49.773" lon="4.83427">
        <ele>246</ele>
        <time>2021-08-14T10:57:50.000Z</time>
      </trkpt>
      <trkpt lat="49.77298" lon="4.83423">
        <ele>246</ele>
        <time>2021-08-14T10:57:51.000Z</time>
      </trkpt>
      <trkpt lat="49.77296" lon="4.8342">
        <ele>246</ele>
        <time>2021-08-14T10:57:52.000Z</time>
      </trkpt>
      <trkpt lat="49.77293" lon="4.83417">
        <ele>246</ele>
        <time>2021-08-14T10:57:53.000Z</time>
      </trkpt>
      <trkpt lat="49.77291" lon="4.83414">
        <ele>246</ele>
        <time>2021-08-14T10:57:54.000Z</time>
      </trkpt>
      <trkpt lat="49.77289" lon="4.83411">
        <ele>247</ele>
        <time>2021-08-14T10:57:55.000Z</time>
      </trkpt>
      <trkpt lat="49.77287" lon="4.83408">
        <ele>247</ele>
        <time>2021-08-14T10:57:56.000Z</time>
      </trkpt>
      <trkpt lat="49.77284" lon="4.83405">
        <ele>247</ele>
        <time>2021-08-14T10:57:57.000Z</time>
      </trkpt>
      <trkpt lat="49.77282" lon="4.83403">
        <ele>248</ele>
        <time>2021-08-14T10:57:58.000Z</time>
      </trkpt>
      <trkpt lat="49.7728" lon="4.83401">
        <ele>248</ele>
        <time>2021-08-14T10:57:59.000Z</time>
      </trkpt>
      <trkpt lat="49.77278" lon="4.83399">
        <ele>248</ele>
        <time>2021-08-14T10:58:00.000Z</time>
      </trkpt>
      <trkpt lat="49.77276" lon="4.83397">
        <ele>248</ele>
        <time>2021-08-14T10:58:01.000Z</time>
      </trkpt>
      <trkpt lat="49.77274" lon="4.83396">
        <ele>249</ele>
        <time>2021-08-14T10:58:02.000Z</time>
      </trkpt>
      <trkpt lat="49.77272" lon="4.83394">
        <ele>249</ele>
        <time>2021-08-14T10:58:03.000Z</time>
      </trkpt>
      <trkpt lat="49.77269" lon="4.83392">
        <ele>249</ele>
        <time>2021-08-14T10:58:04.000Z</time>
      </trkpt>
      <trkpt lat="49.77267" lon="4.83391">
        <ele>250</ele>
        <time>2021-08-14T10:58:05.000Z</time>
      </trkpt>
      <trkpt lat="49.77265" lon="4.83389">
        <ele>250</ele>
        <time>2021-08-14T10:58:06.000Z</time>
      </trkpt>
      <trkpt lat="49.77263" lon="4.83388">
        <ele>250</ele>
        <time>2021-08-14T10:58:07.000Z</time>
      </trkpt>
      <trkpt lat="49.77261" lon="4.83386">
        <ele>251</ele>
        <time>2021-08-14T10:58:08.000Z</time>
      </trkpt>
      <trkpt lat="49.77259" lon="4.83385">
        <ele>251</ele>
        <time>2021-08-14T10:58:09.000Z</time>
      </trkpt>
      <trkpt lat="49.77257" lon="4.83384">
        <ele>251</ele>
        <time>2021-08-14T10:58:10.000Z</time>
      </trkpt>
      <trkpt lat="49.77255" lon="4.83383">
        <ele>251</ele>
        <time>2021-08-14T10:58:11.000Z</time>
      </trkpt>
      <trkpt lat="49.77253" lon="4.83382">
        <ele>252</ele>
        <time>2021-08-14T10:58:12.000Z</time>
      </trkpt>
      <trkpt lat="49.77252" lon="4.83382">
        <ele>252</ele>
        <time>2021-08-14T10:58:13.000Z</time>
      </trkpt>
      <trkpt lat="49.7725" lon="4.83382">
        <ele>253</ele>
        <time>2021-08-14T10:58:14.000Z</time>
      </trkpt>
      <trkpt lat="49.77249" lon="4.83381">
        <ele>253</ele>
        <time>2021-08-14T10:58:15.000Z</time>
      </trkpt>
      <trkpt lat="49.77248" lon="4.8338">
        <ele>253</ele>
        <time>2021-08-14T10:58:16.000Z</time>
      </trkpt>
      <trkpt lat="49.77246" lon="4.83379">
        <ele>254</ele>
        <time>2021-08-14T10:58:17.000Z</time>
      </trkpt>
      <trkpt lat="49.77245" lon="4.83379">
        <ele>254</ele>
        <time>2021-08-14T10:58:18.000Z</time>
      </trkpt>
      <trkpt lat="49.77243" lon="4.83378">
        <ele>254</ele>
        <time>2021-08-14T10:58:19.000Z</time>
      </trkpt>
      <trkpt lat="49.77241" lon="4.83377">
        <ele>255</ele>
        <time>2021-08-14T10:58:20.000Z</time>
      </trkpt>
      <trkpt lat="49.7724" lon="4.83377">
        <ele>255</ele>
        <time>2021-08-14T10:58:21.000Z</time>
      </trkpt>
      <trkpt lat="49.77237" lon="4.83376">
        <ele>255</ele>
        <time>2021-08-14T10:58:22.000Z</time>
      </trkpt>
      <trkpt lat="49.77235" lon="4.83376">
        <ele>255</ele>
        <time>2021-08-14T10:58:23.000Z</time>
      </trkpt>
      <trkpt lat="49.77232" lon="4.83376">
        <ele>255</ele>
        <time>2021-08-14T10:58:24.000Z</time>
      </trkpt>
      <trkpt lat="49.7723" lon="4.83376">
        <ele>256</ele>
        <time>2021-08-14T10:58:25.000Z</time>
      </trkpt>
      <trkpt lat="49.77227" lon="4.83375">
        <ele>256</ele>
        <time>2021-08-14T10:58:26.000Z</time>
      </trkpt>
      <trkpt lat="49.77225" lon="4.83374">
        <ele>256</ele>
        <time>2021-08-14T10:58:27.000Z</time>
      </trkpt>
      <trkpt lat="49.77223" lon="4.83374">
        <ele>256</ele>
        <time>2021-08-14T10:58:28.000Z</time>
      </trkpt>
      <trkpt lat="49.77221" lon="4.83375">
        <ele>257</ele>
        <time>2021-08-14T10:58:29.000Z</time>
      </trkpt>
      <trkpt lat="49.77218" lon="4.83374">
        <ele>257</ele>
        <time>2021-08-14T10:58:30.000Z</time>
      </trkpt>
      <trkpt lat="49.77216" lon="4.83374">
        <ele>257</ele>
        <time>2021-08-14T10:58:31.000Z</time>
      </trkpt>
      <trkpt lat="49.77214" lon="4.83373">
        <ele>258</ele>
        <time>2021-08-14T10:58:32.000Z</time>
      </trkpt>
      <trkpt lat="49.77211" lon="4.83373">
        <ele>258</ele>
        <time>2021-08-14T10:58:33.000Z</time>
      </trkpt>
      <trkpt lat="49.77209" lon="4.83373">
        <ele>258</ele>
        <time>2021-08-14T10:58:34.000Z</time>
      </trkpt>
      <trkpt lat="49.77206" lon="4.83373">
        <ele>259</ele>
        <time>2021-08-14T10:58:35.000Z</time>
      </trkpt>
      <trkpt lat="49.77205" lon="4.83373">
        <ele>259</ele>
        <time>2021-08-14T10:58:36.000Z</time>
      </trkpt>
      <trkpt lat="49.77202" lon="4.83373">
        <ele>259</ele>
        <time>2021-08-14T10:58:37.000Z</time>
      </trkpt>
      <trkpt lat="49.772" lon="4.83373">
        <ele>260</ele>
        <time>2021-08-14T10:58:38.000Z</time>
      </trkpt>
      <trkpt lat="49.77197" lon="4.83373">
        <ele>260</ele>
        <time>2021-08-14T10:58:39.000Z</time>
      </trkpt>
      <trkpt lat="49.77195" lon="4.83373">
        <ele>260</ele>
        <time>2021-08-14T10:58:40.000Z</time>
      </trkpt>
      <trkpt lat="49.77192" lon="4.83373">
        <ele>260</ele>
        <time>2021-08-14T10:58:41.000Z</time>
      </trkpt>
      <trkpt lat="49.7719" lon="4.83373">
        <ele>260</ele>
        <time>2021-08-14T10:58:42.000Z</time>
      </trkpt>
      <trkpt lat="49.77187" lon="4.83373">
        <ele>261</ele>
        <time>2021-08-14T10:58:43.000Z</time>
      </trkpt>
      <trkpt lat="49.77185" lon="4.83374">
        <ele>261</ele>
        <time>2021-08-14T10:58:44.000Z</time>
      </trkpt>
      <trkpt lat="49.77183" lon="4.83374">
        <ele>261</ele>
        <time>2021-08-14T10:58:45.000Z</time>
      </trkpt>
      <trkpt lat="49.7718" lon="4.83375">
        <ele>261</ele>
        <time>2021-08-14T10:58:46.000Z</time>
      </trkpt>
      <trkpt lat="49.77178" lon="4.83376">
        <ele>261</ele>
        <time>2021-08-14T10:58:47.000Z</time>
      </trkpt>
      <trkpt lat="49.77176" lon="4.83377">
        <ele>262</ele>
        <time>2021-08-14T10:58:48.000Z</time>
      </trkpt>
      <trkpt lat="49.77173" lon="4.83378">
        <ele>262</ele>
        <time>2021-08-14T10:58:49.000Z</time>
      </trkpt>
      <trkpt lat="49.77172" lon="4.83379">
        <ele>262</ele>
        <time>2021-08-14T10:58:50.000Z</time>
      </trkpt>
      <trkpt lat="49.7717" lon="4.83379">
        <ele>262</ele>
        <time>2021-08-14T10:58:51.000Z</time>
      </trkpt>
      <trkpt lat="49.77168" lon="4.8338">
        <ele>262</ele>
        <time>2021-08-14T10:58:52.000Z</time>
      </trkpt>
      <trkpt lat="49.77166" lon="4.83381">
        <ele>262</ele>
        <time>2021-08-14T10:58:53.000Z</time>
      </trkpt>
      <trkpt lat="49.77164" lon="4.83382">
        <ele>262</ele>
        <time>2021-08-14T10:58:54.000Z</time>
      </trkpt>
      <trkpt lat="49.77162" lon="4.83382">
        <ele>263</ele>
        <time>2021-08-14T10:58:55.000Z</time>
      </trkpt>
      <trkpt lat="49.7716" lon="4.83383">
        <ele>263</ele>
        <time>2021-08-14T10:58:56.000Z</time>
      </trkpt>
      <trkpt lat="49.77158" lon="4.83383">
        <ele>263</ele>
        <time>2021-08-14T10:58:57.000Z</time>
      </trkpt>
      <trkpt lat="49.77156" lon="4.83384">
        <ele>263</ele>
        <time>2021-08-14T10:58:58.000Z</time>
      </trkpt>
      <trkpt lat="49.77154" lon="4.83385">
        <ele>263</ele>
        <time>2021-08-14T10:58:59.000Z</time>
      </trkpt>
      <trkpt lat="49.77152" lon="4.83386">
        <ele>264</ele>
        <time>2021-08-14T10:59:00.000Z</time>
      </trkpt>
      <trkpt lat="49.77151" lon="4.83387">
        <ele>264</ele>
        <time>2021-08-14T10:59:01.000Z</time>
      </trkpt>
      <trkpt lat="49.77149" lon="4.83388">
        <ele>264</ele>
        <time>2021-08-14T10:59:02.000Z</time>
      </trkpt>
      <trkpt lat="49.77147" lon="4.83389">
        <ele>265</ele>
        <time>2021-08-14T10:59:03.000Z</time>
      </trkpt>
      <trkpt lat="49.77146" lon="4.8339">
        <ele>265</ele>
        <time>2021-08-14T10:59:04.000Z</time>
      </trkpt>
      <trkpt lat="49.77144" lon="4.83391">
        <ele>265</ele>
        <time>2021-08-14T10:59:05.000Z</time>
      </trkpt>
      <trkpt lat="49.77141" lon="4.83392">
        <ele>265</ele>
        <time>2021-08-14T10:59:06.000Z</time>
      </trkpt>
      <trkpt lat="49.77139" lon="4.83394">
        <ele>266</ele>
        <time>2021-08-14T10:59:07.000Z</time>
      </trkpt>
      <trkpt lat="49.77136" lon="4.83395">
        <ele>266</ele>
        <time>2021-08-14T10:59:08.000Z</time>
      </trkpt>
      <trkpt lat="49.77134" lon="4.83396">
        <ele>266</ele>
        <time>2021-08-14T10:59:09.000Z</time>
      </trkpt>
      <trkpt lat="49.77131" lon="4.83397">
        <ele>267</ele>
        <time>2021-08-14T10:59:10.000Z</time>
      </trkpt>
      <trkpt lat="49.77128" lon="4.834">
        <ele>267</ele>
        <time>2021-08-14T10:59:11.000Z</time>
      </trkpt>
      <trkpt lat="49.77126" lon="4.83402">
        <ele>267</ele>
        <time>2021-08-14T10:59:12.000Z</time>
      </trkpt>
      <trkpt lat="49.77123" lon="4.83403">
        <ele>268</ele>
        <time>2021-08-14T10:59:13.000Z</time>
      </trkpt>
      <trkpt lat="49.7712" lon="4.83405">
        <ele>268</ele>
        <time>2021-08-14T10:59:14.000Z</time>
      </trkpt>
      <trkpt lat="49.77117" lon="4.83406">
        <ele>268</ele>
        <time>2021-08-14T10:59:15.000Z</time>
      </trkpt>
      <trkpt lat="49.77114" lon="4.83407">
        <ele>268</ele>
        <time>2021-08-14T10:59:16.000Z</time>
      </trkpt>
      <trkpt lat="49.77111" lon="4.83408">
        <ele>268</ele>
        <time>2021-08-14T10:59:17.000Z</time>
      </trkpt>
      <trkpt lat="49.77109" lon="4.83409">
        <ele>268</ele>
        <time>2021-08-14T10:59:18.000Z</time>
      </trkpt>
      <trkpt lat="49.77106" lon="4.83409">
        <ele>269</ele>
        <time>2021-08-14T10:59:19.000Z</time>
      </trkpt>
      <trkpt lat="49.77103" lon="4.83409">
        <ele>269</ele>
        <time>2021-08-14T10:59:20.000Z</time>
      </trkpt>
      <trkpt lat="49.771" lon="4.83408">
        <ele>269</ele>
        <time>2021-08-14T10:59:21.000Z</time>
      </trkpt>
      <trkpt lat="49.77097" lon="4.83408">
        <ele>269</ele>
        <time>2021-08-14T10:59:22.000Z</time>
      </trkpt>
      <trkpt lat="49.77094" lon="4.83406">
        <ele>269</ele>
        <time>2021-08-14T10:59:23.000Z</time>
      </trkpt>
      <trkpt lat="49.77091" lon="4.83406">
        <ele>269</ele>
        <time>2021-08-14T10:59:24.000Z</time>
      </trkpt>
      <trkpt lat="49.77089" lon="4.83405">
        <ele>270</ele>
        <time>2021-08-14T10:59:25.000Z</time>
      </trkpt>
      <trkpt lat="49.77086" lon="4.83405">
        <ele>270</ele>
        <time>2021-08-14T10:59:26.000Z</time>
      </trkpt>
      <trkpt lat="49.77084" lon="4.83405">
        <ele>270</ele>
        <time>2021-08-14T10:59:27.000Z</time>
      </trkpt>
      <trkpt lat="49.77081" lon="4.83404">
        <ele>270</ele>
        <time>2021-08-14T10:59:28.000Z</time>
      </trkpt>
      <trkpt lat="49.77079" lon="4.83403">
        <ele>270</ele>
        <time>2021-08-14T10:59:29.000Z</time>
      </trkpt>
      <trkpt lat="49.77076" lon="4.83402">
        <ele>270</ele>
        <time>2021-08-14T10:59:30.000Z</time>
      </trkpt>
      <trkpt lat="49.77074" lon="4.83401">
        <ele>270</ele>
        <time>2021-08-14T10:59:31.000Z</time>
      </trkpt>
      <trkpt lat="49.77071" lon="4.834">
        <ele>270</ele>
        <time>2021-08-14T10:59:32.000Z</time>
      </trkpt>
      <trkpt lat="49.77069" lon="4.83399">
        <ele>270</ele>
        <time>2021-08-14T10:59:33.000Z</time>
      </trkpt>
      <trkpt lat="49.77066" lon="4.83398">
        <ele>270</ele>
        <time>2021-08-14T10:59:34.000Z</time>
      </trkpt>
      <trkpt lat="49.77064" lon="4.83397">
        <ele>270</ele>
        <time>2021-08-14T10:59:35.000Z</time>
      </trkpt>
      <trkpt lat="49.77061" lon="4.83395">
        <ele>270</ele>
        <time>2021-08-14T10:59:36.000Z</time>
      </trkpt>
      <trkpt lat="49.77058" lon="4.83393">
        <ele>270</ele>
        <time>2021-08-14T10:59:37.000Z</time>
      </trkpt>
      <trkpt lat="49.77056" lon="4.83391">
        <ele>270</ele>
        <time>2021-08-14T10:59:38.000Z</time>
      </trkpt>
      <trkpt lat="49.77053" lon="4.8339">
        <ele>270</ele>
        <time>2021-08-14T10:59:39.000Z</time>
      </trkpt>
      <trkpt lat="49.7705" lon="4.83389">
        <ele>270</ele>
        <time>2021-08-14T10:59:40.000Z</time>
      </trkpt>
      <trkpt lat="49.77048" lon="4.83387">
        <ele>270</ele>
        <time>2021-08-14T10:59:41.000Z</time>
      </trkpt>
      <trkpt lat="49.77046" lon="4.83385">
        <ele>270</ele>
        <time>2021-08-14T10:59:42.000Z</time>
      </trkpt>
      <trkpt lat="49.77043" lon="4.83384">
        <ele>270</ele>
        <time>2021-08-14T10:59:43.000Z</time>
      </trkpt>
      <trkpt lat="49.7704" lon="4.83382">
        <ele>270</ele>
        <time>2021-08-14T10:59:44.000Z</time>
      </trkpt>
      <trkpt lat="49.77037" lon="4.83381">
        <ele>270</ele>
        <time>2021-08-14T10:59:45.000Z</time>
      </trkpt>
      <trkpt lat="49.77034" lon="4.8338">
        <ele>269</ele>
        <time>2021-08-14T10:59:46.000Z</time>
      </trkpt>
      <trkpt lat="49.77032" lon="4.83378">
        <ele>269</ele>
        <time>2021-08-14T10:59:47.000Z</time>
      </trkpt>
      <trkpt lat="49.77029" lon="4.83376">
        <ele>269</ele>
        <time>2021-08-14T10:59:48.000Z</time>
      </trkpt>
      <trkpt lat="49.77026" lon="4.83375">
        <ele>269</ele>
        <time>2021-08-14T10:59:49.000Z</time>
      </trkpt>
      <trkpt lat="49.77023" lon="4.83373">
        <ele>269</ele>
        <time>2021-08-14T10:59:50.000Z</time>
      </trkpt>
      <trkpt lat="49.7702" lon="4.83372">
        <ele>269</ele>
        <time>2021-08-14T10:59:51.000Z</time>
      </trkpt>
      <trkpt lat="49.77017" lon="4.8337">
        <ele>269</ele>
        <time>2021-08-14T10:59:52.000Z</time>
      </trkpt>
      <trkpt lat="49.77015" lon="4.83368">
        <ele>269</ele>
        <time>2021-08-14T10:59:53.000Z</time>
      </trkpt>
      <trkpt lat="49.77012" lon="4.83366">
        <ele>268</ele>
        <time>2021-08-14T10:59:54.000Z</time>
      </trkpt>
      <trkpt lat="49.77009" lon="4.83364">
        <ele>268</ele>
        <time>2021-08-14T10:59:55.000Z</time>
      </trkpt>
      <trkpt lat="49.77006" lon="4.83362">
        <ele>268</ele>
        <time>2021-08-14T10:59:56.000Z</time>
      </trkpt>
      <trkpt lat="49.77004" lon="4.8336">
        <ele>268</ele>
        <time>2021-08-14T10:59:57.000Z</time>
      </trkpt>
      <trkpt lat="49.77001" lon="4.83358">
        <ele>268</ele>
        <time>2021-08-14T10:59:58.000Z</time>
      </trkpt>
      <trkpt lat="49.76999" lon="4.83356">
        <ele>268</ele>
        <time>2021-08-14T10:59:59.000Z</time>
      </trkpt>
      <trkpt lat="49.76996" lon="4.83353">
        <ele>268</ele>
        <time>2021-08-14T11:00:00.000Z</time>
      </trkpt>
      <trkpt lat="49.76994" lon="4.8335">
        <ele>267</ele>
        <time>2021-08-14T11:00:01.000Z</time>
      </trkpt>
      <trkpt lat="49.76992" lon="4.83348">
        <ele>267</ele>
        <time>2021-08-14T11:00:02.000Z</time>
      </trkpt>
      <trkpt lat="49.76989" lon="4.83345">
        <ele>267</ele>
        <time>2021-08-14T11:00:03.000Z</time>
      </trkpt>
      <trkpt lat="49.76987" lon="4.83342">
        <ele>266</ele>
        <time>2021-08-14T11:00:04.000Z</time>
      </trkpt>
      <trkpt lat="49.76985" lon="4.83338">
        <ele>266</ele>
        <time>2021-08-14T11:00:05.000Z</time>
      </trkpt>
      <trkpt lat="49.76983" lon="4.83335">
        <ele>266</ele>
        <time>2021-08-14T11:00:06.000Z</time>
      </trkpt>
      <trkpt lat="49.76981" lon="4.83332">
        <ele>266</ele>
        <time>2021-08-14T11:00:07.000Z</time>
      </trkpt>
      <trkpt lat="49.7698" lon="4.83329">
        <ele>265</ele>
        <time>2021-08-14T11:00:08.000Z</time>
      </trkpt>
      <trkpt lat="49.76978" lon="4.83325">
        <ele>265</ele>
        <time>2021-08-14T11:00:09.000Z</time>
      </trkpt>
      <trkpt lat="49.76976" lon="4.83322">
        <ele>265</ele>
        <time>2021-08-14T11:00:10.000Z</time>
      </trkpt>
      <trkpt lat="49.76975" lon="4.83318">
        <ele>265</ele>
        <time>2021-08-14T11:00:11.000Z</time>
      </trkpt>
      <trkpt lat="49.76973" lon="4.83315">
        <ele>265</ele>
        <time>2021-08-14T11:00:12.000Z</time>
      </trkpt>
      <trkpt lat="49.76971" lon="4.83311">
        <ele>265</ele>
        <time>2021-08-14T11:00:13.000Z</time>
      </trkpt>
      <trkpt lat="49.76969" lon="4.83307">
        <ele>265</ele>
        <time>2021-08-14T11:00:14.000Z</time>
      </trkpt>
      <trkpt lat="49.76968" lon="4.83303">
        <ele>265</ele>
        <time>2021-08-14T11:00:15.000Z</time>
      </trkpt>
      <trkpt lat="49.76966" lon="4.833">
        <ele>265</ele>
        <time>2021-08-14T11:00:16.000Z</time>
      </trkpt>
      <trkpt lat="49.76965" lon="4.83296">
        <ele>265</ele>
        <time>2021-08-14T11:00:17.000Z</time>
      </trkpt>
      <trkpt lat="49.76963" lon="4.83292">
        <ele>265</ele>
        <time>2021-08-14T11:00:18.000Z</time>
      </trkpt>
      <trkpt lat="49.76962" lon="4.83288">
        <ele>265</ele>
        <time>2021-08-14T11:00:19.000Z</time>
      </trkpt>
      <trkpt lat="49.7696" lon="4.83284">
        <ele>265</ele>
        <time>2021-08-14T11:00:20.000Z</time>
      </trkpt>
      <trkpt lat="49.76958" lon="4.8328">
        <ele>265</ele>
        <time>2021-08-14T11:00:21.000Z</time>
      </trkpt>
      <trkpt lat="49.76957" lon="4.83277">
        <ele>266</ele>
        <time>2021-08-14T11:00:22.000Z</time>
      </trkpt>
      <trkpt lat="49.76955" lon="4.83274">
        <ele>266</ele>
        <time>2021-08-14T11:00:23.000Z</time>
      </trkpt>
      <trkpt lat="49.76954" lon="4.83271">
        <ele>266</ele>
        <time>2021-08-14T11:00:24.000Z</time>
      </trkpt>
      <trkpt lat="49.76952" lon="4.83268">
        <ele>266</ele>
        <time>2021-08-14T11:00:25.000Z</time>
      </trkpt>
      <trkpt lat="49.76951" lon="4.83265">
        <ele>266</ele>
        <time>2021-08-14T11:00:26.000Z</time>
      </trkpt>
      <trkpt lat="49.76949" lon="4.83262">
        <ele>267</ele>
        <time>2021-08-14T11:00:27.000Z</time>
      </trkpt>
      <trkpt lat="49.76948" lon="4.83259">
        <ele>267</ele>
        <time>2021-08-14T11:00:28.000Z</time>
      </trkpt>
      <trkpt lat="49.76947" lon="4.83255">
        <ele>267</ele>
        <time>2021-08-14T11:00:29.000Z</time>
      </trkpt>
      <trkpt lat="49.76945" lon="4.83252">
        <ele>267</ele>
        <time>2021-08-14T11:00:30.000Z</time>
      </trkpt>
      <trkpt lat="49.76944" lon="4.83249">
        <ele>267</ele>
        <time>2021-08-14T11:00:31.000Z</time>
      </trkpt>
      <trkpt lat="49.76942" lon="4.83245">
        <ele>267</ele>
        <time>2021-08-14T11:00:32.000Z</time>
      </trkpt>
      <trkpt lat="49.7694" lon="4.83241">
        <ele>267</ele>
        <time>2021-08-14T11:00:33.000Z</time>
      </trkpt>
      <trkpt lat="49.76938" lon="4.83237">
        <ele>267</ele>
        <time>2021-08-14T11:00:34.000Z</time>
      </trkpt>
      <trkpt lat="49.76936" lon="4.83232">
        <ele>267</ele>
        <time>2021-08-14T11:00:35.000Z</time>
      </trkpt>
      <trkpt lat="49.76934" lon="4.83228">
        <ele>267</ele>
        <time>2021-08-14T11:00:36.000Z</time>
      </trkpt>
      <trkpt lat="49.76931" lon="4.83223">
        <ele>267</ele>
        <time>2021-08-14T11:00:37.000Z</time>
      </trkpt>
      <trkpt lat="49.76929" lon="4.83219">
        <ele>267</ele>
        <time>2021-08-14T11:00:38.000Z</time>
      </trkpt>
      <trkpt lat="49.76927" lon="4.83214">
        <ele>267</ele>
        <time>2021-08-14T11:00:39.000Z</time>
      </trkpt>
      <trkpt lat="49.76926" lon="4.83208">
        <ele>267</ele>
        <time>2021-08-14T11:00:40.000Z</time>
      </trkpt>
      <trkpt lat="49.76925" lon="4.83203">
        <ele>267</ele>
        <time>2021-08-14T11:00:41.000Z</time>
      </trkpt>
      <trkpt lat="49.76926" lon="4.83197">
        <ele>267</ele>
        <time>2021-08-14T11:00:42.000Z</time>
      </trkpt>
      <trkpt lat="49.76927" lon="4.83191">
        <ele>267</ele>
        <time>2021-08-14T11:00:43.000Z</time>
      </trkpt>
      <trkpt lat="49.76929" lon="4.83186">
        <ele>267</ele>
        <time>2021-08-14T11:00:44.000Z</time>
      </trkpt>
      <trkpt lat="49.76931" lon="4.83181">
        <ele>266</ele>
        <time>2021-08-14T11:00:45.000Z</time>
      </trkpt>
      <trkpt lat="49.76933" lon="4.83176">
        <ele>266</ele>
        <time>2021-08-14T11:00:46.000Z</time>
      </trkpt>
      <trkpt lat="49.76936" lon="4.83171">
        <ele>266</ele>
        <time>2021-08-14T11:00:47.000Z</time>
      </trkpt>
      <trkpt lat="49.76937" lon="4.83166">
        <ele>266</ele>
        <time>2021-08-14T11:00:48.000Z</time>
      </trkpt>
      <trkpt lat="49.76938" lon="4.83161">
        <ele>266</ele>
        <time>2021-08-14T11:00:49.000Z</time>
      </trkpt>
      <trkpt lat="49.76938" lon="4.83156">
        <ele>266</ele>
        <time>2021-08-14T11:00:50.000Z</time>
      </trkpt>
      <trkpt lat="49.76937" lon="4.8315">
        <ele>266</ele>
        <time>2021-08-14T11:00:51.000Z</time>
      </trkpt>
      <trkpt lat="49.76936" lon="4.83144">
        <ele>266</ele>
        <time>2021-08-14T11:00:52.000Z</time>
      </trkpt>
      <trkpt lat="49.76935" lon="4.83139">
        <ele>266</ele>
        <time>2021-08-14T11:00:53.000Z</time>
      </trkpt>
      <trkpt lat="49.76933" lon="4.83135">
        <ele>266</ele>
        <time>2021-08-14T11:00:54.000Z</time>
      </trkpt>
      <trkpt lat="49.76931" lon="4.83129">
        <ele>266</ele>
        <time>2021-08-14T11:00:55.000Z</time>
      </trkpt>
      <trkpt lat="49.76929" lon="4.83124">
        <ele>266</ele>
        <time>2021-08-14T11:00:56.000Z</time>
      </trkpt>
      <trkpt lat="49.76926" lon="4.83118">
        <ele>266</ele>
        <time>2021-08-14T11:00:57.000Z</time>
      </trkpt>
      <trkpt lat="49.76923" lon="4.83112">
        <ele>265</ele>
        <time>2021-08-14T11:00:58.000Z</time>
      </trkpt>
      <trkpt lat="49.76921" lon="4.83106">
        <ele>265</ele>
        <time>2021-08-14T11:00:59.000Z</time>
      </trkpt>
      <trkpt lat="49.76918" lon="4.831">
        <ele>265</ele>
        <time>2021-08-14T11:01:00.000Z</time>
      </trkpt>
      <trkpt lat="49.76916" lon="4.83094">
        <ele>265</ele>
        <time>2021-08-14T11:01:01.000Z</time>
      </trkpt>
      <trkpt lat="49.76913" lon="4.83088">
        <ele>265</ele>
        <time>2021-08-14T11:01:02.000Z</time>
      </trkpt>
      <trkpt lat="49.7691" lon="4.83082">
        <ele>265</ele>
        <time>2021-08-14T11:01:03.000Z</time>
      </trkpt>
      <trkpt lat="49.76908" lon="4.83075">
        <ele>264</ele>
        <time>2021-08-14T11:01:04.000Z</time>
      </trkpt>
      <trkpt lat="49.76905" lon="4.83069">
        <ele>264</ele>
        <time>2021-08-14T11:01:05.000Z</time>
      </trkpt>
      <trkpt lat="49.76902" lon="4.83062">
        <ele>264</ele>
        <time>2021-08-14T11:01:06.000Z</time>
      </trkpt>
      <trkpt lat="49.769" lon="4.83056">
        <ele>264</ele>
        <time>2021-08-14T11:01:07.000Z</time>
      </trkpt>
      <trkpt lat="49.76897" lon="4.8305">
        <ele>264</ele>
        <time>2021-08-14T11:01:08.000Z</time>
      </trkpt>
      <trkpt lat="49.76894" lon="4.83043">
        <ele>264</ele>
        <time>2021-08-14T11:01:09.000Z</time>
      </trkpt>
      <trkpt lat="49.76891" lon="4.83037">
        <ele>264</ele>
        <time>2021-08-14T11:01:10.000Z</time>
      </trkpt>
      <trkpt lat="49.76888" lon="4.83031">
        <ele>264</ele>
        <time>2021-08-14T11:01:11.000Z</time>
      </trkpt>
      <trkpt lat="49.76885" lon="4.83024">
        <ele>264</ele>
        <time>2021-08-14T11:01:12.000Z</time>
      </trkpt>
      <trkpt lat="49.76883" lon="4.83018">
        <ele>263</ele>
        <time>2021-08-14T11:01:13.000Z</time>
      </trkpt>
      <trkpt lat="49.7688" lon="4.83011">
        <ele>263</ele>
        <time>2021-08-14T11:01:14.000Z</time>
      </trkpt>
      <trkpt lat="49.76877" lon="4.83004">
        <ele>263</ele>
        <time>2021-08-14T11:01:15.000Z</time>
      </trkpt>
      <trkpt lat="49.76873" lon="4.82997">
        <ele>263</ele>
        <time>2021-08-14T11:01:16.000Z</time>
      </trkpt>
      <trkpt lat="49.7687" lon="4.8299">
        <ele>263</ele>
        <time>2021-08-14T11:01:17.000Z</time>
      </trkpt>
      <trkpt lat="49.76867" lon="4.82982">
        <ele>262</ele>
        <time>2021-08-14T11:01:18.000Z</time>
      </trkpt>
      <trkpt lat="49.76864" lon="4.82975">
        <ele>262</ele>
        <time>2021-08-14T11:01:19.000Z</time>
      </trkpt>
      <trkpt lat="49.76861" lon="4.82968">
        <ele>262</ele>
        <time>2021-08-14T11:01:20.000Z</time>
      </trkpt>
      <trkpt lat="49.76859" lon="4.82961">
        <ele>262</ele>
        <time>2021-08-14T11:01:21.000Z</time>
      </trkpt>
      <trkpt lat="49.76856" lon="4.82954">
        <ele>261</ele>
        <time>2021-08-14T11:01:22.000Z</time>
      </trkpt>
      <trkpt lat="49.76853" lon="4.82947">
        <ele>261</ele>
        <time>2021-08-14T11:01:23.000Z</time>
      </trkpt>
      <trkpt lat="49.7685" lon="4.8294">
        <ele>261</ele>
        <time>2021-08-14T11:01:24.000Z</time>
      </trkpt>
      <trkpt lat="49.76847" lon="4.82933">
        <ele>261</ele>
        <time>2021-08-14T11:01:25.000Z</time>
      </trkpt>
      <trkpt lat="49.76844" lon="4.82926">
        <ele>261</ele>
        <time>2021-08-14T11:01:26.000Z</time>
      </trkpt>
      <trkpt lat="49.76841" lon="4.82919">
        <ele>260</ele>
        <time>2021-08-14T11:01:27.000Z</time>
      </trkpt>
      <trkpt lat="49.76838" lon="4.82912">
        <ele>260</ele>
        <time>2021-08-14T11:01:28.000Z</time>
      </trkpt>
      <trkpt lat="49.76835" lon="4.82905">
        <ele>260</ele>
        <time>2021-08-14T11:01:29.000Z</time>
      </trkpt>
      <trkpt lat="49.76832" lon="4.82898">
        <ele>260</ele>
        <time>2021-08-14T11:01:30.000Z</time>
      </trkpt>
      <trkpt lat="49.76829" lon="4.82891">
        <ele>260</ele>
        <time>2021-08-14T11:01:31.000Z</time>
      </trkpt>
      <trkpt lat="49.76826" lon="4.82885">
        <ele>260</ele>
        <time>2021-08-14T11:01:32.000Z</time>
      </trkpt>
      <trkpt lat="49.76822" lon="4.82878">
        <ele>259</ele>
        <time>2021-08-14T11:01:33.000Z</time>
      </trkpt>
      <trkpt lat="49.76819" lon="4.82871">
        <ele>259</ele>
        <time>2021-08-14T11:01:34.000Z</time>
      </trkpt>
      <trkpt lat="49.76816" lon="4.82865">
        <ele>259</ele>
        <time>2021-08-14T11:01:35.000Z</time>
      </trkpt>
      <trkpt lat="49.76813" lon="4.82858">
        <ele>259</ele>
        <time>2021-08-14T11:01:36.000Z</time>
      </trkpt>
      <trkpt lat="49.7681" lon="4.82852">
        <ele>259</ele>
        <time>2021-08-14T11:01:37.000Z</time>
      </trkpt>
      <trkpt lat="49.76807" lon="4.82846">
        <ele>259</ele>
        <time>2021-08-14T11:01:38.000Z</time>
      </trkpt>
      <trkpt lat="49.76804" lon="4.82839">
        <ele>258</ele>
        <time>2021-08-14T11:01:39.000Z</time>
      </trkpt>
      <trkpt lat="49.768" lon="4.82832">
        <ele>258</ele>
        <time>2021-08-14T11:01:40.000Z</time>
      </trkpt>
      <trkpt lat="49.76797" lon="4.82825">
        <ele>258</ele>
        <time>2021-08-14T11:01:41.000Z</time>
      </trkpt>
      <trkpt lat="49.76793" lon="4.82818">
        <ele>258</ele>
        <time>2021-08-14T11:01:42.000Z</time>
      </trkpt>
      <trkpt lat="49.7679" lon="4.82811">
        <ele>258</ele>
        <time>2021-08-14T11:01:43.000Z</time>
      </trkpt>
      <trkpt lat="49.76786" lon="4.82803">
        <ele>257</ele>
        <time>2021-08-14T11:01:44.000Z</time>
      </trkpt>
      <trkpt lat="49.76782" lon="4.82796">
        <ele>257</ele>
        <time>2021-08-14T11:01:45.000Z</time>
      </trkpt>
      <trkpt lat="49.76778" lon="4.82788">
        <ele>257</ele>
        <time>2021-08-14T11:01:46.000Z</time>
      </trkpt>
      <trkpt lat="49.76775" lon="4.8278">
        <ele>257</ele>
        <time>2021-08-14T11:01:47.000Z</time>
      </trkpt>
      <trkpt lat="49.76771" lon="4.82772">
        <ele>256</ele>
        <time>2021-08-14T11:01:48.000Z</time>
      </trkpt>
      <trkpt lat="49.76767" lon="4.82764">
        <ele>256</ele>
        <time>2021-08-14T11:01:49.000Z</time>
      </trkpt>
      <trkpt lat="49.76764" lon="4.82756">
        <ele>256</ele>
        <time>2021-08-14T11:01:50.000Z</time>
      </trkpt>
      <trkpt lat="49.7676" lon="4.82747">
        <ele>255</ele>
        <time>2021-08-14T11:01:51.000Z</time>
      </trkpt>
      <trkpt lat="49.76757" lon="4.82739">
        <ele>255</ele>
        <time>2021-08-14T11:01:52.000Z</time>
      </trkpt>
      <trkpt lat="49.76754" lon="4.82731">
        <ele>255</ele>
        <time>2021-08-14T11:01:53.000Z</time>
      </trkpt>
      <trkpt lat="49.7675" lon="4.82723">
        <ele>255</ele>
        <time>2021-08-14T11:01:54.000Z</time>
      </trkpt>
      <trkpt lat="49.76747" lon="4.82715">
        <ele>255</ele>
        <time>2021-08-14T11:01:55.000Z</time>
      </trkpt>
      <trkpt lat="49.76744" lon="4.82707">
        <ele>254</ele>
        <time>2021-08-14T11:01:56.000Z</time>
      </trkpt>
      <trkpt lat="49.7674" lon="4.82699">
        <ele>254</ele>
        <time>2021-08-14T11:01:57.000Z</time>
      </trkpt>
      <trkpt lat="49.76737" lon="4.82691">
        <ele>254</ele>
        <time>2021-08-14T11:01:58.000Z</time>
      </trkpt>
      <trkpt lat="49.76734" lon="4.82682">
        <ele>254</ele>
        <time>2021-08-14T11:01:59.000Z</time>
      </trkpt>
      <trkpt lat="49.76731" lon="4.82674">
        <ele>254</ele>
        <time>2021-08-14T11:02:00.000Z</time>
      </trkpt>
      <trkpt lat="49.76728" lon="4.82665">
        <ele>254</ele>
        <time>2021-08-14T11:02:01.000Z</time>
      </trkpt>
      <trkpt lat="49.76726" lon="4.82656">
        <ele>253</ele>
        <time>2021-08-14T11:02:02.000Z</time>
      </trkpt>
      <trkpt lat="49.76723" lon="4.82647">
        <ele>253</ele>
        <time>2021-08-14T11:02:03.000Z</time>
      </trkpt>
      <trkpt lat="49.76721" lon="4.82639">
        <ele>253</ele>
        <time>2021-08-14T11:02:04.000Z</time>
      </trkpt>
      <trkpt lat="49.76719" lon="4.8263">
        <ele>253</ele>
        <time>2021-08-14T11:02:05.000Z</time>
      </trkpt>
      <trkpt lat="49.76716" lon="4.82622">
        <ele>253</ele>
        <time>2021-08-14T11:02:06.000Z</time>
      </trkpt>
      <trkpt lat="49.76714" lon="4.82613">
        <ele>253</ele>
        <time>2021-08-14T11:02:07.000Z</time>
      </trkpt>
      <trkpt lat="49.76712" lon="4.82605">
        <ele>253</ele>
        <time>2021-08-14T11:02:08.000Z</time>
      </trkpt>
      <trkpt lat="49.7671" lon="4.82596">
        <ele>253</ele>
        <time>2021-08-14T11:02:09.000Z</time>
      </trkpt>
      <trkpt lat="49.76708" lon="4.82587">
        <ele>252</ele>
        <time>2021-08-14T11:02:10.000Z</time>
      </trkpt>
      <trkpt lat="49.76705" lon="4.82579">
        <ele>252</ele>
        <time>2021-08-14T11:02:11.000Z</time>
      </trkpt>
      <trkpt lat="49.76703" lon="4.82571">
        <ele>252</ele>
        <time>2021-08-14T11:02:12.000Z</time>
      </trkpt>
      <trkpt lat="49.76702" lon="4.82562">
        <ele>252</ele>
        <time>2021-08-14T11:02:13.000Z</time>
      </trkpt>
      <trkpt lat="49.767" lon="4.82554">
        <ele>252</ele>
        <time>2021-08-14T11:02:14.000Z</time>
      </trkpt>
      <trkpt lat="49.76698" lon="4.82545">
        <ele>252</ele>
        <time>2021-08-14T11:02:15.000Z</time>
      </trkpt>
      <trkpt lat="49.76695" lon="4.82536">
        <ele>251</ele>
        <time>2021-08-14T11:02:16.000Z</time>
      </trkpt>
      <trkpt lat="49.76693" lon="4.82528">
        <ele>251</ele>
        <time>2021-08-14T11:02:17.000Z</time>
      </trkpt>
      <trkpt lat="49.76691" lon="4.82519">
        <ele>251</ele>
        <time>2021-08-14T11:02:18.000Z</time>
      </trkpt>
      <trkpt lat="49.76689" lon="4.82509">
        <ele>251</ele>
        <time>2021-08-14T11:02:19.000Z</time>
      </trkpt>
      <trkpt lat="49.76686" lon="4.825">
        <ele>251</ele>
        <time>2021-08-14T11:02:20.000Z</time>
      </trkpt>
      <trkpt lat="49.76684" lon="4.82491">
        <ele>251</ele>
        <time>2021-08-14T11:02:21.000Z</time>
      </trkpt>
      <trkpt lat="49.76681" lon="4.82482">
        <ele>251</ele>
        <time>2021-08-14T11:02:22.000Z</time>
      </trkpt>
      <trkpt lat="49.76678" lon="4.82473">
        <ele>251</ele>
        <time>2021-08-14T11:02:23.000Z</time>
      </trkpt>
      <trkpt lat="49.76676" lon="4.82464">
        <ele>250</ele>
        <time>2021-08-14T11:02:24.000Z</time>
      </trkpt>
      <trkpt lat="49.76673" lon="4.82455">
        <ele>250</ele>
        <time>2021-08-14T11:02:25.000Z</time>
      </trkpt>
      <trkpt lat="49.7667" lon="4.82446">
        <ele>250</ele>
        <time>2021-08-14T11:02:26.000Z</time>
      </trkpt>
      <trkpt lat="49.76667" lon="4.82437">
        <ele>250</ele>
        <time>2021-08-14T11:02:27.000Z</time>
      </trkpt>
      <trkpt lat="49.76665" lon="4.82427">
        <ele>250</ele>
        <time>2021-08-14T11:02:28.000Z</time>
      </trkpt>
      <trkpt lat="49.76663" lon="4.82418">
        <ele>250</ele>
        <time>2021-08-14T11:02:29.000Z</time>
      </trkpt>
      <trkpt lat="49.76661" lon="4.82409">
        <ele>250</ele>
        <time>2021-08-14T11:02:30.000Z</time>
      </trkpt>
      <trkpt lat="49.76659" lon="4.82399">
        <ele>250</ele>
        <time>2021-08-14T11:02:31.000Z</time>
      </trkpt>
      <trkpt lat="49.76657" lon="4.8239">
        <ele>250</ele>
        <time>2021-08-14T11:02:32.000Z</time>
      </trkpt>
      <trkpt lat="49.76656" lon="4.8238">
        <ele>249</ele>
        <time>2021-08-14T11:02:33.000Z</time>
      </trkpt>
      <trkpt lat="49.76655" lon="4.8237">
        <ele>249</ele>
        <time>2021-08-14T11:02:34.000Z</time>
      </trkpt>
      <trkpt lat="49.76654" lon="4.8236">
        <ele>249</ele>
        <time>2021-08-14T11:02:35.000Z</time>
      </trkpt>
      <trkpt lat="49.76653" lon="4.8235">
        <ele>249</ele>
        <time>2021-08-14T11:02:36.000Z</time>
      </trkpt>
      <trkpt lat="49.76653" lon="4.82341">
        <ele>249</ele>
        <time>2021-08-14T11:02:37.000Z</time>
      </trkpt>
      <trkpt lat="49.76652" lon="4.82332">
        <ele>249</ele>
        <time>2021-08-14T11:02:38.000Z</time>
      </trkpt>
      <trkpt lat="49.76651" lon="4.82323">
        <ele>248</ele>
        <time>2021-08-14T11:02:39.000Z</time>
      </trkpt>
      <trkpt lat="49.76651" lon="4.82314">
        <ele>248</ele>
        <time>2021-08-14T11:02:40.000Z</time>
      </trkpt>
      <trkpt lat="49.76651" lon="4.82305">
        <ele>248</ele>
        <time>2021-08-14T11:02:41.000Z</time>
      </trkpt>
      <trkpt lat="49.76651" lon="4.82296">
        <ele>248</ele>
        <time>2021-08-14T11:02:42.000Z</time>
      </trkpt>
      <trkpt lat="49.76651" lon="4.82286">
        <ele>248</ele>
        <time>2021-08-14T11:02:43.000Z</time>
      </trkpt>
      <trkpt lat="49.76651" lon="4.82277">
        <ele>248</ele>
        <time>2021-08-14T11:02:44.000Z</time>
      </trkpt>
      <trkpt lat="49.7665" lon="4.82268">
        <ele>248</ele>
        <time>2021-08-14T11:02:45.000Z</time>
      </trkpt>
      <trkpt lat="49.76649" lon="4.82259">
        <ele>248</ele>
        <time>2021-08-14T11:02:46.000Z</time>
      </trkpt>
      <trkpt lat="49.76647" lon="4.82251">
        <ele>248</ele>
        <time>2021-08-14T11:02:47.000Z</time>
      </trkpt>
      <trkpt lat="49.76645" lon="4.82243">
        <ele>248</ele>
        <time>2021-08-14T11:02:48.000Z</time>
      </trkpt>
      <trkpt lat="49.76643" lon="4.82235">
        <ele>248</ele>
        <time>2021-08-14T11:02:49.000Z</time>
      </trkpt>
      <trkpt lat="49.7664" lon="4.82227">
        <ele>248</ele>
        <time>2021-08-14T11:02:50.000Z</time>
      </trkpt>
      <trkpt lat="49.76639" lon="4.82219">
        <ele>248</ele>
        <time>2021-08-14T11:02:51.000Z</time>
      </trkpt>
      <trkpt lat="49.76638" lon="4.8221">
        <ele>248</ele>
        <time>2021-08-14T11:02:52.000Z</time>
      </trkpt>
      <trkpt lat="49.76636" lon="4.82202">
        <ele>248</ele>
        <time>2021-08-14T11:02:53.000Z</time>
      </trkpt>
      <trkpt lat="49.76634" lon="4.82194">
        <ele>248</ele>
        <time>2021-08-14T11:02:54.000Z</time>
      </trkpt>
      <trkpt lat="49.76632" lon="4.82186">
        <ele>248</ele>
        <time>2021-08-14T11:02:55.000Z</time>
      </trkpt>
      <trkpt lat="49.7663" lon="4.82177">
        <ele>248</ele>
        <time>2021-08-14T11:02:56.000Z</time>
      </trkpt>
      <trkpt lat="49.76628" lon="4.82169">
        <ele>248</ele>
        <time>2021-08-14T11:02:57.000Z</time>
      </trkpt>
      <trkpt lat="49.76626" lon="4.82161">
        <ele>248</ele>
        <time>2021-08-14T11:02:58.000Z</time>
      </trkpt>
      <trkpt lat="49.76625" lon="4.82153">
        <ele>248</ele>
        <time>2021-08-14T11:02:59.000Z</time>
      </trkpt>
      <trkpt lat="49.76623" lon="4.82146">
        <ele>248</ele>
        <time>2021-08-14T11:03:00.000Z</time>
      </trkpt>
      <trkpt lat="49.76621" lon="4.82138">
        <ele>248</ele>
        <time>2021-08-14T11:03:01.000Z</time>
      </trkpt>
      <trkpt lat="49.76619" lon="4.8213">
        <ele>248</ele>
        <time>2021-08-14T11:03:02.000Z</time>
      </trkpt>
      <trkpt lat="49.76617" lon="4.82123">
        <ele>248</ele>
        <time>2021-08-14T11:03:03.000Z</time>
      </trkpt>
      <trkpt lat="49.76615" lon="4.82115">
        <ele>248</ele>
        <time>2021-08-14T11:03:04.000Z</time>
      </trkpt>
      <trkpt lat="49.76613" lon="4.82108">
        <ele>248</ele>
        <time>2021-08-14T11:03:05.000Z</time>
      </trkpt>
      <trkpt lat="49.7661" lon="4.82101">
        <ele>248</ele>
        <time>2021-08-14T11:03:06.000Z</time>
      </trkpt>
      <trkpt lat="49.76608" lon="4.82093">
        <ele>248</ele>
        <time>2021-08-14T11:03:07.000Z</time>
      </trkpt>
      <trkpt lat="49.76607" lon="4.82086">
        <ele>248</ele>
        <time>2021-08-14T11:03:08.000Z</time>
      </trkpt>
      <trkpt lat="49.76605" lon="4.82078">
        <ele>248</ele>
        <time>2021-08-14T11:03:09.000Z</time>
      </trkpt>
      <trkpt lat="49.76603" lon="4.82071">
        <ele>248</ele>
        <time>2021-08-14T11:03:10.000Z</time>
      </trkpt>
      <trkpt lat="49.76602" lon="4.82063">
        <ele>248</ele>
        <time>2021-08-14T11:03:11.000Z</time>
      </trkpt>
      <trkpt lat="49.766" lon="4.82056">
        <ele>248</ele>
        <time>2021-08-14T11:03:12.000Z</time>
      </trkpt>
      <trkpt lat="49.76598" lon="4.82049">
        <ele>248</ele>
        <time>2021-08-14T11:03:13.000Z</time>
      </trkpt>
      <trkpt lat="49.76597" lon="4.82041">
        <ele>248</ele>
        <time>2021-08-14T11:03:14.000Z</time>
      </trkpt>
      <trkpt lat="49.76596" lon="4.82033">
        <ele>248</ele>
        <time>2021-08-14T11:03:15.000Z</time>
      </trkpt>
      <trkpt lat="49.76595" lon="4.82026">
        <ele>248</ele>
        <time>2021-08-14T11:03:16.000Z</time>
      </trkpt>
      <trkpt lat="49.76593" lon="4.82018">
        <ele>248</ele>
        <time>2021-08-14T11:03:17.000Z</time>
      </trkpt>
      <trkpt lat="49.76592" lon="4.82011">
        <ele>248</ele>
        <time>2021-08-14T11:03:18.000Z</time>
      </trkpt>
      <trkpt lat="49.76591" lon="4.82006">
        <ele>248</ele>
        <time>2021-08-14T11:03:19.000Z</time>
      </trkpt>
      <trkpt lat="49.76589" lon="4.82003">
        <ele>248</ele>
        <time>2021-08-14T11:03:20.000Z</time>
      </trkpt>
      <trkpt lat="49.76587" lon="4.82001">
        <ele>248</ele>
        <time>2021-08-14T11:03:21.000Z</time>
      </trkpt>
      <trkpt lat="49.76584" lon="4.82001">
        <ele>248</ele>
        <time>2021-08-14T11:03:22.000Z</time>
      </trkpt>
      <trkpt lat="49.7658" lon="4.82002">
        <ele>248</ele>
        <time>2021-08-14T11:03:23.000Z</time>
      </trkpt>
      <trkpt lat="49.76577" lon="4.82004">
        <ele>248</ele>
        <time>2021-08-14T11:03:24.000Z</time>
      </trkpt>
      <trkpt lat="49.76573" lon="4.82007">
        <ele>248</ele>
        <time>2021-08-14T11:03:25.000Z</time>
      </trkpt>
      <trkpt lat="49.7657" lon="4.8201">
        <ele>248</ele>
        <time>2021-08-14T11:03:26.000Z</time>
      </trkpt>
      <trkpt lat="49.76566" lon="4.82014">
        <ele>248</ele>
        <time>2021-08-14T11:03:27.000Z</time>
      </trkpt>
      <trkpt lat="49.76563" lon="4.82017">
        <ele>248</ele>
        <time>2021-08-14T11:03:28.000Z</time>
      </trkpt>
      <trkpt lat="49.76559" lon="4.82021">
        <ele>249</ele>
        <time>2021-08-14T11:03:29.000Z</time>
      </trkpt>
      <trkpt lat="49.76556" lon="4.82026">
        <ele>249</ele>
        <time>2021-08-14T11:03:30.000Z</time>
      </trkpt>
      <trkpt lat="49.76551" lon="4.82028">
        <ele>249</ele>
        <time>2021-08-14T11:03:31.000Z</time>
      </trkpt>
      <trkpt lat="49.76547" lon="4.82028">
        <ele>249</ele>
        <time>2021-08-14T11:03:32.000Z</time>
      </trkpt>
      <trkpt lat="49.76542" lon="4.82026">
        <ele>249</ele>
        <time>2021-08-14T11:03:33.000Z</time>
      </trkpt>
      <trkpt lat="49.76539" lon="4.82021">
        <ele>249</ele>
        <time>2021-08-14T11:03:34.000Z</time>
      </trkpt>
      <trkpt lat="49.76537" lon="4.82014">
        <ele>249</ele>
        <time>2021-08-14T11:03:35.000Z</time>
      </trkpt>
      <trkpt lat="49.76535" lon="4.82008">
        <ele>249</ele>
        <time>2021-08-14T11:03:36.000Z</time>
      </trkpt>
      <trkpt lat="49.76533" lon="4.82001">
        <ele>249</ele>
        <time>2021-08-14T11:03:37.000Z</time>
      </trkpt>
      <trkpt lat="49.76531" lon="4.81994">
        <ele>249</ele>
        <time>2021-08-14T11:03:38.000Z</time>
      </trkpt>
      <trkpt lat="49.76528" lon="4.81987">
        <ele>249</ele>
        <time>2021-08-14T11:03:39.000Z</time>
      </trkpt>
      <trkpt lat="49.76526" lon="4.8198">
        <ele>249</ele>
        <time>2021-08-14T11:03:40.000Z</time>
      </trkpt>
      <trkpt lat="49.76524" lon="4.81973">
        <ele>249</ele>
        <time>2021-08-14T11:03:41.000Z</time>
      </trkpt>
      <trkpt lat="49.76523" lon="4.81966">
        <ele>249</ele>
        <time>2021-08-14T11:03:42.000Z</time>
      </trkpt>
      <trkpt lat="49.7652" lon="4.8196">
        <ele>249</ele>
        <time>2021-08-14T11:03:43.000Z</time>
      </trkpt>
      <trkpt lat="49.76518" lon="4.81954">
        <ele>249</ele>
        <time>2021-08-14T11:03:44.000Z</time>
      </trkpt>
      <trkpt lat="49.76516" lon="4.81948">
        <ele>249</ele>
        <time>2021-08-14T11:03:45.000Z</time>
      </trkpt>
      <trkpt lat="49.76514" lon="4.81942">
        <ele>249</ele>
        <time>2021-08-14T11:03:46.000Z</time>
      </trkpt>
      <trkpt lat="49.76512" lon="4.81936">
        <ele>249</ele>
        <time>2021-08-14T11:03:47.000Z</time>
      </trkpt>
      <trkpt lat="49.76511" lon="4.8193">
        <ele>249</ele>
        <time>2021-08-14T11:03:48.000Z</time>
      </trkpt>
      <trkpt lat="49.7651" lon="4.81925">
        <ele>249</ele>
        <time>2021-08-14T11:03:49.000Z</time>
      </trkpt>
      <trkpt lat="49.76508" lon="4.8192">
        <ele>249</ele>
        <time>2021-08-14T11:03:50.000Z</time>
      </trkpt>
      <trkpt lat="49.76506" lon="4.81915">
        <ele>249</ele>
        <time>2021-08-14T11:03:51.000Z</time>
      </trkpt>
      <trkpt lat="49.76505" lon="4.81909">
        <ele>249</ele>
        <time>2021-08-14T11:03:52.000Z</time>
      </trkpt>
      <trkpt lat="49.76504" lon="4.81904">
        <ele>249</ele>
        <time>2021-08-14T11:03:53.000Z</time>
      </trkpt>
      <trkpt lat="49.76503" lon="4.81899">
        <ele>249</ele>
        <time>2021-08-14T11:03:54.000Z</time>
      </trkpt>
      <trkpt lat="49.76502" lon="4.81893">
        <ele>250</ele>
        <time>2021-08-14T11:03:55.000Z</time>
      </trkpt>
      <trkpt lat="49.765" lon="4.81888">
        <ele>250</ele>
        <time>2021-08-14T11:03:56.000Z</time>
      </trkpt>
      <trkpt lat="49.76499" lon="4.81883">
        <ele>250</ele>
        <time>2021-08-14T11:03:57.000Z</time>
      </trkpt>
      <trkpt lat="49.76498" lon="4.81878">
        <ele>250</ele>
        <time>2021-08-14T11:03:58.000Z</time>
      </trkpt>
      <trkpt lat="49.76497" lon="4.81872">
        <ele>250</ele>
        <time>2021-08-14T11:03:59.000Z</time>
      </trkpt>
      <trkpt lat="49.76495" lon="4.81867">
        <ele>250</ele>
        <time>2021-08-14T11:04:00.000Z</time>
      </trkpt>
      <trkpt lat="49.76494" lon="4.81861">
        <ele>250</ele>
        <time>2021-08-14T11:04:01.000Z</time>
      </trkpt>
      <trkpt lat="49.76493" lon="4.81856">
        <ele>250</ele>
        <time>2021-08-14T11:04:02.000Z</time>
      </trkpt>
      <trkpt lat="49.76492" lon="4.81851">
        <ele>250</ele>
        <time>2021-08-14T11:04:03.000Z</time>
      </trkpt>
      <trkpt lat="49.7649" lon="4.81846">
        <ele>250</ele>
        <time>2021-08-14T11:04:04.000Z</time>
      </trkpt>
      <trkpt lat="49.76489" lon="4.81841">
        <ele>250</ele>
        <time>2021-08-14T11:04:05.000Z</time>
      </trkpt>
      <trkpt lat="49.76488" lon="4.81836">
        <ele>250</ele>
        <time>2021-08-14T11:04:06.000Z</time>
      </trkpt>
      <trkpt lat="49.76486" lon="4.81831">
        <ele>251</ele>
        <time>2021-08-14T11:04:07.000Z</time>
      </trkpt>
      <trkpt lat="49.76485" lon="4.81826">
        <ele>251</ele>
        <time>2021-08-14T11:04:08.000Z</time>
      </trkpt>
      <trkpt lat="49.76484" lon="4.8182">
        <ele>251</ele>
        <time>2021-08-14T11:04:09.000Z</time>
      </trkpt>
      <trkpt lat="49.76483" lon="4.81815">
        <ele>251</ele>
        <time>2021-08-14T11:04:10.000Z</time>
      </trkpt>
      <trkpt lat="49.76482" lon="4.8181">
        <ele>251</ele>
        <time>2021-08-14T11:04:11.000Z</time>
      </trkpt>
      <trkpt lat="49.76481" lon="4.81805">
        <ele>251</ele>
        <time>2021-08-14T11:04:12.000Z</time>
      </trkpt>
      <trkpt lat="49.7648" lon="4.818">
        <ele>251</ele>
        <time>2021-08-14T11:04:13.000Z</time>
      </trkpt>
      <trkpt lat="49.76479" lon="4.81795">
        <ele>251</ele>
        <time>2021-08-14T11:04:14.000Z</time>
      </trkpt>
      <trkpt lat="49.76478" lon="4.8179">
        <ele>251</ele>
        <time>2021-08-14T11:04:15.000Z</time>
      </trkpt>
      <trkpt lat="49.76477" lon="4.81786">
        <ele>251</ele>
        <time>2021-08-14T11:04:16.000Z</time>
      </trkpt>
      <trkpt lat="49.76476" lon="4.81782">
        <ele>252</ele>
        <time>2021-08-14T11:04:17.000Z</time>
      </trkpt>
      <trkpt lat="49.76475" lon="4.81778">
        <ele>252</ele>
        <time>2021-08-14T11:04:18.000Z</time>
      </trkpt>
      <trkpt lat="49.76474" lon="4.81774">
        <ele>252</ele>
        <time>2021-08-14T11:04:19.000Z</time>
      </trkpt>
      <trkpt lat="49.76473" lon="4.8177">
        <ele>252</ele>
        <time>2021-08-14T11:04:20.000Z</time>
      </trkpt>
      <trkpt lat="49.76472" lon="4.81766">
        <ele>252</ele>
        <time>2021-08-14T11:04:21.000Z</time>
      </trkpt>
      <trkpt lat="49.76471" lon="4.81763">
        <ele>252</ele>
        <time>2021-08-14T11:04:22.000Z</time>
      </trkpt>
      <trkpt lat="49.7647" lon="4.81759">
        <ele>252</ele>
        <time>2021-08-14T11:04:23.000Z</time>
      </trkpt>
      <trkpt lat="49.76469" lon="4.81756">
        <ele>252</ele>
        <time>2021-08-14T11:04:24.000Z</time>
      </trkpt>
      <trkpt lat="49.76468" lon="4.81752">
        <ele>252</ele>
        <time>2021-08-14T11:04:25.000Z</time>
      </trkpt>
      <trkpt lat="49.76466" lon="4.81749">
        <ele>253</ele>
        <time>2021-08-14T11:04:26.000Z</time>
      </trkpt>
      <trkpt lat="49.76465" lon="4.81745">
        <ele>253</ele>
        <time>2021-08-14T11:04:27.000Z</time>
      </trkpt>
      <trkpt lat="49.76464" lon="4.81741">
        <ele>253</ele>
        <time>2021-08-14T11:04:28.000Z</time>
      </trkpt>
      <trkpt lat="49.76463" lon="4.81736">
        <ele>253</ele>
        <time>2021-08-14T11:04:29.000Z</time>
      </trkpt>
      <trkpt lat="49.76462" lon="4.81732">
        <ele>253</ele>
        <time>2021-08-14T11:04:30.000Z</time>
      </trkpt>
      <trkpt lat="49.76461" lon="4.81728">
        <ele>253</ele>
        <time>2021-08-14T11:04:31.000Z</time>
      </trkpt>
      <trkpt lat="49.7646" lon="4.81723">
        <ele>253</ele>
        <time>2021-08-14T11:04:32.000Z</time>
      </trkpt>
      <trkpt lat="49.76459" lon="4.81718">
        <ele>253</ele>
        <time>2021-08-14T11:04:33.000Z</time>
      </trkpt>
      <trkpt lat="49.76457" lon="4.81714">
        <ele>254</ele>
        <time>2021-08-14T11:04:34.000Z</time>
      </trkpt>
      <trkpt lat="49.76456" lon="4.81709">
        <ele>254</ele>
        <time>2021-08-14T11:04:35.000Z</time>
      </trkpt>
      <trkpt lat="49.76455" lon="4.81704">
        <ele>254</ele>
        <time>2021-08-14T11:04:36.000Z</time>
      </trkpt>
      <trkpt lat="49.76454" lon="4.817">
        <ele>254</ele>
        <time>2021-08-14T11:04:37.000Z</time>
      </trkpt>
      <trkpt lat="49.76453" lon="4.81696">
        <ele>254</ele>
        <time>2021-08-14T11:04:38.000Z</time>
      </trkpt>
      <trkpt lat="49.76452" lon="4.81692">
        <ele>254</ele>
        <time>2021-08-14T11:04:39.000Z</time>
      </trkpt>
      <trkpt lat="49.76451" lon="4.81687">
        <ele>254</ele>
        <time>2021-08-14T11:04:40.000Z</time>
      </trkpt>
      <trkpt lat="49.76449" lon="4.81683">
        <ele>255</ele>
        <time>2021-08-14T11:04:41.000Z</time>
      </trkpt>
      <trkpt lat="49.76448" lon="4.81679">
        <ele>255</ele>
        <time>2021-08-14T11:04:42.000Z</time>
      </trkpt>
      <trkpt lat="49.76447" lon="4.81674">
        <ele>255</ele>
        <time>2021-08-14T11:04:43.000Z</time>
      </trkpt>
      <trkpt lat="49.76446" lon="4.8167">
        <ele>255</ele>
        <time>2021-08-14T11:04:44.000Z</time>
      </trkpt>
      <trkpt lat="49.76445" lon="4.81666">
        <ele>255</ele>
        <time>2021-08-14T11:04:45.000Z</time>
      </trkpt>
      <trkpt lat="49.76444" lon="4.81661">
        <ele>256</ele>
        <time>2021-08-14T11:04:46.000Z</time>
      </trkpt>
      <trkpt lat="49.76443" lon="4.81657">
        <ele>256</ele>
        <time>2021-08-14T11:04:47.000Z</time>
      </trkpt>
      <trkpt lat="49.76442" lon="4.81653">
        <ele>256</ele>
        <time>2021-08-14T11:04:48.000Z</time>
      </trkpt>
      <trkpt lat="49.76441" lon="4.81649">
        <ele>256</ele>
        <time>2021-08-14T11:04:49.000Z</time>
      </trkpt>
      <trkpt lat="49.7644" lon="4.81645">
        <ele>256</ele>
        <time>2021-08-14T11:04:50.000Z</time>
      </trkpt>
      <trkpt lat="49.76439" lon="4.81641">
        <ele>257</ele>
        <time>2021-08-14T11:04:51.000Z</time>
      </trkpt>
      <trkpt lat="49.76439" lon="4.81638">
        <ele>257</ele>
        <time>2021-08-14T11:04:52.000Z</time>
      </trkpt>
      <trkpt lat="49.76437" lon="4.81634">
        <ele>257</ele>
        <time>2021-08-14T11:04:53.000Z</time>
      </trkpt>
      <trkpt lat="49.76437" lon="4.81631">
        <ele>257</ele>
        <time>2021-08-14T11:04:54.000Z</time>
      </trkpt>
      <trkpt lat="49.76436" lon="4.81628">
        <ele>257</ele>
        <time>2021-08-14T11:04:55.000Z</time>
      </trkpt>
      <trkpt lat="49.76435" lon="4.81625">
        <ele>257</ele>
        <time>2021-08-14T11:04:56.000Z</time>
      </trkpt>
      <trkpt lat="49.76434" lon="4.81622">
        <ele>257</ele>
        <time>2021-08-14T11:04:57.000Z</time>
      </trkpt>
      <trkpt lat="49.76434" lon="4.81619">
        <ele>257</ele>
        <time>2021-08-14T11:04:58.000Z</time>
      </trkpt>
      <trkpt lat="49.76433" lon="4.81617">
        <ele>257</ele>
        <time>2021-08-14T11:04:59.000Z</time>
      </trkpt>
      <trkpt lat="49.76432" lon="4.81615">
        <ele>258</ele>
        <time>2021-08-14T11:05:00.000Z</time>
      </trkpt>
      <trkpt lat="49.76432" lon="4.81613">
        <ele>258</ele>
        <time>2021-08-14T11:05:01.000Z</time>
      </trkpt>
      <trkpt lat="49.76431" lon="4.8161">
        <ele>258</ele>
        <time>2021-08-14T11:05:02.000Z</time>
      </trkpt>
      <trkpt lat="49.76431" lon="4.81607">
        <ele>258</ele>
        <time>2021-08-14T11:05:03.000Z</time>
      </trkpt>
      <trkpt lat="49.76431" lon="4.81604">
        <ele>258</ele>
        <time>2021-08-14T11:05:04.000Z</time>
      </trkpt>
      <trkpt lat="49.7643" lon="4.81602">
        <ele>258</ele>
        <time>2021-08-14T11:05:05.000Z</time>
      </trkpt>
      <trkpt lat="49.7643" lon="4.81599">
        <ele>259</ele>
        <time>2021-08-14T11:05:06.000Z</time>
      </trkpt>
      <trkpt lat="49.7643" lon="4.81596">
        <ele>259</ele>
        <time>2021-08-14T11:05:07.000Z</time>
      </trkpt>
      <trkpt lat="49.7643" lon="4.81594">
        <ele>259</ele>
        <time>2021-08-14T11:05:08.000Z</time>
      </trkpt>
      <trkpt lat="49.7643" lon="4.81592">
        <ele>259</ele>
        <time>2021-08-14T11:05:09.000Z</time>
      </trkpt>
      <trkpt lat="49.7643" lon="4.81589">
        <ele>259</ele>
        <time>2021-08-14T11:05:10.000Z</time>
      </trkpt>
      <trkpt lat="49.76429" lon="4.81587">
        <ele>259</ele>
        <time>2021-08-14T11:05:11.000Z</time>
      </trkpt>
      <trkpt lat="49.76429" lon="4.81584">
        <ele>259</ele>
        <time>2021-08-14T11:05:12.000Z</time>
      </trkpt>
      <trkpt lat="49.76428" lon="4.81581">
        <ele>260</ele>
        <time>2021-08-14T11:05:13.000Z</time>
      </trkpt>
      <trkpt lat="49.76427" lon="4.81578">
        <ele>260</ele>
        <time>2021-08-14T11:05:14.000Z</time>
      </trkpt>
      <trkpt lat="49.76427" lon="4.81575">
        <ele>260</ele>
        <time>2021-08-14T11:05:15.000Z</time>
      </trkpt>
      <trkpt lat="49.76426" lon="4.81572">
        <ele>260</ele>
        <time>2021-08-14T11:05:16.000Z</time>
      </trkpt>
      <trkpt lat="49.76425" lon="4.8157">
        <ele>261</ele>
        <time>2021-08-14T11:05:17.000Z</time>
      </trkpt>
      <trkpt lat="49.76424" lon="4.81567">
        <ele>261</ele>
        <time>2021-08-14T11:05:18.000Z</time>
      </trkpt>
      <trkpt lat="49.76423" lon="4.81564">
        <ele>261</ele>
        <time>2021-08-14T11:05:19.000Z</time>
      </trkpt>
      <trkpt lat="49.76422" lon="4.81561">
        <ele>262</ele>
        <time>2021-08-14T11:05:20.000Z</time>
      </trkpt>
      <trkpt lat="49.76421" lon="4.81558">
        <ele>262</ele>
        <time>2021-08-14T11:05:21.000Z</time>
      </trkpt>
      <trkpt lat="49.76419" lon="4.81555">
        <ele>262</ele>
        <time>2021-08-14T11:05:22.000Z</time>
      </trkpt>
      <trkpt lat="49.76418" lon="4.81553">
        <ele>263</ele>
        <time>2021-08-14T11:05:23.000Z</time>
      </trkpt>
      <trkpt lat="49.76417" lon="4.8155">
        <ele>263</ele>
        <time>2021-08-14T11:05:24.000Z</time>
      </trkpt>
      <trkpt lat="49.76416" lon="4.81547">
        <ele>263</ele>
        <time>2021-08-14T11:05:25.000Z</time>
      </trkpt>
      <trkpt lat="49.76414" lon="4.81544">
        <ele>264</ele>
        <time>2021-08-14T11:05:26.000Z</time>
      </trkpt>
      <trkpt lat="49.76413" lon="4.81541">
        <ele>264</ele>
        <time>2021-08-14T11:05:27.000Z</time>
      </trkpt>
      <trkpt lat="49.76411" lon="4.81539">
        <ele>265</ele>
        <time>2021-08-14T11:05:28.000Z</time>
      </trkpt>
      <trkpt lat="49.76409" lon="4.81537">
        <ele>265</ele>
        <time>2021-08-14T11:05:29.000Z</time>
      </trkpt>
      <trkpt lat="49.76408" lon="4.81534">
        <ele>265</ele>
        <time>2021-08-14T11:05:30.000Z</time>
      </trkpt>
      <trkpt lat="49.76406" lon="4.81531">
        <ele>265</ele>
        <time>2021-08-14T11:05:31.000Z</time>
      </trkpt>
      <trkpt lat="49.76405" lon="4.81528">
        <ele>266</ele>
        <time>2021-08-14T11:05:32.000Z</time>
      </trkpt>
      <trkpt lat="49.76403" lon="4.81525">
        <ele>266</ele>
        <time>2021-08-14T11:05:33.000Z</time>
      </trkpt>
      <trkpt lat="49.76402" lon="4.81522">
        <ele>266</ele>
        <time>2021-08-14T11:05:34.000Z</time>
      </trkpt>
      <trkpt lat="49.764" lon="4.81518">
        <ele>266</ele>
        <time>2021-08-14T11:05:35.000Z</time>
      </trkpt>
      <trkpt lat="49.76398" lon="4.81515">
        <ele>267</ele>
        <time>2021-08-14T11:05:36.000Z</time>
      </trkpt>
      <trkpt lat="49.76396" lon="4.81512">
        <ele>267</ele>
        <time>2021-08-14T11:05:37.000Z</time>
      </trkpt>
      <trkpt lat="49.76394" lon="4.81508">
        <ele>267</ele>
        <time>2021-08-14T11:05:38.000Z</time>
      </trkpt>
      <trkpt lat="49.76392" lon="4.81504">
        <ele>267</ele>
        <time>2021-08-14T11:05:39.000Z</time>
      </trkpt>
      <trkpt lat="49.7639" lon="4.815">
        <ele>268</ele>
        <time>2021-08-14T11:05:40.000Z</time>
      </trkpt>
      <trkpt lat="49.76387" lon="4.81497">
        <ele>268</ele>
        <time>2021-08-14T11:05:41.000Z</time>
      </trkpt>
      <trkpt lat="49.76385" lon="4.81493">
        <ele>268</ele>
        <time>2021-08-14T11:05:42.000Z</time>
      </trkpt>
      <trkpt lat="49.76383" lon="4.8149">
        <ele>268</ele>
        <time>2021-08-14T11:05:43.000Z</time>
      </trkpt>
      <trkpt lat="49.7638" lon="4.81486">
        <ele>269</ele>
        <time>2021-08-14T11:05:44.000Z</time>
      </trkpt>
      <trkpt lat="49.76378" lon="4.81483">
        <ele>269</ele>
        <time>2021-08-14T11:05:45.000Z</time>
      </trkpt>
      <trkpt lat="49.76375" lon="4.8148">
        <ele>269</ele>
        <time>2021-08-14T11:05:46.000Z</time>
      </trkpt>
      <trkpt lat="49.76373" lon="4.81478">
        <ele>269</ele>
        <time>2021-08-14T11:05:47.000Z</time>
      </trkpt>
      <trkpt lat="49.7637" lon="4.81476">
        <ele>269</ele>
        <time>2021-08-14T11:05:48.000Z</time>
      </trkpt>
      <trkpt lat="49.76367" lon="4.81474">
        <ele>269</ele>
        <time>2021-08-14T11:05:49.000Z</time>
      </trkpt>
      <trkpt lat="49.76365" lon="4.81472">
        <ele>269</ele>
        <time>2021-08-14T11:05:50.000Z</time>
      </trkpt>
      <trkpt lat="49.76362" lon="4.81471">
        <ele>270</ele>
        <time>2021-08-14T11:05:51.000Z</time>
      </trkpt>
      <trkpt lat="49.76359" lon="4.81469">
        <ele>270</ele>
        <time>2021-08-14T11:05:52.000Z</time>
      </trkpt>
      <trkpt lat="49.76356" lon="4.81468">
        <ele>270</ele>
        <time>2021-08-14T11:05:53.000Z</time>
      </trkpt>
      <trkpt lat="49.76353" lon="4.81467">
        <ele>270</ele>
        <time>2021-08-14T11:05:54.000Z</time>
      </trkpt>
      <trkpt lat="49.7635" lon="4.81466">
        <ele>270</ele>
        <time>2021-08-14T11:05:55.000Z</time>
      </trkpt>
      <trkpt lat="49.76346" lon="4.81465">
        <ele>270</ele>
        <time>2021-08-14T11:05:56.000Z</time>
      </trkpt>
      <trkpt lat="49.76343" lon="4.81465">
        <ele>270</ele>
        <time>2021-08-14T11:05:57.000Z</time>
      </trkpt>
      <trkpt lat="49.7634" lon="4.81464">
        <ele>270</ele>
        <time>2021-08-14T11:05:58.000Z</time>
      </trkpt>
      <trkpt lat="49.76337" lon="4.81463">
        <ele>271</ele>
        <time>2021-08-14T11:05:59.000Z</time>
      </trkpt>
      <trkpt lat="49.76334" lon="4.81462">
        <ele>271</ele>
        <time>2021-08-14T11:06:00.000Z</time>
      </trkpt>
      <trkpt lat="49.7633" lon="4.81462">
        <ele>271</ele>
        <time>2021-08-14T11:06:01.000Z</time>
      </trkpt>
      <trkpt lat="49.76326" lon="4.81461">
        <ele>271</ele>
        <time>2021-08-14T11:06:02.000Z</time>
      </trkpt>
      <trkpt lat="49.76322" lon="4.81461">
        <ele>271</ele>
        <time>2021-08-14T11:06:03.000Z</time>
      </trkpt>
      <trkpt lat="49.76318" lon="4.8146">
        <ele>271</ele>
        <time>2021-08-14T11:06:04.000Z</time>
      </trkpt>
      <trkpt lat="49.76314" lon="4.81459">
        <ele>271</ele>
        <time>2021-08-14T11:06:05.000Z</time>
      </trkpt>
      <trkpt lat="49.7631" lon="4.81458">
        <ele>271</ele>
        <time>2021-08-14T11:06:06.000Z</time>
      </trkpt>
      <trkpt lat="49.76306" lon="4.81458">
        <ele>271</ele>
        <time>2021-08-14T11:06:07.000Z</time>
      </trkpt>
      <trkpt lat="49.76301" lon="4.81458">
        <ele>271</ele>
        <time>2021-08-14T11:06:08.000Z</time>
      </trkpt>
      <trkpt lat="49.76296" lon="4.81458">
        <ele>271</ele>
        <time>2021-08-14T11:06:09.000Z</time>
      </trkpt>
      <trkpt lat="49.7629" lon="4.81457">
        <ele>271</ele>
        <time>2021-08-14T11:06:10.000Z</time>
      </trkpt>
      <trkpt lat="49.76284" lon="4.81457">
        <ele>271</ele>
        <time>2021-08-14T11:06:11.000Z</time>
      </trkpt>
      <trkpt lat="49.76277" lon="4.81456">
        <ele>271</ele>
        <time>2021-08-14T11:06:12.000Z</time>
      </trkpt>
      <trkpt lat="49.7627" lon="4.81455">
        <ele>271</ele>
        <time>2021-08-14T11:06:13.000Z</time>
      </trkpt>
      <trkpt lat="49.76264" lon="4.81454">
        <ele>271</ele>
        <time>2021-08-14T11:06:14.000Z</time>
      </trkpt>
      <trkpt lat="49.76257" lon="4.81453">
        <ele>271</ele>
        <time>2021-08-14T11:06:15.000Z</time>
      </trkpt>
      <trkpt lat="49.7625" lon="4.81452">
        <ele>271</ele>
        <time>2021-08-14T11:06:16.000Z</time>
      </trkpt>
      <trkpt lat="49.76243" lon="4.8145">
        <ele>271</ele>
        <time>2021-08-14T11:06:17.000Z</time>
      </trkpt>
      <trkpt lat="49.76236" lon="4.8145">
        <ele>271</ele>
        <time>2021-08-14T11:06:18.000Z</time>
      </trkpt>
      <trkpt lat="49.76229" lon="4.8145">
        <ele>270</ele>
        <time>2021-08-14T11:06:19.000Z</time>
      </trkpt>
      <trkpt lat="49.76222" lon="4.81451">
        <ele>270</ele>
        <time>2021-08-14T11:06:20.000Z</time>
      </trkpt>
      <trkpt lat="49.76215" lon="4.81451">
        <ele>270</ele>
        <time>2021-08-14T11:06:21.000Z</time>
      </trkpt>
      <trkpt lat="49.76208" lon="4.81452">
        <ele>270</ele>
        <time>2021-08-14T11:06:22.000Z</time>
      </trkpt>
      <trkpt lat="49.76201" lon="4.81452">
        <ele>270</ele>
        <time>2021-08-14T11:06:23.000Z</time>
      </trkpt>
      <trkpt lat="49.76194" lon="4.81451">
        <ele>270</ele>
        <time>2021-08-14T11:06:24.000Z</time>
      </trkpt>
      <trkpt lat="49.76188" lon="4.8145">
        <ele>270</ele>
        <time>2021-08-14T11:06:25.000Z</time>
      </trkpt>
      <trkpt lat="49.76181" lon="4.8145">
        <ele>270</ele>
        <time>2021-08-14T11:06:26.000Z</time>
      </trkpt>
      <trkpt lat="49.76175" lon="4.81448">
        <ele>270</ele>
        <time>2021-08-14T11:06:27.000Z</time>
      </trkpt>
      <trkpt lat="49.76168" lon="4.81446">
        <ele>270</ele>
        <time>2021-08-14T11:06:28.000Z</time>
      </trkpt>
      <trkpt lat="49.76161" lon="4.81445">
        <ele>270</ele>
        <time>2021-08-14T11:06:29.000Z</time>
      </trkpt>
      <trkpt lat="49.76155" lon="4.81444">
        <ele>269</ele>
        <time>2021-08-14T11:06:30.000Z</time>
      </trkpt>
      <trkpt lat="49.76148" lon="4.81443">
        <ele>269</ele>
        <time>2021-08-14T11:06:31.000Z</time>
      </trkpt>
      <trkpt lat="49.76141" lon="4.81443">
        <ele>269</ele>
        <time>2021-08-14T11:06:32.000Z</time>
      </trkpt>
      <trkpt lat="49.76134" lon="4.81442">
        <ele>269</ele>
        <time>2021-08-14T11:06:33.000Z</time>
      </trkpt>
      <trkpt lat="49.76127" lon="4.81441">
        <ele>269</ele>
        <time>2021-08-14T11:06:34.000Z</time>
      </trkpt>
      <trkpt lat="49.76121" lon="4.8144">
        <ele>269</ele>
        <time>2021-08-14T11:06:35.000Z</time>
      </trkpt>
      <trkpt lat="49.76114" lon="4.81438">
        <ele>269</ele>
        <time>2021-08-14T11:06:36.000Z</time>
      </trkpt>
      <trkpt lat="49.76107" lon="4.81435">
        <ele>269</ele>
        <time>2021-08-14T11:06:37.000Z</time>
      </trkpt>
      <trkpt lat="49.76101" lon="4.81431">
        <ele>269</ele>
        <time>2021-08-14T11:06:38.000Z</time>
      </trkpt>
      <trkpt lat="49.76094" lon="4.81428">
        <ele>269</ele>
        <time>2021-08-14T11:06:39.000Z</time>
      </trkpt>
      <trkpt lat="49.76088" lon="4.81423">
        <ele>268</ele>
        <time>2021-08-14T11:06:40.000Z</time>
      </trkpt>
      <trkpt lat="49.76081" lon="4.8142">
        <ele>268</ele>
        <time>2021-08-14T11:06:41.000Z</time>
      </trkpt>
      <trkpt lat="49.76076" lon="4.81417">
        <ele>268</ele>
        <time>2021-08-14T11:06:42.000Z</time>
      </trkpt>
      <trkpt lat="49.7607" lon="4.81413">
        <ele>268</ele>
        <time>2021-08-14T11:06:43.000Z</time>
      </trkpt>
      <trkpt lat="49.76065" lon="4.8141">
        <ele>268</ele>
        <time>2021-08-14T11:06:44.000Z</time>
      </trkpt>
      <trkpt lat="49.76061" lon="4.81406">
        <ele>268</ele>
        <time>2021-08-14T11:06:45.000Z</time>
      </trkpt>
      <trkpt lat="49.76056" lon="4.81403">
        <ele>267</ele>
        <time>2021-08-14T11:06:46.000Z</time>
      </trkpt>
      <trkpt lat="49.76051" lon="4.81399">
        <ele>267</ele>
        <time>2021-08-14T11:06:47.000Z</time>
      </trkpt>
      <trkpt lat="49.76047" lon="4.81396">
        <ele>267</ele>
        <time>2021-08-14T11:06:48.000Z</time>
      </trkpt>
      <trkpt lat="49.76042" lon="4.81392">
        <ele>267</ele>
        <time>2021-08-14T11:06:49.000Z</time>
      </trkpt>
      <trkpt lat="49.76037" lon="4.81389">
        <ele>266</ele>
        <time>2021-08-14T11:06:50.000Z</time>
      </trkpt>
      <trkpt lat="49.76031" lon="4.81384">
        <ele>266</ele>
        <time>2021-08-14T11:06:51.000Z</time>
      </trkpt>
      <trkpt lat="49.76026" lon="4.81381">
        <ele>266</ele>
        <time>2021-08-14T11:06:52.000Z</time>
      </trkpt>
      <trkpt lat="49.76021" lon="4.81377">
        <ele>266</ele>
        <time>2021-08-14T11:06:53.000Z</time>
      </trkpt>
      <trkpt lat="49.76015" lon="4.81373">
        <ele>265</ele>
        <time>2021-08-14T11:06:54.000Z</time>
      </trkpt>
      <trkpt lat="49.7601" lon="4.81369">
        <ele>265</ele>
        <time>2021-08-14T11:06:55.000Z</time>
      </trkpt>
      <trkpt lat="49.76005" lon="4.81366">
        <ele>265</ele>
        <time>2021-08-14T11:06:56.000Z</time>
      </trkpt>
      <trkpt lat="49.75999" lon="4.81362">
        <ele>265</ele>
        <time>2021-08-14T11:06:57.000Z</time>
      </trkpt>
      <trkpt lat="49.75993" lon="4.81358">
        <ele>265</ele>
        <time>2021-08-14T11:06:58.000Z</time>
      </trkpt>
      <trkpt lat="49.75987" lon="4.81355">
        <ele>265</ele>
        <time>2021-08-14T11:06:59.000Z</time>
      </trkpt>
      <trkpt lat="49.75982" lon="4.81352">
        <ele>264</ele>
        <time>2021-08-14T11:07:00.000Z</time>
      </trkpt>
      <trkpt lat="49.75976" lon="4.8135">
        <ele>264</ele>
        <time>2021-08-14T11:07:01.000Z</time>
      </trkpt>
      <trkpt lat="49.7597" lon="4.81347">
        <ele>264</ele>
        <time>2021-08-14T11:07:02.000Z</time>
      </trkpt>
      <trkpt lat="49.75964" lon="4.81345">
        <ele>264</ele>
        <time>2021-08-14T11:07:03.000Z</time>
      </trkpt>
      <trkpt lat="49.75958" lon="4.81343">
        <ele>264</ele>
        <time>2021-08-14T11:07:04.000Z</time>
      </trkpt>
      <trkpt lat="49.75952" lon="4.81341">
        <ele>265</ele>
        <time>2021-08-14T11:07:05.000Z</time>
      </trkpt>
      <trkpt lat="49.75947" lon="4.8134">
        <ele>265</ele>
        <time>2021-08-14T11:07:06.000Z</time>
      </trkpt>
      <trkpt lat="49.75941" lon="4.81337">
        <ele>265</ele>
        <time>2021-08-14T11:07:07.000Z</time>
      </trkpt>
      <trkpt lat="49.75935" lon="4.81335">
        <ele>265</ele>
        <time>2021-08-14T11:07:08.000Z</time>
      </trkpt>
      <trkpt lat="49.75929" lon="4.81334">
        <ele>265</ele>
        <time>2021-08-14T11:07:09.000Z</time>
      </trkpt>
      <trkpt lat="49.75923" lon="4.81333">
        <ele>265</ele>
        <time>2021-08-14T11:07:10.000Z</time>
      </trkpt>
      <trkpt lat="49.75917" lon="4.81333">
        <ele>265</ele>
        <time>2021-08-14T11:07:11.000Z</time>
      </trkpt>
      <trkpt lat="49.75911" lon="4.81334">
        <ele>265</ele>
        <time>2021-08-14T11:07:12.000Z</time>
      </trkpt>
      <trkpt lat="49.75904" lon="4.81336">
        <ele>264</ele>
        <time>2021-08-14T11:07:13.000Z</time>
      </trkpt>
      <trkpt lat="49.75898" lon="4.81339">
        <ele>264</ele>
        <time>2021-08-14T11:07:14.000Z</time>
      </trkpt>
      <trkpt lat="49.75892" lon="4.81341">
        <ele>264</ele>
        <time>2021-08-14T11:07:15.000Z</time>
      </trkpt>
      <trkpt lat="49.75885" lon="4.81344">
        <ele>264</ele>
        <time>2021-08-14T11:07:16.000Z</time>
      </trkpt>
      <trkpt lat="49.75878" lon="4.81347">
        <ele>264</ele>
        <time>2021-08-14T11:07:17.000Z</time>
      </trkpt>
      <trkpt lat="49.75871" lon="4.8135">
        <ele>264</ele>
        <time>2021-08-14T11:07:18.000Z</time>
      </trkpt>
      <trkpt lat="49.75864" lon="4.81353">
        <ele>264</ele>
        <time>2021-08-14T11:07:19.000Z</time>
      </trkpt>
      <trkpt lat="49.75857" lon="4.81357">
        <ele>263</ele>
        <time>2021-08-14T11:07:20.000Z</time>
      </trkpt>
      <trkpt lat="49.75851" lon="4.81361">
        <ele>263</ele>
        <time>2021-08-14T11:07:21.000Z</time>
      </trkpt>
      <trkpt lat="49.75844" lon="4.81366">
        <ele>263</ele>
        <time>2021-08-14T11:07:22.000Z</time>
      </trkpt>
      <trkpt lat="49.75838" lon="4.81372">
        <ele>262</ele>
        <time>2021-08-14T11:07:23.000Z</time>
      </trkpt>
      <trkpt lat="49.75833" lon="4.81379">
        <ele>262</ele>
        <time>2021-08-14T11:07:24.000Z</time>
      </trkpt>
      <trkpt lat="49.75827" lon="4.81386">
        <ele>262</ele>
        <time>2021-08-14T11:07:25.000Z</time>
      </trkpt>
      <trkpt lat="49.75822" lon="4.81393">
        <ele>261</ele>
        <time>2021-08-14T11:07:26.000Z</time>
      </trkpt>
      <trkpt lat="49.75816" lon="4.814">
        <ele>261</ele>
        <time>2021-08-14T11:07:27.000Z</time>
      </trkpt>
      <trkpt lat="49.75811" lon="4.81407">
        <ele>260</ele>
        <time>2021-08-14T11:07:28.000Z</time>
      </trkpt>
      <trkpt lat="49.75805" lon="4.81413">
        <ele>260</ele>
        <time>2021-08-14T11:07:29.000Z</time>
      </trkpt>
      <trkpt lat="49.75799" lon="4.8142">
        <ele>260</ele>
        <time>2021-08-14T11:07:30.000Z</time>
      </trkpt>
      <trkpt lat="49.75793" lon="4.81425">
        <ele>259</ele>
        <time>2021-08-14T11:07:31.000Z</time>
      </trkpt>
      <trkpt lat="49.75787" lon="4.81429">
        <ele>259</ele>
        <time>2021-08-14T11:07:32.000Z</time>
      </trkpt>
      <trkpt lat="49.75781" lon="4.81434">
        <ele>259</ele>
        <time>2021-08-14T11:07:33.000Z</time>
      </trkpt>
      <trkpt lat="49.75774" lon="4.81439">
        <ele>258</ele>
        <time>2021-08-14T11:07:34.000Z</time>
      </trkpt>
      <trkpt lat="49.75768" lon="4.81444">
        <ele>258</ele>
        <time>2021-08-14T11:07:35.000Z</time>
      </trkpt>
      <trkpt lat="49.75761" lon="4.81448">
        <ele>258</ele>
        <time>2021-08-14T11:07:36.000Z</time>
      </trkpt>
      <trkpt lat="49.75754" lon="4.81453">
        <ele>257</ele>
        <time>2021-08-14T11:07:37.000Z</time>
      </trkpt>
      <trkpt lat="49.75746" lon="4.81457">
        <ele>257</ele>
        <time>2021-08-14T11:07:38.000Z</time>
      </trkpt>
      <trkpt lat="49.75739" lon="4.8146">
        <ele>256</ele>
        <time>2021-08-14T11:07:39.000Z</time>
      </trkpt>
      <trkpt lat="49.75733" lon="4.81462">
        <ele>256</ele>
        <time>2021-08-14T11:07:40.000Z</time>
      </trkpt>
      <trkpt lat="49.75727" lon="4.81465">
        <ele>255</ele>
        <time>2021-08-14T11:07:41.000Z</time>
      </trkpt>
      <trkpt lat="49.7572" lon="4.81467">
        <ele>255</ele>
        <time>2021-08-14T11:07:42.000Z</time>
      </trkpt>
      <trkpt lat="49.75714" lon="4.81469">
        <ele>254</ele>
        <time>2021-08-14T11:07:43.000Z</time>
      </trkpt>
      <trkpt lat="49.75707" lon="4.81471">
        <ele>254</ele>
        <time>2021-08-14T11:07:44.000Z</time>
      </trkpt>
      <trkpt lat="49.75701" lon="4.81474">
        <ele>253</ele>
        <time>2021-08-14T11:07:45.000Z</time>
      </trkpt>
      <trkpt lat="49.75695" lon="4.81476">
        <ele>253</ele>
        <time>2021-08-14T11:07:46.000Z</time>
      </trkpt>
      <trkpt lat="49.75689" lon="4.81479">
        <ele>252</ele>
        <time>2021-08-14T11:07:47.000Z</time>
      </trkpt>
      <trkpt lat="49.75682" lon="4.81481">
        <ele>252</ele>
        <time>2021-08-14T11:07:48.000Z</time>
      </trkpt>
      <trkpt lat="49.75675" lon="4.81483">
        <ele>251</ele>
        <time>2021-08-14T11:07:49.000Z</time>
      </trkpt>
      <trkpt lat="49.75668" lon="4.81485">
        <ele>251</ele>
        <time>2021-08-14T11:07:50.000Z</time>
      </trkpt>
      <trkpt lat="49.75662" lon="4.81487">
        <ele>250</ele>
        <time>2021-08-14T11:07:51.000Z</time>
      </trkpt>
      <trkpt lat="49.75655" lon="4.8149">
        <ele>249</ele>
        <time>2021-08-14T11:07:52.000Z</time>
      </trkpt>
      <trkpt lat="49.75648" lon="4.81492">
        <ele>249</ele>
        <time>2021-08-14T11:07:53.000Z</time>
      </trkpt>
      <trkpt lat="49.75641" lon="4.81495">
        <ele>248</ele>
        <time>2021-08-14T11:07:54.000Z</time>
      </trkpt>
      <trkpt lat="49.75635" lon="4.81498">
        <ele>248</ele>
        <time>2021-08-14T11:07:55.000Z</time>
      </trkpt>
      <trkpt lat="49.75628" lon="4.81501">
        <ele>247</ele>
        <time>2021-08-14T11:07:56.000Z</time>
      </trkpt>
      <trkpt lat="49.75623" lon="4.81504">
        <ele>247</ele>
        <time>2021-08-14T11:07:57.000Z</time>
      </trkpt>
      <trkpt lat="49.75617" lon="4.81509">
        <ele>246</ele>
        <time>2021-08-14T11:07:58.000Z</time>
      </trkpt>
      <trkpt lat="49.75611" lon="4.81513">
        <ele>246</ele>
        <time>2021-08-14T11:07:59.000Z</time>
      </trkpt>
      <trkpt lat="49.75606" lon="4.81518">
        <ele>245</ele>
        <time>2021-08-14T11:08:00.000Z</time>
      </trkpt>
      <trkpt lat="49.756" lon="4.81523">
        <ele>244</ele>
        <time>2021-08-14T11:08:01.000Z</time>
      </trkpt>
      <trkpt lat="49.75594" lon="4.81529">
        <ele>244</ele>
        <time>2021-08-14T11:08:02.000Z</time>
      </trkpt>
      <trkpt lat="49.75588" lon="4.81535">
        <ele>243</ele>
        <time>2021-08-14T11:08:03.000Z</time>
      </trkpt>
      <trkpt lat="49.75582" lon="4.81541">
        <ele>243</ele>
        <time>2021-08-14T11:08:04.000Z</time>
      </trkpt>
      <trkpt lat="49.75577" lon="4.81547">
        <ele>242</ele>
        <time>2021-08-14T11:08:05.000Z</time>
      </trkpt>
      <trkpt lat="49.75571" lon="4.81554">
        <ele>241</ele>
        <time>2021-08-14T11:08:06.000Z</time>
      </trkpt>
      <trkpt lat="49.75566" lon="4.81561">
        <ele>241</ele>
        <time>2021-08-14T11:08:07.000Z</time>
      </trkpt>
      <trkpt lat="49.7556" lon="4.81569">
        <ele>240</ele>
        <time>2021-08-14T11:08:08.000Z</time>
      </trkpt>
      <trkpt lat="49.75555" lon="4.81576">
        <ele>240</ele>
        <time>2021-08-14T11:08:09.000Z</time>
      </trkpt>
      <trkpt lat="49.75549" lon="4.81584">
        <ele>239</ele>
        <time>2021-08-14T11:08:10.000Z</time>
      </trkpt>
      <trkpt lat="49.75545" lon="4.81593">
        <ele>239</ele>
        <time>2021-08-14T11:08:11.000Z</time>
      </trkpt>
      <trkpt lat="49.7554" lon="4.81601">
        <ele>238</ele>
        <time>2021-08-14T11:08:12.000Z</time>
      </trkpt>
      <trkpt lat="49.75535" lon="4.81609">
        <ele>238</ele>
        <time>2021-08-14T11:08:13.000Z</time>
      </trkpt>
      <trkpt lat="49.75529" lon="4.81616">
        <ele>238</ele>
        <time>2021-08-14T11:08:14.000Z</time>
      </trkpt>
      <trkpt lat="49.75522" lon="4.81622">
        <ele>237</ele>
        <time>2021-08-14T11:08:15.000Z</time>
      </trkpt>
      <trkpt lat="49.75515" lon="4.81628">
        <ele>237</ele>
        <time>2021-08-14T11:08:16.000Z</time>
      </trkpt>
      <trkpt lat="49.75509" lon="4.81633">
        <ele>236</ele>
        <time>2021-08-14T11:08:17.000Z</time>
      </trkpt>
      <trkpt lat="49.75502" lon="4.8164">
        <ele>236</ele>
        <time>2021-08-14T11:08:18.000Z</time>
      </trkpt>
      <trkpt lat="49.75496" lon="4.81645">
        <ele>236</ele>
        <time>2021-08-14T11:08:19.000Z</time>
      </trkpt>
      <trkpt lat="49.75489" lon="4.8165">
        <ele>235</ele>
        <time>2021-08-14T11:08:20.000Z</time>
      </trkpt>
      <trkpt lat="49.75481" lon="4.81655">
        <ele>235</ele>
        <time>2021-08-14T11:08:21.000Z</time>
      </trkpt>
      <trkpt lat="49.75474" lon="4.81658">
        <ele>234</ele>
        <time>2021-08-14T11:08:22.000Z</time>
      </trkpt>
      <trkpt lat="49.75466" lon="4.81662">
        <ele>234</ele>
        <time>2021-08-14T11:08:23.000Z</time>
      </trkpt>
      <trkpt lat="49.75457" lon="4.81666">
        <ele>233</ele>
        <time>2021-08-14T11:08:24.000Z</time>
      </trkpt>
      <trkpt lat="49.75449" lon="4.81672">
        <ele>232</ele>
        <time>2021-08-14T11:08:25.000Z</time>
      </trkpt>
      <trkpt lat="49.75441" lon="4.81677">
        <ele>232</ele>
        <time>2021-08-14T11:08:26.000Z</time>
      </trkpt>
      <trkpt lat="49.75432" lon="4.81682">
        <ele>231</ele>
        <time>2021-08-14T11:08:27.000Z</time>
      </trkpt>
      <trkpt lat="49.75424" lon="4.81687">
        <ele>230</ele>
        <time>2021-08-14T11:08:28.000Z</time>
      </trkpt>
      <trkpt lat="49.75417" lon="4.81692">
        <ele>230</ele>
        <time>2021-08-14T11:08:29.000Z</time>
      </trkpt>
      <trkpt lat="49.75409" lon="4.81698">
        <ele>229</ele>
        <time>2021-08-14T11:08:30.000Z</time>
      </trkpt>
      <trkpt lat="49.75401" lon="4.81704">
        <ele>228</ele>
        <time>2021-08-14T11:08:31.000Z</time>
      </trkpt>
      <trkpt lat="49.75394" lon="4.8171">
        <ele>228</ele>
        <time>2021-08-14T11:08:32.000Z</time>
      </trkpt>
      <trkpt lat="49.75386" lon="4.81717">
        <ele>227</ele>
        <time>2021-08-14T11:08:33.000Z</time>
      </trkpt>
      <trkpt lat="49.7538" lon="4.81723">
        <ele>226</ele>
        <time>2021-08-14T11:08:34.000Z</time>
      </trkpt>
      <trkpt lat="49.75374" lon="4.81729">
        <ele>226</ele>
        <time>2021-08-14T11:08:35.000Z</time>
      </trkpt>
      <trkpt lat="49.75368" lon="4.81735">
        <ele>225</ele>
        <time>2021-08-14T11:08:36.000Z</time>
      </trkpt>
      <trkpt lat="49.75362" lon="4.81741">
        <ele>224</ele>
        <time>2021-08-14T11:08:37.000Z</time>
      </trkpt>
      <trkpt lat="49.75356" lon="4.81746">
        <ele>224</ele>
        <time>2021-08-14T11:08:38.000Z</time>
      </trkpt>
      <trkpt lat="49.75351" lon="4.8175">
        <ele>223</ele>
        <time>2021-08-14T11:08:39.000Z</time>
      </trkpt>
      <trkpt lat="49.75345" lon="4.81752">
        <ele>222</ele>
        <time>2021-08-14T11:08:40.000Z</time>
      </trkpt>
      <trkpt lat="49.75339" lon="4.81753">
        <ele>222</ele>
        <time>2021-08-14T11:08:41.000Z</time>
      </trkpt>
      <trkpt lat="49.75333" lon="4.81754">
        <ele>221</ele>
        <time>2021-08-14T11:08:42.000Z</time>
      </trkpt>
      <trkpt lat="49.75328" lon="4.81755">
        <ele>220</ele>
        <time>2021-08-14T11:08:43.000Z</time>
      </trkpt>
      <trkpt lat="49.75321" lon="4.81756">
        <ele>220</ele>
        <time>2021-08-14T11:08:44.000Z</time>
      </trkpt>
      <trkpt lat="49.75315" lon="4.81757">
        <ele>220</ele>
        <time>2021-08-14T11:08:45.000Z</time>
      </trkpt>
      <trkpt lat="49.75308" lon="4.81758">
        <ele>219</ele>
        <time>2021-08-14T11:08:46.000Z</time>
      </trkpt>
      <trkpt lat="49.75301" lon="4.81757">
        <ele>219</ele>
        <time>2021-08-14T11:08:47.000Z</time>
      </trkpt>
      <trkpt lat="49.75293" lon="4.81757">
        <ele>218</ele>
        <time>2021-08-14T11:08:48.000Z</time>
      </trkpt>
      <trkpt lat="49.75286" lon="4.81757">
        <ele>218</ele>
        <time>2021-08-14T11:08:49.000Z</time>
      </trkpt>
      <trkpt lat="49.75278" lon="4.81756">
        <ele>217</ele>
        <time>2021-08-14T11:08:50.000Z</time>
      </trkpt>
      <trkpt lat="49.7527" lon="4.81754">
        <ele>217</ele>
        <time>2021-08-14T11:08:51.000Z</time>
      </trkpt>
      <trkpt lat="49.75262" lon="4.8175">
        <ele>217</ele>
        <time>2021-08-14T11:08:52.000Z</time>
      </trkpt>
      <trkpt lat="49.75255" lon="4.81746">
        <ele>216</ele>
        <time>2021-08-14T11:08:53.000Z</time>
      </trkpt>
      <trkpt lat="49.75248" lon="4.81741">
        <ele>216</ele>
        <time>2021-08-14T11:08:54.000Z</time>
      </trkpt>
      <trkpt lat="49.75241" lon="4.81735">
        <ele>215</ele>
        <time>2021-08-14T11:08:55.000Z</time>
      </trkpt>
      <trkpt lat="49.75234" lon="4.8173">
        <ele>215</ele>
        <time>2021-08-14T11:08:56.000Z</time>
      </trkpt>
      <trkpt lat="49.75227" lon="4.81724">
        <ele>214</ele>
        <time>2021-08-14T11:08:57.000Z</time>
      </trkpt>
      <trkpt lat="49.7522" lon="4.81719">
        <ele>214</ele>
        <time>2021-08-14T11:08:58.000Z</time>
      </trkpt>
      <trkpt lat="49.75213" lon="4.81713">
        <ele>213</ele>
        <time>2021-08-14T11:08:59.000Z</time>
      </trkpt>
      <trkpt lat="49.75207" lon="4.81707">
        <ele>213</ele>
        <time>2021-08-14T11:09:00.000Z</time>
      </trkpt>
      <trkpt lat="49.75201" lon="4.81703">
        <ele>212</ele>
        <time>2021-08-14T11:09:01.000Z</time>
      </trkpt>
      <trkpt lat="49.75195" lon="4.81701">
        <ele>212</ele>
        <time>2021-08-14T11:09:02.000Z</time>
      </trkpt>
      <trkpt lat="49.7519" lon="4.81701">
        <ele>212</ele>
        <time>2021-08-14T11:09:03.000Z</time>
      </trkpt>
      <trkpt lat="49.75183" lon="4.81704">
        <ele>211</ele>
        <time>2021-08-14T11:09:04.000Z</time>
      </trkpt>
      <trkpt lat="49.75176" lon="4.81709">
        <ele>211</ele>
        <time>2021-08-14T11:09:05.000Z</time>
      </trkpt>
      <trkpt lat="49.75169" lon="4.81715">
        <ele>211</ele>
        <time>2021-08-14T11:09:06.000Z</time>
      </trkpt>
      <trkpt lat="49.75162" lon="4.81722">
        <ele>210</ele>
        <time>2021-08-14T11:09:07.000Z</time>
      </trkpt>
      <trkpt lat="49.75155" lon="4.81729">
        <ele>209</ele>
        <time>2021-08-14T11:09:08.000Z</time>
      </trkpt>
      <trkpt lat="49.75149" lon="4.81735">
        <ele>209</ele>
        <time>2021-08-14T11:09:09.000Z</time>
      </trkpt>
      <trkpt lat="49.75145" lon="4.8174">
        <ele>208</ele>
        <time>2021-08-14T11:09:10.000Z</time>
      </trkpt>
      <trkpt lat="49.75141" lon="4.81745">
        <ele>208</ele>
        <time>2021-08-14T11:09:11.000Z</time>
      </trkpt>
      <trkpt lat="49.75139" lon="4.81751">
        <ele>207</ele>
        <time>2021-08-14T11:09:12.000Z</time>
      </trkpt>
      <trkpt lat="49.75139" lon="4.81757">
        <ele>206</ele>
        <time>2021-08-14T11:09:13.000Z</time>
      </trkpt>
      <trkpt lat="49.7514" lon="4.81764">
        <ele>206</ele>
        <time>2021-08-14T11:09:14.000Z</time>
      </trkpt>
      <trkpt lat="49.75143" lon="4.8177">
        <ele>205</ele>
        <time>2021-08-14T11:09:15.000Z</time>
      </trkpt>
      <trkpt lat="49.75146" lon="4.81775">
        <ele>205</ele>
        <time>2021-08-14T11:09:16.000Z</time>
      </trkpt>
      <trkpt lat="49.75149" lon="4.8178">
        <ele>205</ele>
        <time>2021-08-14T11:09:17.000Z</time>
      </trkpt>
      <trkpt lat="49.75152" lon="4.81786">
        <ele>204</ele>
        <time>2021-08-14T11:09:18.000Z</time>
      </trkpt>
      <trkpt lat="49.75155" lon="4.81791">
        <ele>204</ele>
        <time>2021-08-14T11:09:19.000Z</time>
      </trkpt>
      <trkpt lat="49.75158" lon="4.81796">
        <ele>204</ele>
        <time>2021-08-14T11:09:20.000Z</time>
      </trkpt>
      <trkpt lat="49.7516" lon="4.81801">
        <ele>203</ele>
        <time>2021-08-14T11:09:21.000Z</time>
      </trkpt>
      <trkpt lat="49.75163" lon="4.81805">
        <ele>203</ele>
        <time>2021-08-14T11:09:22.000Z</time>
      </trkpt>
      <trkpt lat="49.75166" lon="4.8181">
        <ele>203</ele>
        <time>2021-08-14T11:09:23.000Z</time>
      </trkpt>
      <trkpt lat="49.75169" lon="4.81815">
        <ele>202</ele>
        <time>2021-08-14T11:09:24.000Z</time>
      </trkpt>
      <trkpt lat="49.75172" lon="4.81819">
        <ele>202</ele>
        <time>2021-08-14T11:09:25.000Z</time>
      </trkpt>
      <trkpt lat="49.75176" lon="4.81825">
        <ele>202</ele>
        <time>2021-08-14T11:09:26.000Z</time>
      </trkpt>
      <trkpt lat="49.75179" lon="4.8183">
        <ele>201</ele>
        <time>2021-08-14T11:09:27.000Z</time>
      </trkpt>
      <trkpt lat="49.75182" lon="4.81837">
        <ele>201</ele>
        <time>2021-08-14T11:09:28.000Z</time>
      </trkpt>
      <trkpt lat="49.75186" lon="4.81843">
        <ele>201</ele>
        <time>2021-08-14T11:09:29.000Z</time>
      </trkpt>
      <trkpt lat="49.75189" lon="4.81848">
        <ele>201</ele>
        <time>2021-08-14T11:09:30.000Z</time>
      </trkpt>
      <trkpt lat="49.75193" lon="4.81854">
        <ele>201</ele>
        <time>2021-08-14T11:09:31.000Z</time>
      </trkpt>
      <trkpt lat="49.75196" lon="4.81859">
        <ele>200</ele>
        <time>2021-08-14T11:09:32.000Z</time>
      </trkpt>
      <trkpt lat="49.752" lon="4.81865">
        <ele>200</ele>
        <time>2021-08-14T11:09:33.000Z</time>
      </trkpt>
      <trkpt lat="49.75204" lon="4.8187">
        <ele>200</ele>
        <time>2021-08-14T11:09:34.000Z</time>
      </trkpt>
      <trkpt lat="49.75207" lon="4.81875">
        <ele>200</ele>
        <time>2021-08-14T11:09:35.000Z</time>
      </trkpt>
      <trkpt lat="49.75211" lon="4.81881">
        <ele>200</ele>
        <time>2021-08-14T11:09:36.000Z</time>
      </trkpt>
      <trkpt lat="49.75215" lon="4.81886">
        <ele>199</ele>
        <time>2021-08-14T11:09:37.000Z</time>
      </trkpt>
      <trkpt lat="49.75219" lon="4.81891">
        <ele>199</ele>
        <time>2021-08-14T11:09:38.000Z</time>
      </trkpt>
      <trkpt lat="49.75224" lon="4.81896">
        <ele>199</ele>
        <time>2021-08-14T11:09:39.000Z</time>
      </trkpt>
      <trkpt lat="49.75228" lon="4.81902">
        <ele>199</ele>
        <time>2021-08-14T11:09:40.000Z</time>
      </trkpt>
      <trkpt lat="49.75232" lon="4.81907">
        <ele>199</ele>
        <time>2021-08-14T11:09:41.000Z</time>
      </trkpt>
      <trkpt lat="49.75237" lon="4.81912">
        <ele>198</ele>
        <time>2021-08-14T11:09:42.000Z</time>
      </trkpt>
      <trkpt lat="49.75242" lon="4.81917">
        <ele>198</ele>
        <time>2021-08-14T11:09:43.000Z</time>
      </trkpt>
      <trkpt lat="49.75247" lon="4.81923">
        <ele>198</ele>
        <time>2021-08-14T11:09:44.000Z</time>
      </trkpt>
      <trkpt lat="49.75251" lon="4.81931">
        <ele>197</ele>
        <time>2021-08-14T11:09:45.000Z</time>
      </trkpt>
      <trkpt lat="49.75256" lon="4.81938">
        <ele>197</ele>
        <time>2021-08-14T11:09:46.000Z</time>
      </trkpt>
      <trkpt lat="49.75261" lon="4.81944">
        <ele>197</ele>
        <time>2021-08-14T11:09:47.000Z</time>
      </trkpt>
      <trkpt lat="49.75266" lon="4.81951">
        <ele>196</ele>
        <time>2021-08-14T11:09:48.000Z</time>
      </trkpt>
      <trkpt lat="49.75273" lon="4.81956">
        <ele>196</ele>
        <time>2021-08-14T11:09:49.000Z</time>
      </trkpt>
      <trkpt lat="49.75279" lon="4.81962">
        <ele>196</ele>
        <time>2021-08-14T11:09:50.000Z</time>
      </trkpt>
      <trkpt lat="49.75286" lon="4.81967">
        <ele>196</ele>
        <time>2021-08-14T11:09:51.000Z</time>
      </trkpt>
      <trkpt lat="49.75292" lon="4.81973">
        <ele>195</ele>
        <time>2021-08-14T11:09:52.000Z</time>
      </trkpt>
      <trkpt lat="49.75299" lon="4.81978">
        <ele>195</ele>
        <time>2021-08-14T11:09:53.000Z</time>
      </trkpt>
      <trkpt lat="49.75305" lon="4.81982">
        <ele>195</ele>
        <time>2021-08-14T11:09:54.000Z</time>
      </trkpt>
      <trkpt lat="49.75312" lon="4.81986">
        <ele>194</ele>
        <time>2021-08-14T11:09:55.000Z</time>
      </trkpt>
      <trkpt lat="49.75319" lon="4.81991">
        <ele>194</ele>
        <time>2021-08-14T11:09:56.000Z</time>
      </trkpt>
      <trkpt lat="49.75325" lon="4.81995">
        <ele>194</ele>
        <time>2021-08-14T11:09:57.000Z</time>
      </trkpt>
      <trkpt lat="49.75332" lon="4.81999">
        <ele>193</ele>
        <time>2021-08-14T11:09:58.000Z</time>
      </trkpt>
      <trkpt lat="49.75338" lon="4.82003">
        <ele>193</ele>
        <time>2021-08-14T11:09:59.000Z</time>
      </trkpt>
      <trkpt lat="49.75345" lon="4.82007">
        <ele>193</ele>
        <time>2021-08-14T11:10:00.000Z</time>
      </trkpt>
      <trkpt lat="49.75351" lon="4.82011">
        <ele>193</ele>
        <time>2021-08-14T11:10:01.000Z</time>
      </trkpt>
      <trkpt lat="49.75357" lon="4.82015">
        <ele>192</ele>
        <time>2021-08-14T11:10:02.000Z</time>
      </trkpt>
      <trkpt lat="49.75363" lon="4.82019">
        <ele>192</ele>
        <time>2021-08-14T11:10:03.000Z</time>
      </trkpt>
      <trkpt lat="49.7537" lon="4.82022">
        <ele>192</ele>
        <time>2021-08-14T11:10:04.000Z</time>
      </trkpt>
      <trkpt lat="49.75376" lon="4.82026">
        <ele>192</ele>
        <time>2021-08-14T11:10:05.000Z</time>
      </trkpt>
      <trkpt lat="49.75383" lon="4.8203">
        <ele>191</ele>
        <time>2021-08-14T11:10:06.000Z</time>
      </trkpt>
      <trkpt lat="49.7539" lon="4.82035">
        <ele>191</ele>
        <time>2021-08-14T11:10:07.000Z</time>
      </trkpt>
      <trkpt lat="49.75396" lon="4.8204">
        <ele>191</ele>
        <time>2021-08-14T11:10:08.000Z</time>
      </trkpt>
      <trkpt lat="49.75403" lon="4.82045">
        <ele>191</ele>
        <time>2021-08-14T11:10:09.000Z</time>
      </trkpt>
      <trkpt lat="49.75409" lon="4.8205">
        <ele>190</ele>
        <time>2021-08-14T11:10:10.000Z</time>
      </trkpt>
      <trkpt lat="49.75415" lon="4.82056">
        <ele>190</ele>
        <time>2021-08-14T11:10:11.000Z</time>
      </trkpt>
      <trkpt lat="49.75422" lon="4.82063">
        <ele>190</ele>
        <time>2021-08-14T11:10:12.000Z</time>
      </trkpt>
      <trkpt lat="49.75428" lon="4.82069">
        <ele>190</ele>
        <time>2021-08-14T11:10:13.000Z</time>
      </trkpt>
      <trkpt lat="49.75434" lon="4.82075">
        <ele>190</ele>
        <time>2021-08-14T11:10:14.000Z</time>
      </trkpt>
      <trkpt lat="49.75439" lon="4.82082">
        <ele>189</ele>
        <time>2021-08-14T11:10:15.000Z</time>
      </trkpt>
      <trkpt lat="49.75445" lon="4.82087">
        <ele>189</ele>
        <time>2021-08-14T11:10:16.000Z</time>
      </trkpt>
      <trkpt lat="49.75451" lon="4.82093">
        <ele>189</ele>
        <time>2021-08-14T11:10:17.000Z</time>
      </trkpt>
      <trkpt lat="49.75457" lon="4.82098">
        <ele>189</ele>
        <time>2021-08-14T11:10:18.000Z</time>
      </trkpt>
      <trkpt lat="49.75462" lon="4.82104">
        <ele>189</ele>
        <time>2021-08-14T11:10:19.000Z</time>
      </trkpt>
      <trkpt lat="49.75468" lon="4.82111">
        <ele>189</ele>
        <time>2021-08-14T11:10:20.000Z</time>
      </trkpt>
      <trkpt lat="49.75473" lon="4.82119">
        <ele>188</ele>
        <time>2021-08-14T11:10:21.000Z</time>
      </trkpt>
      <trkpt lat="49.75478" lon="4.82126">
        <ele>188</ele>
        <time>2021-08-14T11:10:22.000Z</time>
      </trkpt>
      <trkpt lat="49.75483" lon="4.82134">
        <ele>188</ele>
        <time>2021-08-14T11:10:23.000Z</time>
      </trkpt>
      <trkpt lat="49.75488" lon="4.82142">
        <ele>187</ele>
        <time>2021-08-14T11:10:24.000Z</time>
      </trkpt>
      <trkpt lat="49.75494" lon="4.82149">
        <ele>187</ele>
        <time>2021-08-14T11:10:25.000Z</time>
      </trkpt>
      <trkpt lat="49.75498" lon="4.82157">
        <ele>187</ele>
        <time>2021-08-14T11:10:26.000Z</time>
      </trkpt>
      <trkpt lat="49.75503" lon="4.82165">
        <ele>187</ele>
        <time>2021-08-14T11:10:27.000Z</time>
      </trkpt>
      <trkpt lat="49.75507" lon="4.82172">
        <ele>187</ele>
        <time>2021-08-14T11:10:28.000Z</time>
      </trkpt>
      <trkpt lat="49.75509" lon="4.82178">
        <ele>187</ele>
        <time>2021-08-14T11:10:29.000Z</time>
      </trkpt>
      <trkpt lat="49.7551" lon="4.82184">
        <ele>186</ele>
        <time>2021-08-14T11:10:30.000Z</time>
      </trkpt>
      <trkpt lat="49.75509" lon="4.82188">
        <ele>186</ele>
        <time>2021-08-14T11:10:31.000Z</time>
      </trkpt>
      <trkpt lat="49.75506" lon="4.8219">
        <ele>186</ele>
        <time>2021-08-14T11:10:32.000Z</time>
      </trkpt>
      <trkpt lat="49.75501" lon="4.82194">
        <ele>186</ele>
        <time>2021-08-14T11:10:33.000Z</time>
      </trkpt>
      <trkpt lat="49.75496" lon="4.82198">
        <ele>186</ele>
        <time>2021-08-14T11:10:34.000Z</time>
      </trkpt>
      <trkpt lat="49.75492" lon="4.82204">
        <ele>186</ele>
        <time>2021-08-14T11:10:35.000Z</time>
      </trkpt>
      <trkpt lat="49.75487" lon="4.8221">
        <ele>185</ele>
        <time>2021-08-14T11:10:36.000Z</time>
      </trkpt>
      <trkpt lat="49.75482" lon="4.82214">
        <ele>185</ele>
        <time>2021-08-14T11:10:37.000Z</time>
      </trkpt>
      <trkpt lat="49.75476" lon="4.82218">
        <ele>185</ele>
        <time>2021-08-14T11:10:38.000Z</time>
      </trkpt>
      <trkpt lat="49.7547" lon="4.8222">
        <ele>185</ele>
        <time>2021-08-14T11:10:39.000Z</time>
      </trkpt>
      <trkpt lat="49.75463" lon="4.82221">
        <ele>185</ele>
        <time>2021-08-14T11:10:40.000Z</time>
      </trkpt>
      <trkpt lat="49.75457" lon="4.82221">
        <ele>185</ele>
        <time>2021-08-14T11:10:41.000Z</time>
      </trkpt>
      <trkpt lat="49.75451" lon="4.82219">
        <ele>185</ele>
        <time>2021-08-14T11:10:42.000Z</time>
      </trkpt>
      <trkpt lat="49.75445" lon="4.82216">
        <ele>185</ele>
        <time>2021-08-14T11:10:43.000Z</time>
      </trkpt>
      <trkpt lat="49.75438" lon="4.82213">
        <ele>185</ele>
        <time>2021-08-14T11:10:44.000Z</time>
      </trkpt>
      <trkpt lat="49.75432" lon="4.82209">
        <ele>185</ele>
        <time>2021-08-14T11:10:45.000Z</time>
      </trkpt>
      <trkpt lat="49.75426" lon="4.82206">
        <ele>185</ele>
        <time>2021-08-14T11:10:46.000Z</time>
      </trkpt>
      <trkpt lat="49.7542" lon="4.82204">
        <ele>185</ele>
        <time>2021-08-14T11:10:47.000Z</time>
      </trkpt>
      <trkpt lat="49.75415" lon="4.82201">
        <ele>185</ele>
        <time>2021-08-14T11:10:48.000Z</time>
      </trkpt>
      <trkpt lat="49.75409" lon="4.82198">
        <ele>185</ele>
        <time>2021-08-14T11:10:49.000Z</time>
      </trkpt>
      <trkpt lat="49.75404" lon="4.82196">
        <ele>185</ele>
        <time>2021-08-14T11:10:50.000Z</time>
      </trkpt>
      <trkpt lat="49.75399" lon="4.82194">
        <ele>185</ele>
        <time>2021-08-14T11:10:51.000Z</time>
      </trkpt>
      <trkpt lat="49.75394" lon="4.82194">
        <ele>185</ele>
        <time>2021-08-14T11:10:52.000Z</time>
      </trkpt>
      <trkpt lat="49.7539" lon="4.82195">
        <ele>185</ele>
        <time>2021-08-14T11:10:53.000Z</time>
      </trkpt>
      <trkpt lat="49.75386" lon="4.82198">
        <ele>185</ele>
        <time>2021-08-14T11:10:54.000Z</time>
      </trkpt>
      <trkpt lat="49.75383" lon="4.82201">
        <ele>185</ele>
        <time>2021-08-14T11:10:55.000Z</time>
      </trkpt>
      <trkpt lat="49.75381" lon="4.82204">
        <ele>185</ele>
        <time>2021-08-14T11:10:56.000Z</time>
      </trkpt>
      <trkpt lat="49.75378" lon="4.82206">
        <ele>185</ele>
        <time>2021-08-14T11:10:57.000Z</time>
      </trkpt>
      <trkpt lat="49.75376" lon="4.82207">
        <ele>186</ele>
        <time>2021-08-14T11:10:58.000Z</time>
      </trkpt>
      <trkpt lat="49.75376" lon="4.82207">
        <ele>185</ele>
        <time>2021-08-14T11:10:59.000Z</time>
      </trkpt>
      <trkpt lat="49.75376" lon="4.82207">
        <ele>185</ele>
        <time>2021-08-14T11:11:00.000Z</time>
      </trkpt>
      <trkpt lat="49.75376" lon="4.82207">
        <ele>185</ele>
        <time>2021-08-14T11:11:01.000Z</time>
      </trkpt>
    </trkseg>
  </trk>
</gpx>